<?xml version='1.0' encoding='UTF-8'?><gpx version="1.1" creator="JPX - https://github.com/jenetics/jpx" xmlns="http://www.topografix.com/GPX/1/1"><trk><trkseg><trkpt lat="36.90887850990558" lon="14.552831312414376"><ele>219.33333333333331</ele><time>2026-05-03T07:07:07Z</time></trkpt><trkpt lat="36.90885877470963" lon="14.5529481367095"><ele>221.66666666666666</ele><time>2026-05-03T07:07:09Z</time></trkpt><trkpt lat="36.908862703714846" lon="14.553067915169668"><ele>224.0</ele><time>2026-05-03T07:07:11Z</time></trkpt><trkpt lat="36.90883681107046" lon="14.553171198119394"><ele>226.33333333333331</ele><time>2026-05-03T07:07:13Z</time></trkpt><trkpt lat="36.90886536775745" lon="14.553255988035511"><ele>228.66666666666666</ele><time>2026-05-03T07:07:15Z</time></trkpt><trkpt lat="36.90883780454142" lon="14.553340362420125"><ele>231.0</ele><time>2026-05-03T07:07:17Z</time></trkpt><trkpt lat="36.90882598277355" lon="14.553423682370173"><ele>231.0</ele><time>2026-05-03T07:07:18Z</time></trkpt><trkpt lat="36.908814888180636" lon="14.553504977185916"><ele>231.0</ele><time>2026-05-03T07:07:19Z</time></trkpt><trkpt lat="36.90880446759333" lon="14.553584541723149"><ele>231.0</ele><time>2026-05-03T07:07:20Z</time></trkpt><trkpt lat="36.90878739379685" lon="14.55369652309262"><ele>231.0</ele><time>2026-05-03T07:07:22Z</time></trkpt><trkpt lat="36.90883923376515" lon="14.553745673032958"><ele>231.0</ele><time>2026-05-03T07:07:23Z</time></trkpt><trkpt lat="36.90892109442508" lon="14.55381973436946"><ele>231.0</ele><time>2026-05-03T07:07:25Z</time></trkpt><trkpt lat="36.908965728061425" lon="14.553908332630341"><ele>233.8</ele><time>2026-05-03T07:07:28Z</time></trkpt><trkpt lat="36.90898335805191" lon="14.554024090850286"><ele>236.60000000000002</ele><time>2026-05-03T07:07:30Z</time></trkpt><trkpt lat="36.90892477903953" lon="14.554100092998718"><ele>239.4</ele><time>2026-05-03T07:07:32Z</time></trkpt><trkpt lat="36.908887102289306" lon="14.554176875802499"><ele>242.2</ele><time>2026-05-03T07:07:34Z</time></trkpt><trkpt lat="36.90877990497617" lon="14.554274403005621"><ele>245.0</ele><time>2026-05-03T07:07:36Z</time></trkpt><trkpt lat="36.90868978028661" lon="14.554356873237563"><ele>245.00000000000003</ele><time>2026-05-03T07:07:38Z</time></trkpt><trkpt lat="36.9086300145939" lon="14.554309590648977"><ele>245.0</ele><time>2026-05-03T07:08:08.999Z</time></trkpt><trkpt lat="36.90855645136006" lon="14.554373353376958"><ele>245.0</ele><time>2026-05-03T07:08:10.999Z</time></trkpt><trkpt lat="36.90852432835289" lon="14.554450842551516"><ele>245.0</ele><time>2026-05-03T07:08:13.999Z</time></trkpt><trkpt lat="36.908582454430594" lon="14.554520913612441"><ele>245.00000000000003</ele><time>2026-05-03T07:08:18.999Z</time></trkpt><trkpt lat="36.90861214051272" lon="14.554611161608413"><ele>245.0</ele><time>2026-05-03T07:08:23.999Z</time></trkpt><trkpt lat="36.908652417829636" lon="14.55471407565445"><ele>248.50000000000003</ele><time>2026-05-03T07:08:25.999Z</time></trkpt><trkpt lat="36.90871297887212" lon="14.554798805861049"><ele>252.0</ele><time>2026-05-03T07:08:27.999Z</time></trkpt><trkpt lat="36.908804896753075" lon="14.554887596385662"><ele>255.5</ele><time>2026-05-03T07:08:30.999Z</time></trkpt><trkpt lat="36.90878553010099" lon="14.554970977261421"><ele>259.0</ele><time>2026-05-03T07:08:34.999Z</time></trkpt><trkpt lat="36.90876187458941" lon="14.55507728910536"><ele>262.5</ele><time>2026-05-03T07:08:37.999Z</time></trkpt><trkpt lat="36.908817150440676" lon="14.555131056684386"><ele>266.0</ele><time>2026-05-03T07:08:46.999Z</time></trkpt><trkpt lat="36.908804040776324" lon="14.555213669094968"><ele>266.0</ele><time>2026-05-03T07:08:50Z</time></trkpt><trkpt lat="36.90877968658086" lon="14.555290897522369"><ele>266.0</ele><time>2026-05-03T07:08:52Z</time></trkpt><trkpt lat="36.908748385061024" lon="14.555359363415626"><ele>266.0</ele><time>2026-05-03T07:08:55Z</time></trkpt><trkpt lat="36.90868608095752" lon="14.555402768441256"><ele>266.0</ele><time>2026-05-03T07:09:19Z</time></trkpt><trkpt lat="36.90863082211938" lon="14.555448367970756"><ele>266.0</ele><time>2026-05-03T07:09:32Z</time></trkpt><trkpt lat="36.90871745155228" lon="14.555383498484847"><ele>266.0</ele><time>2026-05-03T07:10:36.999Z</time></trkpt><trkpt lat="36.90863748063998" lon="14.555450397949544"><ele>269.1666666666667</ele><time>2026-05-03T07:11:26Z</time></trkpt><trkpt lat="36.90859844218211" lon="14.555540929469377"><ele>272.33333333333337</ele><time>2026-05-03T07:11:29Z</time></trkpt><trkpt lat="36.90854079893574" lon="14.555504404328593"><ele>275.5</ele><time>2026-05-03T07:11:48Z</time></trkpt><trkpt lat="36.90851343266346" lon="14.555604165938451"><ele>278.6666666666667</ele><time>2026-05-03T07:12:10.999Z</time></trkpt><trkpt lat="36.908457408964345" lon="14.555647880643331"><ele>281.8333333333333</ele><time>2026-05-03T07:13:27Z</time></trkpt><trkpt lat="36.908385102092375" lon="14.555731937675283"><ele>285.0</ele><time>2026-05-03T07:13:29Z</time></trkpt><trkpt lat="36.908337446204214" lon="14.555803981664553"><ele>286.4</ele><time>2026-05-03T07:13:31Z</time></trkpt><trkpt lat="36.90827529481096" lon="14.555914510760243"><ele>287.8</ele><time>2026-05-03T07:13:33Z</time></trkpt><trkpt lat="36.90822073655223" lon="14.556035361164742"><ele>289.2</ele><time>2026-05-03T07:13:35Z</time></trkpt><trkpt lat="36.90815930675355" lon="14.556151728719154"><ele>290.6</ele><time>2026-05-03T07:13:37Z</time></trkpt><trkpt lat="36.9081145071626" lon="14.556220309063114"><ele>292.0</ele><time>2026-05-03T07:13:41Z</time></trkpt><trkpt lat="36.90812770254362" lon="14.556302510818268"><ele>293.0</ele><time>2026-05-03T07:13:49Z</time></trkpt><trkpt lat="36.908071563124544" lon="14.55633975033949"><ele>294.0</ele><time>2026-05-03T07:15:06.999Z</time></trkpt><trkpt lat="36.90808925542024" lon="14.556436079124776"><ele>295.0</ele><time>2026-05-03T07:15:10Z</time></trkpt><trkpt lat="36.908142453358" lon="14.556501875806257"><ele>296.0</ele><time>2026-05-03T07:16:01.999Z</time></trkpt><trkpt lat="36.90817317797654" lon="14.55659176569378"><ele>297.0</ele><time>2026-05-03T07:16:03.999Z</time></trkpt><trkpt lat="36.908209623980156" lon="14.556676256593873"><ele>298.0</ele><time>2026-05-03T07:16:04.999Z</time></trkpt><trkpt lat="36.90826380421659" lon="14.556794853022835"><ele>298.0</ele><time>2026-05-03T07:16:05.999Z</time></trkpt><trkpt lat="36.908294765980095" lon="14.556955787962085"><ele>298.0</ele><time>2026-05-03T07:16:06.999Z</time></trkpt><trkpt lat="36.90835976078051" lon="14.557075821422654"><ele>298.0</ele><time>2026-05-03T07:16:07.999Z</time></trkpt><trkpt lat="36.908402555321246" lon="14.557190284905294"><ele>298.0</ele><time>2026-05-03T07:16:08.999Z</time></trkpt><trkpt lat="36.90844835291751" lon="14.557309922351843"><ele>299.0</ele><time>2026-05-03T07:16:09.999Z</time></trkpt><trkpt lat="36.908497497675576" lon="14.557433888122377"><ele>300.0</ele><time>2026-05-03T07:16:10.999Z</time></trkpt><trkpt lat="36.908545869648975" lon="14.55755834275607"><ele>301.0</ele><time>2026-05-03T07:16:11.999Z</time></trkpt><trkpt lat="36.90859818882304" lon="14.55767965450589"><ele>302.0</ele><time>2026-05-03T07:16:12.999Z</time></trkpt><trkpt lat="36.90865955970433" lon="14.55781090421807"><ele>302.75</ele><time>2026-05-03T07:16:13.999Z</time></trkpt><trkpt lat="36.90872822213817" lon="14.557946129097305"><ele>303.5</ele><time>2026-05-03T07:16:14.999Z</time></trkpt><trkpt lat="36.90880333800255" lon="14.55809270832417"><ele>304.25</ele><time>2026-05-03T07:16:15.999Z</time></trkpt><trkpt lat="36.90887178153669" lon="14.55822736642043"><ele>305.0</ele><time>2026-05-03T07:16:16.999Z</time></trkpt><trkpt lat="36.908931254026875" lon="14.558347496533129"><ele>305.0</ele><time>2026-05-03T07:16:17.999Z</time></trkpt><trkpt lat="36.9089854794966" lon="14.558461724861443"><ele>305.0</ele><time>2026-05-03T07:16:18.999Z</time></trkpt><trkpt lat="36.909043112975475" lon="14.558575168430721"><ele>305.0</ele><time>2026-05-03T07:16:19.999Z</time></trkpt><trkpt lat="36.909069764730965" lon="14.558692236162454"><ele>305.0</ele><time>2026-05-03T07:16:20.999Z</time></trkpt><trkpt lat="36.9090513929454" lon="14.558813909889682"><ele>305.0</ele><time>2026-05-03T07:16:21.999Z</time></trkpt><trkpt lat="36.90896943147439" lon="14.558922316757497"><ele>307.0</ele><time>2026-05-03T07:16:22.999Z</time></trkpt><trkpt lat="36.90889448160235" lon="14.559067911623632"><ele>309.0</ele><time>2026-05-03T07:16:23.999Z</time></trkpt><trkpt lat="36.9088185097445" lon="14.5592506691493"><ele>311.0</ele><time>2026-05-03T07:16:24.999Z</time></trkpt><trkpt lat="36.908718237359224" lon="14.559404010047828"><ele>312.8</ele><time>2026-05-03T07:16:25.999Z</time></trkpt><trkpt lat="36.90864174337263" lon="14.559548077321356"><ele>314.6</ele><time>2026-05-03T07:16:26.999Z</time></trkpt><trkpt lat="36.908586656668696" lon="14.559685450357334"><ele>316.4</ele><time>2026-05-03T07:16:27.999Z</time></trkpt><trkpt lat="36.9085399793896" lon="14.559771307223201"><ele>318.2</ele><time>2026-05-03T07:16:28.999Z</time></trkpt><trkpt lat="36.908518632208114" lon="14.559847580003586"><ele>320.0</ele><time>2026-05-03T07:16:29.999Z</time></trkpt><trkpt lat="36.90853963511965" lon="14.560022660842497"><ele>320.0</ele><time>2026-05-03T07:16:31.999Z</time></trkpt><trkpt lat="36.90866966289309" lon="14.560115996679878"><ele>320.0</ele><time>2026-05-03T07:16:32.999Z</time></trkpt><trkpt lat="36.908772667691906" lon="14.56023938101213"><ele>320.0</ele><time>2026-05-03T07:16:33.999Z</time></trkpt><trkpt lat="36.90888081207757" lon="14.560380379923503"><ele>320.0</ele><time>2026-05-03T07:16:34.999Z</time></trkpt><trkpt lat="36.90899064488378" lon="14.560525023689035"><ele>321.25</ele><time>2026-05-03T07:16:35.999Z</time></trkpt><trkpt lat="36.909094909476465" lon="14.560656826875704"><ele>322.5</ele><time>2026-05-03T07:16:36.999Z</time></trkpt><trkpt lat="36.90919485813042" lon="14.560784996974373"><ele>323.75</ele><time>2026-05-03T07:16:37.999Z</time></trkpt><trkpt lat="36.909293239489365" lon="14.560911138111843"><ele>325.0</ele><time>2026-05-03T07:16:38.999Z</time></trkpt><trkpt lat="36.90938493423464" lon="14.561046400323177"><ele>325.0</ele><time>2026-05-03T07:16:39.999Z</time></trkpt><trkpt lat="36.90945792697151" lon="14.56119422217087"><ele>325.0</ele><time>2026-05-03T07:16:40.999Z</time></trkpt><trkpt lat="36.90952625978739" lon="14.561356760467392"><ele>325.0</ele><time>2026-05-03T07:16:41.999Z</time></trkpt><trkpt lat="36.90959875966086" lon="14.561503016220536"><ele>325.0</ele><time>2026-05-03T07:16:42.999Z</time></trkpt><trkpt lat="36.90966228157641" lon="14.56162966787424"><ele>328.0</ele><time>2026-05-03T07:16:43.999Z</time></trkpt><trkpt lat="36.90972758350149" lon="14.56176190825196"><ele>331.0</ele><time>2026-05-03T07:16:44.999Z</time></trkpt><trkpt lat="36.90978916619497" lon="14.561889583900482"><ele>334.0</ele><time>2026-05-03T07:16:45.999Z</time></trkpt><trkpt lat="36.909855821744216" lon="14.562005028516273"><ele>337.0</ele><time>2026-05-03T07:16:46.999Z</time></trkpt><trkpt lat="36.90993105647162" lon="14.562101385078003"><ele>338.6</ele><time>2026-05-03T07:16:47.999Z</time></trkpt><trkpt lat="36.9100260891618" lon="14.562169441436858"><ele>340.20000000000005</ele><time>2026-05-03T07:16:48.999Z</time></trkpt><trkpt lat="36.9101296235092" lon="14.562215908441564"><ele>341.8</ele><time>2026-05-03T07:16:49.999Z</time></trkpt><trkpt lat="36.91022980089108" lon="14.562255646578055"><ele>343.4</ele><time>2026-05-03T07:16:50.999Z</time></trkpt><trkpt lat="36.9103364311317" lon="14.562299320845732"><ele>345.0</ele><time>2026-05-03T07:16:51.999Z</time></trkpt><trkpt lat="36.91045038637722" lon="14.56235180328477"><ele>345.0</ele><time>2026-05-03T07:16:52.999Z</time></trkpt><trkpt lat="36.91056862017716" lon="14.56241336924831"><ele>345.0</ele><time>2026-05-03T07:16:53.999Z</time></trkpt><trkpt lat="36.91069000116938" lon="14.562478253697433"><ele>345.0</ele><time>2026-05-03T07:16:54.999Z</time></trkpt><trkpt lat="36.910821641560254" lon="14.562538637698864"><ele>345.0</ele><time>2026-05-03T07:16:55.999Z</time></trkpt><trkpt lat="36.910959802759194" lon="14.562597356760207"><ele>343.25</ele><time>2026-05-03T07:16:56.999Z</time></trkpt><trkpt lat="36.911097858042616" lon="14.562654428231806"><ele>341.5</ele><time>2026-05-03T07:16:57.999Z</time></trkpt><trkpt lat="36.911227223842154" lon="14.562725450999737"><ele>339.75</ele><time>2026-05-03T07:16:58.999Z</time></trkpt><trkpt lat="36.911367785034564" lon="14.5627657534317"><ele>338.0</ele><time>2026-05-03T07:16:59.999Z</time></trkpt><trkpt lat="36.911490555535316" lon="14.562821003726024"><ele>339.5</ele><time>2026-05-03T07:17:00.999Z</time></trkpt><trkpt lat="36.91160099173274" lon="14.562871832873434"><ele>341.0</ele><time>2026-05-03T07:17:01.999Z</time></trkpt><trkpt lat="36.911694545368334" lon="14.562956206156318"><ele>342.5</ele><time>2026-05-03T07:17:02.999Z</time></trkpt><trkpt lat="36.91179442741242" lon="14.563057084596116"><ele>344.0</ele><time>2026-05-03T07:17:03.999Z</time></trkpt><trkpt lat="36.91188574413939" lon="14.563128246482618"><ele>344.0</ele><time>2026-05-03T07:17:04.999Z</time></trkpt><trkpt lat="36.91194995952859" lon="14.563195219860633"><ele>344.0</ele><time>2026-05-03T07:17:05.999Z</time></trkpt><trkpt lat="36.912020074591965" lon="14.563279738019174"><ele>344.0</ele><time>2026-05-03T07:17:07.999Z</time></trkpt><trkpt lat="36.91201573797298" lon="14.563362972588807"><ele>344.0</ele><time>2026-05-03T07:17:09.999Z</time></trkpt><trkpt lat="36.91207924557765" lon="14.563384005259604"><ele>344.0</ele><time>2026-05-03T07:20:28.999Z</time></trkpt><trkpt lat="36.91213761731535" lon="14.563433408959156"><ele>344.0</ele><time>2026-05-03T07:20:33.999Z</time></trkpt><trkpt lat="36.91220066789295" lon="14.563512252871337"><ele>344.0</ele><time>2026-05-03T07:20:35.999Z</time></trkpt><trkpt lat="36.91227194654077" lon="14.563571822225812"><ele>344.0</ele><time>2026-05-03T07:20:37.999Z</time></trkpt><trkpt lat="36.91233466428977" lon="14.563624438185192"><ele>344.0</ele><time>2026-05-03T07:20:39.999Z</time></trkpt><trkpt lat="36.912394095300876" lon="14.563673709665517"><ele>344.0</ele><time>2026-05-03T07:20:43.999Z</time></trkpt><trkpt lat="36.91243048182526" lon="14.563749153458557"><ele>344.0</ele><time>2026-05-03T07:21:51Z</time></trkpt><trkpt lat="36.91250445649953" lon="14.563811855318903"><ele>344.0</ele><time>2026-05-03T07:21:54Z</time></trkpt><trkpt lat="36.91255820641258" lon="14.563892437190264"><ele>342.6666666666667</ele><time>2026-05-03T07:21:56Z</time></trkpt><trkpt lat="36.912607326230294" lon="14.563956018254931"><ele>341.33333333333337</ele><time>2026-05-03T07:22:00Z</time></trkpt><trkpt lat="36.91267946253753" lon="14.564044773284289"><ele>340.0</ele><time>2026-05-03T07:22:02Z</time></trkpt><trkpt lat="36.91275260694472" lon="14.564115441307477"><ele>338.6666666666667</ele><time>2026-05-03T07:22:03Z</time></trkpt><trkpt lat="36.912814158617174" lon="14.564193830471044"><ele>337.3333333333333</ele><time>2026-05-03T07:22:04Z</time></trkpt><trkpt lat="36.912883059783" lon="14.564277429833453"><ele>336.0</ele><time>2026-05-03T07:22:05Z</time></trkpt><trkpt lat="36.912956513106344" lon="14.5643673615893"><ele>336.0</ele><time>2026-05-03T07:22:06Z</time></trkpt><trkpt lat="36.913021094326986" lon="14.56444643092314"><ele>336.0</ele><time>2026-05-03T07:22:07Z</time></trkpt><trkpt lat="36.91309109728612" lon="14.564532138254592"><ele>336.0</ele><time>2026-05-03T07:22:08Z</time></trkpt><trkpt lat="36.91316130054456" lon="14.564618090786114"><ele>336.0</ele><time>2026-05-03T07:22:09Z</time></trkpt><trkpt lat="36.91325040363311" lon="14.564694777788903"><ele>336.0</ele><time>2026-05-03T07:22:10Z</time></trkpt><trkpt lat="36.913312699227575" lon="14.564780279918933"><ele>337.6</ele><time>2026-05-03T07:22:11Z</time></trkpt><trkpt lat="36.91337300220747" lon="14.564865974794898"><ele>339.20000000000005</ele><time>2026-05-03T07:22:12Z</time></trkpt><trkpt lat="36.91341635934953" lon="14.564953746699397"><ele>340.79999999999995</ele><time>2026-05-03T07:22:13Z</time></trkpt><trkpt lat="36.913475926489554" lon="14.565051514409742"><ele>342.4</ele><time>2026-05-03T07:22:14Z</time></trkpt><trkpt lat="36.91353816979864" lon="14.565145286662867"><ele>344.0</ele><time>2026-05-03T07:22:15Z</time></trkpt><trkpt lat="36.91360609612646" lon="14.565243022729701"><ele>342.5</ele><time>2026-05-03T07:22:16Z</time></trkpt><trkpt lat="36.91366722518717" lon="14.565334104889176"><ele>341.0</ele><time>2026-05-03T07:22:16.999Z</time></trkpt><trkpt lat="36.913731804528226" lon="14.565427955256698"><ele>339.5</ele><time>2026-05-03T07:22:17.999Z</time></trkpt><trkpt lat="36.91378144269281" lon="14.565509226168098"><ele>338.0</ele><time>2026-05-03T07:22:18.999Z</time></trkpt><trkpt lat="36.91382196819131" lon="14.56560052588937"><ele>336.5</ele><time>2026-05-03T07:22:19.999Z</time></trkpt><trkpt lat="36.913870246796954" lon="14.565673521145024"><ele>335.0</ele><time>2026-05-03T07:22:20.999Z</time></trkpt><trkpt lat="36.91391521524701" lon="14.565756425717828"><ele>335.0</ele><time>2026-05-03T07:22:21.999Z</time></trkpt><trkpt lat="36.91394792758094" lon="14.565845707266423"><ele>335.0</ele><time>2026-05-03T07:22:22.999Z</time></trkpt><trkpt lat="36.913979828658825" lon="14.56595383928089"><ele>335.0</ele><time>2026-05-03T07:22:23.999Z</time></trkpt><trkpt lat="36.9139984173748" lon="14.566061010618284"><ele>335.0</ele><time>2026-05-03T07:22:24.999Z</time></trkpt><trkpt lat="36.91400909664698" lon="14.566161539930091"><ele>335.0</ele><time>2026-05-03T07:22:25.999Z</time></trkpt><trkpt lat="36.91403263098256" lon="14.56625947903246"><ele>335.0</ele><time>2026-05-03T07:22:26.999Z</time></trkpt><trkpt lat="36.91403538617247" lon="14.566375610755067"><ele>335.83333333333337</ele><time>2026-05-03T07:22:27.999Z</time></trkpt><trkpt lat="36.914067117700235" lon="14.56648041932329"><ele>336.6666666666667</ele><time>2026-05-03T07:22:28.999Z</time></trkpt><trkpt lat="36.91410906363077" lon="14.566582271576447"><ele>337.5</ele><time>2026-05-03T07:22:29.999Z</time></trkpt><trkpt lat="36.91412989409376" lon="14.566686046179916"><ele>338.3333333333333</ele><time>2026-05-03T07:22:30.999Z</time></trkpt><trkpt lat="36.91415939409791" lon="14.566791631835894"><ele>339.16666666666663</ele><time>2026-05-03T07:22:31.999Z</time></trkpt><trkpt lat="36.91419974702032" lon="14.566875044089135"><ele>340.0</ele><time>2026-05-03T07:22:32.999Z</time></trkpt><trkpt lat="36.9142187922792" lon="14.566998298411237"><ele>339.3333333333333</ele><time>2026-05-03T07:22:34.999Z</time></trkpt><trkpt lat="36.914244753599945" lon="14.56707988567728"><ele>338.66666666666663</ele><time>2026-05-03T07:22:36.999Z</time></trkpt><trkpt lat="36.91427294528372" lon="14.567161036259728"><ele>338.0</ele><time>2026-05-03T07:22:39.999Z</time></trkpt><trkpt lat="36.9142069059891" lon="14.5672371830745"><ele>337.3333333333333</ele><time>2026-05-03T07:22:42.999Z</time></trkpt><trkpt lat="36.914145058375446" lon="14.56729401294501"><ele>336.6666666666667</ele><time>2026-05-03T07:22:44.999Z</time></trkpt><trkpt lat="36.914108140099195" lon="14.56737651602196"><ele>336.0</ele><time>2026-05-03T07:22:46.999Z</time></trkpt><trkpt lat="36.91406719244455" lon="14.567455331336491"><ele>338.3333333333333</ele><time>2026-05-03T07:22:52.999Z</time></trkpt><trkpt lat="36.91401061335037" lon="14.567521643774855"><ele>340.6666666666667</ele><time>2026-05-03T07:22:56.999Z</time></trkpt><trkpt lat="36.913954102250024" lon="14.567599026860643"><ele>343.0</ele><time>2026-05-03T07:22:59.999Z</time></trkpt><trkpt lat="36.9139291274889" lon="14.567671688252936"><ele>345.33333333333337</ele><time>2026-05-03T07:23:05.999Z</time></trkpt><trkpt lat="36.91389986086277" lon="14.567765619413061"><ele>347.6666666666667</ele><time>2026-05-03T07:23:09.999Z</time></trkpt><trkpt lat="36.91385378558921" lon="14.567846534778303"><ele>350.0</ele><time>2026-05-03T07:23:16.999Z</time></trkpt><trkpt lat="36.91382364242948" lon="14.567946844208711"><ele>352.14285714285717</ele><time>2026-05-03T07:23:23.999Z</time></trkpt><trkpt lat="36.913835392213436" lon="14.56804517777029"><ele>354.2857142857143</ele><time>2026-05-03T07:23:37Z</time></trkpt><trkpt lat="36.91378231907503" lon="14.568088481304462"><ele>356.42857142857144</ele><time>2026-05-03T07:24:50.999Z</time></trkpt><trkpt lat="36.91375256672473" lon="14.568175741845698"><ele>358.57142857142856</ele><time>2026-05-03T07:27:27.999Z</time></trkpt><trkpt lat="36.91369145811137" lon="14.5682275620529"><ele>360.7142857142857</ele><time>2026-05-03T07:27:40.999Z</time></trkpt><trkpt lat="36.913638764828015" lon="14.568283915052065"><ele>362.8571428571429</ele><time>2026-05-03T07:28:30.999Z</time></trkpt><trkpt lat="36.91365284306422" lon="14.568381215636755"><ele>365.0</ele><time>2026-05-03T07:30:39.999Z</time></trkpt><trkpt lat="36.913668898835674" lon="14.56846193812353"><ele>365.0</ele><time>2026-05-03T07:30:47.999Z</time></trkpt><trkpt lat="36.913600175567396" lon="14.568482622862163"><ele>365.0</ele><time>2026-05-03T07:30:55.999Z</time></trkpt><trkpt lat="36.91358486337254" lon="14.568571471190705"><ele>365.0</ele><time>2026-05-03T07:31:09.999Z</time></trkpt><trkpt lat="36.913559572225516" lon="14.568653552063523"><ele>365.0</ele><time>2026-05-03T07:31:33.999Z</time></trkpt><trkpt lat="36.9135105068442" lon="14.568710710309249"><ele>365.0</ele><time>2026-05-03T07:31:36.999Z</time></trkpt><trkpt lat="36.91343582016726" lon="14.568688943400039"><ele>365.0</ele><time>2026-05-03T07:31:39.999Z</time></trkpt><trkpt lat="36.91330370798689" lon="14.568726357138464"><ele>368.14285714285717</ele><time>2026-05-03T07:31:41.999Z</time></trkpt><trkpt lat="36.91321570715362" lon="14.568735977603176"><ele>371.2857142857143</ele><time>2026-05-03T07:31:43.999Z</time></trkpt><trkpt lat="36.913172010565" lon="14.568804796692051"><ele>374.42857142857144</ele><time>2026-05-03T07:31:45.999Z</time></trkpt><trkpt lat="36.91313343336928" lon="14.568875422050738"><ele>377.57142857142856</ele><time>2026-05-03T07:31:47.999Z</time></trkpt><trkpt lat="36.913180548789704" lon="14.568801328184973"><ele>380.7142857142857</ele><time>2026-05-03T07:39:06.999Z</time></trkpt><trkpt lat="36.913198606393145" lon="14.568725434519477"><ele>383.8571428571429</ele><time>2026-05-03T07:39:11.999Z</time></trkpt><trkpt lat="36.91317545567061" lon="14.568816119746872"><ele>387.0</ele><time>2026-05-03T07:40:06.999Z</time></trkpt><trkpt lat="36.91315569182487" lon="14.568892459478331"><ele>387.0</ele><time>2026-05-03T07:43:22.999Z</time></trkpt><trkpt lat="36.91319283309657" lon="14.568821061143888"><ele>387.0</ele><time>2026-05-03T07:48:32.999Z</time></trkpt><trkpt lat="36.91319442036498" lon="14.568739665554407"><ele>387.0</ele><time>2026-05-03T07:48:37.999Z</time></trkpt><trkpt lat="36.913180382768125" lon="14.56866097046285"><ele>387.0</ele><time>2026-05-03T07:52:12.999Z</time></trkpt><trkpt lat="36.913210024899065" lon="14.568737011085657"><ele>387.0</ele><time>2026-05-03T07:57:47.999Z</time></trkpt><trkpt lat="36.91321307392163" lon="14.56881960443969"><ele>387.0</ele><time>2026-05-03T07:57:54.999Z</time></trkpt><trkpt lat="36.91315730645352" lon="14.568857309141446"><ele>387.0</ele><time>2026-05-03T07:58:01.999Z</time></trkpt><trkpt lat="36.91308197662886" lon="14.568852305483135"><ele>387.0</ele><time>2026-05-03T08:01:29.998Z</time></trkpt><trkpt lat="36.91297243789197" lon="14.568867773696807"><ele>387.0</ele><time>2026-05-03T08:01:32.998Z</time></trkpt><trkpt lat="36.91294951608513" lon="14.568989969328536"><ele>387.0</ele><time>2026-05-03T08:01:34.998Z</time></trkpt><trkpt lat="36.91291403814938" lon="14.569084035896081"><ele>387.0</ele><time>2026-05-03T08:01:37.998Z</time></trkpt><trkpt lat="36.912904946466874" lon="14.569215168559259"><ele>387.0</ele><time>2026-05-03T08:01:39.998Z</time></trkpt><trkpt lat="36.912902927986444" lon="14.56930529824865"><ele>387.0</ele><time>2026-05-03T08:01:40.998Z</time></trkpt><trkpt lat="36.91289838224996" lon="14.569413867968628"><ele>387.0</ele><time>2026-05-03T08:01:41.998Z</time></trkpt><trkpt lat="36.91290060036954" lon="14.569558215381374"><ele>387.0</ele><time>2026-05-03T08:01:42.999Z</time></trkpt><trkpt lat="36.91291888104863" lon="14.569758683554317"><ele>387.0</ele><time>2026-05-03T08:01:43.999Z</time></trkpt><trkpt lat="36.91293058701632" lon="14.569978607580346"><ele>387.0</ele><time>2026-05-03T08:01:44.999Z</time></trkpt><trkpt lat="36.91292885176992" lon="14.570171173720905"><ele>387.0</ele><time>2026-05-03T08:01:45.999Z</time></trkpt><trkpt lat="36.91292861411103" lon="14.570301277123697"><ele>387.0</ele><time>2026-05-03T08:01:46.999Z</time></trkpt><trkpt lat="36.91292847180112" lon="14.570388382825291"><ele>387.0</ele><time>2026-05-03T08:01:47.999Z</time></trkpt><trkpt lat="36.91292830681051" lon="14.57048937238669"><ele>387.0</ele><time>2026-05-03T08:01:48.999Z</time></trkpt><trkpt lat="36.91292811512031" lon="14.570606705360973"><ele>387.6</ele><time>2026-05-03T08:01:49.999Z</time></trkpt><trkpt lat="36.91292794829938" lon="14.570708815758072"><ele>388.20000000000005</ele><time>2026-05-03T08:01:50.999Z</time></trkpt><trkpt lat="36.91292778117581" lon="14.57081111171081"><ele>388.8</ele><time>2026-05-03T08:01:51.999Z</time></trkpt><trkpt lat="36.912928431103516" lon="14.570934767416606"><ele>389.4</ele><time>2026-05-03T08:01:52.999Z</time></trkpt><trkpt lat="36.91292952464594" lon="14.571079462928713"><ele>390.0</ele><time>2026-05-03T08:01:53.999Z</time></trkpt><trkpt lat="36.91294401886247" lon="14.571222796444113"><ele>390.4</ele><time>2026-05-03T08:01:54.999Z</time></trkpt><trkpt lat="36.9129449367252" lon="14.571355246125032"><ele>390.8</ele><time>2026-05-03T08:01:55.999Z</time></trkpt><trkpt lat="36.912955600204484" lon="14.571474025835577"><ele>391.20000000000005</ele><time>2026-05-03T08:01:56.999Z</time></trkpt><trkpt lat="36.9129473082531" lon="14.571590139510745"><ele>391.6</ele><time>2026-05-03T08:01:57.999Z</time></trkpt><trkpt lat="36.91296339626483" lon="14.571735713640301"><ele>392.0</ele><time>2026-05-03T08:01:58.999Z</time></trkpt><trkpt lat="36.91299575098985" lon="14.571869858582593"><ele>392.0</ele><time>2026-05-03T08:01:59.999Z</time></trkpt><trkpt lat="36.91301575733943" lon="14.572011225638112"><ele>392.0</ele><time>2026-05-03T08:02:00.999Z</time></trkpt><trkpt lat="36.91303729013173" lon="14.572136546997317"><ele>392.0</ele><time>2026-05-03T08:02:01.999Z</time></trkpt><trkpt lat="36.91306571807106" lon="14.572260444447924"><ele>392.0</ele><time>2026-05-03T08:02:02.999Z</time></trkpt><trkpt lat="36.913095797600896" lon="14.572396531694203"><ele>392.0</ele><time>2026-05-03T08:02:03.999Z</time></trkpt><trkpt lat="36.913131134923276" lon="14.572527711676754"><ele>392.25</ele><time>2026-05-03T08:02:04.999Z</time></trkpt><trkpt lat="36.91316595714876" lon="14.572664432350443"><ele>392.5</ele><time>2026-05-03T08:02:05.999Z</time></trkpt><trkpt lat="36.9131972827472" lon="14.572800221719982"><ele>392.75</ele><time>2026-05-03T08:02:06.999Z</time></trkpt><trkpt lat="36.91322523905465" lon="14.57293574940977"><ele>393.0</ele><time>2026-05-03T08:02:07.999Z</time></trkpt><trkpt lat="36.913250990797884" lon="14.5730742025435"><ele>393.0</ele><time>2026-05-03T08:02:08.999Z</time></trkpt><trkpt lat="36.913277713437466" lon="14.573216567647869"><ele>393.0</ele><time>2026-05-03T08:02:09.999Z</time></trkpt><trkpt lat="36.91330241521927" lon="14.573360312013422"><ele>393.0</ele><time>2026-05-03T08:02:10.999Z</time></trkpt><trkpt lat="36.913325755564124" lon="14.573485522714352"><ele>393.0</ele><time>2026-05-03T08:02:11.999Z</time></trkpt><trkpt lat="36.91334488381818" lon="14.573593742714639"><ele>393.0</ele><time>2026-05-03T08:02:12.999Z</time></trkpt><trkpt lat="36.91335786765955" lon="14.573677606269634"><ele>392.66666666666663</ele><time>2026-05-03T08:02:13.999Z</time></trkpt><trkpt lat="36.9133825758738" lon="14.573806046693242"><ele>392.3333333333333</ele><time>2026-05-03T08:02:15.999Z</time></trkpt><trkpt lat="36.913460180186526" lon="14.57411150727552"><ele>392.0</ele><time>2026-05-03T08:03:11.999Z</time></trkpt><trkpt lat="36.91350302003945" lon="14.574287063902043"><ele>392.5</ele><time>2026-05-03T08:03:12.999Z</time></trkpt><trkpt lat="36.913499138926035" lon="14.574484026939642"><ele>393.0</ele><time>2026-05-03T08:03:13.999Z</time></trkpt><trkpt lat="36.91353232557145" lon="14.574661109100038"><ele>393.5</ele><time>2026-05-03T08:03:14.999Z</time></trkpt><trkpt lat="36.91356509860787" lon="14.574835984312518"><ele>394.0</ele><time>2026-05-03T08:03:15.999Z</time></trkpt><trkpt lat="36.913593689658036" lon="14.574988544664008"><ele>394.0</ele><time>2026-05-03T08:03:16.999Z</time></trkpt><trkpt lat="36.91362047319438" lon="14.575131460162924"><ele>394.0</ele><time>2026-05-03T08:03:17.999Z</time></trkpt><trkpt lat="36.913646756668044" lon="14.57527170739669"><ele>394.0</ele><time>2026-05-03T08:03:18.999Z</time></trkpt><trkpt lat="36.91366868680795" lon="14.57539842420813"><ele>394.0</ele><time>2026-05-03T08:03:19.999Z</time></trkpt><trkpt lat="36.91368622117944" lon="14.575512083057976"><ele>394.0</ele><time>2026-05-03T08:03:20.999Z</time></trkpt><trkpt lat="36.9136998329879" lon="14.575618040896194"><ele>394.2</ele><time>2026-05-03T08:03:21.998Z</time></trkpt><trkpt lat="36.91371151054044" lon="14.575708941958208"><ele>394.4</ele><time>2026-05-03T08:03:22.998Z</time></trkpt><trkpt lat="36.913721554107724" lon="14.575787124058003"><ele>394.6</ele><time>2026-05-03T08:03:23.998Z</time></trkpt><trkpt lat="36.91389958388746" lon="14.575800093658419"><ele>394.8</ele><time>2026-05-03T08:03:24.998Z</time></trkpt><trkpt lat="36.91399248757736" lon="14.575815435508652"><ele>395.0</ele><time>2026-05-03T08:03:25.998Z</time></trkpt><trkpt lat="36.91411273855899" lon="14.575827913810757"><ele>395.0</ele><time>2026-05-03T08:03:26.998Z</time></trkpt><trkpt lat="36.91422433270587" lon="14.575844813050379"><ele>395.0</ele><time>2026-05-03T08:03:27.998Z</time></trkpt><trkpt lat="36.91434634303553" lon="14.575861722845252"><ele>395.0</ele><time>2026-05-03T08:03:28.998Z</time></trkpt><trkpt lat="36.91449471211261" lon="14.575866706590134"><ele>395.0</ele><time>2026-05-03T08:03:29.998Z</time></trkpt><trkpt lat="36.91464310165785" lon="14.575895270037366"><ele>394.0</ele><time>2026-05-03T08:03:30.998Z</time></trkpt><trkpt lat="36.914802564733385" lon="14.575900056937822"><ele>393.0</ele><time>2026-05-03T08:03:31.998Z</time></trkpt><trkpt lat="36.91494503981584" lon="14.575879247188336"><ele>392.0</ele><time>2026-05-03T08:03:32.998Z</time></trkpt><trkpt lat="36.91507355567506" lon="14.575896114918704"><ele>391.0</ele><time>2026-05-03T08:03:33.998Z</time></trkpt><trkpt lat="36.91519891510707" lon="14.575905925262099"><ele>388.75</ele><time>2026-05-03T08:03:34.998Z</time></trkpt><trkpt lat="36.915325090123005" lon="14.575892993927962"><ele>386.5</ele><time>2026-05-03T08:03:35.998Z</time></trkpt><trkpt lat="36.915442864049304" lon="14.575893141844505"><ele>384.25</ele><time>2026-05-03T08:03:36.998Z</time></trkpt><trkpt lat="36.91556907062818" lon="14.575898845754697"><ele>382.0</ele><time>2026-05-03T08:03:37.998Z</time></trkpt><trkpt lat="36.91567789014864" lon="14.575899906438261"><ele>382.0</ele><time>2026-05-03T08:03:38.998Z</time></trkpt><trkpt lat="36.91576874840084" lon="14.575900480980863"><ele>382.0</ele><time>2026-05-03T08:03:39.998Z</time></trkpt><trkpt lat="36.91584967777282" lon="14.575899106876827"><ele>382.0</ele><time>2026-05-03T08:03:40.998Z</time></trkpt><trkpt lat="36.915960749019604" lon="14.575900685528298"><ele>382.0</ele><time>2026-05-03T08:03:42.998Z</time></trkpt><trkpt lat="36.916024012332976" lon="14.57590079920323"><ele>382.0</ele><time>2026-05-03T08:03:43.998Z</time></trkpt><trkpt lat="36.91609805986342" lon="14.575922098749608"><ele>382.0</ele><time>2026-05-03T08:03:44.998Z</time></trkpt><trkpt lat="36.91624250165461" lon="14.575969206214875"><ele>377.75</ele><time>2026-05-03T08:03:45.998Z</time></trkpt><trkpt lat="36.91641915730306" lon="14.57599104243239"><ele>373.5</ele><time>2026-05-03T08:03:46.998Z</time></trkpt><trkpt lat="36.91655027552502" lon="14.576016254529113"><ele>369.25</ele><time>2026-05-03T08:03:47.998Z</time></trkpt><trkpt lat="36.916686001675714" lon="14.576032479052907"><ele>365.0</ele><time>2026-05-03T08:03:48.998Z</time></trkpt><trkpt lat="36.91685014551863" lon="14.576049379169692"><ele>361.0</ele><time>2026-05-03T08:03:49.998Z</time></trkpt><trkpt lat="36.916992084768886" lon="14.576083333198268"><ele>357.0</ele><time>2026-05-03T08:03:50.998Z</time></trkpt><trkpt lat="36.91712874820183" lon="14.576102381398998"><ele>353.0</ele><time>2026-05-03T08:03:51.999Z</time></trkpt><trkpt lat="36.91726172935092" lon="14.576113467374478"><ele>349.0</ele><time>2026-05-03T08:03:52.999Z</time></trkpt><trkpt lat="36.91740981824779" lon="14.576155223532865"><ele>345.66666666666663</ele><time>2026-05-03T08:03:53.999Z</time></trkpt><trkpt lat="36.9175935597184" lon="14.576152179682301"><ele>342.3333333333333</ele><time>2026-05-03T08:03:54.999Z</time></trkpt><trkpt lat="36.917809234921094" lon="14.576173795340086"><ele>339.0</ele><time>2026-05-03T08:03:55.999Z</time></trkpt><trkpt lat="36.91800602827186" lon="14.576181124848642"><ele>339.0</ele><time>2026-05-03T08:03:56.999Z</time></trkpt><trkpt lat="36.918183445535554" lon="14.576184302152424"><ele>339.0</ele><time>2026-05-03T08:03:57.999Z</time></trkpt><trkpt lat="36.918363396557695" lon="14.576166874353405"><ele>339.0</ele><time>2026-05-03T08:03:58.999Z</time></trkpt><trkpt lat="36.918525843456116" lon="14.57618979819126"><ele>336.6666666666667</ele><time>2026-05-03T08:03:59.999Z</time></trkpt><trkpt lat="36.91868536984757" lon="14.576196828499384"><ele>334.33333333333337</ele><time>2026-05-03T08:04:00.999Z</time></trkpt><trkpt lat="36.918852183637654" lon="14.57620505852091"><ele>332.0</ele><time>2026-05-03T08:04:01.999Z</time></trkpt><trkpt lat="36.91899502355131" lon="14.57621506771952"><ele>332.0</ele><time>2026-05-03T08:04:02.999Z</time></trkpt><trkpt lat="36.91913459300518" lon="14.576228162528189"><ele>332.0</ele><time>2026-05-03T08:04:03.999Z</time></trkpt><trkpt lat="36.919273019008244" lon="14.57622288971865"><ele>332.0</ele><time>2026-05-03T08:04:04.999Z</time></trkpt><trkpt lat="36.91942208447035" lon="14.576239460140906"><ele>332.0</ele><time>2026-05-03T08:04:05.999Z</time></trkpt><trkpt lat="36.91955065023202" lon="14.576250542078412"><ele>330.25</ele><time>2026-05-03T08:04:06.999Z</time></trkpt><trkpt lat="36.91967547030222" lon="14.576245805148318"><ele>328.5</ele><time>2026-05-03T08:04:07.999Z</time></trkpt><trkpt lat="36.919791477291106" lon="14.576223869460591"><ele>326.75</ele><time>2026-05-03T08:04:08.999Z</time></trkpt><trkpt lat="36.919908774662616" lon="14.576186453517256"><ele>325.0</ele><time>2026-05-03T08:04:09.999Z</time></trkpt><trkpt lat="36.92002445165377" lon="14.57618490551762"><ele>322.75</ele><time>2026-05-03T08:04:10.999Z</time></trkpt><trkpt lat="36.92013606293266" lon="14.576177290854048"><ele>320.5</ele><time>2026-05-03T08:04:11.999Z</time></trkpt><trkpt lat="36.92027334912043" lon="14.576175827125574"><ele>318.25</ele><time>2026-05-03T08:04:12.999Z</time></trkpt><trkpt lat="36.92045643928913" lon="14.576161246269052"><ele>316.0</ele><time>2026-05-03T08:04:13.999Z</time></trkpt><trkpt lat="36.920635275185596" lon="14.5761262124708"><ele>316.0</ele><time>2026-05-03T08:04:14.999Z</time></trkpt><trkpt lat="36.9208028315759" lon="14.576099493476914"><ele>316.0</ele><time>2026-05-03T08:04:15.999Z</time></trkpt><trkpt lat="36.92097425572054" lon="14.576101552834588"><ele>316.0</ele><time>2026-05-03T08:04:16.999Z</time></trkpt><trkpt lat="36.92115360015552" lon="14.57609377536014"><ele>314.3333333333333</ele><time>2026-05-03T08:04:17.999Z</time></trkpt><trkpt lat="36.92133992712195" lon="14.5760825924197"><ele>312.6666666666667</ele><time>2026-05-03T08:04:18.999Z</time></trkpt><trkpt lat="36.92148825780469" lon="14.576073689940555"><ele>311.0</ele><time>2026-05-03T08:04:19.999Z</time></trkpt><trkpt lat="36.921630011771555" lon="14.576069560489476"><ele>309.5</ele><time>2026-05-03T08:04:20.999Z</time></trkpt><trkpt lat="36.921759325178" lon="14.576080785688065"><ele>308.0</ele><time>2026-05-03T08:04:21.999Z</time></trkpt><trkpt lat="36.921879193689485" lon="14.576128586228313"><ele>306.5</ele><time>2026-05-03T08:04:22.999Z</time></trkpt><trkpt lat="36.92195680662055" lon="14.576185027636464"><ele>305.0</ele><time>2026-05-03T08:04:23.999Z</time></trkpt><trkpt lat="36.922067571983845" lon="14.576294674858723"><ele>305.0</ele><time>2026-05-03T08:04:24.999Z</time></trkpt><trkpt lat="36.92220205306027" lon="14.576399491001139"><ele>305.0</ele><time>2026-05-03T08:04:25.999Z</time></trkpt><trkpt lat="36.922334648158895" lon="14.57650263101482"><ele>305.0</ele><time>2026-05-03T08:04:26.999Z</time></trkpt><trkpt lat="36.92247642042271" lon="14.576609145653105"><ele>302.0</ele><time>2026-05-03T08:04:27.999Z</time></trkpt><trkpt lat="36.92258800701354" lon="14.576692981590323"><ele>299.0</ele><time>2026-05-03T08:04:28.999Z</time></trkpt><trkpt lat="36.9226871580849" lon="14.576767296732415"><ele>296.0</ele><time>2026-05-03T08:04:29.999Z</time></trkpt><trkpt lat="36.92277704238433" lon="14.576834368753206"><ele>293.0</ele><time>2026-05-03T08:04:30.999Z</time></trkpt><trkpt lat="36.92286729006485" lon="14.576898108954286"><ele>293.0</ele><time>2026-05-03T08:04:31.999Z</time></trkpt><trkpt lat="36.922915097941626" lon="14.57696922727363"><ele>293.0</ele><time>2026-05-03T08:04:32.999Z</time></trkpt><trkpt lat="36.92296997273724" lon="14.57708224747883"><ele>293.0</ele><time>2026-05-03T08:04:33.999Z</time></trkpt><trkpt lat="36.92299588052969" lon="14.577238117891724"><ele>293.0</ele><time>2026-05-03T08:04:34.999Z</time></trkpt><trkpt lat="36.9230184544511" lon="14.577416158977336"><ele>290.5</ele><time>2026-05-03T08:04:35.999Z</time></trkpt><trkpt lat="36.92306824740809" lon="14.577545177625076"><ele>288.0</ele><time>2026-05-03T08:04:36.999Z</time></trkpt><trkpt lat="36.92311814372726" lon="14.57769694760961"><ele>285.5</ele><time>2026-05-03T08:04:37.999Z</time></trkpt><trkpt lat="36.9231590209176" lon="14.577852559464086"><ele>283.0</ele><time>2026-05-03T08:04:38.999Z</time></trkpt><trkpt lat="36.923157175564796" lon="14.578030184733324"><ele>281.5</ele><time>2026-05-03T08:04:39.999Z</time></trkpt><trkpt lat="36.92314913269262" lon="14.578180682105623"><ele>280.0</ele><time>2026-05-03T08:04:40.999Z</time></trkpt><trkpt lat="36.92315905730699" lon="14.578320656512469"><ele>278.5</ele><time>2026-05-03T08:04:41.999Z</time></trkpt><trkpt lat="36.92320125638452" lon="14.578454165476622"><ele>277.0</ele><time>2026-05-03T08:04:42.999Z</time></trkpt><trkpt lat="36.92327982268309" lon="14.57856242290052"><ele>277.0</ele><time>2026-05-03T08:04:43.999Z</time></trkpt><trkpt lat="36.923304978511005" lon="14.578635483825355"><ele>277.0</ele><time>2026-05-03T08:04:44.999Z</time></trkpt><trkpt lat="36.923374438792884" lon="14.578730776320288"><ele>277.0</ele><time>2026-05-03T08:04:46.999Z</time></trkpt><trkpt lat="36.923450169585145" lon="14.578817949946435"><ele>277.0</ele><time>2026-05-03T08:04:48.999Z</time></trkpt><trkpt lat="36.92349147373965" lon="14.578747924012008"><ele>277.0</ele><time>2026-05-03T08:04:49.999Z</time></trkpt><trkpt lat="36.923485752767" lon="14.578968097258782"><ele>279.5</ele><time>2026-05-03T08:04:54.999Z</time></trkpt><trkpt lat="36.923406459077796" lon="14.579001731203697"><ele>282.0</ele><time>2026-05-03T08:04:57.999Z</time></trkpt><trkpt lat="36.9231398701012" lon="14.579439708515528"><ele>285.6</ele><time>2026-05-03T08:05:01.999Z</time></trkpt><trkpt lat="36.923101573137046" lon="14.579522390024549"><ele>289.2</ele><time>2026-05-03T08:05:02.999Z</time></trkpt><trkpt lat="36.92305045318085" lon="14.579632755641914"><ele>292.8</ele><time>2026-05-03T08:05:03.999Z</time></trkpt><trkpt lat="36.92300097757562" lon="14.579743605515997"><ele>296.4</ele><time>2026-05-03T08:05:04.999Z</time></trkpt><trkpt lat="36.922959366536055" lon="14.579838609697589"><ele>300.0</ele><time>2026-05-03T08:05:05.999Z</time></trkpt><trkpt lat="36.92291837794954" lon="14.57993219270556"><ele>300.0</ele><time>2026-05-03T08:05:06.999Z</time></trkpt><trkpt lat="36.92288395882862" lon="14.580005414596908"><ele>300.0</ele><time>2026-05-03T08:05:07.999Z</time></trkpt><trkpt lat="36.92284898551807" lon="14.580079517584583"><ele>300.0</ele><time>2026-05-03T08:05:08.999Z</time></trkpt><trkpt lat="36.92281158267899" lon="14.580178945636806"><ele>300.0</ele><time>2026-05-03T08:05:09.999Z</time></trkpt><trkpt lat="36.92275600404573" lon="14.580273230172484"><ele>300.0</ele><time>2026-05-03T08:05:10.999Z</time></trkpt><trkpt lat="36.92270271813368" lon="14.580372205079133"><ele>300.0</ele><time>2026-05-03T08:05:11.999Z</time></trkpt><trkpt lat="36.92264006924376" lon="14.580481819185428"><ele>300.2</ele><time>2026-05-03T08:05:12.999Z</time></trkpt><trkpt lat="36.92256865834906" lon="14.580592609378645"><ele>300.4</ele><time>2026-05-03T08:05:13.999Z</time></trkpt><trkpt lat="36.92250005111701" lon="14.580695512422434"><ele>300.6</ele><time>2026-05-03T08:05:14.999Z</time></trkpt><trkpt lat="36.922434240507044" lon="14.580794129724165"><ele>300.8</ele><time>2026-05-03T08:05:15.999Z</time></trkpt><trkpt lat="36.922367143975265" lon="14.58086023492369"><ele>301.0</ele><time>2026-05-03T08:05:16.999Z</time></trkpt><trkpt lat="36.92231887432808" lon="14.58092779187853"><ele>301.0</ele><time>2026-05-03T08:05:17.999Z</time></trkpt><trkpt lat="36.922269518734815" lon="14.580994037906228"><ele>301.0</ele><time>2026-05-03T08:05:18.999Z</time></trkpt><trkpt lat="36.922162601749456" lon="14.581092932271071"><ele>301.0</ele><time>2026-05-03T08:05:20.999Z</time></trkpt><trkpt lat="36.92211065994591" lon="14.581157980713773"><ele>301.0</ele><time>2026-05-03T08:05:21.999Z</time></trkpt><trkpt lat="36.92206526573582" lon="14.58122473172281"><ele>301.0</ele><time>2026-05-03T08:05:22.999Z</time></trkpt><trkpt lat="36.92209214442076" lon="14.581328285823892"><ele>301.0</ele><time>2026-05-03T08:05:24.999Z</time></trkpt><trkpt lat="36.92214855428869" lon="14.581373295438812"><ele>305.0</ele><time>2026-05-03T08:05:25.999Z</time></trkpt><trkpt lat="36.92220930245103" lon="14.581440101569505"><ele>309.0</ele><time>2026-05-03T08:05:26.999Z</time></trkpt><trkpt lat="36.92229161140402" lon="14.581528063265662"><ele>313.0</ele><time>2026-05-03T08:05:28.999Z</time></trkpt><trkpt lat="36.9223398412089" lon="14.581579605364603"><ele>317.0</ele><time>2026-05-03T08:05:34.998Z</time></trkpt><trkpt lat="36.92222478038285" lon="14.581799077126194"><ele>317.0</ele><time>2026-05-03T08:05:35.998Z</time></trkpt><trkpt lat="36.92220286834461" lon="14.581896989356201"><ele>317.0</ele><time>2026-05-03T08:05:38.998Z</time></trkpt><trkpt lat="36.92209125645724" lon="14.582005735623271"><ele>317.0</ele><time>2026-05-03T08:05:40.998Z</time></trkpt><trkpt lat="36.92201557161046" lon="14.582091442502193"><ele>317.0</ele><time>2026-05-03T08:05:41.998Z</time></trkpt><trkpt lat="36.9219426949156" lon="14.58216460047325"><ele>317.0</ele><time>2026-05-03T08:05:42.998Z</time></trkpt><trkpt lat="36.921879723346684" lon="14.582217634594931"><ele>318.4</ele><time>2026-05-03T08:05:43.998Z</time></trkpt><trkpt lat="36.92181700220409" lon="14.58226449750134"><ele>319.79999999999995</ele><time>2026-05-03T08:05:44.998Z</time></trkpt><trkpt lat="36.921745629352166" lon="14.582321400725974"><ele>321.2</ele><time>2026-05-03T08:05:45.999Z</time></trkpt><trkpt lat="36.921690425470935" lon="14.582365676249177"><ele>322.59999999999997</ele><time>2026-05-03T08:05:46.999Z</time></trkpt><trkpt lat="36.92158240817784" lon="14.58246320457491"><ele>324.0</ele><time>2026-05-03T08:05:48.999Z</time></trkpt><trkpt lat="36.9215117125435" lon="14.582554654672498"><ele>324.0</ele><time>2026-05-03T08:05:50.999Z</time></trkpt><trkpt lat="36.92144108944312" lon="14.582639428013616"><ele>324.0</ele><time>2026-05-03T08:05:52.999Z</time></trkpt><trkpt lat="36.921381655484666" lon="14.58269462621757"><ele>324.0</ele><time>2026-05-03T08:05:53.999Z</time></trkpt><trkpt lat="36.92130587456913" lon="14.582781349531185"><ele>324.0</ele><time>2026-05-03T08:05:55.999Z</time></trkpt><trkpt lat="36.92124802698442" lon="14.58283618803068"><ele>324.0</ele><time>2026-05-03T08:05:58.999Z</time></trkpt><trkpt lat="36.92118670443615" lon="14.582874157919491"><ele>324.0</ele><time>2026-05-03T08:06:00.999Z</time></trkpt><trkpt lat="36.92095232824182" lon="14.583106516249014"><ele>326.0</ele><time>2026-05-03T08:06:02.999Z</time></trkpt><trkpt lat="36.92089863892701" lon="14.583149327611595"><ele>328.0</ele><time>2026-05-03T08:06:03.999Z</time></trkpt><trkpt lat="36.920842522860525" lon="14.583200367985276"><ele>330.0</ele><time>2026-05-03T08:06:04.999Z</time></trkpt><trkpt lat="36.920784053515725" lon="14.58325083551683"><ele>332.0</ele><time>2026-05-03T08:06:05.999Z</time></trkpt><trkpt lat="36.9206901105494" lon="14.583341648913994"><ele>334.0</ele><time>2026-05-03T08:06:07.999Z</time></trkpt><trkpt lat="36.92063058992409" lon="14.583418746336962"><ele>336.0</ele><time>2026-05-03T08:06:09.999Z</time></trkpt><trkpt lat="36.92057629429304" lon="14.583469954037355"><ele>336.0</ele><time>2026-05-03T08:06:11.999Z</time></trkpt><trkpt lat="36.920503258493895" lon="14.583525913092966"><ele>336.0</ele><time>2026-05-03T08:06:13.999Z</time></trkpt><trkpt lat="36.92042021619313" lon="14.58358645890057"><ele>336.0</ele><time>2026-05-03T08:06:15.999Z</time></trkpt><trkpt lat="36.92035699402007" lon="14.583639926123912"><ele>336.0</ele><time>2026-05-03T08:06:17.999Z</time></trkpt><trkpt lat="36.92029095965653" lon="14.58368522028916"><ele>336.0</ele><time>2026-05-03T08:06:19.999Z</time></trkpt><trkpt lat="36.92023877088163" lon="14.583740906020425"><ele>336.0</ele><time>2026-05-03T08:06:22.999Z</time></trkpt><trkpt lat="36.920192924666594" lon="14.583806362637059"><ele>336.0</ele><time>2026-05-03T08:06:25.999Z</time></trkpt><trkpt lat="36.92013842702193" lon="14.583850608657178"><ele>336.0</ele><time>2026-05-03T08:06:28.999Z</time></trkpt><trkpt lat="36.92021018126056" lon="14.58387812142066"><ele>336.0</ele><time>2026-05-03T08:06:31.999Z</time></trkpt><trkpt lat="36.920305719199675" lon="14.583799535908632"><ele>336.0</ele><time>2026-05-03T08:06:33.999Z</time></trkpt><trkpt lat="36.92037985303858" lon="14.583756637157645"><ele>336.0</ele><time>2026-05-03T08:06:34.999Z</time></trkpt><trkpt lat="36.92048797567669" lon="14.583723629969912"><ele>336.0</ele><time>2026-05-03T08:06:35.999Z</time></trkpt><trkpt lat="36.92059804737686" lon="14.583673920669547"><ele>336.0</ele><time>2026-05-03T08:06:36.999Z</time></trkpt><trkpt lat="36.92066304158597" lon="14.583642749603923"><ele>336.0</ele><time>2026-05-03T08:06:37.999Z</time></trkpt><trkpt lat="36.920729251089426" lon="14.583609246454689"><ele>336.0</ele><time>2026-05-03T08:06:38.999Z</time></trkpt><trkpt lat="36.92079795802455" lon="14.583580303655047"><ele>336.0</ele><time>2026-05-03T08:06:39.999Z</time></trkpt><trkpt lat="36.920899370518526" lon="14.583546901854248"><ele>336.0</ele><time>2026-05-03T08:06:40.999Z</time></trkpt><trkpt lat="36.92098684292205" lon="14.583517502222087"><ele>336.0</ele><time>2026-05-03T08:06:41.999Z</time></trkpt><trkpt lat="36.9210785579324" lon="14.583477909781065"><ele>337.6</ele><time>2026-05-03T08:06:42.999Z</time></trkpt><trkpt lat="36.921170228603316" lon="14.58344484597501"><ele>339.20000000000005</ele><time>2026-05-03T08:06:43.999Z</time></trkpt><trkpt lat="36.92126073217865" lon="14.583419133064435"><ele>340.79999999999995</ele><time>2026-05-03T08:06:44.999Z</time></trkpt><trkpt lat="36.921335361785815" lon="14.583400473649709"><ele>342.4</ele><time>2026-05-03T08:06:45.999Z</time></trkpt><trkpt lat="36.921448510835354" lon="14.583461496207667"><ele>344.0</ele><time>2026-05-03T08:06:47.999Z</time></trkpt><trkpt lat="36.92151779242623" lon="14.58349922441474"><ele>344.0</ele><time>2026-05-03T08:06:48.999Z</time></trkpt><trkpt lat="36.921593824617915" lon="14.583516906188382"><ele>344.0</ele><time>2026-05-03T08:06:49.999Z</time></trkpt><trkpt lat="36.92165875819606" lon="14.58354731671264"><ele>344.0</ele><time>2026-05-03T08:06:50.999Z</time></trkpt><trkpt lat="36.92170755170184" lon="14.583619690923191"><ele>344.0</ele><time>2026-05-03T08:06:51.999Z</time></trkpt><trkpt lat="36.92177968748569" lon="14.583724946980906"><ele>344.0</ele><time>2026-05-03T08:06:52.999Z</time></trkpt><trkpt lat="36.9218304955058" lon="14.583843889290549"><ele>344.0</ele><time>2026-05-03T08:06:53.999Z</time></trkpt><trkpt lat="36.921886812241496" lon="14.583938816911557"><ele>344.6</ele><time>2026-05-03T08:06:54.999Z</time></trkpt><trkpt lat="36.92197324540738" lon="14.584014730368084"><ele>345.2</ele><time>2026-05-03T08:06:55.999Z</time></trkpt><trkpt lat="36.92205324053711" lon="14.584099316562282"><ele>345.8</ele><time>2026-05-03T08:06:56.999Z</time></trkpt><trkpt lat="36.92213182699439" lon="14.584196870608038"><ele>346.40000000000003</ele><time>2026-05-03T08:06:57.999Z</time></trkpt><trkpt lat="36.922182630825645" lon="14.584289198967562"><ele>347.0</ele><time>2026-05-03T08:06:58.999Z</time></trkpt><trkpt lat="36.92226791056691" lon="14.584349919262026"><ele>347.0</ele><time>2026-05-03T08:06:59.999Z</time></trkpt><trkpt lat="36.92235485408013" lon="14.584407205483245"><ele>347.0</ele><time>2026-05-03T08:07:00.999Z</time></trkpt><trkpt lat="36.922406174468094" lon="14.584484069812639"><ele>347.0</ele><time>2026-05-03T08:07:01.999Z</time></trkpt><trkpt lat="36.922438538649104" lon="14.58457023418962"><ele>347.0</ele><time>2026-05-03T08:07:02.999Z</time></trkpt><trkpt lat="36.92247843340455" lon="14.584664352073174"><ele>347.0</ele><time>2026-05-03T08:07:03.999Z</time></trkpt><trkpt lat="36.92250291527387" lon="14.584741321172611"><ele>347.0</ele><time>2026-05-03T08:07:04.999Z</time></trkpt><trkpt lat="36.9225694013077" lon="14.584787490705054"><ele>343.5</ele><time>2026-05-03T08:07:06.999Z</time></trkpt><trkpt lat="36.92263764238312" lon="14.58471990939999"><ele>340.0</ele><time>2026-05-03T08:07:08.999Z</time></trkpt><trkpt lat="36.92266269153109" lon="14.584642390107463"><ele>336.5</ele><time>2026-05-03T08:07:09.999Z</time></trkpt><trkpt lat="36.92265766337986" lon="14.584537194454919"><ele>333.0</ele><time>2026-05-03T08:07:10.999Z</time></trkpt><trkpt lat="36.92263039311015" lon="14.584438521944646"><ele>329.5</ele><time>2026-05-03T08:07:11.999Z</time></trkpt><trkpt lat="36.922715544217354" lon="14.584504349413663"><ele>326.0</ele><time>2026-05-03T08:07:16.999Z</time></trkpt><trkpt lat="36.92274668048972" lon="14.58459103780791"><ele>325.0</ele><time>2026-05-03T08:07:19.999Z</time></trkpt><trkpt lat="36.92278628678007" lon="14.584693315758471"><ele>324.0</ele><time>2026-05-03T08:07:23.999Z</time></trkpt><trkpt lat="36.92281332044075" lon="14.584776680935182"><ele>323.0</ele><time>2026-05-03T08:07:25.999Z</time></trkpt><trkpt lat="36.92304162958098" lon="14.58506264814953"><ele>323.00000000000006</ele><time>2026-05-03T08:07:27.999Z</time></trkpt><trkpt lat="36.92305986583692" lon="14.585148361338042"><ele>323.0</ele><time>2026-05-03T08:07:29.999Z</time></trkpt><trkpt lat="36.92307345967885" lon="14.585240423030807"><ele>323.0</ele><time>2026-05-03T08:07:30.999Z</time></trkpt><trkpt lat="36.92311276969953" lon="14.585352745067066"><ele>323.0</ele><time>2026-05-03T08:07:32.999Z</time></trkpt><trkpt lat="36.923144616900196" lon="14.58542210638989"><ele>323.0</ele><time>2026-05-03T08:07:33.999Z</time></trkpt><trkpt lat="36.923167212764135" lon="14.585495609971808"><ele>323.00000000000006</ele><time>2026-05-03T08:07:34.999Z</time></trkpt><trkpt lat="36.92318783865069" lon="14.58557183358343"><ele>323.0</ele><time>2026-05-03T08:07:35.999Z</time></trkpt><trkpt lat="36.92319780521374" lon="14.585663277549365"><ele>321.6666666666667</ele><time>2026-05-03T08:07:36.999Z</time></trkpt><trkpt lat="36.92319258435832" lon="14.586041255213516"><ele>320.3333333333333</ele><time>2026-05-03T08:07:37.999Z</time></trkpt><trkpt lat="36.92318882092173" lon="14.586160534619562"><ele>319.0</ele><time>2026-05-03T08:07:38.999Z</time></trkpt><trkpt lat="36.9231925003803" lon="14.58629998682417"><ele>318.5</ele><time>2026-05-03T08:07:39.999Z</time></trkpt><trkpt lat="36.92316200860429" lon="14.58643721773349"><ele>318.0</ele><time>2026-05-03T08:07:40.999Z</time></trkpt><trkpt lat="36.92312202048894" lon="14.586590600823106"><ele>317.5</ele><time>2026-05-03T08:07:41.999Z</time></trkpt><trkpt lat="36.92309988400001" lon="14.58674205671763"><ele>317.0</ele><time>2026-05-03T08:07:42.999Z</time></trkpt><trkpt lat="36.923078430763134" lon="14.586903146535233"><ele>316.5</ele><time>2026-05-03T08:07:43.999Z</time></trkpt><trkpt lat="36.92305149236944" lon="14.587060798448707"><ele>316.0</ele><time>2026-05-03T08:07:44.999Z</time></trkpt><trkpt lat="36.92302409622803" lon="14.587226047862437"><ele>315.5</ele><time>2026-05-03T08:07:45.999Z</time></trkpt><trkpt lat="36.92300192480116" lon="14.58740482947126"><ele>315.0</ele><time>2026-05-03T08:07:46.999Z</time></trkpt><trkpt lat="36.92298070869052" lon="14.587581768936731"><ele>315.0</ele><time>2026-05-03T08:07:47.999Z</time></trkpt><trkpt lat="36.922955203319816" lon="14.587743728746169"><ele>315.0</ele><time>2026-05-03T08:07:48.999Z</time></trkpt><trkpt lat="36.92293855296643" lon="14.587894886984005"><ele>315.0</ele><time>2026-05-03T08:07:49.999Z</time></trkpt><trkpt lat="36.922920087575335" lon="14.588047240056321"><ele>315.0</ele><time>2026-05-03T08:07:50.999Z</time></trkpt><trkpt lat="36.92288897756064" lon="14.588169015831498"><ele>313.8</ele><time>2026-05-03T08:07:51.999Z</time></trkpt><trkpt lat="36.92285016558384" lon="14.588291731574563"><ele>312.6</ele><time>2026-05-03T08:07:52.999Z</time></trkpt><trkpt lat="36.92281020211555" lon="14.588400197073188"><ele>311.4</ele><time>2026-05-03T08:07:53.999Z</time></trkpt><trkpt lat="36.92278217193808" lon="14.588529415412317"><ele>310.2</ele><time>2026-05-03T08:07:54.999Z</time></trkpt><trkpt lat="36.92277130224524" lon="14.588640050113614"><ele>309.0</ele><time>2026-05-03T08:07:55.999Z</time></trkpt><trkpt lat="36.922784744922154" lon="14.588729009994411"><ele>308.8333333333333</ele><time>2026-05-03T08:07:56.999Z</time></trkpt><trkpt lat="36.92278803126763" lon="14.588821694206535"><ele>308.6666666666667</ele><time>2026-05-03T08:07:57.999Z</time></trkpt><trkpt lat="36.922801503283765" lon="14.5889623814822"><ele>308.5</ele><time>2026-05-03T08:07:58.999Z</time></trkpt><trkpt lat="36.922785025430414" lon="14.589093200635903"><ele>308.33333333333337</ele><time>2026-05-03T08:07:59.999Z</time></trkpt><trkpt lat="36.922791555078994" lon="14.589200890341683"><ele>308.1666666666667</ele><time>2026-05-03T08:08:00.999Z</time></trkpt><trkpt lat="36.92280304754744" lon="14.589280334146173"><ele>308.0</ele><time>2026-05-03T08:08:01.999Z</time></trkpt><trkpt lat="36.92280375676285" lon="14.589403127833373"><ele>307.75</ele><time>2026-05-03T08:08:02.999Z</time></trkpt><trkpt lat="36.92278590871055" lon="14.589546766040781"><ele>307.5</ele><time>2026-05-03T08:08:03.999Z</time></trkpt><trkpt lat="36.92276422370644" lon="14.589693043335172"><ele>307.25</ele><time>2026-05-03T08:08:04.999Z</time></trkpt><trkpt lat="36.92275694636553" lon="14.5898266602393"><ele>307.0</ele><time>2026-05-03T08:08:05.999Z</time></trkpt><trkpt lat="36.92275943523645" lon="14.589965863860039"><ele>307.0</ele><time>2026-05-03T08:08:06.999Z</time></trkpt><trkpt lat="36.922747423904624" lon="14.590101988162264"><ele>307.0</ele><time>2026-05-03T08:08:07.999Z</time></trkpt><trkpt lat="36.922718869904735" lon="14.5902434846507"><ele>307.0</ele><time>2026-05-03T08:08:08.999Z</time></trkpt><trkpt lat="36.92270090814896" lon="14.590368331318121"><ele>307.0</ele><time>2026-05-03T08:08:09.999Z</time></trkpt><trkpt lat="36.9227094793249" lon="14.590469859580333"><ele>307.0</ele><time>2026-05-03T08:08:10.999Z</time></trkpt><trkpt lat="36.92277568760282" lon="14.59063929531336"><ele>306.6</ele><time>2026-05-03T08:08:12.999Z</time></trkpt><trkpt lat="36.92282817298201" lon="14.590747971075052"><ele>306.2</ele><time>2026-05-03T08:08:13.999Z</time></trkpt><trkpt lat="36.92286668564391" lon="14.590853566842279"><ele>305.8</ele><time>2026-05-03T08:08:14.999Z</time></trkpt><trkpt lat="36.92290696135123" lon="14.590957547990055"><ele>305.4</ele><time>2026-05-03T08:08:15.999Z</time></trkpt><trkpt lat="36.92293617621799" lon="14.591057920451512"><ele>305.0</ele><time>2026-05-03T08:08:16.999Z</time></trkpt><trkpt lat="36.92297515131768" lon="14.591145865158486"><ele>306.0</ele><time>2026-05-03T08:08:17.999Z</time></trkpt><trkpt lat="36.923012745090794" lon="14.5912396997327"><ele>307.0</ele><time>2026-05-03T08:08:18.999Z</time></trkpt><trkpt lat="36.92304547790556" lon="14.591357689676403"><ele>308.0</ele><time>2026-05-03T08:08:19.999Z</time></trkpt><trkpt lat="36.92307790245657" lon="14.591482984195075"><ele>309.0</ele><time>2026-05-03T08:08:20.999Z</time></trkpt><trkpt lat="36.923106457591146" lon="14.591553498043424"><ele>310.0</ele><time>2026-05-03T08:08:21.999Z</time></trkpt><trkpt lat="36.92323527957777" lon="14.591688942302614"><ele>310.0</ele><time>2026-05-03T08:08:23.999Z</time></trkpt><trkpt lat="36.92331757065893" lon="14.591773420878857"><ele>310.0</ele><time>2026-05-03T08:08:24.999Z</time></trkpt><trkpt lat="36.923444061532244" lon="14.591861778199464"><ele>310.0</ele><time>2026-05-03T08:08:25.999Z</time></trkpt><trkpt lat="36.92350109617677" lon="14.591971036862027"><ele>310.0</ele><time>2026-05-03T08:08:26.999Z</time></trkpt><trkpt lat="36.92354000043792" lon="14.592070979047175"><ele>310.0</ele><time>2026-05-03T08:08:27.999Z</time></trkpt><trkpt lat="36.92361954221078" lon="14.592160731570969"><ele>304.75</ele><time>2026-05-03T08:08:28.999Z</time></trkpt><trkpt lat="36.923687661683545" lon="14.592281738616437"><ele>299.5</ele><time>2026-05-03T08:08:29.999Z</time></trkpt><trkpt lat="36.9237457459252" lon="14.592420760309205"><ele>294.25</ele><time>2026-05-03T08:08:30.999Z</time></trkpt><trkpt lat="36.923802326391616" lon="14.592552246767204"><ele>289.0</ele><time>2026-05-03T08:08:31.999Z</time></trkpt><trkpt lat="36.92384719598977" lon="14.592659612765736"><ele>289.0</ele><time>2026-05-03T08:08:32.999Z</time></trkpt><trkpt lat="36.92388916468461" lon="14.59278451421623"><ele>289.0</ele><time>2026-05-03T08:08:33.999Z</time></trkpt><trkpt lat="36.923934151741996" lon="14.592858068590276"><ele>289.0</ele><time>2026-05-03T08:08:34.999Z</time></trkpt><trkpt lat="36.92401261905086" lon="14.592963650699994"><ele>289.0</ele><time>2026-05-03T08:08:35.999Z</time></trkpt><trkpt lat="36.92409163712235" lon="14.593081078077999"><ele>289.0</ele><time>2026-05-03T08:08:36.999Z</time></trkpt><trkpt lat="36.92416079285467" lon="14.593197508908217"><ele>289.0</ele><time>2026-05-03T08:08:37.999Z</time></trkpt><trkpt lat="36.92423174997008" lon="14.593305068677203"><ele>289.0</ele><time>2026-05-03T08:08:38.999Z</time></trkpt><trkpt lat="36.924305121718106" lon="14.593426531280967"><ele>289.0</ele><time>2026-05-03T08:08:39.999Z</time></trkpt><trkpt lat="36.92438977357757" lon="14.593560705928565"><ele>289.0</ele><time>2026-05-03T08:08:40.999Z</time></trkpt><trkpt lat="36.92445882873617" lon="14.593685821939687"><ele>289.0</ele><time>2026-05-03T08:08:41.999Z</time></trkpt><trkpt lat="36.92453178943683" lon="14.593792327072624"><ele>289.0</ele><time>2026-05-03T08:08:42.999Z</time></trkpt><trkpt lat="36.92462062153937" lon="14.593912900481632"><ele>289.0</ele><time>2026-05-03T08:08:43.999Z</time></trkpt><trkpt lat="36.92474064338898" lon="14.59403349649421"><ele>289.0</ele><time>2026-05-03T08:08:44.999Z</time></trkpt><trkpt lat="36.92484823811516" lon="14.594165364687962"><ele>289.0</ele><time>2026-05-03T08:08:45.999Z</time></trkpt><trkpt lat="36.92495643352091" lon="14.594280375248967"><ele>289.0</ele><time>2026-05-03T08:08:46.999Z</time></trkpt><trkpt lat="36.925066589864876" lon="14.594397067425984"><ele>289.0</ele><time>2026-05-03T08:08:47.999Z</time></trkpt><trkpt lat="36.925176902451526" lon="14.594531010073034"><ele>289.0</ele><time>2026-05-03T08:08:48.999Z</time></trkpt><trkpt lat="36.92528197279936" lon="14.594677174065351"><ele>289.5</ele><time>2026-05-03T08:08:49.999Z</time></trkpt><trkpt lat="36.92537925621682" lon="14.594787863816762"><ele>290.0</ele><time>2026-05-03T08:08:50.999Z</time></trkpt><trkpt lat="36.925450697108154" lon="14.594877431295453"><ele>290.5</ele><time>2026-05-03T08:08:51.999Z</time></trkpt><trkpt lat="36.9255148073809" lon="14.594977129455076"><ele>291.0</ele><time>2026-05-03T08:08:52.999Z</time></trkpt><trkpt lat="36.92560160276681" lon="14.595084385996401"><ele>291.0</ele><time>2026-05-03T08:08:53.999Z</time></trkpt><trkpt lat="36.925701115536796" lon="14.595176400343773"><ele>291.0</ele><time>2026-05-03T08:08:54.999Z</time></trkpt><trkpt lat="36.92578692829777" lon="14.59525374315452"><ele>291.0</ele><time>2026-05-03T08:08:55.999Z</time></trkpt><trkpt lat="36.92586000603625" lon="14.595344872594941"><ele>291.0</ele><time>2026-05-03T08:08:56.999Z</time></trkpt><trkpt lat="36.925892896500876" lon="14.595459032737676"><ele>291.0</ele><time>2026-05-03T08:08:57.999Z</time></trkpt><trkpt lat="36.92587061125116" lon="14.595567381109005"><ele>292.8</ele><time>2026-05-03T08:08:58.999Z</time></trkpt><trkpt lat="36.92585228956951" lon="14.595688526029893"><ele>294.6</ele><time>2026-05-03T08:08:59.999Z</time></trkpt><trkpt lat="36.925841681108615" lon="14.595823472677827"><ele>296.4</ele><time>2026-05-03T08:09:00.999Z</time></trkpt><trkpt lat="36.92584465150755" lon="14.59595499042776"><ele>298.2</ele><time>2026-05-03T08:09:01.999Z</time></trkpt><trkpt lat="36.92585100699805" lon="14.596086779208063"><ele>300.0</ele><time>2026-05-03T08:09:02.999Z</time></trkpt><trkpt lat="36.92585824268112" lon="14.596222305970462"><ele>299.4</ele><time>2026-05-03T08:09:04Z</time></trkpt><trkpt lat="36.92587221955413" lon="14.596341524398778"><ele>298.8</ele><time>2026-05-03T08:09:05Z</time></trkpt><trkpt lat="36.92590607448102" lon="14.596450954821405"><ele>298.2</ele><time>2026-05-03T08:09:06Z</time></trkpt><trkpt lat="36.92597335913706" lon="14.596550273785828"><ele>297.6</ele><time>2026-05-03T08:09:07Z</time></trkpt><trkpt lat="36.92604755097474" lon="14.596660789092994"><ele>297.0</ele><time>2026-05-03T08:09:08Z</time></trkpt><trkpt lat="36.92611924540163" lon="14.596772742551536"><ele>297.0</ele><time>2026-05-03T08:09:09Z</time></trkpt><trkpt lat="36.926197245888126" lon="14.596891968457312"><ele>297.0</ele><time>2026-05-03T08:09:10Z</time></trkpt><trkpt lat="36.92627477836675" lon="14.59700182840538"><ele>297.0</ele><time>2026-05-03T08:09:11Z</time></trkpt><trkpt lat="36.92635418800862" lon="14.5971049789047"><ele>297.0</ele><time>2026-05-03T08:09:12Z</time></trkpt><trkpt lat="36.926434435435205" lon="14.597215987378155"><ele>299.75</ele><time>2026-05-03T08:09:13Z</time></trkpt><trkpt lat="36.926489521996146" lon="14.597342692779696"><ele>302.5</ele><time>2026-05-03T08:09:14Z</time></trkpt><trkpt lat="36.92652277381551" lon="14.597491832419129"><ele>305.25</ele><time>2026-05-03T08:09:15Z</time></trkpt><trkpt lat="36.92654220165917" lon="14.597662534232311"><ele>308.0</ele><time>2026-05-03T08:09:16Z</time></trkpt><trkpt lat="36.926551516858936" lon="14.597800753915203"><ele>308.6</ele><time>2026-05-03T08:09:17Z</time></trkpt><trkpt lat="36.926622338387645" lon="14.597899290061038"><ele>309.20000000000005</ele><time>2026-05-03T08:09:19Z</time></trkpt><trkpt lat="36.92668839440034" lon="14.59791873087398"><ele>309.8</ele><time>2026-05-03T08:09:20Z</time></trkpt><trkpt lat="36.92677307753396" lon="14.597950416299561"><ele>310.40000000000003</ele><time>2026-05-03T08:09:21Z</time></trkpt><trkpt lat="36.92683949467068" lon="14.598039413803887"><ele>311.0</ele><time>2026-05-03T08:09:22Z</time></trkpt><trkpt lat="36.92687542171951" lon="14.598143129313586"><ele>311.0</ele><time>2026-05-03T08:09:23Z</time></trkpt><trkpt lat="36.926918439488354" lon="14.598235203913001"><ele>311.0</ele><time>2026-05-03T08:09:24Z</time></trkpt><trkpt lat="36.926975624056546" lon="14.59831266988483"><ele>311.0</ele><time>2026-05-03T08:09:25Z</time></trkpt><trkpt lat="36.92705230919015" lon="14.598375024617981"><ele>311.0</ele><time>2026-05-03T08:09:26Z</time></trkpt><trkpt lat="36.92713296595013" lon="14.5984185266297"><ele>311.0</ele><time>2026-05-03T08:09:27Z</time></trkpt><trkpt lat="36.92721127877836" lon="14.598429383526593"><ele>311.0</ele><time>2026-05-03T08:09:28Z</time></trkpt><trkpt lat="36.92727763459653" lon="14.598416712427221"><ele>311.0</ele><time>2026-05-03T08:09:29Z</time></trkpt><trkpt lat="36.92733612376847" lon="14.598320986785327"><ele>311.0</ele><time>2026-05-03T08:09:31Z</time></trkpt><trkpt lat="36.92740211299819" lon="14.59831664882624"><ele>311.0</ele><time>2026-05-03T08:09:33Z</time></trkpt><trkpt lat="36.92750641943977" lon="14.5984001089545"><ele>311.0</ele><time>2026-05-03T08:09:35Z</time></trkpt><trkpt lat="36.92757357723612" lon="14.598458794611412"><ele>311.0</ele><time>2026-05-03T08:09:36Z</time></trkpt><trkpt lat="36.92765504150711" lon="14.598509199210282"><ele>309.0</ele><time>2026-05-03T08:09:37Z</time></trkpt><trkpt lat="36.92774065107824" lon="14.598543618997123"><ele>307.0</ele><time>2026-05-03T08:09:38Z</time></trkpt><trkpt lat="36.92782735412388" lon="14.59856277506596"><ele>305.0</ele><time>2026-05-03T08:09:39Z</time></trkpt><trkpt lat="36.92791945642613" lon="14.59859243574074"><ele>303.0</ele><time>2026-05-03T08:09:40Z</time></trkpt><trkpt lat="36.92802243495535" lon="14.598610882852425"><ele>301.0</ele><time>2026-05-03T08:09:41Z</time></trkpt><trkpt lat="36.9281228725318" lon="14.598625280193223"><ele>301.0</ele><time>2026-05-03T08:09:42Z</time></trkpt><trkpt lat="36.92821243041371" lon="14.59862212226955"><ele>301.0</ele><time>2026-05-03T08:09:42.999Z</time></trkpt><trkpt lat="36.92831016657219" lon="14.598613059756287"><ele>301.0</ele><time>2026-05-03T08:09:44.999Z</time></trkpt><trkpt lat="36.928393441632075" lon="14.598575984089155"><ele>301.0</ele><time>2026-05-03T08:09:46.999Z</time></trkpt><trkpt lat="36.92853118668981" lon="14.598531227626403"><ele>301.0</ele><time>2026-05-03T08:09:49Z</time></trkpt><trkpt lat="36.928618706936184" lon="14.598530792478337"><ele>302.0</ele><time>2026-05-03T08:09:50Z</time></trkpt><trkpt lat="36.92869383532143" lon="14.598566859364075"><ele>303.0</ele><time>2026-05-03T08:09:51Z</time></trkpt><trkpt lat="36.92875033056657" lon="14.598619296350744"><ele>304.0</ele><time>2026-05-03T08:09:52Z</time></trkpt><trkpt lat="36.92871845068942" lon="14.59871016401303"><ele>305.0</ele><time>2026-05-03T08:10:00Z</time></trkpt><trkpt lat="36.928623564411474" lon="14.598711261201972"><ele>306.0</ele><time>2026-05-03T08:10:02Z</time></trkpt><trkpt lat="36.92851352692425" lon="14.598720465613594"><ele>307.0</ele><time>2026-05-03T08:10:04Z</time></trkpt><trkpt lat="36.928399231224624" lon="14.598710973141278"><ele>308.3333333333333</ele><time>2026-05-03T08:10:06Z</time></trkpt><trkpt lat="36.92832810899335" lon="14.598707309173458"><ele>309.66666666666663</ele><time>2026-05-03T08:10:08Z</time></trkpt><trkpt lat="36.92822816941263" lon="14.598694432500327"><ele>311.0</ele><time>2026-05-03T08:10:10Z</time></trkpt><trkpt lat="36.928159166279244" lon="14.598683382938804"><ele>312.3333333333333</ele><time>2026-05-03T08:10:11Z</time></trkpt><trkpt lat="36.92807703041341" lon="14.598692993421574"><ele>313.6666666666667</ele><time>2026-05-03T08:10:12Z</time></trkpt><trkpt lat="36.927966039547776" lon="14.598676184705095"><ele>315.0</ele><time>2026-05-03T08:10:14Z</time></trkpt><trkpt lat="36.927873927507875" lon="14.598680233035513"><ele>315.0</ele><time>2026-05-03T08:10:16Z</time></trkpt><trkpt lat="36.92775704644294" lon="14.598703305440349"><ele>315.0</ele><time>2026-05-03T08:10:18Z</time></trkpt><trkpt lat="36.927691621945044" lon="14.59870106931168"><ele>315.0</ele><time>2026-05-03T08:10:19Z</time></trkpt><trkpt lat="36.927593794686906" lon="14.598714632941418"><ele>315.0</ele><time>2026-05-03T08:10:21Z</time></trkpt><trkpt lat="36.92754062042555" lon="14.598772565940354"><ele>315.0</ele><time>2026-05-03T08:10:23Z</time></trkpt><trkpt lat="36.92749329442445" lon="14.598869547743586"><ele>315.0</ele><time>2026-05-03T08:10:25Z</time></trkpt><trkpt lat="36.9274053382631" lon="14.598956437983908"><ele>316.6666666666667</ele><time>2026-05-03T08:10:27Z</time></trkpt><trkpt lat="36.927341750059654" lon="14.599029957843856"><ele>318.3333333333333</ele><time>2026-05-03T08:10:29Z</time></trkpt><trkpt lat="36.92729825378339" lon="14.599118071379639"><ele>320.0</ele><time>2026-05-03T08:10:31Z</time></trkpt><trkpt lat="36.92724638583655" lon="14.599167698182724"><ele>321.66666666666663</ele><time>2026-05-03T08:10:33Z</time></trkpt><trkpt lat="36.92717506973396" lon="14.59922835274926"><ele>323.3333333333333</ele><time>2026-05-03T08:10:35Z</time></trkpt><trkpt lat="36.927094450144274" lon="14.59930102622194"><ele>325.0</ele><time>2026-05-03T08:10:37Z</time></trkpt><trkpt lat="36.92701676652973" lon="14.599382084104343"><ele>325.0</ele><time>2026-05-03T08:10:39Z</time></trkpt><trkpt lat="36.926943404397015" lon="14.599439254294497"><ele>325.0</ele><time>2026-05-03T08:10:41Z</time></trkpt><trkpt lat="36.926845050221615" lon="14.59948582668483"><ele>325.0</ele><time>2026-05-03T08:10:43Z</time></trkpt><trkpt lat="36.92676520694729" lon="14.599496218358937"><ele>325.0</ele><time>2026-05-03T08:10:45Z</time></trkpt><trkpt lat="36.92668600274001" lon="14.599516295106378"><ele>325.0</ele><time>2026-05-03T08:10:48Z</time></trkpt><trkpt lat="36.9266130320126" lon="14.599481903251764"><ele>325.0</ele><time>2026-05-03T08:10:50Z</time></trkpt><trkpt lat="36.926546987295524" lon="14.599533509219096"><ele>330.0</ele><time>2026-05-03T08:10:52Z</time></trkpt><trkpt lat="36.92647545327556" lon="14.599644980817363"><ele>335.0</ele><time>2026-05-03T08:10:54Z</time></trkpt><trkpt lat="36.92636211759135" lon="14.59962771984002"><ele>340.0</ele><time>2026-05-03T08:10:57Z</time></trkpt><trkpt lat="36.92626367373765" lon="14.599726549562327"><ele>345.0</ele><time>2026-05-03T08:11:00Z</time></trkpt><trkpt lat="36.926194735870425" lon="14.59978055094066"><ele>350.0</ele><time>2026-05-03T08:11:01Z</time></trkpt><trkpt lat="36.926113932633406" lon="14.599814219967989"><ele>350.0</ele><time>2026-05-03T08:11:03Z</time></trkpt><trkpt lat="36.92604036464861" lon="14.599851912362139"><ele>350.0</ele><time>2026-05-03T08:11:05Z</time></trkpt><trkpt lat="36.92607664622689" lon="14.599927872345727"><ele>350.0</ele><time>2026-05-03T08:11:35Z</time></trkpt><trkpt lat="36.926113566468786" lon="14.600002180938365"><ele>350.0</ele><time>2026-05-03T08:12:35Z</time></trkpt><trkpt lat="36.926150414878066" lon="14.600072051666823"><ele>350.0</ele><time>2026-05-03T08:12:37Z</time></trkpt><trkpt lat="36.92620005402955" lon="14.600159397005026"><ele>350.0</ele><time>2026-05-03T08:12:39Z</time></trkpt><trkpt lat="36.92625244570538" lon="14.600229118400952"><ele>350.0</ele><time>2026-05-03T08:12:41Z</time></trkpt><trkpt lat="36.92631812190523" lon="14.600339277099808"><ele>353.2</ele><time>2026-05-03T08:12:43Z</time></trkpt><trkpt lat="36.926394466991" lon="14.60040223454895"><ele>356.4</ele><time>2026-05-03T08:12:45Z</time></trkpt><trkpt lat="36.92649316337692" lon="14.600457581983237"><ele>359.6</ele><time>2026-05-03T08:12:47Z</time></trkpt><trkpt lat="36.9265688326799" lon="14.600539731388468"><ele>362.8</ele><time>2026-05-03T08:12:49Z</time></trkpt><trkpt lat="36.92664421683806" lon="14.60063148686758"><ele>366.0</ele><time>2026-05-03T08:12:51Z</time></trkpt><trkpt lat="36.926703260607596" lon="14.600706891559762"><ele>363.6</ele><time>2026-05-03T08:12:53Z</time></trkpt><trkpt lat="36.92678571048026" lon="14.600807527783953"><ele>361.20000000000005</ele><time>2026-05-03T08:12:55Z</time></trkpt><trkpt lat="36.92689279706186" lon="14.600879144764818"><ele>358.79999999999995</ele><time>2026-05-03T08:12:57Z</time></trkpt><trkpt lat="36.92697605357968" lon="14.600934037374474"><ele>356.4</ele><time>2026-05-03T08:12:59Z</time></trkpt><trkpt lat="36.92704324052352" lon="14.601024731285124"><ele>354.0</ele><time>2026-05-03T08:13:01Z</time></trkpt><trkpt lat="36.92709153377796" lon="14.60110627859916"><ele>356.6</ele><time>2026-05-03T08:13:04Z</time></trkpt><trkpt lat="36.927115991816585" lon="14.601214370136516"><ele>359.2</ele><time>2026-05-03T08:13:06Z</time></trkpt><trkpt lat="36.92721506326782" lon="14.601304660794845"><ele>361.8</ele><time>2026-05-03T08:13:08Z</time></trkpt><trkpt lat="36.92727857969401" lon="14.601323546934404"><ele>364.40000000000003</ele><time>2026-05-03T08:13:11Z</time></trkpt><trkpt lat="36.927362533437254" lon="14.601285814405806"><ele>367.0</ele><time>2026-05-03T08:13:13Z</time></trkpt><trkpt lat="36.92746042167285" lon="14.60127290670103"><ele>367.0</ele><time>2026-05-03T08:13:15Z</time></trkpt><trkpt lat="36.92751081060251" lon="14.60121425485949"><ele>367.0</ele><time>2026-05-03T08:13:17Z</time></trkpt><trkpt lat="36.92755635734328" lon="14.6010948592398"><ele>367.0</ele><time>2026-05-03T08:13:20Z</time></trkpt><trkpt lat="36.92762214788397" lon="14.601009482078613"><ele>367.0</ele><time>2026-05-03T08:13:22Z</time></trkpt><trkpt lat="36.92768475357374" lon="14.600945428816523"><ele>367.0</ele><time>2026-05-03T08:13:25Z</time></trkpt><trkpt lat="36.9277296809449" lon="14.60088178446524"><ele>367.0</ele><time>2026-05-03T08:13:28Z</time></trkpt><trkpt lat="36.92783904458246" lon="14.600877859260809"><ele>365.6</ele><time>2026-05-03T08:13:34Z</time></trkpt><trkpt lat="36.92790559773625" lon="14.60086954020073"><ele>364.20000000000005</ele><time>2026-05-03T08:13:36Z</time></trkpt><trkpt lat="36.92797471912962" lon="14.600900441168084"><ele>362.8</ele><time>2026-05-03T08:13:38Z</time></trkpt><trkpt lat="36.928076472689085" lon="14.601034171815126"><ele>361.4</ele><time>2026-05-03T08:13:40Z</time></trkpt><trkpt lat="36.92812586183569" lon="14.601122212995667"><ele>360.0</ele><time>2026-05-03T08:13:41Z</time></trkpt><trkpt lat="36.928224429361535" lon="14.601205113331625"><ele>360.0</ele><time>2026-05-03T08:13:43Z</time></trkpt><trkpt lat="36.928300404049885" lon="14.601238036134582"><ele>360.0</ele><time>2026-05-03T08:13:44Z</time></trkpt><trkpt lat="36.92838332303482" lon="14.60127271350127"><ele>360.0</ele><time>2026-05-03T08:13:45Z</time></trkpt><trkpt lat="36.92846046779346" lon="14.601303623711818"><ele>360.0</ele><time>2026-05-03T08:13:46Z</time></trkpt><trkpt lat="36.92858366286837" lon="14.601314213704024"><ele>360.0</ele><time>2026-05-03T08:13:48Z</time></trkpt><trkpt lat="36.92866728034786" lon="14.601306415245029"><ele>359.0</ele><time>2026-05-03T08:13:49Z</time></trkpt><trkpt lat="36.9287708773167" lon="14.601301667218507"><ele>358.0</ele><time>2026-05-03T08:13:50Z</time></trkpt><trkpt lat="36.928876311076316" lon="14.60129761733227"><ele>357.0</ele><time>2026-05-03T08:13:51Z</time></trkpt><trkpt lat="36.92896898920282" lon="14.601287719898913"><ele>356.0</ele><time>2026-05-03T08:13:52Z</time></trkpt><trkpt lat="36.929050779129916" lon="14.601289765411847"><ele>355.0</ele><time>2026-05-03T08:13:53Z</time></trkpt><trkpt lat="36.92914903954154" lon="14.60129883650494"><ele>353.6</ele><time>2026-05-03T08:13:54Z</time></trkpt><trkpt lat="36.929253240385115" lon="14.60131243475087"><ele>352.2</ele><time>2026-05-03T08:13:55.002Z</time></trkpt><trkpt lat="36.9293501786206" lon="14.601320795751151"><ele>350.79999999999995</ele><time>2026-05-03T08:13:56.002Z</time></trkpt><trkpt lat="36.929443099746656" lon="14.601334177224247"><ele>349.4</ele><time>2026-05-03T08:13:57.002Z</time></trkpt><trkpt lat="36.92952929434054" lon="14.60135275999124"><ele>348.0</ele><time>2026-05-03T08:13:58.002Z</time></trkpt><trkpt lat="36.92961117974403" lon="14.60136571125493"><ele>348.0</ele><time>2026-05-03T08:13:59.002Z</time></trkpt><trkpt lat="36.929681672302685" lon="14.601386403933445"><ele>348.0</ele><time>2026-05-03T08:14:00.002Z</time></trkpt><trkpt lat="36.92977215726518" lon="14.601426676200267"><ele>348.0</ele><time>2026-05-03T08:14:02.001Z</time></trkpt><trkpt lat="36.92979377971965" lon="14.60151213771966"><ele>348.0</ele><time>2026-05-03T08:14:04.001Z</time></trkpt><trkpt lat="36.92987296860732" lon="14.601583759666767"><ele>348.0</ele><time>2026-05-03T08:14:06.001Z</time></trkpt><trkpt lat="36.92994003760291" lon="14.601591006317069"><ele>348.0</ele><time>2026-05-03T08:14:07.001Z</time></trkpt><trkpt lat="36.93002377938964" lon="14.60162579839961"><ele>345.59999999999997</ele><time>2026-05-03T08:14:08.001Z</time></trkpt><trkpt lat="36.93011718029559" lon="14.601686112325298"><ele>343.2</ele><time>2026-05-03T08:14:09.001Z</time></trkpt><trkpt lat="36.930205743967605" lon="14.60173099724073"><ele>340.8</ele><time>2026-05-03T08:14:10.001Z</time></trkpt><trkpt lat="36.930307762985855" lon="14.601753359455765"><ele>338.4</ele><time>2026-05-03T08:14:11.001Z</time></trkpt><trkpt lat="36.930417505335626" lon="14.601786197011183"><ele>336.0</ele><time>2026-05-03T08:14:12.001Z</time></trkpt><trkpt lat="36.93050715568071" lon="14.601822549150802"><ele>336.0</ele><time>2026-05-03T08:14:13.001Z</time></trkpt><trkpt lat="36.9305710607711" lon="14.601872085068111"><ele>336.0</ele><time>2026-05-03T08:14:14.001Z</time></trkpt><trkpt lat="36.930637621341255" lon="14.601941457817366"><ele>336.0</ele><time>2026-05-03T08:14:15.001Z</time></trkpt><trkpt lat="36.93070805710288" lon="14.60199576563785"><ele>336.0</ele><time>2026-05-03T08:14:16.001Z</time></trkpt><trkpt lat="36.93077549381672" lon="14.602019749699016"><ele>336.0</ele><time>2026-05-03T08:14:17.001Z</time></trkpt><trkpt lat="36.930845733205075" lon="14.602009054445976"><ele>336.0</ele><time>2026-05-03T08:14:18.001Z</time></trkpt><trkpt lat="36.93092271675295" lon="14.602024908223612"><ele>337.3333333333333</ele><time>2026-05-03T08:14:19.001Z</time></trkpt><trkpt lat="36.930975378290384" lon="14.602074101776054"><ele>338.6666666666667</ele><time>2026-05-03T08:14:20.001Z</time></trkpt><trkpt lat="36.931027334044764" lon="14.602141617458093"><ele>340.0</ele><time>2026-05-03T08:14:21.001Z</time></trkpt><trkpt lat="36.931094031961685" lon="14.602161523625101"><ele>341.33333333333337</ele><time>2026-05-03T08:14:22.001Z</time></trkpt><trkpt lat="36.93117442032336" lon="14.602159260852687"><ele>342.6666666666667</ele><time>2026-05-03T08:14:23.001Z</time></trkpt><trkpt lat="36.93125229559151" lon="14.60218254077207"><ele>344.0</ele><time>2026-05-03T08:14:24.001Z</time></trkpt><trkpt lat="36.93133002488893" lon="14.602235508445595"><ele>344.0</ele><time>2026-05-03T08:14:25.001Z</time></trkpt><trkpt lat="36.9314009933657" lon="14.602303652971726"><ele>344.0</ele><time>2026-05-03T08:14:26.001Z</time></trkpt><trkpt lat="36.931466126309004" lon="14.602372762744954"><ele>344.0</ele><time>2026-05-03T08:14:27.001Z</time></trkpt><trkpt lat="36.93153363511278" lon="14.602419666449839"><ele>344.0</ele><time>2026-05-03T08:14:28.001Z</time></trkpt><trkpt lat="36.93159995914188" lon="14.602455915185791"><ele>344.0</ele><time>2026-05-03T08:14:29.001Z</time></trkpt><trkpt lat="36.931691551113" lon="14.60254347118266"><ele>344.0</ele><time>2026-05-03T08:14:31.001Z</time></trkpt><trkpt lat="36.93176021984796" lon="14.602622128459716"><ele>343.1666666666667</ele><time>2026-05-03T08:14:32.001Z</time></trkpt><trkpt lat="36.93182190447414" lon="14.60270138328342"><ele>342.33333333333337</ele><time>2026-05-03T08:14:33.001Z</time></trkpt><trkpt lat="36.93187710983483" lon="14.602769484384394"><ele>341.5</ele><time>2026-05-03T08:14:34.001Z</time></trkpt><trkpt lat="36.93192310529861" lon="14.602856728142605"><ele>340.6666666666667</ele><time>2026-05-03T08:14:35.001Z</time></trkpt><trkpt lat="36.93196266496281" lon="14.602944345471263"><ele>339.8333333333333</ele><time>2026-05-03T08:14:36.001Z</time></trkpt><trkpt lat="36.93199329517074" lon="14.603018989091513"><ele>339.0</ele><time>2026-05-03T08:14:37.001Z</time></trkpt><trkpt lat="36.93204077323868" lon="14.603125902666587"><ele>339.0</ele><time>2026-05-03T08:14:39.001Z</time></trkpt><trkpt lat="36.932139555456274" lon="14.60318323675778"><ele>339.0</ele><time>2026-05-03T08:15:42Z</time></trkpt><trkpt lat="36.93222809269142" lon="14.603228035666001"><ele>339.0</ele><time>2026-05-03T08:15:44Z</time></trkpt><trkpt lat="36.93225213413327" lon="14.603304642564138"><ele>339.0</ele><time>2026-05-03T08:15:46Z</time></trkpt><trkpt lat="36.93233748280229" lon="14.60340784059697"><ele>339.0</ele><time>2026-05-03T08:15:48Z</time></trkpt><trkpt lat="36.93239891547732" lon="14.603463637173135"><ele>339.0</ele><time>2026-05-03T08:15:49Z</time></trkpt><trkpt lat="36.93245716162315" lon="14.603544188205893"><ele>339.0</ele><time>2026-05-03T08:15:50Z</time></trkpt><trkpt lat="36.93253160239749" lon="14.603640602826449"><ele>339.0</ele><time>2026-05-03T08:15:51Z</time></trkpt><trkpt lat="36.93261122884675" lon="14.603740633214574"><ele>339.0</ele><time>2026-05-03T08:15:52Z</time></trkpt><trkpt lat="36.932690399094845" lon="14.603842462555948"><ele>339.0</ele><time>2026-05-03T08:15:53Z</time></trkpt><trkpt lat="36.932784699443395" lon="14.603935754665624"><ele>338.6666666666667</ele><time>2026-05-03T08:15:54Z</time></trkpt><trkpt lat="36.93288240805203" lon="14.604015924487506"><ele>338.3333333333333</ele><time>2026-05-03T08:15:55Z</time></trkpt><trkpt lat="36.93295895458973" lon="14.604072721035205"><ele>338.0</ele><time>2026-05-03T08:15:56Z</time></trkpt><trkpt lat="36.933001449211694" lon="14.604173213096729"><ele>337.66666666666663</ele><time>2026-05-03T08:15:58Z</time></trkpt><trkpt lat="36.93299910054968" lon="14.604255372484712"><ele>337.3333333333333</ele><time>2026-05-03T08:15:59Z</time></trkpt><trkpt lat="36.93301157167999" lon="14.604351897403209"><ele>337.0</ele><time>2026-05-03T08:16:00.002Z</time></trkpt><trkpt lat="36.933019991148825" lon="14.604437286763133"><ele>338.66666666666663</ele><time>2026-05-03T08:16:01.002Z</time></trkpt><trkpt lat="36.93302759505614" lon="14.604565616641338"><ele>340.3333333333333</ele><time>2026-05-03T08:16:03.002Z</time></trkpt><trkpt lat="36.933003361906444" lon="14.60464767511641"><ele>342.0</ele><time>2026-05-03T08:16:09.001Z</time></trkpt><trkpt lat="36.932971583114536" lon="14.60472319003958"><ele>343.6666666666667</ele><time>2026-05-03T08:16:12.001Z</time></trkpt><trkpt lat="36.93290005475223" lon="14.604759179109609"><ele>345.33333333333337</ele><time>2026-05-03T08:16:15.001Z</time></trkpt><trkpt lat="36.932817301878075" lon="14.604710872177757"><ele>347.0</ele><time>2026-05-03T08:16:17.001Z</time></trkpt><trkpt lat="36.93274818747361" lon="14.604782432728609"><ele>347.0</ele><time>2026-05-03T08:16:19.001Z</time></trkpt><trkpt lat="36.93260582044024" lon="14.604800981383542"><ele>347.0</ele><time>2026-05-03T08:16:21.001Z</time></trkpt><trkpt lat="36.93252692472941" lon="14.604831537214293"><ele>347.0</ele><time>2026-05-03T08:16:22.001Z</time></trkpt><trkpt lat="36.93245628524125" lon="14.604931126550646"><ele>347.0</ele><time>2026-05-03T08:16:24.001Z</time></trkpt><trkpt lat="36.93225373713341" lon="14.605232977728868"><ele>347.0</ele><time>2026-05-03T08:16:26.001Z</time></trkpt><trkpt lat="36.9322969144045" lon="14.605315671438666"><ele>347.0</ele><time>2026-05-03T08:16:27.001Z</time></trkpt><trkpt lat="36.932630975130294" lon="14.605151523271765"><ele>347.0</ele><time>2026-05-03T08:16:28.001Z</time></trkpt><trkpt lat="36.93267320831484" lon="14.605236594578995"><ele>347.0</ele><time>2026-05-03T08:16:29.001Z</time></trkpt><trkpt lat="36.932663424895374" lon="14.605322366431414"><ele>347.0</ele><time>2026-05-03T08:16:31.001Z</time></trkpt><trkpt lat="36.93273686018634" lon="14.605349952528464"><ele>347.0</ele><time>2026-05-03T08:16:33.001Z</time></trkpt><trkpt lat="36.93282674746892" lon="14.60531037313811"><ele>347.0</ele><time>2026-05-03T08:16:35.001Z</time></trkpt><trkpt lat="36.93290980738482" lon="14.605274180585932"><ele>347.0</ele><time>2026-05-03T08:16:37.001Z</time></trkpt><trkpt lat="36.93300016413646" lon="14.605351834655877"><ele>347.0</ele><time>2026-05-03T08:16:39.001Z</time></trkpt><trkpt lat="36.93305896472563" lon="14.605382798510158"><ele>345.6</ele><time>2026-05-03T08:16:40.001Z</time></trkpt><trkpt lat="36.933121752274346" lon="14.605470821089792"><ele>344.20000000000005</ele><time>2026-05-03T08:16:42Z</time></trkpt><trkpt lat="36.933209811789425" lon="14.605516165933398"><ele>342.8</ele><time>2026-05-03T08:16:44Z</time></trkpt><trkpt lat="36.933297226859295" lon="14.605477362921887"><ele>341.4</ele><time>2026-05-03T08:16:46Z</time></trkpt><trkpt lat="36.933366433520064" lon="14.605458833747184"><ele>340.0</ele><time>2026-05-03T08:16:48Z</time></trkpt><trkpt lat="36.9334675634498" lon="14.605397329935409"><ele>340.0</ele><time>2026-05-03T08:16:50Z</time></trkpt><trkpt lat="36.93354440626924" lon="14.605331771735141"><ele>340.0</ele><time>2026-05-03T08:16:52Z</time></trkpt><trkpt lat="36.933623604504746" lon="14.605324512571023"><ele>340.0</ele><time>2026-05-03T08:16:54Z</time></trkpt><trkpt lat="36.933765570305646" lon="14.60533420955565"><ele>340.0</ele><time>2026-05-03T08:16:56Z</time></trkpt><trkpt lat="36.93385095088851" lon="14.605332791618938"><ele>340.0</ele><time>2026-05-03T08:16:57Z</time></trkpt><trkpt lat="36.93393023545514" lon="14.605328932459233"><ele>338.6</ele><time>2026-05-03T08:16:58Z</time></trkpt><trkpt lat="36.93400558224054" lon="14.60532609671058"><ele>337.2</ele><time>2026-05-03T08:16:59Z</time></trkpt><trkpt lat="36.93408082626146" lon="14.60531891539044"><ele>335.79999999999995</ele><time>2026-05-03T08:17:00Z</time></trkpt><trkpt lat="36.934145926458875" lon="14.605213546424645"><ele>334.4</ele><time>2026-05-03T08:17:02Z</time></trkpt><trkpt lat="36.934064379930376" lon="14.605067989559046"><ele>333.0</ele><time>2026-05-03T08:17:04Z</time></trkpt><trkpt lat="36.9340334905421" lon="14.60495790969426"><ele>333.0</ele><time>2026-05-03T08:17:07Z</time></trkpt><trkpt lat="36.93408685078434" lon="14.60489833806765"><ele>333.0</ele><time>2026-05-03T08:17:09Z</time></trkpt><trkpt lat="36.934178083684316" lon="14.60483492829224"><ele>333.0</ele><time>2026-05-03T08:17:11Z</time></trkpt><trkpt lat="36.93424794991342" lon="14.60480253407971"><ele>333.0</ele><time>2026-05-03T08:17:12Z</time></trkpt><trkpt lat="36.93430600669723" lon="14.604770326726253"><ele>333.0</ele><time>2026-05-03T08:17:13Z</time></trkpt><trkpt lat="36.934370398853254" lon="14.604726312125704"><ele>333.0</ele><time>2026-05-03T08:17:14Z</time></trkpt><trkpt lat="36.934435656078" lon="14.604670011522733"><ele>331.3333333333333</ele><time>2026-05-03T08:17:15Z</time></trkpt><trkpt lat="36.934505207626245" lon="14.604621851728188"><ele>329.6666666666667</ele><time>2026-05-03T08:17:16Z</time></trkpt><trkpt lat="36.934572039549906" lon="14.60460017224135"><ele>328.0</ele><time>2026-05-03T08:17:17Z</time></trkpt><trkpt lat="36.93464333332536" lon="14.60459592854991"><ele>326.33333333333337</ele><time>2026-05-03T08:17:18Z</time></trkpt><trkpt lat="36.93473728999091" lon="14.604601251621121"><ele>324.6666666666667</ele><time>2026-05-03T08:17:19Z</time></trkpt><trkpt lat="36.93484052271574" lon="14.604600797846633"><ele>323.0</ele><time>2026-05-03T08:17:20Z</time></trkpt><trkpt lat="36.93494059414013" lon="14.604591257271846"><ele>323.0</ele><time>2026-05-03T08:17:21Z</time></trkpt><trkpt lat="36.935024663795886" lon="14.604571604347239"><ele>323.0</ele><time>2026-05-03T08:17:22Z</time></trkpt><trkpt lat="36.93510898523379" lon="14.604556246528148"><ele>323.0</ele><time>2026-05-03T08:17:23Z</time></trkpt><trkpt lat="36.93519671230971" lon="14.604537038325356"><ele>323.0</ele><time>2026-05-03T08:17:24Z</time></trkpt><trkpt lat="36.93528940395291" lon="14.604509830767235"><ele>323.0</ele><time>2026-05-03T08:17:25Z</time></trkpt><trkpt lat="36.93537820763261" lon="14.604479541022169"><ele>323.0</ele><time>2026-05-03T08:17:26Z</time></trkpt><trkpt lat="36.93546123339127" lon="14.60446434892394"><ele>319.2</ele><time>2026-05-03T08:17:27Z</time></trkpt><trkpt lat="36.93554307860748" lon="14.60446645927454"><ele>315.4</ele><time>2026-05-03T08:17:28Z</time></trkpt><trkpt lat="36.935617526198364" lon="14.60446605442647"><ele>311.59999999999997</ele><time>2026-05-03T08:17:29Z</time></trkpt><trkpt lat="36.935717865337445" lon="14.604433406656003"><ele>307.79999999999995</ele><time>2026-05-03T08:17:31Z</time></trkpt><trkpt lat="36.935772195926795" lon="14.604376749804903"><ele>304.0</ele><time>2026-05-03T08:17:33Z</time></trkpt><trkpt lat="36.93578142732411" lon="14.604216326854464"><ele>304.0</ele><time>2026-05-03T08:17:35Z</time></trkpt><trkpt lat="36.935787397801825" lon="14.604122910436354"><ele>304.0</ele><time>2026-05-03T08:17:36Z</time></trkpt><trkpt lat="36.93582097270926" lon="14.604030792161947"><ele>304.0</ele><time>2026-05-03T08:17:37Z</time></trkpt><trkpt lat="36.93582916788786" lon="14.603914150174763"><ele>304.0</ele><time>2026-05-03T08:17:39Z</time></trkpt><trkpt lat="36.93579890675104" lon="14.60382260144725"><ele>304.0</ele><time>2026-05-03T08:17:41Z</time></trkpt><trkpt lat="36.93582767863074" lon="14.603733308420802"><ele>304.0</ele><time>2026-05-03T08:18:52Z</time></trkpt><trkpt lat="36.93575731928809" lon="14.603671619335241"><ele>304.0</ele><time>2026-05-03T08:18:56Z</time></trkpt><trkpt lat="36.93568152978655" lon="14.603653797358334"><ele>304.0</ele><time>2026-05-03T08:18:58Z</time></trkpt><trkpt lat="36.935614457937966" lon="14.603668044224511"><ele>304.0</ele><time>2026-05-03T08:19:00Z</time></trkpt><trkpt lat="36.935555598002246" lon="14.603715031751236"><ele>304.0</ele><time>2026-05-03T08:19:02Z</time></trkpt><trkpt lat="36.93562569569199" lon="14.603669885458697"><ele>304.0</ele><time>2026-05-03T08:19:12Z</time></trkpt><trkpt lat="36.93568767020061" lon="14.60368445141228"><ele>304.0</ele><time>2026-05-03T08:19:14Z</time></trkpt><trkpt lat="36.93575936424454" lon="14.603725301562424"><ele>304.0</ele><time>2026-05-03T08:19:17Z</time></trkpt><trkpt lat="36.93569734937367" lon="14.603648364096353"><ele>304.0</ele><time>2026-05-03T08:19:37Z</time></trkpt><trkpt lat="36.93561160230992" lon="14.603679071009367"><ele>304.0</ele><time>2026-05-03T08:19:39Z</time></trkpt><trkpt lat="36.93555644425097" lon="14.603737036307976"><ele>304.0</ele><time>2026-05-03T08:19:42Z</time></trkpt><trkpt lat="36.93556741310897" lon="14.603650204928835"><ele>304.0</ele><time>2026-05-03T08:19:49Z</time></trkpt><trkpt lat="36.935568674328955" lon="14.60374049291934"><ele>304.0</ele><time>2026-05-03T08:19:52Z</time></trkpt><trkpt lat="36.93555203777088" lon="14.603662922371537"><ele>304.0</ele><time>2026-05-03T08:20:09.999Z</time></trkpt><trkpt lat="36.9356162378442" lon="14.603669439893459"><ele>304.0</ele><time>2026-05-03T08:20:12.001Z</time></trkpt><trkpt lat="36.93557168912664" lon="14.603742828927187"><ele>304.0</ele><time>2026-05-03T08:20:15.001Z</time></trkpt><trkpt lat="36.93549501504565" lon="14.60380186001842"><ele>304.0</ele><time>2026-05-03T08:20:19.001Z</time></trkpt><trkpt lat="36.93540662674511" lon="14.603802631735956"><ele>304.0</ele><time>2026-05-03T08:20:22.001Z</time></trkpt><trkpt lat="36.935351033243116" lon="14.603852867760349"><ele>304.0</ele><time>2026-05-03T08:20:24.001Z</time></trkpt><trkpt lat="36.93529243722352" lon="14.603915572745136"><ele>304.0</ele><time>2026-05-03T08:20:27Z</time></trkpt><trkpt lat="36.9353442639712" lon="14.603853008582359"><ele>304.0</ele><time>2026-05-03T08:20:33Z</time></trkpt><trkpt lat="36.93543126505809" lon="14.603803934295922"><ele>304.0</ele><time>2026-05-03T08:20:35Z</time></trkpt><trkpt lat="36.93550252107753" lon="14.603763123125603"><ele>304.0</ele><time>2026-05-03T08:20:38Z</time></trkpt><trkpt lat="36.93557797409194" lon="14.603752006664196"><ele>304.0</ele><time>2026-05-03T08:21:21Z</time></trkpt><trkpt lat="36.93558614897788" lon="14.60367205977905"><ele>304.0</ele><time>2026-05-03T08:22:09.999Z</time></trkpt><trkpt lat="36.93568994117986" lon="14.603714881670115"><ele>304.0</ele><time>2026-05-03T08:22:12.999Z</time></trkpt><trkpt lat="36.93576620766017" lon="14.603768119191534"><ele>304.0</ele><time>2026-05-03T08:22:14.999Z</time></trkpt><trkpt lat="36.93583971783136" lon="14.603743816859536"><ele>301.8</ele><time>2026-05-03T08:23:35.999Z</time></trkpt><trkpt lat="36.93596546537349" lon="14.603676448412488"><ele>299.59999999999997</ele><time>2026-05-03T08:23:37.999Z</time></trkpt><trkpt lat="36.93603311709602" lon="14.603626573920382"><ele>297.4</ele><time>2026-05-03T08:23:38.999Z</time></trkpt><trkpt lat="36.93608837525111" lon="14.60357410079125"><ele>295.2</ele><time>2026-05-03T08:23:39.999Z</time></trkpt><trkpt lat="36.93617629018432" lon="14.603537199537522"><ele>293.0</ele><time>2026-05-03T08:23:41.999Z</time></trkpt><trkpt lat="36.93623598943116" lon="14.60342562602453"><ele>292.1428571428571</ele><time>2026-05-03T08:23:43.999Z</time></trkpt><trkpt lat="36.93622295463704" lon="14.60334849810169"><ele>291.2857142857143</ele><time>2026-05-03T08:23:44.999Z</time></trkpt><trkpt lat="36.93621805877321" lon="14.603268901796822"><ele>290.42857142857144</ele><time>2026-05-03T08:23:46.999Z</time></trkpt><trkpt lat="36.9362554099672" lon="14.603184255302777"><ele>289.57142857142856</ele><time>2026-05-03T08:23:48.999Z</time></trkpt><trkpt lat="36.93633818824262" lon="14.603113887142332"><ele>288.7142857142857</ele><time>2026-05-03T08:23:50.999Z</time></trkpt><trkpt lat="36.936417426383144" lon="14.603129033564423"><ele>287.85714285714283</ele><time>2026-05-03T08:23:52.999Z</time></trkpt><trkpt lat="36.936481026382964" lon="14.603144377298152"><ele>287.0</ele><time>2026-05-03T08:23:54.999Z</time></trkpt><trkpt lat="36.93650705648378" lon="14.603053323260026"><ele>287.0</ele><time>2026-05-03T08:23:56.999Z</time></trkpt><trkpt lat="36.936552325721976" lon="14.602955830113872"><ele>287.0</ele><time>2026-05-03T08:23:58.999Z</time></trkpt><trkpt lat="36.9366366230924" lon="14.602921766114397"><ele>287.0</ele><time>2026-05-03T08:24:00.999Z</time></trkpt><trkpt lat="36.936736259467054" lon="14.602961829016396"><ele>287.0</ele><time>2026-05-03T08:24:03.999Z</time></trkpt><trkpt lat="36.93678302346073" lon="14.603026949268685"><ele>287.0</ele><time>2026-05-03T08:24:04.999Z</time></trkpt><trkpt lat="36.93683285183514" lon="14.603107350057945"><ele>287.0</ele><time>2026-05-03T08:24:05.999Z</time></trkpt><trkpt lat="36.93688765959575" lon="14.603184282384083"><ele>285.2</ele><time>2026-05-03T08:24:06.999Z</time></trkpt><trkpt lat="36.93695274263055" lon="14.603273128021055"><ele>283.4</ele><time>2026-05-03T08:24:08.999Z</time></trkpt><trkpt lat="36.937019363778" lon="14.603405329652892"><ele>281.6</ele><time>2026-05-03T08:24:10.999Z</time></trkpt><trkpt lat="36.93706423353709" lon="14.603509455034722"><ele>279.8</ele><time>2026-05-03T08:24:11.999Z</time></trkpt><trkpt lat="36.937109385515626" lon="14.603634574130682"><ele>278.0</ele><time>2026-05-03T08:24:12.999Z</time></trkpt><trkpt lat="36.937151927841924" lon="14.603744886403943"><ele>278.0</ele><time>2026-05-03T08:24:13.999Z</time></trkpt><trkpt lat="36.937183944992015" lon="14.603835940927635"><ele>278.0</ele><time>2026-05-03T08:24:14.999Z</time></trkpt><trkpt lat="36.937220438824006" lon="14.603909780903713"><ele>278.0</ele><time>2026-05-03T08:24:15.999Z</time></trkpt><trkpt lat="36.93728974179072" lon="14.604059293997958"><ele>278.0</ele><time>2026-05-03T08:24:17.999Z</time></trkpt><trkpt lat="36.93731328407462" lon="14.604146210874948"><ele>278.0</ele><time>2026-05-03T08:24:18.999Z</time></trkpt><trkpt lat="36.937334195835874" lon="14.604227274876173"><ele>278.0</ele><time>2026-05-03T08:24:19.999Z</time></trkpt><trkpt lat="36.937361446989115" lon="14.604364518374565"><ele>278.0</ele><time>2026-05-03T08:24:21.999Z</time></trkpt><trkpt lat="36.93737106220759" lon="14.60449128541465"><ele>278.0</ele><time>2026-05-03T08:24:24Z</time></trkpt><trkpt lat="36.93739250718875" lon="14.604621061133079"><ele>278.0</ele><time>2026-05-03T08:24:26Z</time></trkpt><trkpt lat="36.93735414490059" lon="14.604775710836874"><ele>278.0</ele><time>2026-05-03T08:24:28Z</time></trkpt><trkpt lat="36.93737867371401" lon="14.604920363188725"><ele>278.8</ele><time>2026-05-03T08:24:30Z</time></trkpt><trkpt lat="36.9374519898532" lon="14.604968419477474"><ele>279.6</ele><time>2026-05-03T08:24:31Z</time></trkpt><trkpt lat="36.9375351071269" lon="14.605019991475462"><ele>280.4</ele><time>2026-05-03T08:24:32Z</time></trkpt><trkpt lat="36.9376413267511" lon="14.605074942981645"><ele>281.2</ele><time>2026-05-03T08:24:33Z</time></trkpt><trkpt lat="36.93772412122772" lon="14.605115552839182"><ele>282.0</ele><time>2026-05-03T08:24:34Z</time></trkpt><trkpt lat="36.937829703315124" lon="14.605200474844528"><ele>280.0</ele><time>2026-05-03T08:24:36Z</time></trkpt><trkpt lat="36.93788672511154" lon="14.60527572917085"><ele>278.0</ele><time>2026-05-03T08:24:37Z</time></trkpt><trkpt lat="36.937934385127654" lon="14.605334906742021"><ele>276.0</ele><time>2026-05-03T08:24:38Z</time></trkpt><trkpt lat="36.938038190587626" lon="14.605423691908845"><ele>274.0</ele><time>2026-05-03T08:24:40Z</time></trkpt><trkpt lat="36.93811286114262" lon="14.60548397987659"><ele>272.0</ele><time>2026-05-03T08:24:41Z</time></trkpt><trkpt lat="36.9381740281674" lon="14.605549881816419"><ele>270.0</ele><time>2026-05-03T08:24:42Z</time></trkpt><trkpt lat="36.938221519990115" lon="14.605670073182036"><ele>270.0</ele><time>2026-05-03T08:24:44Z</time></trkpt><trkpt lat="36.93823562601235" lon="14.605755105561277"><ele>270.0</ele><time>2026-05-03T08:24:45Z</time></trkpt><trkpt lat="36.93826580075468" lon="14.60585710510673"><ele>270.0</ele><time>2026-05-03T08:24:46Z</time></trkpt><trkpt lat="36.938316392649014" lon="14.605967325805915"><ele>270.0</ele><time>2026-05-03T08:24:47Z</time></trkpt><trkpt lat="36.93837316750155" lon="14.60607858502854"><ele>270.0</ele><time>2026-05-03T08:24:48Z</time></trkpt><trkpt lat="36.938411530958554" lon="14.606181030676852"><ele>270.3333333333333</ele><time>2026-05-03T08:24:49Z</time></trkpt><trkpt lat="36.93844962257323" lon="14.606280606813533"><ele>270.6666666666667</ele><time>2026-05-03T08:24:50Z</time></trkpt><trkpt lat="36.938484826568605" lon="14.60637874939427"><ele>271.0</ele><time>2026-05-03T08:24:51Z</time></trkpt><trkpt lat="36.938526807668005" lon="14.606483622380113"><ele>271.33333333333337</ele><time>2026-05-03T08:24:52Z</time></trkpt><trkpt lat="36.9385677404891" lon="14.606581139197218"><ele>271.6666666666667</ele><time>2026-05-03T08:24:53Z</time></trkpt><trkpt lat="36.93860880928978" lon="14.606680984901326"><ele>272.0</ele><time>2026-05-03T08:24:54Z</time></trkpt><trkpt lat="36.938651809078465" lon="14.606786786084708"><ele>272.0</ele><time>2026-05-03T08:24:55Z</time></trkpt><trkpt lat="36.93869038464621" lon="14.606885637900533"><ele>272.0</ele><time>2026-05-03T08:24:56Z</time></trkpt><trkpt lat="36.9387505990974" lon="14.606961424523188"><ele>272.0</ele><time>2026-05-03T08:24:57Z</time></trkpt><trkpt lat="36.93882567810849" lon="14.606989183726249"><ele>272.0</ele><time>2026-05-03T08:24:58Z</time></trkpt><trkpt lat="36.93892024386401" lon="14.606994033550308"><ele>272.0</ele><time>2026-05-03T08:24:58.999Z</time></trkpt><trkpt lat="36.93899601401245" lon="14.607017338285951"><ele>272.0</ele><time>2026-05-03T08:24:59.999Z</time></trkpt><trkpt lat="36.93907393306436" lon="14.607070177678793"><ele>272.0</ele><time>2026-05-03T08:25:00.999Z</time></trkpt><trkpt lat="36.93914620401682" lon="14.607120933772586"><ele>272.0</ele><time>2026-05-03T08:25:01.999Z</time></trkpt><trkpt lat="36.93922312258451" lon="14.607189579055497"><ele>272.0</ele><time>2026-05-03T08:25:02.999Z</time></trkpt><trkpt lat="36.93932726821888" lon="14.607297016650636"><ele>272.0</ele><time>2026-05-03T08:25:03.999Z</time></trkpt><trkpt lat="36.93942244383843" lon="14.60741769539938"><ele>272.0</ele><time>2026-05-03T08:25:04.999Z</time></trkpt><trkpt lat="36.93949520069302" lon="14.607518487059135"><ele>272.0</ele><time>2026-05-03T08:25:05.999Z</time></trkpt><trkpt lat="36.93955210780739" lon="14.607614105224469"><ele>272.0</ele><time>2026-05-03T08:25:06.999Z</time></trkpt><trkpt lat="36.93959708252357" lon="14.60769290645021"><ele>272.0</ele><time>2026-05-03T08:25:07.999Z</time></trkpt><trkpt lat="36.93970297117336" lon="14.607724702729142"><ele>272.0</ele><time>2026-05-03T08:25:10.999Z</time></trkpt><trkpt lat="36.939781857579405" lon="14.60777544751246"><ele>272.0</ele><time>2026-05-03T08:25:12.999Z</time></trkpt><trkpt lat="36.939876508235784" lon="14.6077070591307"><ele>272.0</ele><time>2026-05-03T08:25:15.999Z</time></trkpt><trkpt lat="36.939949706933184" lon="14.607670092866643"><ele>272.0</ele><time>2026-05-03T08:25:19.999Z</time></trkpt><trkpt lat="36.94001378161716" lon="14.607650930340744"><ele>272.0</ele><time>2026-05-03T08:25:22.999Z</time></trkpt><trkpt lat="36.94005060287272" lon="14.607581939948235"><ele>272.0</ele><time>2026-05-03T08:25:23.999Z</time></trkpt><trkpt lat="36.940108048138626" lon="14.607526245050106"><ele>272.0</ele><time>2026-05-03T08:25:25.999Z</time></trkpt><trkpt lat="36.9402203703256" lon="14.607437565242774"><ele>272.0</ele><time>2026-05-03T08:25:27.999Z</time></trkpt><trkpt lat="36.94030404338145" lon="14.607478067903612"><ele>271.1666666666667</ele><time>2026-05-03T08:25:29.999Z</time></trkpt><trkpt lat="36.940377585483844" lon="14.607517972623645"><ele>270.33333333333337</ele><time>2026-05-03T08:25:32Z</time></trkpt><trkpt lat="36.940443441721456" lon="14.607541030651184"><ele>269.5</ele><time>2026-05-03T08:25:34Z</time></trkpt><trkpt lat="36.940477345528436" lon="14.607621469945595"><ele>268.6666666666667</ele><time>2026-05-03T08:25:37Z</time></trkpt><trkpt lat="36.940504252614026" lon="14.607699829426817"><ele>267.8333333333333</ele><time>2026-05-03T08:25:39Z</time></trkpt><trkpt lat="36.94052780016334" lon="14.607809907670323"><ele>267.0</ele><time>2026-05-03T08:25:41Z</time></trkpt><trkpt lat="36.9405351555835" lon="14.607899850322612"><ele>267.0</ele><time>2026-05-03T08:25:43Z</time></trkpt><trkpt lat="36.94054099438816" lon="14.607982915963527"><ele>267.0</ele><time>2026-05-03T08:25:45Z</time></trkpt><trkpt lat="36.94052284787084" lon="14.608071220079376"><ele>267.0</ele><time>2026-05-03T08:25:47Z</time></trkpt><trkpt lat="36.94054264609118" lon="14.608149400362066"><ele>267.0</ele><time>2026-05-03T08:25:49Z</time></trkpt><trkpt lat="36.94058626772774" lon="14.608246624104034"><ele>267.0</ele><time>2026-05-03T08:25:51Z</time></trkpt><trkpt lat="36.94060596480783" lon="14.608374066368764"><ele>267.0</ele><time>2026-05-03T08:25:53Z</time></trkpt><trkpt lat="36.94063085992398" lon="14.60848594066776"><ele>267.8333333333333</ele><time>2026-05-03T08:25:55Z</time></trkpt><trkpt lat="36.940656442605295" lon="14.608662930022613"><ele>268.6666666666667</ele><time>2026-05-03T08:25:57Z</time></trkpt><trkpt lat="36.94065351381217" lon="14.608760016493918"><ele>269.5</ele><time>2026-05-03T08:25:58Z</time></trkpt><trkpt lat="36.94065047677707" lon="14.608849776886219"><ele>270.33333333333337</ele><time>2026-05-03T08:25:59Z</time></trkpt><trkpt lat="36.94067663885744" lon="14.608943550250183"><ele>271.1666666666667</ele><time>2026-05-03T08:26:00Z</time></trkpt><trkpt lat="36.940714058215576" lon="14.609023254063509"><ele>272.0</ele><time>2026-05-03T08:26:01Z</time></trkpt><trkpt lat="36.94073412602431" lon="14.60911094097213"><ele>272.0</ele><time>2026-05-03T08:26:02Z</time></trkpt><trkpt lat="36.94074390425827" lon="14.609194441058246"><ele>272.0</ele><time>2026-05-03T08:26:03Z</time></trkpt><trkpt lat="36.94051226388774" lon="14.60938057541464"><ele>272.0</ele><time>2026-05-03T08:26:06Z</time></trkpt><trkpt lat="36.94056695651128" lon="14.609543586008936"><ele>273.75</ele><time>2026-05-03T08:26:08Z</time></trkpt><trkpt lat="36.9406004288668" lon="14.609622699709702"><ele>275.5</ele><time>2026-05-03T08:26:10Z</time></trkpt><trkpt lat="36.940637290331956" lon="14.60971498573656"><ele>277.25</ele><time>2026-05-03T08:26:13Z</time></trkpt><trkpt lat="36.94075518624278" lon="14.609762339188382"><ele>279.0</ele><time>2026-05-03T08:26:16Z</time></trkpt><trkpt lat="36.94066162323984" lon="14.609981087458465"><ele>279.0</ele><time>2026-05-03T08:26:22Z</time></trkpt><trkpt lat="36.94067847993377" lon="14.610073597213328"><ele>279.0</ele><time>2026-05-03T08:26:24.999Z</time></trkpt><trkpt lat="36.94076501773388" lon="14.610123202622189"><ele>279.0</ele><time>2026-05-03T08:26:27.999Z</time></trkpt><trkpt lat="36.94085062933065" lon="14.610051557136309"><ele>279.0</ele><time>2026-05-03T08:26:31.001Z</time></trkpt><trkpt lat="36.94094514417398" lon="14.610020842793395"><ele>279.0</ele><time>2026-05-03T08:26:33.001Z</time></trkpt><trkpt lat="36.94102129082091" lon="14.610050727301727"><ele>279.6666666666667</ele><time>2026-05-03T08:26:35.001Z</time></trkpt><trkpt lat="36.941082592849085" lon="14.610094304305479"><ele>280.3333333333333</ele><time>2026-05-03T08:26:37.001Z</time></trkpt><trkpt lat="36.941159549318826" lon="14.610118796568642"><ele>281.0</ele><time>2026-05-03T08:26:39.001Z</time></trkpt><trkpt lat="36.94125973622326" lon="14.6101439496651"><ele>281.66666666666663</ele><time>2026-05-03T08:26:41.001Z</time></trkpt><trkpt lat="36.94133102775876" lon="14.610133478124935"><ele>282.3333333333333</ele><time>2026-05-03T08:26:49.001Z</time></trkpt><trkpt lat="36.94134617966476" lon="14.610238805673093"><ele>283.0</ele><time>2026-05-03T08:26:53.001Z</time></trkpt><trkpt lat="36.941319101848805" lon="14.610324684199384"><ele>283.4</ele><time>2026-05-03T08:26:56Z</time></trkpt><trkpt lat="36.94132085317458" lon="14.610424225258896"><ele>283.8</ele><time>2026-05-03T08:26:59Z</time></trkpt><trkpt lat="36.941398679383205" lon="14.61052074831512"><ele>284.2</ele><time>2026-05-03T08:27:01Z</time></trkpt><trkpt lat="36.941384670510885" lon="14.610631270575594"><ele>284.6</ele><time>2026-05-03T08:27:02Z</time></trkpt><trkpt lat="36.941493173397" lon="14.610640662613381"><ele>285.0</ele><time>2026-05-03T08:27:04Z</time></trkpt><trkpt lat="36.94160841516999" lon="14.61052141479707"><ele>285.0</ele><time>2026-05-03T08:27:06Z</time></trkpt><trkpt lat="36.94170492092771" lon="14.61040240563311"><ele>285.0</ele><time>2026-05-03T08:27:07Z</time></trkpt><trkpt lat="36.94177126007655" lon="14.610321679808191"><ele>285.0</ele><time>2026-05-03T08:27:08Z</time></trkpt><trkpt lat="36.94182683621998" lon="14.61027026669401"><ele>285.0</ele><time>2026-05-03T08:27:09Z</time></trkpt><trkpt lat="36.94193331362823" lon="14.610322432055135"><ele>285.0</ele><time>2026-05-03T08:27:11Z</time></trkpt><trkpt lat="36.94203363279244" lon="14.610409784299355"><ele>283.25</ele><time>2026-05-03T08:27:13Z</time></trkpt><trkpt lat="36.9421422442868" lon="14.610496020961095"><ele>281.5</ele><time>2026-05-03T08:27:15Z</time></trkpt><trkpt lat="36.94225184234853" lon="14.610570885962638"><ele>279.75</ele><time>2026-05-03T08:27:17Z</time></trkpt><trkpt lat="36.94233048260974" lon="14.610677944450277"><ele>278.0</ele><time>2026-05-03T08:27:19Z</time></trkpt><trkpt lat="36.94240832607353" lon="14.610784555770774"><ele>278.0</ele><time>2026-05-03T08:27:21Z</time></trkpt><trkpt lat="36.942452504685384" lon="14.61091328704494"><ele>278.0</ele><time>2026-05-03T08:27:23Z</time></trkpt><trkpt lat="36.942521016059246" lon="14.610969892247617"><ele>278.0</ele><time>2026-05-03T08:27:24Z</time></trkpt><trkpt lat="36.94257312836091" lon="14.61104159216592"><ele>278.0</ele><time>2026-05-03T08:27:25Z</time></trkpt><trkpt lat="36.9426418442051" lon="14.61112022800039"><ele>278.0</ele><time>2026-05-03T08:27:26Z</time></trkpt><trkpt lat="36.9427071172269" lon="14.611199174222365"><ele>276.0</ele><time>2026-05-03T08:27:27Z</time></trkpt><trkpt lat="36.94275849265038" lon="14.611302012486847"><ele>274.0</ele><time>2026-05-03T08:27:28Z</time></trkpt><trkpt lat="36.94278699465673" lon="14.611387231494913"><ele>272.0</ele><time>2026-05-03T08:27:29Z</time></trkpt><trkpt lat="36.94283785371744" lon="14.611474593970666"><ele>270.0</ele><time>2026-05-03T08:27:31Z</time></trkpt><trkpt lat="36.942827262585304" lon="14.611590233517578"><ele>268.0</ele><time>2026-05-03T08:27:33Z</time></trkpt><trkpt lat="36.94284686712897" lon="14.611700624178305"><ele>266.0</ele><time>2026-05-03T08:27:35Z</time></trkpt><trkpt lat="36.94286799376132" lon="14.611854714959174"><ele>266.0</ele><time>2026-05-03T08:27:37Z</time></trkpt><trkpt lat="36.942852526823984" lon="14.611970651495916"><ele>266.0</ele><time>2026-05-03T08:27:38Z</time></trkpt><trkpt lat="36.942831810920175" lon="14.612088670897206"><ele>266.0</ele><time>2026-05-03T08:27:39Z</time></trkpt><trkpt lat="36.94280136326117" lon="14.612195724601538"><ele>266.0</ele><time>2026-05-03T08:27:40Z</time></trkpt><trkpt lat="36.942796031971234" lon="14.612297534626226"><ele>266.0</ele><time>2026-05-03T08:27:41Z</time></trkpt><trkpt lat="36.942795086517975" lon="14.612407140300297"><ele>267.33333333333337</ele><time>2026-05-03T08:27:42Z</time></trkpt><trkpt lat="36.94281254457464" lon="14.612499175546619"><ele>268.6666666666667</ele><time>2026-05-03T08:27:43Z</time></trkpt><trkpt lat="36.94284706737329" lon="14.612567907153858"><ele>270.0</ele><time>2026-05-03T08:27:44Z</time></trkpt><trkpt lat="36.942905653007315" lon="14.61261395455423"><ele>271.3333333333333</ele><time>2026-05-03T08:27:45Z</time></trkpt><trkpt lat="36.942959029758434" lon="14.612685385933045"><ele>272.66666666666663</ele><time>2026-05-03T08:27:46Z</time></trkpt><trkpt lat="36.94302360714327" lon="14.61273256856079"><ele>274.0</ele><time>2026-05-03T08:27:47Z</time></trkpt><trkpt lat="36.9431095520821" lon="14.612748820637771"><ele>274.0</ele><time>2026-05-03T08:27:49Z</time></trkpt><trkpt lat="36.943200459518785" lon="14.612735949533743"><ele>274.0</ele><time>2026-05-03T08:27:51Z</time></trkpt><trkpt lat="36.943291098955115" lon="14.61271191441439"><ele>274.0</ele><time>2026-05-03T08:27:53Z</time></trkpt><trkpt lat="36.94338228695693" lon="14.612692831047429"><ele>274.0</ele><time>2026-05-03T08:27:59Z</time></trkpt><trkpt lat="36.943473157168235" lon="14.612784677400233"><ele>274.0</ele><time>2026-05-03T08:28:01Z</time></trkpt><trkpt lat="36.94366495372912" lon="14.612802208467986"><ele>272.75</ele><time>2026-05-03T08:28:04Z</time></trkpt><trkpt lat="36.943829493492544" lon="14.61274529117324"><ele>271.5</ele><time>2026-05-03T08:28:05Z</time></trkpt><trkpt lat="36.94396025730146" lon="14.612693226200225"><ele>270.25</ele><time>2026-05-03T08:28:06Z</time></trkpt><trkpt lat="36.94404325881349" lon="14.61269038333851"><ele>269.0</ele><time>2026-05-03T08:28:07Z</time></trkpt><trkpt lat="36.94414216221868" lon="14.61272545454321"><ele>270.2</ele><time>2026-05-03T08:28:08Z</time></trkpt><trkpt lat="36.94422539037897" lon="14.612792952345528"><ele>271.4</ele><time>2026-05-03T08:28:09Z</time></trkpt><trkpt lat="36.9442921131213" lon="14.612875808377607"><ele>272.6</ele><time>2026-05-03T08:28:10Z</time></trkpt><trkpt lat="36.94436335134793" lon="14.612956250947526"><ele>273.8</ele><time>2026-05-03T08:28:11Z</time></trkpt><trkpt lat="36.944458092839966" lon="14.61303818215765"><ele>275.0</ele><time>2026-05-03T08:28:12Z</time></trkpt><trkpt lat="36.94454397503294" lon="14.613107548325095"><ele>275.0</ele><time>2026-05-03T08:28:13Z</time></trkpt><trkpt lat="36.94461577145452" lon="14.61317376081297"><ele>275.0</ele><time>2026-05-03T08:28:14Z</time></trkpt><trkpt lat="36.944686071266794" lon="14.613269971260914"><ele>275.0</ele><time>2026-05-03T08:28:15Z</time></trkpt><trkpt lat="36.94478472818736" lon="14.613377870343765"><ele>275.0</ele><time>2026-05-03T08:28:15.999Z</time></trkpt><trkpt lat="36.94489438560479" lon="14.613412315548732"><ele>275.0</ele><time>2026-05-03T08:28:17.999Z</time></trkpt><trkpt lat="36.94495990522244" lon="14.613394876740552"><ele>275.0</ele><time>2026-05-03T08:28:18.999Z</time></trkpt><trkpt lat="36.9450282499991" lon="14.613403598668835"><ele>275.0</ele><time>2026-05-03T08:28:19.999Z</time></trkpt><trkpt lat="36.94510062861082" lon="14.613449826908194"><ele>275.0</ele><time>2026-05-03T08:28:20.999Z</time></trkpt><trkpt lat="36.945163185324525" lon="14.613489008452657"><ele>275.0</ele><time>2026-05-03T08:28:21.999Z</time></trkpt><trkpt lat="36.94522319818125" lon="14.613550305350175"><ele>275.0</ele><time>2026-05-03T08:28:22.999Z</time></trkpt><trkpt lat="36.945331012338016" lon="14.613498187846602"><ele>275.0</ele><time>2026-05-03T08:28:24.999Z</time></trkpt><trkpt lat="36.945392799818684" lon="14.613525295931815"><ele>271.8</ele><time>2026-05-03T08:28:25.999Z</time></trkpt><trkpt lat="36.94546206244397" lon="14.613578577218592"><ele>268.6</ele><time>2026-05-03T08:28:26.999Z</time></trkpt><trkpt lat="36.94556994169103" lon="14.613585801186085"><ele>265.4</ele><time>2026-05-03T08:28:28.999Z</time></trkpt><trkpt lat="36.94567584421549" lon="14.613634171098868"><ele>262.2</ele><time>2026-05-03T08:28:30.999Z</time></trkpt><trkpt lat="36.94571849057119" lon="14.613530096923848"><ele>259.0</ele><time>2026-05-03T08:28:33.999Z</time></trkpt><trkpt lat="36.945645064959386" lon="14.613424227162756"><ele>259.0</ele><time>2026-05-03T08:28:36.001Z</time></trkpt><trkpt lat="36.945731414034064" lon="14.613437185977945"><ele>259.0</ele><time>2026-05-03T08:28:39.001Z</time></trkpt><trkpt lat="36.94578247625091" lon="14.613494980339924"><ele>259.0</ele><time>2026-05-03T08:28:40.001Z</time></trkpt><trkpt lat="36.945901930963274" lon="14.613624605098936"><ele>259.0</ele><time>2026-05-03T08:28:41.001Z</time></trkpt><trkpt lat="36.94599426315772" lon="14.613724940629929"><ele>259.0</ele><time>2026-05-03T08:28:42.001Z</time></trkpt><trkpt lat="36.946061844032" lon="14.613838196005462"><ele>257.8</ele><time>2026-05-03T08:28:43.001Z</time></trkpt><trkpt lat="36.94613129222493" lon="14.613937104223847"><ele>256.59999999999997</ele><time>2026-05-03T08:28:44.001Z</time></trkpt><trkpt lat="36.94617904083027" lon="14.614036072978148"><ele>255.4</ele><time>2026-05-03T08:28:45.001Z</time></trkpt><trkpt lat="36.946281535838914" lon="14.614151662769226"><ele>254.2</ele><time>2026-05-03T08:28:47.001Z</time></trkpt><trkpt lat="36.946324484759494" lon="14.614246135644368"><ele>253.0</ele><time>2026-05-03T08:28:48.001Z</time></trkpt><trkpt lat="36.94637531321849" lon="14.614348381934965"><ele>253.0</ele><time>2026-05-03T08:28:49.001Z</time></trkpt><trkpt lat="36.94642970658211" lon="14.614454583528687"><ele>253.0</ele><time>2026-05-03T08:28:50.001Z</time></trkpt><trkpt lat="36.946479810402565" lon="14.614525312506865"><ele>253.0</ele><time>2026-05-03T08:28:51.001Z</time></trkpt><trkpt lat="36.9465346683319" lon="14.614592947329601"><ele>253.0</ele><time>2026-05-03T08:28:52Z</time></trkpt><trkpt lat="36.946676183937484" lon="14.614611357192087"><ele>253.0</ele><time>2026-05-03T08:28:54Z</time></trkpt><trkpt lat="36.94676206858931" lon="14.614653761462865"><ele>252.4</ele><time>2026-05-03T08:28:55Z</time></trkpt><trkpt lat="36.94681934748263" lon="14.614731302584019"><ele>251.8</ele><time>2026-05-03T08:28:56Z</time></trkpt><trkpt lat="36.94687717926012" lon="14.614860057890851"><ele>251.2</ele><time>2026-05-03T08:28:57Z</time></trkpt><trkpt lat="36.946947314629426" lon="14.61497264353467"><ele>250.6</ele><time>2026-05-03T08:28:58Z</time></trkpt><trkpt lat="36.94700662485961" lon="14.615068557992295"><ele>250.0</ele><time>2026-05-03T08:28:59Z</time></trkpt><trkpt lat="36.94705624226545" lon="14.615171754234428"><ele>249.99999999999997</ele><time>2026-05-03T08:29:00Z</time></trkpt><trkpt lat="36.9471009643251" lon="14.61528402852772"><ele>250.0</ele><time>2026-05-03T08:29:01Z</time></trkpt><trkpt lat="36.94712080618053" lon="14.615401946548024"><ele>250.0</ele><time>2026-05-03T08:29:02Z</time></trkpt><trkpt lat="36.947148594690525" lon="14.615499926620824"><ele>250.0</ele><time>2026-05-03T08:29:03Z</time></trkpt><trkpt lat="36.94716929710296" lon="14.615593903860209"><ele>249.99999999999997</ele><time>2026-05-03T08:29:04Z</time></trkpt><trkpt lat="36.947169765268406" lon="14.61570054803436"><ele>250.0</ele><time>2026-05-03T08:29:05Z</time></trkpt><trkpt lat="36.94718771354691" lon="14.615787684530927"><ele>253.2</ele><time>2026-05-03T08:29:06Z</time></trkpt><trkpt lat="36.94722233317601" lon="14.61587632054501"><ele>256.4</ele><time>2026-05-03T08:29:07Z</time></trkpt><trkpt lat="36.947260031434375" lon="14.615981271138667"><ele>259.6</ele><time>2026-05-03T08:29:08Z</time></trkpt><trkpt lat="36.94729578421763" lon="14.616104626952023"><ele>262.8</ele><time>2026-05-03T08:29:09Z</time></trkpt><trkpt lat="36.947314821586545" lon="14.616227211992651"><ele>266.0</ele><time>2026-05-03T08:29:10Z</time></trkpt><trkpt lat="36.94733778521196" lon="14.616358799776553"><ele>268.25</ele><time>2026-05-03T08:29:11Z</time></trkpt><trkpt lat="36.94737542364211" lon="14.616487425162953"><ele>270.5</ele><time>2026-05-03T08:29:12Z</time></trkpt><trkpt lat="36.94741509984304" lon="14.616620873377196"><ele>272.75</ele><time>2026-05-03T08:29:13Z</time></trkpt><trkpt lat="36.94743729777222" lon="14.61676657227479"><ele>275.0</ele><time>2026-05-03T08:29:14Z</time></trkpt><trkpt lat="36.947468183461915" lon="14.616903187744462"><ele>276.83333333333337</ele><time>2026-05-03T08:29:15Z</time></trkpt><trkpt lat="36.947496960477146" lon="14.617014206114948"><ele>278.6666666666667</ele><time>2026-05-03T08:29:16Z</time></trkpt><trkpt lat="36.947525166040855" lon="14.617112088863104"><ele>280.5</ele><time>2026-05-03T08:29:17Z</time></trkpt><trkpt lat="36.947551671657216" lon="14.617196281551141"><ele>282.3333333333333</ele><time>2026-05-03T08:29:18Z</time></trkpt><trkpt lat="36.9475888972847" lon="14.617277244374229"><ele>284.16666666666663</ele><time>2026-05-03T08:29:19Z</time></trkpt><trkpt lat="36.947646989862434" lon="14.617385802744135"><ele>286.0</ele><time>2026-05-03T08:29:20Z</time></trkpt><trkpt lat="36.947706402201604" lon="14.617508166807358"><ele>282.8</ele><time>2026-05-03T08:29:21Z</time></trkpt><trkpt lat="36.94775134739101" lon="14.617640865072014"><ele>279.6</ele><time>2026-05-03T08:29:22Z</time></trkpt><trkpt lat="36.94779279912488" lon="14.617772387384115"><ele>276.4</ele><time>2026-05-03T08:29:23Z</time></trkpt><trkpt lat="36.947829279913364" lon="14.61788297896039"><ele>273.2</ele><time>2026-05-03T08:29:24Z</time></trkpt><trkpt lat="36.947848174360765" lon="14.617984075305767"><ele>270.0</ele><time>2026-05-03T08:29:25Z</time></trkpt><trkpt lat="36.94787456421504" lon="14.618070990913823"><ele>270.0</ele><time>2026-05-03T08:29:26Z</time></trkpt><trkpt lat="36.94786880628731" lon="14.618151057152616"><ele>270.0</ele><time>2026-05-03T08:29:27Z</time></trkpt><trkpt lat="36.947873608017346" lon="14.618286942484959"><ele>270.0</ele><time>2026-05-03T08:29:29Z</time></trkpt><trkpt lat="36.94790932450664" lon="14.618356992013835"><ele>270.0</ele><time>2026-05-03T08:29:30Z</time></trkpt><trkpt lat="36.9479353955782" lon="14.618490783794185"><ele>270.0</ele><time>2026-05-03T08:29:32Z</time></trkpt><trkpt lat="36.948013221654904" lon="14.6185531023688"><ele>270.0</ele><time>2026-05-03T08:29:34Z</time></trkpt><trkpt lat="36.948096719430865" lon="14.618621987804927"><ele>270.0</ele><time>2026-05-03T08:29:36Z</time></trkpt><trkpt lat="36.948184581128565" lon="14.618517185470976"><ele>270.0</ele><time>2026-05-03T08:29:38Z</time></trkpt><trkpt lat="36.94825170621168" lon="14.618429717566277"><ele>270.0</ele><time>2026-05-03T08:29:39Z</time></trkpt><trkpt lat="36.948324560270045" lon="14.618387319055618"><ele>270.0</ele><time>2026-05-03T08:29:40Z</time></trkpt><trkpt lat="36.94839868177435" lon="14.618335887769788"><ele>270.0</ele><time>2026-05-03T08:29:41Z</time></trkpt><trkpt lat="36.948466698124015" lon="14.618297121775761"><ele>269.0</ele><time>2026-05-03T08:29:42Z</time></trkpt><trkpt lat="36.94851902915443" lon="14.618243354717485"><ele>268.0</ele><time>2026-05-03T08:29:43Z</time></trkpt><trkpt lat="36.948581865209476" lon="14.618231247266985"><ele>267.0</ele><time>2026-05-03T08:29:45Z</time></trkpt><trkpt lat="36.94862669346254" lon="14.618303174165439"><ele>266.0</ele><time>2026-05-03T08:29:46Z</time></trkpt><trkpt lat="36.94866651585327" lon="14.61841408510356"><ele>265.0</ele><time>2026-05-03T08:29:47Z</time></trkpt><trkpt lat="36.94872567564821" lon="14.618542849703639"><ele>264.0</ele><time>2026-05-03T08:29:48Z</time></trkpt><trkpt lat="36.94876953516554" lon="14.618672633684403"><ele>264.0</ele><time>2026-05-03T08:29:49Z</time></trkpt><trkpt lat="36.94880600716996" lon="14.618795462728446"><ele>264.0</ele><time>2026-05-03T08:29:50Z</time></trkpt><trkpt lat="36.94885100835834" lon="14.618906178939318"><ele>264.0</ele><time>2026-05-03T08:29:51Z</time></trkpt><trkpt lat="36.94887871449583" lon="14.619007004245718"><ele>264.0</ele><time>2026-05-03T08:29:52Z</time></trkpt><trkpt lat="36.94892482758046" lon="14.61909012918713"><ele>264.0</ele><time>2026-05-03T08:29:53Z</time></trkpt><trkpt lat="36.949004787775024" lon="14.619174046172771"><ele>264.0</ele><time>2026-05-03T08:29:54Z</time></trkpt><trkpt lat="36.949066245933786" lon="14.619287687637858"><ele>264.0</ele><time>2026-05-03T08:29:55Z</time></trkpt><trkpt lat="36.94913247948127" lon="14.619395824938069"><ele>264.0</ele><time>2026-05-03T08:29:56Z</time></trkpt><trkpt lat="36.94920044453066" lon="14.61949236194161"><ele>264.0</ele><time>2026-05-03T08:29:57Z</time></trkpt><trkpt lat="36.949236667403326" lon="14.61959072753762"><ele>264.0</ele><time>2026-05-03T08:29:58Z</time></trkpt><trkpt lat="36.94925470369475" lon="14.619691948656195"><ele>264.5</ele><time>2026-05-03T08:29:59Z</time></trkpt><trkpt lat="36.949315100613084" lon="14.619802871475025"><ele>265.0</ele><time>2026-05-03T08:30:01Z</time></trkpt><trkpt lat="36.94937389791384" lon="14.619841535043017"><ele>265.5</ele><time>2026-05-03T08:30:02Z</time></trkpt><trkpt lat="36.94945864040431" lon="14.619859174700347"><ele>266.0</ele><time>2026-05-03T08:30:03Z</time></trkpt><trkpt lat="36.949535828671834" lon="14.61988912093711"><ele>266.5</ele><time>2026-05-03T08:30:04Z</time></trkpt><trkpt lat="36.94961393364679" lon="14.619917529814145"><ele>267.0</ele><time>2026-05-03T08:30:05Z</time></trkpt><trkpt lat="36.94969192748551" lon="14.61993472144985"><ele>267.0</ele><time>2026-05-03T08:30:06Z</time></trkpt><trkpt lat="36.94977417377627" lon="14.619963198904381"><ele>267.0</ele><time>2026-05-03T08:30:07Z</time></trkpt><trkpt lat="36.94984269060074" lon="14.62002664208799"><ele>267.0</ele><time>2026-05-03T08:30:08Z</time></trkpt><trkpt lat="36.9499264798171" lon="14.620088090935232"><ele>267.0</ele><time>2026-05-03T08:30:09Z</time></trkpt><trkpt lat="36.950027932624245" lon="14.620120976333611"><ele>267.0</ele><time>2026-05-03T08:30:10Z</time></trkpt><trkpt lat="36.95013197535124" lon="14.620126538370569"><ele>267.3333333333333</ele><time>2026-05-03T08:30:11Z</time></trkpt><trkpt lat="36.95021900485602" lon="14.62015549870005"><ele>267.6666666666667</ele><time>2026-05-03T08:30:12Z</time></trkpt><trkpt lat="36.95027902431022" lon="14.620202333837096"><ele>268.0</ele><time>2026-05-03T08:30:13Z</time></trkpt><trkpt lat="36.95033755889317" lon="14.620272238712973"><ele>268.33333333333337</ele><time>2026-05-03T08:30:13.999Z</time></trkpt><trkpt lat="36.95038841930502" lon="14.620336129795144"><ele>268.6666666666667</ele><time>2026-05-03T08:30:14.999Z</time></trkpt><trkpt lat="36.95045486732469" lon="14.620367935857626"><ele>269.0</ele><time>2026-05-03T08:30:15.999Z</time></trkpt><trkpt lat="36.95053083027621" lon="14.62036650676535"><ele>269.0</ele><time>2026-05-03T08:30:16.999Z</time></trkpt><trkpt lat="36.95059632588942" lon="14.620321596070564"><ele>269.0</ele><time>2026-05-03T08:30:17.999Z</time></trkpt><trkpt lat="36.95064742185961" lon="14.620241479456213"><ele>269.0</ele><time>2026-05-03T08:30:18.999Z</time></trkpt><trkpt lat="36.95070716837368" lon="14.62015119108386"><ele>269.0</ele><time>2026-05-03T08:30:19.999Z</time></trkpt><trkpt lat="36.95076364255214" lon="14.620063388911829"><ele>269.0</ele><time>2026-05-03T08:30:20.999Z</time></trkpt><trkpt lat="36.95082540788613" lon="14.620005594121416"><ele>269.0</ele><time>2026-05-03T08:30:21.999Z</time></trkpt><trkpt lat="36.9508621715252" lon="14.619939759111253"><ele>267.2</ele><time>2026-05-03T08:30:22.999Z</time></trkpt><trkpt lat="36.95093483664188" lon="14.619894739378786"><ele>265.4</ele><time>2026-05-03T08:30:23.999Z</time></trkpt><trkpt lat="36.95101037260488" lon="14.6198778501976"><ele>263.6</ele><time>2026-05-03T08:30:24.999Z</time></trkpt><trkpt lat="36.95110602342312" lon="14.619889707069445"><ele>261.8</ele><time>2026-05-03T08:30:26.999Z</time></trkpt><trkpt lat="36.95120550276719" lon="14.619969843594872"><ele>260.0</ele><time>2026-05-03T08:30:28.999Z</time></trkpt><trkpt lat="36.951282320202914" lon="14.61998077269224"><ele>260.0</ele><time>2026-05-03T08:30:29.999Z</time></trkpt><trkpt lat="36.95136966482042" lon="14.620018773619675"><ele>260.0</ele><time>2026-05-03T08:30:30.999Z</time></trkpt><trkpt lat="36.95147325555605" lon="14.620070524558633"><ele>260.0</ele><time>2026-05-03T08:30:31.999Z</time></trkpt><trkpt lat="36.95158712166616" lon="14.620153148245496"><ele>260.0</ele><time>2026-05-03T08:30:32.999Z</time></trkpt><trkpt lat="36.95171888939407" lon="14.620237325623476"><ele>260.33333333333337</ele><time>2026-05-03T08:30:33.999Z</time></trkpt><trkpt lat="36.95186466845548" lon="14.620316666793302"><ele>260.6666666666667</ele><time>2026-05-03T08:30:34.999Z</time></trkpt><trkpt lat="36.951993198761365" lon="14.620408091127931"><ele>261.0</ele><time>2026-05-03T08:30:35.999Z</time></trkpt><trkpt lat="36.95210232682841" lon="14.620527003865014"><ele>261.0</ele><time>2026-05-03T08:30:36.999Z</time></trkpt><trkpt lat="36.95221943559718" lon="14.620665974660536"><ele>261.0</ele><time>2026-05-03T08:30:37.999Z</time></trkpt><trkpt lat="36.9523412290158" lon="14.620809600562335"><ele>261.0</ele><time>2026-05-03T08:30:38.999Z</time></trkpt><trkpt lat="36.952442369791164" lon="14.620931098823167"><ele>261.0</ele><time>2026-05-03T08:30:39.999Z</time></trkpt><trkpt lat="36.952531427827324" lon="14.62103904179513"><ele>261.0</ele><time>2026-05-03T08:30:40.999Z</time></trkpt><trkpt lat="36.9526106002272" lon="14.6211480655124"><ele>261.0</ele><time>2026-05-03T08:30:42Z</time></trkpt><trkpt lat="36.95267091807816" lon="14.621275344402106"><ele>261.0</ele><time>2026-05-03T08:30:43Z</time></trkpt><trkpt lat="36.952711741760716" lon="14.621399102295634"><ele>262.3333333333333</ele><time>2026-05-03T08:30:44Z</time></trkpt><trkpt lat="36.95276876581513" lon="14.62154181458371"><ele>263.66666666666663</ele><time>2026-05-03T08:30:45Z</time></trkpt><trkpt lat="36.95282783870293" lon="14.621689654396718"><ele>265.0</ele><time>2026-05-03T08:30:46Z</time></trkpt><trkpt lat="36.95313115024965" lon="14.621691206923742"><ele>265.0</ele><time>2026-05-03T08:30:47Z</time></trkpt><trkpt lat="36.95320332231477" lon="14.621789902679799"><ele>265.0</ele><time>2026-05-03T08:30:48Z</time></trkpt><trkpt lat="36.953274101059364" lon="14.621852631688434"><ele>265.0</ele><time>2026-05-03T08:30:50Z</time></trkpt><trkpt lat="36.95332973033642" lon="14.621891527118903"><ele>265.0</ele><time>2026-05-03T08:30:52Z</time></trkpt><trkpt lat="36.95336804688938" lon="14.622025835707328"><ele>265.0</ele><time>2026-05-03T08:30:54Z</time></trkpt><trkpt lat="36.95338099311469" lon="14.622114563357803"><ele>265.0</ele><time>2026-05-03T08:30:55Z</time></trkpt><trkpt lat="36.95339940713879" lon="14.62221419859306"><ele>265.25</ele><time>2026-05-03T08:30:56Z</time></trkpt><trkpt lat="36.953438833023775" lon="14.622338157620286"><ele>265.5</ele><time>2026-05-03T08:30:57Z</time></trkpt><trkpt lat="36.95350015323346" lon="14.622503516553339"><ele>265.75</ele><time>2026-05-03T08:30:58Z</time></trkpt><trkpt lat="36.95357298209638" lon="14.622685288353743"><ele>266.0</ele><time>2026-05-03T08:30:59Z</time></trkpt><trkpt lat="36.95366047637229" lon="14.622863883793908"><ele>266.0</ele><time>2026-05-03T08:31:00Z</time></trkpt><trkpt lat="36.95376089778668" lon="14.622992421116036"><ele>266.0</ele><time>2026-05-03T08:31:01Z</time></trkpt><trkpt lat="36.95383274104546" lon="14.623112600334593"><ele>266.0</ele><time>2026-05-03T08:31:02Z</time></trkpt><trkpt lat="36.95386889577178" lon="14.62325001673101"><ele>266.0</ele><time>2026-05-03T08:31:03Z</time></trkpt><trkpt lat="36.95386592824961" lon="14.623415104454875"><ele>266.0</ele><time>2026-05-03T08:31:04Z</time></trkpt><trkpt lat="36.953824439182625" lon="14.623582247127763"><ele>266.0</ele><time>2026-05-03T08:31:05Z</time></trkpt><trkpt lat="36.9537883206055" lon="14.62373755115615"><ele>266.0</ele><time>2026-05-03T08:31:06Z</time></trkpt><trkpt lat="36.95379155103027" lon="14.6238528126524"><ele>266.0</ele><time>2026-05-03T08:31:07Z</time></trkpt><trkpt lat="36.95383490291126" lon="14.623954712043892"><ele>265.40000000000003</ele><time>2026-05-03T08:31:08Z</time></trkpt><trkpt lat="36.95390628506353" lon="14.624042895300594"><ele>264.8</ele><time>2026-05-03T08:31:09Z</time></trkpt><trkpt lat="36.95398974258135" lon="14.624136323969267"><ele>264.20000000000005</ele><time>2026-05-03T08:31:10Z</time></trkpt><trkpt lat="36.95406932720607" lon="14.624219743213374"><ele>263.6</ele><time>2026-05-03T08:31:11Z</time></trkpt><trkpt lat="36.95416818984936" lon="14.624306028629086"><ele>263.0</ele><time>2026-05-03T08:31:12Z</time></trkpt><trkpt lat="36.95428760989465" lon="14.624413105709822"><ele>263.5</ele><time>2026-05-03T08:31:13Z</time></trkpt><trkpt lat="36.95439150659987" lon="14.624546113237342"><ele>264.0</ele><time>2026-05-03T08:31:14Z</time></trkpt><trkpt lat="36.95446756387786" lon="14.624656140330405"><ele>264.5</ele><time>2026-05-03T08:31:15Z</time></trkpt><trkpt lat="36.95452859019805" lon="14.62474310796928"><ele>265.0</ele><time>2026-05-03T08:31:16Z</time></trkpt><trkpt lat="36.95460294941412" lon="14.624828422160268"><ele>265.0</ele><time>2026-05-03T08:31:18Z</time></trkpt><trkpt lat="36.95464397460907" lon="14.624929453554603"><ele>265.0</ele><time>2026-05-03T08:34:34.999Z</time></trkpt><trkpt lat="36.95469559906199" lon="14.62503435169788"><ele>265.0</ele><time>2026-05-03T08:34:36.999Z</time></trkpt><trkpt lat="36.95478024474505" lon="14.625115482476746"><ele>265.0</ele><time>2026-05-03T08:35:10Z</time></trkpt><trkpt lat="36.954825645888405" lon="14.625181949871982"><ele>265.0</ele><time>2026-05-03T08:35:11Z</time></trkpt><trkpt lat="36.95486730373135" lon="14.62526799983522"><ele>265.0</ele><time>2026-05-03T08:35:12Z</time></trkpt><trkpt lat="36.95489405500054" lon="14.625352574842905"><ele>265.0</ele><time>2026-05-03T08:35:13Z</time></trkpt><trkpt lat="36.95490833615116" lon="14.625429474119391"><ele>265.0</ele><time>2026-05-03T08:35:14Z</time></trkpt><trkpt lat="36.95497782656574" lon="14.625516332098481"><ele>265.0</ele><time>2026-05-03T08:35:16Z</time></trkpt><trkpt lat="36.95508246460654" lon="14.62550287540409"><ele>265.0</ele><time>2026-05-03T08:35:18Z</time></trkpt><trkpt lat="36.95514655031013" lon="14.625440932948885"><ele>265.0</ele><time>2026-05-03T08:35:19Z</time></trkpt><trkpt lat="36.95521654236724" lon="14.625337725757552"><ele>263.25</ele><time>2026-05-03T08:35:20Z</time></trkpt><trkpt lat="36.955306212451475" lon="14.625210251521372"><ele>261.5</ele><time>2026-05-03T08:35:21Z</time></trkpt><trkpt lat="36.95540315164561" lon="14.625093373095881"><ele>259.75</ele><time>2026-05-03T08:35:22Z</time></trkpt><trkpt lat="36.95550313128927" lon="14.624985884045454"><ele>258.0</ele><time>2026-05-03T08:35:23Z</time></trkpt><trkpt lat="36.95559230038744" lon="14.624879453254467"><ele>258.0</ele><time>2026-05-03T08:35:24Z</time></trkpt><trkpt lat="36.95568502926897" lon="14.624778608408823"><ele>258.0</ele><time>2026-05-03T08:35:25Z</time></trkpt><trkpt lat="36.95577055638984" lon="14.624697135896515"><ele>258.0</ele><time>2026-05-03T08:35:26Z</time></trkpt><trkpt lat="36.95585644004247" lon="14.62462064996933"><ele>258.0</ele><time>2026-05-03T08:35:27Z</time></trkpt><trkpt lat="36.95593334674908" lon="14.624536774086764"><ele>258.0</ele><time>2026-05-03T08:35:28Z</time></trkpt><trkpt lat="36.956001358915586" lon="14.624461203096837"><ele>256.5</ele><time>2026-05-03T08:35:29Z</time></trkpt><trkpt lat="36.9560673640457" lon="14.624394049414244"><ele>255.0</ele><time>2026-05-03T08:35:30Z</time></trkpt><trkpt lat="36.95613171801337" lon="14.624337912166895"><ele>253.5</ele><time>2026-05-03T08:35:31Z</time></trkpt><trkpt lat="36.95619545712464" lon="14.624272727371903"><ele>252.0</ele><time>2026-05-03T08:35:32Z</time></trkpt><trkpt lat="36.95623196943114" lon="14.624203694334406"><ele>250.5</ele><time>2026-05-03T08:35:33Z</time></trkpt><trkpt lat="36.9562934847375" lon="14.624130210133073"><ele>249.0</ele><time>2026-05-03T08:35:34Z</time></trkpt><trkpt lat="36.956366533241116" lon="14.624060219187733"><ele>249.0</ele><time>2026-05-03T08:35:35Z</time></trkpt><trkpt lat="36.95644103941146" lon="14.62399158263753"><ele>248.99999999999997</ele><time>2026-05-03T08:35:36Z</time></trkpt><trkpt lat="36.956508908177256" lon="14.623922894000176"><ele>248.99999999999997</ele><time>2026-05-03T08:35:37Z</time></trkpt><trkpt lat="36.95658298962613" lon="14.623846457345298"><ele>249.0</ele><time>2026-05-03T08:35:38Z</time></trkpt><trkpt lat="36.956654309387865" lon="14.6237690140214"><ele>249.0</ele><time>2026-05-03T08:35:39Z</time></trkpt><trkpt lat="36.95672854789933" lon="14.623689780767881"><ele>247.83333333333334</ele><time>2026-05-03T08:35:40Z</time></trkpt><trkpt lat="36.95679435498439" lon="14.623617903666204"><ele>246.66666666666669</ele><time>2026-05-03T08:35:41Z</time></trkpt><trkpt lat="36.956861067367186" lon="14.623544924225982"><ele>245.5</ele><time>2026-05-03T08:35:42Z</time></trkpt><trkpt lat="36.95692696904038" lon="14.623473331596513"><ele>244.33333333333334</ele><time>2026-05-03T08:35:43Z</time></trkpt><trkpt lat="36.95697627651826" lon="14.62341971371935"><ele>243.16666666666669</ele><time>2026-05-03T08:35:44Z</time></trkpt><trkpt lat="36.957054290452305" lon="14.623328845939877"><ele>242.0</ele><time>2026-05-03T08:35:46Z</time></trkpt><trkpt lat="36.95711941862641" lon="14.623256109527931"><ele>242.00000000000003</ele><time>2026-05-03T08:35:47Z</time></trkpt><trkpt lat="36.95718913464756" lon="14.623179373886494"><ele>242.0</ele><time>2026-05-03T08:35:48Z</time></trkpt><trkpt lat="36.95724749655655" lon="14.623107900695679"><ele>242.0</ele><time>2026-05-03T08:35:49Z</time></trkpt><trkpt lat="36.95732568060363" lon="14.623022669649124"><ele>242.0</ele><time>2026-05-03T08:35:51Z</time></trkpt><trkpt lat="36.957372206571726" lon="14.622961621506809"><ele>242.00000000000003</ele><time>2026-05-03T08:35:52Z</time></trkpt><trkpt lat="36.95742811013197" lon="14.622887994999777"><ele>242.0</ele><time>2026-05-03T08:35:53Z</time></trkpt><trkpt lat="36.9574927242627" lon="14.622815282572638"><ele>242.2</ele><time>2026-05-03T08:35:54Z</time></trkpt><trkpt lat="36.95755321348775" lon="14.62275736565247"><ele>242.39999999999998</ele><time>2026-05-03T08:35:55Z</time></trkpt><trkpt lat="36.95764582868037" lon="14.622737355613156"><ele>242.60000000000002</ele><time>2026-05-03T08:35:59Z</time></trkpt><trkpt lat="36.957709387661424" lon="14.6227558626386"><ele>242.8</ele><time>2026-05-03T08:36:01Z</time></trkpt><trkpt lat="36.95775428527868" lon="14.622916908487559"><ele>243.0</ele><time>2026-05-03T08:36:03Z</time></trkpt><trkpt lat="36.95779349287489" lon="14.623008983954346"><ele>243.0</ele><time>2026-05-03T08:36:04Z</time></trkpt><trkpt lat="36.95784095070349" lon="14.623124335562773"><ele>243.0</ele><time>2026-05-03T08:36:05Z</time></trkpt><trkpt lat="36.95787563540799" lon="14.623277991380506"><ele>243.0</ele><time>2026-05-03T08:36:06Z</time></trkpt><trkpt lat="36.957938544457775" lon="14.623421717230553"><ele>243.0</ele><time>2026-05-03T08:36:07Z</time></trkpt><trkpt lat="36.95800944561221" lon="14.62358082187257"><ele>243.66666666666669</ele><time>2026-05-03T08:36:08Z</time></trkpt><trkpt lat="36.958083107686484" lon="14.623745882599742"><ele>244.33333333333334</ele><time>2026-05-03T08:36:09Z</time></trkpt><trkpt lat="36.95815867889254" lon="14.623912745813593"><ele>245.0</ele><time>2026-05-03T08:36:10Z</time></trkpt><trkpt lat="36.958239702405855" lon="14.624089433773541"><ele>245.0</ele><time>2026-05-03T08:36:11Z</time></trkpt><trkpt lat="36.95831505820773" lon="14.624252639892392"><ele>245.0</ele><time>2026-05-03T08:36:12Z</time></trkpt><trkpt lat="36.95839386649719" lon="14.624422445346145"><ele>245.0</ele><time>2026-05-03T08:36:13Z</time></trkpt><trkpt lat="36.958468364606894" lon="14.624582963903311"><ele>246.25</ele><time>2026-05-03T08:36:14Z</time></trkpt><trkpt lat="36.958541068529556" lon="14.62473961658312"><ele>247.5</ele><time>2026-05-03T08:36:15Z</time></trkpt><trkpt lat="36.95861291205773" lon="14.624894415393287"><ele>248.75</ele><time>2026-05-03T08:36:16Z</time></trkpt><trkpt lat="36.958684902031266" lon="14.625049654649173"><ele>250.0</ele><time>2026-05-03T08:36:17Z</time></trkpt><trkpt lat="36.958754560511345" lon="14.625200053604157"><ele>250.75</ele><time>2026-05-03T08:36:18Z</time></trkpt><trkpt lat="36.95882666598362" lon="14.625355735899475"><ele>251.5</ele><time>2026-05-03T08:36:19Z</time></trkpt><trkpt lat="36.95889894253053" lon="14.625509256288202"><ele>252.25</ele><time>2026-05-03T08:36:20Z</time></trkpt><trkpt lat="36.9589759002974" lon="14.625665538936266"><ele>253.0</ele><time>2026-05-03T08:36:21Z</time></trkpt><trkpt lat="36.95905287049125" lon="14.62581757341456"><ele>253.0</ele><time>2026-05-03T08:36:22Z</time></trkpt><trkpt lat="36.959128889459876" lon="14.625963559919871"><ele>253.0</ele><time>2026-05-03T08:36:23Z</time></trkpt><trkpt lat="36.95920404314638" lon="14.626107884693837"><ele>253.0</ele><time>2026-05-03T08:36:24Z</time></trkpt><trkpt lat="36.95927796643928" lon="14.626255593441158"><ele>253.0</ele><time>2026-05-03T08:36:25Z</time></trkpt><trkpt lat="36.9593479082565" lon="14.626399691406336"><ele>253.0</ele><time>2026-05-03T08:36:25.999Z</time></trkpt><trkpt lat="36.95943640891224" lon="14.626527665736559"><ele>253.0</ele><time>2026-05-03T08:36:26.999Z</time></trkpt><trkpt lat="36.95953609491264" lon="14.626619551743754"><ele>253.0</ele><time>2026-05-03T08:36:27.999Z</time></trkpt><trkpt lat="36.95961246554471" lon="14.626726771674866"><ele>253.0</ele><time>2026-05-03T08:36:28.999Z</time></trkpt><trkpt lat="36.95969157563446" lon="14.626828508055034"><ele>253.0</ele><time>2026-05-03T08:36:29.999Z</time></trkpt><trkpt lat="36.95976352064201" lon="14.626945025092896"><ele>253.0</ele><time>2026-05-03T08:36:30.999Z</time></trkpt><trkpt lat="36.95983338737796" lon="14.627072504000388"><ele>253.0</ele><time>2026-05-03T08:36:31.999Z</time></trkpt><trkpt lat="36.959897999474215" lon="14.627202838113355"><ele>253.0</ele><time>2026-05-03T08:36:32.999Z</time></trkpt><trkpt lat="36.95995297692946" lon="14.62734135015978"><ele>253.5</ele><time>2026-05-03T08:36:33.999Z</time></trkpt><trkpt lat="36.96000488065462" lon="14.627488998570717"><ele>254.0</ele><time>2026-05-03T08:36:34.999Z</time></trkpt><trkpt lat="36.960070532843815" lon="14.627628082741138"><ele>254.5</ele><time>2026-05-03T08:36:35.999Z</time></trkpt><trkpt lat="36.96011968685499" lon="14.627773259358818"><ele>255.0</ele><time>2026-05-03T08:36:36.999Z</time></trkpt><trkpt lat="36.96018759640593" lon="14.627913446340054"><ele>254.0</ele><time>2026-05-03T08:36:37.999Z</time></trkpt><trkpt lat="36.960280635067384" lon="14.628046140120974"><ele>253.0</ele><time>2026-05-03T08:36:38.999Z</time></trkpt><trkpt lat="36.9603866855392" lon="14.628172883721083"><ele>252.0</ele><time>2026-05-03T08:36:39.999Z</time></trkpt><trkpt lat="36.96049382951584" lon="14.628304088640396"><ele>251.0</ele><time>2026-05-03T08:36:40.999Z</time></trkpt><trkpt lat="36.96060108345605" lon="14.62842837153477"><ele>251.0</ele><time>2026-05-03T08:36:41.999Z</time></trkpt><trkpt lat="36.960705176219086" lon="14.62856425238647"><ele>251.0</ele><time>2026-05-03T08:36:42.999Z</time></trkpt><trkpt lat="36.96082014245479" lon="14.62868420184884"><ele>251.0</ele><time>2026-05-03T08:36:43.999Z</time></trkpt><trkpt lat="36.96093594254064" lon="14.628796543108292"><ele>251.0</ele><time>2026-05-03T08:36:44.999Z</time></trkpt><trkpt lat="36.96106094605469" lon="14.628907562120077"><ele>251.66666666666669</ele><time>2026-05-03T08:36:45.999Z</time></trkpt><trkpt lat="36.961191133403595" lon="14.629001106030161"><ele>252.33333333333331</ele><time>2026-05-03T08:36:46.999Z</time></trkpt><trkpt lat="36.9613406595889" lon="14.629120921593533"><ele>253.0</ele><time>2026-05-03T08:36:47.999Z</time></trkpt><trkpt lat="36.96148404126799" lon="14.629228409713189"><ele>253.0</ele><time>2026-05-03T08:36:48.999Z</time></trkpt><trkpt lat="36.9616221191624" lon="14.629337409880085"><ele>253.0</ele><time>2026-05-03T08:36:49.999Z</time></trkpt><trkpt lat="36.96174776947812" lon="14.629465400774967"><ele>253.0</ele><time>2026-05-03T08:36:50.999Z</time></trkpt><trkpt lat="36.9618737785861" lon="14.629573464712958"><ele>253.25</ele><time>2026-05-03T08:36:51.999Z</time></trkpt><trkpt lat="36.96199812513224" lon="14.629685727849278"><ele>253.5</ele><time>2026-05-03T08:36:52.999Z</time></trkpt><trkpt lat="36.962108690052794" lon="14.629796928746808"><ele>253.75</ele><time>2026-05-03T08:36:53.999Z</time></trkpt><trkpt lat="36.96221462838618" lon="14.629906900722506"><ele>254.0</ele><time>2026-05-03T08:36:54.999Z</time></trkpt><trkpt lat="36.96232900609847" lon="14.630026527066923"><ele>254.0</ele><time>2026-05-03T08:36:55.999Z</time></trkpt><trkpt lat="36.96243111924482" lon="14.630143810789349"><ele>254.0</ele><time>2026-05-03T08:36:56.999Z</time></trkpt><trkpt lat="36.96252257318412" lon="14.630270579550206"><ele>254.0</ele><time>2026-05-03T08:36:57.999Z</time></trkpt><trkpt lat="36.96260114108759" lon="14.630409007629481"><ele>254.0</ele><time>2026-05-03T08:36:58.999Z</time></trkpt><trkpt lat="36.962680359272596" lon="14.63056344744601"><ele>254.0</ele><time>2026-05-03T08:37:00Z</time></trkpt><trkpt lat="36.962761830508384" lon="14.630732583700109"><ele>254.0</ele><time>2026-05-03T08:37:01Z</time></trkpt><trkpt lat="36.96284027535815" lon="14.6309043786749"><ele>254.0</ele><time>2026-05-03T08:37:02Z</time></trkpt><trkpt lat="36.96291959416723" lon="14.631075970920877"><ele>256.33333333333337</ele><time>2026-05-03T08:37:03Z</time></trkpt><trkpt lat="36.96299775352226" lon="14.631245564388484"><ele>258.6666666666667</ele><time>2026-05-03T08:37:04Z</time></trkpt><trkpt lat="36.963071513278344" lon="14.631407251146761"><ele>261.0</ele><time>2026-05-03T08:37:05Z</time></trkpt><trkpt lat="36.963146608571094" lon="14.63157199647234"><ele>261.0</ele><time>2026-05-03T08:37:06Z</time></trkpt><trkpt lat="36.963221127689" lon="14.631739044394125"><ele>261.0</ele><time>2026-05-03T08:37:07Z</time></trkpt><trkpt lat="36.963295012254136" lon="14.63190540587166"><ele>261.0</ele><time>2026-05-03T08:37:08Z</time></trkpt><trkpt lat="36.96335962198754" lon="14.632053919465479"><ele>261.0</ele><time>2026-05-03T08:37:09Z</time></trkpt><trkpt lat="36.96342538395739" lon="14.632205081780162"><ele>260.5</ele><time>2026-05-03T08:37:10Z</time></trkpt><trkpt lat="36.96349699264679" lon="14.63236800689459"><ele>260.0</ele><time>2026-05-03T08:37:11Z</time></trkpt><trkpt lat="36.96355786879026" lon="14.63250803224722"><ele>259.5</ele><time>2026-05-03T08:37:12Z</time></trkpt><trkpt lat="36.963635234053314" lon="14.63262651014534"><ele>259.0</ele><time>2026-05-03T08:37:13Z</time></trkpt><trkpt lat="36.96369681482856" lon="14.6327711889855"><ele>260.75</ele><time>2026-05-03T08:37:14Z</time></trkpt><trkpt lat="36.963757082602925" lon="14.632933453448699"><ele>262.5</ele><time>2026-05-03T08:37:15Z</time></trkpt><trkpt lat="36.96380811133256" lon="14.63310511443033"><ele>264.25</ele><time>2026-05-03T08:37:16Z</time></trkpt><trkpt lat="36.963846652406815" lon="14.63326842097573"><ele>266.0</ele><time>2026-05-03T08:37:17Z</time></trkpt><trkpt lat="36.96389090872245" lon="14.633440447041837"><ele>266.0</ele><time>2026-05-03T08:37:18Z</time></trkpt><trkpt lat="36.96390608217434" lon="14.63359935011635"><ele>266.0</ele><time>2026-05-03T08:37:19Z</time></trkpt><trkpt lat="36.96394661261592" lon="14.633750577728408"><ele>266.0</ele><time>2026-05-03T08:37:20Z</time></trkpt><trkpt lat="36.9639889415411" lon="14.633883263675214"><ele>266.0</ele><time>2026-05-03T08:37:21Z</time></trkpt><trkpt lat="36.96401920656276" lon="14.634042272246072"><ele>267.5</ele><time>2026-05-03T08:37:22Z</time></trkpt><trkpt lat="36.9640396558759" lon="14.634216172402336"><ele>269.0</ele><time>2026-05-03T08:37:23Z</time></trkpt><trkpt lat="36.96405771831471" lon="14.634399715283081"><ele>270.5</ele><time>2026-05-03T08:37:24Z</time></trkpt><trkpt lat="36.964076740725204" lon="14.634593013021892"><ele>272.0</ele><time>2026-05-03T08:37:25Z</time></trkpt><trkpt lat="36.96409555815235" lon="14.634784118939882"><ele>272.6666666666667</ele><time>2026-05-03T08:37:26Z</time></trkpt><trkpt lat="36.96411444535526" lon="14.634975541624973"><ele>273.3333333333333</ele><time>2026-05-03T08:37:27Z</time></trkpt><trkpt lat="36.96413289885015" lon="14.635162568679377"><ele>274.0</ele><time>2026-05-03T08:37:28Z</time></trkpt><trkpt lat="36.96415139381888" lon="14.635350016055357"><ele>273.0</ele><time>2026-05-03T08:37:29Z</time></trkpt><trkpt lat="36.96416819645433" lon="14.635529074293697"><ele>272.0</ele><time>2026-05-03T08:37:30Z</time></trkpt><trkpt lat="36.96418556472411" lon="14.635715563905396"><ele>271.0</ele><time>2026-05-03T08:37:31Z</time></trkpt><trkpt lat="36.96420320889506" lon="14.635886567836133"><ele>270.0</ele><time>2026-05-03T08:37:32Z</time></trkpt><trkpt lat="36.964223691319695" lon="14.636068497311514"><ele>270.75</ele><time>2026-05-03T08:37:33Z</time></trkpt><trkpt lat="36.96424406297726" lon="14.636239188519692"><ele>271.5</ele><time>2026-05-03T08:37:34Z</time></trkpt><trkpt lat="36.9642679529414" lon="14.636392906847382"><ele>272.25</ele><time>2026-05-03T08:37:35Z</time></trkpt><trkpt lat="36.96430739042374" lon="14.636548018175368"><ele>273.0</ele><time>2026-05-03T08:37:36Z</time></trkpt><trkpt lat="36.964379083775896" lon="14.636703131892599"><ele>273.0</ele><time>2026-05-03T08:37:37Z</time></trkpt><trkpt lat="36.96442688692288" lon="14.636888579551925"><ele>273.0</ele><time>2026-05-03T08:37:38Z</time></trkpt><trkpt lat="36.964488818753466" lon="14.637062902882908"><ele>273.0</ele><time>2026-05-03T08:37:39Z</time></trkpt><trkpt lat="36.964547507722116" lon="14.637227923295276"><ele>274.75</ele><time>2026-05-03T08:37:40Z</time></trkpt><trkpt lat="36.96460370281478" lon="14.637383976894137"><ele>276.5</ele><time>2026-05-03T08:37:41Z</time></trkpt><trkpt lat="36.96466046776997" lon="14.637541613034854"><ele>278.25</ele><time>2026-05-03T08:37:42Z</time></trkpt><trkpt lat="36.9647154757514" lon="14.637697137660458"><ele>280.0</ele><time>2026-05-03T08:37:43Z</time></trkpt><trkpt lat="36.964769462638785" lon="14.637856305904826"><ele>279.75</ele><time>2026-05-03T08:37:44Z</time></trkpt><trkpt lat="36.9648218376977" lon="14.638008703269078"><ele>279.5</ele><time>2026-05-03T08:37:45Z</time></trkpt><trkpt lat="36.96488186270432" lon="14.638165677644178"><ele>279.25</ele><time>2026-05-03T08:37:46Z</time></trkpt><trkpt lat="36.96495656949169" lon="14.638325834820717"><ele>279.0</ele><time>2026-05-03T08:37:47Z</time></trkpt><trkpt lat="36.965044673301946" lon="14.638479790754387"><ele>279.5</ele><time>2026-05-03T08:37:48Z</time></trkpt><trkpt lat="36.96512812366694" lon="14.638641835544206"><ele>280.0</ele><time>2026-05-03T08:37:49Z</time></trkpt><trkpt lat="36.965208919066356" lon="14.638788772700655"><ele>280.5</ele><time>2026-05-03T08:37:50Z</time></trkpt><trkpt lat="36.965248525816044" lon="14.638941833932225"><ele>281.0</ele><time>2026-05-03T08:37:51Z</time></trkpt><trkpt lat="36.96528160274134" lon="14.639087192592434"><ele>281.0</ele><time>2026-05-03T08:37:52Z</time></trkpt><trkpt lat="36.96532593229516" lon="14.639227392853753"><ele>281.0</ele><time>2026-05-03T08:37:53Z</time></trkpt><trkpt lat="36.965376733712674" lon="14.639336392346236"><ele>281.0</ele><time>2026-05-03T08:37:54Z</time></trkpt><trkpt lat="36.965438129984605" lon="14.639429411114055"><ele>281.0</ele><time>2026-05-03T08:37:55Z</time></trkpt><trkpt lat="36.96554216538635" lon="14.639436797487292"><ele>281.0</ele><time>2026-05-03T08:37:56Z</time></trkpt><trkpt lat="36.965662020031345" lon="14.639437505793039"><ele>281.0</ele><time>2026-05-03T08:37:57Z</time></trkpt><trkpt lat="36.965797375661964" lon="14.639425739880298"><ele>281.0</ele><time>2026-05-03T08:37:58Z</time></trkpt><trkpt lat="36.96592897549384" lon="14.639416121335588"><ele>281.0</ele><time>2026-05-03T08:37:59Z</time></trkpt><trkpt lat="36.96604414092503" lon="14.639421255895591"><ele>281.0</ele><time>2026-05-03T08:38:00Z</time></trkpt><trkpt lat="36.96614674316172" lon="14.639467575387021"><ele>281.0</ele><time>2026-05-03T08:38:01Z</time></trkpt><trkpt lat="36.966245035876014" lon="14.639496164738"><ele>281.0</ele><time>2026-05-03T08:38:02Z</time></trkpt><trkpt lat="36.966342456585075" lon="14.639508858514203"><ele>281.0</ele><time>2026-05-03T08:38:03Z</time></trkpt><trkpt lat="36.96641982532317" lon="14.639542033431335"><ele>281.0</ele><time>2026-05-03T08:38:04Z</time></trkpt><trkpt lat="36.966478901454835" lon="14.639414167366192"><ele>281.0</ele><time>2026-05-03T08:38:05Z</time></trkpt><trkpt lat="36.9665648664404" lon="14.639341522147822"><ele>281.0</ele><time>2026-05-03T08:38:06Z</time></trkpt><trkpt lat="36.96663401641655" lon="14.639215914850135"><ele>281.0</ele><time>2026-05-03T08:38:07Z</time></trkpt><trkpt lat="36.966712133454784" lon="14.639105287078927"><ele>281.0</ele><time>2026-05-03T08:38:08Z</time></trkpt><trkpt lat="36.96682155486606" lon="14.63902022647978"><ele>281.0</ele><time>2026-05-03T08:38:09Z</time></trkpt><trkpt lat="36.96693957850316" lon="14.638916218813572"><ele>280.5</ele><time>2026-05-03T08:38:10Z</time></trkpt><trkpt lat="36.967074546758276" lon="14.638844140224917"><ele>280.0</ele><time>2026-05-03T08:38:11Z</time></trkpt><trkpt lat="36.967204123522514" lon="14.638775393718817"><ele>279.5</ele><time>2026-05-03T08:38:12Z</time></trkpt><trkpt lat="36.96732539110376" lon="14.638708029620677"><ele>279.0</ele><time>2026-05-03T08:38:13Z</time></trkpt><trkpt lat="36.967424330972754" lon="14.63864360683867"><ele>278.0</ele><time>2026-05-03T08:38:14Z</time></trkpt><trkpt lat="36.96750616907019" lon="14.638577359135892"><ele>277.0</ele><time>2026-05-03T08:38:15Z</time></trkpt><trkpt lat="36.96758091639751" lon="14.638509977300986"><ele>276.0</ele><time>2026-05-03T08:38:16Z</time></trkpt><trkpt lat="36.96766855498873" lon="14.63846691698015"><ele>275.0</ele><time>2026-05-03T08:38:17Z</time></trkpt><trkpt lat="36.96775248209916" lon="14.63842018532661"><ele>274.0</ele><time>2026-05-03T08:38:18Z</time></trkpt><trkpt lat="36.96784964877684" lon="14.638398589350714"><ele>273.2</ele><time>2026-05-03T08:38:19Z</time></trkpt><trkpt lat="36.96795345426838" lon="14.638376957398993"><ele>272.4</ele><time>2026-05-03T08:38:20Z</time></trkpt><trkpt lat="36.96804585365278" lon="14.638332412088854"><ele>271.6</ele><time>2026-05-03T08:38:21Z</time></trkpt><trkpt lat="36.968128270119706" lon="14.638324904485335"><ele>270.8</ele><time>2026-05-03T08:38:22Z</time></trkpt><trkpt lat="36.9681953030866" lon="14.638337974002814"><ele>270.0</ele><time>2026-05-03T08:38:23Z</time></trkpt><trkpt lat="36.968302303754285" lon="14.638337974003544"><ele>270.0</ele><time>2026-05-03T08:38:25Z</time></trkpt><trkpt lat="36.96829932354698" lon="14.638093442276869"><ele>270.0</ele><time>2026-05-03T08:38:27Z</time></trkpt><trkpt lat="36.96843642142709" lon="14.638089715693178"><ele>270.0</ele><time>2026-05-03T08:38:30Z</time></trkpt><trkpt lat="36.96851324812135" lon="14.63811296317562"><ele>270.0</ele><time>2026-05-03T08:38:31Z</time></trkpt><trkpt lat="36.96858080298591" lon="14.638131228214045"><ele>269.5</ele><time>2026-05-03T08:38:31.999Z</time></trkpt><trkpt lat="36.96864789745814" lon="14.638138826284646"><ele>269.0</ele><time>2026-05-03T08:38:32.999Z</time></trkpt><trkpt lat="36.968679764259825" lon="14.638494641303296"><ele>268.5</ele><time>2026-05-03T08:38:33.999Z</time></trkpt><trkpt lat="36.96875116316029" lon="14.63851158334618"><ele>268.0</ele><time>2026-05-03T08:38:34.999Z</time></trkpt><trkpt lat="36.96881618568956" lon="14.638526663229648"><ele>268.0</ele><time>2026-05-03T08:38:35.999Z</time></trkpt><trkpt lat="36.9688994545876" lon="14.638545974778308"><ele>268.0</ele><time>2026-05-03T08:38:36.999Z</time></trkpt><trkpt lat="36.96900866205298" lon="14.638568982934125"><ele>268.0</ele><time>2026-05-03T08:38:37.999Z</time></trkpt><trkpt lat="36.969116752069716" lon="14.638590132445566"><ele>268.0</ele><time>2026-05-03T08:38:38.999Z</time></trkpt><trkpt lat="36.969220235663165" lon="14.63860290492867"><ele>268.0</ele><time>2026-05-03T08:38:39.999Z</time></trkpt><trkpt lat="36.96929798371405" lon="14.638610220257645"><ele>266.0</ele><time>2026-05-03T08:38:40.999Z</time></trkpt><trkpt lat="36.96942421121966" lon="14.638090427374244"><ele>264.0</ele><time>2026-05-03T08:38:43.999Z</time></trkpt><trkpt lat="36.969533992486" lon="14.638025007776776"><ele>264.0</ele><time>2026-05-03T08:38:45.999Z</time></trkpt><trkpt lat="36.96960548364678" lon="14.637935283268595"><ele>264.0</ele><time>2026-05-03T08:38:48.999Z</time></trkpt><trkpt lat="36.96965604235946" lon="14.637876529528167"><ele>264.0</ele><time>2026-05-03T08:38:49.999Z</time></trkpt><trkpt lat="36.969714689412676" lon="14.637811405220924"><ele>264.0</ele><time>2026-05-03T08:38:50.999Z</time></trkpt><trkpt lat="36.96977139058681" lon="14.637749394957366"><ele>264.0</ele><time>2026-05-03T08:38:51.999Z</time></trkpt><trkpt lat="36.969853264987805" lon="14.63765668436896"><ele>264.0</ele><time>2026-05-03T08:38:53.999Z</time></trkpt><trkpt lat="36.969918228429734" lon="14.637589768221204"><ele>264.0</ele><time>2026-05-03T08:38:55.999Z</time></trkpt><trkpt lat="36.97001139686708" lon="14.637560161101934"><ele>264.0</ele><time>2026-05-03T08:38:57.999Z</time></trkpt><trkpt lat="36.9700588085814" lon="14.637498257903864"><ele>264.0</ele><time>2026-05-03T08:38:58.999Z</time></trkpt><trkpt lat="36.970099072098286" lon="14.637437010395413"><ele>264.0</ele><time>2026-05-03T08:38:59.999Z</time></trkpt><trkpt lat="36.97014775611817" lon="14.6373860641157"><ele>264.0</ele><time>2026-05-03T08:39:00.999Z</time></trkpt><trkpt lat="36.97022121383608" lon="14.637281813870676"><ele>264.0</ele><time>2026-05-03T08:39:02.999Z</time></trkpt><trkpt lat="36.97028255133717" lon="14.637163185433522"><ele>263.2</ele><time>2026-05-03T08:39:04.999Z</time></trkpt><trkpt lat="36.97036142717482" lon="14.63706013219896"><ele>262.4</ele><time>2026-05-03T08:39:07Z</time></trkpt><trkpt lat="36.97045071044272" lon="14.636995739361089"><ele>261.6</ele><time>2026-05-03T08:39:09Z</time></trkpt><trkpt lat="36.97054304524317" lon="14.636945830909593"><ele>260.8</ele><time>2026-05-03T08:39:13Z</time></trkpt><trkpt lat="36.970594405111875" lon="14.636889280536392"><ele>260.0</ele><time>2026-05-03T08:39:15Z</time></trkpt><trkpt lat="36.97062593353267" lon="14.636792749035221"><ele>260.0</ele><time>2026-05-03T08:39:17Z</time></trkpt><trkpt lat="36.97066446283232" lon="14.63671617072117"><ele>260.0</ele><time>2026-05-03T08:39:18Z</time></trkpt><trkpt lat="36.97073754639953" lon="14.636688470764936"><ele>260.0</ele><time>2026-05-03T08:39:20Z</time></trkpt><trkpt lat="36.97081570386681" lon="14.636693933513449"><ele>260.0</ele><time>2026-05-03T08:39:22Z</time></trkpt><trkpt lat="36.97091476751967" lon="14.636618084242793"><ele>260.0</ele><time>2026-05-03T08:39:24Z</time></trkpt><trkpt lat="36.971005660965716" lon="14.636510599873207"><ele>259.33333333333337</ele><time>2026-05-03T08:39:26Z</time></trkpt><trkpt lat="36.971060401736146" lon="14.636471123780263"><ele>258.6666666666667</ele><time>2026-05-03T08:39:27Z</time></trkpt><trkpt lat="36.971118623231774" lon="14.636383639488857"><ele>258.0</ele><time>2026-05-03T08:39:29Z</time></trkpt><trkpt lat="36.97117493593632" lon="14.636313415785933"><ele>257.3333333333333</ele><time>2026-05-03T08:39:30Z</time></trkpt><trkpt lat="36.97124240203208" lon="14.636274563974307"><ele>256.66666666666663</ele><time>2026-05-03T08:39:31Z</time></trkpt><trkpt lat="36.97130792151102" lon="14.636249752769281"><ele>256.0</ele><time>2026-05-03T08:39:32Z</time></trkpt><trkpt lat="36.971411488746156" lon="14.636186154105925"><ele>255.99999999999997</ele><time>2026-05-03T08:39:34Z</time></trkpt><trkpt lat="36.97148218125806" lon="14.636174025965603"><ele>256.0</ele><time>2026-05-03T08:39:35Z</time></trkpt><trkpt lat="36.97158624531442" lon="14.636134387849005"><ele>256.0</ele><time>2026-05-03T08:39:36Z</time></trkpt><trkpt lat="36.97164783807084" lon="14.636106935723344"><ele>256.0</ele><time>2026-05-03T08:39:37Z</time></trkpt><trkpt lat="36.97169705260048" lon="14.636038659799734"><ele>255.99999999999997</ele><time>2026-05-03T08:39:40Z</time></trkpt><trkpt lat="36.97173864317275" lon="14.635977217826959"><ele>256.0</ele><time>2026-05-03T08:39:41Z</time></trkpt><trkpt lat="36.971783582207735" lon="14.635913104104873"><ele>255.33333333333331</ele><time>2026-05-03T08:39:42Z</time></trkpt><trkpt lat="36.9718253305728" lon="14.635850683695795"><ele>254.66666666666666</ele><time>2026-05-03T08:39:43Z</time></trkpt><trkpt lat="36.97186764759908" lon="14.635775027521836"><ele>254.0</ele><time>2026-05-03T08:39:44Z</time></trkpt><trkpt lat="36.971913835778196" lon="14.635691681826003"><ele>253.33333333333331</ele><time>2026-05-03T08:39:45Z</time></trkpt><trkpt lat="36.971962813213054" lon="14.635611248928662"><ele>252.66666666666666</ele><time>2026-05-03T08:39:46Z</time></trkpt><trkpt lat="36.972015255025745" lon="14.635533892879357"><ele>252.0</ele><time>2026-05-03T08:39:47Z</time></trkpt><trkpt lat="36.97206413465103" lon="14.63546411384556"><ele>252.0</ele><time>2026-05-03T08:39:48Z</time></trkpt><trkpt lat="36.972116497186555" lon="14.635412571082085"><ele>252.0</ele><time>2026-05-03T08:39:49Z</time></trkpt><trkpt lat="36.97216831648749" lon="14.635366208287124"><ele>252.0</ele><time>2026-05-03T08:39:50Z</time></trkpt><trkpt lat="36.97221300972379" lon="14.635306172130129"><ele>252.0</ele><time>2026-05-03T08:39:51Z</time></trkpt><trkpt lat="36.97226875230057" lon="14.63520403930771"><ele>252.0</ele><time>2026-05-03T08:39:53Z</time></trkpt><trkpt lat="36.972329250679785" lon="14.635100046804958"><ele>252.0</ele><time>2026-05-03T08:39:55Z</time></trkpt><trkpt lat="36.97240313664742" lon="14.634980865236804"><ele>252.0</ele><time>2026-05-03T08:39:57Z</time></trkpt><trkpt lat="36.972488342186814" lon="14.63486588838086"><ele>252.0</ele><time>2026-05-03T08:39:59Z</time></trkpt><trkpt lat="36.97253658435612" lon="14.63480669304116"><ele>252.0</ele><time>2026-05-03T08:40:00Z</time></trkpt><trkpt lat="36.97259215387022" lon="14.634742487019004"><ele>252.0</ele><time>2026-05-03T08:40:01Z</time></trkpt><trkpt lat="36.972651338058455" lon="14.63466931498206"><ele>252.0</ele><time>2026-05-03T08:40:02Z</time></trkpt><trkpt lat="36.972704890997065" lon="14.634588548631779"><ele>252.0</ele><time>2026-05-03T08:40:03Z</time></trkpt><trkpt lat="36.97275177562899" lon="14.634506963307102"><ele>251.5</ele><time>2026-05-03T08:40:04Z</time></trkpt><trkpt lat="36.97279514429364" lon="14.634430701647796"><ele>251.0</ele><time>2026-05-03T08:40:05Z</time></trkpt><trkpt lat="36.972844184116795" lon="14.634361012606597"><ele>250.5</ele><time>2026-05-03T08:40:06Z</time></trkpt><trkpt lat="36.972900212556574" lon="14.634281974081613"><ele>250.0</ele><time>2026-05-03T08:40:07Z</time></trkpt><trkpt lat="36.9729589393764" lon="14.634195825188007"><ele>249.5</ele><time>2026-05-03T08:40:08Z</time></trkpt><trkpt lat="36.97301798463294" lon="14.6341032058753"><ele>249.0</ele><time>2026-05-03T08:40:09Z</time></trkpt><trkpt lat="36.97307843377177" lon="14.633996230918424"><ele>249.0</ele><time>2026-05-03T08:40:10Z</time></trkpt><trkpt lat="36.97316076216264" lon="14.633877652882331"><ele>249.0</ele><time>2026-05-03T08:40:11Z</time></trkpt><trkpt lat="36.97325695485029" lon="14.633730029651124"><ele>249.0</ele><time>2026-05-03T08:40:12Z</time></trkpt><trkpt lat="36.97337337423384" lon="14.633581437936396"><ele>249.0</ele><time>2026-05-03T08:40:13Z</time></trkpt><trkpt lat="36.97349386674155" lon="14.633413313269292"><ele>247.66666666666669</ele><time>2026-05-03T08:40:14Z</time></trkpt><trkpt lat="36.973620141465716" lon="14.633236128225033"><ele>246.33333333333334</ele><time>2026-05-03T08:40:15Z</time></trkpt><trkpt lat="36.973752753835285" lon="14.633047771450048"><ele>245.0</ele><time>2026-05-03T08:40:16Z</time></trkpt><trkpt lat="36.973891928741864" lon="14.632850093510287"><ele>244.66666666666669</ele><time>2026-05-03T08:40:17Z</time></trkpt><trkpt lat="36.97402495279267" lon="14.632661152059587"><ele>244.33333333333331</ele><time>2026-05-03T08:40:18Z</time></trkpt><trkpt lat="36.97414917736589" lon="14.63248612710335"><ele>244.0</ele><time>2026-05-03T08:40:19Z</time></trkpt><trkpt lat="36.974272214222495" lon="14.632312722944452"><ele>242.66666666666666</ele><time>2026-05-03T08:40:20Z</time></trkpt><trkpt lat="36.97441533274797" lon="14.632113100599318"><ele>241.33333333333331</ele><time>2026-05-03T08:40:21Z</time></trkpt><trkpt lat="36.97456524139451" lon="14.631904179198372"><ele>240.0</ele><time>2026-05-03T08:40:22Z</time></trkpt><trkpt lat="36.97472410151913" lon="14.631683117997401"><ele>238.5</ele><time>2026-05-03T08:40:23Z</time></trkpt><trkpt lat="36.97488964198146" lon="14.631453447609287"><ele>237.0</ele><time>2026-05-03T08:40:24Z</time></trkpt><trkpt lat="36.97505894817012" lon="14.631218552647494"><ele>236.5</ele><time>2026-05-03T08:40:25Z</time></trkpt><trkpt lat="36.975236718908285" lon="14.630971914008603"><ele>236.0</ele><time>2026-05-03T08:40:26Z</time></trkpt><trkpt lat="36.97541039683008" lon="14.630731270857716"><ele>236.0</ele><time>2026-05-03T08:40:27Z</time></trkpt><trkpt lat="36.975560621091375" lon="14.630517399261237"><ele>236.0</ele><time>2026-05-03T08:40:28Z</time></trkpt><trkpt lat="36.975686404637685" lon="14.630305963823522"><ele>236.0</ele><time>2026-05-03T08:40:29Z</time></trkpt><trkpt lat="36.97581454900835" lon="14.630134545453874"><ele>235.0</ele><time>2026-05-03T08:40:30Z</time></trkpt><trkpt lat="36.97591980060516" lon="14.629987729534207"><ele>234.0</ele><time>2026-05-03T08:40:31Z</time></trkpt><trkpt lat="36.976008118287076" lon="14.629859943948118"><ele>233.0</ele><time>2026-05-03T08:40:32Z</time></trkpt><trkpt lat="36.97607991577822" lon="14.629755677304244"><ele>232.0</ele><time>2026-05-03T08:40:33Z</time></trkpt><trkpt lat="36.97614913375637" lon="14.629658505413024"><ele>231.99999999999997</ele><time>2026-05-03T08:40:34Z</time></trkpt><trkpt lat="36.976210844694116" lon="14.62957655173263"><ele>232.0</ele><time>2026-05-03T08:40:35Z</time></trkpt><trkpt lat="36.976265578223874" lon="14.629499049048867"><ele>232.0</ele><time>2026-05-03T08:40:36Z</time></trkpt><trkpt lat="36.976315607715904" lon="14.629423436422917"><ele>232.0</ele><time>2026-05-03T08:40:37Z</time></trkpt><trkpt lat="36.97635893822262" lon="14.629363988457555"><ele>231.99999999999997</ele><time>2026-05-03T08:40:38Z</time></trkpt><trkpt lat="36.976431103705394" lon="14.629313689159888"><ele>232.0</ele><time>2026-05-03T08:40:39.999Z</time></trkpt><trkpt lat="36.97649316291726" lon="14.629408506853276"><ele>232.0</ele><time>2026-05-03T08:40:41.999Z</time></trkpt><trkpt lat="36.976573141829896" lon="14.62952873304908"><ele>232.0</ele><time>2026-05-03T08:40:43.999Z</time></trkpt><trkpt lat="36.97661826276847" lon="14.629593881455415"><ele>232.0</ele><time>2026-05-03T08:40:44.999Z</time></trkpt><trkpt lat="36.976677214562656" lon="14.629675011793559"><ele>232.0</ele><time>2026-05-03T08:40:45.999Z</time></trkpt><trkpt lat="36.9767626922243" lon="14.629791507791431"><ele>232.0</ele><time>2026-05-03T08:40:46.999Z</time></trkpt><trkpt lat="36.976881527692214" lon="14.62990271762023"><ele>231.66666666666666</ele><time>2026-05-03T08:40:47.999Z</time></trkpt><trkpt lat="36.976983046981275" lon="14.630038812498864"><ele>231.33333333333331</ele><time>2026-05-03T08:40:48.999Z</time></trkpt><trkpt lat="36.977089464988985" lon="14.630183506991614"><ele>231.0</ele><time>2026-05-03T08:40:49.999Z</time></trkpt><trkpt lat="36.97720074286928" lon="14.630332045163945"><ele>231.0</ele><time>2026-05-03T08:40:50.999Z</time></trkpt><trkpt lat="36.977292338211605" lon="14.630498730971844"><ele>231.0</ele><time>2026-05-03T08:40:51.999Z</time></trkpt><trkpt lat="36.97739985728024" lon="14.630644400088103"><ele>231.0</ele><time>2026-05-03T08:40:52.999Z</time></trkpt><trkpt lat="36.977504631223" lon="14.630787240249349"><ele>231.25</ele><time>2026-05-03T08:40:53.999Z</time></trkpt><trkpt lat="36.97760313037786" lon="14.63092138136757"><ele>231.5</ele><time>2026-05-03T08:40:54.999Z</time></trkpt><trkpt lat="36.97770386715349" lon="14.631053089421126"><ele>231.75</ele><time>2026-05-03T08:40:55.999Z</time></trkpt><trkpt lat="36.97781429699439" lon="14.631169693293954"><ele>232.0</ele><time>2026-05-03T08:40:56.999Z</time></trkpt><trkpt lat="36.97790852277784" lon="14.631293998614511"><ele>232.0</ele><time>2026-05-03T08:40:57.999Z</time></trkpt><trkpt lat="36.97798673671729" lon="14.631423992500835"><ele>232.0</ele><time>2026-05-03T08:40:58.999Z</time></trkpt><trkpt lat="36.978074236328865" lon="14.631534981043849"><ele>232.0</ele><time>2026-05-03T08:40:59.999Z</time></trkpt><trkpt lat="36.97815404239777" lon="14.63163125624394"><ele>232.0</ele><time>2026-05-03T08:41:00.999Z</time></trkpt><trkpt lat="36.978227934412345" lon="14.631717214483523"><ele>232.0</ele><time>2026-05-03T08:41:01.999Z</time></trkpt><trkpt lat="36.97829692813305" lon="14.631796424351664"><ele>232.0</ele><time>2026-05-03T08:41:02.999Z</time></trkpt><trkpt lat="36.97836283441405" lon="14.63187033302718"><ele>232.0</ele><time>2026-05-03T08:41:03.999Z</time></trkpt><trkpt lat="36.978450728349806" lon="14.631941434623375"><ele>232.0</ele><time>2026-05-03T08:41:04.999Z</time></trkpt><trkpt lat="36.978536194705725" lon="14.632049530121433"><ele>232.0</ele><time>2026-05-03T08:41:05.999Z</time></trkpt><trkpt lat="36.978624374749366" lon="14.632199035757306"><ele>231.25</ele><time>2026-05-03T08:41:06.999Z</time></trkpt><trkpt lat="36.978715938738794" lon="14.632317815176533"><ele>230.5</ele><time>2026-05-03T08:41:07.999Z</time></trkpt><trkpt lat="36.97881290728928" lon="14.632443605523148"><ele>229.75</ele><time>2026-05-03T08:41:08.999Z</time></trkpt><trkpt lat="36.9789237496404" lon="14.632587263619262"><ele>229.0</ele><time>2026-05-03T08:41:09.999Z</time></trkpt><trkpt lat="36.97903770586474" lon="14.632731733083412"><ele>229.66666666666666</ele><time>2026-05-03T08:41:10.999Z</time></trkpt><trkpt lat="36.97915779019295" lon="14.63288130367505"><ele>230.33333333333331</ele><time>2026-05-03T08:41:12Z</time></trkpt><trkpt lat="36.97927455611822" lon="14.633024753176443"><ele>231.0</ele><time>2026-05-03T08:41:13Z</time></trkpt><trkpt lat="36.97938295155953" lon="14.633159388038592"><ele>231.25</ele><time>2026-05-03T08:41:14Z</time></trkpt><trkpt lat="36.97948294830634" lon="14.633284537892544"><ele>231.5</ele><time>2026-05-03T08:41:15Z</time></trkpt><trkpt lat="36.97956938051806" lon="14.633394923466058"><ele>231.75</ele><time>2026-05-03T08:41:16Z</time></trkpt><trkpt lat="36.97965316684541" lon="14.63350669387576"><ele>232.0</ele><time>2026-05-03T08:41:17Z</time></trkpt><trkpt lat="36.979729004116436" lon="14.633609104075992"><ele>232.25</ele><time>2026-05-03T08:41:18Z</time></trkpt><trkpt lat="36.97980346433977" lon="14.633708966946235"><ele>232.5</ele><time>2026-05-03T08:41:19Z</time></trkpt><trkpt lat="36.97988584624357" lon="14.633817182088583"><ele>232.75</ele><time>2026-05-03T08:41:20Z</time></trkpt><trkpt lat="36.97997507505589" lon="14.63392954610727"><ele>233.0</ele><time>2026-05-03T08:41:21Z</time></trkpt><trkpt lat="36.98007214021474" lon="14.634051778069125"><ele>233.33333333333334</ele><time>2026-05-03T08:41:22Z</time></trkpt><trkpt lat="36.98020381592665" lon="14.634173717808691"><ele>233.66666666666669</ele><time>2026-05-03T08:41:23Z</time></trkpt><trkpt lat="36.980314696644704" lon="14.634320407648568"><ele>234.0</ele><time>2026-05-03T08:41:24Z</time></trkpt><trkpt lat="36.980430274920586" lon="14.6344620085836"><ele>234.0</ele><time>2026-05-03T08:41:25Z</time></trkpt><trkpt lat="36.98055611069602" lon="14.634611260937074"><ele>234.0</ele><time>2026-05-03T08:41:26Z</time></trkpt><trkpt lat="36.980658059675775" lon="14.634781782607224"><ele>234.0</ele><time>2026-05-03T08:41:27Z</time></trkpt><trkpt lat="36.98080267168729" lon="14.634932620877786"><ele>234.0</ele><time>2026-05-03T08:41:28Z</time></trkpt><trkpt lat="36.98092906420804" lon="14.635116605565877"><ele>234.0</ele><time>2026-05-03T08:41:29Z</time></trkpt><trkpt lat="36.98106670546717" lon="14.635267768632099"><ele>234.0</ele><time>2026-05-03T08:41:30Z</time></trkpt><trkpt lat="36.98118839978007" lon="14.635431555301196"><ele>234.33333333333331</ele><time>2026-05-03T08:41:31Z</time></trkpt><trkpt lat="36.981315479372505" lon="14.635592930775628"><ele>234.66666666666666</ele><time>2026-05-03T08:41:32Z</time></trkpt><trkpt lat="36.98144348834856" lon="14.63575252506208"><ele>235.0</ele><time>2026-05-03T08:41:33Z</time></trkpt><trkpt lat="36.98156635952902" lon="14.635897293636072"><ele>235.0</ele><time>2026-05-03T08:41:34Z</time></trkpt><trkpt lat="36.98169240858702" lon="14.636030008484207"><ele>235.0</ele><time>2026-05-03T08:41:35Z</time></trkpt><trkpt lat="36.98180760229999" lon="14.636161979289636"><ele>235.0</ele><time>2026-05-03T08:41:36Z</time></trkpt><trkpt lat="36.981918133692226" lon="14.636288989241793"><ele>236.0</ele><time>2026-05-03T08:41:37Z</time></trkpt><trkpt lat="36.98204122566805" lon="14.636420425611243"><ele>237.0</ele><time>2026-05-03T08:41:38Z</time></trkpt><trkpt lat="36.98215300504029" lon="14.636538850181985"><ele>238.0</ele><time>2026-05-03T08:41:39Z</time></trkpt><trkpt lat="36.982263181898816" lon="14.636664617087888"><ele>238.0</ele><time>2026-05-03T08:41:40Z</time></trkpt><trkpt lat="36.98237178329968" lon="14.63678529978131"><ele>238.0</ele><time>2026-05-03T08:41:41Z</time></trkpt><trkpt lat="36.98248193030975" lon="14.636907318913645"><ele>238.0</ele><time>2026-05-03T08:41:42Z</time></trkpt><trkpt lat="36.98258260510176" lon="14.637026655547412"><ele>238.0</ele><time>2026-05-03T08:41:43Z</time></trkpt><trkpt lat="36.98269263442311" lon="14.637145806859843"><ele>238.75</ele><time>2026-05-03T08:41:44Z</time></trkpt><trkpt lat="36.98278675319958" lon="14.637278994346685"><ele>239.5</ele><time>2026-05-03T08:41:45Z</time></trkpt><trkpt lat="36.982899808549945" lon="14.637386093682402"><ele>240.25</ele><time>2026-05-03T08:41:46Z</time></trkpt><trkpt lat="36.98300471216506" lon="14.637515060911069"><ele>241.0</ele><time>2026-05-03T08:41:47Z</time></trkpt><trkpt lat="36.98311348088163" lon="14.637633560136614"><ele>241.0</ele><time>2026-05-03T08:41:48Z</time></trkpt><trkpt lat="36.983229519072395" lon="14.637750449145809"><ele>241.0</ele><time>2026-05-03T08:41:49Z</time></trkpt><trkpt lat="36.98334306016924" lon="14.637867389525464"><ele>241.0</ele><time>2026-05-03T08:41:50Z</time></trkpt><trkpt lat="36.98345246771621" lon="14.637995741425728"><ele>241.0</ele><time>2026-05-03T08:41:51Z</time></trkpt><trkpt lat="36.98356486763909" lon="14.638131315122644"><ele>241.25</ele><time>2026-05-03T08:41:52Z</time></trkpt><trkpt lat="36.983667600906735" lon="14.638248683131845"><ele>241.5</ele><time>2026-05-03T08:41:53Z</time></trkpt><trkpt lat="36.98377110621098" lon="14.638380684834816"><ele>241.75</ele><time>2026-05-03T08:41:54Z</time></trkpt><trkpt lat="36.98386930452401" lon="14.638512078852912"><ele>242.0</ele><time>2026-05-03T08:41:55Z</time></trkpt><trkpt lat="36.98397853148204" lon="14.638645429580725"><ele>242.0</ele><time>2026-05-03T08:41:56Z</time></trkpt><trkpt lat="36.9840704843132" lon="14.638807063230031"><ele>242.0</ele><time>2026-05-03T08:41:57Z</time></trkpt><trkpt lat="36.984178900887734" lon="14.638946483344103"><ele>242.0</ele><time>2026-05-03T08:41:58Z</time></trkpt><trkpt lat="36.98425669833573" lon="14.639107389596283"><ele>242.5</ele><time>2026-05-03T08:41:59Z</time></trkpt><trkpt lat="36.984358679862126" lon="14.639246056373498"><ele>243.0</ele><time>2026-05-03T08:42:00Z</time></trkpt><trkpt lat="36.984440455565206" lon="14.639388048873837"><ele>243.5</ele><time>2026-05-03T08:42:01Z</time></trkpt><trkpt lat="36.984515514648464" lon="14.639543300185737"><ele>244.0</ele><time>2026-05-03T08:42:02Z</time></trkpt><trkpt lat="36.98459676906024" lon="14.639678345295877"><ele>244.39999999999998</ele><time>2026-05-03T08:42:03Z</time></trkpt><trkpt lat="36.98465594852577" lon="14.639775792530694"><ele>244.79999999999998</ele><time>2026-05-03T08:42:04Z</time></trkpt><trkpt lat="36.98471691074908" lon="14.639856708255712"><ele>245.20000000000002</ele><time>2026-05-03T08:42:05Z</time></trkpt><trkpt lat="36.984789556398944" lon="14.63997586759604"><ele>245.60000000000002</ele><time>2026-05-03T08:42:06Z</time></trkpt><trkpt lat="36.98486304926928" lon="14.64011681286603"><ele>246.0</ele><time>2026-05-03T08:42:07Z</time></trkpt><trkpt lat="36.98494979381863" lon="14.64025964993193"><ele>247.0</ele><time>2026-05-03T08:42:08Z</time></trkpt><trkpt lat="36.985029088622355" lon="14.640387799561939"><ele>248.0</ele><time>2026-05-03T08:42:09Z</time></trkpt><trkpt lat="36.98510946684641" lon="14.640488121327001"><ele>249.0</ele><time>2026-05-03T08:42:10Z</time></trkpt><trkpt lat="36.98518950052604" lon="14.640613670134833"><ele>250.0</ele><time>2026-05-03T08:42:11Z</time></trkpt><trkpt lat="36.98527375934485" lon="14.640744282749145"><ele>250.0</ele><time>2026-05-03T08:42:12Z</time></trkpt><trkpt lat="36.985365484046454" lon="14.640877834594987"><ele>250.0</ele><time>2026-05-03T08:42:13Z</time></trkpt><trkpt lat="36.985459951339266" lon="14.641008682952313"><ele>250.0</ele><time>2026-05-03T08:42:14Z</time></trkpt><trkpt lat="36.98556320628481" lon="14.641132881116283"><ele>250.0</ele><time>2026-05-03T08:42:15Z</time></trkpt><trkpt lat="36.98567526990509" lon="14.64124931846475"><ele>250.2</ele><time>2026-05-03T08:42:16Z</time></trkpt><trkpt lat="36.98579080233338" lon="14.64136101426203"><ele>250.4</ele><time>2026-05-03T08:42:17Z</time></trkpt><trkpt lat="36.98589352862823" lon="14.641455886141543"><ele>250.60000000000002</ele><time>2026-05-03T08:42:18Z</time></trkpt><trkpt lat="36.98597291401382" lon="14.641530834897951"><ele>250.8</ele><time>2026-05-03T08:42:19Z</time></trkpt><trkpt lat="36.98601543094491" lon="14.641609841697203"><ele>251.0</ele><time>2026-05-03T08:42:21Z</time></trkpt><trkpt lat="36.985933063767696" lon="14.64170888348722"><ele>251.00000000000003</ele><time>2026-05-03T08:42:23Z</time></trkpt><trkpt lat="36.98586528087225" lon="14.641777292059242"><ele>251.0</ele><time>2026-05-03T08:42:24Z</time></trkpt><trkpt lat="36.985802847614316" lon="14.641863021763934"><ele>251.0</ele><time>2026-05-03T08:42:25Z</time></trkpt><trkpt lat="36.985786988682264" lon="14.641970597280523"><ele>251.0</ele><time>2026-05-03T08:42:27Z</time></trkpt><trkpt lat="36.98584628152725" lon="14.6420030704591"><ele>251.00000000000003</ele><time>2026-05-03T08:42:29Z</time></trkpt><trkpt lat="36.98592057441874" lon="14.64210036813405"><ele>251.0</ele><time>2026-05-03T08:42:31Z</time></trkpt><trkpt lat="36.98593584886326" lon="14.642203919513634"><ele>251.50000000000003</ele><time>2026-05-03T08:42:33Z</time></trkpt><trkpt lat="36.985989718385696" lon="14.642320743121433"><ele>252.0</ele><time>2026-05-03T08:42:35Z</time></trkpt><trkpt lat="36.986017250884466" lon="14.642451114784341"><ele>252.5</ele><time>2026-05-03T08:42:37Z</time></trkpt><trkpt lat="36.986053327339555" lon="14.642523739799179"><ele>253.0</ele><time>2026-05-03T08:42:38Z</time></trkpt><trkpt lat="36.98610014604715" lon="14.642603906379065"><ele>253.50000000000003</ele><time>2026-05-03T08:42:39Z</time></trkpt><trkpt lat="36.986146966724235" lon="14.642681226609179"><ele>254.0</ele><time>2026-05-03T08:42:40Z</time></trkpt><trkpt lat="36.98617984683802" lon="14.642765534959372"><ele>254.0</ele><time>2026-05-03T08:42:41Z</time></trkpt><trkpt lat="36.986212097797036" lon="14.642835364128993"><ele>254.0</ele><time>2026-05-03T08:42:42Z</time></trkpt><trkpt lat="36.98624764365247" lon="14.642900836998997"><ele>254.0</ele><time>2026-05-03T08:42:43Z</time></trkpt><trkpt lat="36.9862884550682" lon="14.64296113113674"><ele>254.0</ele><time>2026-05-03T08:42:44Z</time></trkpt><trkpt lat="36.98634738744434" lon="14.643018949359915"><ele>254.0</ele><time>2026-05-03T08:42:45Z</time></trkpt><trkpt lat="36.98640153732779" lon="14.643079793666043"><ele>254.0</ele><time>2026-05-03T08:42:45.999Z</time></trkpt><trkpt lat="36.98645021466202" lon="14.643134849012384"><ele>254.0</ele><time>2026-05-03T08:42:46.999Z</time></trkpt><trkpt lat="36.98648312230854" lon="14.643221070974096"><ele>254.0</ele><time>2026-05-03T08:42:47.999Z</time></trkpt><trkpt lat="36.986516824601104" lon="14.643311243848572"><ele>254.0</ele><time>2026-05-03T08:42:48.999Z</time></trkpt><trkpt lat="36.98654097202253" lon="14.64339237063986"><ele>254.0</ele><time>2026-05-03T08:42:49.999Z</time></trkpt><trkpt lat="36.986577278762915" lon="14.643477509670518"><ele>254.0</ele><time>2026-05-03T08:42:50.999Z</time></trkpt><trkpt lat="36.98660789785049" lon="14.643559424726286"><ele>254.0</ele><time>2026-05-03T08:42:51.999Z</time></trkpt><trkpt lat="36.9866484183999" lon="14.643633617076132"><ele>254.0</ele><time>2026-05-03T08:42:52.999Z</time></trkpt><trkpt lat="36.98669125520614" lon="14.643692643072804"><ele>254.0</ele><time>2026-05-03T08:42:53.999Z</time></trkpt><trkpt lat="36.98674917136085" lon="14.643748258386411"><ele>254.83333333333334</ele><time>2026-05-03T08:42:56.999Z</time></trkpt><trkpt lat="36.986791721654704" lon="14.643827532841877"><ele>255.66666666666669</ele><time>2026-05-03T08:42:57.999Z</time></trkpt><trkpt lat="36.98682057583331" lon="14.643899030111198"><ele>256.5</ele><time>2026-05-03T08:42:58.999Z</time></trkpt><trkpt lat="36.98687374032737" lon="14.643993460881163"><ele>257.3333333333333</ele><time>2026-05-03T08:43:00.999Z</time></trkpt><trkpt lat="36.986948102515214" lon="14.64408013577105"><ele>258.16666666666663</ele><time>2026-05-03T08:43:02.999Z</time></trkpt><trkpt lat="36.98703094865113" lon="14.644101866743933"><ele>259.0</ele><time>2026-05-03T08:43:04.999Z</time></trkpt><trkpt lat="36.98711122936544" lon="14.644173174360954"><ele>259.0</ele><time>2026-05-03T08:43:06.999Z</time></trkpt><trkpt lat="36.98719556889695" lon="14.64419351523687"><ele>259.0</ele><time>2026-05-03T08:43:08.999Z</time></trkpt><trkpt lat="36.9873011529476" lon="14.644293835564712"><ele>259.0</ele><time>2026-05-03T08:43:10.999Z</time></trkpt><trkpt lat="36.98735696231613" lon="14.64433295323164"><ele>259.0</ele><time>2026-05-03T08:43:11.999Z</time></trkpt><trkpt lat="36.987416199240634" lon="14.644364252319356"><ele>259.0</ele><time>2026-05-03T08:43:12.999Z</time></trkpt><trkpt lat="36.98747014808776" lon="14.644409132832893"><ele>259.0</ele><time>2026-05-03T08:43:13.999Z</time></trkpt><trkpt lat="36.987515746973116" lon="14.644467503128148"><ele>259.8</ele><time>2026-05-03T08:43:14.999Z</time></trkpt><trkpt lat="36.98757135150387" lon="14.644555250542064"><ele>260.59999999999997</ele><time>2026-05-03T08:43:16.999Z</time></trkpt><trkpt lat="36.98764250140166" lon="14.644636063052477"><ele>261.4</ele><time>2026-05-03T08:43:19Z</time></trkpt><trkpt lat="36.98770773586149" lon="14.644691544840825"><ele>262.2</ele><time>2026-05-03T08:43:20Z</time></trkpt><trkpt lat="36.987799845095466" lon="14.64478029884486"><ele>263.0</ele><time>2026-05-03T08:43:22Z</time></trkpt><trkpt lat="36.98792170953599" lon="14.644880318317808"><ele>263.0</ele><time>2026-05-03T08:43:24Z</time></trkpt><trkpt lat="36.98798228607568" lon="14.644936548965186"><ele>263.0</ele><time>2026-05-03T08:43:25Z</time></trkpt><trkpt lat="36.988042756118126" lon="14.644990632458661"><ele>263.0</ele><time>2026-05-03T08:43:26Z</time></trkpt><trkpt lat="36.98808618175624" lon="14.645053469219953"><ele>263.0</ele><time>2026-05-03T08:43:27Z</time></trkpt><trkpt lat="36.98814435261415" lon="14.645148304017036"><ele>263.0</ele><time>2026-05-03T08:43:29Z</time></trkpt><trkpt lat="36.98820336545463" lon="14.645216950147482"><ele>263.0</ele><time>2026-05-03T08:43:31Z</time></trkpt><trkpt lat="36.988261002449825" lon="14.645295264317012"><ele>263.2</ele><time>2026-05-03T08:43:33Z</time></trkpt><trkpt lat="36.988339304274845" lon="14.645400639053538"><ele>263.4</ele><time>2026-05-03T08:43:35Z</time></trkpt><trkpt lat="36.98837155491293" lon="14.645534381989812"><ele>263.59999999999997</ele><time>2026-05-03T08:43:37Z</time></trkpt><trkpt lat="36.98843295253943" lon="14.645601307089194"><ele>263.8</ele><time>2026-05-03T08:43:39Z</time></trkpt><trkpt lat="36.98850465712489" lon="14.645661869852955"><ele>264.0</ele><time>2026-05-03T08:43:41Z</time></trkpt><trkpt lat="36.988588442917376" lon="14.645750671299197"><ele>264.4</ele><time>2026-05-03T08:43:43Z</time></trkpt><trkpt lat="36.988676126087334" lon="14.645842543776293"><ele>264.79999999999995</ele><time>2026-05-03T08:43:45Z</time></trkpt><trkpt lat="36.98877734362776" lon="14.64589729388678"><ele>265.20000000000005</ele><time>2026-05-03T08:43:47Z</time></trkpt><trkpt lat="36.98884386409667" lon="14.645902673879327"><ele>265.6</ele><time>2026-05-03T08:43:48Z</time></trkpt><trkpt lat="36.98893457979931" lon="14.645961875548808"><ele>266.0</ele><time>2026-05-03T08:43:50Z</time></trkpt><trkpt lat="36.98899197660639" lon="14.646021225994685"><ele>266.0</ele><time>2026-05-03T08:43:52Z</time></trkpt><trkpt lat="36.98908354942186" lon="14.646082429076074"><ele>266.0</ele><time>2026-05-03T08:43:54Z</time></trkpt><trkpt lat="36.989171866538385" lon="14.646171635795385"><ele>266.0</ele><time>2026-05-03T08:43:56Z</time></trkpt><trkpt lat="36.98934740511634" lon="14.646069785515165"><ele>266.0</ele><time>2026-05-03T08:43:57Z</time></trkpt><trkpt lat="36.98941549901728" lon="14.646167829450265"><ele>267.0</ele><time>2026-05-03T08:43:59Z</time></trkpt><trkpt lat="36.989460345451974" lon="14.646231692559766"><ele>268.0</ele><time>2026-05-03T08:44:02Z</time></trkpt><trkpt lat="36.98952078297065" lon="14.64631775790087"><ele>269.0</ele><time>2026-05-03T08:44:03Z</time></trkpt><trkpt lat="36.98959389629544" lon="14.646419717243855"><ele>270.0</ele><time>2026-05-03T08:44:05Z</time></trkpt><trkpt lat="36.989675961538886" lon="14.64653099532186"><ele>271.0</ele><time>2026-05-03T08:44:07Z</time></trkpt><trkpt lat="36.98974786181089" lon="14.646622967159567"><ele>271.0</ele><time>2026-05-03T08:44:09Z</time></trkpt><trkpt lat="36.98979467518614" lon="14.64668083375191"><ele>271.0</ele><time>2026-05-03T08:44:10Z</time></trkpt><trkpt lat="36.98988144296748" lon="14.646785849107442"><ele>271.0</ele><time>2026-05-03T08:44:12Z</time></trkpt><trkpt lat="36.98993408436074" lon="14.64684902893663"><ele>271.0</ele><time>2026-05-03T08:44:14Z</time></trkpt><trkpt lat="36.98993189809108" lon="14.64699593225451"><ele>271.0</ele><time>2026-05-03T08:44:16Z</time></trkpt><trkpt lat="36.99000882418516" lon="14.647038891221042"><ele>272.2</ele><time>2026-05-03T08:44:18Z</time></trkpt><trkpt lat="36.990090877921936" lon="14.647091273131393"><ele>273.40000000000003</ele><time>2026-05-03T08:44:20Z</time></trkpt><trkpt lat="36.99016201477522" lon="14.647204575505446"><ele>274.6</ele><time>2026-05-03T08:44:29Z</time></trkpt><trkpt lat="36.99020973736229" lon="14.647295338365529"><ele>275.8</ele><time>2026-05-03T08:44:31Z</time></trkpt><trkpt lat="36.99027548906575" lon="14.647351529352743"><ele>277.0</ele><time>2026-05-03T08:44:33Z</time></trkpt><trkpt lat="36.99033046847574" lon="14.64742387448231"><ele>277.0</ele><time>2026-05-03T08:44:36Z</time></trkpt><trkpt lat="36.99036986821387" lon="14.647498908888636"><ele>277.0</ele><time>2026-05-03T08:44:44Z</time></trkpt><trkpt lat="36.99043102466141" lon="14.647595698446834"><ele>277.0</ele><time>2026-05-03T08:44:46Z</time></trkpt><trkpt lat="36.99047024457104" lon="14.64769931286694"><ele>277.0</ele><time>2026-05-03T08:44:48Z</time></trkpt><trkpt lat="36.990537920852375" lon="14.647811534286593"><ele>277.0</ele><time>2026-05-03T08:44:50Z</time></trkpt><trkpt lat="36.990623145002075" lon="14.647782967254225"><ele>276.8333333333333</ele><time>2026-05-03T08:44:50.999Z</time></trkpt><trkpt lat="36.99068143549429" lon="14.647865651434548"><ele>276.66666666666663</ele><time>2026-05-03T08:44:53.999Z</time></trkpt><trkpt lat="36.99072416554764" lon="14.647926263358288"><ele>276.5</ele><time>2026-05-03T08:44:55.999Z</time></trkpt><trkpt lat="36.990769364952364" lon="14.647990377987439"><ele>276.3333333333333</ele><time>2026-05-03T08:44:58.999Z</time></trkpt><trkpt lat="36.99083122715502" lon="14.648078696264369"><ele>276.1666666666667</ele><time>2026-05-03T08:45:01.999Z</time></trkpt><trkpt lat="36.990876255908816" lon="14.648143050368601"><ele>276.0</ele><time>2026-05-03T08:45:04.999Z</time></trkpt><trkpt lat="36.99072799536436" lon="14.648335509504303"><ele>276.0</ele><time>2026-05-03T08:45:20.999Z</time></trkpt><trkpt lat="36.9907555303542" lon="14.648427466003069"><ele>276.0</ele><time>2026-05-03T08:45:41Z</time></trkpt><trkpt lat="36.990788543828316" lon="14.64851213638448"><ele>276.0</ele><time>2026-05-03T08:45:43Z</time></trkpt><trkpt lat="36.99082618622227" lon="14.648622977630172"><ele>276.0</ele><time>2026-05-03T08:45:49Z</time></trkpt><trkpt lat="36.990838133830984" lon="14.648726423144861"><ele>276.0</ele><time>2026-05-03T08:45:50Z</time></trkpt><trkpt lat="36.99085953304447" lon="14.648852238658188"><ele>276.0</ele><time>2026-05-03T08:45:51Z</time></trkpt><trkpt lat="36.99086331222957" lon="14.648931723738931"><ele>276.8</ele><time>2026-05-03T08:45:53Z</time></trkpt><trkpt lat="36.99082589924734" lon="14.64902332448115"><ele>277.6</ele><time>2026-05-03T08:45:55Z</time></trkpt><trkpt lat="36.990833105436856" lon="14.649142404295887"><ele>278.4</ele><time>2026-05-03T08:45:57Z</time></trkpt><trkpt lat="36.99085219560682" lon="14.649223780132036"><ele>279.2</ele><time>2026-05-03T08:45:58Z</time></trkpt><trkpt lat="36.99088056538659" lon="14.649317600400353"><ele>280.0</ele><time>2026-05-03T08:46:00Z</time></trkpt><trkpt lat="36.99092333040838" lon="14.649464084704812"><ele>280.5</ele><time>2026-05-03T08:46:02Z</time></trkpt><trkpt lat="36.9909336631401" lon="14.649554711705902"><ele>281.0</ele><time>2026-05-03T08:46:03Z</time></trkpt><trkpt lat="36.99095355686227" lon="14.649670302441002"><ele>281.5</ele><time>2026-05-03T08:46:04Z</time></trkpt><trkpt lat="36.9909636983215" lon="14.649768156301656"><ele>282.0</ele><time>2026-05-03T08:46:05Z</time></trkpt><trkpt lat="36.99097306316863" lon="14.649852342672174"><ele>282.5</ele><time>2026-05-03T08:46:06Z</time></trkpt><trkpt lat="36.99099570188161" lon="14.650014125000261"><ele>283.0</ele><time>2026-05-03T08:46:08Z</time></trkpt><trkpt lat="36.991018689848964" lon="14.65010691057739"><ele>283.0</ele><time>2026-05-03T08:46:09Z</time></trkpt><trkpt lat="36.99105020480407" lon="14.650233422253391"><ele>283.0</ele><time>2026-05-03T08:46:11Z</time></trkpt><trkpt lat="36.991012556150345" lon="14.65033726373268"><ele>283.0</ele><time>2026-05-03T08:46:13Z</time></trkpt><trkpt lat="36.99097092337693" lon="14.650409548588796"><ele>283.0</ele><time>2026-05-03T08:46:20Z</time></trkpt><trkpt lat="36.9909566413827" lon="14.650522604212735"><ele>283.0</ele><time>2026-05-03T08:46:22Z</time></trkpt><trkpt lat="36.99100517422072" lon="14.650642757647255"><ele>283.16666666666663</ele><time>2026-05-03T08:46:24Z</time></trkpt><trkpt lat="36.99105499798307" lon="14.650740890303695"><ele>283.3333333333333</ele><time>2026-05-03T08:46:26Z</time></trkpt><trkpt lat="36.9911179867122" lon="14.650768713800593"><ele>283.5</ele><time>2026-05-03T08:46:28Z</time></trkpt><trkpt lat="36.99119064117244" lon="14.650826674906565"><ele>283.6666666666667</ele><time>2026-05-03T08:46:31Z</time></trkpt><trkpt lat="36.99126979876543" lon="14.650933276614301"><ele>283.83333333333337</ele><time>2026-05-03T08:46:33Z</time></trkpt><trkpt lat="36.99131313806409" lon="14.650995085786644"><ele>284.0</ele><time>2026-05-03T08:46:34Z</time></trkpt><trkpt lat="36.99135924447834" lon="14.651055241637703"><ele>284.0</ele><time>2026-05-03T08:46:35Z</time></trkpt><trkpt lat="36.99140772285895" lon="14.651121258956955"><ele>284.0</ele><time>2026-05-03T08:46:36Z</time></trkpt><trkpt lat="36.991453908798775" lon="14.651214452512669"><ele>284.0</ele><time>2026-05-03T08:46:37Z</time></trkpt><trkpt lat="36.99149993392338" lon="14.651300541192013"><ele>284.0</ele><time>2026-05-03T08:46:38Z</time></trkpt><trkpt lat="36.99155046118123" lon="14.651394675368527"><ele>284.0</ele><time>2026-05-03T08:46:39Z</time></trkpt><trkpt lat="36.99158289916191" lon="14.651494464271027"><ele>284.0</ele><time>2026-05-03T08:46:40Z</time></trkpt><trkpt lat="36.9915980847062" lon="14.651582991615513"><ele>284.33333333333337</ele><time>2026-05-03T08:46:41Z</time></trkpt><trkpt lat="36.9916067339483" lon="14.651686000792358"><ele>284.6666666666667</ele><time>2026-05-03T08:46:42Z</time></trkpt><trkpt lat="36.9916412645113" lon="14.65178570526605"><ele>285.0</ele><time>2026-05-03T08:46:43Z</time></trkpt><trkpt lat="36.99169146510802" lon="14.651862067353402"><ele>285.3333333333333</ele><time>2026-05-03T08:46:44Z</time></trkpt><trkpt lat="36.991756671586835" lon="14.651925084988376"><ele>285.66666666666663</ele><time>2026-05-03T08:46:45Z</time></trkpt><trkpt lat="36.99182596058753" lon="14.651993300147394"><ele>286.0</ele><time>2026-05-03T08:46:46Z</time></trkpt><trkpt lat="36.991886341477965" lon="14.652061886337579"><ele>286.6</ele><time>2026-05-03T08:46:47Z</time></trkpt><trkpt lat="36.99196620742426" lon="14.65213593126723"><ele>287.20000000000005</ele><time>2026-05-03T08:46:48Z</time></trkpt><trkpt lat="36.992039772345116" lon="14.652203054594464"><ele>287.79999999999995</ele><time>2026-05-03T08:46:49Z</time></trkpt><trkpt lat="36.99210996395573" lon="14.652269931848899"><ele>288.4</ele><time>2026-05-03T08:46:50Z</time></trkpt><trkpt lat="36.99218042599009" lon="14.652346466002964"><ele>289.0</ele><time>2026-05-03T08:46:51Z</time></trkpt><trkpt lat="36.992237679180086" lon="14.652419086529571"><ele>289.0</ele><time>2026-05-03T08:46:52Z</time></trkpt><trkpt lat="36.99229813887394" lon="14.652488481011227"><ele>289.0</ele><time>2026-05-03T08:46:53Z</time></trkpt><trkpt lat="36.992372360573476" lon="14.652549059177518"><ele>289.0</ele><time>2026-05-03T08:46:53.999Z</time></trkpt><trkpt lat="36.992445347167795" lon="14.652611141665078"><ele>289.0</ele><time>2026-05-03T08:46:54.999Z</time></trkpt><trkpt lat="36.99251647696218" lon="14.65267374018493"><ele>289.0</ele><time>2026-05-03T08:46:55.999Z</time></trkpt><trkpt lat="36.99257329612795" lon="14.652739986624514"><ele>289.0</ele><time>2026-05-03T08:46:56.999Z</time></trkpt><trkpt lat="36.99261924231016" lon="14.652807326880968"><ele>289.66666666666663</ele><time>2026-05-03T08:46:57.999Z</time></trkpt><trkpt lat="36.992649619570855" lon="14.652879943233533"><ele>290.3333333333333</ele><time>2026-05-03T08:46:58.999Z</time></trkpt><trkpt lat="36.992627242779506" lon="14.652965896826679"><ele>291.0</ele><time>2026-05-03T08:46:59.999Z</time></trkpt><trkpt lat="36.99259389415605" lon="14.65307365172661"><ele>291.6666666666667</ele><time>2026-05-03T08:47:00.999Z</time></trkpt><trkpt lat="36.99257789250983" lon="14.653158381966072"><ele>292.33333333333337</ele><time>2026-05-03T08:47:01.999Z</time></trkpt><trkpt lat="36.99262663462906" lon="14.653209454124791"><ele>293.0</ele><time>2026-05-03T08:47:03.999Z</time></trkpt><trkpt lat="36.992658079472854" lon="14.653324517012296"><ele>293.0</ele><time>2026-05-03T08:47:06.999Z</time></trkpt><trkpt lat="36.992617320489934" lon="14.653464991250571"><ele>293.0</ele><time>2026-05-03T08:47:08.999Z</time></trkpt><trkpt lat="36.99263693368109" lon="14.653607607789043"><ele>293.0</ele><time>2026-05-03T08:47:10.999Z</time></trkpt><trkpt lat="36.992648602568785" lon="14.653694773334701"><ele>293.0</ele><time>2026-05-03T08:47:11.999Z</time></trkpt><trkpt lat="36.99270743785184" lon="14.653811734339541"><ele>293.0</ele><time>2026-05-03T08:47:13.999Z</time></trkpt><trkpt lat="36.99275642966277" lon="14.653862518625008"><ele>293.1666666666667</ele><time>2026-05-03T08:47:14.999Z</time></trkpt><trkpt lat="36.992809667153" lon="14.65391885366961"><ele>293.33333333333337</ele><time>2026-05-03T08:47:15.999Z</time></trkpt><trkpt lat="36.9928914513842" lon="14.65402414623339"><ele>293.5</ele><time>2026-05-03T08:47:17.999Z</time></trkpt><trkpt lat="36.99299800821289" lon="14.654091233406803"><ele>293.6666666666667</ele><time>2026-05-03T08:47:19.999Z</time></trkpt><trkpt lat="36.99303974052842" lon="14.654157056209499"><ele>293.8333333333333</ele><time>2026-05-03T08:47:20.999Z</time></trkpt><trkpt lat="36.993078541088664" lon="14.65423409788471"><ele>294.0</ele><time>2026-05-03T08:47:21.999Z</time></trkpt><trkpt lat="36.99311452711758" lon="14.654318572071665"><ele>294.0</ele><time>2026-05-03T08:47:22.999Z</time></trkpt><trkpt lat="36.993158183744605" lon="14.654415080032187"><ele>294.0</ele><time>2026-05-03T08:47:23.999Z</time></trkpt><trkpt lat="36.99319130905076" lon="14.654497971797097"><ele>294.0</ele><time>2026-05-03T08:47:24.999Z</time></trkpt><trkpt lat="36.993233082961744" lon="14.6546119623794"><ele>294.0</ele><time>2026-05-03T08:47:26.999Z</time></trkpt><trkpt lat="36.99323791246174" lon="14.654736919163405"><ele>294.0</ele><time>2026-05-03T08:47:29Z</time></trkpt><trkpt lat="36.99324871293983" lon="14.654832517922047"><ele>294.0</ele><time>2026-05-03T08:47:30Z</time></trkpt><trkpt lat="36.99325411258151" lon="14.654941297090712"><ele>294.3333333333333</ele><time>2026-05-03T08:47:31Z</time></trkpt><trkpt lat="36.99324433273768" lon="14.655036590981354"><ele>294.6666666666667</ele><time>2026-05-03T08:47:32Z</time></trkpt><trkpt lat="36.99323240718275" lon="14.655125314244941"><ele>295.0</ele><time>2026-05-03T08:47:33Z</time></trkpt><trkpt lat="36.993239142127315" lon="14.655218433593728"><ele>295.33333333333337</ele><time>2026-05-03T08:47:34Z</time></trkpt><trkpt lat="36.99330073715187" lon="14.65530729308743"><ele>295.6666666666667</ele><time>2026-05-03T08:47:36Z</time></trkpt><trkpt lat="36.99334590766523" lon="14.65537908525873"><ele>296.0</ele><time>2026-05-03T08:47:37Z</time></trkpt><trkpt lat="36.99338791124391" lon="14.655462753210704"><ele>297.0</ele><time>2026-05-03T08:47:38Z</time></trkpt><trkpt lat="36.993426763938565" lon="14.65553273581405"><ele>298.0</ele><time>2026-05-03T08:47:40Z</time></trkpt><trkpt lat="36.99349067872415" lon="14.655569884622896"><ele>299.0</ele><time>2026-05-03T08:47:42Z</time></trkpt><trkpt lat="36.993529621847514" lon="14.65564225872811"><ele>300.0</ele><time>2026-05-03T08:47:50Z</time></trkpt><trkpt lat="36.993581848640666" lon="14.655711270903014"><ele>301.0</ele><time>2026-05-03T08:47:53Z</time></trkpt><trkpt lat="36.99362905788506" lon="14.655781488300095"><ele>302.0</ele><time>2026-05-03T08:47:58Z</time></trkpt><trkpt lat="36.99379887509822" lon="14.655931030905071"><ele>302.0</ele><time>2026-05-03T08:48:33Z</time></trkpt><trkpt lat="36.99387290582458" lon="14.656010146302743"><ele>302.0</ele><time>2026-05-03T08:49:16.999Z</time></trkpt><trkpt lat="36.993913670812766" lon="14.65616254782015"><ele>302.0</ele><time>2026-05-03T08:49:18.999Z</time></trkpt><trkpt lat="36.993922857110164" lon="14.656253947554228"><ele>302.0</ele><time>2026-05-03T08:49:19.999Z</time></trkpt><trkpt lat="36.9939752235284" lon="14.656346598153045"><ele>302.0</ele><time>2026-05-03T08:49:21.999Z</time></trkpt><trkpt lat="36.99404630153605" lon="14.656356329907787"><ele>302.0</ele><time>2026-05-03T08:49:23.999Z</time></trkpt><trkpt lat="36.99411072537431" lon="14.656393472973773"><ele>302.0</ele><time>2026-05-03T08:49:25.999Z</time></trkpt><trkpt lat="36.994164454406146" lon="14.65650882872681"><ele>302.0</ele><time>2026-05-03T08:49:27.999Z</time></trkpt><trkpt lat="36.99418454927244" lon="14.656585337733581"><ele>302.0</ele><time>2026-05-03T08:49:28.999Z</time></trkpt><trkpt lat="36.99420197705479" lon="14.656669032632033"><ele>302.0</ele><time>2026-05-03T08:49:29.999Z</time></trkpt><trkpt lat="36.994215843441836" lon="14.656769574454254"><ele>302.0</ele><time>2026-05-03T08:49:30.999Z</time></trkpt><trkpt lat="36.99424030263206" lon="14.6568458130556"><ele>302.6</ele><time>2026-05-03T08:49:31.999Z</time></trkpt><trkpt lat="36.994351202957745" lon="14.65691491447027"><ele>303.2</ele><time>2026-05-03T08:49:34Z</time></trkpt><trkpt lat="36.99441957061538" lon="14.656955746011892"><ele>303.8</ele><time>2026-05-03T08:49:35Z</time></trkpt><trkpt lat="36.99447917245022" lon="14.657020471587874"><ele>304.4</ele><time>2026-05-03T08:49:36Z</time></trkpt><trkpt lat="36.994530599552185" lon="14.657105952987532"><ele>305.0</ele><time>2026-05-03T08:49:37Z</time></trkpt><trkpt lat="36.994596691265585" lon="14.65718801598952"><ele>305.8</ele><time>2026-05-03T08:49:38Z</time></trkpt><trkpt lat="36.99464491602544" lon="14.657240970582329"><ele>306.6</ele><time>2026-05-03T08:49:39Z</time></trkpt><trkpt lat="36.99474472918406" lon="14.657291148571558"><ele>307.4</ele><time>2026-05-03T08:49:42Z</time></trkpt><trkpt lat="36.99481350534525" lon="14.657352781258114"><ele>308.2</ele><time>2026-05-03T08:49:44Z</time></trkpt><trkpt lat="36.99484398564976" lon="14.657464056350154"><ele>309.0</ele><time>2026-05-03T08:49:47Z</time></trkpt><trkpt lat="36.99486658709701" lon="14.657620710545723"><ele>309.0</ele><time>2026-05-03T08:49:49Z</time></trkpt><trkpt lat="36.9948648365691" lon="14.657721157094322"><ele>309.0</ele><time>2026-05-03T08:49:50Z</time></trkpt><trkpt lat="36.99486217167564" lon="14.657808663210623"><ele>309.0</ele><time>2026-05-03T08:49:51Z</time></trkpt><trkpt lat="36.994882091074686" lon="14.657906734288757"><ele>309.0</ele><time>2026-05-03T08:49:53Z</time></trkpt><trkpt lat="36.99494844866834" lon="14.658054991321235"><ele>309.0</ele><time>2026-05-03T08:49:55Z</time></trkpt><trkpt lat="36.994990912897364" lon="14.658140940889414"><ele>309.0</ele><time>2026-05-03T08:49:56Z</time></trkpt><trkpt lat="36.99502212686928" lon="14.658210572110905"><ele>310.0</ele><time>2026-05-03T08:49:57Z</time></trkpt><trkpt lat="36.99509514691948" lon="14.658365278608345"><ele>311.0</ele><time>2026-05-03T08:49:59Z</time></trkpt><trkpt lat="36.995126283716885" lon="14.658448834647542"><ele>312.0</ele><time>2026-05-03T08:50:00Z</time></trkpt><trkpt lat="36.99514548434774" lon="14.65852469464827"><ele>313.0</ele><time>2026-05-03T08:50:01Z</time></trkpt><trkpt lat="36.995166382830284" lon="14.658649235436396"><ele>314.0</ele><time>2026-05-03T08:50:03Z</time></trkpt><trkpt lat="36.99514781693065" lon="14.658570864211653"><ele>315.0</ele><time>2026-05-03T08:50:11Z</time></trkpt><trkpt lat="36.995140075582796" lon="14.658469768897094"><ele>315.0</ele><time>2026-05-03T08:50:15Z</time></trkpt><trkpt lat="36.99521221309684" lon="14.65851673651398"><ele>315.0</ele><time>2026-05-03T08:50:21Z</time></trkpt><trkpt lat="36.995242436930596" lon="14.6585890268308"><ele>315.0</ele><time>2026-05-03T08:50:24Z</time></trkpt><trkpt lat="36.99528258208068" lon="14.658670574141091"><ele>315.0</ele><time>2026-05-03T08:50:26Z</time></trkpt><trkpt lat="36.995337225880846" lon="14.658791758018452"><ele>315.0</ele><time>2026-05-03T08:50:28Z</time></trkpt><trkpt lat="36.99536984156927" lon="14.658890451050551"><ele>315.0</ele><time>2026-05-03T08:50:30Z</time></trkpt><trkpt lat="36.99541594031668" lon="14.659032067228873"><ele>315.5</ele><time>2026-05-03T08:50:33Z</time></trkpt><trkpt lat="36.99543430237431" lon="14.659131789474275"><ele>316.0</ele><time>2026-05-03T08:50:34Z</time></trkpt><trkpt lat="36.99544832098056" lon="14.659210523965644"><ele>316.5</ele><time>2026-05-03T08:50:36Z</time></trkpt><trkpt lat="36.99550446213219" lon="14.65928116214666"><ele>317.0</ele><time>2026-05-03T08:50:38Z</time></trkpt><trkpt lat="36.99557459757953" lon="14.659361708279327"><ele>317.5</ele><time>2026-05-03T08:50:40Z</time></trkpt><trkpt lat="36.995639447177" lon="14.659438777520851"><ele>318.0</ele><time>2026-05-03T08:50:43Z</time></trkpt><trkpt lat="36.9956902536687" lon="14.659511677039358"><ele>318.3333333333333</ele><time>2026-05-03T08:50:45Z</time></trkpt><trkpt lat="36.995697044338876" lon="14.659596817273467"><ele>318.6666666666667</ele><time>2026-05-03T08:50:47Z</time></trkpt><trkpt lat="36.995732878351504" lon="14.659694461874649"><ele>319.0</ele><time>2026-05-03T08:50:51Z</time></trkpt><trkpt lat="36.99579909495949" lon="14.659804420409483"><ele>319.33333333333337</ele><time>2026-05-03T08:50:54Z</time></trkpt><trkpt lat="36.995857860311176" lon="14.659847524333955"><ele>319.6666666666667</ele><time>2026-05-03T08:50:57Z</time></trkpt><trkpt lat="36.99591859073129" lon="14.659920470719719"><ele>320.0</ele><time>2026-05-03T08:50:59Z</time></trkpt><trkpt lat="36.995957931544666" lon="14.660008891592007"><ele>320.1666666666667</ele><time>2026-05-03T08:51:01Z</time></trkpt><trkpt lat="36.99600050211018" lon="14.660072672847646"><ele>320.33333333333337</ele><time>2026-05-03T08:51:03Z</time></trkpt><trkpt lat="36.99606222890044" lon="14.660135833571406"><ele>320.5</ele><time>2026-05-03T08:51:04.999Z</time></trkpt><trkpt lat="36.996109716734814" lon="14.660239595429687"><ele>320.6666666666667</ele><time>2026-05-03T08:51:06.999Z</time></trkpt><trkpt lat="36.99614376755169" lon="14.66031043174105"><ele>320.8333333333333</ele><time>2026-05-03T08:51:07.999Z</time></trkpt><trkpt lat="36.99618912084622" lon="14.660410272904842"><ele>321.0</ele><time>2026-05-03T08:51:09.999Z</time></trkpt><trkpt lat="36.99624189273343" lon="14.66048863266726"><ele>321.6666666666667</ele><time>2026-05-03T08:51:11.999Z</time></trkpt><trkpt lat="36.9962740485017" lon="14.660599425374704"><ele>322.3333333333333</ele><time>2026-05-03T08:51:13.999Z</time></trkpt><trkpt lat="36.996310805558274" lon="14.660682599090967"><ele>323.0</ele><time>2026-05-03T08:51:15.999Z</time></trkpt><trkpt lat="36.99635110930981" lon="14.660776979713422"><ele>323.66666666666663</ele><time>2026-05-03T08:51:17.999Z</time></trkpt><trkpt lat="36.99639880751634" lon="14.660854699966242"><ele>324.3333333333333</ele><time>2026-05-03T08:51:19.999Z</time></trkpt><trkpt lat="36.99643849448209" lon="14.660941226273938"><ele>325.0</ele><time>2026-05-03T08:51:24.999Z</time></trkpt><trkpt lat="36.99646852755728" lon="14.661015023572926"><ele>325.0</ele><time>2026-05-03T08:51:26.999Z</time></trkpt><trkpt lat="36.99649014047863" lon="14.66110148890352"><ele>325.0</ele><time>2026-05-03T08:51:29.999Z</time></trkpt><trkpt lat="36.99650282544149" lon="14.661184922819867"><ele>325.0</ele><time>2026-05-03T08:51:33.999Z</time></trkpt><trkpt lat="36.99651535316712" lon="14.661286824890558"><ele>325.0</ele><time>2026-05-03T08:51:36.999Z</time></trkpt><trkpt lat="36.996523612928684" lon="14.66138923126361"><ele>325.0</ele><time>2026-05-03T08:51:40Z</time></trkpt><trkpt lat="36.99651677136797" lon="14.661479371541324"><ele>325.0</ele><time>2026-05-03T08:51:46Z</time></trkpt><trkpt lat="36.99650548880623" lon="14.661582418670553"><ele>325.2857142857143</ele><time>2026-05-03T08:51:49Z</time></trkpt><trkpt lat="36.99650356832391" lon="14.661669050996986"><ele>325.5714285714286</ele><time>2026-05-03T08:51:52Z</time></trkpt><trkpt lat="36.99649197170559" lon="14.661783477006532"><ele>325.8571428571429</ele><time>2026-05-03T08:51:56Z</time></trkpt><trkpt lat="36.996519458528326" lon="14.661857543078662"><ele>326.1428571428571</ele><time>2026-05-03T08:51:59Z</time></trkpt><trkpt lat="36.99650960576497" lon="14.661951514795941"><ele>326.42857142857144</ele><time>2026-05-03T08:52:03Z</time></trkpt><trkpt lat="36.996529387329346" lon="14.662026961715222"><ele>326.7142857142857</ele><time>2026-05-03T08:52:06Z</time></trkpt><trkpt lat="36.99653956941633" lon="14.662127155643912"><ele>327.0</ele><time>2026-05-03T08:52:10Z</time></trkpt><trkpt lat="36.99652413063834" lon="14.662235934060789"><ele>327.6666666666667</ele><time>2026-05-03T08:52:13Z</time></trkpt><trkpt lat="36.99653207538014" lon="14.662331557677074"><ele>328.3333333333333</ele><time>2026-05-03T08:52:16Z</time></trkpt><trkpt lat="36.996566803343576" lon="14.66242614252848"><ele>329.0</ele><time>2026-05-03T08:52:19Z</time></trkpt><trkpt lat="36.99658293178137" lon="14.662537536156886"><ele>329.66666666666663</ele><time>2026-05-03T08:52:22Z</time></trkpt><trkpt lat="36.99660029987864" lon="14.662643857885502"><ele>330.3333333333333</ele><time>2026-05-03T08:52:25Z</time></trkpt><trkpt lat="36.996526057125365" lon="14.662727751919947"><ele>331.0</ele><time>2026-05-03T08:52:27Z</time></trkpt><trkpt lat="36.99650339545333" lon="14.662842384646027"><ele>331.8</ele><time>2026-05-03T08:52:29Z</time></trkpt><trkpt lat="36.99649241451558" lon="14.663010834599168"><ele>332.6</ele><time>2026-05-03T08:52:31Z</time></trkpt><trkpt lat="36.996519903286995" lon="14.663116439288716"><ele>333.4</ele><time>2026-05-03T08:52:33Z</time></trkpt><trkpt lat="36.99649506062548" lon="14.663215192563703"><ele>334.2</ele><time>2026-05-03T09:19:52Z</time></trkpt><trkpt lat="36.99650572786936" lon="14.663294669319157"><ele>335.0</ele><time>2026-05-03T09:19:54Z</time></trkpt><trkpt lat="36.99650092221104" lon="14.663417689473405"><ele>335.8</ele><time>2026-05-03T09:20:00Z</time></trkpt><trkpt lat="36.9964743125183" lon="14.663617674479125"><ele>336.6</ele><time>2026-05-03T09:20:02Z</time></trkpt><trkpt lat="36.9964696070426" lon="14.663723776487556"><ele>337.4</ele><time>2026-05-03T09:20:03Z</time></trkpt><trkpt lat="36.996427790065674" lon="14.6638118942686"><ele>338.2</ele><time>2026-05-03T09:20:04Z</time></trkpt><trkpt lat="36.996432609199324" lon="14.663910238850805"><ele>339.0</ele><time>2026-05-03T09:20:06Z</time></trkpt><trkpt lat="36.99638594730006" lon="14.664017005286347"><ele>339.0</ele><time>2026-05-03T09:20:08Z</time></trkpt><trkpt lat="36.99638637734576" lon="14.664123175748438"><ele>339.0</ele><time>2026-05-03T09:20:10Z</time></trkpt><trkpt lat="36.99632820220286" lon="14.66419731543101"><ele>339.0</ele><time>2026-05-03T09:20:12Z</time></trkpt><trkpt lat="36.9962915881082" lon="14.664269398691577"><ele>339.0</ele><time>2026-05-03T09:20:14Z</time></trkpt><trkpt lat="36.99624198037596" lon="14.66434549573759"><ele>339.0</ele><time>2026-05-03T09:20:16Z</time></trkpt><trkpt lat="36.996181309116274" lon="14.664416560302051"><ele>339.0</ele><time>2026-05-03T09:20:18Z</time></trkpt><trkpt lat="36.99610039164187" lon="14.66448043271585"><ele>339.79999999999995</ele><time>2026-05-03T09:20:20Z</time></trkpt><trkpt lat="36.99605175727887" lon="14.664553087887992"><ele>340.59999999999997</ele><time>2026-05-03T09:20:22Z</time></trkpt><trkpt lat="36.995984126918955" lon="14.664638037834422"><ele>341.4</ele><time>2026-05-03T09:20:24Z</time></trkpt><trkpt lat="36.99594885558932" lon="14.664773321672815"><ele>342.2</ele><time>2026-05-03T09:20:26Z</time></trkpt><trkpt lat="36.995876873830035" lon="14.664881913953437"><ele>343.0</ele><time>2026-05-03T09:20:28Z</time></trkpt><trkpt lat="36.995826598057725" lon="14.66494167876675"><ele>343.0</ele><time>2026-05-03T09:20:29Z</time></trkpt><trkpt lat="36.99578885294062" lon="14.665005435942426"><ele>343.0</ele><time>2026-05-03T09:20:30Z</time></trkpt><trkpt lat="36.99574496328407" lon="14.665073907785901"><ele>343.0</ele><time>2026-05-03T09:20:31Z</time></trkpt><trkpt lat="36.995681213841976" lon="14.665173647762037"><ele>343.0</ele><time>2026-05-03T09:20:33Z</time></trkpt><trkpt lat="36.995628231531164" lon="14.665287637726804"><ele>343.0</ele><time>2026-05-03T09:20:35Z</time></trkpt><trkpt lat="36.995584324231" lon="14.66537608532464"><ele>343.0</ele><time>2026-05-03T09:20:37Z</time></trkpt><trkpt lat="36.995535841788495" lon="14.665457311769615"><ele>344.79999999999995</ele><time>2026-05-03T09:20:38.999Z</time></trkpt><trkpt lat="36.99549585499834" lon="14.665587534912575"><ele>346.6</ele><time>2026-05-03T09:20:40.999Z</time></trkpt><trkpt lat="36.99543959051284" lon="14.66566208316861"><ele>348.4</ele><time>2026-05-03T09:20:41.999Z</time></trkpt><trkpt lat="36.99538629064555" lon="14.665730946205592"><ele>350.20000000000005</ele><time>2026-05-03T09:20:42.999Z</time></trkpt><trkpt lat="36.99534658977088" lon="14.66583378667786"><ele>352.0</ele><time>2026-05-03T09:20:43.999Z</time></trkpt><trkpt lat="36.99531005151366" lon="14.665950323676574"><ele>352.0</ele><time>2026-05-03T09:20:44.999Z</time></trkpt><trkpt lat="36.99527880555357" lon="14.666058492036642"><ele>352.0</ele><time>2026-05-03T09:20:45.999Z</time></trkpt><trkpt lat="36.995257672568435" lon="14.666150214630063"><ele>352.0</ele><time>2026-05-03T09:20:46.999Z</time></trkpt><trkpt lat="36.995233503724066" lon="14.666286396921652"><ele>352.0</ele><time>2026-05-03T09:20:48.999Z</time></trkpt><trkpt lat="36.995228329814374" lon="14.666367087221266"><ele>352.0</ele><time>2026-05-03T09:20:50.999Z</time></trkpt><trkpt lat="36.99530412660912" lon="14.666366560569736"><ele>352.0</ele><time>2026-05-03T09:20:52.999Z</time></trkpt><trkpt lat="36.99534521039545" lon="14.666297049325141"><ele>352.0</ele><time>2026-05-03T09:20:53.999Z</time></trkpt><trkpt lat="36.995397046347406" lon="14.666239055333676"><ele>352.0</ele><time>2026-05-03T09:20:54.999Z</time></trkpt><trkpt lat="36.99548025223365" lon="14.666171633005353"><ele>352.0</ele><time>2026-05-03T09:20:55.999Z</time></trkpt><trkpt lat="36.99558923482222" lon="14.666084322807041"><ele>352.0</ele><time>2026-05-03T09:20:56.999Z</time></trkpt><trkpt lat="36.99572866633405" lon="14.66596158297281"><ele>352.0</ele><time>2026-05-03T09:20:57.999Z</time></trkpt><trkpt lat="36.99583568472184" lon="14.665849745579832"><ele>352.0</ele><time>2026-05-03T09:20:59Z</time></trkpt><trkpt lat="36.99593866874257" lon="14.665754956934796"><ele>352.0</ele><time>2026-05-03T09:21:00Z</time></trkpt><trkpt lat="36.99603048994772" lon="14.665670481113857"><ele>352.0</ele><time>2026-05-03T09:21:01Z</time></trkpt><trkpt lat="36.99610638390125" lon="14.665626519949901"><ele>353.0</ele><time>2026-05-03T09:21:02Z</time></trkpt><trkpt lat="36.996172821897716" lon="14.665608096705599"><ele>354.0</ele><time>2026-05-03T09:21:03Z</time></trkpt><trkpt lat="36.99627270933297" lon="14.66562046021219"><ele>355.0</ele><time>2026-05-03T09:21:05Z</time></trkpt><trkpt lat="36.99633853351306" lon="14.665571166642936"><ele>356.0</ele><time>2026-05-03T09:21:06Z</time></trkpt><trkpt lat="36.99641414098141" lon="14.665485175758477"><ele>357.0</ele><time>2026-05-03T09:21:07Z</time></trkpt><trkpt lat="36.99649018751473" lon="14.665367130163018"><ele>354.75</ele><time>2026-05-03T09:21:08Z</time></trkpt><trkpt lat="36.99660272296517" lon="14.66524444157289"><ele>352.5</ele><time>2026-05-03T09:21:09Z</time></trkpt><trkpt lat="36.99672040537096" lon="14.665131943173167"><ele>350.25</ele><time>2026-05-03T09:21:10Z</time></trkpt><trkpt lat="36.996842632476465" lon="14.66503433595275"><ele>348.0</ele><time>2026-05-03T09:21:11Z</time></trkpt><trkpt lat="36.99694410815789" lon="14.664940751761447"><ele>348.0</ele><time>2026-05-03T09:21:12Z</time></trkpt><trkpt lat="36.99702264568369" lon="14.664855335612334"><ele>348.0</ele><time>2026-05-03T09:21:13Z</time></trkpt><trkpt lat="36.99709146180755" lon="14.664784363432718"><ele>348.0</ele><time>2026-05-03T09:21:14Z</time></trkpt><trkpt lat="36.99714308960647" lon="14.664719896384083"><ele>348.0</ele><time>2026-05-03T09:21:16Z</time></trkpt><trkpt lat="36.997210533701875" lon="14.66468304860206"><ele>348.0</ele><time>2026-05-03T09:21:18Z</time></trkpt><trkpt lat="36.99727818536167" lon="14.664677388467238"><ele>348.0</ele><time>2026-05-03T09:21:19Z</time></trkpt><trkpt lat="36.99736313415128" lon="14.664680446922455"><ele>348.0</ele><time>2026-05-03T09:21:20Z</time></trkpt><trkpt lat="36.997462047268705" lon="14.664674734927157"><ele>348.0</ele><time>2026-05-03T09:21:21Z</time></trkpt><trkpt lat="36.99754496563387" lon="14.664663773305502"><ele>348.0</ele><time>2026-05-03T09:21:22Z</time></trkpt><trkpt lat="36.99763694284771" lon="14.664666668981065"><ele>348.0</ele><time>2026-05-03T09:21:23Z</time></trkpt><trkpt lat="36.99771914746218" lon="14.664670365473759"><ele>348.0</ele><time>2026-05-03T09:21:24Z</time></trkpt><trkpt lat="36.997851894508216" lon="14.664664859794746"><ele>347.25</ele><time>2026-05-03T09:21:25Z</time></trkpt><trkpt lat="36.99796965391333" lon="14.6646682398911"><ele>346.5</ele><time>2026-05-03T09:21:26Z</time></trkpt><trkpt lat="36.99808622272222" lon="14.664666576327303"><ele>345.75</ele><time>2026-05-03T09:21:27Z</time></trkpt><trkpt lat="36.99821607414963" lon="14.664669904540448"><ele>345.0</ele><time>2026-05-03T09:21:28Z</time></trkpt><trkpt lat="36.99834762886263" lon="14.664677559885034"><ele>344.2</ele><time>2026-05-03T09:21:29Z</time></trkpt><trkpt lat="36.99847381155618" lon="14.664677066456763"><ele>343.4</ele><time>2026-05-03T09:21:30Z</time></trkpt><trkpt lat="36.99860095386794" lon="14.664676306099164"><ele>342.6</ele><time>2026-05-03T09:21:31Z</time></trkpt><trkpt lat="36.99870107712288" lon="14.664665250210025"><ele>341.8</ele><time>2026-05-03T09:21:32Z</time></trkpt><trkpt lat="36.99878130311317" lon="14.664679367935367"><ele>341.0</ele><time>2026-05-03T09:21:33Z</time></trkpt><trkpt lat="36.99887288018555" lon="14.664717325759867"><ele>341.0</ele><time>2026-05-03T09:21:34Z</time></trkpt><trkpt lat="36.99899170672933" lon="14.664765578422827"><ele>341.0</ele><time>2026-05-03T09:21:35Z</time></trkpt><trkpt lat="36.99910391138476" lon="14.664805182987463"><ele>341.0</ele><time>2026-05-03T09:21:36Z</time></trkpt><trkpt lat="36.99920489801959" lon="14.664837196696952"><ele>341.0</ele><time>2026-05-03T09:21:37Z</time></trkpt><trkpt lat="36.99929645061567" lon="14.664875453356276"><ele>341.0</ele><time>2026-05-03T09:21:38Z</time></trkpt><trkpt lat="36.99939326380011" lon="14.66491026619726"><ele>340.0</ele><time>2026-05-03T09:21:39Z</time></trkpt><trkpt lat="36.99948371910366" lon="14.664943639996135"><ele>339.0</ele><time>2026-05-03T09:21:40Z</time></trkpt><trkpt lat="36.99957227130079" lon="14.664978069320421"><ele>338.0</ele><time>2026-05-03T09:21:41Z</time></trkpt><trkpt lat="36.99966039015615" lon="14.665003410139889"><ele>337.0</ele><time>2026-05-03T09:21:42Z</time></trkpt><trkpt lat="36.9997488510524" lon="14.665034042003972"><ele>336.0</ele><time>2026-05-03T09:21:43Z</time></trkpt><trkpt lat="36.999827720577564" lon="14.665060187868365"><ele>336.0</ele><time>2026-05-03T09:21:44Z</time></trkpt><trkpt lat="36.999893573499705" lon="14.665086988470907"><ele>336.0</ele><time>2026-05-03T09:21:45Z</time></trkpt><trkpt lat="36.99997831519041" lon="14.665102826347526"><ele>336.0</ele><time>2026-05-03T09:21:46Z</time></trkpt><trkpt lat="37.000042913030704" lon="14.665120995284578"><ele>336.0</ele><time>2026-05-03T09:21:47Z</time></trkpt><trkpt lat="37.00011475968008" lon="14.665135524262567"><ele>336.0</ele><time>2026-05-03T09:21:48Z</time></trkpt><trkpt lat="37.00017909219295" lon="14.6651426622388"><ele>336.0</ele><time>2026-05-03T09:21:49Z</time></trkpt><trkpt lat="37.00024220708368" lon="14.665169708273856"><ele>336.0</ele><time>2026-05-03T09:21:50Z</time></trkpt><trkpt lat="37.000279616979" lon="14.665343556884997"><ele>336.8</ele><time>2026-05-03T09:21:52Z</time></trkpt><trkpt lat="37.000296259143404" lon="14.66546733466814"><ele>337.6</ele><time>2026-05-03T09:21:53Z</time></trkpt><trkpt lat="37.00033179516945" lon="14.665598020139726"><ele>338.4</ele><time>2026-05-03T09:21:54Z</time></trkpt><trkpt lat="37.000380252699486" lon="14.66571844308554"><ele>339.2</ele><time>2026-05-03T09:21:55Z</time></trkpt><trkpt lat="37.00044035387706" lon="14.665814965965133"><ele>340.0</ele><time>2026-05-03T09:21:56Z</time></trkpt><trkpt lat="37.000495772521745" lon="14.665873494408283"><ele>340.0</ele><time>2026-05-03T09:21:57Z</time></trkpt><trkpt lat="37.00059434041357" lon="14.665932044929558"><ele>340.0</ele><time>2026-05-03T09:21:59Z</time></trkpt><trkpt lat="37.00067238349362" lon="14.665952515038423"><ele>340.0</ele><time>2026-05-03T09:22:03Z</time></trkpt><trkpt lat="37.00073626474118" lon="14.66591674485808"><ele>340.0</ele><time>2026-05-03T09:22:05Z</time></trkpt><trkpt lat="37.00080383499536" lon="14.66590404932874"><ele>340.0</ele><time>2026-05-03T09:22:06Z</time></trkpt><trkpt lat="37.00087800926997" lon="14.665867399153926"><ele>340.0</ele><time>2026-05-03T09:22:07Z</time></trkpt><trkpt lat="37.001013453940125" lon="14.665806826699203"><ele>337.75</ele><time>2026-05-03T09:22:08Z</time></trkpt><trkpt lat="37.00114309196364" lon="14.66570708832666"><ele>335.5</ele><time>2026-05-03T09:22:09Z</time></trkpt><trkpt lat="37.001267917525865" lon="14.665614646759833"><ele>333.25</ele><time>2026-05-03T09:22:10Z</time></trkpt><trkpt lat="37.001370310389575" lon="14.66552929304542"><ele>331.0</ele><time>2026-05-03T09:22:11Z</time></trkpt><trkpt lat="37.00145371709048" lon="14.665424141391291"><ele>329.5</ele><time>2026-05-03T09:22:12Z</time></trkpt><trkpt lat="37.001517562683894" lon="14.665261108283946"><ele>328.0</ele><time>2026-05-03T09:22:13Z</time></trkpt><trkpt lat="37.00155249564435" lon="14.66508097485177"><ele>326.5</ele><time>2026-05-03T09:22:14Z</time></trkpt><trkpt lat="37.00157057730414" lon="14.664889088902964"><ele>325.0</ele><time>2026-05-03T09:22:15Z</time></trkpt><trkpt lat="37.00158772505959" lon="14.664707032495667"><ele>325.0</ele><time>2026-05-03T09:22:16Z</time></trkpt><trkpt lat="37.001610334057666" lon="14.664529592203628"><ele>325.0</ele><time>2026-05-03T09:22:17Z</time></trkpt><trkpt lat="37.00164177374224" lon="14.664354509478583"><ele>325.0</ele><time>2026-05-03T09:22:18Z</time></trkpt><trkpt lat="37.00167578580264" lon="14.664191609836012"><ele>325.0</ele><time>2026-05-03T09:22:19Z</time></trkpt><trkpt lat="37.00172100416441" lon="14.664036123533034"><ele>325.0</ele><time>2026-05-03T09:22:20Z</time></trkpt><trkpt lat="37.00178766404875" lon="14.66390510943661"><ele>325.0</ele><time>2026-05-03T09:22:21Z</time></trkpt><trkpt lat="37.001870178822585" lon="14.663786086449425"><ele>325.0</ele><time>2026-05-03T09:22:22Z</time></trkpt><trkpt lat="37.00194469504202" lon="14.663664009246768"><ele>325.0</ele><time>2026-05-03T09:22:23Z</time></trkpt><trkpt lat="37.00202391133514" lon="14.663569251637087"><ele>325.2</ele><time>2026-05-03T09:22:24Z</time></trkpt><trkpt lat="37.00211013436347" lon="14.663522957926126"><ele>325.4</ele><time>2026-05-03T09:22:25Z</time></trkpt><trkpt lat="37.00219781991424" lon="14.663488214622864"><ele>325.6</ele><time>2026-05-03T09:22:26Z</time></trkpt><trkpt lat="37.002300001500345" lon="14.663457559193073"><ele>325.8</ele><time>2026-05-03T09:22:27Z</time></trkpt><trkpt lat="37.002416077391445" lon="14.663416155697325"><ele>326.0</ele><time>2026-05-03T09:22:28Z</time></trkpt><trkpt lat="37.00253679488153" lon="14.663372209957636"><ele>326.0</ele><time>2026-05-03T09:22:29Z</time></trkpt><trkpt lat="37.002652268805164" lon="14.663329872907338"><ele>326.0</ele><time>2026-05-03T09:22:30Z</time></trkpt><trkpt lat="37.00277700240733" lon="14.663280375674832"><ele>326.0</ele><time>2026-05-03T09:22:31Z</time></trkpt><trkpt lat="37.00290282968351" lon="14.66322194958375"><ele>326.0</ele><time>2026-05-03T09:22:32Z</time></trkpt><trkpt lat="37.00303040886325" lon="14.66316271001839"><ele>326.0</ele><time>2026-05-03T09:22:33Z</time></trkpt><trkpt lat="37.003155670976064" lon="14.663101409928705"><ele>326.0</ele><time>2026-05-03T09:22:34Z</time></trkpt><trkpt lat="37.00328798072931" lon="14.663029313238459"><ele>326.0</ele><time>2026-05-03T09:22:35Z</time></trkpt><trkpt lat="37.003413769084254" lon="14.662954822056847"><ele>326.0</ele><time>2026-05-03T09:22:36Z</time></trkpt><trkpt lat="37.00353619458445" lon="14.662878752228856"><ele>326.25</ele><time>2026-05-03T09:22:36.999Z</time></trkpt><trkpt lat="37.003659997101536" lon="14.662784611602708"><ele>326.5</ele><time>2026-05-03T09:22:37.999Z</time></trkpt><trkpt lat="37.00377253611355" lon="14.662684983139393"><ele>326.75</ele><time>2026-05-03T09:22:38.999Z</time></trkpt><trkpt lat="37.00389196859457" lon="14.66258502862638"><ele>327.0</ele><time>2026-05-03T09:22:39.999Z</time></trkpt><trkpt lat="37.0040136196802" lon="14.66248372981319"><ele>327.75</ele><time>2026-05-03T09:22:40.999Z</time></trkpt><trkpt lat="37.00413919824112" lon="14.662380341555014"><ele>328.5</ele><time>2026-05-03T09:22:41.999Z</time></trkpt><trkpt lat="37.004266355284045" lon="14.66227600625749"><ele>329.25</ele><time>2026-05-03T09:22:42.999Z</time></trkpt><trkpt lat="37.00439107155366" lon="14.662180123450911"><ele>330.0</ele><time>2026-05-03T09:22:43.999Z</time></trkpt><trkpt lat="37.00451064457814" lon="14.662095798965389"><ele>330.0</ele><time>2026-05-03T09:22:44.999Z</time></trkpt><trkpt lat="37.00462220258455" lon="14.662015818060219"><ele>330.0</ele><time>2026-05-03T09:22:45.999Z</time></trkpt><trkpt lat="37.00472959130844" lon="14.66193374075041"><ele>330.0</ele><time>2026-05-03T09:22:46.999Z</time></trkpt><trkpt lat="37.00482971003591" lon="14.661848879314382"><ele>330.0</ele><time>2026-05-03T09:22:47.999Z</time></trkpt><trkpt lat="37.00492172604583" lon="14.661764729363028"><ele>329.6</ele><time>2026-05-03T09:22:48.999Z</time></trkpt><trkpt lat="37.00501286984997" lon="14.66170752820001"><ele>329.2</ele><time>2026-05-03T09:22:49.999Z</time></trkpt><trkpt lat="37.00509767072677" lon="14.66163565504772"><ele>328.79999999999995</ele><time>2026-05-03T09:22:50.999Z</time></trkpt><trkpt lat="37.005162257684894" lon="14.661578356505913"><ele>328.4</ele><time>2026-05-03T09:22:51.999Z</time></trkpt><trkpt lat="37.00525836473545" lon="14.661608454273882"><ele>328.0</ele><time>2026-05-03T09:22:52.999Z</time></trkpt><trkpt lat="37.0053776243521" lon="14.661613265768738"><ele>328.0</ele><time>2026-05-03T09:22:53.999Z</time></trkpt><trkpt lat="37.005510476701126" lon="14.661609953188902"><ele>328.0</ele><time>2026-05-03T09:22:54.999Z</time></trkpt><trkpt lat="37.00564932172542" lon="14.66159964370695"><ele>328.0</ele><time>2026-05-03T09:22:55.999Z</time></trkpt><trkpt lat="37.00579048978243" lon="14.661588800978928"><ele>328.0</ele><time>2026-05-03T09:22:56.999Z</time></trkpt><trkpt lat="37.00591099884191" lon="14.661579545037846"><ele>328.0</ele><time>2026-05-03T09:22:57.999Z</time></trkpt><trkpt lat="37.00600716702031" lon="14.66159685430464"><ele>328.0</ele><time>2026-05-03T09:22:58.999Z</time></trkpt><trkpt lat="37.00608388244265" lon="14.661637567463869"><ele>328.0</ele><time>2026-05-03T09:22:59.999Z</time></trkpt><trkpt lat="37.00612983960816" lon="14.66174407362065"><ele>328.0</ele><time>2026-05-03T09:23:00.999Z</time></trkpt><trkpt lat="37.00618241680793" lon="14.661857875944333"><ele>328.0</ele><time>2026-05-03T09:23:01.999Z</time></trkpt><trkpt lat="37.006249925337826" lon="14.661982383350574"><ele>328.0</ele><time>2026-05-03T09:23:02.999Z</time></trkpt><trkpt lat="37.0062974464522" lon="14.662135020277708"><ele>328.0</ele><time>2026-05-03T09:23:04Z</time></trkpt><trkpt lat="37.006332957630526" lon="14.662297975661458"><ele>328.0</ele><time>2026-05-03T09:23:05Z</time></trkpt><trkpt lat="37.00634855872282" lon="14.662460539739396"><ele>328.0</ele><time>2026-05-03T09:23:06Z</time></trkpt><trkpt lat="37.006365128613346" lon="14.662612647237596"><ele>328.0</ele><time>2026-05-03T09:23:07Z</time></trkpt><trkpt lat="37.00641320383315" lon="14.662732931132092"><ele>328.0</ele><time>2026-05-03T09:23:08Z</time></trkpt><trkpt lat="37.00649345829134" lon="14.662844252493237"><ele>328.0</ele><time>2026-05-03T09:23:09Z</time></trkpt><trkpt lat="37.00659906648822" lon="14.662931896466741"><ele>328.0</ele><time>2026-05-03T09:23:10Z</time></trkpt><trkpt lat="37.00673237682198" lon="14.662968085097805"><ele>329.25</ele><time>2026-05-03T09:23:11Z</time></trkpt><trkpt lat="37.00685927032426" lon="14.663014128552053"><ele>330.5</ele><time>2026-05-03T09:23:12Z</time></trkpt><trkpt lat="37.00700217791476" lon="14.663009463755786"><ele>331.75</ele><time>2026-05-03T09:23:13Z</time></trkpt><trkpt lat="37.00714065720762" lon="14.662995282190835"><ele>333.0</ele><time>2026-05-03T09:23:14Z</time></trkpt><trkpt lat="37.00728540200011" lon="14.662979847014455"><ele>333.0</ele><time>2026-05-03T09:23:15Z</time></trkpt><trkpt lat="37.00743797029181" lon="14.662967493045135"><ele>333.0</ele><time>2026-05-03T09:23:16Z</time></trkpt><trkpt lat="37.00759573747996" lon="14.662966111719918"><ele>333.0</ele><time>2026-05-03T09:23:17Z</time></trkpt><trkpt lat="37.007756460701465" lon="14.662976974886226"><ele>334.0</ele><time>2026-05-03T09:23:18Z</time></trkpt><trkpt lat="37.007918688068294" lon="14.662999880526193"><ele>335.0</ele><time>2026-05-03T09:23:19Z</time></trkpt><trkpt lat="37.00807472617968" lon="14.663026008240678"><ele>336.0</ele><time>2026-05-03T09:23:20Z</time></trkpt><trkpt lat="37.00822568127293" lon="14.66306219382402"><ele>337.0</ele><time>2026-05-03T09:23:21Z</time></trkpt><trkpt lat="37.00838588245497" lon="14.663122190748396"><ele>338.0</ele><time>2026-05-03T09:23:22Z</time></trkpt><trkpt lat="37.00855861999695" lon="14.66318772014184"><ele>339.0</ele><time>2026-05-03T09:23:23Z</time></trkpt><trkpt lat="37.00871156517312" lon="14.66329214950709"><ele>339.0</ele><time>2026-05-03T09:23:24Z</time></trkpt><trkpt lat="37.00885764333075" lon="14.663388808050659"><ele>339.0</ele><time>2026-05-03T09:23:25Z</time></trkpt><trkpt lat="37.00900726241246" lon="14.66350838734549"><ele>339.0</ele><time>2026-05-03T09:23:26Z</time></trkpt><trkpt lat="37.00915310962607" lon="14.663629639678856"><ele>341.0</ele><time>2026-05-03T09:23:27Z</time></trkpt><trkpt lat="37.00928976162362" lon="14.663717471334163"><ele>343.0</ele><time>2026-05-03T09:23:28Z</time></trkpt><trkpt lat="37.009416955211776" lon="14.663821636375834"><ele>345.0</ele><time>2026-05-03T09:23:29Z</time></trkpt><trkpt lat="37.00955242788555" lon="14.663930534189387"><ele>345.0</ele><time>2026-05-03T09:23:30Z</time></trkpt><trkpt lat="37.00970043613284" lon="14.663990392183136"><ele>345.0</ele><time>2026-05-03T09:23:31Z</time></trkpt><trkpt lat="37.00982892521059" lon="14.66403897143762"><ele>345.0</ele><time>2026-05-03T09:23:32Z</time></trkpt><trkpt lat="37.009947797142004" lon="14.664083965471203"><ele>345.0</ele><time>2026-05-03T09:23:33Z</time></trkpt><trkpt lat="37.0100570150034" lon="14.664128462104594"><ele>345.5</ele><time>2026-05-03T09:23:34Z</time></trkpt><trkpt lat="37.010146794443294" lon="14.664175621831847"><ele>346.0</ele><time>2026-05-03T09:23:35Z</time></trkpt><trkpt lat="37.01022241299084" lon="14.664230744283516"><ele>346.5</ele><time>2026-05-03T09:23:36Z</time></trkpt><trkpt lat="37.01029419781671" lon="14.664290543369273"><ele>347.0</ele><time>2026-05-03T09:23:37Z</time></trkpt><trkpt lat="37.0103633185392" lon="14.664352232420182"><ele>347.5</ele><time>2026-05-03T09:23:38Z</time></trkpt><trkpt lat="37.01042155264287" lon="14.66440506889863"><ele>348.0</ele><time>2026-05-03T09:23:39Z</time></trkpt><trkpt lat="37.010484430405306" lon="14.664463519542117"><ele>349.2</ele><time>2026-05-03T09:23:40Z</time></trkpt><trkpt lat="37.01055964106907" lon="14.664535456088359"><ele>350.4</ele><time>2026-05-03T09:23:41Z</time></trkpt><trkpt lat="37.01065072022096" lon="14.664601398938695"><ele>351.59999999999997</ele><time>2026-05-03T09:23:42Z</time></trkpt><trkpt lat="37.010701591196415" lon="14.664677732443115"><ele>352.79999999999995</ele><time>2026-05-03T09:23:43Z</time></trkpt><trkpt lat="37.01074126859955" lon="14.664750861007514"><ele>354.0</ele><time>2026-05-03T09:23:47Z</time></trkpt><trkpt lat="37.01070592486082" lon="14.664917588133058"><ele>354.0</ele><time>2026-05-03T09:23:49Z</time></trkpt><trkpt lat="37.010723796227104" lon="14.66504467793004"><ele>354.0</ele><time>2026-05-03T09:23:51Z</time></trkpt><trkpt lat="37.01079351038773" lon="14.665189351796107"><ele>354.0</ele><time>2026-05-03T09:24:20Z</time></trkpt><trkpt lat="37.010833088605324" lon="14.665285314590749"><ele>354.0</ele><time>2026-05-03T09:24:21Z</time></trkpt><trkpt lat="37.01088204087849" lon="14.66538240904985"><ele>354.0</ele><time>2026-05-03T09:24:22Z</time></trkpt><trkpt lat="37.01091164510013" lon="14.665471064378593"><ele>354.5</ele><time>2026-05-03T09:24:23Z</time></trkpt><trkpt lat="37.01092657173577" lon="14.665573892539616"><ele>355.0</ele><time>2026-05-03T09:24:24Z</time></trkpt><trkpt lat="37.01093043616499" lon="14.66567223725182"><ele>355.5</ele><time>2026-05-03T09:24:25Z</time></trkpt><trkpt lat="37.01090584936691" lon="14.665770169938247"><ele>356.0</ele><time>2026-05-03T09:24:26Z</time></trkpt><trkpt lat="37.01087356193271" lon="14.665862954620756"><ele>356.5</ele><time>2026-05-03T09:24:27Z</time></trkpt><trkpt lat="37.01085191494621" lon="14.665942924496992"><ele>357.0</ele><time>2026-05-03T09:24:28Z</time></trkpt><trkpt lat="37.010837539947374" lon="14.666041055173556"><ele>358.0</ele><time>2026-05-03T09:24:30Z</time></trkpt><trkpt lat="37.01083754290942" lon="14.666170478967409"><ele>359.0</ele><time>2026-05-03T09:24:33Z</time></trkpt><trkpt lat="37.01086987337935" lon="14.666304915234381"><ele>360.0</ele><time>2026-05-03T09:24:34.999Z</time></trkpt><trkpt lat="37.010886865516845" lon="14.666381677586816"><ele>361.0</ele><time>2026-05-03T09:24:35.999Z</time></trkpt><trkpt lat="37.010918065148175" lon="14.666513429391708"><ele>362.0</ele><time>2026-05-03T09:24:37.999Z</time></trkpt><trkpt lat="37.01094568515085" lon="14.666635464901436"><ele>362.0</ele><time>2026-05-03T09:24:39.999Z</time></trkpt><trkpt lat="37.010996504864664" lon="14.666709068276505"><ele>362.0</ele><time>2026-05-03T09:24:41.999Z</time></trkpt><trkpt lat="37.0110657725916" lon="14.666792513887026"><ele>362.0</ele><time>2026-05-03T09:24:43.999Z</time></trkpt><trkpt lat="37.01110303871572" lon="14.666861195507554"><ele>362.0</ele><time>2026-05-03T09:24:45.999Z</time></trkpt><trkpt lat="37.011096248115074" lon="14.666985192746324"><ele>362.0</ele><time>2026-05-03T09:24:48.999Z</time></trkpt><trkpt lat="37.011091075725744" lon="14.667122431643474"><ele>362.0</ele><time>2026-05-03T09:24:51.999Z</time></trkpt><trkpt lat="37.01109708031426" lon="14.667245800618861"><ele>363.5</ele><time>2026-05-03T09:24:53.999Z</time></trkpt><trkpt lat="37.011106130817886" lon="14.667326079146717"><ele>365.0</ele><time>2026-05-03T09:24:54.999Z</time></trkpt><trkpt lat="37.01117669760231" lon="14.667419985110026"><ele>366.5</ele><time>2026-05-03T09:24:56.999Z</time></trkpt><trkpt lat="37.011241910147135" lon="14.66746854684569"><ele>368.0</ele><time>2026-05-03T09:24:58.999Z</time></trkpt><trkpt lat="37.01127923280208" lon="14.667581357510013"><ele>369.5</ele><time>2026-05-03T09:25:00.999Z</time></trkpt><trkpt lat="37.01128455661297" lon="14.667675390990507"><ele>371.0</ele><time>2026-05-03T09:25:01.999Z</time></trkpt><trkpt lat="37.01128017692213" lon="14.66777938936295"><ele>371.8</ele><time>2026-05-03T09:25:02.999Z</time></trkpt><trkpt lat="37.01128106352479" lon="14.667889601462667"><ele>372.6</ele><time>2026-05-03T09:25:03.999Z</time></trkpt><trkpt lat="37.01127814388568" lon="14.667987576400343"><ele>373.4</ele><time>2026-05-03T09:25:04.999Z</time></trkpt><trkpt lat="37.0112787916934" lon="14.66807586947961"><ele>374.2</ele><time>2026-05-03T09:25:05.999Z</time></trkpt><trkpt lat="37.01128784258291" lon="14.66818340615671"><ele>375.0</ele><time>2026-05-03T09:25:06.999Z</time></trkpt><trkpt lat="37.01131391258285" lon="14.668338382982936"><ele>375.0</ele><time>2026-05-03T09:25:07.999Z</time></trkpt><trkpt lat="37.01133966941302" lon="14.66851314363525"><ele>375.0</ele><time>2026-05-03T09:25:09Z</time></trkpt><trkpt lat="37.011366607621845" lon="14.6686995666078"><ele>375.0</ele><time>2026-05-03T09:25:10Z</time></trkpt><trkpt lat="37.01138653146925" lon="14.668906245077533"><ele>377.0</ele><time>2026-05-03T09:25:11Z</time></trkpt><trkpt lat="37.01140898428617" lon="14.669115317703536"><ele>379.0</ele><time>2026-05-03T09:25:12Z</time></trkpt><trkpt lat="37.011446100644335" lon="14.669308482982272"><ele>381.0</ele><time>2026-05-03T09:25:13Z</time></trkpt><trkpt lat="37.01148341807039" lon="14.669477194543814"><ele>383.0</ele><time>2026-05-03T09:25:14Z</time></trkpt><trkpt lat="37.01154574287235" lon="14.669639873229501"><ele>385.0</ele><time>2026-05-03T09:25:15Z</time></trkpt><trkpt lat="37.011612062700166" lon="14.669802168973172"><ele>387.0</ele><time>2026-05-03T09:25:16Z</time></trkpt><trkpt lat="37.01168752019773" lon="14.669961755360296"><ele>389.0</ele><time>2026-05-03T09:25:17Z</time></trkpt><trkpt lat="37.011759185714375" lon="14.670116165326398"><ele>390.0</ele><time>2026-05-03T09:25:18Z</time></trkpt><trkpt lat="37.011865810484466" lon="14.670270789345802"><ele>391.0</ele><time>2026-05-03T09:25:19Z</time></trkpt><trkpt lat="37.01194394626244" lon="14.670421214284037"><ele>392.0</ele><time>2026-05-03T09:25:20Z</time></trkpt><trkpt lat="37.01202502480552" lon="14.670567201114121"><ele>393.0</ele><time>2026-05-03T09:25:21Z</time></trkpt><trkpt lat="37.01209236902382" lon="14.670717464958773"><ele>395.25</ele><time>2026-05-03T09:25:22Z</time></trkpt><trkpt lat="37.012148755230136" lon="14.670866177661516"><ele>397.5</ele><time>2026-05-03T09:25:23Z</time></trkpt><trkpt lat="37.01218632285409" lon="14.67104297808264"><ele>399.75</ele><time>2026-05-03T09:25:24Z</time></trkpt><trkpt lat="37.0122082703829" lon="14.67122786643426"><ele>402.0</ele><time>2026-05-03T09:25:25Z</time></trkpt><trkpt lat="37.01221249083972" lon="14.671406414066055"><ele>404.25</ele><time>2026-05-03T09:25:26Z</time></trkpt><trkpt lat="37.0122011016301" lon="14.671576105023501"><ele>406.5</ele><time>2026-05-03T09:25:27Z</time></trkpt><trkpt lat="37.012154092814285" lon="14.671740751704432"><ele>408.75</ele><time>2026-05-03T09:25:28Z</time></trkpt><trkpt lat="37.012084633541434" lon="14.671895422547887"><ele>411.0</ele><time>2026-05-03T09:25:29Z</time></trkpt><trkpt lat="37.01199201223879" lon="14.672046036686714"><ele>413.33333333333337</ele><time>2026-05-03T09:25:30Z</time></trkpt><trkpt lat="37.01191639908723" lon="14.672203475100806"><ele>415.6666666666667</ele><time>2026-05-03T09:25:31Z</time></trkpt><trkpt lat="37.01186799535149" lon="14.67238831840168"><ele>418.0</ele><time>2026-05-03T09:25:32Z</time></trkpt><trkpt lat="37.01183553955407" lon="14.672590985853281"><ele>417.0</ele><time>2026-05-03T09:25:33Z</time></trkpt><trkpt lat="37.01180055689158" lon="14.672795542900287"><ele>416.0</ele><time>2026-05-03T09:25:34Z</time></trkpt><trkpt lat="37.011757796348554" lon="14.67298922446251"><ele>415.0</ele><time>2026-05-03T09:25:35Z</time></trkpt><trkpt lat="37.0117218851198" lon="14.673159898738236"><ele>415.0</ele><time>2026-05-03T09:25:36Z</time></trkpt><trkpt lat="37.01170612014975" lon="14.673320624071422"><ele>415.0</ele><time>2026-05-03T09:25:37Z</time></trkpt><trkpt lat="37.01175086406274" lon="14.67348950110316"><ele>415.0</ele><time>2026-05-03T09:25:38Z</time></trkpt><trkpt lat="37.01185392587333" lon="14.673687312053074"><ele>415.0</ele><time>2026-05-03T09:25:39Z</time></trkpt><trkpt lat="37.011941244953874" lon="14.673855281874323"><ele>415.0</ele><time>2026-05-03T09:25:40Z</time></trkpt><trkpt lat="37.01199349200153" lon="14.674004627281251"><ele>415.0</ele><time>2026-05-03T09:25:41Z</time></trkpt><trkpt lat="37.01201859167653" lon="14.674148521953217"><ele>415.0</ele><time>2026-05-03T09:25:42Z</time></trkpt><trkpt lat="37.01202124945177" lon="14.674294460352849"><ele>415.0</ele><time>2026-05-03T09:25:43Z</time></trkpt><trkpt lat="37.012016682962496" lon="14.674408304830388"><ele>415.0</ele><time>2026-05-03T09:25:44Z</time></trkpt><trkpt lat="37.01201804413042" lon="14.674490667966163"><ele>415.0</ele><time>2026-05-03T09:25:45Z</time></trkpt><trkpt lat="37.0120508507042" lon="14.674558418892806"><ele>415.0</ele><time>2026-05-03T09:25:47Z</time></trkpt><trkpt lat="37.01218103853804" lon="14.674604402949862"><ele>415.0</ele><time>2026-05-03T09:25:49Z</time></trkpt><trkpt lat="37.012269566950344" lon="14.674645534146395"><ele>416.8</ele><time>2026-05-03T09:25:50Z</time></trkpt><trkpt lat="37.0123749165142" lon="14.674676726844321"><ele>418.6</ele><time>2026-05-03T09:25:51Z</time></trkpt><trkpt lat="37.01247742356344" lon="14.674688218829354"><ele>420.4</ele><time>2026-05-03T09:25:52Z</time></trkpt><trkpt lat="37.0125938480341" lon="14.674713820129094"><ele>422.2</ele><time>2026-05-03T09:25:53Z</time></trkpt><trkpt lat="37.012709918337386" lon="14.67474232560038"><ele>424.0</ele><time>2026-05-03T09:25:54Z</time></trkpt><trkpt lat="37.012830998609964" lon="14.674761024114403"><ele>425.0</ele><time>2026-05-03T09:25:55Z</time></trkpt><trkpt lat="37.01296707966993" lon="14.674776929796321"><ele>426.0</ele><time>2026-05-03T09:25:56Z</time></trkpt><trkpt lat="37.0131094669998" lon="14.674799311053597"><ele>427.0</ele><time>2026-05-03T09:25:57Z</time></trkpt><trkpt lat="37.01325290475543" lon="14.674797021115523"><ele>428.0</ele><time>2026-05-03T09:25:58Z</time></trkpt><trkpt lat="37.013392220554955" lon="14.67482014806201"><ele>428.25</ele><time>2026-05-03T09:25:59Z</time></trkpt><trkpt lat="37.01353297988008" lon="14.674835052507525"><ele>428.5</ele><time>2026-05-03T09:26:00Z</time></trkpt><trkpt lat="37.013658976359054" lon="14.674856709349136"><ele>428.75</ele><time>2026-05-03T09:26:01Z</time></trkpt><trkpt lat="37.01378743192034" lon="14.67487441644019"><ele>429.0</ele><time>2026-05-03T09:26:02Z</time></trkpt><trkpt lat="37.013915041489966" lon="14.674885146457623"><ele>429.0</ele><time>2026-05-03T09:26:03Z</time></trkpt><trkpt lat="37.014036133666394" lon="14.674902725726662"><ele>429.0</ele><time>2026-05-03T09:26:04Z</time></trkpt><trkpt lat="37.014146758922934" lon="14.674930098552677"><ele>429.0</ele><time>2026-05-03T09:26:05Z</time></trkpt><trkpt lat="37.01425870670227" lon="14.674970867235835"><ele>429.0</ele><time>2026-05-03T09:26:06Z</time></trkpt><trkpt lat="37.014362413680296" lon="14.675021842902508"><ele>428.6</ele><time>2026-05-03T09:26:07Z</time></trkpt><trkpt lat="37.01444632259855" lon="14.675116733719141"><ele>428.2</ele><time>2026-05-03T09:26:08Z</time></trkpt><trkpt lat="37.01454057318156" lon="14.67516869474835"><ele>427.80000000000007</ele><time>2026-05-03T09:26:09Z</time></trkpt><trkpt lat="37.01461794110257" lon="14.675244961872778"><ele>427.40000000000003</ele><time>2026-05-03T09:26:10Z</time></trkpt><trkpt lat="37.014677116169295" lon="14.67532664919479"><ele>427.0</ele><time>2026-05-03T09:26:11Z</time></trkpt><trkpt lat="37.01475011696928" lon="14.675369101203508"><ele>426.0</ele><time>2026-05-03T09:26:12Z</time></trkpt><trkpt lat="37.01484897352674" lon="14.675341252688861"><ele>425.00000000000006</ele><time>2026-05-03T09:26:13Z</time></trkpt><trkpt lat="37.0149347929084" lon="14.675329148537566"><ele>424.0</ele><time>2026-05-03T09:26:14Z</time></trkpt><trkpt lat="37.0150240749016" lon="14.675274765964456"><ele>423.0</ele><time>2026-05-03T09:26:15Z</time></trkpt><trkpt lat="37.015107839690145" lon="14.675213574566197"><ele>422.0</ele><time>2026-05-03T09:26:16Z</time></trkpt><trkpt lat="37.01520647401949" lon="14.675197126071431"><ele>422.0</ele><time>2026-05-03T09:26:17Z</time></trkpt><trkpt lat="37.015304981024606" lon="14.67517296129207"><ele>422.0</ele><time>2026-05-03T09:26:18Z</time></trkpt><trkpt lat="37.01540093663772" lon="14.675153660846588"><ele>422.0</ele><time>2026-05-03T09:26:19Z</time></trkpt><trkpt lat="37.01551161506797" lon="14.675172579363142"><ele>422.0</ele><time>2026-05-03T09:26:20Z</time></trkpt><trkpt lat="37.01564823898675" lon="14.675192380950437"><ele>422.0</ele><time>2026-05-03T09:26:21Z</time></trkpt><trkpt lat="37.015792842498556" lon="14.675204859882825"><ele>421.40000000000003</ele><time>2026-05-03T09:26:22Z</time></trkpt><trkpt lat="37.015924242317894" lon="14.675198849677653"><ele>420.8</ele><time>2026-05-03T09:26:23Z</time></trkpt><trkpt lat="37.01601698826048" lon="14.675174733349138"><ele>420.2</ele><time>2026-05-03T09:26:24Z</time></trkpt><trkpt lat="37.01609651809806" lon="14.675135502067468"><ele>419.6</ele><time>2026-05-03T09:26:25Z</time></trkpt><trkpt lat="37.016151678251425" lon="14.675044462735197"><ele>419.0</ele><time>2026-05-03T09:26:26Z</time></trkpt><trkpt lat="37.016191367990515" lon="14.67494544593901"><ele>419.0</ele><time>2026-05-03T09:26:27Z</time></trkpt><trkpt lat="37.0162539070384" lon="14.674847440730192"><ele>419.0</ele><time>2026-05-03T09:26:29Z</time></trkpt><trkpt lat="37.01632389662175" lon="14.674790709437481"><ele>419.0</ele><time>2026-05-03T09:26:31Z</time></trkpt><trkpt lat="37.01653421232097" lon="14.674488322800384"><ele>419.0</ele><time>2026-05-03T09:26:33Z</time></trkpt><trkpt lat="37.01661961254225" lon="14.674513926461055"><ele>419.0</ele><time>2026-05-03T09:26:34Z</time></trkpt><trkpt lat="37.0167541418714" lon="14.674571947066006"><ele>419.0</ele><time>2026-05-03T09:26:35Z</time></trkpt><trkpt lat="37.0168356525113" lon="14.674614240264722"><ele>419.0</ele><time>2026-05-03T09:26:35.999Z</time></trkpt><trkpt lat="37.01689734389615" lon="14.674658606349512"><ele>419.0</ele><time>2026-05-03T09:26:36.999Z</time></trkpt><trkpt lat="37.016962393323894" lon="14.674708928106767"><ele>429.0</ele><time>2026-05-03T09:26:37.999Z</time></trkpt><trkpt lat="37.016833291985236" lon="14.675375303061411"><ele>429.0</ele><time>2026-05-03T09:26:38.999Z</time></trkpt><trkpt lat="37.01685256807953" lon="14.675501870189946"><ele>429.0</ele><time>2026-05-03T09:26:39.999Z</time></trkpt><trkpt lat="37.016864941144455" lon="14.67562695023836"><ele>429.0</ele><time>2026-05-03T09:26:40.999Z</time></trkpt><trkpt lat="37.0168558854542" lon="14.675753558170525"><ele>429.0</ele><time>2026-05-03T09:26:41.999Z</time></trkpt><trkpt lat="37.01682153638384" lon="14.67588030804657"><ele>429.0</ele><time>2026-05-03T09:26:42.999Z</time></trkpt><trkpt lat="37.01677217920363" lon="14.676018888522213"><ele>429.0</ele><time>2026-05-03T09:26:43.999Z</time></trkpt><trkpt lat="37.01670826446004" lon="14.676167026940306"><ele>429.0</ele><time>2026-05-03T09:26:44.999Z</time></trkpt><trkpt lat="37.01664397113018" lon="14.676327520412334"><ele>429.0</ele><time>2026-05-03T09:26:45.999Z</time></trkpt><trkpt lat="37.0166072531654" lon="14.676488906080294"><ele>429.0</ele><time>2026-05-03T09:26:46.999Z</time></trkpt><trkpt lat="37.01658893702438" lon="14.67666325646209"><ele>435.75</ele><time>2026-05-03T09:26:47.999Z</time></trkpt><trkpt lat="37.01659775661511" lon="14.676826833477099"><ele>442.5</ele><time>2026-05-03T09:26:48.999Z</time></trkpt><trkpt lat="37.01661290034904" lon="14.676965643445671"><ele>449.25</ele><time>2026-05-03T09:26:49.999Z</time></trkpt><trkpt lat="37.016624074505245" lon="14.677092271949196"><ele>456.0</ele><time>2026-05-03T09:26:50.999Z</time></trkpt><trkpt lat="37.016620879418156" lon="14.677241635496708"><ele>457.5</ele><time>2026-05-03T09:26:51.999Z</time></trkpt><trkpt lat="37.016615292718896" lon="14.677403869575887"><ele>459.0</ele><time>2026-05-03T09:26:52.999Z</time></trkpt><trkpt lat="37.016607186966255" lon="14.677554007081003"><ele>460.5</ele><time>2026-05-03T09:26:53.999Z</time></trkpt><trkpt lat="37.01658230940971" lon="14.677690886068731"><ele>462.0</ele><time>2026-05-03T09:26:54.999Z</time></trkpt><trkpt lat="37.016573543764515" lon="14.67780896018707"><ele>463.25</ele><time>2026-05-03T09:26:55.999Z</time></trkpt><trkpt lat="37.01659229993298" lon="14.677924301292553"><ele>464.5</ele><time>2026-05-03T09:26:56.999Z</time></trkpt><trkpt lat="37.01663675685243" lon="14.678055817238267"><ele>465.75</ele><time>2026-05-03T09:26:57.999Z</time></trkpt><trkpt lat="37.01669832235258" lon="14.678185548659444"><ele>467.0</ele><time>2026-05-03T09:26:58.999Z</time></trkpt><trkpt lat="37.016765515977866" lon="14.678315200516655"><ele>463.25</ele><time>2026-05-03T09:26:59.999Z</time></trkpt><trkpt lat="37.01680336146766" lon="14.67846634176252"><ele>459.5</ele><time>2026-05-03T09:27:00.999Z</time></trkpt><trkpt lat="37.0168262943836" lon="14.67863293211993"><ele>455.75</ele><time>2026-05-03T09:27:01.999Z</time></trkpt><trkpt lat="37.01684018290457" lon="14.678801682534534"><ele>452.0</ele><time>2026-05-03T09:27:02.999Z</time></trkpt><trkpt lat="37.01685240354636" lon="14.678961989221035"><ele>451.99999999999994</ele><time>2026-05-03T09:27:03.999Z</time></trkpt><trkpt lat="37.016864819479785" lon="14.67907352657212"><ele>452.0</ele><time>2026-05-03T09:27:04.999Z</time></trkpt><trkpt lat="37.0168705084779" lon="14.679152850299344"><ele>452.0</ele><time>2026-05-03T09:27:06.999Z</time></trkpt><trkpt lat="37.016854985464796" lon="14.679014753367085"><ele>452.0</ele><time>2026-05-03T09:27:12.999Z</time></trkpt><trkpt lat="37.01686165787812" lon="14.678932068552639"><ele>451.99999999999994</ele><time>2026-05-03T09:27:16Z</time></trkpt><trkpt lat="37.016916071648524" lon="14.679008497662284"><ele>452.0</ele><time>2026-05-03T09:27:20Z</time></trkpt><trkpt lat="37.01697615852164" lon="14.679110251182378"><ele>452.0</ele><time>2026-05-03T09:27:22Z</time></trkpt><trkpt lat="37.017014189369725" lon="14.679210837454248"><ele>452.00000000000006</ele><time>2026-05-03T09:27:25Z</time></trkpt><trkpt lat="37.01705479651039" lon="14.679282884183051"><ele>452.00000000000006</ele><time>2026-05-03T09:27:28Z</time></trkpt><trkpt lat="37.01712206644169" lon="14.679208102762066"><ele>452.0</ele><time>2026-05-03T09:27:31Z</time></trkpt><trkpt lat="37.01714991034619" lon="14.679068403765386"><ele>452.0</ele><time>2026-05-03T09:27:35Z</time></trkpt><trkpt lat="37.01725203808677" lon="14.679000272804176"><ele>452.0</ele><time>2026-05-03T09:27:36Z</time></trkpt><trkpt lat="37.01744629043404" lon="14.678662301383476"><ele>452.0</ele><time>2026-05-03T09:27:37Z</time></trkpt><trkpt lat="37.01747804743155" lon="14.67852174048461"><ele>452.0</ele><time>2026-05-03T09:27:39Z</time></trkpt><trkpt lat="37.017526924948996" lon="14.678422290777304"><ele>449.20000000000005</ele><time>2026-05-03T09:27:41Z</time></trkpt><trkpt lat="37.017533977764984" lon="14.678318573685392"><ele>446.40000000000003</ele><time>2026-05-03T09:27:58Z</time></trkpt><trkpt lat="37.01752016398206" lon="14.678170840058133"><ele>443.59999999999997</ele><time>2026-05-03T09:27:59Z</time></trkpt><trkpt lat="37.01752144995565" lon="14.678035476069473"><ele>440.79999999999995</ele><time>2026-05-03T09:28:00Z</time></trkpt><trkpt lat="37.01752508476847" lon="14.677901223315594"><ele>438.0</ele><time>2026-05-03T09:28:01Z</time></trkpt><trkpt lat="37.01754278051322" lon="14.677738154087393"><ele>436.59999999999997</ele><time>2026-05-03T09:28:02Z</time></trkpt><trkpt lat="37.01757520791065" lon="14.677583271667919"><ele>435.19999999999993</ele><time>2026-05-03T09:28:03Z</time></trkpt><trkpt lat="37.01760998335457" lon="14.677450183286224"><ele>433.8</ele><time>2026-05-03T09:28:04Z</time></trkpt><trkpt lat="37.017654924025905" lon="14.677325532677468"><ele>432.4</ele><time>2026-05-03T09:28:05Z</time></trkpt><trkpt lat="37.017685481880484" lon="14.67720996442933"><ele>431.0</ele><time>2026-05-03T09:28:06Z</time></trkpt><trkpt lat="37.01772769771448" lon="14.677110500708334"><ele>431.0</ele><time>2026-05-03T09:28:07Z</time></trkpt><trkpt lat="37.01780911366851" lon="14.677068971180647"><ele>431.0</ele><time>2026-05-03T09:28:09Z</time></trkpt><trkpt lat="37.017861794196286" lon="14.677164378924562"><ele>431.0</ele><time>2026-05-03T09:28:11Z</time></trkpt><trkpt lat="37.01789514692936" lon="14.677238650673921"><ele>431.0</ele><time>2026-05-03T09:28:13Z</time></trkpt><trkpt lat="37.01796952689914" lon="14.6773330574714"><ele>431.0</ele><time>2026-05-03T09:28:15Z</time></trkpt><trkpt lat="37.018036133386936" lon="14.67742824848173"><ele>431.0</ele><time>2026-05-03T09:28:17Z</time></trkpt><trkpt lat="37.018128867426846" lon="14.677438533827"><ele>431.0</ele><time>2026-05-03T09:28:19Z</time></trkpt><trkpt lat="37.01820633848748" lon="14.677445909120541"><ele>431.0</ele><time>2026-05-03T09:28:20Z</time></trkpt><trkpt lat="37.01828130640946" lon="14.677435038676599"><ele>431.0</ele><time>2026-05-03T09:28:21Z</time></trkpt><trkpt lat="37.01836446965391" lon="14.677421449746483"><ele>431.0</ele><time>2026-05-03T09:28:22Z</time></trkpt><trkpt lat="37.01848612223865" lon="14.677420916876892"><ele>434.0</ele><time>2026-05-03T09:28:23Z</time></trkpt><trkpt lat="37.01858949478718" lon="14.677430310896618"><ele>437.0</ele><time>2026-05-03T09:28:24Z</time></trkpt><trkpt lat="37.018684008339214" lon="14.677438301096979"><ele>440.0</ele><time>2026-05-03T09:28:25Z</time></trkpt><trkpt lat="37.018775335689924" lon="14.677462797384315"><ele>443.0</ele><time>2026-05-03T09:28:26Z</time></trkpt><trkpt lat="37.018848374264934" lon="14.67747726892949"><ele>446.0</ele><time>2026-05-03T09:28:27Z</time></trkpt><trkpt lat="37.01894821949667" lon="14.677464653284053"><ele>446.0</ele><time>2026-05-03T09:29:22Z</time></trkpt><trkpt lat="37.01900233971853" lon="14.677382564799558"><ele>446.0</ele><time>2026-05-03T09:29:24Z</time></trkpt><trkpt lat="37.0190687722424" lon="14.677286177497917"><ele>446.0</ele><time>2026-05-03T09:29:26Z</time></trkpt><trkpt lat="37.019125964402924" lon="14.677199596701252"><ele>446.0</ele><time>2026-05-03T09:29:28Z</time></trkpt><trkpt lat="37.01918248762654" lon="14.677113888254837"><ele>446.0</ele><time>2026-05-03T09:29:30Z</time></trkpt><trkpt lat="37.019234989884716" lon="14.677006659476664"><ele>440.20000000000005</ele><time>2026-05-03T09:29:32Z</time></trkpt><trkpt lat="37.01928140135056" lon="14.676915911565752"><ele>434.40000000000003</ele><time>2026-05-03T09:29:34Z</time></trkpt><trkpt lat="37.01932112342443" lon="14.676847027078823"><ele>428.6</ele><time>2026-05-03T09:29:36Z</time></trkpt><trkpt lat="37.019370493638526" lon="14.676771254586066"><ele>422.8</ele><time>2026-05-03T09:29:40Z</time></trkpt><trkpt lat="37.01941814003807" lon="14.676706303210242"><ele>417.0</ele><time>2026-05-03T09:29:43Z</time></trkpt><trkpt lat="37.01951695882204" lon="14.67652257556912"><ele>417.0</ele><time>2026-05-03T09:29:46Z</time></trkpt><trkpt lat="37.019578626047924" lon="14.676418645596778"><ele>417.0</ele><time>2026-05-03T09:29:48Z</time></trkpt><trkpt lat="37.01966413469584" lon="14.676344707216433"><ele>417.0</ele><time>2026-05-03T09:29:50Z</time></trkpt><trkpt lat="37.01974697044079" lon="14.67637026024674"><ele>417.0</ele><time>2026-05-03T09:29:52Z</time></trkpt><trkpt lat="37.0198008573149" lon="14.67642038016994"><ele>417.0</ele><time>2026-05-03T09:29:53Z</time></trkpt><trkpt lat="37.01986111717734" lon="14.676472428252136"><ele>417.0</ele><time>2026-05-03T09:29:54Z</time></trkpt><trkpt lat="37.01996293824322" lon="14.676554419377256"><ele>414.25</ele><time>2026-05-03T09:29:55Z</time></trkpt><trkpt lat="37.02008893075982" lon="14.676659665685666"><ele>411.5</ele><time>2026-05-03T09:29:56Z</time></trkpt><trkpt lat="37.020184987453064" lon="14.676724927831104"><ele>408.75</ele><time>2026-05-03T09:29:57Z</time></trkpt><trkpt lat="37.02027939048694" lon="14.676789777853543"><ele>406.0</ele><time>2026-05-03T09:29:58Z</time></trkpt><trkpt lat="37.020359741109466" lon="14.67686241759829"><ele>409.6</ele><time>2026-05-03T09:29:59Z</time></trkpt><trkpt lat="37.02037096141563" lon="14.677014658805497"><ele>413.20000000000005</ele><time>2026-05-03T09:30:01Z</time></trkpt><trkpt lat="37.0203429804293" lon="14.677109275651597"><ele>416.79999999999995</ele><time>2026-05-03T09:30:02Z</time></trkpt><trkpt lat="37.02029539798669" lon="14.67721647937987"><ele>420.4</ele><time>2026-05-03T09:30:03Z</time></trkpt><trkpt lat="37.02025780488146" lon="14.677308216989308"><ele>424.0</ele><time>2026-05-03T09:30:04Z</time></trkpt><trkpt lat="37.02021368340738" lon="14.677393761328156"><ele>424.00000000000006</ele><time>2026-05-03T09:30:05Z</time></trkpt><trkpt lat="37.02017938179875" lon="14.677470042570938"><ele>424.0</ele><time>2026-05-03T09:30:06Z</time></trkpt><trkpt lat="37.02012778732785" lon="14.677548804208499"><ele>424.0</ele><time>2026-05-03T09:30:07Z</time></trkpt><trkpt lat="37.020063372093716" lon="14.677669196626718"><ele>424.0</ele><time>2026-05-03T09:30:09Z</time></trkpt><trkpt lat="37.01999593056296" lon="14.677758644663271"><ele>424.00000000000006</ele><time>2026-05-03T09:30:11Z</time></trkpt><trkpt lat="37.019963652929256" lon="14.67782639090194"><ele>424.0</ele><time>2026-05-03T09:30:12Z</time></trkpt><trkpt lat="37.01990849235278" lon="14.677902572850138"><ele>427.79999999999995</ele><time>2026-05-03T09:30:14Z</time></trkpt><trkpt lat="37.01988076382121" lon="14.67800069388052"><ele>431.59999999999997</ele><time>2026-05-03T09:30:16Z</time></trkpt><trkpt lat="37.01989432925774" lon="14.678128342434924"><ele>435.4</ele><time>2026-05-03T09:30:18Z</time></trkpt><trkpt lat="37.01992762628549" lon="14.678244704399793"><ele>439.2</ele><time>2026-05-03T09:30:20Z</time></trkpt><trkpt lat="37.019962247093794" lon="14.678338164478033"><ele>443.0</ele><time>2026-05-03T09:30:22Z</time></trkpt><trkpt lat="37.01998798027439" lon="14.67847273397177"><ele>442.99999999999994</ele><time>2026-05-03T09:30:24Z</time></trkpt><trkpt lat="37.019985358712624" lon="14.678561020410113"><ele>443.0</ele><time>2026-05-03T09:30:26Z</time></trkpt><trkpt lat="37.020033624179966" lon="14.678629312136458"><ele>443.0</ele><time>2026-05-03T09:30:28Z</time></trkpt><trkpt lat="37.020082011061625" lon="14.678700568311449"><ele>443.0</ele><time>2026-05-03T09:30:30Z</time></trkpt><trkpt lat="37.02010258059208" lon="14.678789134535915"><ele>442.99999999999994</ele><time>2026-05-03T09:30:31Z</time></trkpt><trkpt lat="37.0201131341311" lon="14.678885204645688"><ele>443.0</ele><time>2026-05-03T09:30:32Z</time></trkpt><trkpt lat="37.02019733588293" lon="14.678937368955562"><ele>446.66666666666663</ele><time>2026-05-03T09:30:34Z</time></trkpt><trkpt lat="37.02025650636435" lon="14.678992955310278"><ele>450.3333333333333</ele><time>2026-05-03T09:30:35Z</time></trkpt><trkpt lat="37.02034596929864" lon="14.679082477705203"><ele>454.0</ele><time>2026-05-03T09:30:37Z</time></trkpt><trkpt lat="37.02040074544575" lon="14.679129139579349"><ele>457.66666666666663</ele><time>2026-05-03T09:30:38Z</time></trkpt><trkpt lat="37.020468313273014" lon="14.679183838326953"><ele>461.3333333333333</ele><time>2026-05-03T09:30:38.999Z</time></trkpt><trkpt lat="37.02054000337608" lon="14.67924511826553"><ele>465.0</ele><time>2026-05-03T09:30:39.999Z</time></trkpt><trkpt lat="37.020634888334065" lon="14.67928730612999"><ele>465.0</ele><time>2026-05-03T09:30:40.999Z</time></trkpt><trkpt lat="37.02072948991712" lon="14.679316807821248"><ele>465.0</ele><time>2026-05-03T09:30:41.999Z</time></trkpt><trkpt lat="37.020799177236526" lon="14.679362671774632"><ele>465.0</ele><time>2026-05-03T09:30:42.999Z</time></trkpt><trkpt lat="37.02087378313706" lon="14.679382523815237"><ele>465.0</ele><time>2026-05-03T09:30:43.999Z</time></trkpt><trkpt lat="37.02094488732976" lon="14.67940288677479"><ele>465.0</ele><time>2026-05-03T09:30:44.999Z</time></trkpt><trkpt lat="37.02100937401437" lon="14.67941880893564"><ele>465.0</ele><time>2026-05-03T09:30:45.999Z</time></trkpt><trkpt lat="37.02111650894431" lon="14.679446408932812"><ele>466.1428571428571</ele><time>2026-05-03T09:30:47.999Z</time></trkpt><trkpt lat="37.02117673358431" lon="14.679475763225373"><ele>467.28571428571433</ele><time>2026-05-03T09:30:48.999Z</time></trkpt><trkpt lat="37.021238990940915" lon="14.679516981310273"><ele>468.42857142857144</ele><time>2026-05-03T09:30:49.999Z</time></trkpt><trkpt lat="37.02129788841841" lon="14.6795530687828"><ele>469.57142857142856</ele><time>2026-05-03T09:30:50.999Z</time></trkpt><trkpt lat="37.021365915574144" lon="14.679588443014008"><ele>470.71428571428567</ele><time>2026-05-03T09:30:51.999Z</time></trkpt><trkpt lat="37.021439199262744" lon="14.679627017335545"><ele>471.8571428571429</ele><time>2026-05-03T09:30:52.999Z</time></trkpt><trkpt lat="37.0215017252582" lon="14.6796540855799"><ele>473.0</ele><time>2026-05-03T09:30:53.999Z</time></trkpt><trkpt lat="37.0215684886383" lon="14.679686369032115"><ele>473.0</ele><time>2026-05-03T09:30:54.999Z</time></trkpt><trkpt lat="37.02163192885459" lon="14.679730885378119"><ele>472.99999999999994</ele><time>2026-05-03T09:30:55.999Z</time></trkpt><trkpt lat="37.021706232006224" lon="14.679782534949721"><ele>472.99999999999994</ele><time>2026-05-03T09:30:56.999Z</time></trkpt><trkpt lat="37.021790361474785" lon="14.67982875861223"><ele>473.0</ele><time>2026-05-03T09:30:57.999Z</time></trkpt><trkpt lat="37.02189401746553" lon="14.6798611782644"><ele>473.0</ele><time>2026-05-03T09:30:58.999Z</time></trkpt><trkpt lat="37.021998544906495" lon="14.679902121778486"><ele>469.59999999999997</ele><time>2026-05-03T09:30:59.999Z</time></trkpt><trkpt lat="37.02210283016651" lon="14.6799547310901"><ele>466.19999999999993</ele><time>2026-05-03T09:31:00.999Z</time></trkpt><trkpt lat="37.02220231034415" lon="14.679999319582267"><ele>462.8</ele><time>2026-05-03T09:31:01.999Z</time></trkpt><trkpt lat="37.02228893649118" lon="14.680036040453185"><ele>459.4</ele><time>2026-05-03T09:31:02.999Z</time></trkpt><trkpt lat="37.022363054103984" lon="14.680082082709331"><ele>456.0</ele><time>2026-05-03T09:31:03.999Z</time></trkpt><trkpt lat="37.02243778269708" lon="14.680136220255015"><ele>456.6666666666667</ele><time>2026-05-03T09:31:04.999Z</time></trkpt><trkpt lat="37.02251290113833" lon="14.680198373319882"><ele>457.33333333333337</ele><time>2026-05-03T09:31:05.999Z</time></trkpt><trkpt lat="37.02256790393627" lon="14.680254955463802"><ele>458.0</ele><time>2026-05-03T09:31:06.999Z</time></trkpt><trkpt lat="37.02261938692836" lon="14.680314891775389"><ele>458.6666666666667</ele><time>2026-05-03T09:31:07.999Z</time></trkpt><trkpt lat="37.02266144992427" lon="14.680375535121364"><ele>459.33333333333337</ele><time>2026-05-03T09:31:08.999Z</time></trkpt><trkpt lat="37.02272994942756" lon="14.680411524825871"><ele>460.0</ele><time>2026-05-03T09:31:10.999Z</time></trkpt><trkpt lat="37.022805447202316" lon="14.680349157848266"><ele>456.8</ele><time>2026-05-03T09:31:12.999Z</time></trkpt><trkpt lat="37.0228474965674" lon="14.680204882955291"><ele>453.6</ele><time>2026-05-03T09:31:14.999Z</time></trkpt><trkpt lat="37.022915894435705" lon="14.680089259057398"><ele>450.4</ele><time>2026-05-03T09:31:16.999Z</time></trkpt><trkpt lat="37.02295787416667" lon="14.6799942775012"><ele>447.2</ele><time>2026-05-03T09:31:19.999Z</time></trkpt><trkpt lat="37.02301037198766" lon="14.679925107835576"><ele>444.0</ele><time>2026-05-03T09:31:21.999Z</time></trkpt><trkpt lat="37.02309256728643" lon="14.67982575292585"><ele>444.0</ele><time>2026-05-03T09:31:23.999Z</time></trkpt><trkpt lat="37.02315627473182" lon="14.67976796576155"><ele>444.0</ele><time>2026-05-03T09:31:24.999Z</time></trkpt><trkpt lat="37.023263787289764" lon="14.679763894314291"><ele>444.0</ele><time>2026-05-03T09:31:27Z</time></trkpt><trkpt lat="37.02335058245313" lon="14.67986308448103"><ele>444.0</ele><time>2026-05-03T09:31:29Z</time></trkpt><trkpt lat="37.02341997191705" lon="14.679918867054676"><ele>444.0</ele><time>2026-05-03T09:31:30Z</time></trkpt><trkpt lat="37.02350902573205" lon="14.679977260274727"><ele>445.2</ele><time>2026-05-03T09:31:31Z</time></trkpt><trkpt lat="37.02359879824467" lon="14.680044021210488"><ele>446.4</ele><time>2026-05-03T09:31:32Z</time></trkpt><trkpt lat="37.02368610766056" lon="14.680115293923935"><ele>447.6</ele><time>2026-05-03T09:31:33Z</time></trkpt><trkpt lat="37.023776443797935" lon="14.680189202304117"><ele>448.8</ele><time>2026-05-03T09:31:34Z</time></trkpt><trkpt lat="37.023865797452636" lon="14.680266851998047"><ele>450.0</ele><time>2026-05-03T09:31:35Z</time></trkpt><trkpt lat="37.02394006691102" lon="14.680343948418624"><ele>450.0</ele><time>2026-05-03T09:31:36Z</time></trkpt><trkpt lat="37.02399724761479" lon="14.680419555268596"><ele>450.0</ele><time>2026-05-03T09:31:37Z</time></trkpt><trkpt lat="37.02405322386413" lon="14.680503273915997"><ele>450.0</ele><time>2026-05-03T09:31:38Z</time></trkpt><trkpt lat="37.02409000465394" lon="14.68057190755886"><ele>450.0</ele><time>2026-05-03T09:31:39Z</time></trkpt><trkpt lat="37.02413816321423" lon="14.680632061933903"><ele>450.0</ele><time>2026-05-03T09:31:40Z</time></trkpt><trkpt lat="37.02425328008998" lon="14.680688081423622"><ele>450.0</ele><time>2026-05-03T09:31:42Z</time></trkpt><trkpt lat="37.02431693768384" lon="14.680693514895"><ele>447.1666666666667</ele><time>2026-05-03T09:31:43Z</time></trkpt><trkpt lat="37.02436284288546" lon="14.680818384657924"><ele>444.33333333333337</ele><time>2026-05-03T09:31:45Z</time></trkpt><trkpt lat="37.02435967508841" lon="14.680905592489378"><ele>441.5</ele><time>2026-05-03T09:31:46Z</time></trkpt><trkpt lat="37.024362728356614" lon="14.681014277044058"><ele>438.6666666666667</ele><time>2026-05-03T09:31:47Z</time></trkpt><trkpt lat="37.02434815899921" lon="14.681107564044275"><ele>435.83333333333337</ele><time>2026-05-03T09:31:48Z</time></trkpt><trkpt lat="37.02430778244721" lon="14.681184965741416"><ele>433.0</ele><time>2026-05-03T09:31:49Z</time></trkpt><trkpt lat="37.02422118222844" lon="14.681243201341346"><ele>433.0</ele><time>2026-05-03T09:31:50Z</time></trkpt><trkpt lat="37.02419983271985" lon="14.681361110753759"><ele>432.99999999999994</ele><time>2026-05-03T09:31:51Z</time></trkpt><trkpt lat="37.02417791568101" lon="14.681461544065925"><ele>432.99999999999994</ele><time>2026-05-03T09:31:52Z</time></trkpt><trkpt lat="37.024223540056454" lon="14.68157848059704"><ele>433.0</ele><time>2026-05-03T09:31:53Z</time></trkpt><trkpt lat="37.02425850161975" lon="14.681700132288466"><ele>433.0</ele><time>2026-05-03T09:31:54Z</time></trkpt><trkpt lat="37.024276924096526" lon="14.681830447366513"><ele>434.0</ele><time>2026-05-03T09:31:55Z</time></trkpt><trkpt lat="37.02431791580223" lon="14.681964131859313"><ele>435.0</ele><time>2026-05-03T09:31:56Z</time></trkpt><trkpt lat="37.02435753574992" lon="14.682106293206918"><ele>436.0</ele><time>2026-05-03T09:31:57Z</time></trkpt><trkpt lat="37.02439580679426" lon="14.682248946556852"><ele>437.0</ele><time>2026-05-03T09:31:58Z</time></trkpt><trkpt lat="37.02444515769431" lon="14.68239112171788"><ele>437.0</ele><time>2026-05-03T09:31:59Z</time></trkpt><trkpt lat="37.0244939434639" lon="14.682524736245693"><ele>437.0</ele><time>2026-05-03T09:32:00Z</time></trkpt><trkpt lat="37.02454077234364" lon="14.682654388386567"><ele>437.0</ele><time>2026-05-03T09:32:01Z</time></trkpt><trkpt lat="37.02459092564862" lon="14.68278492433749"><ele>437.0</ele><time>2026-05-03T09:32:02Z</time></trkpt><trkpt lat="37.02462061865249" lon="14.682927347289205"><ele>438.0</ele><time>2026-05-03T09:32:03Z</time></trkpt><trkpt lat="37.02467891956981" lon="14.683057185217"><ele>439.0</ele><time>2026-05-03T09:32:04Z</time></trkpt><trkpt lat="37.024759821704876" lon="14.68317200968409"><ele>440.0</ele><time>2026-05-03T09:32:05Z</time></trkpt><trkpt lat="37.024816892093135" lon="14.683278848818896"><ele>441.0</ele><time>2026-05-03T09:32:06Z</time></trkpt><trkpt lat="37.024876344209424" lon="14.683389045037398"><ele>441.0</ele><time>2026-05-03T09:32:07Z</time></trkpt><trkpt lat="37.024936875076754" lon="14.683502181494093"><ele>441.0</ele><time>2026-05-03T09:32:08Z</time></trkpt><trkpt lat="37.024997696418176" lon="14.683618277665978"><ele>441.0</ele><time>2026-05-03T09:32:09Z</time></trkpt><trkpt lat="37.0250621026933" lon="14.683729910698498"><ele>441.0</ele><time>2026-05-03T09:32:10Z</time></trkpt><trkpt lat="37.02510581537559" lon="14.683867353961645"><ele>441.0</ele><time>2026-05-03T09:32:11Z</time></trkpt><trkpt lat="37.025156104114636" lon="14.684001064861045"><ele>443.75</ele><time>2026-05-03T09:32:12Z</time></trkpt><trkpt lat="37.025202452909" lon="14.684133596088223"><ele>446.5</ele><time>2026-05-03T09:32:13Z</time></trkpt><trkpt lat="37.025241323089325" lon="14.68426456331857"><ele>449.25</ele><time>2026-05-03T09:32:14Z</time></trkpt><trkpt lat="37.02529059803974" lon="14.684393926739665"><ele>452.0</ele><time>2026-05-03T09:32:15Z</time></trkpt><trkpt lat="37.02534222887889" lon="14.6845321608727"><ele>454.20000000000005</ele><time>2026-05-03T09:32:16Z</time></trkpt><trkpt lat="37.025390650124024" lon="14.684659523929229"><ele>456.40000000000003</ele><time>2026-05-03T09:32:17Z</time></trkpt><trkpt lat="37.02544234310741" lon="14.684761372095508"><ele>458.59999999999997</ele><time>2026-05-03T09:32:18Z</time></trkpt><trkpt lat="37.02549680037563" lon="14.684837901089955"><ele>460.79999999999995</ele><time>2026-05-03T09:32:19Z</time></trkpt><trkpt lat="37.025538942577434" lon="14.684904289940174"><ele>463.0</ele><time>2026-05-03T09:32:20Z</time></trkpt><trkpt lat="37.02560008021699" lon="14.685010517057535"><ele>463.0</ele><time>2026-05-03T09:32:22Z</time></trkpt><trkpt lat="37.0255887659715" lon="14.68510809848067"><ele>463.0</ele><time>2026-05-03T09:32:25Z</time></trkpt><trkpt lat="37.02556653123852" lon="14.68521266619388"><ele>463.0</ele><time>2026-05-03T09:32:28Z</time></trkpt><trkpt lat="37.02553372709108" lon="14.685301050711619"><ele>463.0</ele><time>2026-05-03T09:32:30Z</time></trkpt><trkpt lat="37.02582154067317" lon="14.685435587247962"><ele>463.50000000000006</ele><time>2026-05-03T09:32:45.999Z</time></trkpt><trkpt lat="37.025891239188574" lon="14.685412473357227"><ele>464.0</ele><time>2026-05-03T09:32:48.999Z</time></trkpt><trkpt lat="37.02595443565991" lon="14.685422498364902"><ele>464.5</ele><time>2026-05-03T09:32:50.999Z</time></trkpt><trkpt lat="37.02603168258173" lon="14.685418388325964"><ele>465.0</ele><time>2026-05-03T09:32:53.999Z</time></trkpt><trkpt lat="37.026148169367254" lon="14.68539336539968"><ele>465.50000000000006</ele><time>2026-05-03T09:32:55.999Z</time></trkpt><trkpt lat="37.02624031681991" lon="14.685405525446358"><ele>466.0</ele><time>2026-05-03T09:32:57.999Z</time></trkpt><trkpt lat="37.02632555388824" lon="14.685422293165916"><ele>466.00000000000006</ele><time>2026-05-03T09:32:59.999Z</time></trkpt><trkpt lat="37.026398998665115" lon="14.685473732193492"><ele>466.0</ele><time>2026-05-03T09:33:01.999Z</time></trkpt><trkpt lat="37.026482545871104" lon="14.685466345524507"><ele>466.0</ele><time>2026-05-03T09:33:03.999Z</time></trkpt><trkpt lat="37.02656252570936" lon="14.685484428144598"><ele>466.0</ele><time>2026-05-03T09:33:05.999Z</time></trkpt><trkpt lat="37.0266323508777" lon="14.685537788527322"><ele>466.00000000000006</ele><time>2026-05-03T09:33:07.999Z</time></trkpt><trkpt lat="37.02671180555058" lon="14.685594376085929"><ele>466.0</ele><time>2026-05-03T09:33:09.999Z</time></trkpt><trkpt lat="37.026777963308625" lon="14.685649789596056"><ele>466.33333333333337</ele><time>2026-05-03T09:33:11.999Z</time></trkpt><trkpt lat="37.02685503784649" lon="14.685716595372801"><ele>466.6666666666667</ele><time>2026-05-03T09:33:13.999Z</time></trkpt><trkpt lat="37.026934975820375" lon="14.685763051454973"><ele>467.0</ele><time>2026-05-03T09:33:15.999Z</time></trkpt><trkpt lat="37.02698958241047" lon="14.68581281267868"><ele>467.33333333333337</ele><time>2026-05-03T09:33:17.999Z</time></trkpt><trkpt lat="37.027058581201516" lon="14.685882925566533"><ele>467.6666666666667</ele><time>2026-05-03T09:33:19.999Z</time></trkpt><trkpt lat="37.02713487860589" lon="14.685935830431843"><ele>468.0</ele><time>2026-05-03T09:33:22.999Z</time></trkpt><trkpt lat="37.027219292125594" lon="14.685940907233054"><ele>468.0</ele><time>2026-05-03T09:33:24.999Z</time></trkpt><trkpt lat="37.027287065776214" lon="14.686021428297545"><ele>467.99999999999994</ele><time>2026-05-03T09:33:26.999Z</time></trkpt><trkpt lat="37.02735215589317" lon="14.686108883882962"><ele>467.99999999999994</ele><time>2026-05-03T09:33:28.999Z</time></trkpt><trkpt lat="37.02740377683914" lon="14.686198010901268"><ele>468.0</ele><time>2026-05-03T09:33:30.999Z</time></trkpt><trkpt lat="37.02745987324122" lon="14.686266131956216"><ele>468.0</ele><time>2026-05-03T09:33:33Z</time></trkpt><trkpt lat="37.02762290657215" lon="14.68635259207878"><ele>470.6666666666667</ele><time>2026-05-03T09:33:37Z</time></trkpt><trkpt lat="37.02767576867954" lon="14.686421745260903"><ele>473.33333333333337</ele><time>2026-05-03T09:33:40Z</time></trkpt><trkpt lat="37.027741449964516" lon="14.68645491522597"><ele>476.0</ele><time>2026-05-03T09:33:42Z</time></trkpt><trkpt lat="37.02785631068238" lon="14.686502366204458"><ele>478.6666666666667</ele><time>2026-05-03T09:33:44Z</time></trkpt><trkpt lat="37.02786505660769" lon="14.6865958602087"><ele>481.33333333333337</ele><time>2026-05-03T09:33:45Z</time></trkpt><trkpt lat="37.02793826219298" lon="14.686578422136838"><ele>484.0</ele><time>2026-05-03T09:33:47Z</time></trkpt><trkpt lat="37.028055751787605" lon="14.686619577225535"><ele>484.0</ele><time>2026-05-03T09:33:49Z</time></trkpt><trkpt lat="37.028139198241306" lon="14.686614990549124"><ele>484.0</ele><time>2026-05-03T09:33:50Z</time></trkpt><trkpt lat="37.02821637469158" lon="14.686622922831884"><ele>484.0</ele><time>2026-05-03T09:33:51Z</time></trkpt><trkpt lat="37.02828641383366" lon="14.686619525419594"><ele>484.0</ele><time>2026-05-03T09:33:52Z</time></trkpt><trkpt lat="37.028395730521666" lon="14.686671524782456"><ele>484.0</ele><time>2026-05-03T09:33:54Z</time></trkpt><trkpt lat="37.02850519309951" lon="14.6867200283299"><ele>484.6666666666667</ele><time>2026-05-03T09:33:56Z</time></trkpt><trkpt lat="37.02856825669939" lon="14.686774210466663"><ele>485.33333333333337</ele><time>2026-05-03T09:33:57Z</time></trkpt><trkpt lat="37.028625932062795" lon="14.68682773940964"><ele>486.0</ele><time>2026-05-03T09:33:58Z</time></trkpt><trkpt lat="37.02866637835606" lon="14.686893652089385"><ele>486.66666666666663</ele><time>2026-05-03T09:33:59Z</time></trkpt><trkpt lat="37.028755208038234" lon="14.687012516064952"><ele>487.3333333333333</ele><time>2026-05-03T09:34:01Z</time></trkpt><trkpt lat="37.02881245634519" lon="14.687083030222594"><ele>488.0</ele><time>2026-05-03T09:34:02Z</time></trkpt><trkpt lat="37.02888764265265" lon="14.687087587242981"><ele>489.66666666666663</ele><time>2026-05-03T09:34:03Z</time></trkpt><trkpt lat="37.02899857909022" lon="14.68712804718561"><ele>491.3333333333333</ele><time>2026-05-03T09:34:05Z</time></trkpt><trkpt lat="37.02905991564097" lon="14.687170851217939"><ele>493.0</ele><time>2026-05-03T09:34:06Z</time></trkpt><trkpt lat="37.02912641120268" lon="14.687210621385567"><ele>494.66666666666663</ele><time>2026-05-03T09:34:07Z</time></trkpt><trkpt lat="37.02917208224537" lon="14.687264965928119"><ele>496.3333333333333</ele><time>2026-05-03T09:34:08Z</time></trkpt><trkpt lat="37.029230901542384" lon="14.687341608978516"><ele>498.0</ele><time>2026-05-03T09:34:09Z</time></trkpt><trkpt lat="37.029295920074865" lon="14.687408384456262"><ele>498.0</ele><time>2026-05-03T09:34:10Z</time></trkpt><trkpt lat="37.029352189175" lon="14.687460116048412"><ele>498.0</ele><time>2026-05-03T09:34:11Z</time></trkpt><trkpt lat="37.029438833772325" lon="14.687543852400799"><ele>498.0</ele><time>2026-05-03T09:34:13Z</time></trkpt><trkpt lat="37.02949101546801" lon="14.687588984411871"><ele>498.0</ele><time>2026-05-03T09:34:14Z</time></trkpt><trkpt lat="37.029544721074586" lon="14.687633278218804"><ele>498.0</ele><time>2026-05-03T09:34:15Z</time></trkpt><trkpt lat="37.0295973258822" lon="14.687680029023491"><ele>498.0</ele><time>2026-05-03T09:34:16Z</time></trkpt><trkpt lat="37.029666849084755" lon="14.687741175121488"><ele>497.1666666666667</ele><time>2026-05-03T09:34:17Z</time></trkpt><trkpt lat="37.029737728248044" lon="14.687790281289166"><ele>496.33333333333337</ele><time>2026-05-03T09:34:18Z</time></trkpt><trkpt lat="37.02980096413956" lon="14.687841799174809"><ele>495.5</ele><time>2026-05-03T09:34:19Z</time></trkpt><trkpt lat="37.02985222093415" lon="14.687903939900009"><ele>494.6666666666667</ele><time>2026-05-03T09:34:20Z</time></trkpt><trkpt lat="37.029939322005" lon="14.687995660409944"><ele>493.83333333333337</ele><time>2026-05-03T09:34:22Z</time></trkpt><trkpt lat="37.02999209350487" lon="14.688044294270327"><ele>493.0</ele><time>2026-05-03T09:34:23Z</time></trkpt><trkpt lat="37.0300424788901" lon="14.688166192759983"><ele>493.00000000000006</ele><time>2026-05-03T09:34:25Z</time></trkpt><trkpt lat="37.030054733646075" lon="14.688260752347489"><ele>493.0</ele><time>2026-05-03T09:34:27Z</time></trkpt><trkpt lat="37.03008218869708" lon="14.688351022942468"><ele>493.0</ele><time>2026-05-03T09:34:30Z</time></trkpt><trkpt lat="37.03008429607372" lon="14.688470359998284"><ele>493.0</ele><time>2026-05-03T09:34:32Z</time></trkpt><trkpt lat="37.03012483999439" lon="14.688551414462216"><ele>493.00000000000006</ele><time>2026-05-03T09:34:35Z</time></trkpt><trkpt lat="37.03015963645915" lon="14.688642674006976"><ele>493.0</ele><time>2026-05-03T09:34:37Z</time></trkpt><trkpt lat="37.03021112663176" lon="14.688737715606278"><ele>493.59999999999997</ele><time>2026-05-03T09:34:39Z</time></trkpt><trkpt lat="37.03025342714382" lon="14.688836697128325"><ele>494.19999999999993</ele><time>2026-05-03T09:34:41Z</time></trkpt><trkpt lat="37.03026747739907" lon="14.688955518969207"><ele>494.8</ele><time>2026-05-03T09:34:43Z</time></trkpt><trkpt lat="37.03025136977717" lon="14.689068936451386"><ele>495.4</ele><time>2026-05-03T09:34:44.999Z</time></trkpt><trkpt lat="37.03027239187702" lon="14.689175333046574"><ele>496.0</ele><time>2026-05-03T09:34:46.999Z</time></trkpt><trkpt lat="37.03042305483634" lon="14.689187243379338"><ele>496.00000000000006</ele><time>2026-05-03T09:34:49.999Z</time></trkpt><trkpt lat="37.03048911526908" lon="14.68925064608248"><ele>496.0</ele><time>2026-05-03T09:34:51.999Z</time></trkpt><trkpt lat="37.03054497424447" lon="14.689299351221317"><ele>496.0</ele><time>2026-05-03T09:34:53.999Z</time></trkpt><trkpt lat="37.03059675845175" lon="14.689345099371817"><ele>496.0</ele><time>2026-05-03T09:34:55.999Z</time></trkpt><trkpt lat="37.03065357659184" lon="14.68941186799701"><ele>496.00000000000006</ele><time>2026-05-03T09:34:57.999Z</time></trkpt><trkpt lat="37.03073105218451" lon="14.689499257136033"><ele>496.0</ele><time>2026-05-03T09:35:00.999Z</time></trkpt><trkpt lat="37.03078288759242" lon="14.68955320757329"><ele>497.00000000000006</ele><time>2026-05-03T09:35:02.999Z</time></trkpt><trkpt lat="37.03083812973255" lon="14.68959539649974"><ele>498.0</ele><time>2026-05-03T09:35:04.999Z</time></trkpt><trkpt lat="37.030896056793125" lon="14.68964285280653"><ele>499.0</ele><time>2026-05-03T09:35:06.999Z</time></trkpt><trkpt lat="37.030967204267675" lon="14.68967578313642"><ele>500.0</ele><time>2026-05-03T09:35:08.999Z</time></trkpt><trkpt lat="37.03102438901174" lon="14.689779022399145"><ele>501.00000000000006</ele><time>2026-05-03T09:35:10.999Z</time></trkpt><trkpt lat="37.031080276108014" lon="14.689854369690346"><ele>502.0</ele><time>2026-05-03T09:35:11.999Z</time></trkpt><trkpt lat="37.03115890857826" lon="14.689937671559116"><ele>502.0</ele><time>2026-05-03T09:35:12.999Z</time></trkpt><trkpt lat="37.03123896974654" lon="14.690010793697763"><ele>502.00000000000006</ele><time>2026-05-03T09:35:13.999Z</time></trkpt><trkpt lat="37.031317294061175" lon="14.690106453102956"><ele>502.00000000000006</ele><time>2026-05-03T09:35:14.999Z</time></trkpt><trkpt lat="37.031390070504635" lon="14.690186756066742"><ele>502.0</ele><time>2026-05-03T09:35:15.999Z</time></trkpt><trkpt lat="37.0314771512701" lon="14.690255424085873"><ele>502.0</ele><time>2026-05-03T09:35:16.999Z</time></trkpt><trkpt lat="37.03156916608068" lon="14.690301675828552"><ele>502.8</ele><time>2026-05-03T09:35:17.999Z</time></trkpt><trkpt lat="37.031677376584035" lon="14.690346785727021"><ele>503.6</ele><time>2026-05-03T09:35:18.999Z</time></trkpt><trkpt lat="37.031767211826654" lon="14.690414896370497"><ele>504.40000000000003</ele><time>2026-05-03T09:35:19.999Z</time></trkpt><trkpt lat="37.03184678289737" lon="14.690487011724574"><ele>505.20000000000005</ele><time>2026-05-03T09:35:20.999Z</time></trkpt><trkpt lat="37.031915778833906" lon="14.690566859210586"><ele>506.0</ele><time>2026-05-03T09:35:21.999Z</time></trkpt><trkpt lat="37.03198902770892" lon="14.690628085777405"><ele>506.0</ele><time>2026-05-03T09:35:22.999Z</time></trkpt><trkpt lat="37.032032205730964" lon="14.690714928068266"><ele>506.0</ele><time>2026-05-03T09:35:24.999Z</time></trkpt><trkpt lat="37.03209262186334" lon="14.690776441656453"><ele>506.0</ele><time>2026-05-03T09:35:26.999Z</time></trkpt><trkpt lat="37.0320283976519" lon="14.690928652338691"><ele>506.0</ele><time>2026-05-03T09:35:27.999Z</time></trkpt><trkpt lat="37.03198293965373" lon="14.691033949642573"><ele>506.0</ele><time>2026-05-03T09:35:28.999Z</time></trkpt><trkpt lat="37.03194547814888" lon="14.691151146757216"><ele>507.20000000000005</ele><time>2026-05-03T09:35:29.999Z</time></trkpt><trkpt lat="37.03192012202795" lon="14.691292607900666"><ele>508.40000000000003</ele><time>2026-05-03T09:35:30.999Z</time></trkpt><trkpt lat="37.03190975817811" lon="14.691400884411516"><ele>509.6</ele><time>2026-05-03T09:35:31.999Z</time></trkpt><trkpt lat="37.03194098149215" lon="14.691544359374749"><ele>510.8</ele><time>2026-05-03T09:35:34.999Z</time></trkpt><trkpt lat="37.03190168292546" lon="14.691650406117564"><ele>512.0</ele><time>2026-05-03T09:35:35.999Z</time></trkpt><trkpt lat="37.03186447137768" lon="14.691729850810999"><ele>512.0</ele><time>2026-05-03T09:35:36.999Z</time></trkpt><trkpt lat="37.031831320582455" lon="14.691800625962832"><ele>512.0</ele><time>2026-05-03T09:35:37.999Z</time></trkpt><trkpt lat="37.03153089288342" lon="14.69162675261579"><ele>512.0</ele><time>2026-05-03T09:35:40Z</time></trkpt><trkpt lat="37.03149142030418" lon="14.691560091099394"><ele>515.3333333333333</ele><time>2026-05-03T09:35:41Z</time></trkpt><trkpt lat="37.03145959114684" lon="14.69148276396765"><ele>518.6666666666666</ele><time>2026-05-03T09:35:42Z</time></trkpt><trkpt lat="37.031353797757774" lon="14.691429590148324"><ele>522.0</ele><time>2026-05-03T09:35:44Z</time></trkpt><trkpt lat="37.031287107828334" lon="14.69145983313222"><ele>525.3333333333334</ele><time>2026-05-03T09:35:45Z</time></trkpt><trkpt lat="37.031219569510625" lon="14.691504013555907"><ele>528.6666666666667</ele><time>2026-05-03T09:35:46Z</time></trkpt><trkpt lat="37.03112202052365" lon="14.691558685375545"><ele>532.0</ele><time>2026-05-03T09:35:48Z</time></trkpt><trkpt lat="37.03105390911146" lon="14.691554020695417"><ele>532.0</ele><time>2026-05-03T09:35:49Z</time></trkpt><trkpt lat="37.030970018266345" lon="14.691620068540727"><ele>532.0</ele><time>2026-05-03T09:35:51Z</time></trkpt><trkpt lat="37.03085590703379" lon="14.691668360894617"><ele>532.0</ele><time>2026-05-03T09:35:53Z</time></trkpt><trkpt lat="37.03078278953589" lon="14.691692338951173"><ele>532.0</ele><time>2026-05-03T09:35:54Z</time></trkpt><trkpt lat="37.030714477591275" lon="14.691763301798321"><ele>532.0</ele><time>2026-05-03T09:35:56Z</time></trkpt><trkpt lat="37.030637863408884" lon="14.691846577761744"><ele>534.5</ele><time>2026-05-03T09:35:59Z</time></trkpt><trkpt lat="37.03057970220768" lon="14.69192165757884"><ele>537.0</ele><time>2026-05-03T09:36:00Z</time></trkpt><trkpt lat="37.03051593193634" lon="14.691983852266569"><ele>539.5</ele><time>2026-05-03T09:36:01Z</time></trkpt><trkpt lat="37.030448813658246" lon="14.692039836991372"><ele>542.0</ele><time>2026-05-03T09:36:03Z</time></trkpt><trkpt lat="37.03041267057256" lon="14.692108460764311"><ele>544.5</ele><time>2026-05-03T09:36:05Z</time></trkpt><trkpt lat="37.03037789681091" lon="14.692186684190412"><ele>547.0</ele><time>2026-05-03T09:36:08Z</time></trkpt><trkpt lat="37.03032513410181" lon="14.692276136546722"><ele>549.6666666666667</ele><time>2026-05-03T09:36:12Z</time></trkpt><trkpt lat="37.03023747934159" lon="14.692295652887605"><ele>552.3333333333334</ele><time>2026-05-03T09:36:14Z</time></trkpt><trkpt lat="37.03017760581484" lon="14.69237140254799"><ele>555.0</ele><time>2026-05-03T09:36:18Z</time></trkpt><trkpt lat="37.03010106303272" lon="14.692420808703908"><ele>557.6666666666666</ele><time>2026-05-03T09:36:21Z</time></trkpt><trkpt lat="37.030165184125856" lon="14.692409628567843"><ele>560.3333333333333</ele><time>2026-05-03T09:37:51Z</time></trkpt><trkpt lat="37.030227139939406" lon="14.692385213576769"><ele>563.0</ele><time>2026-05-03T09:37:57Z</time></trkpt><trkpt lat="37.030297878121154" lon="14.692359720553888"><ele>563.0</ele><time>2026-05-03T09:39:12.999Z</time></trkpt><trkpt lat="37.03032364370432" lon="14.692286004636662"><ele>563.0</ele><time>2026-05-03T09:39:18.999Z</time></trkpt><trkpt lat="37.030311244716145" lon="14.692378800778538"><ele>563.0</ele><time>2026-05-03T09:48:39.999Z</time></trkpt><trkpt lat="37.0302462118459" lon="14.692389634454102"><ele>563.0</ele><time>2026-05-03T09:53:19.999Z</time></trkpt><trkpt lat="37.030188017041745" lon="14.692422128771218"><ele>563.0</ele><time>2026-05-03T09:53:26.999Z</time></trkpt><trkpt lat="37.03013896568865" lon="14.692476056397325"><ele>563.0</ele><time>2026-05-03T09:53:37.999Z</time></trkpt><trkpt lat="37.029914334925536" lon="14.692522767362412"><ele>565.8</ele><time>2026-05-03T09:55:59.999Z</time></trkpt><trkpt lat="37.029831191484114" lon="14.692548324655021"><ele>568.5999999999999</ele><time>2026-05-03T09:56:00.999Z</time></trkpt><trkpt lat="37.02974866547573" lon="14.692599525860382"><ele>571.4000000000001</ele><time>2026-05-03T09:56:01.999Z</time></trkpt><trkpt lat="37.0296562662679" lon="14.692642146574658"><ele>574.2</ele><time>2026-05-03T09:56:02.999Z</time></trkpt><trkpt lat="37.029567164135074" lon="14.692673498141161"><ele>577.0</ele><time>2026-05-03T09:56:03.999Z</time></trkpt><trkpt lat="37.02947178546403" lon="14.692704979071252"><ele>577.0</ele><time>2026-05-03T09:56:04.999Z</time></trkpt><trkpt lat="37.029397655370055" lon="14.692745560507717"><ele>577.0</ele><time>2026-05-03T09:56:05.999Z</time></trkpt><trkpt lat="37.02932537861728" lon="14.692773735127748"><ele>577.0</ele><time>2026-05-03T09:56:06.999Z</time></trkpt><trkpt lat="37.02924686979153" lon="14.692789374434025"><ele>577.0</ele><time>2026-05-03T09:56:07.999Z</time></trkpt><trkpt lat="37.02916748503849" lon="14.692803566111007"><ele>577.0</ele><time>2026-05-03T09:56:08.999Z</time></trkpt><trkpt lat="37.02909630987003" lon="14.692833050211005"><ele>577.0</ele><time>2026-05-03T09:56:09.999Z</time></trkpt><trkpt lat="37.029028499459564" lon="14.692879104816058"><ele>580.0</ele><time>2026-05-03T09:56:10.999Z</time></trkpt><trkpt lat="37.02896837707635" lon="14.692923280561727"><ele>583.0</ele><time>2026-05-03T09:56:11.999Z</time></trkpt><trkpt lat="37.0289105768827" lon="14.692955916588428"><ele>586.0</ele><time>2026-05-03T09:56:12.999Z</time></trkpt><trkpt lat="37.02881940147855" lon="14.693016507355344"><ele>589.0</ele><time>2026-05-03T09:56:14.999Z</time></trkpt><trkpt lat="37.028713558292104" lon="14.693086635357705"><ele>592.0</ele><time>2026-05-03T09:56:16.999Z</time></trkpt><trkpt lat="37.02863059162396" lon="14.693123682879289"><ele>595.0</ele><time>2026-05-03T09:56:17.999Z</time></trkpt><trkpt lat="37.028539767690845" lon="14.693173462336171"><ele>595.0</ele><time>2026-05-03T09:56:18.999Z</time></trkpt><trkpt lat="37.02845679762712" lon="14.69321502113279"><ele>595.0</ele><time>2026-05-03T09:56:19.999Z</time></trkpt><trkpt lat="37.02835841393454" lon="14.693265438562447"><ele>595.0</ele><time>2026-05-03T09:56:20.999Z</time></trkpt><trkpt lat="37.02825569798273" lon="14.693310516618501"><ele>595.0</ele><time>2026-05-03T09:56:21.999Z</time></trkpt><trkpt lat="37.02815247996819" lon="14.693363406162655"><ele>595.0</ele><time>2026-05-03T09:56:22.999Z</time></trkpt><trkpt lat="37.028066180622595" lon="14.693403229045538"><ele>595.5</ele><time>2026-05-03T09:56:23.999Z</time></trkpt><trkpt lat="37.027992659854796" lon="14.693445824880106"><ele>596.0</ele><time>2026-05-03T09:56:24.999Z</time></trkpt><trkpt lat="37.02792085173382" lon="14.693557295813727"><ele>596.5</ele><time>2026-05-03T09:56:26.999Z</time></trkpt><trkpt lat="37.02787149426222" lon="14.693646737820362"><ele>597.0</ele><time>2026-05-03T09:56:27.999Z</time></trkpt><trkpt lat="37.02783975302164" lon="14.693730939161128"><ele>597.5</ele><time>2026-05-03T09:56:28.999Z</time></trkpt><trkpt lat="37.02782742842518" lon="14.693817191097134"><ele>598.0</ele><time>2026-05-03T09:56:29.999Z</time></trkpt><trkpt lat="37.02780801397835" lon="14.69391460899856"><ele>599.6666666666667</ele><time>2026-05-03T09:56:30.999Z</time></trkpt><trkpt lat="37.02777098474854" lon="14.694001067702294"><ele>601.3333333333334</ele><time>2026-05-03T09:56:31.999Z</time></trkpt><trkpt lat="37.02774638688229" lon="14.694116862149443"><ele>603.0</ele><time>2026-05-03T09:56:33.999Z</time></trkpt><trkpt lat="37.0277326060911" lon="14.694239568851541"><ele>604.6666666666666</ele><time>2026-05-03T09:56:35.999Z</time></trkpt><trkpt lat="37.027720383127814" lon="14.694326527832132"><ele>606.3333333333333</ele><time>2026-05-03T09:56:37Z</time></trkpt><trkpt lat="37.02772533531578" lon="14.694421470577106"><ele>608.0</ele><time>2026-05-03T09:56:38Z</time></trkpt><trkpt lat="37.027749549995185" lon="14.694504964522892"><ele>608.0</ele><time>2026-05-03T09:56:39Z</time></trkpt><trkpt lat="37.02775310006955" lon="14.694586938429083"><ele>608.0</ele><time>2026-05-03T09:56:40Z</time></trkpt><trkpt lat="37.02770678626471" lon="14.694690715902116"><ele>608.0</ele><time>2026-05-03T09:56:42Z</time></trkpt><trkpt lat="37.02765715414361" lon="14.69474326432564"><ele>608.0</ele><time>2026-05-03T09:56:46Z</time></trkpt><trkpt lat="37.0276730965896" lon="14.694870542103176"><ele>608.0</ele><time>2026-05-03T09:56:49Z</time></trkpt><trkpt lat="37.02765965554457" lon="14.69500451768758"><ele>608.0</ele><time>2026-05-03T09:56:51Z</time></trkpt><trkpt lat="37.0276422968427" lon="14.69509690772525"><ele>608.0</ele><time>2026-05-03T09:56:53Z</time></trkpt><trkpt lat="37.027610338313366" lon="14.695208631609004"><ele>608.0</ele><time>2026-05-03T09:56:56Z</time></trkpt><trkpt lat="37.02757737435505" lon="14.695311347258196"><ele>608.0</ele><time>2026-05-03T09:56:59Z</time></trkpt><trkpt lat="37.027551692622794" lon="14.695437103466615"><ele>608.0</ele><time>2026-05-03T09:57:02Z</time></trkpt><trkpt lat="37.02753215965004" lon="14.695517951092393"><ele>608.0</ele><time>2026-05-03T09:57:04Z</time></trkpt><trkpt lat="37.0275107526311" lon="14.695626324835088"><ele>608.0</ele><time>2026-05-03T09:57:07Z</time></trkpt><trkpt lat="37.027483251733535" lon="14.695715648092246"><ele>611.3333333333333</ele><time>2026-05-03T09:57:10Z</time></trkpt><trkpt lat="37.027457229264186" lon="14.695826558858347"><ele>614.6666666666666</ele><time>2026-05-03T09:57:13Z</time></trkpt><trkpt lat="37.02744683492124" lon="14.695914899515667"><ele>618.0</ele><time>2026-05-03T09:57:15Z</time></trkpt><trkpt lat="37.02743333468446" lon="14.696013362784223"><ele>621.3333333333334</ele><time>2026-05-03T09:57:17Z</time></trkpt><trkpt lat="37.02741696662426" lon="14.696115078042096"><ele>624.6666666666667</ele><time>2026-05-03T09:57:19Z</time></trkpt><trkpt lat="37.0274048322318" lon="14.696206331326316"><ele>628.0</ele><time>2026-05-03T09:57:21Z</time></trkpt><trkpt lat="37.02740125189002" lon="14.696303888002074"><ele>627.6666666666667</ele><time>2026-05-03T09:57:23Z</time></trkpt><trkpt lat="37.027384451985355" lon="14.696406682391844"><ele>627.3333333333334</ele><time>2026-05-03T09:57:25Z</time></trkpt><trkpt lat="37.02738230321684" lon="14.696517820700103"><ele>627.0</ele><time>2026-05-03T09:57:27Z</time></trkpt><trkpt lat="37.02738509173579" lon="14.696622561015044"><ele>626.6666666666666</ele><time>2026-05-03T09:57:29Z</time></trkpt><trkpt lat="37.02740016491877" lon="14.696726985130969"><ele>626.3333333333333</ele><time>2026-05-03T09:57:31Z</time></trkpt><trkpt lat="37.02742686402383" lon="14.696853812905664"><ele>626.0</ele><time>2026-05-03T09:57:32Z</time></trkpt><trkpt lat="37.027465129396184" lon="14.697001823086135"><ele>615.5</ele><time>2026-05-03T09:57:33Z</time></trkpt><trkpt lat="37.02751186295843" lon="14.697137393450845"><ele>605.0</ele><time>2026-05-03T09:57:34Z</time></trkpt><trkpt lat="37.027563851097035" lon="14.697281483052452"><ele>594.5</ele><time>2026-05-03T09:57:35Z</time></trkpt><trkpt lat="37.02762200092973" lon="14.697444056447887"><ele>584.0</ele><time>2026-05-03T09:57:36Z</time></trkpt><trkpt lat="37.027656602408335" lon="14.697575383802732"><ele>584.0</ele><time>2026-05-03T09:57:37Z</time></trkpt><trkpt lat="37.02768822435301" lon="14.697679688668218"><ele>584.0</ele><time>2026-05-03T09:57:38Z</time></trkpt><trkpt lat="37.02771094651871" lon="14.697756803058887"><ele>584.0</ele><time>2026-05-03T09:57:39Z</time></trkpt><trkpt lat="37.0277010124882" lon="14.697889689846527"><ele>584.0</ele><time>2026-05-03T09:57:41Z</time></trkpt><trkpt lat="37.027658094725254" lon="14.697996704415175"><ele>584.0</ele><time>2026-05-03T09:57:42.999Z</time></trkpt><trkpt lat="37.02766201707091" lon="14.69811474309165"><ele>583.5</ele><time>2026-05-03T09:57:45.999Z</time></trkpt><trkpt lat="37.027691717916454" lon="14.698210656734608"><ele>583.0</ele><time>2026-05-03T09:57:47.999Z</time></trkpt><trkpt lat="37.02769623275605" lon="14.698303801977762"><ele>582.5</ele><time>2026-05-03T09:57:49.999Z</time></trkpt><trkpt lat="37.02762091051499" lon="14.698392548099761"><ele>582.0</ele><time>2026-05-03T09:57:51.999Z</time></trkpt><trkpt lat="37.027537923431645" lon="14.698440988814683"><ele>581.5</ele><time>2026-05-03T09:57:53.999Z</time></trkpt><trkpt lat="37.02746862256223" lon="14.698478994215057"><ele>581.0</ele><time>2026-05-03T09:57:56.999Z</time></trkpt><trkpt lat="37.02738577414221" lon="14.698529211844779"><ele>585.2857142857143</ele><time>2026-05-03T09:57:59.999Z</time></trkpt><trkpt lat="37.02732189581389" lon="14.698579521310227"><ele>589.5714285714286</ele><time>2026-05-03T09:58:03.999Z</time></trkpt><trkpt lat="37.02724696841819" lon="14.69861030301332"><ele>593.8571428571429</ele><time>2026-05-03T09:59:27Z</time></trkpt><trkpt lat="37.02722074369563" lon="14.69869512462136"><ele>598.1428571428571</ele><time>2026-05-03T09:59:41Z</time></trkpt><trkpt lat="37.02715559264074" lon="14.698686986402853"><ele>602.4285714285714</ele><time>2026-05-03T09:59:48Z</time></trkpt><trkpt lat="37.02709683593445" lon="14.698731556466218"><ele>606.7142857142858</ele><time>2026-05-03T09:59:58Z</time></trkpt><trkpt lat="37.02703845685759" lon="14.698763624967818"><ele>611.0</ele><time>2026-05-03T10:00:03Z</time></trkpt><trkpt lat="37.027046409202356" lon="14.698866525050969"><ele>611.2</ele><time>2026-05-03T10:00:06.999Z</time></trkpt><trkpt lat="37.02709644477227" lon="14.698924180462159"><ele>611.4000000000001</ele><time>2026-05-03T10:00:28.999Z</time></trkpt><trkpt lat="37.027127239532895" lon="14.699038950800709"><ele>611.6</ele><time>2026-05-03T10:00:32.999Z</time></trkpt><trkpt lat="37.02715158199883" lon="14.69914397906988"><ele>611.8000000000001</ele><time>2026-05-03T10:00:34.999Z</time></trkpt><trkpt lat="37.02710118529373" lon="14.699250240036596"><ele>612.0</ele><time>2026-05-03T10:00:37.999Z</time></trkpt><trkpt lat="37.027048969765616" lon="14.699385447407247"><ele>615.4</ele><time>2026-05-03T10:00:39.999Z</time></trkpt><trkpt lat="37.02709685595831" lon="14.699515668450127"><ele>618.8000000000001</ele><time>2026-05-03T10:00:41.999Z</time></trkpt><trkpt lat="37.02713740075784" lon="14.699641254704341"><ele>622.2</ele><time>2026-05-03T10:00:43.999Z</time></trkpt><trkpt lat="37.02714295975393" lon="14.699740156079551"><ele>625.6</ele><time>2026-05-03T10:00:45.999Z</time></trkpt><trkpt lat="37.02715215087283" lon="14.699839526902263"><ele>629.0</ele><time>2026-05-03T10:00:47.999Z</time></trkpt><trkpt lat="37.02717656010173" lon="14.699932948136942"><ele>629.0</ele><time>2026-05-03T10:01:02Z</time></trkpt><trkpt lat="37.02718805403882" lon="14.700035082655953"><ele>629.0</ele><time>2026-05-03T10:01:04Z</time></trkpt><trkpt lat="37.02718358839953" lon="14.700128031107154"><ele>629.0</ele><time>2026-05-03T10:01:06Z</time></trkpt><trkpt lat="37.027154741084836" lon="14.700207475675594"><ele>629.0</ele><time>2026-05-03T10:01:11Z</time></trkpt><trkpt lat="37.02713679631532" lon="14.700297938063011"><ele>629.0</ele><time>2026-05-03T10:01:28Z</time></trkpt><trkpt lat="37.02718293854897" lon="14.700391144715564"><ele>629.0</ele><time>2026-05-03T10:01:32Z</time></trkpt><trkpt lat="37.02712101462654" lon="14.70041256627917"><ele>631.1666666666666</ele><time>2026-05-03T10:01:42Z</time></trkpt><trkpt lat="37.02706525396383" lon="14.700468269511834"><ele>633.3333333333333</ele><time>2026-05-03T10:01:50Z</time></trkpt><trkpt lat="37.02698362541393" lon="14.700471186026624"><ele>635.5</ele><time>2026-05-03T10:01:55Z</time></trkpt><trkpt lat="37.02688406899186" lon="14.700476179107522"><ele>637.6666666666666</ele><time>2026-05-03T10:01:57Z</time></trkpt><trkpt lat="37.026859823032154" lon="14.70060032427868"><ele>639.8333333333334</ele><time>2026-05-03T10:02:03Z</time></trkpt><trkpt lat="37.026867362970364" lon="14.700680243915414"><ele>642.0</ele><time>2026-05-03T10:02:04Z</time></trkpt><trkpt lat="37.02683595104119" lon="14.700808932629565"><ele>641.9999999999999</ele><time>2026-05-03T10:02:06Z</time></trkpt><trkpt lat="37.02680533568751" lon="14.700879039346512"><ele>642.0</ele><time>2026-05-03T10:02:07Z</time></trkpt><trkpt lat="37.02677826570097" lon="14.700952803542927"><ele>642.0</ele><time>2026-05-03T10:02:08Z</time></trkpt><trkpt lat="37.026750634430044" lon="14.701031177803252"><ele>642.0</ele><time>2026-05-03T10:02:09Z</time></trkpt><trkpt lat="37.02672619449088" lon="14.70112271047437"><ele>642.0</ele><time>2026-05-03T10:02:11Z</time></trkpt><trkpt lat="37.026686134018775" lon="14.7011901581207"><ele>641.9999999999999</ele><time>2026-05-03T10:02:13.999Z</time></trkpt><trkpt lat="37.026631051453386" lon="14.701275347583021"><ele>642.0</ele><time>2026-05-03T10:02:17.999Z</time></trkpt><trkpt lat="37.026614429026075" lon="14.701356575768783"><ele>648.5</ele><time>2026-05-03T10:02:19.999Z</time></trkpt><trkpt lat="37.026565256274345" lon="14.701430829614223"><ele>655.0</ele><time>2026-05-03T10:02:21.999Z</time></trkpt><trkpt lat="37.02650660394392" lon="14.701501156621472"><ele>661.5</ele><time>2026-05-03T10:02:23.999Z</time></trkpt><trkpt lat="37.026456323069915" lon="14.701567993290677"><ele>668.0</ele><time>2026-05-03T10:02:25.999Z</time></trkpt><trkpt lat="37.026385882215514" lon="14.701649437548252"><ele>674.5</ele><time>2026-05-03T10:02:28.999Z</time></trkpt><trkpt lat="37.02634375164932" lon="14.701715549837788"><ele>681.0</ele><time>2026-05-03T10:02:29.999Z</time></trkpt><trkpt lat="37.02633201494418" lon="14.70179395636986"><ele>681.0</ele><time>2026-05-03T10:02:31.999Z</time></trkpt><trkpt lat="37.026325057594754" lon="14.701878702278833"><ele>681.0</ele><time>2026-05-03T10:02:40.999Z</time></trkpt><trkpt lat="37.02628298573628" lon="14.701966717636866"><ele>681.0</ele><time>2026-05-03T10:02:43.999Z</time></trkpt><trkpt lat="37.026251873436784" lon="14.702065043338152"><ele>681.0</ele><time>2026-05-03T10:02:50.999Z</time></trkpt><trkpt lat="37.02618478571023" lon="14.702136295872988"><ele>681.0</ele><time>2026-05-03T10:02:52.999Z</time></trkpt><trkpt lat="37.0261306038751" lon="14.702204315733042"><ele>681.0</ele><time>2026-05-03T10:02:55Z</time></trkpt><trkpt lat="37.02611164881234" lon="14.70231931720096"><ele>682.1666666666666</ele><time>2026-05-03T10:02:58Z</time></trkpt><trkpt lat="37.02612545690612" lon="14.70242432452984"><ele>683.3333333333334</ele><time>2026-05-03T10:03:00Z</time></trkpt><trkpt lat="37.02612361204085" lon="14.702511523218638"><ele>684.5</ele><time>2026-05-03T10:03:02Z</time></trkpt><trkpt lat="37.02618235231315" lon="14.702574086284121"><ele>685.6666666666667</ele><time>2026-05-03T10:03:13Z</time></trkpt><trkpt lat="37.02622956800839" lon="14.702637988384694"><ele>686.8333333333334</ele><time>2026-05-03T10:03:15Z</time></trkpt><trkpt lat="37.02626144817811" lon="14.702726387449358"><ele>688.0</ele><time>2026-05-03T10:03:18Z</time></trkpt><trkpt lat="37.02619272793617" lon="14.702774055754196"><ele>690.1666666666667</ele><time>2026-05-03T10:03:22Z</time></trkpt><trkpt lat="37.02616914034828" lon="14.702857970487791"><ele>692.3333333333334</ele><time>2026-05-03T10:03:28Z</time></trkpt><trkpt lat="37.0261061646704" lon="14.702889710235691"><ele>694.5</ele><time>2026-05-03T10:03:34Z</time></trkpt><trkpt lat="37.026027671316896" lon="14.702919036723967"><ele>696.6666666666666</ele><time>2026-05-03T10:03:36Z</time></trkpt><trkpt lat="37.025967712858034" lon="14.702949169146155"><ele>698.8333333333333</ele><time>2026-05-03T10:03:38Z</time></trkpt><trkpt lat="37.02587908174396" lon="14.702994955254042"><ele>701.0</ele><time>2026-05-03T10:03:41Z</time></trkpt><trkpt lat="37.02583615320485" lon="14.703068946025246"><ele>701.0</ele><time>2026-05-03T10:03:43Z</time></trkpt><trkpt lat="37.025857487097326" lon="14.703176269238863"><ele>701.0</ele><time>2026-05-03T10:03:45Z</time></trkpt><trkpt lat="37.02581882774582" lon="14.70324239498976"><ele>701.0</ele><time>2026-05-03T10:03:47Z</time></trkpt><trkpt lat="37.02576206527764" lon="14.703303835042373"><ele>701.0</ele><time>2026-05-03T10:03:49Z</time></trkpt><trkpt lat="37.02570499610083" lon="14.703425017209693"><ele>701.0</ele><time>2026-05-03T10:03:51Z</time></trkpt><trkpt lat="37.02567161724323" lon="14.703502533199215"><ele>701.0</ele><time>2026-05-03T10:03:52Z</time></trkpt><trkpt lat="37.02562340596505" lon="14.703645016607982"><ele>703.0</ele><time>2026-05-03T10:03:54Z</time></trkpt><trkpt lat="37.02560332243577" lon="14.703720718542161"><ele>705.0</ele><time>2026-05-03T10:03:58Z</time></trkpt><trkpt lat="37.0255624592651" lon="14.703799969583802"><ele>707.0</ele><time>2026-05-03T10:04:01Z</time></trkpt><trkpt lat="37.02551350049346" lon="14.703858688680027"><ele>709.0</ele><time>2026-05-03T10:04:05Z</time></trkpt><trkpt lat="37.02544923363982" lon="14.703933051477224"><ele>711.0</ele><time>2026-05-03T10:04:09Z</time></trkpt><trkpt lat="37.02537565589364" lon="14.703932956190954"><ele>713.0</ele><time>2026-05-03T10:04:22.999Z</time></trkpt><trkpt lat="37.025339839245575" lon="14.703866621190292"><ele>715.0</ele><time>2026-05-03T10:04:37.999Z</time></trkpt><trkpt lat="37.02527903283809" lon="14.70394878545124"><ele>715.0</ele><time>2026-05-03T10:04:45.999Z</time></trkpt><trkpt lat="37.02527017374038" lon="14.70405971858209"><ele>715.0</ele><time>2026-05-03T10:05:14Z</time></trkpt><trkpt lat="37.025224211151475" lon="14.704005593296511"><ele>715.0</ele><time>2026-05-03T10:06:07.999Z</time></trkpt><trkpt lat="37.02515968170854" lon="14.704003830666338"><ele>715.0</ele><time>2026-05-03T10:06:14.999Z</time></trkpt><trkpt lat="37.02509100578453" lon="14.703968919870503"><ele>715.0</ele><time>2026-05-03T10:06:15.999Z</time></trkpt><trkpt lat="37.025002196657816" lon="14.70389455110514"><ele>715.0</ele><time>2026-05-03T10:06:16.999Z</time></trkpt><trkpt lat="37.02488741086325" lon="14.70380160895385"><ele>717.0</ele><time>2026-05-03T10:06:17.999Z</time></trkpt><trkpt lat="37.02477708711023" lon="14.703728613409785"><ele>719.0</ele><time>2026-05-03T10:06:18.999Z</time></trkpt><trkpt lat="37.024674757980456" lon="14.703675692895368"><ele>721.0</ele><time>2026-05-03T10:06:19.999Z</time></trkpt><trkpt lat="37.024554672613725" lon="14.703635107182805"><ele>723.0</ele><time>2026-05-03T10:06:20.999Z</time></trkpt><trkpt lat="37.02445289624842" lon="14.703626335409622"><ele>723.0</ele><time>2026-05-03T10:06:21.999Z</time></trkpt><trkpt lat="37.024348957329515" lon="14.70365575035568"><ele>723.0</ele><time>2026-05-03T10:06:22.999Z</time></trkpt><trkpt lat="37.02424165440915" lon="14.703681384890388"><ele>723.0</ele><time>2026-05-03T10:06:23.999Z</time></trkpt><trkpt lat="37.02412658192565" lon="14.703708015314021"><ele>723.0</ele><time>2026-05-03T10:06:24.999Z</time></trkpt><trkpt lat="37.02399790249507" lon="14.703753076934396"><ele>727.75</ele><time>2026-05-03T10:06:25.999Z</time></trkpt><trkpt lat="37.02385352243121" lon="14.70380652965946"><ele>732.5</ele><time>2026-05-03T10:06:26.999Z</time></trkpt><trkpt lat="37.023712284318954" lon="14.703856892372315"><ele>737.25</ele><time>2026-05-03T10:06:27.999Z</time></trkpt><trkpt lat="37.02357875376225" lon="14.703912805002416"><ele>742.0</ele><time>2026-05-03T10:06:28.999Z</time></trkpt><trkpt lat="37.023453737185584" lon="14.703947995465056"><ele>742.0</ele><time>2026-05-03T10:06:29.999Z</time></trkpt><trkpt lat="37.02333948488761" lon="14.703936348538026"><ele>742.0</ele><time>2026-05-03T10:06:30.999Z</time></trkpt><trkpt lat="37.02321523193303" lon="14.70393285331577"><ele>742.0</ele><time>2026-05-03T10:06:31.999Z</time></trkpt><trkpt lat="37.023083487982646" lon="14.703900602893906"><ele>742.0</ele><time>2026-05-03T10:06:32.999Z</time></trkpt><trkpt lat="37.02294853289961" lon="14.70388242294328"><ele>745.5</ele><time>2026-05-03T10:06:33.999Z</time></trkpt><trkpt lat="37.022811208720675" lon="14.703875372651154"><ele>749.0</ele><time>2026-05-03T10:06:34.999Z</time></trkpt><trkpt lat="37.02267296181226" lon="14.703855891454683"><ele>752.5</ele><time>2026-05-03T10:06:35.999Z</time></trkpt><trkpt lat="37.02253941415932" lon="14.703817797272418"><ele>756.0</ele><time>2026-05-03T10:06:36.999Z</time></trkpt><trkpt lat="37.022406103299105" lon="14.70376193573994"><ele>756.25</ele><time>2026-05-03T10:06:37.999Z</time></trkpt><trkpt lat="37.02228526625302" lon="14.703690287568664"><ele>756.5</ele><time>2026-05-03T10:06:38.999Z</time></trkpt><trkpt lat="37.02217247804197" lon="14.703615512365133"><ele>756.75</ele><time>2026-05-03T10:06:39.999Z</time></trkpt><trkpt lat="37.02206816116781" lon="14.70353378207485"><ele>757.0</ele><time>2026-05-03T10:06:40.999Z</time></trkpt><trkpt lat="37.02195872631617" lon="14.703492270882924"><ele>757.0</ele><time>2026-05-03T10:06:41.999Z</time></trkpt><trkpt lat="37.02184091207952" lon="14.703472308961143"><ele>757.0</ele><time>2026-05-03T10:06:42.999Z</time></trkpt><trkpt lat="37.02172457090727" lon="14.703492066936201"><ele>757.0</ele><time>2026-05-03T10:06:43.999Z</time></trkpt><trkpt lat="37.02161087047802" lon="14.703508961451146"><ele>757.0</ele><time>2026-05-03T10:06:44.999Z</time></trkpt><trkpt lat="37.0214943225427" lon="14.703540592920001"><ele>757.25</ele><time>2026-05-03T10:06:45.999Z</time></trkpt><trkpt lat="37.02137013630946" lon="14.703576590006739"><ele>757.5</ele><time>2026-05-03T10:06:46.999Z</time></trkpt><trkpt lat="37.02125373463639" lon="14.70361015411124"><ele>757.75</ele><time>2026-05-03T10:06:47.999Z</time></trkpt><trkpt lat="37.02113399716623" lon="14.703642691476464"><ele>758.0</ele><time>2026-05-03T10:06:48.999Z</time></trkpt><trkpt lat="37.02100265429616" lon="14.703677172188412"><ele>759.75</ele><time>2026-05-03T10:06:49.999Z</time></trkpt><trkpt lat="37.02088150000415" lon="14.703707851786383"><ele>761.5</ele><time>2026-05-03T10:06:50.999Z</time></trkpt><trkpt lat="37.020750821919" lon="14.703738611421668"><ele>763.25</ele><time>2026-05-03T10:06:51.999Z</time></trkpt><trkpt lat="37.02062050648915" lon="14.703769321285353"><ele>765.0</ele><time>2026-05-03T10:06:52.999Z</time></trkpt><trkpt lat="37.02051322438508" lon="14.703798081469971"><ele>765.0</ele><time>2026-05-03T10:06:53.999Z</time></trkpt><trkpt lat="37.020398090578446" lon="14.70384342608094"><ele>765.0</ele><time>2026-05-03T10:06:54.999Z</time></trkpt><trkpt lat="37.020276034445004" lon="14.703912047326957"><ele>765.0</ele><time>2026-05-03T10:06:55.999Z</time></trkpt><trkpt lat="37.020160606078605" lon="14.70399722132037"><ele>765.0</ele><time>2026-05-03T10:06:56.999Z</time></trkpt><trkpt lat="37.02007110609189" lon="14.704086444196419"><ele>765.0</ele><time>2026-05-03T10:06:57.999Z</time></trkpt><trkpt lat="37.020002013111544" lon="14.704202341203112"><ele>765.0</ele><time>2026-05-03T10:06:58.999Z</time></trkpt><trkpt lat="37.01991756798525" lon="14.704308209176272"><ele>765.0</ele><time>2026-05-03T10:06:59.999Z</time></trkpt><trkpt lat="37.019853933250054" lon="14.70440141445871"><ele>765.0</ele><time>2026-05-03T10:07:00.999Z</time></trkpt><trkpt lat="37.019801245556934" lon="14.70448134823628"><ele>765.0</ele><time>2026-05-03T10:07:01.999Z</time></trkpt><trkpt lat="37.01976117468081" lon="14.704543353480506"><ele>763.4</ele><time>2026-05-03T10:07:02.999Z</time></trkpt><trkpt lat="37.01973023895907" lon="14.704616097962274"><ele>761.8</ele><time>2026-05-03T10:07:07Z</time></trkpt><trkpt lat="37.019640794823665" lon="14.704710479652759"><ele>760.2</ele><time>2026-05-03T10:07:16Z</time></trkpt><trkpt lat="37.0195790318181" lon="14.704789924073085"><ele>758.6</ele><time>2026-05-03T10:07:17Z</time></trkpt><trkpt lat="37.01951603794938" lon="14.704886762334759"><ele>757.0</ele><time>2026-05-03T10:07:18Z</time></trkpt><trkpt lat="37.019451423361794" lon="14.705000901710223"><ele>757.0</ele><time>2026-05-03T10:07:19Z</time></trkpt><trkpt lat="37.01938306549039" lon="14.705135209412797"><ele>757.0</ele><time>2026-05-03T10:07:20Z</time></trkpt><trkpt lat="37.019313203214715" lon="14.70525839090245"><ele>757.0</ele><time>2026-05-03T10:07:21Z</time></trkpt><trkpt lat="37.01924267968565" lon="14.705341971531611"><ele>757.0</ele><time>2026-05-03T10:07:22Z</time></trkpt><trkpt lat="37.01914935957017" lon="14.705414173461731"><ele>759.75</ele><time>2026-05-03T10:07:23Z</time></trkpt><trkpt lat="37.0190402043889" lon="14.70546227520386"><ele>762.5</ele><time>2026-05-03T10:07:24Z</time></trkpt><trkpt lat="37.01892151535353" lon="14.70551711941787"><ele>765.25</ele><time>2026-05-03T10:07:25Z</time></trkpt><trkpt lat="37.018808030829305" lon="14.705610064981073"><ele>768.0</ele><time>2026-05-03T10:07:26Z</time></trkpt><trkpt lat="37.01868744096569" lon="14.70568806596322"><ele>768.0</ele><time>2026-05-03T10:07:27Z</time></trkpt><trkpt lat="37.01858954008926" lon="14.705753131780751"><ele>768.0</ele><time>2026-05-03T10:07:28Z</time></trkpt><trkpt lat="37.01854985294155" lon="14.705816300729769"><ele>768.0</ele><time>2026-05-03T10:07:35Z</time></trkpt><trkpt lat="37.01862202110695" lon="14.705988716868154"><ele>768.0</ele><time>2026-05-03T10:07:36Z</time></trkpt><trkpt lat="37.018656456509" lon="14.70609005294388"><ele>768.0</ele><time>2026-05-03T10:07:37Z</time></trkpt><trkpt lat="37.01868184693683" lon="14.706180116612627"><ele>770.5</ele><time>2026-05-03T10:07:38Z</time></trkpt><trkpt lat="37.018698743615914" lon="14.706263486628533"><ele>773.0</ele><time>2026-05-03T10:07:39Z</time></trkpt><trkpt lat="37.01872157404738" lon="14.706355249513022"><ele>775.5</ele><time>2026-05-03T10:07:40Z</time></trkpt><trkpt lat="37.018760100925775" lon="14.706480517539834"><ele>778.0</ele><time>2026-05-03T10:07:42Z</time></trkpt><trkpt lat="37.018795105931126" lon="14.706559615450796"><ele>780.5</ele><time>2026-05-03T10:07:44Z</time></trkpt><trkpt lat="37.01883295400944" lon="14.706629064257873"><ele>783.0</ele><time>2026-05-03T10:07:46Z</time></trkpt><trkpt lat="37.01903297986902" lon="14.706714597048713"><ele>783.0</ele><time>2026-05-03T10:07:54Z</time></trkpt><trkpt lat="37.01910727387101" lon="14.706676013574745"><ele>783.0</ele><time>2026-05-03T10:07:55Z</time></trkpt><trkpt lat="37.01918525122184" lon="14.706656941367738"><ele>783.0</ele><time>2026-05-03T10:07:56Z</time></trkpt><trkpt lat="37.019276762355226" lon="14.706645009389577"><ele>783.0</ele><time>2026-05-03T10:07:57Z</time></trkpt><trkpt lat="37.01936623722798" lon="14.706635514621864"><ele>783.0</ele><time>2026-05-03T10:07:57.999Z</time></trkpt><trkpt lat="37.019453496290126" lon="14.706639641504836"><ele>783.0</ele><time>2026-05-03T10:07:58.999Z</time></trkpt><trkpt lat="37.019540288378174" lon="14.70665782892037"><ele>784.0</ele><time>2026-05-03T10:07:59.999Z</time></trkpt><trkpt lat="37.019626044234776" lon="14.706701628994356"><ele>785.0</ele><time>2026-05-03T10:08:00.999Z</time></trkpt><trkpt lat="37.019722075151336" lon="14.706747725198884"><ele>786.0</ele><time>2026-05-03T10:08:01.999Z</time></trkpt><trkpt lat="37.01982583262674" lon="14.706789626576146"><ele>787.0</ele><time>2026-05-03T10:08:02.999Z</time></trkpt><trkpt lat="37.019926382165345" lon="14.706822596611495"><ele>788.0</ele><time>2026-05-03T10:08:03.999Z</time></trkpt><trkpt lat="37.020029182530564" lon="14.706847056669105"><ele>789.2</ele><time>2026-05-03T10:08:04.999Z</time></trkpt><trkpt lat="37.02013548559637" lon="14.706873839769212"><ele>790.4</ele><time>2026-05-03T10:08:05.999Z</time></trkpt><trkpt lat="37.02023763186896" lon="14.706904394767976"><ele>791.6</ele><time>2026-05-03T10:08:06.999Z</time></trkpt><trkpt lat="37.02033524866037" lon="14.706933190406986"><ele>792.8000000000001</ele><time>2026-05-03T10:08:07.999Z</time></trkpt><trkpt lat="37.02043175328283" lon="14.706970057789908"><ele>794.0</ele><time>2026-05-03T10:08:08.999Z</time></trkpt><trkpt lat="37.02051907257566" lon="14.70701203552828"><ele>794.8333333333334</ele><time>2026-05-03T10:08:09.999Z</time></trkpt><trkpt lat="37.0205954089994" lon="14.707064112461982"><ele>795.6666666666667</ele><time>2026-05-03T10:08:10.999Z</time></trkpt><trkpt lat="37.02065329418321" lon="14.707142367556067"><ele>796.5</ele><time>2026-05-03T10:08:11.999Z</time></trkpt><trkpt lat="37.02070078077689" lon="14.707231033121943"><ele>797.3333333333333</ele><time>2026-05-03T10:08:12.999Z</time></trkpt><trkpt lat="37.0207537880724" lon="14.70732160377325"><ele>798.1666666666666</ele><time>2026-05-03T10:08:13.999Z</time></trkpt><trkpt lat="37.020813797997675" lon="14.707394068625975"><ele>799.0</ele><time>2026-05-03T10:08:14.999Z</time></trkpt><trkpt lat="37.02087669675205" lon="14.707455281985581"><ele>798.9999999999999</ele><time>2026-05-03T10:08:15.999Z</time></trkpt><trkpt lat="37.02093926815567" lon="14.707510529693186"><ele>799.0</ele><time>2026-05-03T10:08:16.999Z</time></trkpt><trkpt lat="37.02099470655371" lon="14.707570980444348"><ele>799.0</ele><time>2026-05-03T10:08:17.999Z</time></trkpt><trkpt lat="37.021057970735534" lon="14.70762123181336"><ele>799.0</ele><time>2026-05-03T10:08:18.999Z</time></trkpt><trkpt lat="37.021121249947115" lon="14.707679514161358"><ele>798.9999999999999</ele><time>2026-05-03T10:08:19.999Z</time></trkpt><trkpt lat="37.021178573525596" lon="14.707738989442777"><ele>799.0</ele><time>2026-05-03T10:08:20.999Z</time></trkpt><trkpt lat="37.02124392649122" lon="14.707805908328064"><ele>800.6</ele><time>2026-05-03T10:08:21.999Z</time></trkpt><trkpt lat="37.021290391315894" lon="14.707887725163474"><ele>802.2</ele><time>2026-05-03T10:08:22.999Z</time></trkpt><trkpt lat="37.02130328868765" lon="14.707979337061502"><ele>803.8000000000001</ele><time>2026-05-03T10:08:23.999Z</time></trkpt><trkpt lat="37.021299294623205" lon="14.70810240060746"><ele>805.4000000000001</ele><time>2026-05-03T10:08:24.999Z</time></trkpt><trkpt lat="37.021280300134926" lon="14.70822724299024"><ele>807.0</ele><time>2026-05-03T10:08:25.999Z</time></trkpt><trkpt lat="37.02129361844128" lon="14.708346383100661"><ele>807.0</ele><time>2026-05-03T10:08:26.999Z</time></trkpt><trkpt lat="37.02131417109961" lon="14.708457016070827"><ele>807.0</ele><time>2026-05-03T10:08:27.999Z</time></trkpt><trkpt lat="37.02131062944616" lon="14.708586085334455"><ele>807.0</ele><time>2026-05-03T10:08:28.999Z</time></trkpt><trkpt lat="37.021283285079555" lon="14.708728505105272"><ele>807.0</ele><time>2026-05-03T10:08:29.999Z</time></trkpt><trkpt lat="37.02124832590117" lon="14.708881436506427"><ele>807.0</ele><time>2026-05-03T10:08:30.999Z</time></trkpt><trkpt lat="37.02121339439299" lon="14.70902192767253"><ele>807.2</ele><time>2026-05-03T10:08:31.999Z</time></trkpt><trkpt lat="37.02117465560524" lon="14.709161684857571"><ele>807.4000000000001</ele><time>2026-05-03T10:08:32.999Z</time></trkpt><trkpt lat="37.02115139311033" lon="14.709300402930062"><ele>807.5999999999999</ele><time>2026-05-03T10:08:33.999Z</time></trkpt><trkpt lat="37.021115261954264" lon="14.709433266302527"><ele>807.8</ele><time>2026-05-03T10:08:34.999Z</time></trkpt><trkpt lat="37.02109721741621" lon="14.709551935184734"><ele>808.0</ele><time>2026-05-03T10:08:35.999Z</time></trkpt><trkpt lat="37.021092119793735" lon="14.709695684299998"><ele>806.8</ele><time>2026-05-03T10:08:36.999Z</time></trkpt><trkpt lat="37.021089491086386" lon="14.70983629651633"><ele>805.5999999999999</ele><time>2026-05-03T10:08:37.999Z</time></trkpt><trkpt lat="37.02108774973656" lon="14.709975188517971"><ele>804.4000000000001</ele><time>2026-05-03T10:08:38.999Z</time></trkpt><trkpt lat="37.02108013912409" lon="14.710109819127698"><ele>803.2</ele><time>2026-05-03T10:08:39.999Z</time></trkpt><trkpt lat="37.02106963950098" lon="14.71022131530541"><ele>802.0</ele><time>2026-05-03T10:08:40.999Z</time></trkpt><trkpt lat="37.02105342974849" lon="14.710328650288577"><ele>801.9999999999999</ele><time>2026-05-03T10:08:41.999Z</time></trkpt><trkpt lat="37.021031564025286" lon="14.710420298751277"><ele>802.0</ele><time>2026-05-03T10:08:42.999Z</time></trkpt><trkpt lat="37.02098460565162" lon="14.710497942744501"><ele>802.0</ele><time>2026-05-03T10:08:43.999Z</time></trkpt><trkpt lat="37.02094916425497" lon="14.710590623546702"><ele>802.0</ele><time>2026-05-03T10:08:44.999Z</time></trkpt><trkpt lat="37.02091245074365" lon="14.710660382676991"><ele>801.9999999999999</ele><time>2026-05-03T10:08:45.999Z</time></trkpt><trkpt lat="37.02081991242898" lon="14.71074744362933"><ele>802.0</ele><time>2026-05-03T10:08:47.999Z</time></trkpt><trkpt lat="37.020803575369726" lon="14.710828521052589"><ele>805.8333333333333</ele><time>2026-05-03T10:08:48.999Z</time></trkpt><trkpt lat="37.020733251643776" lon="14.710887027855525"><ele>809.6666666666666</ele><time>2026-05-03T10:08:50.999Z</time></trkpt><trkpt lat="37.02065806511856" lon="14.710929125422732"><ele>813.5</ele><time>2026-05-03T10:08:52.999Z</time></trkpt><trkpt lat="37.020585708309405" lon="14.711010327533161"><ele>817.3333333333333</ele><time>2026-05-03T10:08:54.999Z</time></trkpt><trkpt lat="37.020508956183164" lon="14.71108846164731"><ele>821.1666666666666</ele><time>2026-05-03T10:08:56.999Z</time></trkpt><trkpt lat="37.0204414253919" lon="14.711134607941183"><ele>825.0</ele><time>2026-05-03T10:08:58.999Z</time></trkpt><trkpt lat="37.02034855911733" lon="14.711205452251198"><ele>825.0</ele><time>2026-05-03T10:09:00.999Z</time></trkpt><trkpt lat="37.020271411084025" lon="14.711289459881366"><ele>825.0</ele><time>2026-05-03T10:09:02.999Z</time></trkpt><trkpt lat="37.02019689790413" lon="14.711332755698988"><ele>825.0</ele><time>2026-05-03T10:09:04.999Z</time></trkpt><trkpt lat="37.020139160950386" lon="14.711397824358732"><ele>825.0</ele><time>2026-05-03T10:09:06.999Z</time></trkpt><trkpt lat="37.020064702089634" lon="14.711453311764414"><ele>825.0</ele><time>2026-05-03T10:09:09.999Z</time></trkpt><trkpt lat="37.019992284504326" lon="14.711505190774638"><ele>825.0</ele><time>2026-05-03T10:09:11.999Z</time></trkpt><trkpt lat="37.01992856881976" lon="14.71154960745527"><ele>829.0</ele><time>2026-05-03T10:09:14Z</time></trkpt><trkpt lat="37.01986000563227" lon="14.71158486710211"><ele>833.0</ele><time>2026-05-03T10:09:16Z</time></trkpt><trkpt lat="37.01977456000299" lon="14.711624880907452"><ele>837.0</ele><time>2026-05-03T10:09:18Z</time></trkpt><trkpt lat="37.0197146271058" lon="14.711712689967078"><ele>841.0</ele><time>2026-05-03T10:09:20Z</time></trkpt><trkpt lat="37.019647775592944" lon="14.711812608368357"><ele>845.0</ele><time>2026-05-03T10:09:22Z</time></trkpt><trkpt lat="37.01962039508311" lon="14.711913358575432"><ele>849.0</ele><time>2026-05-03T10:09:24Z</time></trkpt><trkpt lat="37.01960660444499" lon="14.712000388522963"><ele>849.0</ele><time>2026-05-03T10:09:26Z</time></trkpt><trkpt lat="37.01960000399053" lon="14.712087535638801"><ele>849.0</ele><time>2026-05-03T10:09:27Z</time></trkpt><trkpt lat="37.01955377827865" lon="14.712188587014849"><ele>849.0</ele><time>2026-05-03T10:09:29Z</time></trkpt><trkpt lat="37.019518411775785" lon="14.712275477133018"><ele>849.0</ele><time>2026-05-03T10:09:30Z</time></trkpt><trkpt lat="37.01945382532974" lon="14.712366928657092"><ele>849.0</ele><time>2026-05-03T10:09:31Z</time></trkpt><trkpt lat="37.01939230237749" lon="14.71247202235567"><ele>849.0</ele><time>2026-05-03T10:09:32Z</time></trkpt><trkpt lat="37.01933334863244" lon="14.71256476859113"><ele>849.0</ele><time>2026-05-03T10:09:33Z</time></trkpt><trkpt lat="37.019250896984936" lon="14.712674531264755"><ele>849.0</ele><time>2026-05-03T10:09:34Z</time></trkpt><trkpt lat="37.0191620320526" lon="14.712775648838877"><ele>849.0</ele><time>2026-05-03T10:09:35Z</time></trkpt><trkpt lat="37.01909601619536" lon="14.712874186342198"><ele>849.0</ele><time>2026-05-03T10:09:36Z</time></trkpt><trkpt lat="37.01901963399709" lon="14.712952830069536"><ele>849.0</ele><time>2026-05-03T10:09:37Z</time></trkpt><trkpt lat="37.018955288251924" lon="14.713034558798073"><ele>849.0</ele><time>2026-05-03T10:09:38Z</time></trkpt><trkpt lat="37.01887890709341" lon="14.713074457854555"><ele>849.0</ele><time>2026-05-03T10:09:39Z</time></trkpt><trkpt lat="37.018814855096196" lon="14.713125103952166"><ele>849.0</ele><time>2026-05-03T10:09:41Z</time></trkpt><trkpt lat="37.01877726335541" lon="14.713266555897782"><ele>849.0</ele><time>2026-05-03T10:10:15.999Z</time></trkpt><trkpt lat="37.018856130591296" lon="14.71339765063543"><ele>849.0</ele><time>2026-05-03T10:10:17.999Z</time></trkpt><trkpt lat="37.018923542545664" lon="14.713417959220921"><ele>849.0</ele><time>2026-05-03T10:10:18.999Z</time></trkpt><trkpt lat="37.01900443762232" lon="14.713469220091373"><ele>849.0</ele><time>2026-05-03T10:10:19.999Z</time></trkpt><trkpt lat="37.019131657780555" lon="14.713461003514961"><ele>849.0</ele><time>2026-05-03T10:10:20.999Z</time></trkpt><trkpt lat="37.019275751780555" lon="14.713457575719879"><ele>849.0</ele><time>2026-05-03T10:10:21.999Z</time></trkpt><trkpt lat="37.019392276691214" lon="14.713454803755623"><ele>849.5</ele><time>2026-05-03T10:10:22.999Z</time></trkpt><trkpt lat="37.019497190650014" lon="14.713451851478533"><ele>850.0</ele><time>2026-05-03T10:10:23.999Z</time></trkpt><trkpt lat="37.01960500948403" lon="14.713447545178026"><ele>850.5</ele><time>2026-05-03T10:10:24.999Z</time></trkpt><trkpt lat="37.01974407923333" lon="14.713444224257973"><ele>851.0</ele><time>2026-05-03T10:10:25.999Z</time></trkpt><trkpt lat="37.01990835023228" lon="14.71344766594981"><ele>852.5</ele><time>2026-05-03T10:10:26.999Z</time></trkpt><trkpt lat="37.02006414269356" lon="14.713467624947318"><ele>854.0</ele><time>2026-05-03T10:10:27.999Z</time></trkpt><trkpt lat="37.020217835241965" lon="14.71348713316956"><ele>855.5</ele><time>2026-05-03T10:10:28.999Z</time></trkpt><trkpt lat="37.020348150079734" lon="14.713496665429012"><ele>857.0</ele><time>2026-05-03T10:10:29.999Z</time></trkpt><trkpt lat="37.02046117001654" lon="14.713505927441577"><ele>857.0</ele><time>2026-05-03T10:10:30.999Z</time></trkpt><trkpt lat="37.02056001272682" lon="14.713472898936423"><ele>857.0</ele><time>2026-05-03T10:10:31.999Z</time></trkpt><trkpt lat="37.02064406354465" lon="14.713377241497088"><ele>857.0</ele><time>2026-05-03T10:10:32.999Z</time></trkpt><trkpt lat="37.020749394081584" lon="14.7132909216238"><ele>857.0</ele><time>2026-05-03T10:10:33.999Z</time></trkpt><trkpt lat="37.02087379099252" lon="14.71321398668457"><ele>859.75</ele><time>2026-05-03T10:10:34.999Z</time></trkpt><trkpt lat="37.0209747092812" lon="14.713158345127868"><ele>862.5</ele><time>2026-05-03T10:10:35.999Z</time></trkpt><trkpt lat="37.021104988934844" lon="14.713099044608784"><ele>865.25</ele><time>2026-05-03T10:10:36.999Z</time></trkpt><trkpt lat="37.02125059561674" lon="14.71306189663999"><ele>868.0</ele><time>2026-05-03T10:10:37.999Z</time></trkpt><trkpt lat="37.02139304654148" lon="14.713015413781491"><ele>868.0</ele><time>2026-05-03T10:10:38.999Z</time></trkpt><trkpt lat="37.021531062626046" lon="14.71296441985511"><ele>868.0</ele><time>2026-05-03T10:10:39.999Z</time></trkpt><trkpt lat="37.02167621643455" lon="14.712923512871717"><ele>868.0</ele><time>2026-05-03T10:10:40.999Z</time></trkpt><trkpt lat="37.021823445526955" lon="14.712882050222571"><ele>868.0</ele><time>2026-05-03T10:10:41.999Z</time></trkpt><trkpt lat="37.02197033355764" lon="14.71284133023956"><ele>867.0</ele><time>2026-05-03T10:10:42.999Z</time></trkpt><trkpt lat="37.022121372976066" lon="14.712801652243728"><ele>866.0</ele><time>2026-05-03T10:10:43.999Z</time></trkpt><trkpt lat="37.02228047662676" lon="14.712759855776856"><ele>865.0</ele><time>2026-05-03T10:10:44.999Z</time></trkpt><trkpt lat="37.02244706685549" lon="14.71272038987108"><ele>868.3333333333333</ele><time>2026-05-03T10:10:45.999Z</time></trkpt><trkpt lat="37.02261882386696" lon="14.712685415539337"><ele>871.6666666666667</ele><time>2026-05-03T10:10:46.999Z</time></trkpt><trkpt lat="37.02278279193068" lon="14.712653844571532"><ele>875.0</ele><time>2026-05-03T10:10:47.999Z</time></trkpt><trkpt lat="37.02292967090168" lon="14.712628122041247"><ele>875.0</ele><time>2026-05-03T10:10:48.999Z</time></trkpt><trkpt lat="37.02307804953928" lon="14.712606353075936"><ele>875.0</ele><time>2026-05-03T10:10:49.999Z</time></trkpt><trkpt lat="37.02323513445896" lon="14.712577997393065"><ele>875.0</ele><time>2026-05-03T10:10:50.999Z</time></trkpt><trkpt lat="37.0233877373468" lon="14.712552466825922"><ele>877.0</ele><time>2026-05-03T10:10:51.999Z</time></trkpt><trkpt lat="37.02352673365572" lon="14.712532005820224"><ele>879.0</ele><time>2026-05-03T10:10:52.999Z</time></trkpt><trkpt lat="37.02362953902251" lon="14.712522636705092"><ele>881.0</ele><time>2026-05-03T10:10:53.999Z</time></trkpt><trkpt lat="37.02369941439016" lon="14.712529154691714"><ele>883.0</ele><time>2026-05-03T10:10:54.999Z</time></trkpt><trkpt lat="37.023786474063826" lon="14.712583451433973"><ele>885.0</ele><time>2026-05-03T10:10:56.999Z</time></trkpt><trkpt lat="37.023868286385415" lon="14.71266590957224"><ele>887.8</ele><time>2026-05-03T10:10:58.999Z</time></trkpt><trkpt lat="37.02382644662334" lon="14.712838315107089"><ele>890.6</ele><time>2026-05-03T10:11:00.999Z</time></trkpt><trkpt lat="37.02382869741754" lon="14.712936207203432"><ele>893.4000000000001</ele><time>2026-05-03T10:11:01.999Z</time></trkpt><trkpt lat="37.02377140226963" lon="14.713029245708514"><ele>896.2</ele><time>2026-05-03T10:11:02.999Z</time></trkpt><trkpt lat="37.02372534609694" lon="14.713103037882728"><ele>899.0</ele><time>2026-05-03T10:11:03.999Z</time></trkpt><trkpt lat="37.02369325016173" lon="14.713191247129771"><ele>899.0</ele><time>2026-05-03T10:11:04.999Z</time></trkpt><trkpt lat="37.023689879083356" lon="14.713315250281132"><ele>899.0000000000001</ele><time>2026-05-03T10:11:05.999Z</time></trkpt><trkpt lat="37.02368466510452" lon="14.713429941821374"><ele>899.0000000000001</ele><time>2026-05-03T10:11:06.999Z</time></trkpt><trkpt lat="37.02363533315054" lon="14.713497923497451"><ele>899.0</ele><time>2026-05-03T10:11:07.999Z</time></trkpt><trkpt lat="37.02360963409015" lon="14.71361946322091"><ele>899.0</ele><time>2026-05-03T10:11:08.999Z</time></trkpt><trkpt lat="37.02362607411098" lon="14.71377021438454"><ele>898.25</ele><time>2026-05-03T10:11:09.999Z</time></trkpt><trkpt lat="37.02364260641732" lon="14.713904860026968"><ele>897.5</ele><time>2026-05-03T10:11:10.999Z</time></trkpt><trkpt lat="37.02364781234538" lon="14.714113504820519"><ele>896.75</ele><time>2026-05-03T10:11:11.999Z</time></trkpt><trkpt lat="37.02366199381955" lon="14.714321970898057"><ele>896.0</ele><time>2026-05-03T10:11:12.999Z</time></trkpt><trkpt lat="37.023682312228324" lon="14.71450721243522"><ele>895.0</ele><time>2026-05-03T10:11:13.999Z</time></trkpt><trkpt lat="37.02373304956126" lon="14.71466344834649"><ele>894.0</ele><time>2026-05-03T10:11:14.999Z</time></trkpt><trkpt lat="37.02379046277995" lon="14.714813288207536"><ele>893.0</ele><time>2026-05-03T10:11:15.999Z</time></trkpt><trkpt lat="37.023899204196255" lon="14.71495290123785"><ele>892.0</ele><time>2026-05-03T10:11:16.999Z</time></trkpt><trkpt lat="37.02401790877901" lon="14.715095333611673"><ele>891.5</ele><time>2026-05-03T10:11:17.999Z</time></trkpt><trkpt lat="37.02416360148702" lon="14.715222538992045"><ele>891.0</ele><time>2026-05-03T10:11:19Z</time></trkpt><trkpt lat="37.024276653733416" lon="14.715341249052337"><ele>890.5</ele><time>2026-05-03T10:11:20Z</time></trkpt><trkpt lat="37.024365231751474" lon="14.715448276769122"><ele>890.0</ele><time>2026-05-03T10:11:21Z</time></trkpt><trkpt lat="37.02446375979239" lon="14.71554665636884"><ele>890.0</ele><time>2026-05-03T10:11:22Z</time></trkpt><trkpt lat="37.02456409020652" lon="14.715620665661145"><ele>890.0</ele><time>2026-05-03T10:11:23Z</time></trkpt><trkpt lat="37.024670995473954" lon="14.71567615568685"><ele>890.0</ele><time>2026-05-03T10:11:24Z</time></trkpt><trkpt lat="37.024781413019696" lon="14.715717684821458"><ele>890.0</ele><time>2026-05-03T10:11:25Z</time></trkpt><trkpt lat="37.0248900715992" lon="14.71573827744722"><ele>887.75</ele><time>2026-05-03T10:11:26Z</time></trkpt><trkpt lat="37.024992749979326" lon="14.715792005212338"><ele>885.5</ele><time>2026-05-03T10:11:27Z</time></trkpt><trkpt lat="37.025136299898016" lon="14.715804436126495"><ele>883.25</ele><time>2026-05-03T10:11:28Z</time></trkpt><trkpt lat="37.02528612720259" lon="14.715824188555628"><ele>881.0</ele><time>2026-05-03T10:11:29Z</time></trkpt><trkpt lat="37.02540803037713" lon="14.715825785043075"><ele>881.0</ele><time>2026-05-03T10:11:30Z</time></trkpt><trkpt lat="37.025527122004924" lon="14.71579246360244"><ele>880.9999999999999</ele><time>2026-05-03T10:11:31Z</time></trkpt><trkpt lat="37.0256117574882" lon="14.715798480744203"><ele>880.9999999999999</ele><time>2026-05-03T10:11:32Z</time></trkpt><trkpt lat="37.02572060853613" lon="14.715789691299719"><ele>881.0</ele><time>2026-05-03T10:11:34Z</time></trkpt><trkpt lat="37.025831040343064" lon="14.715774268235172"><ele>881.0</ele><time>2026-05-03T10:11:36Z</time></trkpt><trkpt lat="37.02590324610275" lon="14.715755413902412"><ele>881.4</ele><time>2026-05-03T10:11:37Z</time></trkpt><trkpt lat="37.02598455851551" lon="14.715765644506652"><ele>881.8</ele><time>2026-05-03T10:11:38Z</time></trkpt><trkpt lat="37.02608999193533" lon="14.715752320862157"><ele>882.1999999999999</ele><time>2026-05-03T10:11:39Z</time></trkpt><trkpt lat="37.02619302943278" lon="14.71574191462727"><ele>882.5999999999999</ele><time>2026-05-03T10:11:40Z</time></trkpt><trkpt lat="37.02628676146544" lon="14.715739617027255"><ele>883.0</ele><time>2026-05-03T10:11:41Z</time></trkpt><trkpt lat="37.026416198902915" lon="14.71571804978838"><ele>883.0</ele><time>2026-05-03T10:11:43Z</time></trkpt><trkpt lat="37.02651663341115" lon="14.71569450385998"><ele>883.0</ele><time>2026-05-03T10:11:44Z</time></trkpt><trkpt lat="37.02662757599175" lon="14.715651066139296"><ele>883.0</ele><time>2026-05-03T10:11:45Z</time></trkpt><trkpt lat="37.02673332272778" lon="14.715581113133315"><ele>883.0</ele><time>2026-05-03T10:11:46Z</time></trkpt><trkpt lat="37.02684828844044" lon="14.71550027221723"><ele>884.0</ele><time>2026-05-03T10:11:47Z</time></trkpt><trkpt lat="37.02696688432224" lon="14.715434301074062"><ele>885.0</ele><time>2026-05-03T10:11:48Z</time></trkpt><trkpt lat="37.02705909107754" lon="14.715398984763077"><ele>886.0</ele><time>2026-05-03T10:11:49Z</time></trkpt><trkpt lat="37.027144136759475" lon="14.715384200698315"><ele>887.0</ele><time>2026-05-03T10:11:50Z</time></trkpt><trkpt lat="37.02722087144125" lon="14.715381275241167"><ele>888.0</ele><time>2026-05-03T10:11:51Z</time></trkpt><trkpt lat="37.027302035613054" lon="14.715403961521144"><ele>888.0</ele><time>2026-05-03T10:11:52Z</time></trkpt><trkpt lat="37.02735455281172" lon="14.71546053204079"><ele>888.0</ele><time>2026-05-03T10:11:53Z</time></trkpt><trkpt lat="37.027422624572395" lon="14.71552188729892"><ele>888.0</ele><time>2026-05-03T10:11:54Z</time></trkpt><trkpt lat="37.027506877075005" lon="14.715609870278373"><ele>888.0</ele><time>2026-05-03T10:11:55Z</time></trkpt><trkpt lat="37.02762834167737" lon="14.715762582680501"><ele>888.0</ele><time>2026-05-03T10:11:56Z</time></trkpt><trkpt lat="37.027748615859004" lon="14.71592758082287"><ele>890.0</ele><time>2026-05-03T10:11:57Z</time></trkpt><trkpt lat="37.02785944576538" lon="14.716063397153896"><ele>892.0</ele><time>2026-05-03T10:11:58Z</time></trkpt><trkpt lat="37.0279689253953" lon="14.716179502735013"><ele>894.0</ele><time>2026-05-03T10:11:59Z</time></trkpt><trkpt lat="37.02810337969632" lon="14.71631396365863"><ele>894.6666666666667</ele><time>2026-05-03T10:12:00Z</time></trkpt><trkpt lat="37.028246007543835" lon="14.716436714287456"><ele>895.3333333333334</ele><time>2026-05-03T10:12:01Z</time></trkpt><trkpt lat="37.02839523319418" lon="14.716521556956867"><ele>896.0</ele><time>2026-05-03T10:12:02Z</time></trkpt><trkpt lat="37.02854060661264" lon="14.716559087043048"><ele>896.0</ele><time>2026-05-03T10:12:03Z</time></trkpt><trkpt lat="37.02866527734945" lon="14.716607988502783"><ele>896.0</ele><time>2026-05-03T10:12:04Z</time></trkpt><trkpt lat="37.028797563097676" lon="14.716647875126291"><ele>896.0</ele><time>2026-05-03T10:12:05Z</time></trkpt><trkpt lat="37.02893570098636" lon="14.716680155160363"><ele>896.0</ele><time>2026-05-03T10:12:06Z</time></trkpt><trkpt lat="37.02905590342519" lon="14.716681487901678"><ele>896.0</ele><time>2026-05-03T10:12:07Z</time></trkpt><trkpt lat="37.02914051093517" lon="14.716662041574603"><ele>895.9999999999999</ele><time>2026-05-03T10:12:08Z</time></trkpt><trkpt lat="37.02923004143552" lon="14.716634105386024"><ele>895.9999999999999</ele><time>2026-05-03T10:12:09Z</time></trkpt><trkpt lat="37.029336156178864" lon="14.716570221769977"><ele>896.0</ele><time>2026-05-03T10:12:10Z</time></trkpt><trkpt lat="37.02943899314763" lon="14.716489500975893"><ele>896.0</ele><time>2026-05-03T10:12:11Z</time></trkpt><trkpt lat="37.02950296008083" lon="14.716387577773467"><ele>896.8</ele><time>2026-05-03T10:12:12Z</time></trkpt><trkpt lat="37.029565910359125" lon="14.716323734242202"><ele>897.5999999999999</ele><time>2026-05-03T10:12:12.999Z</time></trkpt><trkpt lat="37.02961125581653" lon="14.716206883901833"><ele>898.4</ele><time>2026-05-03T10:12:13.999Z</time></trkpt><trkpt lat="37.029687162805146" lon="14.716100809151383"><ele>899.2</ele><time>2026-05-03T10:12:14.999Z</time></trkpt><trkpt lat="37.029778794587905" lon="14.715985376007298"><ele>900.0</ele><time>2026-05-03T10:12:15.999Z</time></trkpt><trkpt lat="37.02985764666996" lon="14.71585535506598"><ele>899.6666666666666</ele><time>2026-05-03T10:12:16.999Z</time></trkpt><trkpt lat="37.02991167805639" lon="14.71575374758763"><ele>899.3333333333333</ele><time>2026-05-03T10:12:17.999Z</time></trkpt><trkpt lat="37.02996895846919" lon="14.715666527667747"><ele>899.0</ele><time>2026-05-03T10:12:18.999Z</time></trkpt><trkpt lat="37.03005100757291" lon="14.71564910987007"><ele>898.6666666666666</ele><time>2026-05-03T10:12:19.999Z</time></trkpt><trkpt lat="37.03011353922874" lon="14.715658989226064"><ele>898.3333333333333</ele><time>2026-05-03T10:12:20.999Z</time></trkpt><trkpt lat="37.03020318202689" lon="14.715694070049794"><ele>898.0</ele><time>2026-05-03T10:12:21.999Z</time></trkpt><trkpt lat="37.030318516528304" lon="14.715746422827424"><ele>898.0</ele><time>2026-05-03T10:12:22.999Z</time></trkpt><trkpt lat="37.03042444404966" lon="14.715785176016544"><ele>898.0</ele><time>2026-05-03T10:12:23.999Z</time></trkpt><trkpt lat="37.03052662281481" lon="14.715799754491936"><ele>898.0</ele><time>2026-05-03T10:12:24.999Z</time></trkpt><trkpt lat="37.03062327388643" lon="14.715853816249322"><ele>898.0</ele><time>2026-05-03T10:12:25.999Z</time></trkpt><trkpt lat="37.03072226185613" lon="14.715891916124896"><ele>898.0</ele><time>2026-05-03T10:12:26.999Z</time></trkpt><trkpt lat="37.0308191185233" lon="14.715932380259764"><ele>898.2</ele><time>2026-05-03T10:12:27.999Z</time></trkpt><trkpt lat="37.030907335245956" lon="14.715978449252665"><ele>898.4</ele><time>2026-05-03T10:12:28.999Z</time></trkpt><trkpt lat="37.03097703633278" lon="14.716033335349186"><ele>898.6000000000001</ele><time>2026-05-03T10:12:29.999Z</time></trkpt><trkpt lat="37.0309492508368" lon="14.716187796316538"><ele>898.8000000000001</ele><time>2026-05-03T10:12:31.999Z</time></trkpt><trkpt lat="37.030945997731486" lon="14.716281365794242"><ele>899.0</ele><time>2026-05-03T10:12:32.999Z</time></trkpt><trkpt lat="37.03095049231089" lon="14.716396014053354"><ele>899.0000000000001</ele><time>2026-05-03T10:12:33.999Z</time></trkpt><trkpt lat="37.03093176501949" lon="14.716515643511169"><ele>899.0</ele><time>2026-05-03T10:12:34.999Z</time></trkpt><trkpt lat="37.030915202498754" lon="14.716632522808263"><ele>899.0</ele><time>2026-05-03T10:12:35.999Z</time></trkpt><trkpt lat="37.03090798288822" lon="14.71673985834729"><ele>899.0</ele><time>2026-05-03T10:12:36.999Z</time></trkpt><trkpt lat="37.03090978171788" lon="14.71683674305149"><ele>899.0000000000001</ele><time>2026-05-03T10:12:37.999Z</time></trkpt><trkpt lat="37.030945576832735" lon="14.716938951206057"><ele>899.0</ele><time>2026-05-03T10:12:38.999Z</time></trkpt><trkpt lat="37.03100947122412" lon="14.717055347977812"><ele>899.0</ele><time>2026-05-03T10:12:39.999Z</time></trkpt><trkpt lat="37.03106278507814" lon="14.71716341482313"><ele>899.0000000000001</ele><time>2026-05-03T10:12:40.999Z</time></trkpt><trkpt lat="37.03109799004933" lon="14.71727976072119"><ele>899.0000000000001</ele><time>2026-05-03T10:12:42.999Z</time></trkpt><trkpt lat="37.03115506762597" lon="14.717382444505278"><ele>899.0</ele><time>2026-05-03T10:12:44.999Z</time></trkpt><trkpt lat="37.03120094309055" lon="14.717484672354484"><ele>899.0</ele><time>2026-05-03T10:12:45.999Z</time></trkpt><trkpt lat="37.031249975984785" lon="14.717605264980648"><ele>899.0</ele><time>2026-05-03T10:12:46.999Z</time></trkpt><trkpt lat="37.03128675319516" lon="14.717714232275728"><ele>899.0000000000001</ele><time>2026-05-03T10:12:47.999Z</time></trkpt><trkpt lat="37.031315885743304" lon="14.717809488182636"><ele>899.0000000000001</ele><time>2026-05-03T10:12:48.999Z</time></trkpt><trkpt lat="37.031356483256346" lon="14.717902846787078"><ele>899.0</ele><time>2026-05-03T10:12:49.999Z</time></trkpt><trkpt lat="37.03141223248529" lon="14.718003322560334"><ele>899.0</ele><time>2026-05-03T10:12:50.999Z</time></trkpt><trkpt lat="37.03146609367429" lon="14.718106558016995"><ele>899.2</ele><time>2026-05-03T10:12:51.999Z</time></trkpt><trkpt lat="37.03151538552761" lon="14.718212231594718"><ele>899.4000000000001</ele><time>2026-05-03T10:12:52.999Z</time></trkpt><trkpt lat="37.03157097823292" lon="14.718326149540207"><ele>899.6</ele><time>2026-05-03T10:12:53.999Z</time></trkpt><trkpt lat="37.03161451479602" lon="14.718429255653469"><ele>899.8</ele><time>2026-05-03T10:12:54.999Z</time></trkpt><trkpt lat="37.03166792526005" lon="14.718538323696903"><ele>900.0</ele><time>2026-05-03T10:12:55.999Z</time></trkpt><trkpt lat="37.03172950326485" lon="14.718616087255342"><ele>899.4</ele><time>2026-05-03T10:12:56.999Z</time></trkpt><trkpt lat="37.03182567051044" lon="14.718428593741027"><ele>898.8</ele><time>2026-05-03T10:13:09.999Z</time></trkpt><trkpt lat="37.03189596286177" lon="14.718406998055"><ele>898.2</ele><time>2026-05-03T10:13:10.999Z</time></trkpt><trkpt lat="37.031991318516155" lon="14.718360913026684"><ele>897.6</ele><time>2026-05-03T10:13:12.999Z</time></trkpt><trkpt lat="37.03203549412776" lon="14.718303459997083"><ele>897.0</ele><time>2026-05-03T10:13:13.999Z</time></trkpt><trkpt lat="37.03209365645524" lon="14.718259341667911"><ele>897.0</ele><time>2026-05-03T10:13:14.999Z</time></trkpt><trkpt lat="37.03217331071722" lon="14.718218786792427"><ele>897.0</ele><time>2026-05-03T10:13:15.999Z</time></trkpt><trkpt lat="37.032269876762186" lon="14.718171306016352"><ele>897.0</ele><time>2026-05-03T10:13:16.999Z</time></trkpt><trkpt lat="37.03237261943775" lon="14.718106789635982"><ele>897.0</ele><time>2026-05-03T10:13:17.999Z</time></trkpt><trkpt lat="37.03247558681589" lon="14.718039686294098"><ele>897.0</ele><time>2026-05-03T10:13:18.999Z</time></trkpt><trkpt lat="37.03255614992741" lon="14.718003340718111"><ele>896.6666666666666</ele><time>2026-05-03T10:13:19.999Z</time></trkpt><trkpt lat="37.03266320871548" lon="14.717996781156856"><ele>896.3333333333333</ele><time>2026-05-03T10:13:21.999Z</time></trkpt><trkpt lat="37.03273143821864" lon="14.717992694307767"><ele>896.0</ele><time>2026-05-03T10:13:22.999Z</time></trkpt><trkpt lat="37.03280902355606" lon="14.717957418533707"><ele>895.6666666666666</ele><time>2026-05-03T10:13:23.999Z</time></trkpt><trkpt lat="37.03286816844321" lon="14.717927195549512"><ele>895.3333333333333</ele><time>2026-05-03T10:13:25Z</time></trkpt><trkpt lat="37.03295831349537" lon="14.717893762315937"><ele>895.0</ele><time>2026-05-03T10:13:27Z</time></trkpt><trkpt lat="37.03302828145331" lon="14.717864555008518"><ele>894.9999999999999</ele><time>2026-05-03T10:13:29Z</time></trkpt><trkpt lat="37.033101195804356" lon="14.717949401279126"><ele>895.0</ele><time>2026-05-03T10:13:32Z</time></trkpt><trkpt lat="37.033187768131796" lon="14.717898334700239"><ele>895.0</ele><time>2026-05-03T10:13:34Z</time></trkpt><trkpt lat="37.03323110752623" lon="14.717830651711393"><ele>895.0</ele><time>2026-05-03T10:13:35Z</time></trkpt><trkpt lat="37.0333045457019" lon="14.717758659184836"><ele>894.9999999999999</ele><time>2026-05-03T10:13:37Z</time></trkpt><trkpt lat="37.03337293257464" lon="14.717791572275944"><ele>895.0</ele><time>2026-05-03T10:13:39Z</time></trkpt><trkpt lat="37.03346154848589" lon="14.717761230208572"><ele>893.8333333333333</ele><time>2026-05-03T10:13:41Z</time></trkpt><trkpt lat="37.03352881599098" lon="14.717808146177813"><ele>892.6666666666666</ele><time>2026-05-03T10:13:44Z</time></trkpt><trkpt lat="37.03352738386733" lon="14.717901103730991"><ele>891.5</ele><time>2026-05-03T10:13:46Z</time></trkpt><trkpt lat="37.03354489664768" lon="14.717988309917487"><ele>890.3333333333333</ele><time>2026-05-03T10:13:48Z</time></trkpt><trkpt lat="37.03355312513291" lon="14.718095198416998"><ele>889.1666666666666</ele><time>2026-05-03T10:13:52Z</time></trkpt><trkpt lat="37.03355419507541" lon="14.718175171796682"><ele>888.0</ele><time>2026-05-03T10:13:53Z</time></trkpt><trkpt lat="37.03355104070532" lon="14.71829144822041"><ele>888.0</ele><time>2026-05-03T10:13:54Z</time></trkpt><trkpt lat="37.03352802844761" lon="14.718402182385821"><ele>888.0</ele><time>2026-05-03T10:13:56Z</time></trkpt><trkpt lat="37.03360493255633" lon="14.718445875339633"><ele>888.0</ele><time>2026-05-03T10:13:58Z</time></trkpt><trkpt lat="37.03362779894452" lon="14.718525868900098"><ele>888.0</ele><time>2026-05-03T10:14:00Z</time></trkpt><trkpt lat="37.033710555853105" lon="14.718541150935343"><ele>888.0</ele><time>2026-05-03T10:14:03Z</time></trkpt><trkpt lat="37.033779995983004" lon="14.718577714358325"><ele>888.0</ele><time>2026-05-03T10:14:05Z</time></trkpt><trkpt lat="37.03385670372316" lon="14.718634858899271"><ele>888.0</ele><time>2026-05-03T10:14:08Z</time></trkpt><trkpt lat="37.033922784679355" lon="14.718633087034457"><ele>888.0</ele><time>2026-05-03T10:14:11Z</time></trkpt><trkpt lat="37.03396086167384" lon="14.718565471340183"><ele>888.0</ele><time>2026-05-03T10:14:16Z</time></trkpt><trkpt lat="37.03401584436429" lon="14.718523026666352"><ele>888.0</ele><time>2026-05-03T10:14:19.999Z</time></trkpt><trkpt lat="37.034075170747684" lon="14.718566642205653"><ele>888.0</ele><time>2026-05-03T10:14:22.999Z</time></trkpt><trkpt lat="37.034105196020725" lon="14.718667275209697"><ele>888.0</ele><time>2026-05-03T10:14:24.999Z</time></trkpt><trkpt lat="37.034149485287664" lon="14.718752064420174"><ele>888.0</ele><time>2026-05-03T10:14:25.999Z</time></trkpt><trkpt lat="37.034150115159534" lon="14.718891984982669"><ele>882.5999999999999</ele><time>2026-05-03T10:14:27.999Z</time></trkpt><trkpt lat="37.03418203548608" lon="14.719025684069276"><ele>877.1999999999999</ele><time>2026-05-03T10:14:29.999Z</time></trkpt><trkpt lat="37.03421035054978" lon="14.719145916953773"><ele>871.8</ele><time>2026-05-03T10:14:31.999Z</time></trkpt><trkpt lat="37.03421344701925" lon="14.7192709970385"><ele>866.4</ele><time>2026-05-03T10:14:33.999Z</time></trkpt><trkpt lat="37.03425183546575" lon="14.719352150992052"><ele>861.0</ele><time>2026-05-03T10:14:36.999Z</time></trkpt><trkpt lat="37.034271167327965" lon="14.719427329345908"><ele>859.3333333333334</ele><time>2026-05-03T10:14:38.999Z</time></trkpt><trkpt lat="37.034307253681945" lon="14.71951765654078"><ele>857.6666666666667</ele><time>2026-05-03T10:14:41.999Z</time></trkpt><trkpt lat="37.03434542497553" lon="14.719606408797858"><ele>856.0</ele><time>2026-05-03T10:14:44.999Z</time></trkpt><trkpt lat="37.03440812448587" lon="14.719655613183921"><ele>854.3333333333334</ele><time>2026-05-03T10:14:48.999Z</time></trkpt><trkpt lat="37.034473251468114" lon="14.71963201212957"><ele>852.6666666666667</ele><time>2026-05-03T10:14:52.999Z</time></trkpt><trkpt lat="37.03456345599053" lon="14.71964555725542"><ele>851.0</ele><time>2026-05-03T10:15:17.999Z</time></trkpt><trkpt lat="37.03465468900518" lon="14.719658357404011"><ele>851.0</ele><time>2026-05-03T10:15:19.999Z</time></trkpt><trkpt lat="37.03471581589257" lon="14.719698450556908"><ele>851.0</ele><time>2026-05-03T10:15:21.999Z</time></trkpt><trkpt lat="37.03483088438593" lon="14.71965463916051"><ele>851.0</ele><time>2026-05-03T10:15:28.999Z</time></trkpt><trkpt lat="37.0348649150922" lon="14.719550860416593"><ele>851.0</ele><time>2026-05-03T10:15:31Z</time></trkpt><trkpt lat="37.034897603676114" lon="14.719421063552184"><ele>851.0</ele><time>2026-05-03T10:15:32Z</time></trkpt><trkpt lat="37.034925677526864" lon="14.719288644961688"><ele>852.6666666666667</ele><time>2026-05-03T10:15:33Z</time></trkpt><trkpt lat="37.034956715210846" lon="14.719153392913707"><ele>854.3333333333334</ele><time>2026-05-03T10:15:34Z</time></trkpt><trkpt lat="37.034977615343614" lon="14.719062066313617"><ele>856.0</ele><time>2026-05-03T10:15:35Z</time></trkpt><trkpt lat="37.03500188052983" lon="14.718972763541839"><ele>857.6666666666667</ele><time>2026-05-03T10:15:36Z</time></trkpt><trkpt lat="37.035045380112436" lon="14.718888937635601"><ele>859.3333333333334</ele><time>2026-05-03T10:15:37Z</time></trkpt><trkpt lat="37.035123100231694" lon="14.718815902237013"><ele>861.0</ele><time>2026-05-03T10:15:39Z</time></trkpt><trkpt lat="37.03520543443032" lon="14.718758522610639"><ele>855.8333333333334</ele><time>2026-05-03T10:15:41Z</time></trkpt><trkpt lat="37.03527075824776" lon="14.71869951952133"><ele>850.6666666666667</ele><time>2026-05-03T10:15:43Z</time></trkpt><trkpt lat="37.0353960408871" lon="14.718738743625444"><ele>845.5</ele><time>2026-05-03T10:15:46Z</time></trkpt><trkpt lat="37.035477269708736" lon="14.718763272061128"><ele>840.3333333333334</ele><time>2026-05-03T10:15:48Z</time></trkpt><trkpt lat="37.03554595739386" lon="14.718760677384465"><ele>835.1666666666667</ele><time>2026-05-03T10:15:49Z</time></trkpt><trkpt lat="37.03562735995006" lon="14.718772997658622"><ele>830.0</ele><time>2026-05-03T10:15:51Z</time></trkpt><trkpt lat="37.035740523368005" lon="14.718743651799997"><ele>826.4</ele><time>2026-05-03T10:15:54Z</time></trkpt><trkpt lat="37.035842337339794" lon="14.71871351308123"><ele>822.8</ele><time>2026-05-03T10:15:57Z</time></trkpt><trkpt lat="37.03592022419213" lon="14.718700417096407"><ele>819.2</ele><time>2026-05-03T10:15:59Z</time></trkpt><trkpt lat="37.03598214444792" lon="14.718670998396988"><ele>815.6</ele><time>2026-05-03T10:16:00Z</time></trkpt><trkpt lat="37.03607340768226" lon="14.718646148850633"><ele>812.0</ele><time>2026-05-03T10:16:01Z</time></trkpt><trkpt lat="37.03618406868999" lon="14.718614326677407"><ele>812.0</ele><time>2026-05-03T10:16:02Z</time></trkpt><trkpt lat="37.03628084170747" lon="14.718566323145295"><ele>812.0</ele><time>2026-05-03T10:16:03Z</time></trkpt><trkpt lat="37.03636392927841" lon="14.718551280628496"><ele>812.0</ele><time>2026-05-03T10:16:04Z</time></trkpt><trkpt lat="37.03655558267971" lon="14.718570384511205"><ele>812.0</ele><time>2026-05-03T10:16:09Z</time></trkpt><trkpt lat="37.036639298155976" lon="14.718653392442349"><ele>809.5000000000001</ele><time>2026-05-03T10:16:11Z</time></trkpt><trkpt lat="37.03673408623563" lon="14.718753033906747"><ele>807.0</ele><time>2026-05-03T10:16:13Z</time></trkpt><trkpt lat="37.03673972571277" lon="14.718847785306767"><ele>804.5</ele><time>2026-05-03T10:16:14Z</time></trkpt><trkpt lat="37.03676047215338" lon="14.718927853865017"><ele>802.0</ele><time>2026-05-03T10:16:15Z</time></trkpt><trkpt lat="37.036781810055366" lon="14.719028462525975"><ele>799.5000000000001</ele><time>2026-05-03T10:16:16Z</time></trkpt><trkpt lat="37.03679995310438" lon="14.719133522676227"><ele>797.0</ele><time>2026-05-03T10:16:17Z</time></trkpt><trkpt lat="37.03681711404763" lon="14.719232895765632"><ele>797.0</ele><time>2026-05-03T10:16:18Z</time></trkpt><trkpt lat="37.036833043377435" lon="14.719325089225167"><ele>797.0</ele><time>2026-05-03T10:16:19Z</time></trkpt><trkpt lat="37.03684932484251" lon="14.719424819744178"><ele>797.0</ele><time>2026-05-03T10:16:20Z</time></trkpt><trkpt lat="37.036870074553754" lon="14.719556002921884"><ele>797.0</ele><time>2026-05-03T10:16:20.999Z</time></trkpt><trkpt lat="37.036889493084935" lon="14.719688523610113"><ele>797.0</ele><time>2026-05-03T10:16:21.999Z</time></trkpt><trkpt lat="37.036910906601946" lon="14.719837083767144"><ele>796.75</ele><time>2026-05-03T10:16:22.999Z</time></trkpt><trkpt lat="37.03692594311551" lon="14.720000313709345"><ele>796.5</ele><time>2026-05-03T10:16:23.999Z</time></trkpt><trkpt lat="37.03693285661087" lon="14.720159208722189"><ele>796.25</ele><time>2026-05-03T10:16:24.999Z</time></trkpt><trkpt lat="37.036935688375536" lon="14.720320930060922"><ele>796.0</ele><time>2026-05-03T10:16:25.999Z</time></trkpt><trkpt lat="37.03693478546776" lon="14.720496666793046"><ele>795.0</ele><time>2026-05-03T10:16:26.999Z</time></trkpt><trkpt lat="37.03692986017374" lon="14.720675968959505"><ele>794.0</ele><time>2026-05-03T10:16:27.999Z</time></trkpt><trkpt lat="37.036919069843826" lon="14.720846166604064"><ele>793.0</ele><time>2026-05-03T10:16:28.999Z</time></trkpt><trkpt lat="37.03690171619031" lon="14.721008145668268"><ele>792.0</ele><time>2026-05-03T10:16:29.999Z</time></trkpt><trkpt lat="37.03688488762012" lon="14.72116239784794"><ele>791.3333333333334</ele><time>2026-05-03T10:16:30.999Z</time></trkpt><trkpt lat="37.03686996322799" lon="14.721299196133089"><ele>790.6666666666667</ele><time>2026-05-03T10:16:31.999Z</time></trkpt><trkpt lat="37.036858798731885" lon="14.721404367212498"><ele>790.0</ele><time>2026-05-03T10:16:32.999Z</time></trkpt><trkpt lat="37.03685158386478" lon="14.72149207293694"><ele>789.3333333333334</ele><time>2026-05-03T10:16:33.999Z</time></trkpt><trkpt lat="37.03683568989317" lon="14.721618681040065"><ele>788.6666666666667</ele><time>2026-05-03T10:16:35.999Z</time></trkpt><trkpt lat="37.03679620261437" lon="14.721688181442104"><ele>788.0</ele><time>2026-05-03T10:16:41.999Z</time></trkpt><trkpt lat="37.036731267198" lon="14.721702263838301"><ele>788.0000000000001</ele><time>2026-05-03T10:17:00.999Z</time></trkpt><trkpt lat="37.03679519831353" lon="14.72167206881637"><ele>788.0</ele><time>2026-05-03T10:17:08.999Z</time></trkpt><trkpt lat="37.036853200804984" lon="14.721717260190287"><ele>788.0</ele><time>2026-05-03T10:17:19.999Z</time></trkpt><trkpt lat="37.036933189419514" lon="14.72168063128414"><ele>788.0</ele><time>2026-05-03T10:17:21.999Z</time></trkpt><trkpt lat="37.03695720005471" lon="14.721547170962031"><ele>788.0000000000001</ele><time>2026-05-03T10:17:23.999Z</time></trkpt><trkpt lat="37.036931975318005" lon="14.721453115396638"><ele>788.0</ele><time>2026-05-03T10:17:24.999Z</time></trkpt><trkpt lat="37.036904981412526" lon="14.721332956340794"><ele>788.0</ele><time>2026-05-03T10:17:25.999Z</time></trkpt><trkpt lat="37.03689768851294" lon="14.721199249519673"><ele>788.0</ele><time>2026-05-03T10:17:26.999Z</time></trkpt><trkpt lat="37.036906019648264" lon="14.72105758612039"><ele>788.0</ele><time>2026-05-03T10:17:27.999Z</time></trkpt><trkpt lat="37.03693014616567" lon="14.720924363838286"><ele>788.0</ele><time>2026-05-03T10:17:28.999Z</time></trkpt><trkpt lat="37.03695169039595" lon="14.72076968963216"><ele>789.0</ele><time>2026-05-03T10:17:29.999Z</time></trkpt><trkpt lat="37.03696237687674" lon="14.720633754535106"><ele>790.0</ele><time>2026-05-03T10:17:30.999Z</time></trkpt><trkpt lat="37.03696778300746" lon="14.720490400912297"><ele>791.0</ele><time>2026-05-03T10:17:31.999Z</time></trkpt><trkpt lat="37.03697349282033" lon="14.720337727435401"><ele>792.0</ele><time>2026-05-03T10:17:32.999Z</time></trkpt><trkpt lat="37.036973786529515" lon="14.72018015519386"><ele>793.0</ele><time>2026-05-03T10:17:33.999Z</time></trkpt><trkpt lat="37.03696950992748" lon="14.720024695380461"><ele>794.0</ele><time>2026-05-03T10:17:34.999Z</time></trkpt><trkpt lat="37.03696229136429" lon="14.71986145189278"><ele>795.0</ele><time>2026-05-03T10:17:35.999Z</time></trkpt><trkpt lat="37.03694497237572" lon="14.719706521205211"><ele>796.0</ele><time>2026-05-03T10:17:37Z</time></trkpt><trkpt lat="37.036916522730124" lon="14.71955610909405"><ele>796.0</ele><time>2026-05-03T10:17:38Z</time></trkpt><trkpt lat="37.03688843195429" lon="14.719420627904864"><ele>796.0</ele><time>2026-05-03T10:17:39Z</time></trkpt><trkpt lat="37.03686349769655" lon="14.719286861241176"><ele>796.0</ele><time>2026-05-03T10:17:40Z</time></trkpt><trkpt lat="37.03684204009339" lon="14.71915817870791"><ele>796.0</ele><time>2026-05-03T10:17:41Z</time></trkpt><trkpt lat="37.036820358558685" lon="14.719031175130146"><ele>796.0</ele><time>2026-05-03T10:17:42Z</time></trkpt><trkpt lat="37.03679553782303" lon="14.71891567546311"><ele>796.1666666666666</ele><time>2026-05-03T10:17:43Z</time></trkpt><trkpt lat="37.0367687190452" lon="14.71882143146203"><ele>796.3333333333333</ele><time>2026-05-03T10:17:44Z</time></trkpt><trkpt lat="37.036741483142194" lon="14.718722434535238"><ele>796.5</ele><time>2026-05-03T10:17:45Z</time></trkpt><trkpt lat="37.036708250473175" lon="14.71863278323397"><ele>796.6666666666667</ele><time>2026-05-03T10:17:46Z</time></trkpt><trkpt lat="37.03666253967444" lon="14.71855248997837"><ele>796.8333333333334</ele><time>2026-05-03T10:17:47Z</time></trkpt><trkpt lat="37.03660417100932" lon="14.718484873790986"><ele>797.0</ele><time>2026-05-03T10:17:48Z</time></trkpt><trkpt lat="37.03653633174309" lon="14.71843956013154"><ele>799.8333333333334</ele><time>2026-05-03T10:17:49Z</time></trkpt><trkpt lat="37.03646937899419" lon="14.718411588413607"><ele>802.6666666666667</ele><time>2026-05-03T10:17:50Z</time></trkpt><trkpt lat="37.036410778449664" lon="14.718378204769493"><ele>805.5</ele><time>2026-05-03T10:17:51Z</time></trkpt><trkpt lat="37.03637804103849" lon="14.71822646721285"><ele>808.3333333333333</ele><time>2026-05-03T10:17:53Z</time></trkpt><trkpt lat="37.03634962060058" lon="14.718092506676236"><ele>811.1666666666666</ele><time>2026-05-03T10:17:55Z</time></trkpt><trkpt lat="37.03635975324547" lon="14.718005612045351"><ele>814.0</ele><time>2026-05-03T10:17:57Z</time></trkpt><trkpt lat="37.03634655373763" lon="14.718118487672925"><ele>813.9999999999999</ele><time>2026-05-03T10:18:01Z</time></trkpt><trkpt lat="37.036371134983845" lon="14.718225241961147"><ele>814.0</ele><time>2026-05-03T10:18:02Z</time></trkpt><trkpt lat="37.03641282738006" lon="14.71832646026123"><ele>814.0</ele><time>2026-05-03T10:18:03Z</time></trkpt><trkpt lat="37.036457382148015" lon="14.718414325208846"><ele>814.0</ele><time>2026-05-03T10:18:04Z</time></trkpt><trkpt lat="37.03652098885341" lon="14.718478487344418"><ele>813.9999999999999</ele><time>2026-05-03T10:18:05Z</time></trkpt><trkpt lat="37.03657835429578" lon="14.71856527332311"><ele>814.0</ele><time>2026-05-03T10:18:06Z</time></trkpt><trkpt lat="37.03663138823411" lon="14.718613134923142"><ele>810.6</ele><time>2026-05-03T10:18:07Z</time></trkpt><trkpt lat="37.036688293889405" lon="14.718710436543525"><ele>807.2</ele><time>2026-05-03T10:18:09Z</time></trkpt><trkpt lat="37.03673229931379" lon="14.718831607829019"><ele>803.8000000000001</ele><time>2026-05-03T10:18:11Z</time></trkpt><trkpt lat="37.03675502256335" lon="14.718908540308552"><ele>800.4000000000001</ele><time>2026-05-03T10:18:12Z</time></trkpt><trkpt lat="37.03678854836541" lon="14.719067481779797"><ele>797.0</ele><time>2026-05-03T10:18:14Z</time></trkpt><trkpt lat="37.03680330448171" lon="14.719152929344425"><ele>797.0000000000001</ele><time>2026-05-03T10:18:15Z</time></trkpt><trkpt lat="37.03681682932076" lon="14.719231247017769"><ele>797.0</ele><time>2026-05-03T10:18:16Z</time></trkpt><trkpt lat="37.03683015329956" lon="14.719308401566582"><ele>797.0</ele><time>2026-05-03T10:18:17Z</time></trkpt><trkpt lat="37.036852535710686" lon="14.719444487612106"><ele>797.0</ele><time>2026-05-03T10:18:19Z</time></trkpt><trkpt lat="37.036876230323" lon="14.719598012643008"><ele>797.0000000000001</ele><time>2026-05-03T10:18:21Z</time></trkpt><trkpt lat="37.03688800920345" lon="14.719678396955498"><ele>797.0</ele><time>2026-05-03T10:18:22Z</time></trkpt><trkpt lat="37.036901040685926" lon="14.719767329605673"><ele>796.8333333333334</ele><time>2026-05-03T10:18:22.999Z</time></trkpt><trkpt lat="37.03691363658982" lon="14.719859501816572"><ele>796.6666666666667</ele><time>2026-05-03T10:18:23.999Z</time></trkpt><trkpt lat="37.0369226054931" lon="14.719953953252228"><ele>796.5</ele><time>2026-05-03T10:18:24.999Z</time></trkpt><trkpt lat="37.0369287319441" lon="14.720049928939705"><ele>796.3333333333333</ele><time>2026-05-03T10:18:25.999Z</time></trkpt><trkpt lat="37.03693241198517" lon="14.72014686261126"><ele>796.1666666666666</ele><time>2026-05-03T10:18:26.999Z</time></trkpt><trkpt lat="37.03693445107394" lon="14.720238737998322"><ele>796.0</ele><time>2026-05-03T10:18:27.999Z</time></trkpt><trkpt lat="37.036935632149344" lon="14.720338617479538"><ele>795.1999999999999</ele><time>2026-05-03T10:18:28.999Z</time></trkpt><trkpt lat="37.03693541031322" lon="14.720453968927588"><ele>794.4</ele><time>2026-05-03T10:18:29.999Z</time></trkpt><trkpt lat="37.03693366520823" lon="14.720573217773236"><ele>793.6</ele><time>2026-05-03T10:18:30.999Z</time></trkpt><trkpt lat="37.036928920171505" lon="14.720700026012043"><ele>792.8</ele><time>2026-05-03T10:18:31.999Z</time></trkpt><trkpt lat="37.03692173572351" lon="14.720816591992333"><ele>792.0</ele><time>2026-05-03T10:18:32.999Z</time></trkpt><trkpt lat="37.03691011879671" lon="14.720931126610882"><ele>792.0</ele><time>2026-05-03T10:18:33.999Z</time></trkpt><trkpt lat="37.03694515118729" lon="14.72104875264373"><ele>792.0</ele><time>2026-05-03T10:18:34.999Z</time></trkpt><trkpt lat="37.03693298660933" lon="14.721159062270395"><ele>792.0</ele><time>2026-05-03T10:18:35.999Z</time></trkpt><trkpt lat="37.036918215407354" lon="14.721260490966968"><ele>792.0</ele><time>2026-05-03T10:18:36.999Z</time></trkpt><trkpt lat="37.03691335578056" lon="14.721353845529777"><ele>792.0</ele><time>2026-05-03T10:18:37.999Z</time></trkpt><trkpt lat="37.03690979546213" lon="14.721436782117092"><ele>792.0</ele><time>2026-05-03T10:18:38.999Z</time></trkpt><trkpt lat="37.03688765836932" lon="14.721554729643978"><ele>791.2</ele><time>2026-05-03T10:18:40.999Z</time></trkpt><trkpt lat="37.03683496377187" lon="14.721612730983301"><ele>790.4000000000001</ele><time>2026-05-03T10:18:42.999Z</time></trkpt><trkpt lat="37.036850834998134" lon="14.721726457864577"><ele>789.5999999999999</ele><time>2026-05-03T10:18:58.999Z</time></trkpt><trkpt lat="37.036781520018415" lon="14.721876821597213"><ele>788.8</ele><time>2026-05-03T10:19:00.999Z</time></trkpt><trkpt lat="37.03673769162911" lon="14.721975296221734"><ele>788.0</ele><time>2026-05-03T10:19:01.999Z</time></trkpt><trkpt lat="37.03670499244747" lon="14.722086755288618"><ele>788.2</ele><time>2026-05-03T10:19:02.999Z</time></trkpt><trkpt lat="37.03668491037805" lon="14.722228241226173"><ele>788.4</ele><time>2026-05-03T10:19:03.999Z</time></trkpt><trkpt lat="37.03665290133843" lon="14.722372919022492"><ele>788.6</ele><time>2026-05-03T10:19:04.999Z</time></trkpt><trkpt lat="37.03664238270376" lon="14.722501265332761"><ele>788.8000000000001</ele><time>2026-05-03T10:19:05.999Z</time></trkpt><trkpt lat="37.036631284890895" lon="14.722640367322088"><ele>789.0</ele><time>2026-05-03T10:19:06.999Z</time></trkpt><trkpt lat="37.03662127336312" lon="14.722792844153712"><ele>787.25</ele><time>2026-05-03T10:19:07.999Z</time></trkpt><trkpt lat="37.03661224803321" lon="14.722947811974352"><ele>785.5</ele><time>2026-05-03T10:19:08.999Z</time></trkpt><trkpt lat="37.03660366427437" lon="14.723090044484591"><ele>783.75</ele><time>2026-05-03T10:19:09.999Z</time></trkpt><trkpt lat="37.03659316116017" lon="14.723226228879717"><ele>782.0</ele><time>2026-05-03T10:19:10.999Z</time></trkpt><trkpt lat="37.036578754258315" lon="14.72336530672398"><ele>782.0</ele><time>2026-05-03T10:19:11.999Z</time></trkpt><trkpt lat="37.03655966144232" lon="14.723500632444448"><ele>782.0</ele><time>2026-05-03T10:19:12.999Z</time></trkpt><trkpt lat="37.03654025656775" lon="14.723634710205717"><ele>782.0</ele><time>2026-05-03T10:19:13.999Z</time></trkpt><trkpt lat="37.03651893186656" lon="14.72376559847862"><ele>782.0</ele><time>2026-05-03T10:19:14.999Z</time></trkpt><trkpt lat="37.03649826544097" lon="14.723882665539618"><ele>782.0</ele><time>2026-05-03T10:19:15.999Z</time></trkpt><trkpt lat="37.03647702873368" lon="14.72399897734354"><ele>780.4000000000001</ele><time>2026-05-03T10:19:16.999Z</time></trkpt><trkpt lat="37.03645293837638" lon="14.724124832553661"><ele>778.8000000000001</ele><time>2026-05-03T10:19:17.999Z</time></trkpt><trkpt lat="37.036425892233474" lon="14.724258373149873"><ele>777.2</ele><time>2026-05-03T10:19:18.999Z</time></trkpt><trkpt lat="37.0363918290145" lon="14.724389849459294"><ele>775.6</ele><time>2026-05-03T10:19:19.999Z</time></trkpt><trkpt lat="37.03635290703656" lon="14.724521546392092"><ele>774.0</ele><time>2026-05-03T10:19:20.999Z</time></trkpt><trkpt lat="37.03631586152118" lon="14.72464250346691"><ele>772.4000000000001</ele><time>2026-05-03T10:19:21.999Z</time></trkpt><trkpt lat="37.03627748794253" lon="14.724767796818899"><ele>770.8</ele><time>2026-05-03T10:19:22.999Z</time></trkpt><trkpt lat="37.03624985003989" lon="14.724904998377083"><ele>769.2</ele><time>2026-05-03T10:19:23.999Z</time></trkpt><trkpt lat="37.03621986444245" lon="14.725028338970697"><ele>767.5999999999999</ele><time>2026-05-03T10:19:24.999Z</time></trkpt><trkpt lat="37.036179600081425" lon="14.725133402721978"><ele>766.0</ele><time>2026-05-03T10:19:25.999Z</time></trkpt><trkpt lat="37.03613959039334" lon="14.725250552810444"><ele>764.6666666666667</ele><time>2026-05-03T10:19:26.999Z</time></trkpt><trkpt lat="37.03611465473141" lon="14.725355006285772"><ele>763.3333333333334</ele><time>2026-05-03T10:19:27.999Z</time></trkpt><trkpt lat="37.036097947786196" lon="14.725454666719665"><ele>762.0</ele><time>2026-05-03T10:19:28.999Z</time></trkpt><trkpt lat="37.03608203414646" lon="14.725566047295843"><ele>760.6666666666666</ele><time>2026-05-03T10:19:29.999Z</time></trkpt><trkpt lat="37.036070905098214" lon="14.725673191339329"><ele>759.3333333333333</ele><time>2026-05-03T10:19:30.999Z</time></trkpt><trkpt lat="37.03605158971154" lon="14.725772509134366"><ele>758.0</ele><time>2026-05-03T10:19:31.999Z</time></trkpt><trkpt lat="37.036027972068766" lon="14.725875128384878"><ele>758.0</ele><time>2026-05-03T10:19:32.999Z</time></trkpt><trkpt lat="37.0360020669692" lon="14.725980959507133"><ele>758.0</ele><time>2026-05-03T10:19:33.999Z</time></trkpt><trkpt lat="37.03597558977816" lon="14.726087601579609"><ele>758.0</ele><time>2026-05-03T10:19:34.999Z</time></trkpt><trkpt lat="37.035949992346445" lon="14.726190735213192"><ele>758.0</ele><time>2026-05-03T10:19:35.999Z</time></trkpt><trkpt lat="37.03592684189091" lon="14.726287046586569"><ele>758.0</ele><time>2026-05-03T10:19:36.999Z</time></trkpt><trkpt lat="37.035902486546746" lon="14.726388370594517"><ele>758.0</ele><time>2026-05-03T10:19:38.999Z</time></trkpt><trkpt lat="37.03586713251524" lon="14.726463059219652"><ele>758.0</ele><time>2026-05-03T10:19:44Z</time></trkpt><trkpt lat="37.035997606084806" lon="14.726224736019207"><ele>758.0</ele><time>2026-05-03T10:19:56Z</time></trkpt><trkpt lat="37.03601169318686" lon="14.726140959930659"><ele>758.0</ele><time>2026-05-03T10:19:57Z</time></trkpt><trkpt lat="37.036025239268874" lon="14.726055773888511"><ele>758.0</ele><time>2026-05-03T10:19:58Z</time></trkpt><trkpt lat="37.03604261173568" lon="14.725957951501965"><ele>758.0</ele><time>2026-05-03T10:19:59Z</time></trkpt><trkpt lat="37.036064192367256" lon="14.725861134598745"><ele>758.0</ele><time>2026-05-03T10:20:00Z</time></trkpt><trkpt lat="37.036091147191016" lon="14.725756768312946"><ele>758.0</ele><time>2026-05-03T10:20:01Z</time></trkpt><trkpt lat="37.036119675908026" lon="14.725647257331808"><ele>758.0</ele><time>2026-05-03T10:20:02Z</time></trkpt><trkpt lat="37.036138620074354" lon="14.725529593705257"><ele>758.0</ele><time>2026-05-03T10:20:03Z</time></trkpt><trkpt lat="37.0361387918912" lon="14.725417266626138"><ele>758.0</ele><time>2026-05-03T10:20:04Z</time></trkpt><trkpt lat="37.03614152567581" lon="14.725294214653033"><ele>759.5999999999999</ele><time>2026-05-03T10:20:05Z</time></trkpt><trkpt lat="37.03617095363799" lon="14.725188468849419"><ele>761.1999999999999</ele><time>2026-05-03T10:20:06Z</time></trkpt><trkpt lat="37.03621619786431" lon="14.725078534176818"><ele>762.8</ele><time>2026-05-03T10:20:07Z</time></trkpt><trkpt lat="37.036268208522806" lon="14.724981054534814"><ele>764.4</ele><time>2026-05-03T10:20:08Z</time></trkpt><trkpt lat="37.03630317750044" lon="14.72486486542857"><ele>766.0</ele><time>2026-05-03T10:20:09Z</time></trkpt><trkpt lat="37.036322835208054" lon="14.72474359833737"><ele>766.0</ele><time>2026-05-03T10:20:10Z</time></trkpt><trkpt lat="37.03635258727135" lon="14.724614265630134"><ele>766.0</ele><time>2026-05-03T10:20:11Z</time></trkpt><trkpt lat="37.03639408862298" lon="14.72449848843848"><ele>766.0</ele><time>2026-05-03T10:20:12Z</time></trkpt><trkpt lat="37.036432295089135" lon="14.724376767614265"><ele>766.0</ele><time>2026-05-03T10:20:13Z</time></trkpt><trkpt lat="37.03646038598824" lon="14.724242593206643"><ele>766.0</ele><time>2026-05-03T10:20:14Z</time></trkpt><trkpt lat="37.036479320153326" lon="14.724120076066384"><ele>767.5999999999999</ele><time>2026-05-03T10:20:15Z</time></trkpt><trkpt lat="37.036502008586346" lon="14.724004691834082"><ele>769.2</ele><time>2026-05-03T10:20:16Z</time></trkpt><trkpt lat="37.036528226176266" lon="14.723893875077694"><ele>770.8</ele><time>2026-05-03T10:20:17Z</time></trkpt><trkpt lat="37.036557559251044" lon="14.723786127458922"><ele>772.4000000000001</ele><time>2026-05-03T10:20:18Z</time></trkpt><trkpt lat="37.03657661677752" lon="14.723663211598641"><ele>774.0</ele><time>2026-05-03T10:20:19Z</time></trkpt><trkpt lat="37.03658729133727" lon="14.7235486241089"><ele>774.8000000000001</ele><time>2026-05-03T10:20:20Z</time></trkpt><trkpt lat="37.03659503399673" lon="14.723415653513708"><ele>775.6</ele><time>2026-05-03T10:20:21Z</time></trkpt><trkpt lat="37.036610930117746" lon="14.723286111481"><ele>776.4</ele><time>2026-05-03T10:20:22Z</time></trkpt><trkpt lat="37.03662888586917" lon="14.723156531784829"><ele>777.2</ele><time>2026-05-03T10:20:23Z</time></trkpt><trkpt lat="37.03663753387481" lon="14.723025489755925"><ele>778.0</ele><time>2026-05-03T10:20:24Z</time></trkpt><trkpt lat="37.036644039234794" lon="14.722887663842133"><ele>778.0</ele><time>2026-05-03T10:20:24.999Z</time></trkpt><trkpt lat="37.03665076199399" lon="14.722749486575296"><ele>778.0</ele><time>2026-05-03T10:20:25.999Z</time></trkpt><trkpt lat="37.03666280420239" lon="14.72260378654271"><ele>778.0</ele><time>2026-05-03T10:20:26.999Z</time></trkpt><trkpt lat="37.036673712271714" lon="14.722465454756506"><ele>778.0</ele><time>2026-05-03T10:20:27.999Z</time></trkpt><trkpt lat="37.03668295895925" lon="14.722335032358432"><ele>778.0</ele><time>2026-05-03T10:20:28.999Z</time></trkpt><trkpt lat="37.036695628949104" lon="14.722203110603871"><ele>778.9999999999999</ele><time>2026-05-03T10:20:29.999Z</time></trkpt><trkpt lat="37.03670630107857" lon="14.722078592783435"><ele>780.0</ele><time>2026-05-03T10:20:30.999Z</time></trkpt><trkpt lat="37.03671618900333" lon="14.72195652468454"><ele>781.0</ele><time>2026-05-03T10:20:31.999Z</time></trkpt><trkpt lat="37.036733280671875" lon="14.721856023208105"><ele>782.0</ele><time>2026-05-03T10:20:32.999Z</time></trkpt><trkpt lat="37.03676076488756" lon="14.721780590984988"><ele>782.9999999999999</ele><time>2026-05-03T10:20:33.999Z</time></trkpt><trkpt lat="37.03681715243072" lon="14.72173645896031"><ele>784.0</ele><time>2026-05-03T10:20:49.999Z</time></trkpt><trkpt lat="37.03685033521529" lon="14.721666991091318"><ele>784.8000000000001</ele><time>2026-05-03T10:21:48Z</time></trkpt><trkpt lat="37.036890796320954" lon="14.721522140075903"><ele>785.6</ele><time>2026-05-03T10:21:50Z</time></trkpt><trkpt lat="37.036907702381406" lon="14.721403760737296"><ele>786.4</ele><time>2026-05-03T10:21:51Z</time></trkpt><trkpt lat="37.03692103567131" lon="14.721266039674786"><ele>787.2</ele><time>2026-05-03T10:21:52Z</time></trkpt><trkpt lat="37.03692327607574" lon="14.721115769779962"><ele>788.0</ele><time>2026-05-03T10:21:53Z</time></trkpt><trkpt lat="37.036925550186695" lon="14.720957331179374"><ele>789.0</ele><time>2026-05-03T10:21:54Z</time></trkpt><trkpt lat="37.03694772251109" lon="14.720802498056626"><ele>790.0</ele><time>2026-05-03T10:21:55Z</time></trkpt><trkpt lat="37.03696327917646" lon="14.720635655459038"><ele>791.0</ele><time>2026-05-03T10:21:56Z</time></trkpt><trkpt lat="37.036968097655425" lon="14.720476371990337"><ele>792.0</ele><time>2026-05-03T10:21:57Z</time></trkpt><trkpt lat="37.03696631842234" lon="14.720302817642215"><ele>793.0</ele><time>2026-05-03T10:21:58Z</time></trkpt><trkpt lat="37.036971672690406" lon="14.720115990933026"><ele>794.0</ele><time>2026-05-03T10:21:59Z</time></trkpt><trkpt lat="37.03696047401327" lon="14.719957551040931"><ele>795.0</ele><time>2026-05-03T10:22:00Z</time></trkpt><trkpt lat="37.03694889706538" lon="14.719803822617719"><ele>796.0</ele><time>2026-05-03T10:22:01Z</time></trkpt><trkpt lat="37.036929795578075" lon="14.719658685287092"><ele>795.9999999999999</ele><time>2026-05-03T10:22:02Z</time></trkpt><trkpt lat="37.036904651738155" lon="14.719528697580293"><ele>796.0</ele><time>2026-05-03T10:22:03Z</time></trkpt><trkpt lat="37.03688548419409" lon="14.719426017815675"><ele>796.0</ele><time>2026-05-03T10:22:04Z</time></trkpt><trkpt lat="37.03686861801376" lon="14.719319905611613"><ele>796.0</ele><time>2026-05-03T10:22:05Z</time></trkpt><trkpt lat="37.03685579285073" lon="14.719215215458233"><ele>795.9999999999999</ele><time>2026-05-03T10:22:06Z</time></trkpt><trkpt lat="37.03683768439406" lon="14.719116327039744"><ele>796.0</ele><time>2026-05-03T10:22:07Z</time></trkpt><trkpt lat="37.036818064421404" lon="14.719024289729639"><ele>796.1428571428571</ele><time>2026-05-03T10:22:08Z</time></trkpt><trkpt lat="37.03680778558572" lon="14.718937349430593"><ele>796.2857142857142</ele><time>2026-05-03T10:22:09Z</time></trkpt><trkpt lat="37.03679372324643" lon="14.718860443394572"><ele>796.4285714285713</ele><time>2026-05-03T10:22:10Z</time></trkpt><trkpt lat="37.03677081586194" lon="14.71877590957219"><ele>796.5714285714286</ele><time>2026-05-03T10:22:11Z</time></trkpt><trkpt lat="37.03673833459863" lon="14.718677035534183"><ele>796.7142857142858</ele><time>2026-05-03T10:22:13Z</time></trkpt><trkpt lat="37.03668253186489" lon="14.7186257173548"><ele>796.8571428571428</ele><time>2026-05-03T10:22:18Z</time></trkpt><trkpt lat="37.03661047905994" lon="14.718686465523339"><ele>797.0</ele><time>2026-05-03T10:22:19Z</time></trkpt><trkpt lat="37.03651998663084" lon="14.71864833870883"><ele>799.5000000000001</ele><time>2026-05-03T10:22:21Z</time></trkpt><trkpt lat="37.03645413688779" lon="14.71858042292518"><ele>802.0</ele><time>2026-05-03T10:22:23Z</time></trkpt><trkpt lat="37.03640748055865" lon="14.718500394385917"><ele>804.5</ele><time>2026-05-03T10:22:25Z</time></trkpt><trkpt lat="37.03633976728158" lon="14.718514571068468"><ele>807.0</ele><time>2026-05-03T10:22:27.999Z</time></trkpt><trkpt lat="37.036285044824794" lon="14.71846027821455"><ele>809.5000000000001</ele><time>2026-05-03T10:22:30.999Z</time></trkpt><trkpt lat="37.0362232003551" lon="14.718345424155718"><ele>812.0</ele><time>2026-05-03T10:22:32.999Z</time></trkpt><trkpt lat="37.036188989657234" lon="14.718231600892743"><ele>812.3333333333334</ele><time>2026-05-03T10:22:34.999Z</time></trkpt><trkpt lat="37.03619227444803" lon="14.718137290361577"><ele>812.6666666666667</ele><time>2026-05-03T10:22:37.999Z</time></trkpt><trkpt lat="37.0361717405515" lon="14.718054250520423"><ele>813.0</ele><time>2026-05-03T10:22:39.999Z</time></trkpt><trkpt lat="37.036153358224716" lon="14.717914264980353"><ele>813.3333333333333</ele><time>2026-05-03T10:22:41.999Z</time></trkpt><trkpt lat="37.03612244284143" lon="14.717795730896729"><ele>813.6666666666666</ele><time>2026-05-03T10:22:43.999Z</time></trkpt><trkpt lat="37.036097485934164" lon="14.717721699789047"><ele>814.0</ele><time>2026-05-03T10:22:44.999Z</time></trkpt><trkpt lat="37.036079722080274" lon="14.717621285434728"><ele>814.0000000000001</ele><time>2026-05-03T10:22:46.999Z</time></trkpt><trkpt lat="37.0360678297335" lon="14.717534780806051"><ele>814.0</ele><time>2026-05-03T10:22:48.999Z</time></trkpt><trkpt lat="37.03604593889411" lon="14.717455477938005"><ele>814.0</ele><time>2026-05-03T10:22:54.999Z</time></trkpt><trkpt lat="37.03605438793973" lon="14.71737134088227"><ele>814.0</ele><time>2026-05-03T10:22:56.999Z</time></trkpt><trkpt lat="37.03605881287159" lon="14.71728905203794"><ele>814.0</ele><time>2026-05-03T10:22:57.999Z</time></trkpt><trkpt lat="37.03606796701134" lon="14.717196849682356"><ele>814.0000000000001</ele><time>2026-05-03T10:22:58.999Z</time></trkpt><trkpt lat="37.036067421186694" lon="14.717117151341183"><ele>814.0</ele><time>2026-05-03T10:22:59.999Z</time></trkpt><trkpt lat="37.03606968616352" lon="14.716993599342159"><ele>813.1666666666666</ele><time>2026-05-03T10:23:01.999Z</time></trkpt><trkpt lat="37.036100168695135" lon="14.716870041736597"><ele>812.3333333333333</ele><time>2026-05-03T10:23:03.999Z</time></trkpt><trkpt lat="37.03608544542835" lon="14.716766100830997"><ele>811.5</ele><time>2026-05-03T10:23:05.999Z</time></trkpt><trkpt lat="37.03607885711394" lon="14.71665425533177"><ele>810.6666666666667</ele><time>2026-05-03T10:23:08.999Z</time></trkpt><trkpt lat="37.03612948450354" lon="14.716589307193953"><ele>809.8333333333334</ele><time>2026-05-03T10:23:10.999Z</time></trkpt><trkpt lat="37.03617309167772" lon="14.716508480679337"><ele>809.0</ele><time>2026-05-03T10:23:12.999Z</time></trkpt><trkpt lat="37.036178067949294" lon="14.716361358671668"><ele>809.0</ele><time>2026-05-03T10:23:15.999Z</time></trkpt><trkpt lat="37.036187318495045" lon="14.71628073613019"><ele>809.0</ele><time>2026-05-03T10:23:16.999Z</time></trkpt><trkpt lat="37.03618301326293" lon="14.71619612710902"><ele>809.0</ele><time>2026-05-03T10:23:17.999Z</time></trkpt><trkpt lat="37.03624719209019" lon="14.71605308181667"><ele>809.0</ele><time>2026-05-03T10:23:19.999Z</time></trkpt><trkpt lat="37.036249487336036" lon="14.715922525625812"><ele>809.0</ele><time>2026-05-03T10:23:21.999Z</time></trkpt><trkpt lat="37.03625609778381" lon="14.71581529806754"><ele>809.0</ele><time>2026-05-03T10:23:24.999Z</time></trkpt><trkpt lat="37.03626149593092" lon="14.715727735278376"><ele>809.0</ele><time>2026-05-03T10:23:28.999Z</time></trkpt><trkpt lat="37.03627958344478" lon="14.715959828252304"><ele>809.0</ele><time>2026-05-03T10:23:38.999Z</time></trkpt><trkpt lat="37.036302658240466" lon="14.716035185666515"><ele>809.0</ele><time>2026-05-03T10:23:39.999Z</time></trkpt><trkpt lat="37.036330269296435" lon="14.716125357546893"><ele>809.0</ele><time>2026-05-03T10:23:40.999Z</time></trkpt><trkpt lat="37.03636222260822" lon="14.716229710070023"><ele>809.0</ele><time>2026-05-03T10:23:41.999Z</time></trkpt><trkpt lat="37.03624723119649" lon="14.716417552233922"><ele>809.0</ele><time>2026-05-03T10:23:42.999Z</time></trkpt><trkpt lat="37.03624283686366" lon="14.716543502498991"><ele>809.0</ele><time>2026-05-03T10:23:43.999Z</time></trkpt><trkpt lat="37.03624114086857" lon="14.716663335218023"><ele>809.0</ele><time>2026-05-03T10:23:44.999Z</time></trkpt><trkpt lat="37.03624175010626" lon="14.716783953431861"><ele>809.0</ele><time>2026-05-03T10:23:45.999Z</time></trkpt><trkpt lat="37.036245123185374" lon="14.716896716188304"><ele>809.0</ele><time>2026-05-03T10:23:46.999Z</time></trkpt><trkpt lat="37.0362583314439" lon="14.716995718717229"><ele>809.0</ele><time>2026-05-03T10:23:47.999Z</time></trkpt><trkpt lat="37.03627053058334" lon="14.71709215857245"><ele>809.0</ele><time>2026-05-03T10:23:48.999Z</time></trkpt><trkpt lat="37.03628189065767" lon="14.71720730345046"><ele>809.0</ele><time>2026-05-03T10:23:49.999Z</time></trkpt><trkpt lat="37.03628112503054" lon="14.71735172828185"><ele>810.25</ele><time>2026-05-03T10:23:50.999Z</time></trkpt><trkpt lat="37.03627836386008" lon="14.717496117964917"><ele>811.5</ele><time>2026-05-03T10:23:51.999Z</time></trkpt><trkpt lat="37.03627395170325" lon="14.717644235938934"><ele>812.75</ele><time>2026-05-03T10:23:52.999Z</time></trkpt><trkpt lat="37.03629064393077" lon="14.71779027668217"><ele>814.0</ele><time>2026-05-03T10:23:54Z</time></trkpt><trkpt lat="37.03631988670954" lon="14.7179415789307"><ele>814.0</ele><time>2026-05-03T10:23:55Z</time></trkpt><trkpt lat="37.03634600024045" lon="14.718096755724957"><ele>814.0</ele><time>2026-05-03T10:23:56Z</time></trkpt><trkpt lat="37.03636370225475" lon="14.718225616722334"><ele>814.0</ele><time>2026-05-03T10:23:57Z</time></trkpt><trkpt lat="37.036388888171416" lon="14.718330294490297"><ele>814.0</ele><time>2026-05-03T10:23:58Z</time></trkpt><trkpt lat="37.03642500323901" lon="14.71842547292678"><ele>814.0</ele><time>2026-05-03T10:23:59Z</time></trkpt><trkpt lat="37.036469598461714" lon="14.718503452897934"><ele>813.9999999999999</ele><time>2026-05-03T10:24:00Z</time></trkpt><trkpt lat="37.036539303658536" lon="14.718550017066272"><ele>814.0</ele><time>2026-05-03T10:24:01Z</time></trkpt><trkpt lat="37.0366073218098" lon="14.7185821283872"><ele>814.0</ele><time>2026-05-03T10:24:02Z</time></trkpt><trkpt lat="37.0367068064562" lon="14.71867460161937"><ele>814.0</ele><time>2026-05-03T10:24:04Z</time></trkpt><trkpt lat="37.036746354131964" lon="14.718757236132213"><ele>813.9999999999999</ele><time>2026-05-03T10:24:05Z</time></trkpt><trkpt lat="37.0367793765791" lon="14.718856268776202"><ele>814.0</ele><time>2026-05-03T10:24:06Z</time></trkpt><trkpt lat="37.03680233230085" lon="14.71896177401295"><ele>811.1666666666666</ele><time>2026-05-03T10:24:07Z</time></trkpt><trkpt lat="37.03681022173447" lon="14.719067168197967"><ele>808.3333333333333</ele><time>2026-05-03T10:24:08Z</time></trkpt><trkpt lat="37.03683048176301" lon="14.719170232933811"><ele>805.5</ele><time>2026-05-03T10:24:10Z</time></trkpt><trkpt lat="37.03689086096455" lon="14.719115758338377"><ele>802.6666666666667</ele><time>2026-05-03T10:24:13Z</time></trkpt><trkpt lat="37.036972834000174" lon="14.719038083249588"><ele>799.8333333333334</ele><time>2026-05-03T10:24:15Z</time></trkpt><trkpt lat="37.03705987339903" lon="14.719063541407197"><ele>797.0</ele><time>2026-05-03T10:24:17Z</time></trkpt><trkpt lat="37.03714614897314" lon="14.719164934485201"><ele>797.0</ele><time>2026-05-03T10:24:19Z</time></trkpt><trkpt lat="37.03722132525984" lon="14.71925475626848"><ele>797.0</ele><time>2026-05-03T10:24:21Z</time></trkpt><trkpt lat="37.03730989884999" lon="14.719297751609714"><ele>797.0</ele><time>2026-05-03T10:24:23Z</time></trkpt><trkpt lat="37.03739316011201" lon="14.719351078149842"><ele>797.0</ele><time>2026-05-03T10:24:25Z</time></trkpt><trkpt lat="37.03747608895347" lon="14.719410921219193"><ele>797.0</ele><time>2026-05-03T10:24:27Z</time></trkpt><trkpt lat="37.0375514595842" lon="14.719460144272047"><ele>797.0</ele><time>2026-05-03T10:24:30Z</time></trkpt><trkpt lat="37.037614922571656" lon="14.719472107815918"><ele>797.0</ele><time>2026-05-03T10:24:32Z</time></trkpt><trkpt lat="37.03768242577945" lon="14.719503755782698"><ele>797.0</ele><time>2026-05-03T10:24:33.999Z</time></trkpt><trkpt lat="37.03774452657424" lon="14.719550356651062"><ele>797.0</ele><time>2026-05-03T10:24:36.999Z</time></trkpt><trkpt lat="37.03766825305109" lon="14.719515115493714"><ele>797.0</ele><time>2026-05-03T10:25:02.999Z</time></trkpt><trkpt lat="37.0376137765323" lon="14.719466582634025"><ele>797.0</ele><time>2026-05-03T10:25:04.999Z</time></trkpt><trkpt lat="37.037531418717485" lon="14.719437747047298"><ele>797.0</ele><time>2026-05-03T10:25:06.999Z</time></trkpt><trkpt lat="37.037428157627104" lon="14.719383260521104"><ele>797.0</ele><time>2026-05-03T10:25:08.999Z</time></trkpt><trkpt lat="37.03731767736675" lon="14.719299290879256"><ele>797.0</ele><time>2026-05-03T10:25:10.999Z</time></trkpt><trkpt lat="37.037213718775746" lon="14.719215928358262"><ele>797.0</ele><time>2026-05-03T10:25:12.999Z</time></trkpt><trkpt lat="37.03715738436352" lon="14.719167446854787"><ele>797.0</ele><time>2026-05-03T10:25:13.999Z</time></trkpt><trkpt lat="37.037099376971014" lon="14.71911102826322"><ele>797.0</ele><time>2026-05-03T10:25:14.999Z</time></trkpt><trkpt lat="37.037052448632764" lon="14.719055366053707"><ele>797.0000000000001</ele><time>2026-05-03T10:25:15.999Z</time></trkpt><trkpt lat="37.03697491826836" lon="14.719014194317039"><ele>797.0</ele><time>2026-05-03T10:25:17.999Z</time></trkpt><trkpt lat="37.0369054306507" lon="14.719057481341908"><ele>797.0</ele><time>2026-05-03T10:25:19.999Z</time></trkpt><trkpt lat="37.036860967353334" lon="14.719137957913295"><ele>797.0</ele><time>2026-05-03T10:25:21.999Z</time></trkpt><trkpt lat="37.03683847734914" lon="14.719227355127794"><ele>797.0000000000001</ele><time>2026-05-03T10:25:23.999Z</time></trkpt><trkpt lat="37.0368749048674" lon="14.71937712384296"><ele>797.0</ele><time>2026-05-03T10:25:25.999Z</time></trkpt><trkpt lat="37.03689447338018" lon="14.719458362483145"><ele>796.8333333333334</ele><time>2026-05-03T10:25:26.999Z</time></trkpt><trkpt lat="37.03690711368943" lon="14.719541757498677"><ele>796.6666666666667</ele><time>2026-05-03T10:25:27.999Z</time></trkpt><trkpt lat="37.036882955956976" lon="14.71964391136486"><ele>796.5</ele><time>2026-05-03T10:25:28.999Z</time></trkpt><trkpt lat="37.03689782837153" lon="14.719745407338273"><ele>796.3333333333333</ele><time>2026-05-03T10:25:29.999Z</time></trkpt><trkpt lat="37.03691269000171" lon="14.71985172865708"><ele>796.1666666666666</ele><time>2026-05-03T10:25:30.999Z</time></trkpt><trkpt lat="37.03692440256059" lon="14.719976117110814"><ele>796.0</ele><time>2026-05-03T10:25:31.999Z</time></trkpt><trkpt lat="37.03693080303778" lon="14.720102186330708"><ele>796.0</ele><time>2026-05-03T10:25:32.999Z</time></trkpt><trkpt lat="37.036934332575754" lon="14.72023086649112"><ele>796.0</ele><time>2026-05-03T10:25:33.999Z</time></trkpt><trkpt lat="37.0369356321465" lon="14.720364812325906"><ele>796.0</ele><time>2026-05-03T10:25:34.999Z</time></trkpt><trkpt lat="37.03693471442156" lon="14.720501521356846"><ele>796.0</ele><time>2026-05-03T10:25:35.999Z</time></trkpt><trkpt lat="37.036931260365286" lon="14.72064013430835"><ele>796.0</ele><time>2026-05-03T10:25:36.999Z</time></trkpt><trkpt lat="37.03692453320527" lon="14.72078171325517"><ele>795.1999999999999</ele><time>2026-05-03T10:25:37.999Z</time></trkpt><trkpt lat="37.03691256080964" lon="14.720908742873721"><ele>794.4</ele><time>2026-05-03T10:25:38.999Z</time></trkpt><trkpt lat="37.03689906422073" lon="14.721032453799706"><ele>793.6</ele><time>2026-05-03T10:25:39.999Z</time></trkpt><trkpt lat="37.03688627287665" lon="14.721149700383732"><ele>792.8</ele><time>2026-05-03T10:25:40.999Z</time></trkpt><trkpt lat="37.03687454581903" lon="14.72125719164027"><ele>792.0</ele><time>2026-05-03T10:25:41.999Z</time></trkpt><trkpt lat="37.036864513767036" lon="14.721349146330882"><ele>791.2</ele><time>2026-05-03T10:25:42.999Z</time></trkpt><trkpt lat="37.036856371537176" lon="14.721433872728344"><ele>790.4000000000001</ele><time>2026-05-03T10:25:43.999Z</time></trkpt><trkpt lat="37.03684384892113" lon="14.721562795232325"><ele>789.5999999999999</ele><time>2026-05-03T10:25:45.999Z</time></trkpt><trkpt lat="37.03682718057277" lon="14.721676801110705"><ele>788.8</ele><time>2026-05-03T10:25:47.999Z</time></trkpt><trkpt lat="37.036966647580655" lon="14.721770811521786"><ele>788.0</ele><time>2026-05-03T10:25:48.999Z</time></trkpt><trkpt lat="37.036999844334495" lon="14.721853444776269"><ele>787.2</ele><time>2026-05-03T10:25:49.999Z</time></trkpt><trkpt lat="37.03704631072721" lon="14.72193324071234"><ele>786.4</ele><time>2026-05-03T10:25:50.999Z</time></trkpt><trkpt lat="37.037093355846" lon="14.722028247748423"><ele>785.6</ele><time>2026-05-03T10:25:51.999Z</time></trkpt><trkpt lat="37.03714940511542" lon="14.722146918810106"><ele>784.8000000000001</ele><time>2026-05-03T10:25:52.999Z</time></trkpt><trkpt lat="37.03720691900114" lon="14.722268180576705"><ele>784.0</ele><time>2026-05-03T10:25:53.999Z</time></trkpt><trkpt lat="37.03728490525761" lon="14.722384660061085"><ele>784.0</ele><time>2026-05-03T10:25:54.999Z</time></trkpt><trkpt lat="37.03735278456877" lon="14.722509591710043"><ele>784.0</ele><time>2026-05-03T10:25:55.999Z</time></trkpt><trkpt lat="37.03743050604844" lon="14.722642518155638"><ele>784.0</ele><time>2026-05-03T10:25:56.999Z</time></trkpt><trkpt lat="37.03747748195112" lon="14.722806411292323"><ele>784.0</ele><time>2026-05-03T10:25:57.999Z</time></trkpt><trkpt lat="37.03755155898099" lon="14.722958138647622"><ele>784.0</ele><time>2026-05-03T10:25:58.998Z</time></trkpt><trkpt lat="37.03762577230187" lon="14.723110145144602"><ele>784.0</ele><time>2026-05-03T10:26:00Z</time></trkpt><trkpt lat="37.03770410949958" lon="14.723263226435888"><ele>784.0</ele><time>2026-05-03T10:26:01Z</time></trkpt><trkpt lat="37.03777621443081" lon="14.723422344411238"><ele>784.0</ele><time>2026-05-03T10:26:02Z</time></trkpt><trkpt lat="37.03784495576663" lon="14.72358683760884"><ele>784.25</ele><time>2026-05-03T10:26:03Z</time></trkpt><trkpt lat="37.03790996338543" lon="14.723751249004222"><ele>784.5</ele><time>2026-05-03T10:26:04Z</time></trkpt><trkpt lat="37.03797624701837" lon="14.723918220525062"><ele>784.75</ele><time>2026-05-03T10:26:05Z</time></trkpt><trkpt lat="37.0380426926967" lon="14.724069227858992"><ele>785.0</ele><time>2026-05-03T10:26:06Z</time></trkpt><trkpt lat="37.03810334423769" lon="14.724202718974823"><ele>785.0</ele><time>2026-05-03T10:26:07Z</time></trkpt><trkpt lat="37.03815664947759" lon="14.724317365831183"><ele>785.0</ele><time>2026-05-03T10:26:08Z</time></trkpt><trkpt lat="37.038238966184785" lon="14.724394463120907"><ele>785.0</ele><time>2026-05-03T10:26:09Z</time></trkpt><trkpt lat="37.038332009233685" lon="14.724463828599646"><ele>785.0</ele><time>2026-05-03T10:26:10Z</time></trkpt><trkpt lat="37.03845719230837" lon="14.724513426603158"><ele>785.0</ele><time>2026-05-03T10:26:11Z</time></trkpt><trkpt lat="37.038599673427655" lon="14.724565731628642"><ele>786.3333333333334</ele><time>2026-05-03T10:26:12Z</time></trkpt><trkpt lat="37.03874564472742" lon="14.724622088746834"><ele>787.6666666666667</ele><time>2026-05-03T10:26:13Z</time></trkpt><trkpt lat="37.03890074592798" lon="14.724709188903121"><ele>789.0</ele><time>2026-05-03T10:26:14Z</time></trkpt><trkpt lat="37.03906737350811" lon="14.724777915027628"><ele>792.0</ele><time>2026-05-03T10:26:15Z</time></trkpt><trkpt lat="37.03923767815108" lon="14.724829934345319"><ele>795.0</ele><time>2026-05-03T10:26:16Z</time></trkpt><trkpt lat="37.03940428309687" lon="14.72490943859364"><ele>798.0</ele><time>2026-05-03T10:26:17Z</time></trkpt><trkpt lat="37.03957752649073" lon="14.724975084495325"><ele>798.0</ele><time>2026-05-03T10:26:18Z</time></trkpt><trkpt lat="37.03972217204345" lon="14.725089568627226"><ele>798.0</ele><time>2026-05-03T10:26:19Z</time></trkpt><trkpt lat="37.039870816867236" lon="14.725154969213627"><ele>798.0</ele><time>2026-05-03T10:26:20Z</time></trkpt><trkpt lat="37.040023954047" lon="14.725215430850621"><ele>799.0</ele><time>2026-05-03T10:26:21Z</time></trkpt><trkpt lat="37.04018688106881" lon="14.725249331653853"><ele>800.0</ele><time>2026-05-03T10:26:22Z</time></trkpt><trkpt lat="37.04033955240136" lon="14.725261903835783"><ele>801.0</ele><time>2026-05-03T10:26:23Z</time></trkpt><trkpt lat="37.04047790476996" lon="14.725254501692715"><ele>801.0</ele><time>2026-05-03T10:26:24Z</time></trkpt><trkpt lat="37.040610123728484" lon="14.72524024443876"><ele>801.0</ele><time>2026-05-03T10:26:25Z</time></trkpt><trkpt lat="37.040736260979976" lon="14.725229868690313"><ele>801.0</ele><time>2026-05-03T10:26:26Z</time></trkpt><trkpt lat="37.040858723387494" lon="14.725228430533642"><ele>801.0</ele><time>2026-05-03T10:26:27Z</time></trkpt><trkpt lat="37.040998423049984" lon="14.72522131450206"><ele>804.5</ele><time>2026-05-03T10:26:28Z</time></trkpt><trkpt lat="37.04113864761358" lon="14.72521153770178"><ele>808.0</ele><time>2026-05-03T10:26:29Z</time></trkpt><trkpt lat="37.041260589816545" lon="14.725205801204696"><ele>811.5</ele><time>2026-05-03T10:26:30Z</time></trkpt><trkpt lat="37.04138432074607" lon="14.72520287188252"><ele>815.0</ele><time>2026-05-03T10:26:31Z</time></trkpt><trkpt lat="37.041509465101825" lon="14.725201769967029"><ele>815.0</ele><time>2026-05-03T10:26:32Z</time></trkpt><trkpt lat="37.041631987167214" lon="14.725188209668413"><ele>815.0</ele><time>2026-05-03T10:26:33Z</time></trkpt><trkpt lat="37.04175271469495" lon="14.725178717615771"><ele>815.0</ele><time>2026-05-03T10:26:34Z</time></trkpt><trkpt lat="37.04186110273946" lon="14.725181346951453"><ele>815.0</ele><time>2026-05-03T10:26:35Z</time></trkpt><trkpt lat="37.04195472821447" lon="14.725191631436731"><ele>815.0</ele><time>2026-05-03T10:26:36Z</time></trkpt><trkpt lat="37.04203008205439" lon="14.725233696442553"><ele>815.4</ele><time>2026-05-03T10:26:36.999Z</time></trkpt><trkpt lat="37.0420981711632" lon="14.725266256967076"><ele>815.8</ele><time>2026-05-03T10:26:37.999Z</time></trkpt><trkpt lat="37.04217259865131" lon="14.725313975909978"><ele>816.2</ele><time>2026-05-03T10:26:38.999Z</time></trkpt><trkpt lat="37.04225968264216" lon="14.725370875794962"><ele>816.6</ele><time>2026-05-03T10:26:39.999Z</time></trkpt><trkpt lat="37.04237065631916" lon="14.725442114352205"><ele>817.0</ele><time>2026-05-03T10:26:40.999Z</time></trkpt><trkpt lat="37.04249368813511" lon="14.72552444624082"><ele>817.5</ele><time>2026-05-03T10:26:41.999Z</time></trkpt><trkpt lat="37.04261629376074" lon="14.725601572868879"><ele>818.0</ele><time>2026-05-03T10:26:42.999Z</time></trkpt><trkpt lat="37.042735097807444" lon="14.725675951476559"><ele>818.5</ele><time>2026-05-03T10:26:43.999Z</time></trkpt><trkpt lat="37.04285823759228" lon="14.725759087043269"><ele>819.0</ele><time>2026-05-03T10:26:44.999Z</time></trkpt><trkpt lat="37.04298671970409" lon="14.725845725846666"><ele>819.0</ele><time>2026-05-03T10:26:45.999Z</time></trkpt><trkpt lat="37.04311741257778" lon="14.725932423597508"><ele>819.0</ele><time>2026-05-03T10:26:46.999Z</time></trkpt><trkpt lat="37.043251020168505" lon="14.726021545739762"><ele>819.0</ele><time>2026-05-03T10:26:47.999Z</time></trkpt><trkpt lat="37.04338144632303" lon="14.726117598955216"><ele>817.25</ele><time>2026-05-03T10:26:48.999Z</time></trkpt><trkpt lat="37.04350910247381" lon="14.726211719077623"><ele>815.5</ele><time>2026-05-03T10:26:49.999Z</time></trkpt><trkpt lat="37.043633968511294" lon="14.72630023744366"><ele>813.75</ele><time>2026-05-03T10:26:50.999Z</time></trkpt><trkpt lat="37.04375785099149" lon="14.726387072928098"><ele>812.0</ele><time>2026-05-03T10:26:51.999Z</time></trkpt><trkpt lat="37.04387826782005" lon="14.726468202980898"><ele>812.0</ele><time>2026-05-03T10:26:52.999Z</time></trkpt><trkpt lat="37.044007632014086" lon="14.726531260137413"><ele>812.0</ele><time>2026-05-03T10:26:53.999Z</time></trkpt><trkpt lat="37.04412389138664" lon="14.726608828684515"><ele>812.0</ele><time>2026-05-03T10:26:54.999Z</time></trkpt><trkpt lat="37.044232717090345" lon="14.726675206553988"><ele>812.0</ele><time>2026-05-03T10:26:55.999Z</time></trkpt><trkpt lat="37.044334618667136" lon="14.726737395927712"><ele>811.6</ele><time>2026-05-03T10:26:56.999Z</time></trkpt><trkpt lat="37.044409213713855" lon="14.726812802664146"><ele>811.2</ele><time>2026-05-03T10:26:57.999Z</time></trkpt><trkpt lat="37.04448393797973" lon="14.726883046124463"><ele>810.8</ele><time>2026-05-03T10:26:58.999Z</time></trkpt><trkpt lat="37.04454647786637" lon="14.72696077504766"><ele>810.4</ele><time>2026-05-03T10:26:59.999Z</time></trkpt><trkpt lat="37.04461594016678" lon="14.727044607761252"><ele>810.0</ele><time>2026-05-03T10:27:00.999Z</time></trkpt><trkpt lat="37.044690955739185" lon="14.727125565291477"><ele>810.0</ele><time>2026-05-03T10:27:01.999Z</time></trkpt><trkpt lat="37.04477676819097" lon="14.727196067469857"><ele>810.0</ele><time>2026-05-03T10:27:02.999Z</time></trkpt><trkpt lat="37.04485445301557" lon="14.7272810619041"><ele>810.0</ele><time>2026-05-03T10:27:03.999Z</time></trkpt><trkpt lat="37.04493816775695" lon="14.727367862288967"><ele>810.0</ele><time>2026-05-03T10:27:04.999Z</time></trkpt><trkpt lat="37.04502078937162" lon="14.727445898055903"><ele>810.0</ele><time>2026-05-03T10:27:05.999Z</time></trkpt><trkpt lat="37.045098692985576" lon="14.72751513080589"><ele>810.0</ele><time>2026-05-03T10:27:06.999Z</time></trkpt><trkpt lat="37.04516139791867" lon="14.727589722044861"><ele>810.0</ele><time>2026-05-03T10:27:07.999Z</time></trkpt><trkpt lat="37.0452302161715" lon="14.727642869977451"><ele>810.0</ele><time>2026-05-03T10:27:08.999Z</time></trkpt><trkpt lat="37.045296608622415" lon="14.727688572653674"><ele>810.0</ele><time>2026-05-03T10:27:09.999Z</time></trkpt><trkpt lat="37.0453555990348" lon="14.727728439803787"><ele>810.0</ele><time>2026-05-03T10:27:10.999Z</time></trkpt><trkpt lat="37.045450364092076" lon="14.72779830563556"><ele>810.0</ele><time>2026-05-03T10:27:12.999Z</time></trkpt><trkpt lat="37.045533417687665" lon="14.727796469390109"><ele>810.0</ele><time>2026-05-03T10:28:08Z</time></trkpt><trkpt lat="37.04558300548097" lon="14.72784950502393"><ele>810.0</ele><time>2026-05-03T10:28:09Z</time></trkpt><trkpt lat="37.045655102335935" lon="14.727918268531699"><ele>810.0</ele><time>2026-05-03T10:28:10Z</time></trkpt><trkpt lat="37.04574639603043" lon="14.727999790888878"><ele>810.0</ele><time>2026-05-03T10:28:11Z</time></trkpt><trkpt lat="37.04583264180462" lon="14.728082097199731"><ele>810.0</ele><time>2026-05-03T10:28:12Z</time></trkpt><trkpt lat="37.04592074372381" lon="14.728169082329108"><ele>810.0</ele><time>2026-05-03T10:28:13Z</time></trkpt><trkpt lat="37.04601113305968" lon="14.728250783032482"><ele>810.0</ele><time>2026-05-03T10:28:14Z</time></trkpt><trkpt lat="37.04610781779455" lon="14.728326643915132"><ele>810.0</ele><time>2026-05-03T10:28:15Z</time></trkpt><trkpt lat="37.046205068070016" lon="14.728415743746268"><ele>810.0</ele><time>2026-05-03T10:28:16Z</time></trkpt><trkpt lat="37.046316597161336" lon="14.728482311740786"><ele>810.0</ele><time>2026-05-03T10:28:17Z</time></trkpt><trkpt lat="37.04643322106202" lon="14.728543931393988"><ele>810.0</ele><time>2026-05-03T10:28:18Z</time></trkpt><trkpt lat="37.04655359545522" lon="14.728602391926765"><ele>810.0</ele><time>2026-05-03T10:28:19Z</time></trkpt><trkpt lat="37.04667532413238" lon="14.728655950242617"><ele>810.0</ele><time>2026-05-03T10:28:20Z</time></trkpt><trkpt lat="37.046796220085646" lon="14.728706897775735"><ele>811.75</ele><time>2026-05-03T10:28:21Z</time></trkpt><trkpt lat="37.04691560226406" lon="14.728751582686805"><ele>813.5</ele><time>2026-05-03T10:28:22Z</time></trkpt><trkpt lat="37.0470362246875" lon="14.728787270994045"><ele>815.25</ele><time>2026-05-03T10:28:23Z</time></trkpt><trkpt lat="37.04716178510641" lon="14.728814679258505"><ele>817.0</ele><time>2026-05-03T10:28:24Z</time></trkpt><trkpt lat="37.047285963568996" lon="14.728833177894229"><ele>817.0</ele><time>2026-05-03T10:28:25Z</time></trkpt><trkpt lat="37.04741101875473" lon="14.72885016168581"><ele>817.0</ele><time>2026-05-03T10:28:26Z</time></trkpt><trkpt lat="37.047534490883194" lon="14.728866382828567"><ele>817.0</ele><time>2026-05-03T10:28:27Z</time></trkpt><trkpt lat="37.04763647350315" lon="14.728867266909338"><ele>817.0</ele><time>2026-05-03T10:28:28Z</time></trkpt><trkpt lat="37.04774425167249" lon="14.728882009164924"><ele>818.0</ele><time>2026-05-03T10:28:29Z</time></trkpt><trkpt lat="37.04785772926892" lon="14.728908964521935"><ele>819.0</ele><time>2026-05-03T10:28:30Z</time></trkpt><trkpt lat="37.04797142092006" lon="14.728968396519981"><ele>820.0</ele><time>2026-05-03T10:28:31Z</time></trkpt><trkpt lat="37.04809250332283" lon="14.729019976834747"><ele>821.0</ele><time>2026-05-03T10:28:32Z</time></trkpt><trkpt lat="37.04822153704287" lon="14.729074866920966"><ele>821.25</ele><time>2026-05-03T10:28:33Z</time></trkpt><trkpt lat="37.04835007883023" lon="14.729129547729737"><ele>821.5</ele><time>2026-05-03T10:28:34Z</time></trkpt><trkpt lat="37.04848190186373" lon="14.729185624375045"><ele>821.75</ele><time>2026-05-03T10:28:35Z</time></trkpt><trkpt lat="37.048614866833134" lon="14.729242186777276"><ele>822.0</ele><time>2026-05-03T10:28:36Z</time></trkpt><trkpt lat="37.04873736716571" lon="14.729300514934756"><ele>822.0</ele><time>2026-05-03T10:28:37Z</time></trkpt><trkpt lat="37.0488448478638" lon="14.729323820621914"><ele>822.0</ele><time>2026-05-03T10:28:38Z</time></trkpt><trkpt lat="37.048929407399356" lon="14.729384851262587"><ele>822.0</ele><time>2026-05-03T10:28:39Z</time></trkpt><trkpt lat="37.049023329839486" lon="14.72942238466762"><ele>822.0</ele><time>2026-05-03T10:28:40Z</time></trkpt><trkpt lat="37.049110363504305" lon="14.729445285485905"><ele>822.0</ele><time>2026-05-03T10:28:41Z</time></trkpt><trkpt lat="37.04919551664796" lon="14.729462530558534"><ele>820.3333333333334</ele><time>2026-05-03T10:28:41.999Z</time></trkpt><trkpt lat="37.049275913059" lon="14.729476694208309"><ele>818.6666666666667</ele><time>2026-05-03T10:28:42.999Z</time></trkpt><trkpt lat="37.049355739104264" lon="14.729489146000223"><ele>817.0</ele><time>2026-05-03T10:28:43.999Z</time></trkpt><trkpt lat="37.04943478141366" lon="14.729501475529254"><ele>815.3333333333334</ele><time>2026-05-03T10:28:44.999Z</time></trkpt><trkpt lat="37.04951395282264" lon="14.729513825208317"><ele>813.6666666666667</ele><time>2026-05-03T10:28:45.999Z</time></trkpt><trkpt lat="37.04959179259803" lon="14.729525967163788"><ele>812.0</ele><time>2026-05-03T10:28:46.999Z</time></trkpt><trkpt lat="37.04967456954705" lon="14.729538879255577"><ele>812.0</ele><time>2026-05-03T10:28:47.999Z</time></trkpt><trkpt lat="37.049765064681864" lon="14.72955299528026"><ele>812.0</ele><time>2026-05-03T10:28:48.999Z</time></trkpt><trkpt lat="37.04986232687708" lon="14.729567474059987"><ele>812.0</ele><time>2026-05-03T10:28:49.999Z</time></trkpt><trkpt lat="37.04996266881093" lon="14.729581085110496"><ele>812.0</ele><time>2026-05-03T10:28:50.999Z</time></trkpt><trkpt lat="37.05006435535456" lon="14.729591621032156"><ele>812.0</ele><time>2026-05-03T10:28:51.999Z</time></trkpt><trkpt lat="37.050166802579106" lon="14.729599412523939"><ele>811.4000000000001</ele><time>2026-05-03T10:28:52.999Z</time></trkpt><trkpt lat="37.05026959572749" lon="14.729600928184112"><ele>810.8000000000001</ele><time>2026-05-03T10:28:53.999Z</time></trkpt><trkpt lat="37.05037642284775" lon="14.729602683180872"><ele>810.2</ele><time>2026-05-03T10:28:54.999Z</time></trkpt><trkpt lat="37.05048567033959" lon="14.729604477943106"><ele>809.6</ele><time>2026-05-03T10:28:55.999Z</time></trkpt><trkpt lat="37.05059336656797" lon="14.72961056568231"><ele>809.0</ele><time>2026-05-03T10:28:56.999Z</time></trkpt><trkpt lat="37.0506825010627" lon="14.729615842248005"><ele>809.0000000000001</ele><time>2026-05-03T10:28:57.999Z</time></trkpt><trkpt lat="37.0507479163222" lon="14.729620941431117"><ele>809.0</ele><time>2026-05-03T10:28:58.999Z</time></trkpt><trkpt lat="37.050811803434165" lon="14.729631925520751"><ele>809.0</ele><time>2026-05-03T10:29:00.999Z</time></trkpt><trkpt lat="37.05082125850508" lon="14.729548903543236"><ele>809.0</ele><time>2026-05-03T10:30:04.999Z</time></trkpt><trkpt lat="37.050725799608884" lon="14.729603270119023"><ele>809.0000000000001</ele><time>2026-05-03T10:30:08.998Z</time></trkpt><trkpt lat="37.050624674253676" lon="14.729588758025034"><ele>809.0</ele><time>2026-05-03T10:30:11Z</time></trkpt><trkpt lat="37.05049016746831" lon="14.729577110704362"><ele>809.0</ele><time>2026-05-03T10:30:12Z</time></trkpt><trkpt lat="37.05035862413603" lon="14.729570915937675"><ele>809.0</ele><time>2026-05-03T10:30:13Z</time></trkpt><trkpt lat="37.05022309954254" lon="14.729560395900387"><ele>809.0</ele><time>2026-05-03T10:30:14Z</time></trkpt><trkpt lat="37.05010891211305" lon="14.729565299410885"><ele>809.0</ele><time>2026-05-03T10:30:15Z</time></trkpt><trkpt lat="37.049990750517075" lon="14.729551388904374"><ele>809.75</ele><time>2026-05-03T10:30:16Z</time></trkpt><trkpt lat="37.049859917513736" lon="14.729536742503798"><ele>810.5</ele><time>2026-05-03T10:30:17Z</time></trkpt><trkpt lat="37.0497243973693" lon="14.729514218038991"><ele>811.25</ele><time>2026-05-03T10:30:18Z</time></trkpt><trkpt lat="37.04958254950348" lon="14.729486937092917"><ele>812.0</ele><time>2026-05-03T10:30:19Z</time></trkpt><trkpt lat="37.04942914920696" lon="14.729460242907745"><ele>812.0</ele><time>2026-05-03T10:30:20Z</time></trkpt><trkpt lat="37.04928072769252" lon="14.729438224239878"><ele>812.0</ele><time>2026-05-03T10:30:21Z</time></trkpt><trkpt lat="37.049140390164524" lon="14.729413417197906"><ele>812.0</ele><time>2026-05-03T10:30:22Z</time></trkpt><trkpt lat="37.04901182319222" lon="14.729390205807157"><ele>812.0</ele><time>2026-05-03T10:30:23Z</time></trkpt><trkpt lat="37.04889112620944" lon="14.729360774244055"><ele>814.5</ele><time>2026-05-03T10:30:24Z</time></trkpt><trkpt lat="37.04875965273375" lon="14.729311210112163"><ele>817.0</ele><time>2026-05-03T10:30:25Z</time></trkpt><trkpt lat="37.048624416524824" lon="14.72923672270315"><ele>819.5</ele><time>2026-05-03T10:30:26Z</time></trkpt><trkpt lat="37.048484396231025" lon="14.729166752176104"><ele>822.0</ele><time>2026-05-03T10:30:27Z</time></trkpt><trkpt lat="37.04833375423537" lon="14.72909491341483"><ele>821.6666666666667</ele><time>2026-05-03T10:30:28Z</time></trkpt><trkpt lat="37.04817335089362" lon="14.72902643646566"><ele>821.3333333333334</ele><time>2026-05-03T10:30:29Z</time></trkpt><trkpt lat="37.04801564405875" lon="14.728965051324478"><ele>821.0</ele><time>2026-05-03T10:30:30Z</time></trkpt><trkpt lat="37.04785416758729" lon="14.728881256947039"><ele>821.0</ele><time>2026-05-03T10:30:31Z</time></trkpt><trkpt lat="37.0476854713726" lon="14.728860721915026"><ele>821.0</ele><time>2026-05-03T10:30:32Z</time></trkpt><trkpt lat="37.04752879712438" lon="14.728833896258005"><ele>821.0</ele><time>2026-05-03T10:30:33Z</time></trkpt><trkpt lat="37.04737797599379" lon="14.72882238467552"><ele>819.6666666666667</ele><time>2026-05-03T10:30:34Z</time></trkpt><trkpt lat="37.047228643757826" lon="14.728792532611463"><ele>818.3333333333333</ele><time>2026-05-03T10:30:35Z</time></trkpt><trkpt lat="37.04708135133368" lon="14.728763692022406"><ele>817.0</ele><time>2026-05-03T10:30:36Z</time></trkpt><trkpt lat="37.04693341436285" lon="14.728713866165"><ele>817.0</ele><time>2026-05-03T10:30:37Z</time></trkpt><trkpt lat="37.04678519416671" lon="14.728658673871143"><ele>817.0</ele><time>2026-05-03T10:30:38Z</time></trkpt><trkpt lat="37.046628958615315" lon="14.728591956620262"><ele>817.0</ele><time>2026-05-03T10:30:39Z</time></trkpt><trkpt lat="37.04646161748815" lon="14.728513309378254"><ele>814.6666666666666</ele><time>2026-05-03T10:30:40Z</time></trkpt><trkpt lat="37.04629069491337" lon="14.728423051264535"><ele>812.3333333333333</ele><time>2026-05-03T10:30:41Z</time></trkpt><trkpt lat="37.04613031104444" lon="14.728316693608093"><ele>810.0</ele><time>2026-05-03T10:30:42Z</time></trkpt><trkpt lat="37.04598063525562" lon="14.72819757643399"><ele>810.0</ele><time>2026-05-03T10:30:43Z</time></trkpt><trkpt lat="37.045838989205954" lon="14.728061475644557"><ele>810.0</ele><time>2026-05-03T10:30:44Z</time></trkpt><trkpt lat="37.045678843969306" lon="14.727945800514464"><ele>810.0</ele><time>2026-05-03T10:30:45Z</time></trkpt><trkpt lat="37.04553249468557" lon="14.727811979818703"><ele>810.0</ele><time>2026-05-03T10:30:46Z</time></trkpt><trkpt lat="37.04538654324082" lon="14.727695311581956"><ele>810.0</ele><time>2026-05-03T10:30:47Z</time></trkpt><trkpt lat="37.0452305160978" lon="14.727594614362642"><ele>810.0</ele><time>2026-05-03T10:30:47.999Z</time></trkpt><trkpt lat="37.04509007699149" lon="14.727476444922807"><ele>810.0</ele><time>2026-05-03T10:30:48.999Z</time></trkpt><trkpt lat="37.0449601614797" lon="14.727349580097894"><ele>810.0</ele><time>2026-05-03T10:30:49.999Z</time></trkpt><trkpt lat="37.044824583918626" lon="14.727210253243335"><ele>810.0</ele><time>2026-05-03T10:30:50.999Z</time></trkpt><trkpt lat="37.044689828002866" lon="14.727070279469242"><ele>810.0</ele><time>2026-05-03T10:30:51.999Z</time></trkpt><trkpt lat="37.044567331179636" lon="14.72692803273606"><ele>810.0</ele><time>2026-05-03T10:30:52.999Z</time></trkpt><trkpt lat="37.04444776668432" lon="14.726796634272606"><ele>810.0</ele><time>2026-05-03T10:30:53.999Z</time></trkpt><trkpt lat="37.04430857907547" lon="14.72669955130296"><ele>810.0</ele><time>2026-05-03T10:30:54.999Z</time></trkpt><trkpt lat="37.044153905522" lon="14.726605302144948"><ele>810.0</ele><time>2026-05-03T10:30:55.999Z</time></trkpt><trkpt lat="37.043984733145216" lon="14.726510189129494"><ele>810.0</ele><time>2026-05-03T10:30:56.999Z</time></trkpt><trkpt lat="37.043823205395746" lon="14.726383841778308"><ele>810.6666666666667</ele><time>2026-05-03T10:30:57.999Z</time></trkpt><trkpt lat="37.043661969130916" lon="14.726272255849056"><ele>811.3333333333334</ele><time>2026-05-03T10:30:58.999Z</time></trkpt><trkpt lat="37.043490466788846" lon="14.7261744489432"><ele>812.0</ele><time>2026-05-03T10:30:59.999Z</time></trkpt><trkpt lat="37.04334548664305" lon="14.726065697989222"><ele>814.3333333333334</ele><time>2026-05-03T10:31:00.999Z</time></trkpt><trkpt lat="37.04319379079692" lon="14.725935990713376"><ele>816.6666666666667</ele><time>2026-05-03T10:31:01.999Z</time></trkpt><trkpt lat="37.04302725551696" lon="14.725825516210808"><ele>819.0</ele><time>2026-05-03T10:31:02.999Z</time></trkpt><trkpt lat="37.042845408280094" lon="14.725726662311432"><ele>819.0</ele><time>2026-05-03T10:31:03.999Z</time></trkpt><trkpt lat="37.04267263105925" lon="14.725610949664416"><ele>819.0</ele><time>2026-05-03T10:31:04.999Z</time></trkpt><trkpt lat="37.042508810077535" lon="14.72548737440794"><ele>819.0</ele><time>2026-05-03T10:31:05.999Z</time></trkpt><trkpt lat="37.04235952378637" lon="14.72538746203783"><ele>818.5</ele><time>2026-05-03T10:31:06.999Z</time></trkpt><trkpt lat="37.04221364933681" lon="14.725293983337101"><ele>818.0</ele><time>2026-05-03T10:31:07.999Z</time></trkpt><trkpt lat="37.04208163132321" lon="14.725213210680892"><ele>817.5</ele><time>2026-05-03T10:31:08.999Z</time></trkpt><trkpt lat="37.04194660548119" lon="14.725185951685734"><ele>817.0</ele><time>2026-05-03T10:31:09.999Z</time></trkpt><trkpt lat="37.04181157560275" lon="14.72516555085841"><ele>816.5</ele><time>2026-05-03T10:31:10.999Z</time></trkpt><trkpt lat="37.041665261954584" lon="14.725167036458462"><ele>816.0</ele><time>2026-05-03T10:31:11.999Z</time></trkpt><trkpt lat="37.04152742458033" lon="14.725177753241818"><ele>815.5</ele><time>2026-05-03T10:31:12.999Z</time></trkpt><trkpt lat="37.041389558582935" lon="14.725185346863622"><ele>815.0</ele><time>2026-05-03T10:31:13.999Z</time></trkpt><trkpt lat="37.04124227001249" lon="14.72520040163574"><ele>815.0</ele><time>2026-05-03T10:31:14.999Z</time></trkpt><trkpt lat="37.04107944366348" lon="14.725199985673465"><ele>815.0</ele><time>2026-05-03T10:31:15.999Z</time></trkpt><trkpt lat="37.04091905363152" lon="14.725190564131772"><ele>815.0</ele><time>2026-05-03T10:31:16.999Z</time></trkpt><trkpt lat="37.04075550417855" lon="14.72519356259855"><ele>812.3333333333334</ele><time>2026-05-03T10:31:17.999Z</time></trkpt><trkpt lat="37.04058927031342" lon="14.725204716763297"><ele>809.6666666666667</ele><time>2026-05-03T10:31:18.999Z</time></trkpt><trkpt lat="37.04043074346556" lon="14.725213732217798"><ele>807.0</ele><time>2026-05-03T10:31:19.999Z</time></trkpt><trkpt lat="37.04027536776501" lon="14.725219242096536"><ele>807.0</ele><time>2026-05-03T10:31:20.999Z</time></trkpt><trkpt lat="37.04013301910053" lon="14.725204638891908"><ele>807.0</ele><time>2026-05-03T10:31:21.999Z</time></trkpt><trkpt lat="37.039987892405485" lon="14.725172812424505"><ele>807.0</ele><time>2026-05-03T10:31:22.999Z</time></trkpt><trkpt lat="37.03984128737316" lon="14.725128341096482"><ele>807.0</ele><time>2026-05-03T10:31:23.999Z</time></trkpt><trkpt lat="37.03971203411118" lon="14.725035646492175"><ele>804.0</ele><time>2026-05-03T10:31:24.999Z</time></trkpt><trkpt lat="37.03958330782773" lon="14.724950385790844"><ele>801.0</ele><time>2026-05-03T10:31:25.999Z</time></trkpt><trkpt lat="37.03942264194805" lon="14.724887023368462"><ele>798.0</ele><time>2026-05-03T10:31:26.999Z</time></trkpt><trkpt lat="37.03927714357474" lon="14.724811492632673"><ele>795.0</ele><time>2026-05-03T10:31:27.999Z</time></trkpt><trkpt lat="37.03911730589513" lon="14.724756086507222"><ele>792.0</ele><time>2026-05-03T10:31:28.999Z</time></trkpt><trkpt lat="37.03896044961422" lon="14.724698218062626"><ele>789.0</ele><time>2026-05-03T10:31:29.999Z</time></trkpt><trkpt lat="37.038809851814776" lon="14.724633448934904"><ele>789.0</ele><time>2026-05-03T10:31:30.999Z</time></trkpt><trkpt lat="37.038659538061104" lon="14.724562891159204"><ele>789.0</ele><time>2026-05-03T10:31:31.999Z</time></trkpt><trkpt lat="37.03851331925867" lon="14.724491411955604"><ele>789.0</ele><time>2026-05-03T10:31:32.999Z</time></trkpt><trkpt lat="37.038361142798365" lon="14.724433786007705"><ele>788.0</ele><time>2026-05-03T10:31:33.999Z</time></trkpt><trkpt lat="37.03822779473531" lon="14.724366563805125"><ele>787.0</ele><time>2026-05-03T10:31:34.999Z</time></trkpt><trkpt lat="37.03813462543011" lon="14.724252986470976"><ele>786.0</ele><time>2026-05-03T10:31:35.999Z</time></trkpt><trkpt lat="37.03809857844899" lon="14.724108451194821"><ele>785.0</ele><time>2026-05-03T10:31:36.999Z</time></trkpt><trkpt lat="37.03802882404216" lon="14.723953480068435"><ele>785.0</ele><time>2026-05-03T10:31:37.999Z</time></trkpt><trkpt lat="37.0379620222961" lon="14.723790480645734"><ele>785.0</ele><time>2026-05-03T10:31:38.999Z</time></trkpt><trkpt lat="37.037894696300654" lon="14.723616494200858"><ele>785.0</ele><time>2026-05-03T10:31:39.999Z</time></trkpt><trkpt lat="37.03781961991297" lon="14.723434646662357"><ele>784.6666666666667</ele><time>2026-05-03T10:31:40.999Z</time></trkpt><trkpt lat="37.03773047927028" lon="14.723237363719115"><ele>784.3333333333333</ele><time>2026-05-03T10:31:41.999Z</time></trkpt><trkpt lat="37.03763202170385" lon="14.723043000021242"><ele>784.0</ele><time>2026-05-03T10:31:42.999Z</time></trkpt><trkpt lat="37.03753273369736" lon="14.722839634607837"><ele>784.0</ele><time>2026-05-03T10:31:43.999Z</time></trkpt><trkpt lat="37.03743667414124" lon="14.722644275876265"><ele>784.0</ele><time>2026-05-03T10:31:44.999Z</time></trkpt><trkpt lat="37.037341056836404" lon="14.722453156221851"><ele>784.0</ele><time>2026-05-03T10:31:45.999Z</time></trkpt><trkpt lat="37.03724421525484" lon="14.722263790843686"><ele>784.0</ele><time>2026-05-03T10:31:46.999Z</time></trkpt><trkpt lat="37.03716124767835" lon="14.722089751409527"><ele>784.0</ele><time>2026-05-03T10:31:47.999Z</time></trkpt><trkpt lat="37.03708248022395" lon="14.721928167789935"><ele>784.0</ele><time>2026-05-03T10:31:48.999Z</time></trkpt><trkpt lat="37.036977242555196" lon="14.721782996089834"><ele>785.3333333333333</ele><time>2026-05-03T10:31:49.999Z</time></trkpt><trkpt lat="37.03690813546087" lon="14.721628966915706"><ele>786.6666666666667</ele><time>2026-05-03T10:31:50.999Z</time></trkpt><trkpt lat="37.03679497630892" lon="14.721587628100503"><ele>788.0</ele><time>2026-05-03T10:31:51.999Z</time></trkpt><trkpt lat="37.03683556107414" lon="14.721345557176251"><ele>788.0</ele><time>2026-05-03T10:31:52.999Z</time></trkpt><trkpt lat="37.03682621559102" lon="14.721206142333477"><ele>788.0</ele><time>2026-05-03T10:31:53.999Z</time></trkpt><trkpt lat="37.036838688342755" lon="14.72105366996846"><ele>788.0</ele><time>2026-05-03T10:31:54.999Z</time></trkpt><trkpt lat="37.03694555500757" lon="14.720914689661065"><ele>788.0</ele><time>2026-05-03T10:31:55.999Z</time></trkpt><trkpt lat="37.03695968408432" lon="14.720752068791102"><ele>789.0</ele><time>2026-05-03T10:31:56.999Z</time></trkpt><trkpt lat="37.036965932318004" lon="14.720606948760961"><ele>790.0</ele><time>2026-05-03T10:31:57.999Z</time></trkpt><trkpt lat="37.03696864221183" lon="14.720461440693523"><ele>791.0</ele><time>2026-05-03T10:31:58.999Z</time></trkpt><trkpt lat="37.03696896783333" lon="14.720324847217677"><ele>792.0</ele><time>2026-05-03T10:31:59.999Z</time></trkpt><trkpt lat="37.03696678347276" lon="14.720171701042117"><ele>793.0</ele><time>2026-05-03T10:32:00.999Z</time></trkpt><trkpt lat="37.03695993289969" lon="14.720010494640114"><ele>794.0</ele><time>2026-05-03T10:32:01.999Z</time></trkpt><trkpt lat="37.03694491738995" lon="14.719839487276476"><ele>795.0</ele><time>2026-05-03T10:32:02.999Z</time></trkpt><trkpt lat="37.036923339217864" lon="14.719688238066825"><ele>796.0</ele><time>2026-05-03T10:32:03.999Z</time></trkpt><trkpt lat="37.03689936466182" lon="14.719524625001977"><ele>796.1999999999999</ele><time>2026-05-03T10:32:04.999Z</time></trkpt><trkpt lat="37.03687438016398" lon="14.719369908217594"><ele>796.4</ele><time>2026-05-03T10:32:05.999Z</time></trkpt><trkpt lat="37.03685148053287" lon="14.71923443677039"><ele>796.6</ele><time>2026-05-03T10:32:06.999Z</time></trkpt><trkpt lat="37.03683030311811" lon="14.719111805707637"><ele>796.8</ele><time>2026-05-03T10:32:07.999Z</time></trkpt><trkpt lat="37.03680820317129" lon="14.718987925136274"><ele>797.0</ele><time>2026-05-03T10:32:08.999Z</time></trkpt><trkpt lat="37.03678808461325" lon="14.718898913261016"><ele>797.0</ele><time>2026-05-03T10:32:09.999Z</time></trkpt><trkpt lat="37.036721574042524" lon="14.718803989441867"><ele>797.0</ele><time>2026-05-03T10:32:17Z</time></trkpt><trkpt lat="37.036680021316485" lon="14.718700471821583"><ele>797.0</ele><time>2026-05-03T10:32:18Z</time></trkpt><trkpt lat="37.036634423894206" lon="14.718594471128934"><ele>797.0</ele><time>2026-05-03T10:32:19Z</time></trkpt><trkpt lat="37.036579586291595" lon="14.718505341323352"><ele>797.0</ele><time>2026-05-03T10:32:20Z</time></trkpt><trkpt lat="37.036507987163574" lon="14.718439226648844"><ele>800.4000000000001</ele><time>2026-05-03T10:32:21Z</time></trkpt><trkpt lat="37.0364288723132" lon="14.718404352733154"><ele>803.8000000000001</ele><time>2026-05-03T10:32:22Z</time></trkpt><trkpt lat="37.03636894968836" lon="14.718336561545774"><ele>807.2</ele><time>2026-05-03T10:32:23Z</time></trkpt><trkpt lat="37.03637706379141" lon="14.71824525030886"><ele>810.6</ele><time>2026-05-03T10:32:24Z</time></trkpt><trkpt lat="37.036356140757" lon="14.718125152498141"><ele>814.0</ele><time>2026-05-03T10:32:25Z</time></trkpt><trkpt lat="37.03632947739983" lon="14.717975551739485"><ele>814.0</ele><time>2026-05-03T10:32:26Z</time></trkpt><trkpt lat="37.03629464154544" lon="14.717835882312787"><ele>814.0</ele><time>2026-05-03T10:32:27Z</time></trkpt><trkpt lat="37.03626485161126" lon="14.717679922992582"><ele>814.0</ele><time>2026-05-03T10:32:28Z</time></trkpt><trkpt lat="37.03624948042022" lon="14.717537431306592"><ele>814.0</ele><time>2026-05-03T10:32:29Z</time></trkpt><trkpt lat="37.036237153627965" lon="14.717394298132673"><ele>814.0</ele><time>2026-05-03T10:32:30Z</time></trkpt><trkpt lat="37.03624117715966" lon="14.71724643215833"><ele>814.0</ele><time>2026-05-03T10:32:31Z</time></trkpt><trkpt lat="37.036243796483944" lon="14.717079255041037"><ele>814.0</ele><time>2026-05-03T10:32:32Z</time></trkpt><trkpt lat="37.036236478787565" lon="14.71693412790177"><ele>814.0</ele><time>2026-05-03T10:32:33Z</time></trkpt><trkpt lat="37.03621744617479" lon="14.716795943823886"><ele>812.75</ele><time>2026-05-03T10:32:34Z</time></trkpt><trkpt lat="37.036219980962876" lon="14.71666079144796"><ele>811.5</ele><time>2026-05-03T10:32:35Z</time></trkpt><trkpt lat="37.03623457380775" lon="14.716518199530048"><ele>810.25</ele><time>2026-05-03T10:32:36Z</time></trkpt><trkpt lat="37.03623863545188" lon="14.716368194830286"><ele>809.0</ele><time>2026-05-03T10:32:37Z</time></trkpt><trkpt lat="37.036236928206364" lon="14.716225932802148"><ele>809.0</ele><time>2026-05-03T10:32:38Z</time></trkpt><trkpt lat="37.03623338047292" lon="14.71609788429838"><ele>809.0</ele><time>2026-05-03T10:32:39Z</time></trkpt><trkpt lat="37.036238084110984" lon="14.715999992517489"><ele>809.0</ele><time>2026-05-03T10:32:40Z</time></trkpt><trkpt lat="37.036230877968315" lon="14.71588296563689"><ele>809.0</ele><time>2026-05-03T10:32:42Z</time></trkpt><trkpt lat="37.03634833042318" lon="14.71601027539906"><ele>809.0</ele><time>2026-05-03T10:32:55.999Z</time></trkpt><trkpt lat="37.03638299047705" lon="14.716109509555984"><ele>809.0</ele><time>2026-05-03T10:32:56.999Z</time></trkpt><trkpt lat="37.03639170071749" lon="14.716244083430954"><ele>809.0</ele><time>2026-05-03T10:32:57.999Z</time></trkpt><trkpt lat="37.03644049427583" lon="14.716346251352249"><ele>809.0</ele><time>2026-05-03T10:32:58.999Z</time></trkpt><trkpt lat="37.03648214174253" lon="14.716459725135575"><ele>809.0</ele><time>2026-05-03T10:32:59.999Z</time></trkpt><trkpt lat="37.03654529359397" lon="14.71657308587157"><ele>809.0</ele><time>2026-05-03T10:33:00.999Z</time></trkpt><trkpt lat="37.03656678082002" lon="14.716703719765336"><ele>809.0</ele><time>2026-05-03T10:33:01.999Z</time></trkpt><trkpt lat="37.036572398328296" lon="14.716830277048723"><ele>809.0</ele><time>2026-05-03T10:33:02.999Z</time></trkpt><trkpt lat="37.036572506270474" lon="14.71695056117096"><ele>809.0</ele><time>2026-05-03T10:33:03.999Z</time></trkpt><trkpt lat="37.03658254643964" lon="14.717068708566272"><ele>809.0</ele><time>2026-05-03T10:33:04.999Z</time></trkpt><trkpt lat="37.036591758105466" lon="14.71718724932848"><ele>809.0</ele><time>2026-05-03T10:33:05.999Z</time></trkpt><trkpt lat="37.03660085899054" lon="14.717315715806652"><ele>810.0</ele><time>2026-05-03T10:33:06.999Z</time></trkpt><trkpt lat="37.03662501216698" lon="14.717451274558808"><ele>811.0</ele><time>2026-05-03T10:33:07.999Z</time></trkpt><trkpt lat="37.03665360478253" lon="14.71759519342468"><ele>812.0</ele><time>2026-05-03T10:33:08.999Z</time></trkpt><trkpt lat="37.03668073081001" lon="14.717720531621355"><ele>813.0</ele><time>2026-05-03T10:33:09.999Z</time></trkpt><trkpt lat="37.03672080501712" lon="14.717824870854882"><ele>814.0</ele><time>2026-05-03T10:33:10.999Z</time></trkpt><trkpt lat="37.03677673254321" lon="14.717901123862138"><ele>809.6</ele><time>2026-05-03T10:33:11.999Z</time></trkpt><trkpt lat="37.03685589926723" lon="14.71795518375857"><ele>805.2</ele><time>2026-05-03T10:33:12.999Z</time></trkpt><trkpt lat="37.036958220423045" lon="14.7179783012243"><ele>800.8000000000001</ele><time>2026-05-03T10:33:13.999Z</time></trkpt><trkpt lat="37.037075049298394" lon="14.717975453855907"><ele>796.4000000000001</ele><time>2026-05-03T10:33:14.999Z</time></trkpt><trkpt lat="37.03719056652908" lon="14.717964115199843"><ele>792.0</ele><time>2026-05-03T10:33:15.999Z</time></trkpt><trkpt lat="37.03729525895007" lon="14.71796761143034"><ele>792.0</ele><time>2026-05-03T10:33:16.999Z</time></trkpt><trkpt lat="37.037386534259284" lon="14.718007471089013"><ele>792.0</ele><time>2026-05-03T10:33:17.999Z</time></trkpt><trkpt lat="37.037473224912326" lon="14.718083604434444"><ele>792.0</ele><time>2026-05-03T10:33:18.999Z</time></trkpt><trkpt lat="37.03755254390934" lon="14.718192645409465"><ele>792.0</ele><time>2026-05-03T10:33:19.999Z</time></trkpt><trkpt lat="37.03756992576902" lon="14.718362489252824"><ele>791.0</ele><time>2026-05-03T10:33:20.999Z</time></trkpt><trkpt lat="37.037640353737686" lon="14.7185099573861"><ele>790.0</ele><time>2026-05-03T10:33:21.999Z</time></trkpt><trkpt lat="37.03772214008312" lon="14.71863900442976"><ele>789.0</ele><time>2026-05-03T10:33:22.999Z</time></trkpt><trkpt lat="37.03780331220117" lon="14.718763934932888"><ele>788.0</ele><time>2026-05-03T10:33:23.999Z</time></trkpt><trkpt lat="37.037879416228286" lon="14.718877204653635"><ele>788.0</ele><time>2026-05-03T10:33:24.999Z</time></trkpt><trkpt lat="37.03795461253497" lon="14.718978800458535"><ele>788.0</ele><time>2026-05-03T10:33:25.999Z</time></trkpt><trkpt lat="37.03802366388565" lon="14.719064635944578"><ele>788.0</ele><time>2026-05-03T10:33:26.999Z</time></trkpt><trkpt lat="37.03809157401788" lon="14.719133918270744"><ele>788.0</ele><time>2026-05-03T10:33:27.999Z</time></trkpt><trkpt lat="37.038177051701815" lon="14.71916966975696"><ele>788.0</ele><time>2026-05-03T10:33:28.999Z</time></trkpt><trkpt lat="37.038242916502554" lon="14.719173229006925"><ele>788.0</ele><time>2026-05-03T10:33:29.999Z</time></trkpt><trkpt lat="37.038343567348846" lon="14.719126878441932"><ele>788.0</ele><time>2026-05-03T10:33:31.999Z</time></trkpt><trkpt lat="37.03839120736058" lon="14.71902257208865"><ele>788.0</ele><time>2026-05-03T10:33:33.999Z</time></trkpt><trkpt lat="37.03825357388657" lon="14.71905592741588"><ele>788.0</ele><time>2026-05-03T10:33:49.999Z</time></trkpt><trkpt lat="37.03818476113321" lon="14.719084316423714"><ele>788.0</ele><time>2026-05-03T10:33:50.999Z</time></trkpt><trkpt lat="37.038115092290646" lon="14.719071021067931"><ele>788.0000000000001</ele><time>2026-05-03T10:33:52.999Z</time></trkpt><trkpt lat="37.03815427739627" lon="14.719133362855713"><ele>788.0</ele><time>2026-05-03T10:33:59.999Z</time></trkpt><trkpt lat="37.0382294074717" lon="14.719118829815704"><ele>788.0</ele><time>2026-05-03T10:34:00.999Z</time></trkpt><trkpt lat="37.038311716796876" lon="14.719051880859881"><ele>788.0</ele><time>2026-05-03T10:34:01.999Z</time></trkpt><trkpt lat="37.03837573146951" lon="14.71896516328039"><ele>788.0000000000001</ele><time>2026-05-03T10:34:02.999Z</time></trkpt><trkpt lat="37.03842715227775" lon="14.71885706790164"><ele>788.0</ele><time>2026-05-03T10:34:03.999Z</time></trkpt><trkpt lat="37.038456966802094" lon="14.718719721041822"><ele>785.0</ele><time>2026-05-03T10:34:04.999Z</time></trkpt><trkpt lat="37.038511237778" lon="14.718612773383024"><ele>782.0</ele><time>2026-05-03T10:34:05.999Z</time></trkpt><trkpt lat="37.038510447238934" lon="14.718482537222796"><ele>779.0</ele><time>2026-05-03T10:34:06.999Z</time></trkpt><trkpt lat="37.038557699426306" lon="14.718354703352738"><ele>776.0</ele><time>2026-05-03T10:34:07.999Z</time></trkpt><trkpt lat="37.03860622420137" lon="14.718230557830452"><ele>773.0</ele><time>2026-05-03T10:34:08.999Z</time></trkpt><trkpt lat="37.038656361811086" lon="14.718115986948565"><ele>769.0</ele><time>2026-05-03T10:34:09.999Z</time></trkpt><trkpt lat="37.03871023755811" lon="14.717998137485361"><ele>765.0</ele><time>2026-05-03T10:34:10.999Z</time></trkpt><trkpt lat="37.038760687461824" lon="14.717863569113721"><ele>761.0</ele><time>2026-05-03T10:34:11.999Z</time></trkpt><trkpt lat="37.03880529375079" lon="14.717720498912104"><ele>757.0</ele><time>2026-05-03T10:34:12.999Z</time></trkpt><trkpt lat="37.03884910258107" lon="14.717582181244975"><ele>751.5</ele><time>2026-05-03T10:34:13.999Z</time></trkpt><trkpt lat="37.038934147955665" lon="14.717460164144926"><ele>746.0</ele><time>2026-05-03T10:34:14.999Z</time></trkpt><trkpt lat="37.038990647147536" lon="14.717322121113986"><ele>740.5</ele><time>2026-05-03T10:34:15.999Z</time></trkpt><trkpt lat="37.03904933801199" lon="14.717185698069741"><ele>735.0</ele><time>2026-05-03T10:34:16.999Z</time></trkpt><trkpt lat="37.039106137368606" lon="14.717058290645218"><ele>736.4</ele><time>2026-05-03T10:34:17.998Z</time></trkpt><trkpt lat="37.039161058132905" lon="14.71693509674592"><ele>737.8</ele><time>2026-05-03T10:34:18.998Z</time></trkpt><trkpt lat="37.03921414099883" lon="14.716811689148651"><ele>739.2</ele><time>2026-05-03T10:34:19.998Z</time></trkpt><trkpt lat="37.03926527989327" lon="14.716689015752863"><ele>740.6</ele><time>2026-05-03T10:34:20.998Z</time></trkpt><trkpt lat="37.03931072467852" lon="14.716575116806272"><ele>742.0</ele><time>2026-05-03T10:34:21.998Z</time></trkpt><trkpt lat="37.03935914691239" lon="14.716450489445702"><ele>742.0</ele><time>2026-05-03T10:34:23Z</time></trkpt><trkpt lat="37.03940871744937" lon="14.716321038108463"><ele>742.0</ele><time>2026-05-03T10:34:24Z</time></trkpt><trkpt lat="37.039457334511816" lon="14.71619472779508"><ele>742.0</ele><time>2026-05-03T10:34:25Z</time></trkpt><trkpt lat="37.03950599898836" lon="14.716069957469317"><ele>742.0</ele><time>2026-05-03T10:34:26Z</time></trkpt><trkpt lat="37.03955715762623" lon="14.715946009314155"><ele>742.0</ele><time>2026-05-03T10:34:27Z</time></trkpt><trkpt lat="37.03961293859459" lon="14.715815221811273"><ele>735.5</ele><time>2026-05-03T10:34:28Z</time></trkpt><trkpt lat="37.03967017281526" lon="14.715689457604986"><ele>729.0</ele><time>2026-05-03T10:34:29Z</time></trkpt><trkpt lat="37.039721499490994" lon="14.715563886308065"><ele>722.5</ele><time>2026-05-03T10:34:30Z</time></trkpt><trkpt lat="37.039811249133486" lon="14.715465380345373"><ele>716.0</ele><time>2026-05-03T10:34:31Z</time></trkpt><trkpt lat="37.039917664167106" lon="14.715378219818188"><ele>716.25</ele><time>2026-05-03T10:34:32Z</time></trkpt><trkpt lat="37.040043214521255" lon="14.71529888321884"><ele>716.5</ele><time>2026-05-03T10:34:33Z</time></trkpt><trkpt lat="37.04018771936339" lon="14.715258910836035"><ele>716.75</ele><time>2026-05-03T10:34:34Z</time></trkpt><trkpt lat="37.04033068134848" lon="14.715230455621576"><ele>717.0</ele><time>2026-05-03T10:34:35Z</time></trkpt><trkpt lat="37.04045123982257" lon="14.715207623212375"><ele>717.0</ele><time>2026-05-03T10:34:36Z</time></trkpt><trkpt lat="37.04052830658074" lon="14.715201992486346"><ele>717.0</ele><time>2026-05-03T10:34:37Z</time></trkpt><trkpt lat="37.040633693622695" lon="14.715253025051831"><ele>717.0</ele><time>2026-05-03T10:34:39Z</time></trkpt><trkpt lat="37.04065115129405" lon="14.71536562162843"><ele>717.0</ele><time>2026-05-03T10:34:40Z</time></trkpt><trkpt lat="37.04069940339827" lon="14.7155052564768"><ele>717.0</ele><time>2026-05-03T10:34:41Z</time></trkpt><trkpt lat="37.04074791630924" lon="14.715653975671922"><ele>723.75</ele><time>2026-05-03T10:34:42Z</time></trkpt><trkpt lat="37.04078259884392" lon="14.715815206772682"><ele>730.5</ele><time>2026-05-03T10:34:43Z</time></trkpt><trkpt lat="37.04079799697276" lon="14.715982908646339"><ele>737.25</ele><time>2026-05-03T10:34:44Z</time></trkpt><trkpt lat="37.04080573061786" lon="14.716156176111907"><ele>744.0</ele><time>2026-05-03T10:34:45Z</time></trkpt><trkpt lat="37.040811754778545" lon="14.716337182134913"><ele>744.0</ele><time>2026-05-03T10:34:46Z</time></trkpt><trkpt lat="37.040818071254435" lon="14.71652159784029"><ele>744.0</ele><time>2026-05-03T10:34:47Z</time></trkpt><trkpt lat="37.04082483814686" lon="14.716697431672207"><ele>744.0</ele><time>2026-05-03T10:34:48Z</time></trkpt><trkpt lat="37.0408314968662" lon="14.716870454197402"><ele>744.0</ele><time>2026-05-03T10:34:49Z</time></trkpt><trkpt lat="37.04083752206115" lon="14.71703202404524"><ele>744.75</ele><time>2026-05-03T10:34:50Z</time></trkpt><trkpt lat="37.040843043530565" lon="14.717193077574242"><ele>745.5</ele><time>2026-05-03T10:34:51Z</time></trkpt><trkpt lat="37.040848194871174" lon="14.717343335138038"><ele>746.25</ele><time>2026-05-03T10:34:52Z</time></trkpt><trkpt lat="37.040866183649996" lon="14.717483844790673"><ele>747.0</ele><time>2026-05-03T10:34:53Z</time></trkpt><trkpt lat="37.040863245998366" lon="14.717614103890897"><ele>747.0</ele><time>2026-05-03T10:34:54Z</time></trkpt><trkpt lat="37.04085555262185" lon="14.717734682270349"><ele>747.0</ele><time>2026-05-03T10:34:55Z</time></trkpt><trkpt lat="37.040874494212666" lon="14.717832200477885"><ele>747.0</ele><time>2026-05-03T10:34:55.999Z</time></trkpt><trkpt lat="37.040925279025444" lon="14.717914853276847"><ele>747.0</ele><time>2026-05-03T10:34:56.999Z</time></trkpt><trkpt lat="37.04101446452734" lon="14.717989453787167"><ele>747.0</ele><time>2026-05-03T10:34:57.999Z</time></trkpt><trkpt lat="37.04111814022524" lon="14.718038637002975"><ele>750.2</ele><time>2026-05-03T10:34:58.999Z</time></trkpt><trkpt lat="37.04121806978336" lon="14.718077459969097"><ele>753.4000000000001</ele><time>2026-05-03T10:34:59.999Z</time></trkpt><trkpt lat="37.04130695888347" lon="14.718106351277326"><ele>756.5999999999999</ele><time>2026-05-03T10:35:00.999Z</time></trkpt><trkpt lat="37.041377863947275" lon="14.718125438885282"><ele>759.8</ele><time>2026-05-03T10:35:01.999Z</time></trkpt><trkpt lat="37.04149296373552" lon="14.718143647129606"><ele>763.0</ele><time>2026-05-03T10:35:03.999Z</time></trkpt><trkpt lat="37.04158443124801" lon="14.71814131932608"><ele>761.0</ele><time>2026-05-03T10:35:04.999Z</time></trkpt><trkpt lat="37.04169290738849" lon="14.718114141103902"><ele>759.0</ele><time>2026-05-03T10:35:05.999Z</time></trkpt><trkpt lat="37.0417935095159" lon="14.718074706887677"><ele>757.0</ele><time>2026-05-03T10:35:06.999Z</time></trkpt><trkpt lat="37.041905731799" lon="14.718026282249692"><ele>755.0</ele><time>2026-05-03T10:35:07.999Z</time></trkpt><trkpt lat="37.04202208308854" lon="14.71797104931852"><ele>755.0</ele><time>2026-05-03T10:35:08.999Z</time></trkpt><trkpt lat="37.0421414865851" lon="14.717914565656237"><ele>755.0</ele><time>2026-05-03T10:35:09.999Z</time></trkpt><trkpt lat="37.042267837059235" lon="14.717859910765688"><ele>755.0</ele><time>2026-05-03T10:35:10.999Z</time></trkpt><trkpt lat="37.04239865184319" lon="14.717808182189671"><ele>755.0</ele><time>2026-05-03T10:35:11.999Z</time></trkpt><trkpt lat="37.0425199864414" lon="14.717761372896026"><ele>747.0</ele><time>2026-05-03T10:35:12.999Z</time></trkpt><trkpt lat="37.04264136198324" lon="14.717713589569437"><ele>739.0</ele><time>2026-05-03T10:35:13.999Z</time></trkpt><trkpt lat="37.04275481405527" lon="14.717665916015672"><ele>731.0</ele><time>2026-05-03T10:35:14.999Z</time></trkpt><trkpt lat="37.042858620192725" lon="14.717604581785837"><ele>723.0</ele><time>2026-05-03T10:35:15.999Z</time></trkpt><trkpt lat="37.042978660315214" lon="14.71756320484988"><ele>723.0</ele><time>2026-05-03T10:35:16.999Z</time></trkpt><trkpt lat="37.04309128239975" lon="14.717526148120895"><ele>723.0</ele><time>2026-05-03T10:35:17.999Z</time></trkpt><trkpt lat="37.04320123532662" lon="14.717471663629146"><ele>723.0</ele><time>2026-05-03T10:35:18.999Z</time></trkpt><trkpt lat="37.043324955584765" lon="14.71739848256179"><ele>723.0</ele><time>2026-05-03T10:35:19.999Z</time></trkpt><trkpt lat="37.04342967970005" lon="14.71734231282446"><ele>726.5</ele><time>2026-05-03T10:35:20.999Z</time></trkpt><trkpt lat="37.04353401006181" lon="14.717289332001462"><ele>730.0</ele><time>2026-05-03T10:35:21.999Z</time></trkpt><trkpt lat="37.0436612057789" lon="14.717258119388914"><ele>733.5</ele><time>2026-05-03T10:35:22.999Z</time></trkpt><trkpt lat="37.04376961209468" lon="14.717170801225373"><ele>737.0</ele><time>2026-05-03T10:35:23.999Z</time></trkpt><trkpt lat="37.04386341082142" lon="14.717093693728845"><ele>737.0</ele><time>2026-05-03T10:35:24.999Z</time></trkpt><trkpt lat="37.043945702805885" lon="14.716991484651452"><ele>737.0</ele><time>2026-05-03T10:35:25.999Z</time></trkpt><trkpt lat="37.04401235874456" lon="14.716867204664366"><ele>737.0</ele><time>2026-05-03T10:35:26.999Z</time></trkpt><trkpt lat="37.044073898537135" lon="14.716761021394884"><ele>737.0</ele><time>2026-05-03T10:35:27.999Z</time></trkpt><trkpt lat="37.04414482317663" lon="14.716686099089927"><ele>737.0</ele><time>2026-05-03T10:35:28.999Z</time></trkpt><trkpt lat="37.04422549567017" lon="14.71665117530845"><ele>739.1666666666666</ele><time>2026-05-03T10:35:29.999Z</time></trkpt><trkpt lat="37.04430533439981" lon="14.71663888220382"><ele>741.3333333333333</ele><time>2026-05-03T10:35:30.999Z</time></trkpt><trkpt lat="37.04438309426206" lon="14.7166650189404"><ele>743.5</ele><time>2026-05-03T10:35:31.999Z</time></trkpt><trkpt lat="37.044445458219265" lon="14.71672051878615"><ele>745.6666666666666</ele><time>2026-05-03T10:35:32.999Z</time></trkpt><trkpt lat="37.04448769564466" lon="14.71681179486151"><ele>747.8333333333334</ele><time>2026-05-03T10:35:33.999Z</time></trkpt><trkpt lat="37.044536698610436" lon="14.716910585544959"><ele>750.0</ele><time>2026-05-03T10:35:34.999Z</time></trkpt><trkpt lat="37.04459290926194" lon="14.71702346668049"><ele>750.0</ele><time>2026-05-03T10:35:35.999Z</time></trkpt><trkpt lat="37.0446571700281" lon="14.717144802418169"><ele>750.0</ele><time>2026-05-03T10:35:36.999Z</time></trkpt><trkpt lat="37.044723515698635" lon="14.717251773888846"><ele>750.0</ele><time>2026-05-03T10:35:37.999Z</time></trkpt><trkpt lat="37.044805560467395" lon="14.71732987529372"><ele>750.0</ele><time>2026-05-03T10:35:38.999Z</time></trkpt><trkpt lat="37.04486664055902" lon="14.717416943337318"><ele>750.0</ele><time>2026-05-03T10:35:39.999Z</time></trkpt><trkpt lat="37.04494049181583" lon="14.717504372197316"><ele>747.0</ele><time>2026-05-03T10:35:40.999Z</time></trkpt><trkpt lat="37.045006578160034" lon="14.717578114357732"><ele>744.0</ele><time>2026-05-03T10:35:41.999Z</time></trkpt><trkpt lat="37.04505189349416" lon="14.717666032694154"><ele>741.0</ele><time>2026-05-03T10:35:42.999Z</time></trkpt><trkpt lat="37.04509750142941" lon="14.717730880664105"><ele>738.0</ele><time>2026-05-03T10:35:43.999Z</time></trkpt><trkpt lat="37.04518074741651" lon="14.71774869242712"><ele>735.0</ele><time>2026-05-03T10:35:45.999Z</time></trkpt><trkpt lat="37.04519975297705" lon="14.717655515496249"><ele>732.0</ele><time>2026-05-03T10:35:47.999Z</time></trkpt><trkpt lat="37.045142750257114" lon="14.717567203762606"><ele>730.75</ele><time>2026-05-03T10:35:48.999Z</time></trkpt><trkpt lat="37.045067666940206" lon="14.717471095573213"><ele>729.5</ele><time>2026-05-03T10:35:49.999Z</time></trkpt><trkpt lat="37.04496885602755" lon="14.717392263901042"><ele>728.25</ele><time>2026-05-03T10:35:50.999Z</time></trkpt><trkpt lat="37.04490153175876" lon="14.71726034497095"><ele>727.0</ele><time>2026-05-03T10:35:51.999Z</time></trkpt><trkpt lat="37.04482099292133" lon="14.717101149040932"><ele>725.25</ele><time>2026-05-03T10:35:52.999Z</time></trkpt><trkpt lat="37.044736669669945" lon="14.716959433645892"><ele>723.5</ele><time>2026-05-03T10:35:53.999Z</time></trkpt><trkpt lat="37.044677982704066" lon="14.716787847252277"><ele>721.75</ele><time>2026-05-03T10:35:54.999Z</time></trkpt><trkpt lat="37.04465277243346" lon="14.716615084995372"><ele>720.0</ele><time>2026-05-03T10:35:55.999Z</time></trkpt><trkpt lat="37.044621926893605" lon="14.716472332499716"><ele>720.0</ele><time>2026-05-03T10:35:56.999Z</time></trkpt><trkpt lat="37.044617398279485" lon="14.716342663731725"><ele>720.0</ele><time>2026-05-03T10:35:57.999Z</time></trkpt><trkpt lat="37.04465187051394" lon="14.716237740182235"><ele>720.0</ele><time>2026-05-03T10:35:58.999Z</time></trkpt><trkpt lat="37.04469037228551" lon="14.716132381609006"><ele>720.0</ele><time>2026-05-03T10:35:59.999Z</time></trkpt><trkpt lat="37.04471179217438" lon="14.716030138578391"><ele>720.0</ele><time>2026-05-03T10:36:00.999Z</time></trkpt><trkpt lat="37.04473041321354" lon="14.715952722058537"><ele>720.0</ele><time>2026-05-03T10:36:01.999Z</time></trkpt><trkpt lat="37.04471965840464" lon="14.715836683450094"><ele>716.8571428571428</ele><time>2026-05-03T10:36:03.999Z</time></trkpt><trkpt lat="37.044691038576616" lon="14.7157633548409"><ele>713.7142857142858</ele><time>2026-05-03T10:36:06.999Z</time></trkpt><trkpt lat="37.044670020753045" lon="14.715676302199387"><ele>710.5714285714286</ele><time>2026-05-03T10:36:10.999Z</time></trkpt><trkpt lat="37.04463642830143" lon="14.715584007493511"><ele>707.4285714285713</ele><time>2026-05-03T10:37:58.999Z</time></trkpt><trkpt lat="37.04472483485352" lon="14.715534481940695"><ele>704.2857142857142</ele><time>2026-05-03T10:38:01.999Z</time></trkpt><trkpt lat="37.04478568038767" lon="14.715509341317432"><ele>701.1428571428571</ele><time>2026-05-03T10:38:03.999Z</time></trkpt><trkpt lat="37.044742446064525" lon="14.715577296550375"><ele>698.0</ele><time>2026-05-03T10:39:20.999Z</time></trkpt><trkpt lat="37.04468603715291" lon="14.715618547383551"><ele>697.9999999999999</ele><time>2026-05-03T10:39:28.999Z</time></trkpt><trkpt lat="37.04461997219863" lon="14.71559314539825"><ele>698.0</ele><time>2026-05-03T10:39:37.999Z</time></trkpt><trkpt lat="37.04455852616392" lon="14.71556206469816"><ele>698.0</ele><time>2026-05-03T10:39:46.999Z</time></trkpt><trkpt lat="37.044544052139045" lon="14.715475455576605"><ele>698.0</ele><time>2026-05-03T10:39:58.999Z</time></trkpt><trkpt lat="37.04453450074066" lon="14.715390183201686"><ele>698.0</ele><time>2026-05-03T10:40:06.999Z</time></trkpt><trkpt lat="37.044516575560486" lon="14.715291097278358"><ele>697.9999999999999</ele><time>2026-05-03T10:40:12.999Z</time></trkpt><trkpt lat="37.0445174234389" lon="14.715200215130308"><ele>698.0</ele><time>2026-05-03T10:40:18.999Z</time></trkpt><trkpt lat="37.04449827353137" lon="14.715117192582687"><ele>696.2857142857142</ele><time>2026-05-03T10:40:26.999Z</time></trkpt><trkpt lat="37.04446747736802" lon="14.71503993942682"><ele>694.5714285714286</ele><time>2026-05-03T10:40:39Z</time></trkpt><trkpt lat="37.04449068477282" lon="14.714963276124346"><ele>692.8571428571429</ele><time>2026-05-03T10:40:45Z</time></trkpt><trkpt lat="37.04447774895957" lon="14.714881579608456"><ele>691.1428571428571</ele><time>2026-05-03T10:40:51Z</time></trkpt><trkpt lat="37.04441453758759" lon="14.714861943833375"><ele>689.4285714285714</ele><time>2026-05-03T10:42:30.999Z</time></trkpt><trkpt lat="37.044365639193906" lon="14.714805049325289"><ele>687.7142857142857</ele><time>2026-05-03T10:42:43.998Z</time></trkpt><trkpt lat="37.04434179724484" lon="14.714722242761423"><ele>686.0</ele><time>2026-05-03T10:42:52Z</time></trkpt><trkpt lat="37.04428952811176" lon="14.714657031554594"><ele>686.0</ele><time>2026-05-03T10:43:01Z</time></trkpt><trkpt lat="37.04424306973524" lon="14.71460154556906"><ele>686.0</ele><time>2026-05-03T10:43:09Z</time></trkpt><trkpt lat="37.044177811150035" lon="14.714598207699755"><ele>686.0</ele><time>2026-05-03T10:44:12.999Z</time></trkpt><trkpt lat="37.04423417097313" lon="14.714681530686063"><ele>686.0</ele><time>2026-05-03T10:45:38.999Z</time></trkpt><trkpt lat="37.04428091122327" lon="14.71473472521741"><ele>686.0</ele><time>2026-05-03T10:46:06.999Z</time></trkpt><trkpt lat="37.04431203782842" lon="14.714810782399258"><ele>686.0</ele><time>2026-05-03T10:46:13.999Z</time></trkpt><trkpt lat="37.04438990781472" lon="14.714886451324034"><ele>686.0</ele><time>2026-05-03T10:48:09.999Z</time></trkpt><trkpt lat="37.04443376905847" lon="14.714958506503635"><ele>686.0</ele><time>2026-05-03T10:48:30.999Z</time></trkpt></trkseg><trkseg><trkpt lat="37.03732102666208" lon="14.71798662440392"><ele>792.0</ele><time>2026-05-03T12:46:39.395Z</time></trkpt><trkpt lat="37.037246068787674" lon="14.717967255710485"><ele>792.0</ele><time>2026-05-03T12:46:40.395Z</time></trkpt><trkpt lat="37.03714859033886" lon="14.717969879422101"><ele>792.0</ele><time>2026-05-03T12:46:41.395Z</time></trkpt><trkpt lat="37.03703796095846" lon="14.717957582910575"><ele>792.0</ele><time>2026-05-03T12:46:42.395Z</time></trkpt><trkpt lat="37.03695436237191" lon="14.717951434454733"><ele>792.0</ele><time>2026-05-03T12:46:43.395Z</time></trkpt><trkpt lat="37.036883825237865" lon="14.717950453369077"><ele>792.0</ele><time>2026-05-03T12:46:44.395Z</time></trkpt><trkpt lat="37.036820628095946" lon="14.717946032087964"><ele>792.0</ele><time>2026-05-03T12:46:45.395Z</time></trkpt><trkpt lat="37.036701923757334" lon="14.7178840187707"><ele>792.0</ele><time>2026-05-03T12:46:47.395Z</time></trkpt><trkpt lat="37.03663191875853" lon="14.717819933842767"><ele>792.0</ele><time>2026-05-03T12:46:48.395Z</time></trkpt><trkpt lat="37.03659559680082" lon="14.717703591982296"><ele>792.0</ele><time>2026-05-03T12:46:49.395Z</time></trkpt><trkpt lat="37.036562923559636" lon="14.717526013836013"><ele>797.6666666666667</ele><time>2026-05-03T12:46:50.395Z</time></trkpt><trkpt lat="37.03652544961292" lon="14.717298855708291"><ele>803.3333333333334</ele><time>2026-05-03T12:46:51.395Z</time></trkpt><trkpt lat="37.03651494164154" lon="14.71709884328731"><ele>809.0</ele><time>2026-05-03T12:46:52.395Z</time></trkpt><trkpt lat="37.03651100561732" lon="14.716902282212196"><ele>809.0</ele><time>2026-05-03T12:46:53.395Z</time></trkpt><trkpt lat="37.03649490319298" lon="14.716728456859547"><ele>809.0</ele><time>2026-05-03T12:46:54.395Z</time></trkpt><trkpt lat="37.03649675127632" lon="14.716554562655192"><ele>809.0</ele><time>2026-05-03T12:46:55.395Z</time></trkpt><trkpt lat="37.03646838014849" lon="14.716391845882168"><ele>809.0</ele><time>2026-05-03T12:46:56.395Z</time></trkpt><trkpt lat="37.036432093839394" lon="14.716215043998618"><ele>807.4000000000001</ele><time>2026-05-03T12:46:57.395Z</time></trkpt><trkpt lat="37.0364144226441" lon="14.716047824443534"><ele>805.8</ele><time>2026-05-03T12:46:58.395Z</time></trkpt><trkpt lat="37.03638391536959" lon="14.71593507930981"><ele>804.2</ele><time>2026-05-03T12:46:59.395Z</time></trkpt><trkpt lat="37.036374392585266" lon="14.71585297436661"><ele>802.5999999999999</ele><time>2026-05-03T12:47:00.395Z</time></trkpt><trkpt lat="37.03627292447953" lon="14.71583851850698"><ele>801.0</ele><time>2026-05-03T12:47:03.39Z</time></trkpt><trkpt lat="37.03621159238097" lon="14.715877714485886"><ele>801.0</ele><time>2026-05-03T12:47:06.987Z</time></trkpt><trkpt lat="37.036210668450856" lon="14.715957943938786"><ele>801.0</ele><time>2026-05-03T12:47:09.987Z</time></trkpt><trkpt lat="37.03620366413123" lon="14.71612604573501"><ele>801.0</ele><time>2026-05-03T12:47:11.987Z</time></trkpt><trkpt lat="37.036200267952594" lon="14.716206351529344"><ele>801.0</ele><time>2026-05-03T12:47:12.987Z</time></trkpt><trkpt lat="37.036213617834434" lon="14.716527042334004"><ele>802.5999999999999</ele><time>2026-05-03T12:47:14.987Z</time></trkpt><trkpt lat="37.03621601353803" lon="14.716627605558607"><ele>804.2</ele><time>2026-05-03T12:47:15.987Z</time></trkpt><trkpt lat="37.036222624809085" lon="14.71683727659468"><ele>805.8</ele><time>2026-05-03T12:47:17.987Z</time></trkpt><trkpt lat="37.036227884367854" lon="14.716941445692171"><ele>807.4000000000001</ele><time>2026-05-03T12:47:18.987Z</time></trkpt><trkpt lat="37.03623580689364" lon="14.71704906422961"><ele>809.0</ele><time>2026-05-03T12:47:19.987Z</time></trkpt><trkpt lat="37.03624389814374" lon="14.71715897544641"><ele>810.0</ele><time>2026-05-03T12:47:20.987Z</time></trkpt><trkpt lat="37.036243502778625" lon="14.717269209118346"><ele>811.0</ele><time>2026-05-03T12:47:21.987Z</time></trkpt><trkpt lat="37.036234156751426" lon="14.717394871093834"><ele>812.0</ele><time>2026-05-03T12:47:22.987Z</time></trkpt><trkpt lat="37.03623547287994" lon="14.717515200315091"><ele>813.0</ele><time>2026-05-03T12:47:23.987Z</time></trkpt><trkpt lat="37.03624622185243" lon="14.717630304454158"><ele>814.0</ele><time>2026-05-03T12:47:24.987Z</time></trkpt><trkpt lat="37.03626084329295" lon="14.717743953265291"><ele>814.0</ele><time>2026-05-03T12:47:25.987Z</time></trkpt><trkpt lat="37.03627751805956" lon="14.717857732592377"><ele>814.0</ele><time>2026-05-03T12:47:26.987Z</time></trkpt><trkpt lat="37.036296576233845" lon="14.71798246998487"><ele>814.0</ele><time>2026-05-03T12:47:27.987Z</time></trkpt><trkpt lat="37.03632141045225" lon="14.718124346684803"><ele>814.0</ele><time>2026-05-03T12:47:28.987Z</time></trkpt><trkpt lat="37.03635058794943" lon="14.718257756922867"><ele>814.0</ele><time>2026-05-03T12:47:29.987Z</time></trkpt><trkpt lat="37.036396905511005" lon="14.718360280238983"><ele>813.9999999999999</ele><time>2026-05-03T12:47:30.987Z</time></trkpt><trkpt lat="37.03643551724707" lon="14.718450389142214"><ele>814.0</ele><time>2026-05-03T12:47:31.987Z</time></trkpt><trkpt lat="37.03648175638755" lon="14.718513826746715"><ele>814.0</ele><time>2026-05-03T12:47:32.987Z</time></trkpt><trkpt lat="37.03655314474749" lon="14.718558247999997"><ele>814.0</ele><time>2026-05-03T12:47:33.987Z</time></trkpt><trkpt lat="37.03663621162212" lon="14.718612921544226"><ele>813.9999999999999</ele><time>2026-05-03T12:47:34.987Z</time></trkpt><trkpt lat="37.03669245504974" lon="14.718701589411955"><ele>814.0</ele><time>2026-05-03T12:47:35.987Z</time></trkpt><trkpt lat="37.036728795093225" lon="14.71881860771915"><ele>810.6</ele><time>2026-05-03T12:47:36.987Z</time></trkpt><trkpt lat="37.03676420939498" lon="14.718941100349964"><ele>807.2</ele><time>2026-05-03T12:47:37.987Z</time></trkpt><trkpt lat="37.03678955472159" lon="14.719073309457547"><ele>803.8000000000001</ele><time>2026-05-03T12:47:38.987Z</time></trkpt><trkpt lat="37.036809710988926" lon="14.719190027010002"><ele>800.4000000000001</ele><time>2026-05-03T12:47:39.987Z</time></trkpt><trkpt lat="37.036832074606906" lon="14.71931915490573"><ele>797.0</ele><time>2026-05-03T12:47:40.987Z</time></trkpt><trkpt lat="37.03686772044887" lon="14.71943998967964"><ele>796.75</ele><time>2026-05-03T12:47:41.987Z</time></trkpt><trkpt lat="37.036886308384624" lon="14.719570192641454"><ele>796.5</ele><time>2026-05-03T12:47:42.987Z</time></trkpt><trkpt lat="37.036893133305654" lon="14.719713365959565"><ele>796.25</ele><time>2026-05-03T12:47:43.987Z</time></trkpt><trkpt lat="37.036913740350656" lon="14.719860353794239"><ele>796.0</ele><time>2026-05-03T12:47:44.987Z</time></trkpt><trkpt lat="37.0369265447504" lon="14.720002538459227"><ele>796.0</ele><time>2026-05-03T12:47:45.987Z</time></trkpt><trkpt lat="37.03693168973539" lon="14.720126806953195"><ele>796.0</ele><time>2026-05-03T12:47:46.987Z</time></trkpt><trkpt lat="37.036934890697765" lon="14.720267940421452"><ele>796.0</ele><time>2026-05-03T12:47:47.987Z</time></trkpt><trkpt lat="37.03693563216379" lon="14.720427331953319"><ele>796.0</ele><time>2026-05-03T12:47:48.987Z</time></trkpt><trkpt lat="37.036932335359005" lon="14.720612622706444"><ele>795.0</ele><time>2026-05-03T12:47:49.987Z</time></trkpt><trkpt lat="37.03692370205103" lon="14.720795979114557"><ele>794.0</ele><time>2026-05-03T12:47:50.987Z</time></trkpt><trkpt lat="37.0369072637763" lon="14.720957295873935"><ele>793.0</ele><time>2026-05-03T12:47:51.987Z</time></trkpt><trkpt lat="37.03689128936666" lon="14.72110371873337"><ele>792.0</ele><time>2026-05-03T12:47:52.987Z</time></trkpt><trkpt lat="37.0368769916574" lon="14.721234772838363"><ele>791.2</ele><time>2026-05-03T12:47:53.987Z</time></trkpt><trkpt lat="37.0368655892825" lon="14.721339288210526"><ele>790.4000000000001</ele><time>2026-05-03T12:47:54.987Z</time></trkpt><trkpt lat="37.03685726198065" lon="14.721423047666082"><ele>789.5999999999999</ele><time>2026-05-03T12:47:55.987Z</time></trkpt><trkpt lat="37.036844982780984" lon="14.721553201247264"><ele>788.8</ele><time>2026-05-03T12:47:57.987Z</time></trkpt><trkpt lat="37.03682834250553" lon="14.721668868866805"><ele>788.0</ele><time>2026-05-03T12:47:59.987Z</time></trkpt><trkpt lat="37.0369879827457" lon="14.721862524209232"><ele>787.0</ele><time>2026-05-03T12:48:01.987Z</time></trkpt><trkpt lat="37.03705777851149" lon="14.721972620800273"><ele>786.0</ele><time>2026-05-03T12:48:02.987Z</time></trkpt><trkpt lat="37.037130734120545" lon="14.722108791285056"><ele>785.0</ele><time>2026-05-03T12:48:03.987Z</time></trkpt><trkpt lat="37.03719999937647" lon="14.722257795265676"><ele>784.0</ele><time>2026-05-03T12:48:04.987Z</time></trkpt><trkpt lat="37.03726809103239" lon="14.722409464659762"><ele>784.0</ele><time>2026-05-03T12:48:05.987Z</time></trkpt><trkpt lat="37.03734076993549" lon="14.722557951996656"><ele>784.0</ele><time>2026-05-03T12:48:06.987Z</time></trkpt><trkpt lat="37.03742445046449" lon="14.72270638875916"><ele>784.0</ele><time>2026-05-03T12:48:07.987Z</time></trkpt><trkpt lat="37.03750950257147" lon="14.722864119803539"><ele>784.0</ele><time>2026-05-03T12:48:08.987Z</time></trkpt><trkpt lat="37.03758597718207" lon="14.7230256318236"><ele>784.0</ele><time>2026-05-03T12:48:09.987Z</time></trkpt><trkpt lat="37.03766850192698" lon="14.723195360243908"><ele>784.0</ele><time>2026-05-03T12:48:10.987Z</time></trkpt><trkpt lat="37.03774728077374" lon="14.723360140461647"><ele>784.0</ele><time>2026-05-03T12:48:11.987Z</time></trkpt><trkpt lat="37.03781483334642" lon="14.723502573587357"><ele>784.0</ele><time>2026-05-03T12:48:12.987Z</time></trkpt><trkpt lat="37.0378656908635" lon="14.723638463978503"><ele>784.2</ele><time>2026-05-03T12:48:13.987Z</time></trkpt><trkpt lat="37.03791531330241" lon="14.723750266539845"><ele>784.4000000000001</ele><time>2026-05-03T12:48:14.987Z</time></trkpt><trkpt lat="37.03795750031565" lon="14.723856612832472"><ele>784.6</ele><time>2026-05-03T12:48:15.987Z</time></trkpt><trkpt lat="37.03799724904472" lon="14.723953702446964"><ele>784.8</ele><time>2026-05-03T12:48:16.987Z</time></trkpt><trkpt lat="37.03804531391522" lon="14.724048685777582"><ele>785.0</ele><time>2026-05-03T12:48:17.987Z</time></trkpt><trkpt lat="37.03809534979193" lon="14.724151633486459"><ele>785.0</ele><time>2026-05-03T12:48:18.987Z</time></trkpt><trkpt lat="37.038135188042254" lon="14.724256714703143"><ele>785.0</ele><time>2026-05-03T12:48:19.987Z</time></trkpt><trkpt lat="37.03818563008719" lon="14.724360104932623"><ele>785.0</ele><time>2026-05-03T12:48:20.987Z</time></trkpt><trkpt lat="37.03824487685534" lon="14.724448810097446"><ele>785.0</ele><time>2026-05-03T12:48:21.987Z</time></trkpt><trkpt lat="37.03832855791343" lon="14.724480795712585"><ele>785.0</ele><time>2026-05-03T12:48:22.987Z</time></trkpt><trkpt lat="37.0384194906933" lon="14.724536401786592"><ele>786.0</ele><time>2026-05-03T12:48:23.987Z</time></trkpt><trkpt lat="37.03854318421889" lon="14.72458185676963"><ele>787.0</ele><time>2026-05-03T12:48:24.987Z</time></trkpt><trkpt lat="37.03865660705592" lon="14.724630210852727"><ele>788.0</ele><time>2026-05-03T12:48:25.987Z</time></trkpt><trkpt lat="37.03879012613244" lon="14.724685032509951"><ele>789.0</ele><time>2026-05-03T12:48:26.986Z</time></trkpt><trkpt lat="37.0389374726747" lon="14.724750576698671"><ele>789.0</ele><time>2026-05-03T12:48:27.986Z</time></trkpt><trkpt lat="37.03908689790545" lon="14.724809640064988"><ele>789.0</ele><time>2026-05-03T12:48:28.986Z</time></trkpt><trkpt lat="37.039233166341255" lon="14.724864098317767"><ele>789.0</ele><time>2026-05-03T12:48:29.986Z</time></trkpt><trkpt lat="37.03938726493775" lon="14.724921871167895"><ele>791.25</ele><time>2026-05-03T12:48:30.986Z</time></trkpt><trkpt lat="37.039532089645064" lon="14.724984123613218"><ele>793.5</ele><time>2026-05-03T12:48:31.986Z</time></trkpt><trkpt lat="37.03966457219051" lon="14.725051919141315"><ele>795.75</ele><time>2026-05-03T12:48:32.986Z</time></trkpt><trkpt lat="37.039799271706336" lon="14.72513223132944"><ele>798.0</ele><time>2026-05-03T12:48:33.986Z</time></trkpt><trkpt lat="37.03992715285786" lon="14.725183592585989"><ele>798.75</ele><time>2026-05-03T12:48:34.986Z</time></trkpt><trkpt lat="37.04003344474896" lon="14.725225002933753"><ele>799.5</ele><time>2026-05-03T12:48:35.986Z</time></trkpt><trkpt lat="37.04015315051999" lon="14.725255941503375"><ele>800.25</ele><time>2026-05-03T12:48:36.986Z</time></trkpt><trkpt lat="37.040283809991806" lon="14.725267832394616"><ele>801.0</ele><time>2026-05-03T12:48:37.986Z</time></trkpt><trkpt lat="37.040413710172835" lon="14.72527142939619"><ele>801.0</ele><time>2026-05-03T12:48:38.986Z</time></trkpt><trkpt lat="37.04054180775445" lon="14.725268215171235"><ele>801.0</ele><time>2026-05-03T12:48:39.986Z</time></trkpt><trkpt lat="37.04068411402575" lon="14.725253961044874"><ele>801.0</ele><time>2026-05-03T12:48:40.986Z</time></trkpt><trkpt lat="37.04082576074895" lon="14.725244200860327"><ele>801.0</ele><time>2026-05-03T12:48:41.986Z</time></trkpt><trkpt lat="37.04096461032725" lon="14.72523859506631"><ele>804.5</ele><time>2026-05-03T12:48:42.986Z</time></trkpt><trkpt lat="37.04109400150045" lon="14.725227027614805"><ele>808.0</ele><time>2026-05-03T12:48:43.986Z</time></trkpt><trkpt lat="37.04121479609186" lon="14.725221994577765"><ele>811.5</ele><time>2026-05-03T12:48:44.986Z</time></trkpt><trkpt lat="37.04133105475798" lon="14.725216485780447"><ele>815.0</ele><time>2026-05-03T12:48:45.986Z</time></trkpt><trkpt lat="37.04144912515455" lon="14.725213107499908"><ele>815.0</ele><time>2026-05-03T12:48:46.986Z</time></trkpt><trkpt lat="37.041566846688596" lon="14.725206678755255"><ele>815.0</ele><time>2026-05-03T12:48:48Z</time></trkpt><trkpt lat="37.04167926620991" lon="14.72519321164657"><ele>815.0</ele><time>2026-05-03T12:48:49Z</time></trkpt><trkpt lat="37.04178689707936" lon="14.725182013983595"><ele>815.0</ele><time>2026-05-03T12:48:50Z</time></trkpt><trkpt lat="37.04189588164039" lon="14.725184763997499"><ele>815.0</ele><time>2026-05-03T12:48:51Z</time></trkpt><trkpt lat="37.04200411251862" lon="14.725203417523646"><ele>815.4</ele><time>2026-05-03T12:48:52Z</time></trkpt><trkpt lat="37.042092492428814" lon="14.725263622248491"><ele>815.8</ele><time>2026-05-03T12:48:53Z</time></trkpt><trkpt lat="37.042173585612005" lon="14.725314625945941"><ele>816.2</ele><time>2026-05-03T12:48:54Z</time></trkpt><trkpt lat="37.04225861067869" lon="14.725370197138524"><ele>816.6</ele><time>2026-05-03T12:48:55Z</time></trkpt><trkpt lat="37.04234362776311" lon="14.72542403293669"><ele>817.0</ele><time>2026-05-03T12:48:56Z</time></trkpt><trkpt lat="37.04243116079315" lon="14.72548260360198"><ele>817.4000000000001</ele><time>2026-05-03T12:48:57Z</time></trkpt><trkpt lat="37.04251814098395" lon="14.725540123397638"><ele>817.8000000000001</ele><time>2026-05-03T12:48:58Z</time></trkpt><trkpt lat="37.042623925460155" lon="14.725586068156451"><ele>818.2</ele><time>2026-05-03T12:48:59Z</time></trkpt><trkpt lat="37.04270438201693" lon="14.725642144789019"><ele>818.6</ele><time>2026-05-03T12:49:00Z</time></trkpt><trkpt lat="37.042778442208466" lon="14.725681693673693"><ele>819.0</ele><time>2026-05-03T12:49:01Z</time></trkpt><trkpt lat="37.042846571532685" lon="14.7257511982791"><ele>819.0</ele><time>2026-05-03T12:49:02Z</time></trkpt><trkpt lat="37.04294518300136" lon="14.725796907551105"><ele>819.0</ele><time>2026-05-03T12:49:03Z</time></trkpt><trkpt lat="37.04304495116111" lon="14.725863203085773"><ele>819.0</ele><time>2026-05-03T12:49:04Z</time></trkpt><trkpt lat="37.04313538543914" lon="14.725932279985226"><ele>819.0</ele><time>2026-05-03T12:49:05Z</time></trkpt><trkpt lat="37.0432271153047" lon="14.725993074807583"><ele>819.0</ele><time>2026-05-03T12:49:06Z</time></trkpt><trkpt lat="37.043319647263935" lon="14.72606694316728"><ele>817.8333333333334</ele><time>2026-05-03T12:49:07Z</time></trkpt><trkpt lat="37.043407494177046" lon="14.72612724694691"><ele>816.6666666666667</ele><time>2026-05-03T12:49:08Z</time></trkpt><trkpt lat="37.043487462304135" lon="14.726183900377045"><ele>815.5</ele><time>2026-05-03T12:49:09Z</time></trkpt><trkpt lat="37.043558031311456" lon="14.72623277895175"><ele>814.3333333333334</ele><time>2026-05-03T12:49:10Z</time></trkpt><trkpt lat="37.043620232219666" lon="14.726274469528914"><ele>813.1666666666667</ele><time>2026-05-03T12:49:11Z</time></trkpt><trkpt lat="37.04367790621513" lon="14.726314102940226"><ele>812.0</ele><time>2026-05-03T12:49:12Z</time></trkpt><trkpt lat="37.043780454276174" lon="14.726390245979653"><ele>812.0</ele><time>2026-05-03T12:49:14Z</time></trkpt><trkpt lat="37.043849135213065" lon="14.72643077708902"><ele>812.0</ele><time>2026-05-03T12:49:16Z</time></trkpt><trkpt lat="37.04377054899666" lon="14.726385235976673"><ele>812.0</ele><time>2026-05-03T12:49:27.999Z</time></trkpt><trkpt lat="37.043714934439144" lon="14.726334318486757"><ele>812.0</ele><time>2026-05-03T12:49:30.999Z</time></trkpt><trkpt lat="37.04365576647471" lon="14.72630078581652"><ele>812.0</ele><time>2026-05-03T12:49:36.999Z</time></trkpt><trkpt lat="37.0437154531657" lon="14.726110028371613"><ele>812.1666666666667</ele><time>2026-05-03T12:49:39.999Z</time></trkpt><trkpt lat="37.043728002758904" lon="14.725998264749174"><ele>812.3333333333334</ele><time>2026-05-03T12:49:42.999Z</time></trkpt><trkpt lat="37.043791952971425" lon="14.72591484247717"><ele>812.5</ele><time>2026-05-03T12:49:45.999Z</time></trkpt><trkpt lat="37.04384048197459" lon="14.725863727416828"><ele>812.6666666666667</ele><time>2026-05-03T12:49:47.999Z</time></trkpt><trkpt lat="37.043931692988025" lon="14.72582388767799"><ele>812.8333333333334</ele><time>2026-05-03T12:49:50.999Z</time></trkpt><trkpt lat="37.044024526566574" lon="14.725809005485651"><ele>813.0</ele><time>2026-05-03T12:49:52.999Z</time></trkpt><trkpt lat="37.04407857561819" lon="14.725742768387752"><ele>813.0</ele><time>2026-05-03T12:49:56.999Z</time></trkpt><trkpt lat="37.044104305414606" lon="14.725644391219891"><ele>813.0</ele><time>2026-05-03T12:49:58.999Z</time></trkpt><trkpt lat="37.04417310986624" lon="14.72565421548494"><ele>813.0</ele><time>2026-05-03T12:50:00.999Z</time></trkpt><trkpt lat="37.04424577843923" lon="14.725688755604164"><ele>813.0</ele><time>2026-05-03T12:50:02.999Z</time></trkpt><trkpt lat="37.04433578128146" lon="14.725757653135481"><ele>813.0</ele><time>2026-05-03T12:50:04.999Z</time></trkpt><trkpt lat="37.04443345313869" lon="14.725840279909868"><ele>812.5999999999999</ele><time>2026-05-03T12:50:06.999Z</time></trkpt><trkpt lat="37.04457639514787" lon="14.725812328507704"><ele>812.1999999999999</ele><time>2026-05-03T12:50:09.999Z</time></trkpt><trkpt lat="37.044662343993004" lon="14.725808742840687"><ele>811.8</ele><time>2026-05-03T12:50:10.999Z</time></trkpt><trkpt lat="37.04474403706725" lon="14.725809726305108"><ele>811.4</ele><time>2026-05-03T12:50:11.999Z</time></trkpt><trkpt lat="37.04487974597374" lon="14.725830737652116"><ele>811.0</ele><time>2026-05-03T12:50:13.999Z</time></trkpt><trkpt lat="37.04496715539753" lon="14.725822301968673"><ele>809.1666666666666</ele><time>2026-05-03T12:50:14.999Z</time></trkpt><trkpt lat="37.045039372434516" lon="14.725821564990378"><ele>807.3333333333333</ele><time>2026-05-03T12:50:15.999Z</time></trkpt><trkpt lat="37.04511697802965" lon="14.725808602989115"><ele>805.5</ele><time>2026-05-03T12:50:16.999Z</time></trkpt><trkpt lat="37.045186288571614" lon="14.725778963704316"><ele>803.6666666666667</ele><time>2026-05-03T12:50:17.999Z</time></trkpt><trkpt lat="37.045262208693664" lon="14.725737312020943"><ele>801.8333333333334</ele><time>2026-05-03T12:50:18.999Z</time></trkpt><trkpt lat="37.045329999147896" lon="14.725687152357137"><ele>800.0</ele><time>2026-05-03T12:50:19.999Z</time></trkpt><trkpt lat="37.04539474521919" lon="14.725647298388404"><ele>800.0</ele><time>2026-05-03T12:50:20.999Z</time></trkpt><trkpt lat="37.045489919919916" lon="14.725623519081239"><ele>800.0</ele><time>2026-05-03T12:50:22.999Z</time></trkpt><trkpt lat="37.04555740997482" lon="14.725591306202036"><ele>800.0</ele><time>2026-05-03T12:50:23.999Z</time></trkpt><trkpt lat="37.04564754618435" lon="14.725497374354097"><ele>800.0</ele><time>2026-05-03T12:50:25.999Z</time></trkpt><trkpt lat="37.04566795352296" lon="14.725419257751511"><ele>800.0</ele><time>2026-05-03T12:50:27.999Z</time></trkpt><trkpt lat="37.045720402560136" lon="14.725302620852304"><ele>798.2</ele><time>2026-05-03T12:50:30.999Z</time></trkpt><trkpt lat="37.04574974425654" lon="14.725185730201117"><ele>796.4</ele><time>2026-05-03T12:50:32.999Z</time></trkpt><trkpt lat="37.04578868240632" lon="14.725113823543264"><ele>794.5999999999999</ele><time>2026-05-03T12:50:33.999Z</time></trkpt><trkpt lat="37.04587126040367" lon="14.725004844906584"><ele>792.8</ele><time>2026-05-03T12:50:35.999Z</time></trkpt><trkpt lat="37.04594204409343" lon="14.724900402904721"><ele>791.0</ele><time>2026-05-03T12:50:37.999Z</time></trkpt><trkpt lat="37.04600670853124" lon="14.724812172854396"><ele>791.0</ele><time>2026-05-03T12:50:39.999Z</time></trkpt><trkpt lat="37.04604950043641" lon="14.724721211038387"><ele>791.0</ele><time>2026-05-03T12:50:41.999Z</time></trkpt><trkpt lat="37.0460914497377" lon="14.724653094290542"><ele>791.0</ele><time>2026-05-03T12:50:43.999Z</time></trkpt><trkpt lat="37.04614623831466" lon="14.72457988267919"><ele>791.0</ele><time>2026-05-03T12:50:46.999Z</time></trkpt><trkpt lat="37.04619374185429" lon="14.724515662556454"><ele>791.0</ele><time>2026-05-03T12:50:47.999Z</time></trkpt><trkpt lat="37.046235326568365" lon="14.724444323134165"><ele>791.0</ele><time>2026-05-03T12:50:49.999Z</time></trkpt><trkpt lat="37.0462825729528" lon="14.724376980659507"><ele>791.0</ele><time>2026-05-03T12:50:50.999Z</time></trkpt><trkpt lat="37.0463241554964" lon="14.724290810043428"><ele>786.5999999999999</ele><time>2026-05-03T12:50:52.999Z</time></trkpt><trkpt lat="37.04637896668519" lon="14.724203073032749"><ele>782.2</ele><time>2026-05-03T12:50:55Z</time></trkpt><trkpt lat="37.046439540020025" lon="14.724139049411423"><ele>777.8</ele><time>2026-05-03T12:50:57Z</time></trkpt><trkpt lat="37.046486470556246" lon="14.724031674870554"><ele>773.4000000000001</ele><time>2026-05-03T12:50:59Z</time></trkpt><trkpt lat="37.0465333078627" lon="14.723916000890933"><ele>769.0</ele><time>2026-05-03T12:51:01Z</time></trkpt><trkpt lat="37.046581378870655" lon="14.723776802443563"><ele>768.9999999999999</ele><time>2026-05-03T12:51:03Z</time></trkpt><trkpt lat="37.04660324336761" lon="14.72370240810665"><ele>769.0</ele><time>2026-05-03T12:51:04Z</time></trkpt><trkpt lat="37.0466195568798" lon="14.723625087654556"><ele>769.0</ele><time>2026-05-03T12:51:05Z</time></trkpt><trkpt lat="37.046688760287886" lon="14.723481224615808"><ele>769.0</ele><time>2026-05-03T12:51:07Z</time></trkpt><trkpt lat="37.04673313166109" lon="14.723411403858016"><ele>768.9999999999999</ele><time>2026-05-03T12:51:08Z</time></trkpt><trkpt lat="37.0467684762138" lon="14.723335953244247"><ele>769.0</ele><time>2026-05-03T12:51:09Z</time></trkpt><trkpt lat="37.04680922575122" lon="14.723270511280353"><ele>774.0</ele><time>2026-05-03T12:51:10Z</time></trkpt><trkpt lat="37.04688157785192" lon="14.723152586810347"><ele>779.0</ele><time>2026-05-03T12:51:12Z</time></trkpt><trkpt lat="37.04696411979444" lon="14.72304255240578"><ele>784.0</ele><time>2026-05-03T12:51:14Z</time></trkpt><trkpt lat="37.04703213641784" lon="14.722998701911582"><ele>789.0</ele><time>2026-05-03T12:51:15Z</time></trkpt><trkpt lat="37.04709706745674" lon="14.72296334349013"><ele>794.0</ele><time>2026-05-03T12:51:16Z</time></trkpt><trkpt lat="37.047204117119065" lon="14.722923897948752"><ele>794.0</ele><time>2026-05-03T12:51:18Z</time></trkpt><trkpt lat="37.04730364279036" lon="14.722875404793486"><ele>794.0</ele><time>2026-05-03T12:51:20Z</time></trkpt><trkpt lat="37.047398967729734" lon="14.722836677268525"><ele>794.0</ele><time>2026-05-03T12:51:22Z</time></trkpt><trkpt lat="37.04751295704677" lon="14.7228276333942"><ele>794.0</ele><time>2026-05-03T12:51:24Z</time></trkpt><trkpt lat="37.0475816667946" lon="14.722819807791243"><ele>794.0</ele><time>2026-05-03T12:51:25Z</time></trkpt><trkpt lat="37.04765907522614" lon="14.722794475584317"><ele>795.8000000000001</ele><time>2026-05-03T12:51:27Z</time></trkpt><trkpt lat="37.04769633307676" lon="14.722722588015632"><ele>797.6</ele><time>2026-05-03T12:51:28Z</time></trkpt><trkpt lat="37.047732541198656" lon="14.722583054117491"><ele>799.4</ele><time>2026-05-03T12:51:30Z</time></trkpt><trkpt lat="37.0477152350258" lon="14.722479061079397"><ele>801.2</ele><time>2026-05-03T12:51:31Z</time></trkpt><trkpt lat="37.04771657399013" lon="14.722357257725614"><ele>803.0</ele><time>2026-05-03T12:51:33Z</time></trkpt><trkpt lat="37.047731798433375" lon="14.722181592061897"><ele>803.0</ele><time>2026-05-03T12:51:34.999Z</time></trkpt><trkpt lat="37.047737660471384" lon="14.722101960271711"><ele>803.0</ele><time>2026-05-03T12:51:35.999Z</time></trkpt><trkpt lat="37.04776204294387" lon="14.721962622142268"><ele>803.0</ele><time>2026-05-03T12:51:37.999Z</time></trkpt><trkpt lat="37.04780718909611" lon="14.721834777666164"><ele>803.0</ele><time>2026-05-03T12:51:40.999Z</time></trkpt><trkpt lat="37.047851859529274" lon="14.721765820453502"><ele>803.0</ele><time>2026-05-03T12:51:42.999Z</time></trkpt><trkpt lat="37.047909726931344" lon="14.72167835750848"><ele>798.2</ele><time>2026-05-03T12:51:44.999Z</time></trkpt><trkpt lat="37.04797890436369" lon="14.721622957783858"><ele>793.4</ele><time>2026-05-03T12:51:46.999Z</time></trkpt><trkpt lat="37.04805817387156" lon="14.72155945953016"><ele>788.6</ele><time>2026-05-03T12:51:48.999Z</time></trkpt><trkpt lat="37.04811847763012" lon="14.721480070060059"><ele>783.8000000000001</ele><time>2026-05-03T12:51:50.999Z</time></trkpt><trkpt lat="37.04819078164972" lon="14.72138664592992"><ele>779.0</ele><time>2026-05-03T12:51:52.999Z</time></trkpt><trkpt lat="37.048269957965566" lon="14.721112328030252"><ele>777.4000000000001</ele><time>2026-05-03T12:51:53.999Z</time></trkpt><trkpt lat="37.048298421923384" lon="14.72101504815027"><ele>775.8</ele><time>2026-05-03T12:51:56.999Z</time></trkpt><trkpt lat="37.04841682237929" lon="14.720865881362919"><ele>774.2</ele><time>2026-05-03T12:52:02.999Z</time></trkpt><trkpt lat="37.04846216035552" lon="14.720742647693278"><ele>772.5999999999999</ele><time>2026-05-03T12:52:04.999Z</time></trkpt><trkpt lat="37.04850464399222" lon="14.720679096659497"><ele>771.0</ele><time>2026-05-03T12:52:06.999Z</time></trkpt><trkpt lat="37.048524275054284" lon="14.720594238199553"><ele>771.0</ele><time>2026-05-03T12:52:08.999Z</time></trkpt><trkpt lat="37.048575222235556" lon="14.720499462948965"><ele>771.0</ele><time>2026-05-03T12:52:11.999Z</time></trkpt><trkpt lat="37.04859506565949" lon="14.720421740888874"><ele>771.0</ele><time>2026-05-03T12:52:13.999Z</time></trkpt><trkpt lat="37.04861139429585" lon="14.720323465754898"><ele>771.0</ele><time>2026-05-03T12:52:16.999Z</time></trkpt><trkpt lat="37.048652025688725" lon="14.720239765525267"><ele>771.0</ele><time>2026-05-03T12:52:19.999Z</time></trkpt><trkpt lat="37.04865999952936" lon="14.720141679842722"><ele>771.0</ele><time>2026-05-03T12:52:23.999Z</time></trkpt><trkpt lat="37.04865578662929" lon="14.720054430973251"><ele>758.0</ele><time>2026-05-03T12:52:27.999Z</time></trkpt><trkpt lat="37.04866651308105" lon="14.71994561841671"><ele>745.0</ele><time>2026-05-03T12:52:31.999Z</time></trkpt><trkpt lat="37.04874859860437" lon="14.719337919209297"><ele>738.8</ele><time>2026-05-03T12:52:33.999Z</time></trkpt><trkpt lat="37.04878628641278" lon="14.719235177539323"><ele>732.6</ele><time>2026-05-03T12:52:36.999Z</time></trkpt><trkpt lat="37.04882294408144" lon="14.719105755974695"><ele>726.4000000000001</ele><time>2026-05-03T12:52:41.999Z</time></trkpt><trkpt lat="37.04887104349793" lon="14.719012570523642"><ele>720.2</ele><time>2026-05-03T12:52:43.999Z</time></trkpt><trkpt lat="37.04893384749655" lon="14.718892797455716"><ele>714.0</ele><time>2026-05-03T12:52:48.999Z</time></trkpt><trkpt lat="37.04894666285839" lon="14.718795858192756"><ele>714.0</ele><time>2026-05-03T12:52:50.999Z</time></trkpt><trkpt lat="37.048948597213766" lon="14.718670865508976"><ele>714.0</ele><time>2026-05-03T12:52:53.999Z</time></trkpt><trkpt lat="37.048888070926296" lon="14.718551277083712"><ele>714.0</ele><time>2026-05-03T12:52:56.999Z</time></trkpt><trkpt lat="37.04890101453426" lon="14.718443261380349"><ele>714.0</ele><time>2026-05-03T12:53:25Z</time></trkpt><trkpt lat="37.04894885972836" lon="14.718328383576697"><ele>714.0</ele><time>2026-05-03T12:53:28Z</time></trkpt><trkpt lat="37.04895035758155" lon="14.718245214277085"><ele>709.6666666666666</ele><time>2026-05-03T12:53:30Z</time></trkpt><trkpt lat="37.04893048921761" lon="14.718169094927147"><ele>705.3333333333334</ele><time>2026-05-03T12:53:31Z</time></trkpt><trkpt lat="37.0489041976737" lon="14.718068511791213"><ele>701.0</ele><time>2026-05-03T12:53:32Z</time></trkpt><trkpt lat="37.04887242582834" lon="14.71797047302987"><ele>696.6666666666667</ele><time>2026-05-03T12:53:33Z</time></trkpt><trkpt lat="37.04886957685574" lon="14.717840426493401"><ele>692.3333333333334</ele><time>2026-05-03T12:53:35Z</time></trkpt><trkpt lat="37.04886482410552" lon="14.71771130753292"><ele>688.0</ele><time>2026-05-03T12:53:37Z</time></trkpt><trkpt lat="37.0488619527384" lon="14.717631513700287"><ele>685.8333333333334</ele><time>2026-05-03T12:53:37.999Z</time></trkpt><trkpt lat="37.04889330240922" lon="14.717555794831634"><ele>683.6666666666667</ele><time>2026-05-03T12:53:38.999Z</time></trkpt><trkpt lat="37.04891526170102" lon="14.717473456769946"><ele>681.5</ele><time>2026-05-03T12:53:39.999Z</time></trkpt><trkpt lat="37.048918603236295" lon="14.717373123321597"><ele>679.3333333333334</ele><time>2026-05-03T12:53:40.999Z</time></trkpt><trkpt lat="37.048900865819505" lon="14.71727366303735"><ele>677.1666666666666</ele><time>2026-05-03T12:53:41.999Z</time></trkpt><trkpt lat="37.048889202276065" lon="14.717158471290286"><ele>675.0</ele><time>2026-05-03T12:53:43.999Z</time></trkpt><trkpt lat="37.04886555526185" lon="14.717072007409895"><ele>675.0</ele><time>2026-05-03T12:53:45.999Z</time></trkpt><trkpt lat="37.04886682306302" lon="14.716976311716142"><ele>675.0</ele><time>2026-05-03T12:53:47.999Z</time></trkpt><trkpt lat="37.04890419191624" lon="14.71689269911768"><ele>675.0</ele><time>2026-05-03T12:53:49.999Z</time></trkpt><trkpt lat="37.048875681748726" lon="14.716815060712866"><ele>675.0</ele><time>2026-05-03T12:53:52.999Z</time></trkpt><trkpt lat="37.048789537341946" lon="14.716783579859827"><ele>675.0</ele><time>2026-05-03T12:53:54.999Z</time></trkpt><trkpt lat="37.04877397076109" lon="14.71670289124041"><ele>675.0</ele><time>2026-05-03T12:53:57.999Z</time></trkpt><trkpt lat="37.04878108366741" lon="14.716611055671157"><ele>673.5</ele><time>2026-05-03T12:54:04.999Z</time></trkpt><trkpt lat="37.04878178175505" lon="14.71652256742108"><ele>672.0</ele><time>2026-05-03T12:54:07.999Z</time></trkpt><trkpt lat="37.04871800049132" lon="14.716434550062836"><ele>670.5</ele><time>2026-05-03T12:54:09.999Z</time></trkpt><trkpt lat="37.04868132659378" lon="14.716366835169438"><ele>669.0</ele><time>2026-05-03T12:54:10.999Z</time></trkpt><trkpt lat="37.048643219130284" lon="14.716235991595564"><ele>667.5</ele><time>2026-05-03T12:54:12.999Z</time></trkpt><trkpt lat="37.04869394400773" lon="14.716165260532671"><ele>666.0</ele><time>2026-05-03T12:54:14.999Z</time></trkpt><trkpt lat="37.04862382705295" lon="14.716053295444839"><ele>664.5</ele><time>2026-05-03T12:54:16.999Z</time></trkpt><trkpt lat="37.04858706800693" lon="14.715960633867427"><ele>663.0</ele><time>2026-05-03T12:54:17.999Z</time></trkpt><trkpt lat="37.04853412444681" lon="14.715869588895275"><ele>661.5</ele><time>2026-05-03T12:54:19.999Z</time></trkpt><trkpt lat="37.0485208235741" lon="14.71577752425262"><ele>660.0</ele><time>2026-05-03T12:54:22.999Z</time></trkpt><trkpt lat="37.04854695145705" lon="14.715702836619744"><ele>658.5</ele><time>2026-05-03T12:54:24.999Z</time></trkpt><trkpt lat="37.04843660911899" lon="14.715645398385513"><ele>657.0</ele><time>2026-05-03T12:54:26.999Z</time></trkpt><trkpt lat="37.04858705410615" lon="14.71551873023064"><ele>657.0</ele><time>2026-05-03T12:54:45.999Z</time></trkpt><trkpt lat="37.04862406493615" lon="14.715454925464808"><ele>657.0</ele><time>2026-05-03T12:56:41.999Z</time></trkpt><trkpt lat="37.04863764273465" lon="14.715353160394868"><ele>657.0</ele><time>2026-05-03T12:56:58.999Z</time></trkpt><trkpt lat="37.04865473515665" lon="14.715263731929026"><ele>657.0</ele><time>2026-05-03T13:04:41.999Z</time></trkpt><trkpt lat="37.0486951323962" lon="14.715158822942916"><ele>657.0</ele><time>2026-05-03T13:04:43.999Z</time></trkpt><trkpt lat="37.04869360754412" lon="14.715055090605828"><ele>657.0</ele><time>2026-05-03T13:04:45.999Z</time></trkpt><trkpt lat="37.04868878665085" lon="14.714900106193044"><ele>655.4000000000001</ele><time>2026-05-03T13:04:47.999Z</time></trkpt><trkpt lat="37.048688303306065" lon="14.714769547446858"><ele>653.8000000000001</ele><time>2026-05-03T13:04:49.999Z</time></trkpt><trkpt lat="37.04870857758447" lon="14.71466502897301"><ele>652.2</ele><time>2026-05-03T13:04:51.999Z</time></trkpt><trkpt lat="37.048785290420156" lon="14.714580655829113"><ele>650.6</ele><time>2026-05-03T13:04:53.999Z</time></trkpt><trkpt lat="37.048760416167234" lon="14.71446612091295"><ele>649.0</ele><time>2026-05-03T13:04:55.999Z</time></trkpt><trkpt lat="37.048773615959206" lon="14.714353848039561"><ele>647.3333333333334</ele><time>2026-05-03T13:04:58.999Z</time></trkpt><trkpt lat="37.04879774718388" lon="14.714205869951432"><ele>645.6666666666667</ele><time>2026-05-03T13:05:00.999Z</time></trkpt><trkpt lat="37.04879061495881" lon="14.71412092232876"><ele>644.0</ele><time>2026-05-03T13:05:01.999Z</time></trkpt><trkpt lat="37.04875690271536" lon="14.7140300717312"><ele>642.3333333333334</ele><time>2026-05-03T13:05:03.999Z</time></trkpt><trkpt lat="37.048755276772404" lon="14.713935391985245"><ele>640.6666666666666</ele><time>2026-05-03T13:05:18.999Z</time></trkpt><trkpt lat="37.04881901724712" lon="14.713845368703172"><ele>639.0</ele><time>2026-05-03T13:05:20.999Z</time></trkpt><trkpt lat="37.04886460393206" lon="14.713776106064516"><ele>639.0000000000001</ele><time>2026-05-03T13:05:21.999Z</time></trkpt><trkpt lat="37.04891170644321" lon="14.71369358328247"><ele>639.0</ele><time>2026-05-03T13:05:22.998Z</time></trkpt><trkpt lat="37.048922441275764" lon="14.71360434495105"><ele>639.0</ele><time>2026-05-03T13:05:23.998Z</time></trkpt><trkpt lat="37.04891835025306" lon="14.713525255677357"><ele>639.0</ele><time>2026-05-03T13:05:24.998Z</time></trkpt><trkpt lat="37.04895930058087" lon="14.713452115551036"><ele>639.0</ele><time>2026-05-03T13:05:26.998Z</time></trkpt><trkpt lat="37.0489708144939" lon="14.713352191979514"><ele>639.0000000000001</ele><time>2026-05-03T13:05:28.998Z</time></trkpt><trkpt lat="37.048930890360964" lon="14.713275203313726"><ele>639.0</ele><time>2026-05-03T13:05:30.998Z</time></trkpt><trkpt lat="37.04887657362844" lon="14.713200510291808"><ele>637.5</ele><time>2026-05-03T13:05:34Z</time></trkpt><trkpt lat="37.04884473586499" lon="14.7130094654969"><ele>636.0</ele><time>2026-05-03T13:05:36Z</time></trkpt><trkpt lat="37.04893972104317" lon="14.712927922042224"><ele>634.5</ele><time>2026-05-03T13:05:38Z</time></trkpt><trkpt lat="37.04886635480284" lon="14.712828983485544"><ele>633.0</ele><time>2026-05-03T13:05:42Z</time></trkpt><trkpt lat="37.04880658660326" lon="14.712702198597295"><ele>633.0</ele><time>2026-05-03T13:05:44Z</time></trkpt><trkpt lat="37.0487815295049" lon="14.712593980563637"><ele>633.0</ele><time>2026-05-03T13:05:45Z</time></trkpt><trkpt lat="37.048731613554395" lon="14.712528540304714"><ele>633.0</ele><time>2026-05-03T13:05:46Z</time></trkpt><trkpt lat="37.04867126408676" lon="14.712443204581723"><ele>633.0</ele><time>2026-05-03T13:05:48Z</time></trkpt><trkpt lat="37.04860836734428" lon="14.712494764101873"><ele>633.0</ele><time>2026-05-03T13:05:51Z</time></trkpt><trkpt lat="37.04851512060619" lon="14.71245459465991"><ele>633.0</ele><time>2026-05-03T13:05:53Z</time></trkpt><trkpt lat="37.04848231419042" lon="14.712322343843539"><ele>633.0</ele><time>2026-05-03T13:05:55Z</time></trkpt><trkpt lat="37.04854528143959" lon="14.712254572858411"><ele>633.0</ele><time>2026-05-03T13:05:56Z</time></trkpt><trkpt lat="37.0485672892883" lon="14.712178711711276"><ele>633.0</ele><time>2026-05-03T13:05:57Z</time></trkpt><trkpt lat="37.04851578296724" lon="14.71202124584741"><ele>633.0</ele><time>2026-05-03T13:05:59Z</time></trkpt><trkpt lat="37.04850480613531" lon="14.711939508369262"><ele>633.0</ele><time>2026-05-03T13:06:00Z</time></trkpt><trkpt lat="37.0485323576865" lon="14.711822931005203"><ele>633.0</ele><time>2026-05-03T13:06:02Z</time></trkpt><trkpt lat="37.0485126180222" lon="14.711674245633453"><ele>632.4</ele><time>2026-05-03T13:06:03.999Z</time></trkpt><trkpt lat="37.04844807073905" lon="14.71164005252722"><ele>631.8</ele><time>2026-05-03T13:06:05.999Z</time></trkpt><trkpt lat="37.04834803497456" lon="14.711553892534605"><ele>631.2</ele><time>2026-05-03T13:06:07.999Z</time></trkpt><trkpt lat="37.04835478554073" lon="14.71144732981852"><ele>630.6</ele><time>2026-05-03T13:06:11.999Z</time></trkpt><trkpt lat="37.04825629954914" lon="14.711297831628153"><ele>630.0</ele><time>2026-05-03T13:06:12.999Z</time></trkpt><trkpt lat="37.0482297720887" lon="14.71119490086609"><ele>624.6666666666666</ele><time>2026-05-03T13:06:14.999Z</time></trkpt><trkpt lat="37.04812511875563" lon="14.711141796091516"><ele>619.3333333333334</ele><time>2026-05-03T13:06:17.999Z</time></trkpt><trkpt lat="37.048063173368355" lon="14.711076609147183"><ele>614.0</ele><time>2026-05-03T13:06:19.999Z</time></trkpt><trkpt lat="37.04809006273218" lon="14.71100271284496"><ele>608.6666666666667</ele><time>2026-05-03T13:06:22.999Z</time></trkpt><trkpt lat="37.04815267067633" lon="14.711034633475744"><ele>603.3333333333334</ele><time>2026-05-03T13:06:44.999Z</time></trkpt><trkpt lat="37.048091684466115" lon="14.710983007237239"><ele>598.0</ele><time>2026-05-03T13:08:19.999Z</time></trkpt><trkpt lat="37.048061550989026" lon="14.71090705480555"><ele>598.0</ele><time>2026-05-03T13:16:30.999Z</time></trkpt><trkpt lat="37.04813246809276" lon="14.710910707271193"><ele>598.0</ele><time>2026-05-03T13:16:59.999Z</time></trkpt><trkpt lat="37.04819610979121" lon="14.710879174303605"><ele>598.0</ele><time>2026-05-03T13:17:05.999Z</time></trkpt><trkpt lat="37.04826277940084" lon="14.710822318509194"><ele>598.0</ele><time>2026-05-03T13:17:11.999Z</time></trkpt><trkpt lat="37.04833275772322" lon="14.71074165057766"><ele>598.0</ele><time>2026-05-03T13:17:15.999Z</time></trkpt><trkpt lat="37.048397956180686" lon="14.71072288344691"><ele>598.0</ele><time>2026-05-03T13:17:17.999Z</time></trkpt><trkpt lat="37.04848451613386" lon="14.710747533845998"><ele>603.0</ele><time>2026-05-03T13:17:20.999Z</time></trkpt><trkpt lat="37.04854775459054" lon="14.710766517742025"><ele>608.0</ele><time>2026-05-03T13:17:22.999Z</time></trkpt><trkpt lat="37.04865823559967" lon="14.710788190725212"><ele>613.0</ele><time>2026-05-03T13:17:24.999Z</time></trkpt><trkpt lat="37.04885201170534" lon="14.710791114767016"><ele>618.0</ele><time>2026-05-03T13:17:30.999Z</time></trkpt><trkpt lat="37.04890346268522" lon="14.710741438424623"><ele>623.0</ele><time>2026-05-03T13:17:32.999Z</time></trkpt><trkpt lat="37.04895487412782" lon="14.710668982674845"><ele>623.0</ele><time>2026-05-03T13:17:36.999Z</time></trkpt><trkpt lat="37.04896305501639" lon="14.710570963217402"><ele>623.0</ele><time>2026-05-03T13:17:38.999Z</time></trkpt><trkpt lat="37.048980492073625" lon="14.710479010795943"><ele>623.0</ele><time>2026-05-03T13:17:40.999Z</time></trkpt><trkpt lat="37.048998870872644" lon="14.710393562591232"><ele>623.0</ele><time>2026-05-03T13:17:42.999Z</time></trkpt><trkpt lat="37.04901005840937" lon="14.710294774016184"><ele>623.0</ele><time>2026-05-03T13:17:44.999Z</time></trkpt><trkpt lat="37.0490210534645" lon="14.710174237744482"><ele>623.0</ele><time>2026-05-03T13:17:47.999Z</time></trkpt><trkpt lat="37.049029939896506" lon="14.710082301579817"><ele>620.5</ele><time>2026-05-03T13:17:49.999Z</time></trkpt><trkpt lat="37.0490427143528" lon="14.709976457461229"><ele>618.0</ele><time>2026-05-03T13:17:52.998Z</time></trkpt><trkpt lat="37.04911396499293" lon="14.709928738475336"><ele>615.5</ele><time>2026-05-03T13:17:55.998Z</time></trkpt><trkpt lat="37.04916484142587" lon="14.709859246877565"><ele>613.0</ele><time>2026-05-03T13:17:57.998Z</time></trkpt><trkpt lat="37.049213375242516" lon="14.709796470763187"><ele>610.5</ele><time>2026-05-03T13:17:59.998Z</time></trkpt><trkpt lat="37.04922038352073" lon="14.709708511579773"><ele>608.0</ele><time>2026-05-03T13:18:01.998Z</time></trkpt><trkpt lat="37.049211279255985" lon="14.709604488346075"><ele>607.0</ele><time>2026-05-03T13:18:03.998Z</time></trkpt><trkpt lat="37.04920279140918" lon="14.709512265217624"><ele>606.0</ele><time>2026-05-03T13:18:06.998Z</time></trkpt><trkpt lat="37.04923739645375" lon="14.709422262123192"><ele>605.0</ele><time>2026-05-03T13:18:10Z</time></trkpt><trkpt lat="37.049250226087494" lon="14.709277311058651"><ele>604.0</ele><time>2026-05-03T13:18:13Z</time></trkpt><trkpt lat="37.04921894583718" lon="14.70914809298219"><ele>603.0</ele><time>2026-05-03T13:18:15Z</time></trkpt><trkpt lat="37.04917224580846" lon="14.7090562251919"><ele>599.6666666666666</ele><time>2026-05-03T13:18:18Z</time></trkpt><trkpt lat="37.04919373386575" lon="14.70897310986532"><ele>596.3333333333334</ele><time>2026-05-03T13:18:20Z</time></trkpt><trkpt lat="37.049246413257165" lon="14.708876995922516"><ele>593.0</ele><time>2026-05-03T13:18:22Z</time></trkpt><trkpt lat="37.04929425537642" lon="14.708794414659089"><ele>589.6666666666667</ele><time>2026-05-03T13:18:24Z</time></trkpt><trkpt lat="37.04935637217032" lon="14.708741533453512"><ele>586.3333333333334</ele><time>2026-05-03T13:18:25Z</time></trkpt><trkpt lat="37.04942390921462" lon="14.708689814905368"><ele>583.0</ele><time>2026-05-03T13:18:27Z</time></trkpt><trkpt lat="37.049418267347285" lon="14.708577634168979"><ele>579.4</ele><time>2026-05-03T13:18:30.999Z</time></trkpt><trkpt lat="37.04934893135998" lon="14.708465388952815"><ele>575.8</ele><time>2026-05-03T13:18:32.999Z</time></trkpt><trkpt lat="37.049354667393814" lon="14.708328782565829"><ele>572.2</ele><time>2026-05-03T13:18:34.999Z</time></trkpt><trkpt lat="37.04943477056218" lon="14.708295652043514"><ele>568.6</ele><time>2026-05-03T13:18:36.999Z</time></trkpt><trkpt lat="37.04951796576165" lon="14.708251347694361"><ele>565.0</ele><time>2026-05-03T13:18:38.999Z</time></trkpt><trkpt lat="37.04950468421322" lon="14.708140658112885"><ele>565.0</ele><time>2026-05-03T13:18:40.999Z</time></trkpt><trkpt lat="37.04949979886482" lon="14.708045386753474"><ele>565.0</ele><time>2026-05-03T13:18:42.999Z</time></trkpt><trkpt lat="37.049518121352556" lon="14.707967294366512"><ele>565.0</ele><time>2026-05-03T13:18:43.999Z</time></trkpt><trkpt lat="37.04955026539689" lon="14.707880019599541"><ele>565.0</ele><time>2026-05-03T13:18:44.999Z</time></trkpt><trkpt lat="37.04959129971462" lon="14.707811030326825"><ele>565.0</ele><time>2026-05-03T13:18:45.999Z</time></trkpt><trkpt lat="37.04963987565548" lon="14.707726514893043"><ele>565.0</ele><time>2026-05-03T13:18:47.999Z</time></trkpt><trkpt lat="37.049678425167734" lon="14.707631350514177"><ele>562.0</ele><time>2026-05-03T13:18:49.999Z</time></trkpt><trkpt lat="37.04970542803564" lon="14.707502800950678"><ele>559.0</ele><time>2026-05-03T13:18:51.999Z</time></trkpt><trkpt lat="37.04971364060073" lon="14.707420017163832"><ele>556.0</ele><time>2026-05-03T13:18:52.999Z</time></trkpt><trkpt lat="37.0497259978477" lon="14.70733162534827"><ele>553.0</ele><time>2026-05-03T13:18:54.999Z</time></trkpt><trkpt lat="37.04985357928773" lon="14.707270968888208"><ele>550.0</ele><time>2026-05-03T13:18:58.999Z</time></trkpt><trkpt lat="37.0501321486955" lon="14.70718682307068"><ele>548.6</ele><time>2026-05-03T13:19:04.999Z</time></trkpt><trkpt lat="37.05020372095176" lon="14.707183883485861"><ele>547.2</ele><time>2026-05-03T13:19:06.999Z</time></trkpt><trkpt lat="37.05025637506559" lon="14.707093613235974"><ele>545.8</ele><time>2026-05-03T13:19:10.999Z</time></trkpt><trkpt lat="37.05028899806793" lon="14.707020181186584"><ele>544.4</ele><time>2026-05-03T13:19:12.999Z</time></trkpt><trkpt lat="37.05043933037224" lon="14.7069669462653"><ele>543.0</ele><time>2026-05-03T13:19:15.999Z</time></trkpt><trkpt lat="37.05067103475998" lon="14.706993880567548"><ele>543.0</ele><time>2026-05-03T13:19:24.999Z</time></trkpt><trkpt lat="37.05073605667104" lon="14.706941200807835"><ele>543.0</ele><time>2026-05-03T13:19:27.999Z</time></trkpt><trkpt lat="37.0508013298104" lon="14.706901152022002"><ele>543.0</ele><time>2026-05-03T13:19:42.999Z</time></trkpt><trkpt lat="37.05084142444742" lon="14.70682388361195"><ele>543.0</ele><time>2026-05-03T13:25:28.999Z</time></trkpt><trkpt lat="37.05085260391093" lon="14.706909785123958"><ele>543.0</ele><time>2026-05-03T13:25:53.999Z</time></trkpt><trkpt lat="37.05078561116542" lon="14.706876612484178"><ele>543.0</ele><time>2026-05-03T13:25:55.999Z</time></trkpt><trkpt lat="37.05074060632638" lon="14.706779802888544"><ele>539.75</ele><time>2026-05-03T13:25:56.999Z</time></trkpt><trkpt lat="37.05066315911434" lon="14.706681843299227"><ele>536.5</ele><time>2026-05-03T13:25:57.999Z</time></trkpt><trkpt lat="37.05055952153637" lon="14.706596133529"><ele>533.25</ele><time>2026-05-03T13:25:58.999Z</time></trkpt><trkpt lat="37.05046386804107" lon="14.706497191646964"><ele>530.0</ele><time>2026-05-03T13:25:59.999Z</time></trkpt><trkpt lat="37.050386757250656" lon="14.706412924479892"><ele>530.0</ele><time>2026-05-03T13:26:00.999Z</time></trkpt><trkpt lat="37.05031458130594" lon="14.706335634405482"><ele>530.0</ele><time>2026-05-03T13:26:01.999Z</time></trkpt><trkpt lat="37.05025162562285" lon="14.70621418960347"><ele>530.0</ele><time>2026-05-03T13:26:02.999Z</time></trkpt><trkpt lat="37.05017870835265" lon="14.706070138857067"><ele>530.0</ele><time>2026-05-03T13:26:03.999Z</time></trkpt><trkpt lat="37.0501035736521" lon="14.705907629051215"><ele>529.25</ele><time>2026-05-03T13:26:04.999Z</time></trkpt><trkpt lat="37.05003252353117" lon="14.705751314987184"><ele>528.5</ele><time>2026-05-03T13:26:05.999Z</time></trkpt><trkpt lat="37.04996337458513" lon="14.705594268546239"><ele>527.75</ele><time>2026-05-03T13:26:06.999Z</time></trkpt><trkpt lat="37.04989953776172" lon="14.705443285409915"><ele>527.0</ele><time>2026-05-03T13:26:07.999Z</time></trkpt><trkpt lat="37.04983587928885" lon="14.70529453082498"><ele>523.5</ele><time>2026-05-03T13:26:08.999Z</time></trkpt><trkpt lat="37.049769116822944" lon="14.705159430614314"><ele>520.0</ele><time>2026-05-03T13:26:09.999Z</time></trkpt><trkpt lat="37.049709975542214" lon="14.705054073731903"><ele>516.5</ele><time>2026-05-03T13:26:10.999Z</time></trkpt><trkpt lat="37.04963134425031" lon="14.704956222849747"><ele>513.0</ele><time>2026-05-03T13:26:11.999Z</time></trkpt><trkpt lat="37.04950402387471" lon="14.704912890646657"><ele>513.0</ele><time>2026-05-03T13:26:12.999Z</time></trkpt><trkpt lat="37.04939666906681" lon="14.704916601588728"><ele>513.0</ele><time>2026-05-03T13:26:13.999Z</time></trkpt><trkpt lat="37.04930827286956" lon="14.704916020537784"><ele>513.0</ele><time>2026-05-03T13:26:14.999Z</time></trkpt><trkpt lat="37.049212049856266" lon="14.704958521185576"><ele>513.0</ele><time>2026-05-03T13:26:15.999Z</time></trkpt><trkpt lat="37.04910646019144" lon="14.705005437891787"><ele>513.0</ele><time>2026-05-03T13:26:16.999Z</time></trkpt><trkpt lat="37.04898642402089" lon="14.705065610317863"><ele>514.6</ele><time>2026-05-03T13:26:17.999Z</time></trkpt><trkpt lat="37.04887298980874" lon="14.705102178647696"><ele>516.1999999999999</ele><time>2026-05-03T13:26:18.999Z</time></trkpt><trkpt lat="37.04875950367915" lon="14.705107447840389"><ele>517.8</ele><time>2026-05-03T13:26:19.999Z</time></trkpt><trkpt lat="37.04867388403985" lon="14.705046264926757"><ele>519.4</ele><time>2026-05-03T13:26:20.999Z</time></trkpt><trkpt lat="37.04860974441091" lon="14.704952250345162"><ele>521.0</ele><time>2026-05-03T13:26:21.999Z</time></trkpt><trkpt lat="37.048563435859236" lon="14.70486834750206"><ele>521.0</ele><time>2026-05-03T13:26:22.999Z</time></trkpt><trkpt lat="37.04855064461812" lon="14.704757351600616"><ele>521.0</ele><time>2026-05-03T13:26:23.999Z</time></trkpt><trkpt lat="37.0485703476612" lon="14.704616618748938"><ele>521.0</ele><time>2026-05-03T13:26:24.999Z</time></trkpt><trkpt lat="37.04860511788144" lon="14.704446667222419"><ele>521.0</ele><time>2026-05-03T13:26:25.999Z</time></trkpt><trkpt lat="37.04863979387765" lon="14.704270884522519"><ele>522.4</ele><time>2026-05-03T13:26:26.999Z</time></trkpt><trkpt lat="37.04866835772506" lon="14.704134481191568"><ele>523.8</ele><time>2026-05-03T13:26:27.999Z</time></trkpt><trkpt lat="37.04869361027555" lon="14.704016101328083"><ele>525.1999999999999</ele><time>2026-05-03T13:26:28.999Z</time></trkpt><trkpt lat="37.04871620628085" lon="14.703898371854006"><ele>526.6</ele><time>2026-05-03T13:26:29.999Z</time></trkpt><trkpt lat="37.04873597520987" lon="14.703791412686998"><ele>528.0</ele><time>2026-05-03T13:26:30.999Z</time></trkpt><trkpt lat="37.04881408042516" lon="14.703693725197537"><ele>528.0</ele><time>2026-05-03T13:26:33Z</time></trkpt><trkpt lat="37.04888840164031" lon="14.703636642536008"><ele>528.0</ele><time>2026-05-03T13:26:34Z</time></trkpt><trkpt lat="37.04872786767586" lon="14.703393021180668"><ele>528.0</ele><time>2026-05-03T13:26:38Z</time></trkpt><trkpt lat="37.04857851518574" lon="14.703532609507786"><ele>528.0</ele><time>2026-05-03T13:26:39Z</time></trkpt><trkpt lat="37.04849496589084" lon="14.703575048339637"><ele>528.0</ele><time>2026-05-03T13:26:40Z</time></trkpt><trkpt lat="37.04840246783619" lon="14.70360122250568"><ele>528.0</ele><time>2026-05-03T13:26:41Z</time></trkpt><trkpt lat="37.04830680560954" lon="14.70360879747542"><ele>528.0</ele><time>2026-05-03T13:26:42Z</time></trkpt><trkpt lat="37.04820352977092" lon="14.70359729571537"><ele>528.0</ele><time>2026-05-03T13:26:43Z</time></trkpt><trkpt lat="37.04808281424613" lon="14.703590236653351"><ele>528.5</ele><time>2026-05-03T13:26:44Z</time></trkpt><trkpt lat="37.04795791592025" lon="14.703562728929445"><ele>529.0</ele><time>2026-05-03T13:26:45Z</time></trkpt><trkpt lat="37.047837512933995" lon="14.70351490296386"><ele>529.5</ele><time>2026-05-03T13:26:46Z</time></trkpt><trkpt lat="37.047734174162045" lon="14.70347708485473"><ele>530.0</ele><time>2026-05-03T13:26:47Z</time></trkpt><trkpt lat="37.04763170015325" lon="14.703433290118536"><ele>530.0</ele><time>2026-05-03T13:26:48Z</time></trkpt><trkpt lat="37.047521804833714" lon="14.70335988781305"><ele>530.0</ele><time>2026-05-03T13:26:49Z</time></trkpt><trkpt lat="37.04740359405969" lon="14.70330223845387"><ele>530.0</ele><time>2026-05-03T13:26:50Z</time></trkpt><trkpt lat="37.047282549301876" lon="14.703249441324019"><ele>530.0</ele><time>2026-05-03T13:26:51Z</time></trkpt><trkpt lat="37.04716035721177" lon="14.703199914946627"><ele>530.75</ele><time>2026-05-03T13:26:52Z</time></trkpt><trkpt lat="37.047037362326826" lon="14.703169220282426"><ele>531.5</ele><time>2026-05-03T13:26:53Z</time></trkpt><trkpt lat="37.0469348433207" lon="14.703119300774189"><ele>532.25</ele><time>2026-05-03T13:26:54Z</time></trkpt><trkpt lat="37.046827321991046" lon="14.70307146898799"><ele>533.0</ele><time>2026-05-03T13:26:55Z</time></trkpt><trkpt lat="37.04672476798162" lon="14.703026865435422"><ele>533.5</ele><time>2026-05-03T13:26:56Z</time></trkpt><trkpt lat="37.046613715755115" lon="14.702978083547563"><ele>534.0</ele><time>2026-05-03T13:26:57Z</time></trkpt><trkpt lat="37.046502249364615" lon="14.702924207849362"><ele>534.5</ele><time>2026-05-03T13:26:58Z</time></trkpt><trkpt lat="37.04640072314867" lon="14.702865021152125"><ele>535.0</ele><time>2026-05-03T13:26:59Z</time></trkpt><trkpt lat="37.04629896382344" lon="14.702799411574667"><ele>534.4</ele><time>2026-05-03T13:27:00Z</time></trkpt><trkpt lat="37.046198101470104" lon="14.702723863889416"><ele>533.8</ele><time>2026-05-03T13:27:00.999Z</time></trkpt><trkpt lat="37.04610183524436" lon="14.702635926288503"><ele>533.2</ele><time>2026-05-03T13:27:01.999Z</time></trkpt><trkpt lat="37.04603194495829" lon="14.702538850263778"><ele>532.6</ele><time>2026-05-03T13:27:02.999Z</time></trkpt><trkpt lat="37.04597674700813" lon="14.702450557903292"><ele>532.0</ele><time>2026-05-03T13:27:03.999Z</time></trkpt><trkpt lat="37.04594608999243" lon="14.70237614259114"><ele>532.0</ele><time>2026-05-03T13:27:04.999Z</time></trkpt><trkpt lat="37.04590746929718" lon="14.702285207571098"><ele>532.0</ele><time>2026-05-03T13:27:06.999Z</time></trkpt><trkpt lat="37.04587108685861" lon="14.702182977991157"><ele>532.0</ele><time>2026-05-03T13:27:08.999Z</time></trkpt><trkpt lat="37.0455166784388" lon="14.702326891358073"><ele>531.0</ele><time>2026-05-03T13:27:11.999Z</time></trkpt><trkpt lat="37.04536703567976" lon="14.702359368654111"><ele>530.0</ele><time>2026-05-03T13:27:13.999Z</time></trkpt><trkpt lat="37.04525707566074" lon="14.702428435274449"><ele>529.0</ele><time>2026-05-03T13:27:14.999Z</time></trkpt><trkpt lat="37.04515496230525" lon="14.702466829993622"><ele>528.0</ele><time>2026-05-03T13:27:15.999Z</time></trkpt><trkpt lat="37.04505874560436" lon="14.702465957808242"><ele>527.5</ele><time>2026-05-03T13:27:16.999Z</time></trkpt><trkpt lat="37.044954428438835" lon="14.70238247675463"><ele>527.0</ele><time>2026-05-03T13:27:17.999Z</time></trkpt><trkpt lat="37.04488599607975" lon="14.70224350524717"><ele>526.5</ele><time>2026-05-03T13:27:18.999Z</time></trkpt><trkpt lat="37.04479673638207" lon="14.702138586155302"><ele>526.0</ele><time>2026-05-03T13:27:19.999Z</time></trkpt><trkpt lat="37.044716379228326" lon="14.702054354155285"><ele>526.0</ele><time>2026-05-03T13:27:20.999Z</time></trkpt><trkpt lat="37.0446291644837" lon="14.70198381069274"><ele>526.0</ele><time>2026-05-03T13:27:21.999Z</time></trkpt><trkpt lat="37.044533095640766" lon="14.701911343524584"><ele>526.0</ele><time>2026-05-03T13:27:22.999Z</time></trkpt><trkpt lat="37.044434878587474" lon="14.70184745876409"><ele>526.0</ele><time>2026-05-03T13:27:23.999Z</time></trkpt><trkpt lat="37.044327169380786" lon="14.701781209547462"><ele>526.0</ele><time>2026-05-03T13:27:24.999Z</time></trkpt><trkpt lat="37.044217350560764" lon="14.701717243169629"><ele>522.1666666666667</ele><time>2026-05-03T13:27:25.999Z</time></trkpt><trkpt lat="37.04411716730834" lon="14.701658233312603"><ele>518.3333333333334</ele><time>2026-05-03T13:27:26.999Z</time></trkpt><trkpt lat="37.04402172465213" lon="14.701624611143625"><ele>514.5</ele><time>2026-05-03T13:27:27.999Z</time></trkpt><trkpt lat="37.04394412441283" lon="14.701645707086943"><ele>510.66666666666663</ele><time>2026-05-03T13:27:28.999Z</time></trkpt><trkpt lat="37.04388360615012" lon="14.701696212970777"><ele>506.8333333333333</ele><time>2026-05-03T13:27:29.999Z</time></trkpt><trkpt lat="37.043854619262774" lon="14.701798820320988"><ele>503.0</ele><time>2026-05-03T13:27:30.999Z</time></trkpt><trkpt lat="37.04381992377767" lon="14.70188596386965"><ele>503.7142857142857</ele><time>2026-05-03T13:27:31.999Z</time></trkpt><trkpt lat="37.043795813436454" lon="14.701963677835364"><ele>504.42857142857144</ele><time>2026-05-03T13:27:32.999Z</time></trkpt><trkpt lat="37.04376187874422" lon="14.702043016588608"><ele>505.14285714285717</ele><time>2026-05-03T13:27:33.999Z</time></trkpt><trkpt lat="37.04372752574984" lon="14.702126091881373"><ele>505.8571428571429</ele><time>2026-05-03T13:27:34.999Z</time></trkpt><trkpt lat="37.04369408825632" lon="14.702214874254793"><ele>506.57142857142856</ele><time>2026-05-03T13:27:35.999Z</time></trkpt><trkpt lat="37.04365355493109" lon="14.702299169595536"><ele>507.28571428571433</ele><time>2026-05-03T13:27:36.999Z</time></trkpt><trkpt lat="37.04361676046284" lon="14.702381941338112"><ele>508.0</ele><time>2026-05-03T13:27:37.999Z</time></trkpt><trkpt lat="37.04358194378855" lon="14.702468169340811"><ele>508.00000000000006</ele><time>2026-05-03T13:27:38.999Z</time></trkpt><trkpt lat="37.04355122355154" lon="14.702556245065596"><ele>508.0</ele><time>2026-05-03T13:27:39.999Z</time></trkpt><trkpt lat="37.04351769150721" lon="14.702646625918101"><ele>508.0</ele><time>2026-05-03T13:27:40.999Z</time></trkpt><trkpt lat="37.0434874856131" lon="14.702736132607859"><ele>508.0</ele><time>2026-05-03T13:27:41.999Z</time></trkpt><trkpt lat="37.04346876265537" lon="14.70282730236967"><ele>508.00000000000006</ele><time>2026-05-03T13:27:42.999Z</time></trkpt><trkpt lat="37.04344942403892" lon="14.702915059531824"><ele>508.0</ele><time>2026-05-03T13:27:43.999Z</time></trkpt><trkpt lat="37.043439721501976" lon="14.70300601822787"><ele>508.7142857142857</ele><time>2026-05-03T13:27:44.999Z</time></trkpt><trkpt lat="37.043436117895894" lon="14.703097465740857"><ele>509.42857142857144</ele><time>2026-05-03T13:27:45.999Z</time></trkpt><trkpt lat="37.04343780581808" lon="14.703177938447544"><ele>510.14285714285717</ele><time>2026-05-03T13:27:46.999Z</time></trkpt><trkpt lat="37.04344011603231" lon="14.703261984176008"><ele>510.8571428571429</ele><time>2026-05-03T13:27:47.999Z</time></trkpt><trkpt lat="37.043412428421384" lon="14.703345679625466"><ele>511.57142857142856</ele><time>2026-05-03T13:27:48.999Z</time></trkpt><trkpt lat="37.0434018430088" lon="14.703425464686692"><ele>512.2857142857143</ele><time>2026-05-03T13:27:49.999Z</time></trkpt><trkpt lat="37.043394486907125" lon="14.703525018082699"><ele>513.0</ele><time>2026-05-03T13:27:50.999Z</time></trkpt><trkpt lat="37.043346067739066" lon="14.703584838099555"><ele>513.1999999999999</ele><time>2026-05-03T13:27:51.999Z</time></trkpt><trkpt lat="37.0432659846139" lon="14.703650192643936"><ele>513.4</ele><time>2026-05-03T13:27:52.999Z</time></trkpt><trkpt lat="37.04316805249336" lon="14.703647678232509"><ele>513.5999999999999</ele><time>2026-05-03T13:27:53.999Z</time></trkpt><trkpt lat="37.04308074123227" lon="14.703638845743077"><ele>513.8</ele><time>2026-05-03T13:27:54.999Z</time></trkpt><trkpt lat="37.04296683008074" lon="14.703577505425418"><ele>514.0</ele><time>2026-05-03T13:27:55.999Z</time></trkpt><trkpt lat="37.042886502545976" lon="14.70347158716839"><ele>514.0</ele><time>2026-05-03T13:27:56.999Z</time></trkpt><trkpt lat="37.04280958774718" lon="14.703380465776592"><ele>514.0</ele><time>2026-05-03T13:27:57.999Z</time></trkpt><trkpt lat="37.042754528337966" lon="14.703268243653932"><ele>514.0</ele><time>2026-05-03T13:27:58.999Z</time></trkpt><trkpt lat="37.04268792905827" lon="14.703125707548837"><ele>514.0</ele><time>2026-05-03T13:27:59.999Z</time></trkpt><trkpt lat="37.042623704491334" lon="14.703028217794145"><ele>514.0</ele><time>2026-05-03T13:28:00.999Z</time></trkpt><trkpt lat="37.04256338527846" lon="14.702922627552399"><ele>514.0</ele><time>2026-05-03T13:28:01.999Z</time></trkpt><trkpt lat="37.04248933240753" lon="14.702821309295471"><ele>514.0</ele><time>2026-05-03T13:28:02.999Z</time></trkpt><trkpt lat="37.04240053429861" lon="14.702737293434298"><ele>514.0</ele><time>2026-05-03T13:28:03.999Z</time></trkpt><trkpt lat="37.04230126898931" lon="14.70268069320586"><ele>514.0</ele><time>2026-05-03T13:28:04.999Z</time></trkpt><trkpt lat="37.04220422012344" lon="14.702605194041288"><ele>514.0</ele><time>2026-05-03T13:28:05.999Z</time></trkpt><trkpt lat="37.042090106610665" lon="14.702536952063776"><ele>514.5</ele><time>2026-05-03T13:28:06.999Z</time></trkpt><trkpt lat="37.04197477685584" lon="14.702471366381372"><ele>515.0</ele><time>2026-05-03T13:28:07.999Z</time></trkpt><trkpt lat="37.0418615366108" lon="14.702400705961484"><ele>515.5</ele><time>2026-05-03T13:28:08.999Z</time></trkpt><trkpt lat="37.041739046531994" lon="14.702318995301455"><ele>516.0</ele><time>2026-05-03T13:28:09.999Z</time></trkpt><trkpt lat="37.041606939678786" lon="14.702222668658063"><ele>519.3333333333334</ele><time>2026-05-03T13:28:10.999Z</time></trkpt><trkpt lat="37.04148209341762" lon="14.702122170905442"><ele>522.6666666666667</ele><time>2026-05-03T13:28:11.999Z</time></trkpt><trkpt lat="37.04135705076206" lon="14.702011080153012"><ele>526.0</ele><time>2026-05-03T13:28:12.999Z</time></trkpt><trkpt lat="37.04123763332729" lon="14.701884853835214"><ele>526.0</ele><time>2026-05-03T13:28:13.999Z</time></trkpt><trkpt lat="37.0411395378201" lon="14.701744136870825"><ele>526.0</ele><time>2026-05-03T13:28:14.999Z</time></trkpt><trkpt lat="37.04103984898037" lon="14.701598617786487"><ele>526.0</ele><time>2026-05-03T13:28:15.999Z</time></trkpt><trkpt lat="37.04094704413789" lon="14.701466896744723"><ele>526.0</ele><time>2026-05-03T13:28:16.999Z</time></trkpt><trkpt lat="37.040861662213096" lon="14.701367093791529"><ele>526.0</ele><time>2026-05-03T13:28:17.999Z</time></trkpt><trkpt lat="37.04080740538782" lon="14.701288084437858"><ele>526.0</ele><time>2026-05-03T13:28:18.999Z</time></trkpt><trkpt lat="37.0407585476505" lon="14.70119862020182"><ele>526.0</ele><time>2026-05-03T13:28:20.999Z</time></trkpt><trkpt lat="37.04073308961447" lon="14.701116343111236"><ele>526.0</ele><time>2026-05-03T13:28:35.998Z</time></trkpt><trkpt lat="37.04068583281159" lon="14.700994775229232"><ele>526.0</ele><time>2026-05-03T13:28:37.998Z</time></trkpt><trkpt lat="37.040657026488184" lon="14.700903945073287"><ele>526.0</ele><time>2026-05-03T13:28:40Z</time></trkpt><trkpt lat="37.04073323631512" lon="14.700870208645549"><ele>524.6666666666667</ele><time>2026-05-03T13:28:43Z</time></trkpt><trkpt lat="37.040773550317276" lon="14.700806988073968"><ele>523.3333333333334</ele><time>2026-05-03T13:28:44Z</time></trkpt><trkpt lat="37.040815754676714" lon="14.700740803067532"><ele>522.0</ele><time>2026-05-03T13:28:45Z</time></trkpt><trkpt lat="37.040883759489624" lon="14.70063415774983"><ele>520.6666666666666</ele><time>2026-05-03T13:28:47Z</time></trkpt><trkpt lat="37.040943123218646" lon="14.700541063375265"><ele>519.3333333333333</ele><time>2026-05-03T13:28:49Z</time></trkpt><trkpt lat="37.04099121895011" lon="14.700465614933945"><ele>518.0</ele><time>2026-05-03T13:28:50Z</time></trkpt><trkpt lat="37.04104171876003" lon="14.700388025619919"><ele>517.5</ele><time>2026-05-03T13:28:51Z</time></trkpt><trkpt lat="37.04110544908927" lon="14.700290108577567"><ele>517.0</ele><time>2026-05-03T13:28:52Z</time></trkpt><trkpt lat="37.04115045545288" lon="14.700220959561186"><ele>516.5</ele><time>2026-05-03T13:28:53Z</time></trkpt><trkpt lat="37.041221009352434" lon="14.700123903358882"><ele>516.0</ele><time>2026-05-03T13:28:55Z</time></trkpt><trkpt lat="37.04127000952805" lon="14.700070145412734"><ele>515.5</ele><time>2026-05-03T13:28:56Z</time></trkpt><trkpt lat="37.04132823869945" lon="14.700010393622065"><ele>515.0</ele><time>2026-05-03T13:28:57Z</time></trkpt><trkpt lat="37.04139056647215" lon="14.69994834083272"><ele>514.3333333333333</ele><time>2026-05-03T13:28:58Z</time></trkpt><trkpt lat="37.041464615990655" lon="14.699873105170264"><ele>513.6666666666666</ele><time>2026-05-03T13:28:59Z</time></trkpt><trkpt lat="37.04153644505298" lon="14.69979583452092"><ele>513.0</ele><time>2026-05-03T13:29:00Z</time></trkpt><trkpt lat="37.04159189305767" lon="14.699736185911263"><ele>512.3333333333334</ele><time>2026-05-03T13:29:01Z</time></trkpt><trkpt lat="37.041642387670045" lon="14.69966547088978"><ele>511.6666666666667</ele><time>2026-05-03T13:29:01.999Z</time></trkpt><trkpt lat="37.041689308443175" lon="14.699594156191116"><ele>511.0</ele><time>2026-05-03T13:29:02.999Z</time></trkpt><trkpt lat="37.04173608810193" lon="14.69952181392382"><ele>509.1428571428571</ele><time>2026-05-03T13:29:03.999Z</time></trkpt><trkpt lat="37.041772973968364" lon="14.699445529929283"><ele>507.2857142857143</ele><time>2026-05-03T13:29:04.999Z</time></trkpt><trkpt lat="37.04178872153333" lon="14.699362974540971"><ele>505.42857142857144</ele><time>2026-05-03T13:29:05.999Z</time></trkpt><trkpt lat="37.04180872592362" lon="14.699286392078735"><ele>503.57142857142856</ele><time>2026-05-03T13:29:06.999Z</time></trkpt><trkpt lat="37.04184518879747" lon="14.699166403678463"><ele>501.71428571428567</ele><time>2026-05-03T13:29:08.999Z</time></trkpt><trkpt lat="37.04189394738185" lon="14.69911352856052"><ele>499.85714285714283</ele><time>2026-05-03T13:29:11.999Z</time></trkpt><trkpt lat="37.041937934930566" lon="14.699044989478246"><ele>498.0</ele><time>2026-05-03T13:29:13.999Z</time></trkpt><trkpt lat="37.041955626311825" lon="14.698951881675649"><ele>497.8333333333333</ele><time>2026-05-03T13:29:15.999Z</time></trkpt><trkpt lat="37.04200835941749" lon="14.698885209306004"><ele>497.66666666666663</ele><time>2026-05-03T13:29:18.999Z</time></trkpt><trkpt lat="37.04206096878704" lon="14.69884110181347"><ele>497.5</ele><time>2026-05-03T13:29:21.999Z</time></trkpt><trkpt lat="37.04209865019324" lon="14.698770541534014"><ele>497.3333333333333</ele><time>2026-05-03T13:29:24.999Z</time></trkpt><trkpt lat="37.04219641914203" lon="14.69872620247136"><ele>497.16666666666663</ele><time>2026-05-03T13:29:28.999Z</time></trkpt><trkpt lat="37.04223683820244" lon="14.698638387726007"><ele>497.0</ele><time>2026-05-03T13:29:30.999Z</time></trkpt><trkpt lat="37.04228152857186" lon="14.698550926156496"><ele>495.0</ele><time>2026-05-03T13:29:33.999Z</time></trkpt><trkpt lat="37.04233383091304" lon="14.698464386157884"><ele>493.00000000000006</ele><time>2026-05-03T13:29:37.999Z</time></trkpt><trkpt lat="37.042415813892156" lon="14.698362902143018"><ele>491.00000000000006</ele><time>2026-05-03T13:29:39.999Z</time></trkpt><trkpt lat="37.0424763225929" lon="14.698308041604008"><ele>489.0</ele><time>2026-05-03T13:29:40.999Z</time></trkpt><trkpt lat="37.042523418498234" lon="14.698147853489212"><ele>487.0</ele><time>2026-05-03T13:29:42.999Z</time></trkpt><trkpt lat="37.04257406139035" lon="14.698073555549389"><ele>485.50000000000006</ele><time>2026-05-03T13:29:43.999Z</time></trkpt><trkpt lat="37.042629998485786" lon="14.698029362306876"><ele>484.0</ele><time>2026-05-03T13:29:44.999Z</time></trkpt><trkpt lat="37.042736393418565" lon="14.69795548485802"><ele>482.5</ele><time>2026-05-03T13:29:46.999Z</time></trkpt><trkpt lat="37.04281007689306" lon="14.697956096252577"><ele>481.0</ele><time>2026-05-03T13:29:47.999Z</time></trkpt><trkpt lat="37.042878538627484" lon="14.697975786042571"><ele>479.50000000000006</ele><time>2026-05-03T13:29:48.999Z</time></trkpt><trkpt lat="37.042974851173284" lon="14.69804943710446"><ele>478.0</ele><time>2026-05-03T13:29:50.999Z</time></trkpt><trkpt lat="37.043032631820694" lon="14.69819898647509"><ele>478.00000000000006</ele><time>2026-05-03T13:29:52.999Z</time></trkpt><trkpt lat="37.04304971972771" lon="14.69828497071032"><ele>478.0</ele><time>2026-05-03T13:29:53.999Z</time></trkpt><trkpt lat="37.043063862195176" lon="14.698371301118526"><ele>478.0</ele><time>2026-05-03T13:29:54.999Z</time></trkpt><trkpt lat="37.04308068397835" lon="14.69844869744236"><ele>478.0</ele><time>2026-05-03T13:29:55.999Z</time></trkpt><trkpt lat="37.04310026159184" lon="14.698542019348439"><ele>478.00000000000006</ele><time>2026-05-03T13:29:56.999Z</time></trkpt><trkpt lat="37.0431047354786" lon="14.698625471946348"><ele>478.0</ele><time>2026-05-03T13:29:57.999Z</time></trkpt><trkpt lat="37.043113257496806" lon="14.698757076771988"><ele>479.0</ele><time>2026-05-03T13:29:59.999Z</time></trkpt><trkpt lat="37.04319630003942" lon="14.698748164825748"><ele>479.99999999999994</ele><time>2026-05-03T13:30:03.999Z</time></trkpt><trkpt lat="37.04325559923344" lon="14.698679379938968"><ele>480.99999999999994</ele><time>2026-05-03T13:30:04.999Z</time></trkpt><trkpt lat="37.0433237034935" lon="14.698559193273704"><ele>482.0</ele><time>2026-05-03T13:30:05.999Z</time></trkpt><trkpt lat="37.043389864583794" lon="14.698398181750363"><ele>483.0</ele><time>2026-05-03T13:30:06.999Z</time></trkpt><trkpt lat="37.043457450993394" lon="14.698248377685813"><ele>485.59999999999997</ele><time>2026-05-03T13:30:07.999Z</time></trkpt><trkpt lat="37.0435215812769" lon="14.698133699106782"><ele>488.19999999999993</ele><time>2026-05-03T13:30:08.999Z</time></trkpt><trkpt lat="37.04358177677427" lon="14.698041350191367"><ele>490.8</ele><time>2026-05-03T13:30:09.999Z</time></trkpt><trkpt lat="37.04363546446546" lon="14.69793811280846"><ele>493.4</ele><time>2026-05-03T13:30:10.999Z</time></trkpt><trkpt lat="37.04368580520873" lon="14.697839416535087"><ele>496.0</ele><time>2026-05-03T13:30:11.999Z</time></trkpt><trkpt lat="37.04378375935125" lon="14.697817540399086"><ele>496.00000000000006</ele><time>2026-05-03T13:30:13.999Z</time></trkpt><trkpt lat="37.04385126011363" lon="14.69784838564311"><ele>496.0</ele><time>2026-05-03T13:30:15.999Z</time></trkpt><trkpt lat="37.043916310519414" lon="14.697943026345168"><ele>496.0</ele><time>2026-05-03T13:30:30.998Z</time></trkpt><trkpt lat="37.043974288002325" lon="14.697990627409615"><ele>496.0</ele><time>2026-05-03T13:30:31.998Z</time></trkpt><trkpt lat="37.04404990124905" lon="14.698035455082442"><ele>496.00000000000006</ele><time>2026-05-03T13:30:33.998Z</time></trkpt><trkpt lat="37.04412722601087" lon="14.698139671937813"><ele>496.0</ele><time>2026-05-03T13:30:35.998Z</time></trkpt><trkpt lat="37.04417180643139" lon="14.698199503523028"><ele>497.6</ele><time>2026-05-03T13:30:36.998Z</time></trkpt><trkpt lat="37.044219572977745" lon="14.698298762199764"><ele>499.20000000000005</ele><time>2026-05-03T13:30:38.998Z</time></trkpt><trkpt lat="37.04427401819072" lon="14.698418562901708"><ele>500.79999999999995</ele><time>2026-05-03T13:30:40.998Z</time></trkpt><trkpt lat="37.0443237779737" lon="14.698516100310226"><ele>502.4</ele><time>2026-05-03T13:30:41.998Z</time></trkpt><trkpt lat="37.04440767834603" lon="14.69860339860727"><ele>504.0</ele><time>2026-05-03T13:30:42.998Z</time></trkpt><trkpt lat="37.04447929481398" lon="14.698620361187931"><ele>504.0</ele><time>2026-05-03T13:30:43.998Z</time></trkpt><trkpt lat="37.044567923078496" lon="14.698494888612082"><ele>504.0</ele><time>2026-05-03T13:30:46Z</time></trkpt><trkpt lat="37.04463756985825" lon="14.698392441438763"><ele>504.0</ele><time>2026-05-03T13:30:47Z</time></trkpt><trkpt lat="37.04472394746357" lon="14.698276567415316"><ele>504.0</ele><time>2026-05-03T13:30:48Z</time></trkpt><trkpt lat="37.04481670992134" lon="14.698177277428675"><ele>504.0</ele><time>2026-05-03T13:30:49Z</time></trkpt><trkpt lat="37.044899473224994" lon="14.698074616888007"><ele>504.0</ele><time>2026-05-03T13:30:50Z</time></trkpt><trkpt lat="37.04497642172183" lon="14.697996593486256"><ele>504.0</ele><time>2026-05-03T13:30:51Z</time></trkpt><trkpt lat="37.04501963933328" lon="14.697924409629314"><ele>504.0</ele><time>2026-05-03T13:30:52Z</time></trkpt><trkpt lat="37.0450495828067" lon="14.697836456668252"><ele>504.0</ele><time>2026-05-03T13:30:53Z</time></trkpt><trkpt lat="37.04507809599853" lon="14.697707862076404"><ele>503.0</ele><time>2026-05-03T13:30:54Z</time></trkpt><trkpt lat="37.04510104038895" lon="14.697539591983155"><ele>502.0</ele><time>2026-05-03T13:30:55Z</time></trkpt><trkpt lat="37.045154229156374" lon="14.697395355338342"><ele>501.0</ele><time>2026-05-03T13:30:56Z</time></trkpt><trkpt lat="37.04518277541804" lon="14.697189048468958"><ele>500.0</ele><time>2026-05-03T13:30:57Z</time></trkpt><trkpt lat="37.04520926641546" lon="14.696951134842989"><ele>498.3333333333333</ele><time>2026-05-03T13:30:58Z</time></trkpt><trkpt lat="37.04523256296779" lon="14.6967423200892"><ele>496.66666666666663</ele><time>2026-05-03T13:30:59Z</time></trkpt><trkpt lat="37.04525140845612" lon="14.696551606510237"><ele>495.0</ele><time>2026-05-03T13:31:00Z</time></trkpt><trkpt lat="37.04526353703968" lon="14.696364886049642"><ele>495.0</ele><time>2026-05-03T13:31:01Z</time></trkpt><trkpt lat="37.04525828755897" lon="14.696176839390041"><ele>495.0</ele><time>2026-05-03T13:31:02Z</time></trkpt><trkpt lat="37.04523967310621" lon="14.695976473721274"><ele>495.0</ele><time>2026-05-03T13:31:03Z</time></trkpt><trkpt lat="37.045209869022706" lon="14.695742880560953"><ele>494.66666666666663</ele><time>2026-05-03T13:31:04Z</time></trkpt><trkpt lat="37.045170097973106" lon="14.69548118150486"><ele>494.3333333333333</ele><time>2026-05-03T13:31:04.999Z</time></trkpt><trkpt lat="37.045120182149674" lon="14.695196203883267"><ele>494.0</ele><time>2026-05-03T13:31:05.999Z</time></trkpt><trkpt lat="37.04508780548403" lon="14.694901848025783"><ele>494.0</ele><time>2026-05-03T13:31:06.999Z</time></trkpt><trkpt lat="37.04507349969832" lon="14.694649763953718"><ele>494.0</ele><time>2026-05-03T13:31:07.999Z</time></trkpt><trkpt lat="37.045075964265756" lon="14.69441717881223"><ele>494.0</ele><time>2026-05-03T13:31:08.999Z</time></trkpt><trkpt lat="37.0450918213557" lon="14.694188310995566"><ele>493.3333333333333</ele><time>2026-05-03T13:31:09.999Z</time></trkpt><trkpt lat="37.04510823722813" lon="14.693962872760387"><ele>492.66666666666663</ele><time>2026-05-03T13:31:10.999Z</time></trkpt><trkpt lat="37.04509662456356" lon="14.693756433831284"><ele>492.0</ele><time>2026-05-03T13:31:11.999Z</time></trkpt><trkpt lat="37.04510655998509" lon="14.693551005109958"><ele>489.66666666666663</ele><time>2026-05-03T13:31:12.999Z</time></trkpt><trkpt lat="37.04509570544783" lon="14.693355753369868"><ele>487.3333333333333</ele><time>2026-05-03T13:31:13.999Z</time></trkpt><trkpt lat="37.04508130276794" lon="14.693167764816456"><ele>485.0</ele><time>2026-05-03T13:31:14.999Z</time></trkpt><trkpt lat="37.045064952598324" lon="14.692987704190001"><ele>485.0</ele><time>2026-05-03T13:31:15.999Z</time></trkpt><trkpt lat="37.04504533829401" lon="14.692814541607628"><ele>485.0</ele><time>2026-05-03T13:31:16.999Z</time></trkpt><trkpt lat="37.045009996009576" lon="14.692645237761754"><ele>485.0</ele><time>2026-05-03T13:31:17.999Z</time></trkpt><trkpt lat="37.04498861717173" lon="14.692483192080667"><ele>485.0</ele><time>2026-05-03T13:31:18.999Z</time></trkpt><trkpt lat="37.04495142712037" lon="14.692322050855617"><ele>482.99999999999994</ele><time>2026-05-03T13:31:19.999Z</time></trkpt><trkpt lat="37.04487820969985" lon="14.692210940596807"><ele>481.0</ele><time>2026-05-03T13:31:20.999Z</time></trkpt><trkpt lat="37.04482509991559" lon="14.69213765513797"><ele>479.0</ele><time>2026-05-03T13:31:21.999Z</time></trkpt><trkpt lat="37.04476442680322" lon="14.692078755373371"><ele>477.0</ele><time>2026-05-03T13:31:23.999Z</time></trkpt><trkpt lat="37.04479468367664" lon="14.691993632162832"><ele>474.99999999999994</ele><time>2026-05-03T13:32:07.999Z</time></trkpt><trkpt lat="37.04478976111994" lon="14.691881713029016"><ele>473.0</ele><time>2026-05-03T13:32:09.999Z</time></trkpt><trkpt lat="37.044767897193346" lon="14.691759198844625"><ele>472.14285714285717</ele><time>2026-05-03T13:32:10.999Z</time></trkpt><trkpt lat="37.044748851128844" lon="14.69167972505579"><ele>471.2857142857142</ele><time>2026-05-03T13:32:11.999Z</time></trkpt><trkpt lat="37.04474924253252" lon="14.691583008963883"><ele>470.4285714285714</ele><time>2026-05-03T13:32:15.999Z</time></trkpt><trkpt lat="37.044738633765725" lon="14.691478313944971"><ele>469.57142857142856</ele><time>2026-05-03T13:32:17.999Z</time></trkpt><trkpt lat="37.04472150779415" lon="14.691397109329934"><ele>468.71428571428567</ele><time>2026-05-03T13:32:19.999Z</time></trkpt><trkpt lat="37.04470728065849" lon="14.691292004124874"><ele>467.8571428571428</ele><time>2026-05-03T13:32:21.999Z</time></trkpt><trkpt lat="37.044687537710075" lon="14.691214665643246"><ele>466.99999999999994</ele><time>2026-05-03T13:32:23.999Z</time></trkpt><trkpt lat="37.04466677921827" lon="14.69113291486028"><ele>464.99999999999994</ele><time>2026-05-03T13:32:25.999Z</time></trkpt><trkpt lat="37.04464414503879" lon="14.69101685399116"><ele>463.0</ele><time>2026-05-03T13:32:28.999Z</time></trkpt><trkpt lat="37.04463190872987" lon="14.690926030126949"><ele>461.0</ele><time>2026-05-03T13:32:30.998Z</time></trkpt><trkpt lat="37.04461530513153" lon="14.69083691273598"><ele>459.0</ele><time>2026-05-03T13:32:32.998Z</time></trkpt><trkpt lat="37.04460575660218" lon="14.690757645695344"><ele>456.99999999999994</ele><time>2026-05-03T13:32:34.998Z</time></trkpt><trkpt lat="37.04459703789397" lon="14.690632335050585"><ele>455.0</ele><time>2026-05-03T13:32:37.998Z</time></trkpt><trkpt lat="37.04458392065347" lon="14.690508286685741"><ele>454.99999999999994</ele><time>2026-05-03T13:32:39.998Z</time></trkpt><trkpt lat="37.04457738442274" lon="14.69040575838678"><ele>455.0</ele><time>2026-05-03T13:32:41.998Z</time></trkpt><trkpt lat="37.04457319151978" lon="14.690308733879876"><ele>455.0</ele><time>2026-05-03T13:32:44.998Z</time></trkpt><trkpt lat="37.044556453531634" lon="14.690210710617933"><ele>455.0</ele><time>2026-05-03T13:32:46.998Z</time></trkpt><trkpt lat="37.044497544969765" lon="14.69011583940532"><ele>454.99999999999994</ele><time>2026-05-03T13:32:48.998Z</time></trkpt><trkpt lat="37.04451165596289" lon="14.689987456339791"><ele>455.0</ele><time>2026-05-03T13:32:51Z</time></trkpt><trkpt lat="37.044498508195076" lon="14.689848216399778"><ele>453.3333333333333</ele><time>2026-05-03T13:32:53Z</time></trkpt><trkpt lat="37.04447308699662" lon="14.689761013589543"><ele>451.66666666666663</ele><time>2026-05-03T13:32:55Z</time></trkpt><trkpt lat="37.04446932479482" lon="14.689660967454454"><ele>450.0</ele><time>2026-05-03T13:32:58Z</time></trkpt><trkpt lat="37.04444003264269" lon="14.689518009872488"><ele>448.33333333333337</ele><time>2026-05-03T13:33:00Z</time></trkpt><trkpt lat="37.04444042017532" lon="14.689424994019499"><ele>446.6666666666667</ele><time>2026-05-03T13:33:02Z</time></trkpt><trkpt lat="37.04441995205723" lon="14.689313786901124"><ele>445.0</ele><time>2026-05-03T13:33:04Z</time></trkpt><trkpt lat="37.0444103152581" lon="14.689189199829755"><ele>443.4</ele><time>2026-05-03T13:33:06.001Z</time></trkpt><trkpt lat="37.0444045932816" lon="14.68908637796329"><ele>441.8</ele><time>2026-05-03T13:33:07.001Z</time></trkpt><trkpt lat="37.04438711231974" lon="14.6889573526658"><ele>440.20000000000005</ele><time>2026-05-03T13:33:08Z</time></trkpt><trkpt lat="37.04436709146441" lon="14.68885728735724"><ele>438.6</ele><time>2026-05-03T13:33:09Z</time></trkpt><trkpt lat="37.044308567398154" lon="14.688742276383739"><ele>437.0</ele><time>2026-05-03T13:33:11Z</time></trkpt><trkpt lat="37.04429420318328" lon="14.68864577503491"><ele>435.49999999999994</ele><time>2026-05-03T13:33:13Z</time></trkpt><trkpt lat="37.04426217743528" lon="14.68856978394031"><ele>434.0</ele><time>2026-05-03T13:33:18Z</time></trkpt><trkpt lat="37.04422515614197" lon="14.688463326960932"><ele>432.5</ele><time>2026-05-03T13:33:21Z</time></trkpt><trkpt lat="37.04414846419658" lon="14.688433713037096"><ele>431.0</ele><time>2026-05-03T13:33:24Z</time></trkpt><trkpt lat="37.044102555961935" lon="14.688372632068418"><ele>429.49999999999994</ele><time>2026-05-03T13:33:28Z</time></trkpt><trkpt lat="37.04414208374439" lon="14.688281910039098"><ele>428.0</ele><time>2026-05-03T13:34:21Z</time></trkpt><trkpt lat="37.04424526982151" lon="14.68817653087679"><ele>427.99999999999994</ele><time>2026-05-03T13:34:23Z</time></trkpt><trkpt lat="37.04434345360653" lon="14.68810412475386"><ele>428.0</ele><time>2026-05-03T13:34:25Z</time></trkpt><trkpt lat="37.04436981555267" lon="14.68803034481722"><ele>428.0</ele><time>2026-05-03T13:34:28Z</time></trkpt><trkpt lat="37.04439189203595" lon="14.687937435427234"><ele>428.0</ele><time>2026-05-03T13:34:33Z</time></trkpt><trkpt lat="37.044401168799006" lon="14.687799745359913"><ele>427.99999999999994</ele><time>2026-05-03T13:34:34.999Z</time></trkpt><trkpt lat="37.04440836193017" lon="14.687717673542299"><ele>428.0</ele><time>2026-05-03T13:34:36.999Z</time></trkpt><trkpt lat="37.04447966029651" lon="14.687779025290135"><ele>428.0</ele><time>2026-05-03T13:34:41.999Z</time></trkpt><trkpt lat="37.044512572648046" lon="14.687893458748388"><ele>428.0</ele><time>2026-05-03T13:34:43.999Z</time></trkpt><trkpt lat="37.044755269733145" lon="14.687881654486329"><ele>428.0</ele><time>2026-05-03T13:34:45.999Z</time></trkpt><trkpt lat="37.0448520224873" lon="14.68787972488161"><ele>428.0</ele><time>2026-05-03T13:34:46.999Z</time></trkpt><trkpt lat="37.04495632086516" lon="14.687881417219831"><ele>426.25</ele><time>2026-05-03T13:34:47.999Z</time></trkpt><trkpt lat="37.0450665451589" lon="14.687869862444181"><ele>424.5</ele><time>2026-05-03T13:34:48.999Z</time></trkpt><trkpt lat="37.04517148306952" lon="14.687907142271644"><ele>422.75</ele><time>2026-05-03T13:34:49.999Z</time></trkpt><trkpt lat="37.0452844318322" lon="14.687928593679262"><ele>421.0</ele><time>2026-05-03T13:34:50.999Z</time></trkpt><trkpt lat="37.04541242639749" lon="14.6879249801672"><ele>421.0</ele><time>2026-05-03T13:34:51.999Z</time></trkpt><trkpt lat="37.04553864270341" lon="14.687930960882472"><ele>421.0</ele><time>2026-05-03T13:34:52.999Z</time></trkpt><trkpt lat="37.04566337344454" lon="14.687918379875153"><ele>421.0</ele><time>2026-05-03T13:34:53.999Z</time></trkpt><trkpt lat="37.04579069682476" lon="14.687890204439288"><ele>421.0</ele><time>2026-05-03T13:34:54.999Z</time></trkpt><trkpt lat="37.04591236730192" lon="14.68783833946312"><ele>417.75</ele><time>2026-05-03T13:34:55.999Z</time></trkpt><trkpt lat="37.04601485101482" lon="14.687757403414729"><ele>414.5</ele><time>2026-05-03T13:34:57.001Z</time></trkpt><trkpt lat="37.046116403093954" lon="14.687665686900486"><ele>411.25</ele><time>2026-05-03T13:34:58.001Z</time></trkpt><trkpt lat="37.04623231830677" lon="14.687592663723134"><ele>408.0</ele><time>2026-05-03T13:34:59.001Z</time></trkpt><trkpt lat="37.046349443829996" lon="14.687506731939239"><ele>408.0</ele><time>2026-05-03T13:35:00.001Z</time></trkpt><trkpt lat="37.04647846263773" lon="14.687431749090445"><ele>408.0</ele><time>2026-05-03T13:35:01.001Z</time></trkpt><trkpt lat="37.04662471865026" lon="14.687360134049"><ele>408.0</ele><time>2026-05-03T13:35:02.001Z</time></trkpt><trkpt lat="37.0467821289859" lon="14.68728843394065"><ele>405.66666666666663</ele><time>2026-05-03T13:35:03.001Z</time></trkpt><trkpt lat="37.046942435300615" lon="14.68722508149166"><ele>403.3333333333333</ele><time>2026-05-03T13:35:04.001Z</time></trkpt><trkpt lat="37.04709599968026" lon="14.687169537096908"><ele>401.0</ele><time>2026-05-03T13:35:05.001Z</time></trkpt><trkpt lat="37.04724368124941" lon="14.687120685915323"><ele>401.0</ele><time>2026-05-03T13:35:06.001Z</time></trkpt><trkpt lat="37.04738758808068" lon="14.687038505199567"><ele>401.0</ele><time>2026-05-03T13:35:07.001Z</time></trkpt><trkpt lat="37.0475327248023" lon="14.686966274066116"><ele>401.0</ele><time>2026-05-03T13:35:08.001Z</time></trkpt><trkpt lat="37.047675490111644" lon="14.686887406550378"><ele>399.5</ele><time>2026-05-03T13:35:09.001Z</time></trkpt><trkpt lat="37.047812412027874" lon="14.686801081790982"><ele>398.0</ele><time>2026-05-03T13:35:10.001Z</time></trkpt><trkpt lat="37.0479396581927" lon="14.686715882450017"><ele>396.5</ele><time>2026-05-03T13:35:11.001Z</time></trkpt><trkpt lat="37.048067005938236" lon="14.686625508452122"><ele>395.0</ele><time>2026-05-03T13:35:12Z</time></trkpt><trkpt lat="37.04820413776893" lon="14.686554356509669"><ele>394.75</ele><time>2026-05-03T13:35:13Z</time></trkpt><trkpt lat="37.0483338090013" lon="14.68648118662401"><ele>394.5</ele><time>2026-05-03T13:35:14Z</time></trkpt><trkpt lat="37.04847175515284" lon="14.686417989425802"><ele>394.25</ele><time>2026-05-03T13:35:15Z</time></trkpt><trkpt lat="37.04861251074493" lon="14.686336283976019"><ele>394.0</ele><time>2026-05-03T13:35:16Z</time></trkpt><trkpt lat="37.04876506108501" lon="14.686290951802619"><ele>394.0</ele><time>2026-05-03T13:35:17Z</time></trkpt><trkpt lat="37.04890567974533" lon="14.686208679410726"><ele>394.0</ele><time>2026-05-03T13:35:18Z</time></trkpt><trkpt lat="37.049050249714924" lon="14.686150721352924"><ele>394.0</ele><time>2026-05-03T13:35:19Z</time></trkpt><trkpt lat="37.049195743936515" lon="14.686092262276015"><ele>393.5</ele><time>2026-05-03T13:35:20Z</time></trkpt><trkpt lat="37.049336717345184" lon="14.686036084751002"><ele>393.0</ele><time>2026-05-03T13:35:21Z</time></trkpt><trkpt lat="37.049450472061075" lon="14.685991822567853"><ele>392.5</ele><time>2026-05-03T13:35:22Z</time></trkpt><trkpt lat="37.04955773813566" lon="14.685947547362373"><ele>392.0</ele><time>2026-05-03T13:35:23Z</time></trkpt><trkpt lat="37.04966533392323" lon="14.685930854858134"><ele>392.0</ele><time>2026-05-03T13:35:24Z</time></trkpt><trkpt lat="37.049770697154486" lon="14.685892860769952"><ele>392.0</ele><time>2026-05-03T13:35:25Z</time></trkpt><trkpt lat="37.04987227000277" lon="14.68590046506281"><ele>392.0</ele><time>2026-05-03T13:35:26Z</time></trkpt><trkpt lat="37.04996725002329" lon="14.685930959020478"><ele>392.0</ele><time>2026-05-03T13:35:27Z</time></trkpt><trkpt lat="37.05005040313457" lon="14.68595929660562"><ele>392.0</ele><time>2026-05-03T13:35:28Z</time></trkpt><trkpt lat="37.05013896487947" lon="14.685982995545254"><ele>391.8</ele><time>2026-05-03T13:35:29Z</time></trkpt><trkpt lat="37.05023257078353" lon="14.686009051930103"><ele>391.6</ele><time>2026-05-03T13:35:30Z</time></trkpt><trkpt lat="37.05032505086134" lon="14.686024471156703"><ele>391.40000000000003</ele><time>2026-05-03T13:35:31Z</time></trkpt><trkpt lat="37.05040993070973" lon="14.6860210763993"><ele>391.20000000000005</ele><time>2026-05-03T13:35:32Z</time></trkpt><trkpt lat="37.0504967898392" lon="14.685997692845758"><ele>391.0</ele><time>2026-05-03T13:35:33Z</time></trkpt><trkpt lat="37.050595347457744" lon="14.685976613487947"><ele>391.0</ele><time>2026-05-03T13:35:34Z</time></trkpt><trkpt lat="37.05069274169903" lon="14.68593941610399"><ele>391.0</ele><time>2026-05-03T13:35:35Z</time></trkpt><trkpt lat="37.050800362022436" lon="14.68590091563736"><ele>391.0</ele><time>2026-05-03T13:35:36Z</time></trkpt><trkpt lat="37.05091424800204" lon="14.68587143766358"><ele>391.0</ele><time>2026-05-03T13:35:37Z</time></trkpt><trkpt lat="37.05104073487924" lon="14.685852553706011"><ele>391.6</ele><time>2026-05-03T13:35:38Z</time></trkpt><trkpt lat="37.05115696867912" lon="14.68585470252673"><ele>392.20000000000005</ele><time>2026-05-03T13:35:39Z</time></trkpt><trkpt lat="37.051265979597865" lon="14.685873905536667"><ele>392.79999999999995</ele><time>2026-05-03T13:35:40Z</time></trkpt><trkpt lat="37.051378697924626" lon="14.685877353710497"><ele>393.4</ele><time>2026-05-03T13:35:41Z</time></trkpt><trkpt lat="37.05148190251754" lon="14.685907386419842"><ele>394.0</ele><time>2026-05-03T13:35:42Z</time></trkpt><trkpt lat="37.051584397357935" lon="14.68592375370353"><ele>394.75</ele><time>2026-05-03T13:35:43Z</time></trkpt><trkpt lat="37.05168523915948" lon="14.685940945225664"><ele>395.5</ele><time>2026-05-03T13:35:44Z</time></trkpt><trkpt lat="37.05179331802075" lon="14.685957315343739"><ele>396.25</ele><time>2026-05-03T13:35:45Z</time></trkpt><trkpt lat="37.051911561296784" lon="14.685978967767687"><ele>397.0</ele><time>2026-05-03T13:35:46Z</time></trkpt><trkpt lat="37.05203685754789" lon="14.686004237911737"><ele>397.0</ele><time>2026-05-03T13:35:47Z</time></trkpt><trkpt lat="37.052153616598105" lon="14.686031874144128"><ele>397.0</ele><time>2026-05-03T13:35:48Z</time></trkpt><trkpt lat="37.052261561878154" lon="14.68605493146307"><ele>397.0</ele><time>2026-05-03T13:35:49Z</time></trkpt><trkpt lat="37.05236849926795" lon="14.686067857502758"><ele>397.0</ele><time>2026-05-03T13:35:50Z</time></trkpt><trkpt lat="37.05248109723282" lon="14.686096021218859"><ele>399.0</ele><time>2026-05-03T13:35:51Z</time></trkpt><trkpt lat="37.05261195284797" lon="14.686111803137914"><ele>401.0</ele><time>2026-05-03T13:35:52Z</time></trkpt><trkpt lat="37.052750251572604" lon="14.686128482732123"><ele>403.0</ele><time>2026-05-03T13:35:53Z</time></trkpt><trkpt lat="37.05288321110682" lon="14.68614104850032"><ele>405.0</ele><time>2026-05-03T13:35:54Z</time></trkpt><trkpt lat="37.053021357913984" lon="14.686151104926275"><ele>405.0</ele><time>2026-05-03T13:35:55Z</time></trkpt><trkpt lat="37.05315339544024" lon="14.68616397910158"><ele>405.0</ele><time>2026-05-03T13:35:56Z</time></trkpt><trkpt lat="37.05329564861876" lon="14.686191384369597"><ele>405.0</ele><time>2026-05-03T13:35:57Z</time></trkpt><trkpt lat="37.0534402741838" lon="14.686217341601262"><ele>405.0</ele><time>2026-05-03T13:35:58Z</time></trkpt><trkpt lat="37.05358289809493" lon="14.686241758833898"><ele>405.25</ele><time>2026-05-03T13:35:59Z</time></trkpt><trkpt lat="37.053731180098104" lon="14.686272121015826"><ele>405.5</ele><time>2026-05-03T13:36:00Z</time></trkpt><trkpt lat="37.05388031695445" lon="14.686305730424849"><ele>405.75</ele><time>2026-05-03T13:36:01Z</time></trkpt><trkpt lat="37.05402426140489" lon="14.68634579640813"><ele>406.0</ele><time>2026-05-03T13:36:02Z</time></trkpt><trkpt lat="37.054172172352175" lon="14.68638179646178"><ele>406.25</ele><time>2026-05-03T13:36:03Z</time></trkpt><trkpt lat="37.054301562007964" lon="14.686405414232329"><ele>406.5</ele><time>2026-05-03T13:36:04Z</time></trkpt><trkpt lat="37.05442304901937" lon="14.686424354622007"><ele>406.75</ele><time>2026-05-03T13:36:05Z</time></trkpt><trkpt lat="37.05453703321244" lon="14.686437343465014"><ele>407.0</ele><time>2026-05-03T13:36:06Z</time></trkpt><trkpt lat="37.0546563472484" lon="14.686448633091786"><ele>407.0</ele><time>2026-05-03T13:36:07Z</time></trkpt><trkpt lat="37.05479064030374" lon="14.686462173087751"><ele>407.0</ele><time>2026-05-03T13:36:08Z</time></trkpt><trkpt lat="37.054922622542925" lon="14.68648414678933"><ele>407.0</ele><time>2026-05-03T13:36:09Z</time></trkpt><trkpt lat="37.055050789860815" lon="14.68651038318369"><ele>407.0</ele><time>2026-05-03T13:36:10Z</time></trkpt><trkpt lat="37.05519184995779" lon="14.686527054937917"><ele>406.66666666666663</ele><time>2026-05-03T13:36:11Z</time></trkpt><trkpt lat="37.05533371745487" lon="14.686533537829138"><ele>406.33333333333337</ele><time>2026-05-03T13:36:12Z</time></trkpt><trkpt lat="37.05548423868558" lon="14.686537521048106"><ele>406.0</ele><time>2026-05-03T13:36:13Z</time></trkpt><trkpt lat="37.05564501329461" lon="14.686527694952709"><ele>407.0</ele><time>2026-05-03T13:36:14Z</time></trkpt><trkpt lat="37.05580766288212" lon="14.686508036367474"><ele>408.0</ele><time>2026-05-03T13:36:15Z</time></trkpt><trkpt lat="37.05596257458231" lon="14.686489313017459"><ele>409.0</ele><time>2026-05-03T13:36:16Z</time></trkpt><trkpt lat="37.05613609323644" lon="14.686468340734542"><ele>409.0</ele><time>2026-05-03T13:36:17Z</time></trkpt><trkpt lat="37.056329656778544" lon="14.686438692206712"><ele>409.0</ele><time>2026-05-03T13:36:18Z</time></trkpt><trkpt lat="37.0565066565725" lon="14.686406480078862"><ele>409.0</ele><time>2026-05-03T13:36:19Z</time></trkpt><trkpt lat="37.05668791477452" lon="14.686363732535286"><ele>410.0</ele><time>2026-05-03T13:36:20Z</time></trkpt><trkpt lat="37.05686878060426" lon="14.686316903086674"><ele>411.0</ele><time>2026-05-03T13:36:21Z</time></trkpt><trkpt lat="37.05703859281163" lon="14.686266154832103"><ele>412.0</ele><time>2026-05-03T13:36:22Z</time></trkpt><trkpt lat="37.05719919083867" lon="14.686209218370406"><ele>412.0</ele><time>2026-05-03T13:36:23Z</time></trkpt><trkpt lat="37.05735062398758" lon="14.686154606303678"><ele>412.0</ele><time>2026-05-03T13:36:24Z</time></trkpt><trkpt lat="37.0574992797792" lon="14.686098024962565"><ele>412.0</ele><time>2026-05-03T13:36:25Z</time></trkpt><trkpt lat="37.05765139847571" lon="14.686041861071981"><ele>411.5</ele><time>2026-05-03T13:36:26Z</time></trkpt><trkpt lat="37.057797755704485" lon="14.685988788384314"><ele>411.0</ele><time>2026-05-03T13:36:27Z</time></trkpt><trkpt lat="37.05793620498296" lon="14.685953019799504"><ele>410.5</ele><time>2026-05-03T13:36:28Z</time></trkpt><trkpt lat="37.058082721700266" lon="14.68593770745283"><ele>410.0</ele><time>2026-05-03T13:36:29Z</time></trkpt><trkpt lat="37.05824045148919" lon="14.68593693172295"><ele>410.0</ele><time>2026-05-03T13:36:30Z</time></trkpt><trkpt lat="37.05839728932998" lon="14.685944039843058"><ele>410.0</ele><time>2026-05-03T13:36:31Z</time></trkpt><trkpt lat="37.058547937870735" lon="14.685933807514372"><ele>410.0</ele><time>2026-05-03T13:36:32Z</time></trkpt><trkpt lat="37.05868938217467" lon="14.685908924737042"><ele>410.0</ele><time>2026-05-03T13:36:33Z</time></trkpt><trkpt lat="37.058818802307904" lon="14.685873758470308"><ele>410.0</ele><time>2026-05-03T13:36:34Z</time></trkpt><trkpt lat="37.05891541757299" lon="14.685889787483063"><ele>410.0</ele><time>2026-05-03T13:36:35Z</time></trkpt><trkpt lat="37.05904044606544" lon="14.68591538163874"><ele>410.0</ele><time>2026-05-03T13:36:36Z</time></trkpt><trkpt lat="37.05914935322828" lon="14.685939857767623"><ele>409.8571428571429</ele><time>2026-05-03T13:36:36.999Z</time></trkpt><trkpt lat="37.059233161815186" lon="14.685959055793534"><ele>409.71428571428567</ele><time>2026-05-03T13:36:37.999Z</time></trkpt><trkpt lat="37.05930722452118" lon="14.68597737135775"><ele>409.57142857142856</ele><time>2026-05-03T13:36:38.999Z</time></trkpt><trkpt lat="37.0593703938486" lon="14.685993461883715"><ele>409.42857142857144</ele><time>2026-05-03T13:36:39.999Z</time></trkpt><trkpt lat="37.05944052081336" lon="14.686015874253583"><ele>409.28571428571433</ele><time>2026-05-03T13:36:40.999Z</time></trkpt><trkpt lat="37.059508243408914" lon="14.68602360016118"><ele>409.1428571428571</ele><time>2026-05-03T13:36:41.999Z</time></trkpt><trkpt lat="37.05958717339789" lon="14.686052276078144"><ele>409.0</ele><time>2026-05-03T13:36:42.999Z</time></trkpt><trkpt lat="37.059674314975936" lon="14.686090075757157"><ele>409.75</ele><time>2026-05-03T13:36:43.999Z</time></trkpt><trkpt lat="37.059806651569595" lon="14.686141727266197"><ele>410.5</ele><time>2026-05-03T13:36:44.999Z</time></trkpt><trkpt lat="37.05993557386816" lon="14.686193374569825"><ele>411.25</ele><time>2026-05-03T13:36:45.999Z</time></trkpt><trkpt lat="37.06006589111035" lon="14.686238958808598"><ele>412.0</ele><time>2026-05-03T13:36:46.999Z</time></trkpt><trkpt lat="37.060225662641734" lon="14.686291188558993"><ele>412.33333333333337</ele><time>2026-05-03T13:36:47.999Z</time></trkpt><trkpt lat="37.06039303471094" lon="14.686360517689549"><ele>412.66666666666663</ele><time>2026-05-03T13:36:48.999Z</time></trkpt><trkpt lat="37.060571216442774" lon="14.686402369795063"><ele>413.0</ele><time>2026-05-03T13:36:49.999Z</time></trkpt><trkpt lat="37.060776619876094" lon="14.686428387042062"><ele>414.0</ele><time>2026-05-03T13:36:50.999Z</time></trkpt><trkpt lat="37.06097169985935" lon="14.686471920572876"><ele>415.0</ele><time>2026-05-03T13:36:51.999Z</time></trkpt><trkpt lat="37.061193415940906" lon="14.686512631506169"><ele>416.0</ele><time>2026-05-03T13:36:52.999Z</time></trkpt><trkpt lat="37.06140143834362" lon="14.686535046184026"><ele>416.0</ele><time>2026-05-03T13:36:53.999Z</time></trkpt><trkpt lat="37.06159124698475" lon="14.686530671902169"><ele>416.0</ele><time>2026-05-03T13:36:54.999Z</time></trkpt><trkpt lat="37.06171873279305" lon="14.686506087008162"><ele>416.0</ele><time>2026-05-03T13:36:55.999Z</time></trkpt><trkpt lat="37.061864361179396" lon="14.686483459471523"><ele>416.66666666666663</ele><time>2026-05-03T13:36:56.999Z</time></trkpt><trkpt lat="37.06202429984079" lon="14.686461515077228"><ele>417.33333333333337</ele><time>2026-05-03T13:36:57.999Z</time></trkpt><trkpt lat="37.06218552426145" lon="14.68644423319518"><ele>418.0</ele><time>2026-05-03T13:36:58.999Z</time></trkpt><trkpt lat="37.06234766094691" lon="14.686422226111482"><ele>419.25</ele><time>2026-05-03T13:36:59.999Z</time></trkpt><trkpt lat="37.062506761239575" lon="14.686400631494754"><ele>420.5</ele><time>2026-05-03T13:37:00.999Z</time></trkpt><trkpt lat="37.06264955171423" lon="14.686381250602524"><ele>421.75</ele><time>2026-05-03T13:37:01.999Z</time></trkpt><trkpt lat="37.06279411188586" lon="14.686361629510172"><ele>423.0</ele><time>2026-05-03T13:37:03Z</time></trkpt><trkpt lat="37.06291244331644" lon="14.68627146281232"><ele>423.0</ele><time>2026-05-03T13:37:04Z</time></trkpt><trkpt lat="37.06299970903515" lon="14.686249483158296"><ele>423.0</ele><time>2026-05-03T13:37:05Z</time></trkpt><trkpt lat="37.06307681347449" lon="14.686225207794857"><ele>423.0</ele><time>2026-05-03T13:37:06Z</time></trkpt><trkpt lat="37.06313786366084" lon="14.686200963541737"><ele>423.0</ele><time>2026-05-03T13:37:07Z</time></trkpt><trkpt lat="37.06320528482622" lon="14.686188482661716"><ele>423.0</ele><time>2026-05-03T13:37:08Z</time></trkpt><trkpt lat="37.063278850140875" lon="14.686207040679944"><ele>423.0</ele><time>2026-05-03T13:37:09Z</time></trkpt><trkpt lat="37.0633446029557" lon="14.686244173734629"><ele>423.0</ele><time>2026-05-03T13:37:10Z</time></trkpt><trkpt lat="37.063422259889386" lon="14.686288687821753"><ele>424.0</ele><time>2026-05-03T13:37:11Z</time></trkpt><trkpt lat="37.06351762750701" lon="14.68634868771782"><ele>425.0</ele><time>2026-05-03T13:37:12Z</time></trkpt><trkpt lat="37.06361184623624" lon="14.68644337988001"><ele>426.0</ele><time>2026-05-03T13:37:13Z</time></trkpt><trkpt lat="37.06370737076282" lon="14.68651861312645"><ele>427.0</ele><time>2026-05-03T13:37:14Z</time></trkpt><trkpt lat="37.06382451452686" lon="14.686579738984909"><ele>427.0</ele><time>2026-05-03T13:37:15Z</time></trkpt><trkpt lat="37.06395317725625" lon="14.686646890721228"><ele>427.0</ele><time>2026-05-03T13:37:16Z</time></trkpt><trkpt lat="37.064092545815065" lon="14.686726342488708"><ele>427.0</ele><time>2026-05-03T13:37:17Z</time></trkpt><trkpt lat="37.064217738512944" lon="14.686814446401339"><ele>427.0</ele><time>2026-05-03T13:37:18Z</time></trkpt><trkpt lat="37.064343111607" lon="14.6868840050037"><ele>428.5</ele><time>2026-05-03T13:37:19Z</time></trkpt><trkpt lat="37.06446972437857" lon="14.68693758000464"><ele>430.0</ele><time>2026-05-03T13:37:20Z</time></trkpt><trkpt lat="37.06458962960387" lon="14.686977786641958"><ele>431.5</ele><time>2026-05-03T13:37:21Z</time></trkpt><trkpt lat="37.06471937162952" lon="14.687023799287681"><ele>433.0</ele><time>2026-05-03T13:37:22Z</time></trkpt><trkpt lat="37.064856500077134" lon="14.687085371426956"><ele>434.25</ele><time>2026-05-03T13:37:23Z</time></trkpt><trkpt lat="37.06498907406035" lon="14.687149810650155"><ele>435.5</ele><time>2026-05-03T13:37:24Z</time></trkpt><trkpt lat="37.06511373320166" lon="14.687224973618772"><ele>436.75</ele><time>2026-05-03T13:37:25Z</time></trkpt><trkpt lat="37.065231299855846" lon="14.68732359855309"><ele>438.0</ele><time>2026-05-03T13:37:26Z</time></trkpt><trkpt lat="37.06534960335577" lon="14.687407914197218"><ele>438.0</ele><time>2026-05-03T13:37:27Z</time></trkpt><trkpt lat="37.06547975868903" lon="14.687468231374542"><ele>438.0</ele><time>2026-05-03T13:37:28Z</time></trkpt><trkpt lat="37.065606884101506" lon="14.687522548432936"><ele>438.0</ele><time>2026-05-03T13:37:29Z</time></trkpt><trkpt lat="37.06571814577334" lon="14.687576215676769"><ele>438.0</ele><time>2026-05-03T13:37:30Z</time></trkpt><trkpt lat="37.06580735751755" lon="14.687611821285367"><ele>439.0</ele><time>2026-05-03T13:37:31Z</time></trkpt><trkpt lat="37.06587907874475" lon="14.687606221406552"><ele>439.99999999999994</ele><time>2026-05-03T13:37:32Z</time></trkpt><trkpt lat="37.06595205194778" lon="14.687542361292847"><ele>440.99999999999994</ele><time>2026-05-03T13:37:33Z</time></trkpt><trkpt lat="37.06603777881196" lon="14.687470865744706"><ele>442.0</ele><time>2026-05-03T13:37:34Z</time></trkpt><trkpt lat="37.06615396584293" lon="14.687411756903588"><ele>443.0</ele><time>2026-05-03T13:37:35Z</time></trkpt><trkpt lat="37.06626774734747" lon="14.687382104298722"><ele>443.0</ele><time>2026-05-03T13:37:36Z</time></trkpt><trkpt lat="37.06637174530681" lon="14.687337799877927"><ele>442.99999999999994</ele><time>2026-05-03T13:37:37Z</time></trkpt><trkpt lat="37.06647497728982" lon="14.6872918709774"><ele>442.99999999999994</ele><time>2026-05-03T13:37:38Z</time></trkpt><trkpt lat="37.06658699005789" lon="14.687265444569093"><ele>443.0</ele><time>2026-05-03T13:37:39Z</time></trkpt><trkpt lat="37.06668957818808" lon="14.687253154085957"><ele>443.0</ele><time>2026-05-03T13:37:40Z</time></trkpt><trkpt lat="37.06678959305696" lon="14.687245118398765"><ele>444.0</ele><time>2026-05-03T13:37:41Z</time></trkpt><trkpt lat="37.06688780513969" lon="14.687227154860445"><ele>444.99999999999994</ele><time>2026-05-03T13:37:42Z</time></trkpt><trkpt lat="37.06696913589076" lon="14.687211893969002"><ele>445.99999999999994</ele><time>2026-05-03T13:37:43Z</time></trkpt><trkpt lat="37.067074443611936" lon="14.687214776503966"><ele>447.0</ele><time>2026-05-03T13:37:44Z</time></trkpt><trkpt lat="37.06717759951986" lon="14.687193334403148"><ele>448.0</ele><time>2026-05-03T13:37:45Z</time></trkpt><trkpt lat="37.06728246250499" lon="14.687164666777173"><ele>448.0</ele><time>2026-05-03T13:37:46Z</time></trkpt><trkpt lat="37.067374908452884" lon="14.68713164935568"><ele>447.99999999999994</ele><time>2026-05-03T13:37:47Z</time></trkpt><trkpt lat="37.06747499700673" lon="14.687096058784785"><ele>447.99999999999994</ele><time>2026-05-03T13:37:48Z</time></trkpt><trkpt lat="37.06758403517206" lon="14.687095135591779"><ele>448.0</ele><time>2026-05-03T13:37:49Z</time></trkpt><trkpt lat="37.067692896199844" lon="14.687115745041359"><ele>448.0</ele><time>2026-05-03T13:37:50Z</time></trkpt><trkpt lat="37.067804141453415" lon="14.687125089595318"><ele>448.59999999999997</ele><time>2026-05-03T13:37:51Z</time></trkpt><trkpt lat="37.06790387070213" lon="14.687106312392423"><ele>449.19999999999993</ele><time>2026-05-03T13:37:52Z</time></trkpt><trkpt lat="37.06800021665072" lon="14.687073229366744"><ele>449.8</ele><time>2026-05-03T13:37:53Z</time></trkpt><trkpt lat="37.068103214704074" lon="14.687061877629324"><ele>450.4</ele><time>2026-05-03T13:37:54Z</time></trkpt><trkpt lat="37.06820050619601" lon="14.687060663272822"><ele>451.0</ele><time>2026-05-03T13:37:55Z</time></trkpt><trkpt lat="37.06829560409316" lon="14.687014383915162"><ele>451.8</ele><time>2026-05-03T13:37:56Z</time></trkpt><trkpt lat="37.06835196024679" lon="14.68696020505076"><ele>452.6</ele><time>2026-05-03T13:37:57Z</time></trkpt><trkpt lat="37.068422158166264" lon="14.686919667811479"><ele>453.4</ele><time>2026-05-03T13:37:58Z</time></trkpt><trkpt lat="37.06851560136559" lon="14.686905216382689"><ele>454.2</ele><time>2026-05-03T13:37:59Z</time></trkpt><trkpt lat="37.06862539347283" lon="14.686915828960313"><ele>455.0</ele><time>2026-05-03T13:38:00Z</time></trkpt><trkpt lat="37.06873530907301" lon="14.686912728429162"><ele>454.5</ele><time>2026-05-03T13:38:01Z</time></trkpt><trkpt lat="37.068828321465624" lon="14.686885804517889"><ele>454.0</ele><time>2026-05-03T13:38:02Z</time></trkpt><trkpt lat="37.06894639229165" lon="14.686852621158401"><ele>453.5</ele><time>2026-05-03T13:38:03Z</time></trkpt><trkpt lat="37.0690665079896" lon="14.686852118673878"><ele>453.0</ele><time>2026-05-03T13:38:04Z</time></trkpt><trkpt lat="37.0691995447626" lon="14.686869831147337"><ele>453.0</ele><time>2026-05-03T13:38:05Z</time></trkpt><trkpt lat="37.06931833076053" lon="14.686888230081497"><ele>452.99999999999994</ele><time>2026-05-03T13:38:06Z</time></trkpt><trkpt lat="37.0694364349339" lon="14.686883895864991"><ele>452.99999999999994</ele><time>2026-05-03T13:38:07Z</time></trkpt><trkpt lat="37.0695389923029" lon="14.686849230531468"><ele>453.0</ele><time>2026-05-03T13:38:08Z</time></trkpt><trkpt lat="37.06961342743699" lon="14.68681470898576"><ele>453.0</ele><time>2026-05-03T13:38:09Z</time></trkpt><trkpt lat="37.069677734741354" lon="14.686795008764951"><ele>453.0</ele><time>2026-05-03T13:38:10Z</time></trkpt><trkpt lat="37.069741271445054" lon="14.686765507237398"><ele>453.0</ele><time>2026-05-03T13:38:11Z</time></trkpt><trkpt lat="37.06981282782848" lon="14.686734908451648"><ele>453.0</ele><time>2026-05-03T13:38:12Z</time></trkpt><trkpt lat="37.06989583373904" lon="14.686710723365232"><ele>453.0</ele><time>2026-05-03T13:38:13Z</time></trkpt><trkpt lat="37.069973159657344" lon="14.686680123797023"><ele>453.0</ele><time>2026-05-03T13:38:14Z</time></trkpt><trkpt lat="37.0700494317645" lon="14.68664736967159"><ele>453.0</ele><time>2026-05-03T13:38:15Z</time></trkpt><trkpt lat="37.07011849701416" lon="14.686631980320577"><ele>453.6666666666667</ele><time>2026-05-03T13:38:16Z</time></trkpt><trkpt lat="37.07019090235922" lon="14.686638421231168"><ele>454.33333333333337</ele><time>2026-05-03T13:38:17Z</time></trkpt><trkpt lat="37.07026648195858" lon="14.686655667149658"><ele>455.0</ele><time>2026-05-03T13:38:18Z</time></trkpt><trkpt lat="37.07034917005961" lon="14.686671572559705"><ele>455.6666666666667</ele><time>2026-05-03T13:38:19Z</time></trkpt><trkpt lat="37.0704347501769" lon="14.686684446074967"><ele>456.33333333333337</ele><time>2026-05-03T13:38:20Z</time></trkpt><trkpt lat="37.0705129029636" lon="14.686710037413322"><ele>457.0</ele><time>2026-05-03T13:38:21Z</time></trkpt><trkpt lat="37.07058644354647" lon="14.686727393792534"><ele>457.00000000000006</ele><time>2026-05-03T13:38:22Z</time></trkpt><trkpt lat="37.07066490452524" lon="14.686738647934304"><ele>457.0</ele><time>2026-05-03T13:38:23Z</time></trkpt><trkpt lat="37.07075713636155" lon="14.686754605517564"><ele>457.0</ele><time>2026-05-03T13:38:24Z</time></trkpt><trkpt lat="37.070846344956834" lon="14.686773002925655"><ele>457.0</ele><time>2026-05-03T13:38:25Z</time></trkpt><trkpt lat="37.07092406855576" lon="14.686770664337232"><ele>457.00000000000006</ele><time>2026-05-03T13:38:26Z</time></trkpt><trkpt lat="37.071004413861786" lon="14.686782365607483"><ele>457.0</ele><time>2026-05-03T13:38:27Z</time></trkpt><trkpt lat="37.071088183010495" lon="14.686794608236893"><ele>457.6666666666667</ele><time>2026-05-03T13:38:28Z</time></trkpt><trkpt lat="37.07115680184536" lon="14.686799162370402"><ele>458.33333333333337</ele><time>2026-05-03T13:38:29Z</time></trkpt><trkpt lat="37.07122616139763" lon="14.686783812798565"><ele>459.0</ele><time>2026-05-03T13:38:30Z</time></trkpt><trkpt lat="37.07131729130466" lon="14.686771261449609"><ele>459.66666666666663</ele><time>2026-05-03T13:38:31Z</time></trkpt><trkpt lat="37.07141153820401" lon="14.686760011069186"><ele>460.3333333333333</ele><time>2026-05-03T13:38:32Z</time></trkpt><trkpt lat="37.071497290452186" lon="14.686756252370417"><ele>461.0</ele><time>2026-05-03T13:38:33Z</time></trkpt><trkpt lat="37.07156024850376" lon="14.686752344141963"><ele>461.49999999999994</ele><time>2026-05-03T13:38:34Z</time></trkpt><trkpt lat="37.07162496477438" lon="14.686750919904945"><ele>462.0</ele><time>2026-05-03T13:38:35Z</time></trkpt><trkpt lat="37.07169228095615" lon="14.686747519991545"><ele>462.5</ele><time>2026-05-03T13:38:36Z</time></trkpt><trkpt lat="37.071759161876194" lon="14.68674189676142"><ele>463.0</ele><time>2026-05-03T13:38:37Z</time></trkpt><trkpt lat="37.07183716091933" lon="14.686738471542853"><ele>463.49999999999994</ele><time>2026-05-03T13:38:38Z</time></trkpt><trkpt lat="37.071925858834724" lon="14.686712393630094"><ele>464.0</ele><time>2026-05-03T13:38:39Z</time></trkpt><trkpt lat="37.07201120851925" lon="14.686678034377747"><ele>463.99999999999994</ele><time>2026-05-03T13:38:40Z</time></trkpt><trkpt lat="37.072101602158995" lon="14.68663699574986"><ele>464.0</ele><time>2026-05-03T13:38:40.999Z</time></trkpt><trkpt lat="37.072185620738" lon="14.686609737541383"><ele>464.0</ele><time>2026-05-03T13:38:41.999Z</time></trkpt><trkpt lat="37.072266121272826" lon="14.686575476902314"><ele>464.0</ele><time>2026-05-03T13:38:42.999Z</time></trkpt><trkpt lat="37.072338921230475" lon="14.686542981171149"><ele>463.99999999999994</ele><time>2026-05-03T13:38:43.999Z</time></trkpt><trkpt lat="37.072421552846414" lon="14.686506316584891"><ele>464.0</ele><time>2026-05-03T13:38:44.999Z</time></trkpt><trkpt lat="37.07249693602959" lon="14.686495956852204"><ele>465.16666666666663</ele><time>2026-05-03T13:38:45.999Z</time></trkpt><trkpt lat="37.072581508558514" lon="14.686486497512956"><ele>466.3333333333333</ele><time>2026-05-03T13:38:46.999Z</time></trkpt><trkpt lat="37.072667539213946" lon="14.686481658526013"><ele>467.5</ele><time>2026-05-03T13:38:47.999Z</time></trkpt><trkpt lat="37.072749928455025" lon="14.686459900402165"><ele>468.66666666666663</ele><time>2026-05-03T13:38:48.999Z</time></trkpt><trkpt lat="37.07282885031836" lon="14.686437060764202"><ele>469.8333333333333</ele><time>2026-05-03T13:38:49.999Z</time></trkpt><trkpt lat="37.07290730742989" lon="14.686424114380536"><ele>471.0</ele><time>2026-05-03T13:38:50.999Z</time></trkpt><trkpt lat="37.072975712532404" lon="14.686409296524829"><ele>471.0</ele><time>2026-05-03T13:38:51.999Z</time></trkpt><trkpt lat="37.0730627529382" lon="14.686403163112892"><ele>471.0</ele><time>2026-05-03T13:38:53.999Z</time></trkpt><trkpt lat="37.07317675816636" lon="14.686393142122245"><ele>471.0</ele><time>2026-05-03T13:38:55.999Z</time></trkpt><trkpt lat="37.073245243743884" lon="14.686377403625738"><ele>471.0</ele><time>2026-05-03T13:38:56.999Z</time></trkpt><trkpt lat="37.07331276981783" lon="14.686356189850539"><ele>471.0</ele><time>2026-05-03T13:38:57.999Z</time></trkpt><trkpt lat="37.07337962090407" lon="14.68633297290578"><ele>471.0</ele><time>2026-05-03T13:38:58.999Z</time></trkpt><trkpt lat="37.07345264405137" lon="14.686308000999572"><ele>470.8333333333333</ele><time>2026-05-03T13:38:59.999Z</time></trkpt><trkpt lat="37.07353314158635" lon="14.686283738758059"><ele>470.66666666666663</ele><time>2026-05-03T13:39:00.999Z</time></trkpt><trkpt lat="37.07361092273558" lon="14.686278332113277"><ele>470.5</ele><time>2026-05-03T13:39:01.999Z</time></trkpt><trkpt lat="37.07367768820816" lon="14.686257420556519"><ele>470.3333333333333</ele><time>2026-05-03T13:39:02.999Z</time></trkpt><trkpt lat="37.07375580378562" lon="14.686181965408155"><ele>470.16666666666663</ele><time>2026-05-03T13:39:04.999Z</time></trkpt><trkpt lat="37.0738436566169" lon="14.686125143290512"><ele>470.0</ele><time>2026-05-03T13:39:06.999Z</time></trkpt><trkpt lat="37.07393660205286" lon="14.68607003363836"><ele>470.0</ele><time>2026-05-03T13:39:09Z</time></trkpt><trkpt lat="37.07402701163255" lon="14.686022919890341"><ele>469.99999999999994</ele><time>2026-05-03T13:39:11Z</time></trkpt><trkpt lat="37.074089269709674" lon="14.685989114908706"><ele>470.0</ele><time>2026-05-03T13:39:12Z</time></trkpt><trkpt lat="37.07414835408808" lon="14.685956297099134"><ele>470.0</ele><time>2026-05-03T13:39:13Z</time></trkpt><trkpt lat="37.0742053900572" lon="14.68591371638548"><ele>469.99999999999994</ele><time>2026-05-03T13:39:14Z</time></trkpt><trkpt lat="37.07426282554142" lon="14.68586931299117"><ele>470.0</ele><time>2026-05-03T13:39:15Z</time></trkpt><trkpt lat="37.07431397873871" lon="14.685814227665967"><ele>470.0</ele><time>2026-05-03T13:39:16Z</time></trkpt><trkpt lat="37.074361948948884" lon="14.685757455138306"><ele>470.6</ele><time>2026-05-03T13:39:17Z</time></trkpt><trkpt lat="37.07442386433381" lon="14.685680001260092"><ele>471.2</ele><time>2026-05-03T13:39:19Z</time></trkpt><trkpt lat="37.074512869668375" lon="14.685587125785956"><ele>471.79999999999995</ele><time>2026-05-03T13:40:22Z</time></trkpt><trkpt lat="37.074574867068485" lon="14.685515899107989"><ele>472.4</ele><time>2026-05-03T13:40:23Z</time></trkpt><trkpt lat="37.07465482797866" lon="14.685413918805137"><ele>473.0</ele><time>2026-05-03T13:40:24Z</time></trkpt><trkpt lat="37.074726234374744" lon="14.68531523860064"><ele>472.2</ele><time>2026-05-03T13:40:25Z</time></trkpt><trkpt lat="37.07481288241076" lon="14.685231538035186"><ele>471.4</ele><time>2026-05-03T13:40:26Z</time></trkpt><trkpt lat="37.07487898795907" lon="14.685136753258824"><ele>470.59999999999997</ele><time>2026-05-03T13:40:27Z</time></trkpt><trkpt lat="37.07494328266198" lon="14.685042517353994"><ele>469.79999999999995</ele><time>2026-05-03T13:40:28Z</time></trkpt><trkpt lat="37.074981538537294" lon="14.684952830947381"><ele>469.0</ele><time>2026-05-03T13:40:29Z</time></trkpt><trkpt lat="37.07504441025234" lon="14.684839058480444"><ele>469.0</ele><time>2026-05-03T13:40:31Z</time></trkpt><trkpt lat="37.075162237185594" lon="14.684942959248177"><ele>469.0</ele><time>2026-05-03T13:40:34Z</time></trkpt><trkpt lat="37.07525449400694" lon="14.685010629513748"><ele>469.0</ele><time>2026-05-03T13:40:35Z</time></trkpt><trkpt lat="37.07535711927874" lon="14.685089012903157"><ele>469.0</ele><time>2026-05-03T13:40:36Z</time></trkpt><trkpt lat="37.07546453495488" lon="14.685171055098579"><ele>469.0</ele><time>2026-05-03T13:40:37Z</time></trkpt><trkpt lat="37.075580598741496" lon="14.685262040005343"><ele>469.0</ele><time>2026-05-03T13:40:38Z</time></trkpt><trkpt lat="37.07570080110978" lon="14.685361305089401"><ele>469.0</ele><time>2026-05-03T13:40:39Z</time></trkpt><trkpt lat="37.07582850737163" lon="14.685463986892186"><ele>469.0</ele><time>2026-05-03T13:40:40Z</time></trkpt><trkpt lat="37.07595639108532" lon="14.685558059470203"><ele>471.5</ele><time>2026-05-03T13:40:41Z</time></trkpt><trkpt lat="37.07607640413686" lon="14.685650925868018"><ele>474.0</ele><time>2026-05-03T13:40:42Z</time></trkpt><trkpt lat="37.076190221405895" lon="14.685763328380494"><ele>476.5</ele><time>2026-05-03T13:40:43Z</time></trkpt><trkpt lat="37.07630026534508" lon="14.68588913420459"><ele>479.0</ele><time>2026-05-03T13:40:44Z</time></trkpt><trkpt lat="37.076423814779055" lon="14.686006515974816"><ele>481.0</ele><time>2026-05-03T13:40:45Z</time></trkpt><trkpt lat="37.076499379103744" lon="14.68614612125129"><ele>483.0</ele><time>2026-05-03T13:40:46Z</time></trkpt><trkpt lat="37.07658635544211" lon="14.686250917803443"><ele>485.0</ele><time>2026-05-03T13:40:46.999Z</time></trkpt><trkpt lat="37.07665469445629" lon="14.686371756696087"><ele>487.0</ele><time>2026-05-03T13:40:47.999Z</time></trkpt><trkpt lat="37.07672783354558" lon="14.68648274115052"><ele>487.0</ele><time>2026-05-03T13:40:48.999Z</time></trkpt><trkpt lat="37.07680656221646" lon="14.686572941097346"><ele>487.00000000000006</ele><time>2026-05-03T13:40:49.999Z</time></trkpt><trkpt lat="37.07690181687539" lon="14.686641555214837"><ele>487.00000000000006</ele><time>2026-05-03T13:40:50.999Z</time></trkpt><trkpt lat="37.07700969886078" lon="14.686691041305421"><ele>487.0</ele><time>2026-05-03T13:40:51.999Z</time></trkpt><trkpt lat="37.07711849892203" lon="14.686746108649846"><ele>487.0</ele><time>2026-05-03T13:40:52.999Z</time></trkpt><trkpt lat="37.077190195434426" lon="14.686855746562287"><ele>488.5</ele><time>2026-05-03T13:40:53.999Z</time></trkpt><trkpt lat="37.07726132589054" lon="14.686977834449403"><ele>490.0</ele><time>2026-05-03T13:40:54.999Z</time></trkpt><trkpt lat="37.07732769607005" lon="14.687129261295246"><ele>491.5</ele><time>2026-05-03T13:40:55.999Z</time></trkpt><trkpt lat="37.07740543828139" lon="14.687277374735476"><ele>493.0</ele><time>2026-05-03T13:40:56.999Z</time></trkpt><trkpt lat="37.07747720408307" lon="14.687431996655887"><ele>493.0</ele><time>2026-05-03T13:40:57.999Z</time></trkpt><trkpt lat="37.077542990900966" lon="14.687568178395004"><ele>493.0</ele><time>2026-05-03T13:40:58.999Z</time></trkpt><trkpt lat="37.0775992673137" lon="14.687706461198045"><ele>493.0</ele><time>2026-05-03T13:40:59.999Z</time></trkpt><trkpt lat="37.077644562691574" lon="14.687845354325558"><ele>493.0</ele><time>2026-05-03T13:41:00.999Z</time></trkpt><trkpt lat="37.077689009027715" lon="14.687972624776656"><ele>493.2</ele><time>2026-05-03T13:41:01.999Z</time></trkpt><trkpt lat="37.077747658902965" lon="14.688085868937847"><ele>493.4</ele><time>2026-05-03T13:41:02.999Z</time></trkpt><trkpt lat="37.077816820945486" lon="14.688187188782901"><ele>493.59999999999997</ele><time>2026-05-03T13:41:03.999Z</time></trkpt><trkpt lat="37.07788723129417" lon="14.68828141812127"><ele>493.79999999999995</ele><time>2026-05-03T13:41:04.999Z</time></trkpt><trkpt lat="37.077948668805846" lon="14.68838026630599"><ele>494.0</ele><time>2026-05-03T13:41:05.999Z</time></trkpt><trkpt lat="37.077990757759466" lon="14.688504138815954"><ele>493.25</ele><time>2026-05-03T13:41:06.999Z</time></trkpt><trkpt lat="37.07801474460691" lon="14.688648189876274"><ele>492.5</ele><time>2026-05-03T13:41:07.999Z</time></trkpt><trkpt lat="37.07802801810569" lon="14.688796631077658"><ele>491.75</ele><time>2026-05-03T13:41:08.999Z</time></trkpt><trkpt lat="37.07806389878403" lon="14.688948057174036"><ele>491.0</ele><time>2026-05-03T13:41:09.999Z</time></trkpt><trkpt lat="37.07814748713909" lon="14.68909391660651"><ele>491.0</ele><time>2026-05-03T13:41:10.999Z</time></trkpt><trkpt lat="37.07825608249485" lon="14.689240054185886"><ele>491.0</ele><time>2026-05-03T13:41:11.999Z</time></trkpt><trkpt lat="37.07835932126526" lon="14.689390540922664"><ele>491.0</ele><time>2026-05-03T13:41:12.999Z</time></trkpt><trkpt lat="37.07844299806848" lon="14.689541087660546"><ele>486.75</ele><time>2026-05-03T13:41:13.999Z</time></trkpt><trkpt lat="37.0785179992565" lon="14.689687762055026"><ele>482.5</ele><time>2026-05-03T13:41:15Z</time></trkpt><trkpt lat="37.07860609366986" lon="14.689821992616894"><ele>478.25</ele><time>2026-05-03T13:41:16Z</time></trkpt><trkpt lat="37.07870352171851" lon="14.689940949446267"><ele>474.0</ele><time>2026-05-03T13:41:17Z</time></trkpt><trkpt lat="37.07880137871239" lon="14.69005077357191"><ele>474.0</ele><time>2026-05-03T13:41:18Z</time></trkpt><trkpt lat="37.07889607854303" lon="14.690154686680653"><ele>474.0</ele><time>2026-05-03T13:41:19Z</time></trkpt><trkpt lat="37.07897990076516" lon="14.690272641453069"><ele>474.0</ele><time>2026-05-03T13:41:20Z</time></trkpt><trkpt lat="37.079038580417894" lon="14.690421995184128"><ele>474.0</ele><time>2026-05-03T13:41:21Z</time></trkpt><trkpt lat="37.07911501430295" lon="14.690583383678169"><ele>471.66666666666663</ele><time>2026-05-03T13:41:22Z</time></trkpt><trkpt lat="37.07918424482504" lon="14.690773261691803"><ele>469.3333333333333</ele><time>2026-05-03T13:41:23Z</time></trkpt><trkpt lat="37.07925735684227" lon="14.690967834308358"><ele>467.0</ele><time>2026-05-03T13:41:24Z</time></trkpt><trkpt lat="37.07932643761562" lon="14.691147413890391"><ele>466.25</ele><time>2026-05-03T13:41:25Z</time></trkpt><trkpt lat="37.07938045105283" lon="14.691316653262744"><ele>465.5</ele><time>2026-05-03T13:41:26Z</time></trkpt><trkpt lat="37.07943472214002" lon="14.691476838244263"><ele>464.75</ele><time>2026-05-03T13:41:27Z</time></trkpt><trkpt lat="37.079479803392935" lon="14.691616812642655"><ele>464.0</ele><time>2026-05-03T13:41:28Z</time></trkpt><trkpt lat="37.07950615516203" lon="14.691759581768428"><ele>464.0</ele><time>2026-05-03T13:41:29Z</time></trkpt><trkpt lat="37.07951183983895" lon="14.691910905960675"><ele>464.0</ele><time>2026-05-03T13:41:30Z</time></trkpt><trkpt lat="37.07951616585969" lon="14.692055686644261"><ele>464.0</ele><time>2026-05-03T13:41:31Z</time></trkpt><trkpt lat="37.07952363833496" lon="14.692195159706262"><ele>464.0</ele><time>2026-05-03T13:41:32Z</time></trkpt><trkpt lat="37.07955029139427" lon="14.69230970457269"><ele>464.0</ele><time>2026-05-03T13:41:33Z</time></trkpt><trkpt lat="37.07952851593671" lon="14.692421580280906"><ele>463.79999999999995</ele><time>2026-05-03T13:41:34Z</time></trkpt><trkpt lat="37.07949821160923" lon="14.692512221120058"><ele>463.59999999999997</ele><time>2026-05-03T13:41:35Z</time></trkpt><trkpt lat="37.079428058222156" lon="14.692571602391618"><ele>463.4</ele><time>2026-05-03T13:41:36Z</time></trkpt><trkpt lat="37.07933137818637" lon="14.6926166913027"><ele>463.2</ele><time>2026-05-03T13:41:37Z</time></trkpt><trkpt lat="37.07921644263267" lon="14.69264311235702"><ele>463.0</ele><time>2026-05-03T13:41:38Z</time></trkpt><trkpt lat="37.079119526472375" lon="14.692686495298474"><ele>464.59999999999997</ele><time>2026-05-03T13:41:39Z</time></trkpt><trkpt lat="37.07904237254098" lon="14.692759029004336"><ele>466.19999999999993</ele><time>2026-05-03T13:41:40Z</time></trkpt><trkpt lat="37.07899000125975" lon="14.69286441849223"><ele>467.8</ele><time>2026-05-03T13:41:41Z</time></trkpt><trkpt lat="37.07897600434664" lon="14.692999477801328"><ele>469.4</ele><time>2026-05-03T13:41:42Z</time></trkpt><trkpt lat="37.078980610422484" lon="14.69314690867408"><ele>471.0</ele><time>2026-05-03T13:41:43Z</time></trkpt><trkpt lat="37.0789848597426" lon="14.693239320845118"><ele>471.0</ele><time>2026-05-03T13:41:44Z</time></trkpt><trkpt lat="37.07900512617208" lon="14.693317770928651"><ele>471.0</ele><time>2026-05-03T13:41:46Z</time></trkpt><trkpt lat="37.079112551811214" lon="14.693320476366162"><ele>471.0</ele><time>2026-05-03T13:41:48Z</time></trkpt><trkpt lat="37.0792361734549" lon="14.693333794672869"><ele>471.0</ele><time>2026-05-03T13:41:49Z</time></trkpt><trkpt lat="37.079397825951226" lon="14.693385930640865"><ele>470.0</ele><time>2026-05-03T13:41:50Z</time></trkpt><trkpt lat="37.079560400805114" lon="14.693484612446044"><ele>469.0</ele><time>2026-05-03T13:41:51Z</time></trkpt><trkpt lat="37.07971448943844" lon="14.693602961720815"><ele>468.0</ele><time>2026-05-03T13:41:52Z</time></trkpt><trkpt lat="37.07986284605408" lon="14.6937055868951"><ele>470.0</ele><time>2026-05-03T13:41:53Z</time></trkpt><trkpt lat="37.07999826514708" lon="14.693768778628655"><ele>472.0</ele><time>2026-05-03T13:41:54Z</time></trkpt><trkpt lat="37.08013679411046" lon="14.693793992693402"><ele>474.0</ele><time>2026-05-03T13:41:55Z</time></trkpt><trkpt lat="37.08027681097612" lon="14.693791489324479"><ele>476.0</ele><time>2026-05-03T13:41:56Z</time></trkpt><trkpt lat="37.08041441323324" lon="14.693771069005422"><ele>476.0</ele><time>2026-05-03T13:41:57Z</time></trkpt><trkpt lat="37.08055000485815" lon="14.693728690306905"><ele>476.0</ele><time>2026-05-03T13:41:58Z</time></trkpt><trkpt lat="37.080675556442095" lon="14.693669469301103"><ele>476.0</ele><time>2026-05-03T13:41:59Z</time></trkpt><trkpt lat="37.080793502496164" lon="14.693605393790955"><ele>476.0</ele><time>2026-05-03T13:42:00Z</time></trkpt><trkpt lat="37.080901927601396" lon="14.693547196119729"><ele>473.25</ele><time>2026-05-03T13:42:01Z</time></trkpt><trkpt lat="37.080992146035264" lon="14.69347648324565"><ele>470.5</ele><time>2026-05-03T13:42:02Z</time></trkpt><trkpt lat="37.081064684002754" lon="14.693373944535303"><ele>467.75</ele><time>2026-05-03T13:42:03Z</time></trkpt><trkpt lat="37.08112468249363" lon="14.693231728110113"><ele>465.0</ele><time>2026-05-03T13:42:04Z</time></trkpt><trkpt lat="37.081168020584414" lon="14.69306470904736"><ele>465.0</ele><time>2026-05-03T13:42:05Z</time></trkpt><trkpt lat="37.08121535422212" lon="14.692893172610004"><ele>465.0</ele><time>2026-05-03T13:42:06Z</time></trkpt><trkpt lat="37.081267894797406" lon="14.692730347280454"><ele>465.0</ele><time>2026-05-03T13:42:07Z</time></trkpt><trkpt lat="37.08133028204863" lon="14.69255578725227"><ele>465.0</ele><time>2026-05-03T13:42:08Z</time></trkpt><trkpt lat="37.08139714712137" lon="14.692380336087425"><ele>462.66666666666663</ele><time>2026-05-03T13:42:09Z</time></trkpt><trkpt lat="37.08148560778185" lon="14.692211672019493"><ele>460.3333333333333</ele><time>2026-05-03T13:42:10Z</time></trkpt><trkpt lat="37.081574464734345" lon="14.692065396698547"><ele>458.0</ele><time>2026-05-03T13:42:11Z</time></trkpt><trkpt lat="37.08166831706607" lon="14.691910532344332"><ele>456.66666666666663</ele><time>2026-05-03T13:42:12Z</time></trkpt><trkpt lat="37.08177577362184" lon="14.691772415442623"><ele>455.33333333333337</ele><time>2026-05-03T13:42:13Z</time></trkpt><trkpt lat="37.081897210168535" lon="14.691649289309579"><ele>454.0</ele><time>2026-05-03T13:42:14Z</time></trkpt><trkpt lat="37.08203388641531" lon="14.69153354055593"><ele>454.0</ele><time>2026-05-03T13:42:15Z</time></trkpt><trkpt lat="37.082190485896355" lon="14.691405455754731"><ele>454.0</ele><time>2026-05-03T13:42:16Z</time></trkpt><trkpt lat="37.082355816080074" lon="14.691268962013782"><ele>454.0</ele><time>2026-05-03T13:42:17Z</time></trkpt><trkpt lat="37.082515321673924" lon="14.691136711762448"><ele>453.0</ele><time>2026-05-03T13:42:18Z</time></trkpt><trkpt lat="37.082670952110256" lon="14.691014778034173"><ele>452.0</ele><time>2026-05-03T13:42:19Z</time></trkpt><trkpt lat="37.0828239640634" lon="14.690899427636545"><ele>451.0</ele><time>2026-05-03T13:42:20Z</time></trkpt><trkpt lat="37.08296668982056" lon="14.690792193038272"><ele>451.0</ele><time>2026-05-03T13:42:21Z</time></trkpt><trkpt lat="37.08310019185153" lon="14.690698304834523"><ele>451.0</ele><time>2026-05-03T13:42:22Z</time></trkpt><trkpt lat="37.08322496051748" lon="14.69061413258173"><ele>451.0</ele><time>2026-05-03T13:42:23Z</time></trkpt><trkpt lat="37.08333795049685" lon="14.690536688945045"><ele>451.0</ele><time>2026-05-03T13:42:24Z</time></trkpt><trkpt lat="37.08344766991074" lon="14.690456831021232"><ele>452.25</ele><time>2026-05-03T13:42:25Z</time></trkpt><trkpt lat="37.083567745131575" lon="14.690367272060525"><ele>453.5</ele><time>2026-05-03T13:42:26Z</time></trkpt><trkpt lat="37.08367362081866" lon="14.690285491174246"><ele>454.75</ele><time>2026-05-03T13:42:27Z</time></trkpt><trkpt lat="37.083774108951985" lon="14.690209178052866"><ele>456.0</ele><time>2026-05-03T13:42:28Z</time></trkpt><trkpt lat="37.08387245645613" lon="14.690134494707895"><ele>457.0</ele><time>2026-05-03T13:42:29Z</time></trkpt><trkpt lat="37.08397303261721" lon="14.690048338659503"><ele>458.0</ele><time>2026-05-03T13:42:30Z</time></trkpt><trkpt lat="37.08407726278952" lon="14.68995537403246"><ele>459.0</ele><time>2026-05-03T13:42:31Z</time></trkpt><trkpt lat="37.08418420836668" lon="14.68984891570845"><ele>460.0</ele><time>2026-05-03T13:42:32Z</time></trkpt><trkpt lat="37.08429481845813" lon="14.689731665893355"><ele>457.33333333333337</ele><time>2026-05-03T13:42:33Z</time></trkpt><trkpt lat="37.084411161185464" lon="14.68958421515102"><ele>454.66666666666663</ele><time>2026-05-03T13:42:34Z</time></trkpt><trkpt lat="37.08452241860984" lon="14.689423136970449"><ele>452.0</ele><time>2026-05-03T13:42:35Z</time></trkpt><trkpt lat="37.08462192907105" lon="14.68927270827782"><ele>453.0</ele><time>2026-05-03T13:42:36Z</time></trkpt><trkpt lat="37.084716092839905" lon="14.689149731632297"><ele>454.0</ele><time>2026-05-03T13:42:37Z</time></trkpt><trkpt lat="37.08480335288674" lon="14.68903693814544"><ele>455.0</ele><time>2026-05-03T13:42:38Z</time></trkpt><trkpt lat="37.08490504426248" lon="14.68893449654089"><ele>456.0</ele><time>2026-05-03T13:42:39Z</time></trkpt><trkpt lat="37.0850293302489" lon="14.688848754938503"><ele>456.0</ele><time>2026-05-03T13:42:40Z</time></trkpt><trkpt lat="37.085172091638576" lon="14.688775369713518"><ele>456.0</ele><time>2026-05-03T13:42:41Z</time></trkpt><trkpt lat="37.085325011306615" lon="14.688702480370505"><ele>456.0</ele><time>2026-05-03T13:42:42Z</time></trkpt><trkpt lat="37.08548557486845" lon="14.68861845090536"><ele>455.66666666666663</ele><time>2026-05-03T13:42:43Z</time></trkpt><trkpt lat="37.08564932295822" lon="14.68853557799366"><ele>455.3333333333333</ele><time>2026-05-03T13:42:44Z</time></trkpt><trkpt lat="37.08579439272882" lon="14.688461365171847"><ele>455.0</ele><time>2026-05-03T13:42:45Z</time></trkpt><trkpt lat="37.08593415473477" lon="14.688382212442788"><ele>457.75</ele><time>2026-05-03T13:42:46Z</time></trkpt><trkpt lat="37.08607024786355" lon="14.68830284383362"><ele>460.5</ele><time>2026-05-03T13:42:47Z</time></trkpt><trkpt lat="37.0862061264643" lon="14.688235991036477"><ele>463.25</ele><time>2026-05-03T13:42:48Z</time></trkpt><trkpt lat="37.08634970958706" lon="14.688188523403948"><ele>466.0</ele><time>2026-05-03T13:42:49Z</time></trkpt><trkpt lat="37.08650589516618" lon="14.688155216873255"><ele>469.6666666666667</ele><time>2026-05-03T13:42:50Z</time></trkpt><trkpt lat="37.08666166236691" lon="14.688135383949392"><ele>473.33333333333337</ele><time>2026-05-03T13:42:50.999Z</time></trkpt><trkpt lat="37.08680853773063" lon="14.68812274070353"><ele>477.0</ele><time>2026-05-03T13:42:51.999Z</time></trkpt><trkpt lat="37.086954514260604" lon="14.688108112555666"><ele>477.0</ele><time>2026-05-03T13:42:52.999Z</time></trkpt><trkpt lat="37.08709188611691" lon="14.688098454123233"><ele>477.0</ele><time>2026-05-03T13:42:53.999Z</time></trkpt><trkpt lat="37.08721115541886" lon="14.68809015587639"><ele>477.0</ele><time>2026-05-03T13:42:54.999Z</time></trkpt><trkpt lat="37.087328605903096" lon="14.688075948821059"><ele>477.0</ele><time>2026-05-03T13:42:55.999Z</time></trkpt><trkpt lat="37.087438709901306" lon="14.688061977709093"><ele>479.40000000000003</ele><time>2026-05-03T13:42:56.999Z</time></trkpt><trkpt lat="37.087550846308815" lon="14.688046971776288"><ele>481.80000000000007</ele><time>2026-05-03T13:42:57.999Z</time></trkpt><trkpt lat="37.087649473202674" lon="14.688030636644184"><ele>484.2</ele><time>2026-05-03T13:42:58.999Z</time></trkpt><trkpt lat="37.08772336696005" lon="14.688012175948248"><ele>486.6</ele><time>2026-05-03T13:42:59.999Z</time></trkpt><trkpt lat="37.08778416142322" lon="14.687986110532258"><ele>489.0</ele><time>2026-05-03T13:43:00.999Z</time></trkpt><trkpt lat="37.08789126778824" lon="14.687956896604932"><ele>489.0</ele><time>2026-05-03T13:43:02.999Z</time></trkpt><trkpt lat="37.08796086469976" lon="14.68794308129254"><ele>489.0</ele><time>2026-05-03T13:43:03.999Z</time></trkpt><trkpt lat="37.08804065823633" lon="14.687912472301207"><ele>489.0</ele><time>2026-05-03T13:43:04.999Z</time></trkpt><trkpt lat="37.088126990010466" lon="14.68787312706754"><ele>489.0</ele><time>2026-05-03T13:43:05.999Z</time></trkpt><trkpt lat="37.088220253242305" lon="14.687832531774587"><ele>489.0</ele><time>2026-05-03T13:43:06.999Z</time></trkpt><trkpt lat="37.08830993109943" lon="14.687784593733765"><ele>489.0</ele><time>2026-05-03T13:43:07.999Z</time></trkpt><trkpt lat="37.08841814293921" lon="14.687726870379391"><ele>492.25</ele><time>2026-05-03T13:43:08.999Z</time></trkpt><trkpt lat="37.08852911667641" lon="14.68768182240753"><ele>495.5</ele><time>2026-05-03T13:43:09.999Z</time></trkpt><trkpt lat="37.08862863399947" lon="14.687642127415982"><ele>498.75</ele><time>2026-05-03T13:43:10.999Z</time></trkpt><trkpt lat="37.08873883053482" lon="14.6876015318719"><ele>502.0</ele><time>2026-05-03T13:43:11.999Z</time></trkpt><trkpt lat="37.088859649183554" lon="14.68756698985802"><ele>502.0</ele><time>2026-05-03T13:43:12.999Z</time></trkpt><trkpt lat="37.08897805763906" lon="14.68753750952824"><ele>502.0</ele><time>2026-05-03T13:43:13.999Z</time></trkpt><trkpt lat="37.089102556678455" lon="14.68751688324956"><ele>502.0</ele><time>2026-05-03T13:43:14.999Z</time></trkpt><trkpt lat="37.08922300951848" lon="14.687506812653032"><ele>502.0</ele><time>2026-05-03T13:43:15.999Z</time></trkpt><trkpt lat="37.0893361048006" lon="14.687499760459943"><ele>501.0</ele><time>2026-05-03T13:43:16.999Z</time></trkpt><trkpt lat="37.08944472504706" lon="14.687493145308796"><ele>500.00000000000006</ele><time>2026-05-03T13:43:17.999Z</time></trkpt><trkpt lat="37.08954272549998" lon="14.687501103556333"><ele>499.00000000000006</ele><time>2026-05-03T13:43:18.999Z</time></trkpt><trkpt lat="37.08964458908051" lon="14.687518166649225"><ele>498.0</ele><time>2026-05-03T13:43:19.999Z</time></trkpt><trkpt lat="37.089752489823965" lon="14.687524149526036"><ele>497.0</ele><time>2026-05-03T13:43:21Z</time></trkpt><trkpt lat="37.08986491408962" lon="14.687514467984828"><ele>494.75</ele><time>2026-05-03T13:43:22Z</time></trkpt><trkpt lat="37.089981050996556" lon="14.68749962776829"><ele>492.5</ele><time>2026-05-03T13:43:23Z</time></trkpt><trkpt lat="37.09011085037031" lon="14.687501339650257"><ele>490.25</ele><time>2026-05-03T13:43:24Z</time></trkpt><trkpt lat="37.090223131756815" lon="14.687517179537544"><ele>488.0</ele><time>2026-05-03T13:43:25Z</time></trkpt><trkpt lat="37.090314767046195" lon="14.687516489414138"><ele>488.0</ele><time>2026-05-03T13:43:26Z</time></trkpt><trkpt lat="37.0903911435385" lon="14.687499286434367"><ele>487.99999999999994</ele><time>2026-05-03T13:43:27Z</time></trkpt><trkpt lat="37.09046396625474" lon="14.687438168077398"><ele>487.99999999999994</ele><time>2026-05-03T13:43:29Z</time></trkpt><trkpt lat="37.09050858312667" lon="14.687306842273946"><ele>488.0</ele><time>2026-05-03T13:43:31Z</time></trkpt><trkpt lat="37.09054816241107" lon="14.687191907569837"><ele>488.0</ele><time>2026-05-03T13:43:32Z</time></trkpt><trkpt lat="37.09060731761272" lon="14.68707381050352"><ele>488.0</ele><time>2026-05-03T13:43:33Z</time></trkpt><trkpt lat="37.09067826707259" lon="14.68699431744115"><ele>487.99999999999994</ele><time>2026-05-03T13:43:34Z</time></trkpt><trkpt lat="37.09075130258322" lon="14.686905277322916"><ele>487.99999999999994</ele><time>2026-05-03T13:43:35Z</time></trkpt><trkpt lat="37.090821024968065" lon="14.68681724661041"><ele>488.0</ele><time>2026-05-03T13:43:36Z</time></trkpt><trkpt lat="37.090888521942766" lon="14.686736631585484"><ele>488.0</ele><time>2026-05-03T13:43:37Z</time></trkpt><trkpt lat="37.090966619152724" lon="14.686681842837874"><ele>484.2</ele><time>2026-05-03T13:43:38Z</time></trkpt><trkpt lat="37.09105126332226" lon="14.686622963890674"><ele>480.4</ele><time>2026-05-03T13:43:39Z</time></trkpt><trkpt lat="37.091138801253344" lon="14.686561312408939"><ele>476.59999999999997</ele><time>2026-05-03T13:43:40Z</time></trkpt><trkpt lat="37.09121026297752" lon="14.686494741038691"><ele>472.79999999999995</ele><time>2026-05-03T13:43:41Z</time></trkpt><trkpt lat="37.09128518403061" lon="14.686420104101607"><ele>469.0</ele><time>2026-05-03T13:43:42Z</time></trkpt><trkpt lat="37.09135762239669" lon="14.686348230694895"><ele>469.00000000000006</ele><time>2026-05-03T13:43:43Z</time></trkpt><trkpt lat="37.09142531656032" lon="14.686290613161194"><ele>469.0</ele><time>2026-05-03T13:43:44Z</time></trkpt><trkpt lat="37.09148780047511" lon="14.686250779543217"><ele>469.0</ele><time>2026-05-03T13:43:45Z</time></trkpt><trkpt lat="37.091536257407434" lon="14.686183577217468"><ele>469.0</ele><time>2026-05-03T13:43:46Z</time></trkpt><trkpt lat="37.09154963423236" lon="14.686102650977237"><ele>469.00000000000006</ele><time>2026-05-03T13:43:47Z</time></trkpt><trkpt lat="37.09154661731309" lon="14.685971595277143"><ele>469.0</ele><time>2026-05-03T13:43:48Z</time></trkpt><trkpt lat="37.09155093109748" lon="14.685837605599177"><ele>470.6</ele><time>2026-05-03T13:43:49Z</time></trkpt><trkpt lat="37.09158149203466" lon="14.685761566451493"><ele>472.2</ele><time>2026-05-03T13:43:50Z</time></trkpt><trkpt lat="37.09164642912639" lon="14.685714489361423"><ele>473.80000000000007</ele><time>2026-05-03T13:43:51Z</time></trkpt><trkpt lat="37.09175093163702" lon="14.68565722018078"><ele>475.40000000000003</ele><time>2026-05-03T13:43:52Z</time></trkpt><trkpt lat="37.09186592473239" lon="14.685586234393611"><ele>477.0</ele><time>2026-05-03T13:43:53Z</time></trkpt><trkpt lat="37.09197354436745" lon="14.685505440422006"><ele>473.6</ele><time>2026-05-03T13:43:54Z</time></trkpt><trkpt lat="37.09207968825459" lon="14.685421558167961"><ele>470.20000000000005</ele><time>2026-05-03T13:43:55Z</time></trkpt><trkpt lat="37.092171655942515" lon="14.685360459495957"><ele>466.8</ele><time>2026-05-03T13:43:56Z</time></trkpt><trkpt lat="37.09224637159688" lon="14.685320333779876"><ele>463.4</ele><time>2026-05-03T13:43:57Z</time></trkpt><trkpt lat="37.09232222432929" lon="14.68530805592208"><ele>460.0</ele><time>2026-05-03T13:44:00Z</time></trkpt><trkpt lat="37.09236854776539" lon="14.685209563705175"><ele>458.83333333333337</ele><time>2026-05-03T13:44:03Z</time></trkpt><trkpt lat="37.0924081395364" lon="14.68513254651875"><ele>457.6666666666667</ele><time>2026-05-03T13:44:07Z</time></trkpt><trkpt lat="37.092471264934595" lon="14.685116534934187"><ele>456.5</ele><time>2026-05-03T13:44:10Z</time></trkpt><trkpt lat="37.09252682462826" lon="14.685065231287862"><ele>455.33333333333337</ele><time>2026-05-03T13:44:12Z</time></trkpt><trkpt lat="37.09257727978088" lon="14.685016675679087"><ele>454.1666666666667</ele><time>2026-05-03T13:44:15Z</time></trkpt><trkpt lat="37.09264085219444" lon="14.684878541090857"><ele>453.0</ele><time>2026-05-03T13:44:18Z</time></trkpt><trkpt lat="37.092676707163406" lon="14.684788405839459"><ele>455.79999999999995</ele><time>2026-05-03T13:44:19Z</time></trkpt><trkpt lat="37.09273475463247" lon="14.68470936725167"><ele>458.59999999999997</ele><time>2026-05-03T13:44:21Z</time></trkpt><trkpt lat="37.092811026818794" lon="14.684648303086258"><ele>461.40000000000003</ele><time>2026-05-03T13:44:24Z</time></trkpt><trkpt lat="37.09284832160955" lon="14.684548809377453"><ele>464.20000000000005</ele><time>2026-05-03T13:44:26Z</time></trkpt><trkpt lat="37.09302331672558" lon="14.684514008949261"><ele>467.0</ele><time>2026-05-03T13:44:28Z</time></trkpt><trkpt lat="37.09305323850451" lon="14.684418420153754"><ele>468.3333333333333</ele><time>2026-05-03T13:44:31Z</time></trkpt><trkpt lat="37.093077752963225" lon="14.684333816996276"><ele>469.66666666666663</ele><time>2026-05-03T13:44:34Z</time></trkpt><trkpt lat="37.09310817762171" lon="14.684228096961176"><ele>471.0</ele><time>2026-05-03T13:44:37Z</time></trkpt><trkpt lat="37.09307853653003" lon="14.684143474751908"><ele>472.33333333333337</ele><time>2026-05-03T13:44:40Z</time></trkpt><trkpt lat="37.093061691007065" lon="14.684018710182114"><ele>473.6666666666667</ele><time>2026-05-03T13:44:50Z</time></trkpt><trkpt lat="37.09307141737352" lon="14.683913712325701"><ele>475.0</ele><time>2026-05-03T13:44:52Z</time></trkpt><trkpt lat="37.09308862439922" lon="14.683773407479945"><ele>475.0</ele><time>2026-05-03T13:44:54Z</time></trkpt><trkpt lat="37.09309271436999" lon="14.683667307304756"><ele>475.0</ele><time>2026-05-03T13:44:55Z</time></trkpt><trkpt lat="37.09309040739865" lon="14.683546172848157"><ele>475.0</ele><time>2026-05-03T13:44:56Z</time></trkpt><trkpt lat="37.09310309110415" lon="14.683434658827537"><ele>475.0</ele><time>2026-05-03T13:44:56.999Z</time></trkpt><trkpt lat="37.09312912655946" lon="14.683299791743499"><ele>475.0</ele><time>2026-05-03T13:44:57.999Z</time></trkpt><trkpt lat="37.09317218522881" lon="14.683152625540021"><ele>477.25</ele><time>2026-05-03T13:44:58.999Z</time></trkpt><trkpt lat="37.093215789148296" lon="14.683009335814237"><ele>479.5</ele><time>2026-05-03T13:44:59.999Z</time></trkpt><trkpt lat="37.09326092282174" lon="14.682865278609725"><ele>481.75</ele><time>2026-05-03T13:45:00.999Z</time></trkpt><trkpt lat="37.093302751098925" lon="14.68271945907006"><ele>484.0</ele><time>2026-05-03T13:45:01.999Z</time></trkpt><trkpt lat="37.09333291463448" lon="14.682587959689771"><ele>484.1666666666667</ele><time>2026-05-03T13:45:02.999Z</time></trkpt><trkpt lat="37.09335557624739" lon="14.682475503534494"><ele>484.33333333333337</ele><time>2026-05-03T13:45:03.999Z</time></trkpt><trkpt lat="37.093387961013256" lon="14.682372947252826"><ele>484.5</ele><time>2026-05-03T13:45:04.999Z</time></trkpt><trkpt lat="37.09341302415426" lon="14.68227174237073"><ele>484.66666666666663</ele><time>2026-05-03T13:45:05.999Z</time></trkpt><trkpt lat="37.093427776982" lon="14.682169073174562"><ele>484.8333333333333</ele><time>2026-05-03T13:45:06.999Z</time></trkpt><trkpt lat="37.09344515812872" lon="14.682062372707968"><ele>485.0</ele><time>2026-05-03T13:45:07.999Z</time></trkpt><trkpt lat="37.09346896609131" lon="14.681958763478061"><ele>484.8333333333333</ele><time>2026-05-03T13:45:08.999Z</time></trkpt><trkpt lat="37.0935146071287" lon="14.681851599655989"><ele>484.66666666666663</ele><time>2026-05-03T13:45:09.999Z</time></trkpt><trkpt lat="37.09354333016517" lon="14.681747977642818"><ele>484.5</ele><time>2026-05-03T13:45:10.999Z</time></trkpt><trkpt lat="37.09357387555938" lon="14.681656615585545"><ele>484.33333333333337</ele><time>2026-05-03T13:45:11.999Z</time></trkpt><trkpt lat="37.093606217229905" lon="14.681582794241308"><ele>484.1666666666667</ele><time>2026-05-03T13:45:12.999Z</time></trkpt><trkpt lat="37.09366387210673" lon="14.681547122833852"><ele>484.0</ele><time>2026-05-03T13:45:13.999Z</time></trkpt><trkpt lat="37.093743356841145" lon="14.681502372590968"><ele>484.0</ele><time>2026-05-03T13:45:14.999Z</time></trkpt><trkpt lat="37.09382447180055" lon="14.681446689537077"><ele>484.0</ele><time>2026-05-03T13:45:15.999Z</time></trkpt><trkpt lat="37.093900066843865" lon="14.681361212331456"><ele>484.0</ele><time>2026-05-03T13:45:16.999Z</time></trkpt><trkpt lat="37.093947668382306" lon="14.681254816832983"><ele>484.0</ele><time>2026-05-03T13:45:17.999Z</time></trkpt><trkpt lat="37.09396338593794" lon="14.68112918180709"><ele>484.0</ele><time>2026-05-03T13:45:18.999Z</time></trkpt><trkpt lat="37.093977072822355" lon="14.680983689513903"><ele>483.2</ele><time>2026-05-03T13:45:19.999Z</time></trkpt><trkpt lat="37.0939809888194" lon="14.680823849329725"><ele>482.4</ele><time>2026-05-03T13:45:20.999Z</time></trkpt><trkpt lat="37.09398313640189" lon="14.680686222720414"><ele>481.6</ele><time>2026-05-03T13:45:21.999Z</time></trkpt><trkpt lat="37.09400860571111" lon="14.68055863041539"><ele>480.8</ele><time>2026-05-03T13:45:22.999Z</time></trkpt><trkpt lat="37.09403339526008" lon="14.68044775885794"><ele>480.0</ele><time>2026-05-03T13:45:23.999Z</time></trkpt><trkpt lat="37.09407787462513" lon="14.680312685344449"><ele>482.0</ele><time>2026-05-03T13:45:24.999Z</time></trkpt><trkpt lat="37.09415040610783" lon="14.680179116547713"><ele>484.0</ele><time>2026-05-03T13:45:25.999Z</time></trkpt><trkpt lat="37.094214521389176" lon="14.680006002772043"><ele>486.0</ele><time>2026-05-03T13:45:27Z</time></trkpt><trkpt lat="37.09429101236551" lon="14.679847147103423"><ele>488.0</ele><time>2026-05-03T13:45:28Z</time></trkpt><trkpt lat="37.09438160440574" lon="14.679676730631986"><ele>488.0</ele><time>2026-05-03T13:45:29Z</time></trkpt><trkpt lat="37.09445345045807" lon="14.679515629248641"><ele>488.0</ele><time>2026-05-03T13:45:30Z</time></trkpt><trkpt lat="37.09452349038322" lon="14.679363945017897"><ele>488.0</ele><time>2026-05-03T13:45:31Z</time></trkpt><trkpt lat="37.09457374528291" lon="14.679226729469"><ele>488.0</ele><time>2026-05-03T13:45:32Z</time></trkpt><trkpt lat="37.09463301878646" lon="14.679110227849888"><ele>488.4</ele><time>2026-05-03T13:45:33Z</time></trkpt><trkpt lat="37.094709397348204" lon="14.6789879554264"><ele>488.79999999999995</ele><time>2026-05-03T13:45:34Z</time></trkpt><trkpt lat="37.09478423884216" lon="14.678858079121708"><ele>489.2</ele><time>2026-05-03T13:45:35Z</time></trkpt><trkpt lat="37.09484820352976" lon="14.678770433554346"><ele>489.6</ele><time>2026-05-03T13:45:36Z</time></trkpt><trkpt lat="37.09491495674074" lon="14.678703284393949"><ele>490.0</ele><time>2026-05-03T13:45:37Z</time></trkpt><trkpt lat="37.09498057676431" lon="14.678677317195321"><ele>490.0</ele><time>2026-05-03T13:45:38Z</time></trkpt><trkpt lat="37.095075414069996" lon="14.678651038015666"><ele>490.0</ele><time>2026-05-03T13:45:39Z</time></trkpt><trkpt lat="37.095191261281826" lon="14.678632082542626"><ele>490.0</ele><time>2026-05-03T13:45:40Z</time></trkpt><trkpt lat="37.09532769366281" lon="14.67861444326394"><ele>490.0</ele><time>2026-05-03T13:45:41Z</time></trkpt><trkpt lat="37.09545005439021" lon="14.678583681605172"><ele>486.8</ele><time>2026-05-03T13:45:42Z</time></trkpt><trkpt lat="37.095530787681426" lon="14.678534572753044"><ele>483.6</ele><time>2026-05-03T13:45:43Z</time></trkpt><trkpt lat="37.095569637862916" lon="14.67842693722331"><ele>480.4</ele><time>2026-05-03T13:45:44Z</time></trkpt><trkpt lat="37.09560128706046" lon="14.678316777772551"><ele>477.2</ele><time>2026-05-03T13:45:45Z</time></trkpt><trkpt lat="37.09566063909859" lon="14.67816646806371"><ele>474.0</ele><time>2026-05-03T13:45:46Z</time></trkpt><trkpt lat="37.095727212198135" lon="14.677992147080026"><ele>476.66666666666663</ele><time>2026-05-03T13:45:47Z</time></trkpt><trkpt lat="37.095796278145315" lon="14.677790455992076"><ele>479.3333333333333</ele><time>2026-05-03T13:45:48Z</time></trkpt><trkpt lat="37.095866454491436" lon="14.67757835784947"><ele>482.0</ele><time>2026-05-03T13:45:49Z</time></trkpt><trkpt lat="37.09593329046127" lon="14.677370897368451"><ele>482.0</ele><time>2026-05-03T13:45:50Z</time></trkpt><trkpt lat="37.0959610540249" lon="14.677177458191867"><ele>482.0</ele><time>2026-05-03T13:45:51Z</time></trkpt><trkpt lat="37.09603549308062" lon="14.676991795767632"><ele>482.0</ele><time>2026-05-03T13:45:52Z</time></trkpt><trkpt lat="37.096152105899776" lon="14.67679576151314"><ele>482.0</ele><time>2026-05-03T13:45:53Z</time></trkpt><trkpt lat="37.09625017245843" lon="14.676610708320997"><ele>482.0</ele><time>2026-05-03T13:45:54Z</time></trkpt><trkpt lat="37.09633488696537" lon="14.676486991105893"><ele>482.0</ele><time>2026-05-03T13:45:55Z</time></trkpt><trkpt lat="37.09642612841351" lon="14.676406158497613"><ele>482.0</ele><time>2026-05-03T13:45:56Z</time></trkpt><trkpt lat="37.096499822891445" lon="14.676352192744703"><ele>481.99999999999994</ele><time>2026-05-03T13:45:57Z</time></trkpt><trkpt lat="37.09655509102922" lon="14.67630355816853"><ele>482.0</ele><time>2026-05-03T13:46:00Z</time></trkpt><trkpt lat="37.09664557283498" lon="14.676222844517637"><ele>482.0</ele><time>2026-05-03T13:46:02Z</time></trkpt><trkpt lat="37.09670747513027" lon="14.676178355893228"><ele>482.0</ele><time>2026-05-03T13:46:04Z</time></trkpt><trkpt lat="37.09669678586227" lon="14.676092356745661"><ele>481.99999999999994</ele><time>2026-05-03T13:46:11Z</time></trkpt><trkpt lat="37.09666442763527" lon="14.676010348580284"><ele>482.0</ele><time>2026-05-03T13:46:16Z</time></trkpt><trkpt lat="37.09661894651278" lon="14.675932488380868"><ele>481.5714285714286</ele><time>2026-05-03T13:46:20Z</time></trkpt><trkpt lat="37.09658894214394" lon="14.6758466023139"><ele>481.1428571428572</ele><time>2026-05-03T13:46:23Z</time></trkpt><trkpt lat="37.096584502758645" lon="14.675737831634775"><ele>480.7142857142857</ele><time>2026-05-03T13:46:31Z</time></trkpt><trkpt lat="37.09655885116647" lon="14.675660584861486"><ele>480.28571428571433</ele><time>2026-05-03T13:46:33Z</time></trkpt><trkpt lat="37.09651287069823" lon="14.67560008537179"><ele>479.8571428571429</ele><time>2026-05-03T13:46:35Z</time></trkpt><trkpt lat="37.09647522084399" lon="14.675535809234443"><ele>479.42857142857144</ele><time>2026-05-03T13:46:38Z</time></trkpt><trkpt lat="37.09642861925326" lon="14.675471284335261"><ele>479.0</ele><time>2026-05-03T13:46:47Z</time></trkpt><trkpt lat="37.096494320036605" lon="14.675434317489534"><ele>479.0</ele><time>2026-05-03T13:46:55Z</time></trkpt><trkpt lat="37.09657030519975" lon="14.675391259533361"><ele>479.0</ele><time>2026-05-03T13:46:58Z</time></trkpt><trkpt lat="37.09662887289429" lon="14.675341367018431"><ele>479.0</ele><time>2026-05-03T13:47:00Z</time></trkpt><trkpt lat="37.09665920049709" lon="14.67527011680393"><ele>479.0</ele><time>2026-05-03T13:47:01.999Z</time></trkpt><trkpt lat="37.096666145679585" lon="14.675168524846587"><ele>479.0</ele><time>2026-05-03T13:47:04.999Z</time></trkpt><trkpt lat="37.0966892289848" lon="14.675078165058626"><ele>479.0</ele><time>2026-05-03T13:47:08.999Z</time></trkpt><trkpt lat="37.09672139947051" lon="14.67500937353194"><ele>479.0</ele><time>2026-05-03T13:47:10.999Z</time></trkpt><trkpt lat="37.09675292431227" lon="14.674913477785475"><ele>478.66666666666663</ele><time>2026-05-03T13:47:13.999Z</time></trkpt><trkpt lat="37.09678172128294" lon="14.6748186694187"><ele>478.3333333333333</ele><time>2026-05-03T13:47:16.999Z</time></trkpt><trkpt lat="37.0968021385225" lon="14.67474337025003"><ele>478.0</ele><time>2026-05-03T13:47:20.999Z</time></trkpt><trkpt lat="37.09682323951805" lon="14.674651184677293"><ele>477.66666666666663</ele><time>2026-05-03T13:47:22.999Z</time></trkpt><trkpt lat="37.096848704802795" lon="14.67456969728577"><ele>477.3333333333333</ele><time>2026-05-03T13:47:24.999Z</time></trkpt><trkpt lat="37.09687227226856" lon="14.674454687220225"><ele>477.0</ele><time>2026-05-03T13:47:30.999Z</time></trkpt><trkpt lat="37.09691263963432" lon="14.674367785715129"><ele>477.0</ele><time>2026-05-03T13:47:37Z</time></trkpt><trkpt lat="37.09695139685549" lon="14.674304753231182"><ele>476.99999999999994</ele><time>2026-05-03T13:47:40Z</time></trkpt><trkpt lat="37.09696255744476" lon="14.674217339305077"><ele>477.0</ele><time>2026-05-03T13:47:49Z</time></trkpt><trkpt lat="37.096950504886834" lon="14.674126318200722"><ele>477.0</ele><time>2026-05-03T13:47:52Z</time></trkpt><trkpt lat="37.09699253580745" lon="14.674057631729912"><ele>476.99999999999994</ele><time>2026-05-03T13:47:56Z</time></trkpt><trkpt lat="37.09704456692941" lon="14.673993441548669"><ele>477.0</ele><time>2026-05-03T13:47:58Z</time></trkpt><trkpt lat="37.09708496850882" lon="14.673929835005831"><ele>477.0</ele><time>2026-05-03T13:48:04Z</time></trkpt><trkpt lat="37.09714753499994" lon="14.673909654370194"><ele>477.0</ele><time>2026-05-03T13:48:09Z</time></trkpt><trkpt lat="37.097175879231415" lon="14.673985429123956"><ele>476.99999999999994</ele><time>2026-05-03T13:50:14Z</time></trkpt><trkpt lat="37.09723480283224" lon="14.674034386434633"><ele>477.0</ele><time>2026-05-03T13:50:19Z</time></trkpt><trkpt lat="37.09729677819453" lon="14.674075615406881"><ele>477.0</ele><time>2026-05-03T13:50:23Z</time></trkpt><trkpt lat="37.09735185191612" lon="14.674158107565066"><ele>476.99999999999994</ele><time>2026-05-03T13:50:26Z</time></trkpt><trkpt lat="37.09739626309125" lon="14.674247577414915"><ele>477.0</ele><time>2026-05-03T13:50:28Z</time></trkpt><trkpt lat="37.09745098458227" lon="14.674287749532136"><ele>477.0</ele><time>2026-05-03T13:50:30Z</time></trkpt><trkpt lat="37.09752323445262" lon="14.674283117889258"><ele>478.57142857142856</ele><time>2026-05-03T13:50:35Z</time></trkpt><trkpt lat="37.09758974904759" lon="14.674270268921282"><ele>480.1428571428571</ele><time>2026-05-03T13:50:40Z</time></trkpt><trkpt lat="37.097656286835075" lon="14.674263116758738"><ele>481.71428571428567</ele><time>2026-05-03T13:50:43Z</time></trkpt><trkpt lat="37.09772690875729" lon="14.674261163528305"><ele>483.2857142857142</ele><time>2026-05-03T13:50:46Z</time></trkpt><trkpt lat="37.097786867908965" lon="14.674310859711403"><ele>484.85714285714283</ele><time>2026-05-03T13:50:49Z</time></trkpt><trkpt lat="37.097850755558554" lon="14.674338687253988"><ele>486.42857142857133</ele><time>2026-05-03T13:51:04Z</time></trkpt><trkpt lat="37.09790720438626" lon="14.674282569671497"><ele>487.99999999999994</ele><time>2026-05-03T13:51:10.999Z</time></trkpt><trkpt lat="37.09797414642497" lon="14.674246278784016"><ele>487.99999999999994</ele><time>2026-05-03T13:51:14.999Z</time></trkpt><trkpt lat="37.09805101807357" lon="14.67422723925172"><ele>488.0</ele><time>2026-05-03T13:51:17.999Z</time></trkpt><trkpt lat="37.098123663070986" lon="14.674163558517296"><ele>488.0</ele><time>2026-05-03T13:51:20.999Z</time></trkpt><trkpt lat="37.09818709877755" lon="14.674144219317501"><ele>488.0</ele><time>2026-05-03T13:51:22.999Z</time></trkpt><trkpt lat="37.09825922056772" lon="14.674177969211115"><ele>487.99999999999994</ele><time>2026-05-03T13:51:30.999Z</time></trkpt><trkpt lat="37.09828373107778" lon="14.674289302575856"><ele>488.0</ele><time>2026-05-03T13:51:32.999Z</time></trkpt><trkpt lat="37.09832427351943" lon="14.674377342241515"><ele>489.1428571428571</ele><time>2026-05-03T13:51:34.999Z</time></trkpt><trkpt lat="37.09836933347809" lon="14.674457983301304"><ele>490.2857142857143</ele><time>2026-05-03T13:51:37.999Z</time></trkpt><trkpt lat="37.098414457995034" lon="14.674542917223208"><ele>491.42857142857144</ele><time>2026-05-03T13:51:40.999Z</time></trkpt><trkpt lat="37.09845617397259" lon="14.67460456758685"><ele>492.57142857142856</ele><time>2026-05-03T13:51:43Z</time></trkpt><trkpt lat="37.09849201424161" lon="14.674682445259773"><ele>493.7142857142858</ele><time>2026-05-03T13:51:47Z</time></trkpt><trkpt lat="37.098537126114465" lon="14.674773976059415"><ele>494.8571428571429</ele><time>2026-05-03T13:51:51Z</time></trkpt><trkpt lat="37.09855315191208" lon="14.674855319320676"><ele>496.0</ele><time>2026-05-03T13:51:54Z</time></trkpt><trkpt lat="37.09863348870441" lon="14.674934823604826"><ele>496.00000000000006</ele><time>2026-05-03T13:51:57Z</time></trkpt><trkpt lat="37.098691893944334" lon="14.674999474743728"><ele>496.0</ele><time>2026-05-03T13:51:58Z</time></trkpt><trkpt lat="37.098771471285865" lon="14.674998376142318"><ele>496.0</ele><time>2026-05-03T13:52:00Z</time></trkpt><trkpt lat="37.0988440287173" lon="14.675025215680451"><ele>496.0</ele><time>2026-05-03T13:57:18Z</time></trkpt><trkpt lat="37.098935213254535" lon="14.675075169420731"><ele>496.00000000000006</ele><time>2026-05-03T14:05:18Z</time></trkpt><trkpt lat="37.09901743718447" lon="14.675124264808556"><ele>496.0</ele><time>2026-05-03T14:05:21Z</time></trkpt><trkpt lat="37.099086817826986" lon="14.675143928169904"><ele>497.50000000000006</ele><time>2026-05-03T14:05:22Z</time></trkpt><trkpt lat="37.09918436053268" lon="14.675182939720841"><ele>499.0</ele><time>2026-05-03T14:05:24Z</time></trkpt><trkpt lat="37.09924467250444" lon="14.675211811489534"><ele>500.5</ele><time>2026-05-03T14:05:25Z</time></trkpt><trkpt lat="37.09933056005888" lon="14.675242815254553"><ele>502.0</ele><time>2026-05-03T14:05:26Z</time></trkpt><trkpt lat="37.09941134315466" lon="14.675275684771544"><ele>503.50000000000006</ele><time>2026-05-03T14:05:27Z</time></trkpt><trkpt lat="37.09948096270712" lon="14.675308988408018"><ele>505.0</ele><time>2026-05-03T14:05:28Z</time></trkpt><trkpt lat="37.099551183758415" lon="14.675347919683306"><ele>505.0</ele><time>2026-05-03T14:05:29Z</time></trkpt><trkpt lat="37.099637449488874" lon="14.675393559801652"><ele>505.0</ele><time>2026-05-03T14:05:30Z</time></trkpt><trkpt lat="37.0997367061407" lon="14.675445252309142"><ele>505.0</ele><time>2026-05-03T14:05:31Z</time></trkpt><trkpt lat="37.09982927764858" lon="14.675502518023407"><ele>505.0</ele><time>2026-05-03T14:05:32Z</time></trkpt><trkpt lat="37.0999171263891" lon="14.675559964765903"><ele>505.0</ele><time>2026-05-03T14:05:33Z</time></trkpt><trkpt lat="37.10000841640927" lon="14.675615362296245"><ele>501.4</ele><time>2026-05-03T14:05:34Z</time></trkpt><trkpt lat="37.10010182726548" lon="14.675673860413868"><ele>497.8</ele><time>2026-05-03T14:05:35Z</time></trkpt><trkpt lat="37.100194336962645" lon="14.675733389289116"><ele>494.20000000000005</ele><time>2026-05-03T14:05:36Z</time></trkpt><trkpt lat="37.10027916750611" lon="14.675789788979198"><ele>490.6</ele><time>2026-05-03T14:05:37Z</time></trkpt><trkpt lat="37.10035470741229" lon="14.675843976754907"><ele>487.0</ele><time>2026-05-03T14:05:38Z</time></trkpt><trkpt lat="37.10042741221997" lon="14.675903117116441"><ele>487.0</ele><time>2026-05-03T14:05:39Z</time></trkpt><trkpt lat="37.10050735146899" lon="14.675961415591082"><ele>487.00000000000006</ele><time>2026-05-03T14:05:40Z</time></trkpt><trkpt lat="37.10058956007352" lon="14.676025481132001"><ele>487.00000000000006</ele><time>2026-05-03T14:05:41Z</time></trkpt><trkpt lat="37.1006690215414" lon="14.676101404490797"><ele>487.0</ele><time>2026-05-03T14:05:41.999Z</time></trkpt><trkpt lat="37.10075615123386" lon="14.676196071025402"><ele>487.0</ele><time>2026-05-03T14:05:42.999Z</time></trkpt><trkpt lat="37.100839823475525" lon="14.676304061657277"><ele>486.6</ele><time>2026-05-03T14:05:43.999Z</time></trkpt><trkpt lat="37.10091088264032" lon="14.676409957542957"><ele>486.20000000000005</ele><time>2026-05-03T14:05:44.999Z</time></trkpt><trkpt lat="37.10097313612832" lon="14.676504621424629"><ele>485.8</ele><time>2026-05-03T14:05:45.999Z</time></trkpt><trkpt lat="37.10103060226851" lon="14.676596974286065"><ele>485.4</ele><time>2026-05-03T14:05:46.999Z</time></trkpt><trkpt lat="37.10108839012613" lon="14.676684791015395"><ele>485.0</ele><time>2026-05-03T14:05:47.999Z</time></trkpt><trkpt lat="37.10114503775513" lon="14.67676714764888"><ele>485.0</ele><time>2026-05-03T14:05:48.999Z</time></trkpt><trkpt lat="37.10119652498636" lon="14.676858685903655"><ele>485.0</ele><time>2026-05-03T14:05:49.999Z</time></trkpt><trkpt lat="37.10123688595713" lon="14.676972811346555"><ele>485.0</ele><time>2026-05-03T14:05:50.999Z</time></trkpt><trkpt lat="37.10127943135635" lon="14.677083664200687"><ele>485.0</ele><time>2026-05-03T14:05:51.999Z</time></trkpt><trkpt lat="37.10129811316342" lon="14.677204637147483"><ele>485.0</ele><time>2026-05-03T14:05:52.999Z</time></trkpt><trkpt lat="37.10132043553583" lon="14.677326501119714"><ele>486.8</ele><time>2026-05-03T14:05:53.999Z</time></trkpt><trkpt lat="37.101343712127616" lon="14.67744334498326"><ele>488.6</ele><time>2026-05-03T14:05:54.999Z</time></trkpt><trkpt lat="37.10133735788023" lon="14.677564624063471"><ele>490.4</ele><time>2026-05-03T14:05:55.999Z</time></trkpt><trkpt lat="37.10132335688142" lon="14.677696342594427"><ele>492.2</ele><time>2026-05-03T14:05:56.999Z</time></trkpt><trkpt lat="37.1013019032436" lon="14.677830217730106"><ele>494.0</ele><time>2026-05-03T14:05:57.999Z</time></trkpt><trkpt lat="37.10127445989515" lon="14.677959739646909"><ele>494.0</ele><time>2026-05-03T14:05:58.999Z</time></trkpt><trkpt lat="37.10124340473656" lon="14.678075575437962"><ele>494.0</ele><time>2026-05-03T14:05:59.999Z</time></trkpt><trkpt lat="37.101200373163955" lon="14.678183906489549"><ele>494.0</ele><time>2026-05-03T14:06:00.999Z</time></trkpt><trkpt lat="37.10114931204763" lon="14.678299476147986"><ele>494.0</ele><time>2026-05-03T14:06:01.999Z</time></trkpt><trkpt lat="37.10109758832354" lon="14.678433573008778"><ele>494.0</ele><time>2026-05-03T14:06:02.999Z</time></trkpt><trkpt lat="37.10105767314161" lon="14.678524138472449"><ele>494.0</ele><time>2026-05-03T14:06:03.999Z</time></trkpt><trkpt lat="37.10105229268689" lon="14.678646047554015"><ele>494.0</ele><time>2026-05-03T14:06:05.999Z</time></trkpt><trkpt lat="37.10117681597822" lon="14.678685603896994"><ele>494.0</ele><time>2026-05-03T14:06:07.999Z</time></trkpt><trkpt lat="37.10125220200628" lon="14.678645696758483"><ele>494.0</ele><time>2026-05-03T14:06:08.999Z</time></trkpt><trkpt lat="37.10130960398033" lon="14.678557396587205"><ele>494.0</ele><time>2026-05-03T14:06:09.999Z</time></trkpt><trkpt lat="37.10136219853341" lon="14.678451143546216"><ele>494.0</ele><time>2026-05-03T14:06:10.999Z</time></trkpt><trkpt lat="37.10146028017201" lon="14.678339422267815"><ele>494.0</ele><time>2026-05-03T14:06:11.999Z</time></trkpt><trkpt lat="37.10153084311523" lon="14.678217604930216"><ele>494.0</ele><time>2026-05-03T14:06:12.999Z</time></trkpt><trkpt lat="37.10163519119168" lon="14.678163528550275"><ele>494.0</ele><time>2026-05-03T14:06:13.999Z</time></trkpt><trkpt lat="37.10171362985554" lon="14.678104465567007"><ele>490.3333333333333</ele><time>2026-05-03T14:06:14.999Z</time></trkpt><trkpt lat="37.10179849497859" lon="14.67808347790782"><ele>486.66666666666663</ele><time>2026-05-03T14:06:15.999Z</time></trkpt><trkpt lat="37.10190719832224" lon="14.678055051218445"><ele>483.0</ele><time>2026-05-03T14:06:16.999Z</time></trkpt><trkpt lat="37.101996605643286" lon="14.67806152476844"><ele>479.33333333333337</ele><time>2026-05-03T14:06:17.999Z</time></trkpt><trkpt lat="37.10206742406896" lon="14.678090926227402"><ele>475.6666666666667</ele><time>2026-05-03T14:06:18.999Z</time></trkpt><trkpt lat="37.102142123061746" lon="14.67814022495638"><ele>472.0</ele><time>2026-05-03T14:06:19.999Z</time></trkpt><trkpt lat="37.102230796499974" lon="14.6782429262755"><ele>472.0</ele><time>2026-05-03T14:06:20.999Z</time></trkpt><trkpt lat="37.10232643337794" lon="14.678333696743612"><ele>472.0</ele><time>2026-05-03T14:06:21.999Z</time></trkpt><trkpt lat="37.10242717424159" lon="14.67839195141156"><ele>472.0</ele><time>2026-05-03T14:06:22.999Z</time></trkpt><trkpt lat="37.10254009649011" lon="14.678430873137447"><ele>472.0</ele><time>2026-05-03T14:06:24Z</time></trkpt><trkpt lat="37.10265404748469" lon="14.678460336878862"><ele>472.5</ele><time>2026-05-03T14:06:25Z</time></trkpt><trkpt lat="37.102758932801656" lon="14.678496293019801"><ele>473.0</ele><time>2026-05-03T14:06:26Z</time></trkpt><trkpt lat="37.102850860207944" lon="14.678546024444477"><ele>473.5</ele><time>2026-05-03T14:06:27Z</time></trkpt><trkpt lat="37.10295675539627" lon="14.678607733643059"><ele>474.0</ele><time>2026-05-03T14:06:28Z</time></trkpt><trkpt lat="37.10307673200128" lon="14.678669201163782"><ele>475.0</ele><time>2026-05-03T14:06:29Z</time></trkpt><trkpt lat="37.103203218641454" lon="14.678735347503707"><ele>476.0</ele><time>2026-05-03T14:06:30Z</time></trkpt><trkpt lat="37.10334584811127" lon="14.678781933736875"><ele>477.0</ele><time>2026-05-03T14:06:31Z</time></trkpt><trkpt lat="37.10349659109571" lon="14.678800954554873"><ele>478.0</ele><time>2026-05-03T14:06:32Z</time></trkpt><trkpt lat="37.10365138835017" lon="14.678826494670732"><ele>478.0</ele><time>2026-05-03T14:06:33Z</time></trkpt><trkpt lat="37.10378625623894" lon="14.678851561157387"><ele>478.0</ele><time>2026-05-03T14:06:34Z</time></trkpt><trkpt lat="37.103916350616394" lon="14.678887356545104"><ele>478.0</ele><time>2026-05-03T14:06:35Z</time></trkpt><trkpt lat="37.10404190081047" lon="14.678925967157758"><ele>478.0</ele><time>2026-05-03T14:06:36Z</time></trkpt><trkpt lat="37.10418582445088" lon="14.678967631963225"><ele>476.75</ele><time>2026-05-03T14:06:37Z</time></trkpt><trkpt lat="37.10432457469701" lon="14.67900974400062"><ele>475.5</ele><time>2026-05-03T14:06:38Z</time></trkpt><trkpt lat="37.104466202194935" lon="14.679067122248451"><ele>474.25</ele><time>2026-05-03T14:06:39Z</time></trkpt><trkpt lat="37.104607844121226" lon="14.679135492931811"><ele>473.0</ele><time>2026-05-03T14:06:40Z</time></trkpt><trkpt lat="37.10474185189499" lon="14.679214231094301"><ele>473.0</ele><time>2026-05-03T14:06:41Z</time></trkpt><trkpt lat="37.104879354222085" lon="14.679301616347214"><ele>473.0</ele><time>2026-05-03T14:06:42Z</time></trkpt><trkpt lat="37.1050044281276" lon="14.679377964616782"><ele>473.0</ele><time>2026-05-03T14:06:43Z</time></trkpt><trkpt lat="37.105140382408635" lon="14.67944504856438"><ele>473.0</ele><time>2026-05-03T14:06:44Z</time></trkpt><trkpt lat="37.105273800953846" lon="14.679496156242186"><ele>473.75</ele><time>2026-05-03T14:06:45Z</time></trkpt><trkpt lat="37.10541009659182" lon="14.67955266868958"><ele>474.5</ele><time>2026-05-03T14:06:46Z</time></trkpt><trkpt lat="37.105539183049835" lon="14.679614315467274"><ele>475.25</ele><time>2026-05-03T14:06:47Z</time></trkpt><trkpt lat="37.10566491915128" lon="14.67968804107129"><ele>476.0</ele><time>2026-05-03T14:06:48Z</time></trkpt><trkpt lat="37.10579241573092" lon="14.679764787461993"><ele>476.0</ele><time>2026-05-03T14:06:49Z</time></trkpt><trkpt lat="37.105913944456994" lon="14.679841723881054"><ele>476.0</ele><time>2026-05-03T14:06:50Z</time></trkpt><trkpt lat="37.106034542860336" lon="14.67992285628804"><ele>476.0</ele><time>2026-05-03T14:06:51Z</time></trkpt><trkpt lat="37.10616023682757" lon="14.680003350459833"><ele>476.0</ele><time>2026-05-03T14:06:52Z</time></trkpt><trkpt lat="37.10628968576712" lon="14.68007587606675"><ele>476.0</ele><time>2026-05-03T14:06:53Z</time></trkpt><trkpt lat="37.106418767589055" lon="14.680146295694902"><ele>476.0</ele><time>2026-05-03T14:06:54Z</time></trkpt><trkpt lat="37.10654664163991" lon="14.680209159391492"><ele>476.0</ele><time>2026-05-03T14:06:55Z</time></trkpt><trkpt lat="37.10668574263077" lon="14.680249359517306"><ele>476.0</ele><time>2026-05-03T14:06:56Z</time></trkpt><trkpt lat="37.10682757272989" lon="14.680278527596908"><ele>478.0</ele><time>2026-05-03T14:06:57Z</time></trkpt><trkpt lat="37.106942894206824" lon="14.680315000709447"><ele>480.0</ele><time>2026-05-03T14:06:58Z</time></trkpt><trkpt lat="37.107028438146685" lon="14.680389507148154"><ele>482.0</ele><time>2026-05-03T14:06:59Z</time></trkpt><trkpt lat="37.10713449549638" lon="14.680472124461323"><ele>484.0</ele><time>2026-05-03T14:07:00Z</time></trkpt><trkpt lat="37.10724670785516" lon="14.680550394206438"><ele>484.0</ele><time>2026-05-03T14:07:01Z</time></trkpt><trkpt lat="37.10735125755238" lon="14.68063590507695"><ele>484.0</ele><time>2026-05-03T14:07:02Z</time></trkpt><trkpt lat="37.107466701893124" lon="14.680705254412652"><ele>484.0</ele><time>2026-05-03T14:07:03Z</time></trkpt><trkpt lat="37.10758913664228" lon="14.680740823133204"><ele>484.0</ele><time>2026-05-03T14:07:04Z</time></trkpt><trkpt lat="37.1077246850069" lon="14.680784792655754"><ele>481.25</ele><time>2026-05-03T14:07:05Z</time></trkpt><trkpt lat="37.10785420130814" lon="14.680828780376176"><ele>478.5</ele><time>2026-05-03T14:07:06Z</time></trkpt><trkpt lat="37.1079927724075" lon="14.68087665983425"><ele>475.75</ele><time>2026-05-03T14:07:07Z</time></trkpt><trkpt lat="37.108120594985266" lon="14.680920825370002"><ele>473.0</ele><time>2026-05-03T14:07:08Z</time></trkpt><trkpt lat="37.10827269271253" lon="14.680972948749837"><ele>472.0</ele><time>2026-05-03T14:07:09Z</time></trkpt><trkpt lat="37.1083999323573" lon="14.681015128790943"><ele>471.0</ele><time>2026-05-03T14:07:10Z</time></trkpt><trkpt lat="37.108506566206906" lon="14.681048999811253"><ele>470.0</ele><time>2026-05-03T14:07:11Z</time></trkpt><trkpt lat="37.108611620531" lon="14.681082715077439"><ele>469.0</ele><time>2026-05-03T14:07:12Z</time></trkpt><trkpt lat="37.108713386327516" lon="14.681130907488994"><ele>471.2</ele><time>2026-05-03T14:07:13Z</time></trkpt><trkpt lat="37.108802844053656" lon="14.68120945048593"><ele>473.4</ele><time>2026-05-03T14:07:14Z</time></trkpt><trkpt lat="37.10888078626401" lon="14.681295899754359"><ele>475.6</ele><time>2026-05-03T14:07:15Z</time></trkpt><trkpt lat="37.10895332484269" lon="14.68138535530911"><ele>477.8</ele><time>2026-05-03T14:07:16Z</time></trkpt><trkpt lat="37.1089884616954" lon="14.681480472447388"><ele>480.0</ele><time>2026-05-03T14:07:17Z</time></trkpt><trkpt lat="37.10898730200441" lon="14.681569548743989"><ele>480.0</ele><time>2026-05-03T14:07:18Z</time></trkpt><trkpt lat="37.108993885180666" lon="14.681657211865055"><ele>480.0</ele><time>2026-05-03T14:07:19Z</time></trkpt><trkpt lat="37.1090243390142" lon="14.681754652094947"><ele>480.0</ele><time>2026-05-03T14:07:20Z</time></trkpt><trkpt lat="37.109136712419826" lon="14.681777068532353"><ele>480.0</ele><time>2026-05-03T14:07:21Z</time></trkpt><trkpt lat="37.109213866966286" lon="14.681850870263272"><ele>480.0</ele><time>2026-05-03T14:07:22Z</time></trkpt><trkpt lat="37.10929405065274" lon="14.681926679051776"><ele>481.25</ele><time>2026-05-03T14:07:23Z</time></trkpt><trkpt lat="37.109380087685714" lon="14.681997201066192"><ele>482.5</ele><time>2026-05-03T14:07:24Z</time></trkpt><trkpt lat="37.10947638602815" lon="14.68207017497757"><ele>483.75</ele><time>2026-05-03T14:07:25Z</time></trkpt><trkpt lat="37.109575680239516" lon="14.68214545486547"><ele>485.0</ele><time>2026-05-03T14:07:26Z</time></trkpt><trkpt lat="37.10967983457258" lon="14.682228186785915"><ele>485.0</ele><time>2026-05-03T14:07:27Z</time></trkpt><trkpt lat="37.109778464254845" lon="14.682306530506839"><ele>485.0</ele><time>2026-05-03T14:07:28Z</time></trkpt><trkpt lat="37.109869289945614" lon="14.682379317108838"><ele>485.0</ele><time>2026-05-03T14:07:29Z</time></trkpt><trkpt lat="37.10995482575006" lon="14.682465854912483"><ele>485.0</ele><time>2026-05-03T14:07:30Z</time></trkpt><trkpt lat="37.110020149101" lon="14.68255407782564"><ele>485.0</ele><time>2026-05-03T14:07:31Z</time></trkpt><trkpt lat="37.110081760728015" lon="14.682632968661332"><ele>483.8</ele><time>2026-05-03T14:07:32Z</time></trkpt><trkpt lat="37.11013647402639" lon="14.682691415465923"><ele>482.6</ele><time>2026-05-03T14:07:33Z</time></trkpt><trkpt lat="37.11018232635995" lon="14.682754556256207"><ele>481.4</ele><time>2026-05-03T14:07:34Z</time></trkpt><trkpt lat="37.11026193529471" lon="14.68280667848283"><ele>480.2</ele><time>2026-05-03T14:07:36Z</time></trkpt><trkpt lat="37.110200516590396" lon="14.682979079034086"><ele>479.0</ele><time>2026-05-03T14:07:37Z</time></trkpt><trkpt lat="37.11020221529119" lon="14.683121535144295"><ele>479.0</ele><time>2026-05-03T14:07:39Z</time></trkpt><trkpt lat="37.11016891606242" lon="14.68323561795936"><ele>479.0</ele><time>2026-05-03T14:07:41Z</time></trkpt><trkpt lat="37.11012983178311" lon="14.683297817605554"><ele>479.0</ele><time>2026-05-03T14:07:42Z</time></trkpt><trkpt lat="37.1100920839143" lon="14.683372718963986"><ele>479.0</ele><time>2026-05-03T14:07:42.999Z</time></trkpt><trkpt lat="37.11005339040077" lon="14.683442595320958"><ele>479.0</ele><time>2026-05-03T14:07:43.999Z</time></trkpt><trkpt lat="37.11000516841925" lon="14.683502431264676"><ele>479.0</ele><time>2026-05-03T14:07:44.999Z</time></trkpt><trkpt lat="37.10994833722561" lon="14.683553496308656"><ele>479.0</ele><time>2026-05-03T14:07:45.999Z</time></trkpt><trkpt lat="37.10988609631574" lon="14.68363545703749"><ele>478.66666666666663</ele><time>2026-05-03T14:07:46.999Z</time></trkpt><trkpt lat="37.109822894572275" lon="14.68371982869393"><ele>478.3333333333333</ele><time>2026-05-03T14:07:47.999Z</time></trkpt><trkpt lat="37.10978056210872" lon="14.683794072117687"><ele>478.0</ele><time>2026-05-03T14:07:48.999Z</time></trkpt><trkpt lat="37.10976888323616" lon="14.683890094644354"><ele>477.66666666666663</ele><time>2026-05-03T14:07:50.999Z</time></trkpt><trkpt lat="37.10984052817368" lon="14.68395022968492"><ele>477.3333333333333</ele><time>2026-05-03T14:07:52.999Z</time></trkpt><trkpt lat="37.10991211757111" lon="14.683974505163716"><ele>477.0</ele><time>2026-05-03T14:07:53.999Z</time></trkpt><trkpt lat="37.110002441491076" lon="14.684017124936808"><ele>477.0</ele><time>2026-05-03T14:07:54.999Z</time></trkpt><trkpt lat="37.11008906409119" lon="14.684087580427171"><ele>477.00000000000006</ele><time>2026-05-03T14:07:55.999Z</time></trkpt><trkpt lat="37.110134891154544" lon="14.684154678734235"><ele>477.00000000000006</ele><time>2026-05-03T14:07:56.999Z</time></trkpt><trkpt lat="37.110156482866806" lon="14.684244329427127"><ele>477.0</ele><time>2026-05-03T14:07:57.999Z</time></trkpt><trkpt lat="37.11017970738165" lon="14.684365990778995"><ele>477.0</ele><time>2026-05-03T14:07:58.999Z</time></trkpt><trkpt lat="37.11020933693868" lon="14.684502201427307"><ele>478.6666666666667</ele><time>2026-05-03T14:07:59.999Z</time></trkpt><trkpt lat="37.11023996474334" lon="14.684627476327313"><ele>480.33333333333337</ele><time>2026-05-03T14:08:00.999Z</time></trkpt><trkpt lat="37.110264836613666" lon="14.684728621370267"><ele>482.0</ele><time>2026-05-03T14:08:01.999Z</time></trkpt><trkpt lat="37.11028898430291" lon="14.684804489316491"><ele>483.6666666666667</ele><time>2026-05-03T14:08:03.999Z</time></trkpt><trkpt lat="37.11034951702405" lon="14.68485771265481"><ele>485.33333333333337</ele><time>2026-05-03T14:08:34Z</time></trkpt><trkpt lat="37.110438953560966" lon="14.684870190809724"><ele>487.0</ele><time>2026-05-03T14:10:37Z</time></trkpt><trkpt lat="37.11053534986729" lon="14.684909942482651"><ele>487.0</ele><time>2026-05-03T14:10:39Z</time></trkpt><trkpt lat="37.11056222395604" lon="14.685020508685854"><ele>487.00000000000006</ele><time>2026-05-03T14:10:41Z</time></trkpt><trkpt lat="37.11057712288237" lon="14.68510365013418"><ele>487.00000000000006</ele><time>2026-05-03T14:10:43Z</time></trkpt><trkpt lat="37.11060198552538" lon="14.68518215158925"><ele>487.0</ele><time>2026-05-03T14:11:22Z</time></trkpt><trkpt lat="37.110646444407216" lon="14.685315121901336"><ele>487.0</ele><time>2026-05-03T14:11:23Z</time></trkpt><trkpt lat="37.110686822519355" lon="14.685468021223016"><ele>484.5</ele><time>2026-05-03T14:11:24Z</time></trkpt><trkpt lat="37.11075539490948" lon="14.685614079480164"><ele>482.0</ele><time>2026-05-03T14:11:25Z</time></trkpt><trkpt lat="37.110822720336614" lon="14.685751756671717"><ele>479.5</ele><time>2026-05-03T14:11:26Z</time></trkpt><trkpt lat="37.110900620596034" lon="14.68587458092298"><ele>477.0</ele><time>2026-05-03T14:11:27Z</time></trkpt><trkpt lat="37.11096779164507" lon="14.68598889828889"><ele>480.25</ele><time>2026-05-03T14:11:28Z</time></trkpt><trkpt lat="37.11104739542179" lon="14.686112448015637"><ele>483.5</ele><time>2026-05-03T14:11:29Z</time></trkpt><trkpt lat="37.1111316334708" lon="14.686232587669373"><ele>486.75</ele><time>2026-05-03T14:11:30Z</time></trkpt><trkpt lat="37.111209102302496" lon="14.686348612482186"><ele>490.0</ele><time>2026-05-03T14:11:31Z</time></trkpt><trkpt lat="37.11128841263408" lon="14.686463068848658"><ele>490.00000000000006</ele><time>2026-05-03T14:11:32Z</time></trkpt><trkpt lat="37.11136310223754" lon="14.686565573893652"><ele>490.0</ele><time>2026-05-03T14:11:33Z</time></trkpt><trkpt lat="37.111414719853634" lon="14.686662437876738"><ele>490.0</ele><time>2026-05-03T14:11:34Z</time></trkpt><trkpt lat="37.11140872092756" lon="14.686743382716037"><ele>490.0</ele><time>2026-05-03T14:11:35Z</time></trkpt><trkpt lat="37.111397631661006" lon="14.686836221026427"><ele>490.00000000000006</ele><time>2026-05-03T14:11:36Z</time></trkpt><trkpt lat="37.11138838027261" lon="14.686950611663352"><ele>490.0</ele><time>2026-05-03T14:11:37Z</time></trkpt><trkpt lat="37.111367025996714" lon="14.687057134981574"><ele>488.75</ele><time>2026-05-03T14:11:38Z</time></trkpt><trkpt lat="37.11132271914105" lon="14.687158143304757"><ele>487.5</ele><time>2026-05-03T14:11:39Z</time></trkpt><trkpt lat="37.11121553637888" lon="14.687265480835855"><ele>486.25</ele><time>2026-05-03T14:11:40Z</time></trkpt><trkpt lat="37.11113794068794" lon="14.687369943738767"><ele>485.0</ele><time>2026-05-03T14:11:41Z</time></trkpt><trkpt lat="37.1110855418651" lon="14.687502202148258"><ele>484.99999999999994</ele><time>2026-05-03T14:11:43Z</time></trkpt><trkpt lat="37.11103804746684" lon="14.687567179824656"><ele>485.0</ele><time>2026-05-03T14:11:44Z</time></trkpt><trkpt lat="37.1110221825097" lon="14.68766332779949"><ele>485.0</ele><time>2026-05-03T14:11:45Z</time></trkpt><trkpt lat="37.111017097560044" lon="14.687763875555977"><ele>485.0</ele><time>2026-05-03T14:11:46Z</time></trkpt><trkpt lat="37.11100203141875" lon="14.687852383643818"><ele>484.99999999999994</ele><time>2026-05-03T14:11:47Z</time></trkpt><trkpt lat="37.11101433529114" lon="14.687942888190316"><ele>485.0</ele><time>2026-05-03T14:11:48Z</time></trkpt><trkpt lat="37.11110310572498" lon="14.687961822217193"><ele>485.0</ele><time>2026-05-03T14:11:50Z</time></trkpt><trkpt lat="37.11115010467504" lon="14.687885887554284"><ele>485.0</ele><time>2026-05-03T14:11:51Z</time></trkpt><trkpt lat="37.11117175776245" lon="14.68780861443845"><ele>485.0</ele><time>2026-05-03T14:11:52Z</time></trkpt><trkpt lat="37.11122118308086" lon="14.687697281656996"><ele>485.0</ele><time>2026-05-03T14:11:55Z</time></trkpt><trkpt lat="37.11125678161667" lon="14.687613193330552"><ele>485.0</ele><time>2026-05-03T14:11:58Z</time></trkpt><trkpt lat="37.11158240239144" lon="14.687456876662445"><ele>482.99999999999994</ele><time>2026-05-03T14:11:59.999Z</time></trkpt><trkpt lat="37.11167909540725" lon="14.687406870838986"><ele>481.0</ele><time>2026-05-03T14:12:00.999Z</time></trkpt><trkpt lat="37.11176465244102" lon="14.687361308892083"><ele>479.0</ele><time>2026-05-03T14:12:01.999Z</time></trkpt><trkpt lat="37.111826088019406" lon="14.687318364253784"><ele>477.0</ele><time>2026-05-03T14:12:02.999Z</time></trkpt><trkpt lat="37.11189346290773" lon="14.687272017045016"><ele>474.99999999999994</ele><time>2026-05-03T14:12:03.999Z</time></trkpt><trkpt lat="37.11194971815308" lon="14.687225297427771"><ele>473.0</ele><time>2026-05-03T14:12:04.999Z</time></trkpt><trkpt lat="37.11202391147097" lon="14.687160775230332"><ele>473.0</ele><time>2026-05-03T14:12:05.999Z</time></trkpt><trkpt lat="37.1120945766427" lon="14.687101431504937"><ele>472.99999999999994</ele><time>2026-05-03T14:12:06.999Z</time></trkpt><trkpt lat="37.11217149561604" lon="14.687072837056554"><ele>472.99999999999994</ele><time>2026-05-03T14:12:07.999Z</time></trkpt><trkpt lat="37.11226117756361" lon="14.686993389083188"><ele>473.0</ele><time>2026-05-03T14:12:09.999Z</time></trkpt><trkpt lat="37.11232523077546" lon="14.686874336217846"><ele>473.0</ele><time>2026-05-03T14:12:11.999Z</time></trkpt><trkpt lat="37.11232906474218" lon="14.686793046007384"><ele>471.3333333333333</ele><time>2026-05-03T14:12:12.999Z</time></trkpt><trkpt lat="37.11233712663326" lon="14.686706903404032"><ele>469.66666666666663</ele><time>2026-05-03T14:12:13.999Z</time></trkpt><trkpt lat="37.11235002928" lon="14.686603577722515"><ele>468.0</ele><time>2026-05-03T14:12:14.999Z</time></trkpt><trkpt lat="37.112369204417746" lon="14.686499071008273"><ele>466.33333333333337</ele><time>2026-05-03T14:12:15.999Z</time></trkpt><trkpt lat="37.11238620814345" lon="14.686399117860779"><ele>464.6666666666667</ele><time>2026-05-03T14:12:16.999Z</time></trkpt><trkpt lat="37.11242691075786" lon="14.68628981943786"><ele>463.0</ele><time>2026-05-03T14:12:17.999Z</time></trkpt><trkpt lat="37.11243248954906" lon="14.68619119716075"><ele>461.33333333333337</ele><time>2026-05-03T14:12:18.999Z</time></trkpt><trkpt lat="37.11242802645419" lon="14.686093743790925"><ele>459.6666666666667</ele><time>2026-05-03T14:12:19.999Z</time></trkpt><trkpt lat="37.11242929907086" lon="14.685989692488247"><ele>458.0</ele><time>2026-05-03T14:12:20.999Z</time></trkpt><trkpt lat="37.11239316310766" lon="14.685876122852086"><ele>456.33333333333337</ele><time>2026-05-03T14:12:21.999Z</time></trkpt><trkpt lat="37.11238243420466" lon="14.685782544327042"><ele>454.6666666666667</ele><time>2026-05-03T14:12:22.999Z</time></trkpt><trkpt lat="37.112374622530155" lon="14.685692470462964"><ele>453.0</ele><time>2026-05-03T14:12:23.999Z</time></trkpt><trkpt lat="37.112358889052445" lon="14.685608503314517"><ele>453.0</ele><time>2026-05-03T14:12:24.999Z</time></trkpt><trkpt lat="37.11233121990305" lon="14.685529539919536"><ele>453.0</ele><time>2026-05-03T14:12:25.999Z</time></trkpt><trkpt lat="37.11230402376444" lon="14.68539836011329"><ele>453.0</ele><time>2026-05-03T14:12:27.999Z</time></trkpt><trkpt lat="37.11229144908122" lon="14.68529986178744"><ele>453.0</ele><time>2026-05-03T14:12:30.999Z</time></trkpt><trkpt lat="37.11229162336796" lon="14.68520094384342"><ele>453.0</ele><time>2026-05-03T14:12:33.999Z</time></trkpt><trkpt lat="37.112291501437184" lon="14.685060093448232"><ele>453.0</ele><time>2026-05-03T14:12:34.999Z</time></trkpt><trkpt lat="37.1123261813223" lon="14.684945204617794"><ele>453.0</ele><time>2026-05-03T14:12:36.999Z</time></trkpt><trkpt lat="37.11236281428475" lon="14.684813054440582"><ele>453.0</ele><time>2026-05-03T14:12:38.999Z</time></trkpt><trkpt lat="37.11240412871305" lon="14.684699719600543"><ele>453.0</ele><time>2026-05-03T14:12:40.999Z</time></trkpt><trkpt lat="37.11243667454236" lon="14.684607334155833"><ele>453.0</ele><time>2026-05-03T14:12:43Z</time></trkpt><trkpt lat="37.11250030382808" lon="14.68459967628693"><ele>453.0</ele><time>2026-05-03T14:12:47Z</time></trkpt><trkpt lat="37.11247849329317" lon="14.68471094297653"><ele>453.0</ele><time>2026-05-03T14:12:50Z</time></trkpt><trkpt lat="37.112534839616806" lon="14.684795801305818"><ele>459.3333333333333</ele><time>2026-05-03T14:12:53Z</time></trkpt><trkpt lat="37.1125855531512" lon="14.684902249312884"><ele>465.66666666666663</ele><time>2026-05-03T14:12:55Z</time></trkpt><trkpt lat="37.112583376869054" lon="14.685011141764159"><ele>472.0</ele><time>2026-05-03T14:12:57Z</time></trkpt><trkpt lat="37.11258124500901" lon="14.685125470166753"><ele>478.3333333333333</ele><time>2026-05-03T14:12:59Z</time></trkpt><trkpt lat="37.11260440287859" lon="14.685229325268665"><ele>484.66666666666663</ele><time>2026-05-03T14:13:01Z</time></trkpt><trkpt lat="37.1126155431075" lon="14.685319204026944"><ele>491.0</ele><time>2026-05-03T14:13:03Z</time></trkpt><trkpt lat="37.112621037168296" lon="14.685446815790241"><ele>491.16666666666663</ele><time>2026-05-03T14:13:05Z</time></trkpt><trkpt lat="37.11265687581776" lon="14.685537648968339"><ele>491.3333333333333</ele><time>2026-05-03T14:13:07Z</time></trkpt><trkpt lat="37.1126918806026" lon="14.685623379778674"><ele>491.5</ele><time>2026-05-03T14:13:09Z</time></trkpt><trkpt lat="37.112737924970205" lon="14.685685976472698"><ele>491.66666666666663</ele><time>2026-05-03T14:13:12Z</time></trkpt><trkpt lat="37.11280824534804" lon="14.685733930666176"><ele>491.8333333333333</ele><time>2026-05-03T14:13:15Z</time></trkpt><trkpt lat="37.112877407155395" lon="14.685783072531471"><ele>492.0</ele><time>2026-05-03T14:13:17Z</time></trkpt><trkpt lat="37.11300901750129" lon="14.685888609359074"><ele>492.0</ele><time>2026-05-03T14:13:19Z</time></trkpt><trkpt lat="37.11308153201465" lon="14.685957682629025"><ele>492.0</ele><time>2026-05-03T14:13:21Z</time></trkpt><trkpt lat="37.113108697798154" lon="14.686060237269785"><ele>492.0</ele><time>2026-05-03T14:13:23Z</time></trkpt><trkpt lat="37.113087885634066" lon="14.68618074647818"><ele>492.0</ele><time>2026-05-03T14:13:25Z</time></trkpt><trkpt lat="37.11308150775952" lon="14.686279568160248"><ele>492.0</ele><time>2026-05-03T14:13:27Z</time></trkpt><trkpt lat="37.11308008082197" lon="14.686359595091883"><ele>492.0</ele><time>2026-05-03T14:13:29Z</time></trkpt><trkpt lat="37.11312458490959" lon="14.686424509320258"><ele>492.8333333333333</ele><time>2026-05-03T14:13:31Z</time></trkpt><trkpt lat="37.11313931348479" lon="14.686514089052379"><ele>493.66666666666663</ele><time>2026-05-03T14:13:33Z</time></trkpt><trkpt lat="37.11316487442565" lon="14.686607976193073"><ele>494.5</ele><time>2026-05-03T14:13:35Z</time></trkpt><trkpt lat="37.11315435483742" lon="14.686709681872713"><ele>495.3333333333333</ele><time>2026-05-03T14:13:37Z</time></trkpt><trkpt lat="37.11316614533028" lon="14.686818654510311"><ele>496.16666666666663</ele><time>2026-05-03T14:13:40Z</time></trkpt><trkpt lat="37.113186481951615" lon="14.686905168915846"><ele>497.0</ele><time>2026-05-03T14:13:42Z</time></trkpt><trkpt lat="37.11320134951544" lon="14.687018766311501"><ele>500.0</ele><time>2026-05-03T14:13:45Z</time></trkpt><trkpt lat="37.11322108495872" lon="14.687119735769311"><ele>503.00000000000006</ele><time>2026-05-03T14:13:48Z</time></trkpt><trkpt lat="37.113219773115645" lon="14.687209728637315"><ele>506.00000000000006</ele><time>2026-05-03T14:13:50Z</time></trkpt><trkpt lat="37.113219254620276" lon="14.687332107502618"><ele>509.0</ele><time>2026-05-03T14:13:52Z</time></trkpt><trkpt lat="37.11323636182731" lon="14.687415497811978"><ele>512.0</ele><time>2026-05-03T14:13:54Z</time></trkpt><trkpt lat="37.11326106622406" lon="14.687668081780755"><ele>517.8333333333333</ele><time>2026-05-03T14:13:56Z</time></trkpt><trkpt lat="37.11328550361906" lon="14.687772447409833"><ele>523.6666666666666</ele><time>2026-05-03T14:13:57Z</time></trkpt><trkpt lat="37.11331116071705" lon="14.687855506386066"><ele>529.5</ele><time>2026-05-03T14:13:57.999Z</time></trkpt><trkpt lat="37.11334846539894" lon="14.687962447840807"><ele>535.3333333333334</ele><time>2026-05-03T14:13:59.999Z</time></trkpt><trkpt lat="37.113374010610016" lon="14.688047263126213"><ele>541.1666666666667</ele><time>2026-05-03T14:14:01.999Z</time></trkpt><trkpt lat="37.1134120206829" lon="14.688166090287021"><ele>547.0</ele><time>2026-05-03T14:14:03.999Z</time></trkpt><trkpt lat="37.1134607824682" lon="14.688290384639629"><ele>547.0</ele><time>2026-05-03T14:14:05.999Z</time></trkpt><trkpt lat="37.11350242219152" lon="14.688414609086138"><ele>547.0</ele><time>2026-05-03T14:14:07.999Z</time></trkpt><trkpt lat="37.11352555254169" lon="14.68853401354986"><ele>547.0</ele><time>2026-05-03T14:14:09.999Z</time></trkpt><trkpt lat="37.11350938642491" lon="14.688649252955052"><ele>547.0</ele><time>2026-05-03T14:14:11.999Z</time></trkpt><trkpt lat="37.113516031731095" lon="14.688746292519967"><ele>547.0</ele><time>2026-05-03T14:14:13.999Z</time></trkpt><trkpt lat="37.113528747625146" lon="14.688855579217257"><ele>547.2</ele><time>2026-05-03T14:14:15.999Z</time></trkpt><trkpt lat="37.113530830272516" lon="14.688982604334631"><ele>547.4000000000001</ele><time>2026-05-03T14:14:18.999Z</time></trkpt><trkpt lat="37.11350273109406" lon="14.689072446242951"><ele>547.5999999999999</ele><time>2026-05-03T14:14:20.999Z</time></trkpt><trkpt lat="37.11351226465413" lon="14.689204168528612"><ele>547.8</ele><time>2026-05-03T14:14:22.999Z</time></trkpt><trkpt lat="37.11355343826157" lon="14.689300975596945"><ele>548.0</ele><time>2026-05-03T14:14:24.999Z</time></trkpt><trkpt lat="37.11362149480374" lon="14.689387820599306"><ele>547.6666666666666</ele><time>2026-05-03T14:14:26.999Z</time></trkpt><trkpt lat="37.113661814773" lon="14.689452162636847"><ele>547.3333333333333</ele><time>2026-05-03T14:14:29.999Z</time></trkpt><trkpt lat="37.113678014098646" lon="14.689536997013796"><ele>547.0</ele><time>2026-05-03T14:14:33.999Z</time></trkpt><trkpt lat="37.113711158876356" lon="14.689640944475117"><ele>546.6666666666666</ele><time>2026-05-03T14:14:37.999Z</time></trkpt><trkpt lat="37.113734778096" lon="14.689714800455898"><ele>546.3333333333334</ele><time>2026-05-03T14:14:39.999Z</time></trkpt><trkpt lat="37.113807515442836" lon="14.689765236068778"><ele>546.0</ele><time>2026-05-03T14:14:41.999Z</time></trkpt><trkpt lat="37.11387065730578" lon="14.689832993709206"><ele>546.0</ele><time>2026-05-03T14:14:46.999Z</time></trkpt><trkpt lat="37.11390821574539" lon="14.689914595203948"><ele>546.0</ele><time>2026-05-03T14:14:50Z</time></trkpt><trkpt lat="37.11390085210664" lon="14.68999307953561"><ele>546.0</ele><time>2026-05-03T14:14:52Z</time></trkpt><trkpt lat="37.113897044375264" lon="14.69012633170489"><ele>546.0</ele><time>2026-05-03T14:14:54Z</time></trkpt><trkpt lat="37.113898790010765" lon="14.690213240539286"><ele>546.0</ele><time>2026-05-03T14:14:56Z</time></trkpt><trkpt lat="37.11390303424815" lon="14.690292850969671"><ele>546.0</ele><time>2026-05-03T14:14:58Z</time></trkpt><trkpt lat="37.1139347551089" lon="14.690361394357867"><ele>546.0</ele><time>2026-05-03T14:15:00Z</time></trkpt><trkpt lat="37.11393101663912" lon="14.690447200043698"><ele>547.8333333333334</ele><time>2026-05-03T14:15:03Z</time></trkpt><trkpt lat="37.11389685008043" lon="14.690549341027824"><ele>549.6666666666666</ele><time>2026-05-03T14:15:06Z</time></trkpt><trkpt lat="37.1139200910768" lon="14.69065469076123"><ele>551.5</ele><time>2026-05-03T14:15:08Z</time></trkpt><trkpt lat="37.113909923604794" lon="14.690740753130045"><ele>553.3333333333333</ele><time>2026-05-03T14:15:11Z</time></trkpt><trkpt lat="37.11388985384849" lon="14.690841090483024"><ele>555.1666666666666</ele><time>2026-05-03T14:15:13Z</time></trkpt><trkpt lat="37.11385903440567" lon="14.690913527428869"><ele>557.0</ele><time>2026-05-03T14:15:15Z</time></trkpt><trkpt lat="37.1138744697641" lon="14.691002638622523"><ele>557.0</ele><time>2026-05-03T14:15:17Z</time></trkpt><trkpt lat="37.11383151415786" lon="14.691090445964678"><ele>557.0</ele><time>2026-05-03T14:15:24Z</time></trkpt><trkpt lat="37.113801585380855" lon="14.691181372119068"><ele>557.0</ele><time>2026-05-03T14:15:27Z</time></trkpt><trkpt lat="37.113825898882574" lon="14.691278925077205"><ele>557.0</ele><time>2026-05-03T14:15:31Z</time></trkpt><trkpt lat="37.11383252088633" lon="14.691395380794606"><ele>557.0</ele><time>2026-05-03T14:15:35Z</time></trkpt><trkpt lat="37.11382732660603" lon="14.691479816902456"><ele>557.0</ele><time>2026-05-03T14:15:39Z</time></trkpt><trkpt lat="37.113806391673165" lon="14.691586015701898"><ele>559.8333333333333</ele><time>2026-05-03T14:15:42Z</time></trkpt><trkpt lat="37.11379414395447" lon="14.691664469040601"><ele>562.6666666666666</ele><time>2026-05-03T14:15:46Z</time></trkpt><trkpt lat="37.11378196884977" lon="14.691743370096825"><ele>565.5</ele><time>2026-05-03T14:15:52Z</time></trkpt><trkpt lat="37.11373098246091" lon="14.691836413454622"><ele>568.3333333333334</ele><time>2026-05-03T14:15:55Z</time></trkpt><trkpt lat="37.11367045052836" lon="14.691897508218275"><ele>571.1666666666667</ele><time>2026-05-03T14:15:59Z</time></trkpt><trkpt lat="37.11362545201108" lon="14.69199798939469"><ele>574.0</ele><time>2026-05-03T14:16:02Z</time></trkpt><trkpt lat="37.11361705379609" lon="14.692094623313816"><ele>579.2</ele><time>2026-05-03T14:16:04Z</time></trkpt><trkpt lat="37.11354701412389" lon="14.692170166640341"><ele>584.4</ele><time>2026-05-03T14:16:06.999Z</time></trkpt><trkpt lat="37.11349284509684" lon="14.69229150715244"><ele>589.6</ele><time>2026-05-03T14:16:09.999Z</time></trkpt><trkpt lat="37.113418159038666" lon="14.692417254974533"><ele>594.8</ele><time>2026-05-03T14:16:11.999Z</time></trkpt><trkpt lat="37.113363371348555" lon="14.692510334868707"><ele>600.0</ele><time>2026-05-03T14:16:13.999Z</time></trkpt><trkpt lat="37.11328975076883" lon="14.69260392053781"><ele>599.6</ele><time>2026-05-03T14:16:15.999Z</time></trkpt><trkpt lat="37.113220445203346" lon="14.692678294354526"><ele>599.2</ele><time>2026-05-03T14:16:17.999Z</time></trkpt><trkpt lat="37.113119256309005" lon="14.692707193815568"><ele>598.8</ele><time>2026-05-03T14:16:19.999Z</time></trkpt><trkpt lat="37.113051273415" lon="14.69273178103243"><ele>598.4</ele><time>2026-05-03T14:16:20.999Z</time></trkpt><trkpt lat="37.11294357337827" lon="14.692778600347458"><ele>598.0</ele><time>2026-05-03T14:16:22.999Z</time></trkpt><trkpt lat="37.11287447487233" lon="14.692815645286695"><ele>601.0</ele><time>2026-05-03T14:16:24.999Z</time></trkpt><trkpt lat="37.1127955226546" lon="14.69288323303688"><ele>604.0</ele><time>2026-05-03T14:16:39.999Z</time></trkpt><trkpt lat="37.112767777584615" lon="14.692974303596847"><ele>607.0</ele><time>2026-05-03T14:16:41.999Z</time></trkpt><trkpt lat="37.112795560838" lon="14.693080945221567"><ele>610.0</ele><time>2026-05-03T14:16:43.999Z</time></trkpt><trkpt lat="37.11281361779862" lon="14.69316082295686"><ele>613.0</ele><time>2026-05-03T14:16:44.999Z</time></trkpt><trkpt lat="37.11283286013323" lon="14.693245811050371"><ele>616.0</ele><time>2026-05-03T14:16:45.999Z</time></trkpt><trkpt lat="37.11285870539136" lon="14.693342482121759"><ele>616.0</ele><time>2026-05-03T14:16:46.999Z</time></trkpt><trkpt lat="37.11288791182392" lon="14.693437672954921"><ele>616.0</ele><time>2026-05-03T14:16:47.999Z</time></trkpt><trkpt lat="37.112919248645994" lon="14.693554195206241"><ele>616.0</ele><time>2026-05-03T14:16:48.999Z</time></trkpt><trkpt lat="37.112950506285294" lon="14.693681658563435"><ele>616.0</ele><time>2026-05-03T14:16:49.999Z</time></trkpt><trkpt lat="37.112975362585274" lon="14.693808658831816"><ele>616.0</ele><time>2026-05-03T14:16:50.999Z</time></trkpt><trkpt lat="37.11301343688102" lon="14.693952130537475"><ele>618.0</ele><time>2026-05-03T14:16:51.999Z</time></trkpt><trkpt lat="37.113046562645955" lon="14.694098514295298"><ele>620.0</ele><time>2026-05-03T14:16:52.999Z</time></trkpt><trkpt lat="37.113057672763986" lon="14.694215963176072"><ele>622.0</ele><time>2026-05-03T14:16:54Z</time></trkpt><trkpt lat="37.113048445180596" lon="14.694319750071342"><ele>624.0</ele><time>2026-05-03T14:16:55Z</time></trkpt><trkpt lat="37.11303950317028" lon="14.69440769692724"><ele>626.0</ele><time>2026-05-03T14:16:56Z</time></trkpt><trkpt lat="37.11302022974548" lon="14.694505145849186"><ele>629.4</ele><time>2026-05-03T14:16:57Z</time></trkpt><trkpt lat="37.11299892326883" lon="14.694598324629322"><ele>632.8</ele><time>2026-05-03T14:16:58Z</time></trkpt><trkpt lat="37.11298064127978" lon="14.694703543492269"><ele>636.1999999999999</ele><time>2026-05-03T14:16:59Z</time></trkpt><trkpt lat="37.11297452596286" lon="14.694821001839172"><ele>639.6</ele><time>2026-05-03T14:17:00Z</time></trkpt><trkpt lat="37.11296806896653" lon="14.69495012058547"><ele>643.0</ele><time>2026-05-03T14:17:01Z</time></trkpt><trkpt lat="37.1129647536837" lon="14.69506986870263"><ele>643.0</ele><time>2026-05-03T14:17:02Z</time></trkpt><trkpt lat="37.11296071788042" lon="14.695183068596085"><ele>643.0</ele><time>2026-05-03T14:17:03Z</time></trkpt><trkpt lat="37.112961302382054" lon="14.69530869978313"><ele>643.0</ele><time>2026-05-03T14:17:04Z</time></trkpt><trkpt lat="37.11296637732941" lon="14.69542983854578"><ele>643.0</ele><time>2026-05-03T14:17:05Z</time></trkpt><trkpt lat="37.11297471893648" lon="14.695562275431303"><ele>643.0</ele><time>2026-05-03T14:17:06Z</time></trkpt><trkpt lat="37.11297550770963" lon="14.695699512568337"><ele>645.75</ele><time>2026-05-03T14:17:07Z</time></trkpt><trkpt lat="37.11296901003661" lon="14.695837642721207"><ele>648.5</ele><time>2026-05-03T14:17:08Z</time></trkpt><trkpt lat="37.112961288856425" lon="14.695974836591464"><ele>651.25</ele><time>2026-05-03T14:17:09Z</time></trkpt><trkpt lat="37.112944547606965" lon="14.696112149406003"><ele>654.0</ele><time>2026-05-03T14:17:10Z</time></trkpt><trkpt lat="37.112925009964314" lon="14.696260053688682"><ele>655.4000000000001</ele><time>2026-05-03T14:17:11Z</time></trkpt><trkpt lat="37.112892607716226" lon="14.696399350170005"><ele>656.8</ele><time>2026-05-03T14:17:12Z</time></trkpt><trkpt lat="37.11286171874584" lon="14.696541663557207"><ele>658.2</ele><time>2026-05-03T14:17:13Z</time></trkpt><trkpt lat="37.112822840049596" lon="14.696657535043139"><ele>659.5999999999999</ele><time>2026-05-03T14:17:14Z</time></trkpt><trkpt lat="37.112778635501506" lon="14.696743960912487"><ele>661.0</ele><time>2026-05-03T14:17:15Z</time></trkpt><trkpt lat="37.112790030800205" lon="14.696841402425944"><ele>661.0</ele><time>2026-05-03T14:17:18Z</time></trkpt><trkpt lat="37.11287714777947" lon="14.696801768329689"><ele>661.0</ele><time>2026-05-03T14:17:21Z</time></trkpt><trkpt lat="37.112966558687866" lon="14.696690975134842"><ele>661.0</ele><time>2026-05-03T14:17:23Z</time></trkpt><trkpt lat="37.113030231501504" lon="14.69661643370684"><ele>661.0</ele><time>2026-05-03T14:17:24Z</time></trkpt><trkpt lat="37.11309310898643" lon="14.696548299035745"><ele>661.0</ele><time>2026-05-03T14:17:25Z</time></trkpt><trkpt lat="37.11317916089583" lon="14.696473093609201"><ele>663.0</ele><time>2026-05-03T14:17:26Z</time></trkpt><trkpt lat="37.11326622011793" lon="14.696393541119292"><ele>665.0</ele><time>2026-05-03T14:17:27Z</time></trkpt><trkpt lat="37.11333650158385" lon="14.696310482756655"><ele>667.0</ele><time>2026-05-03T14:17:28Z</time></trkpt><trkpt lat="37.11341229934864" lon="14.696215784341616"><ele>669.0</ele><time>2026-05-03T14:17:29Z</time></trkpt><trkpt lat="37.1134800144008" lon="14.696144653674533"><ele>671.0</ele><time>2026-05-03T14:17:30Z</time></trkpt><trkpt lat="37.11353713091864" lon="14.69606389865689"><ele>671.0</ele><time>2026-05-03T14:17:31Z</time></trkpt><trkpt lat="37.11359941527362" lon="14.695971457527794"><ele>671.0</ele><time>2026-05-03T14:17:32Z</time></trkpt><trkpt lat="37.11365544110573" lon="14.69589162111989"><ele>671.0</ele><time>2026-05-03T14:17:33Z</time></trkpt><trkpt lat="37.11376223792711" lon="14.69583662462505"><ele>671.0</ele><time>2026-05-03T14:17:35Z</time></trkpt><trkpt lat="37.11383259813298" lon="14.69593251246884"><ele>671.0</ele><time>2026-05-03T14:17:37Z</time></trkpt><trkpt lat="37.11383579698379" lon="14.696013325891617"><ele>673.8</ele><time>2026-05-03T14:17:38Z</time></trkpt><trkpt lat="37.113837549795555" lon="14.69612260714692"><ele>676.5999999999999</ele><time>2026-05-03T14:17:39Z</time></trkpt><trkpt lat="37.11383384454481" lon="14.696244677141044"><ele>679.4</ele><time>2026-05-03T14:17:40Z</time></trkpt><trkpt lat="37.1138070569594" lon="14.696389184134528"><ele>682.2</ele><time>2026-05-03T14:17:41Z</time></trkpt><trkpt lat="37.113767495443" lon="14.69654577418135"><ele>685.0</ele><time>2026-05-03T14:17:42Z</time></trkpt><trkpt lat="37.11372936314789" lon="14.69670745895339"><ele>685.0</ele><time>2026-05-03T14:17:43Z</time></trkpt><trkpt lat="37.11368175869677" lon="14.696852627056861"><ele>685.0</ele><time>2026-05-03T14:17:44Z</time></trkpt><trkpt lat="37.11364774590026" lon="14.696979496610638"><ele>685.0</ele><time>2026-05-03T14:17:45Z</time></trkpt><trkpt lat="37.11363812073479" lon="14.697108001146404"><ele>685.0</ele><time>2026-05-03T14:17:46Z</time></trkpt><trkpt lat="37.11363845890435" lon="14.69723798505374"><ele>685.0</ele><time>2026-05-03T14:17:47Z</time></trkpt><trkpt lat="37.11362853508728" lon="14.697348288885804"><ele>688.0</ele><time>2026-05-03T14:17:48Z</time></trkpt><trkpt lat="37.11362960029076" lon="14.69744998007275"><ele>691.0</ele><time>2026-05-03T14:17:49Z</time></trkpt><trkpt lat="37.11367062217706" lon="14.697573247793702"><ele>694.0</ele><time>2026-05-03T14:17:50Z</time></trkpt><trkpt lat="37.11372190160555" lon="14.697665499024993"><ele>697.0</ele><time>2026-05-03T14:17:51Z</time></trkpt><trkpt lat="37.11379545041555" lon="14.697787816310429"><ele>700.0</ele><time>2026-05-03T14:17:52Z</time></trkpt><trkpt lat="37.11388030088946" lon="14.6979154615936"><ele>702.0</ele><time>2026-05-03T14:17:53Z</time></trkpt><trkpt lat="37.1139641743009" lon="14.698039022678994"><ele>704.0</ele><time>2026-05-03T14:17:54Z</time></trkpt><trkpt lat="37.11404368022903" lon="14.698169736162718"><ele>706.0</ele><time>2026-05-03T14:17:55Z</time></trkpt><trkpt lat="37.11410984786924" lon="14.698287987054151"><ele>708.0</ele><time>2026-05-03T14:17:56Z</time></trkpt><trkpt lat="37.114165679671004" lon="14.69839135846735"><ele>708.6666666666666</ele><time>2026-05-03T14:17:57Z</time></trkpt><trkpt lat="37.11422133262472" lon="14.698470636631646"><ele>709.3333333333334</ele><time>2026-05-03T14:17:58Z</time></trkpt><trkpt lat="37.114303891015794" lon="14.698530720504143"><ele>710.0</ele><time>2026-05-03T14:18:00Z</time></trkpt><trkpt lat="37.11438948116437" lon="14.69855544131979"><ele>710.6666666666667</ele><time>2026-05-03T14:18:02Z</time></trkpt><trkpt lat="37.11447643631082" lon="14.69859688343882"><ele>711.3333333333334</ele><time>2026-05-03T14:18:04Z</time></trkpt><trkpt lat="37.114550099573485" lon="14.698641127206209"><ele>712.0</ele><time>2026-05-03T14:18:06Z</time></trkpt><trkpt lat="37.114622353843366" lon="14.698670689728095"><ele>712.2</ele><time>2026-05-03T14:18:08Z</time></trkpt><trkpt lat="37.114710130274574" lon="14.698718157452216"><ele>712.4000000000001</ele><time>2026-05-03T14:18:09.999Z</time></trkpt><trkpt lat="37.1147928109929" lon="14.698799700786363"><ele>712.5999999999999</ele><time>2026-05-03T14:18:11.999Z</time></trkpt><trkpt lat="37.11488140957239" lon="14.698895798747435"><ele>712.8</ele><time>2026-05-03T14:18:13.999Z</time></trkpt><trkpt lat="37.1149457689544" lon="14.698940081528416"><ele>713.0</ele><time>2026-05-03T14:18:14.999Z</time></trkpt><trkpt lat="37.115018603766515" lon="14.6989835357607"><ele>711.7142857142857</ele><time>2026-05-03T14:18:15.999Z</time></trkpt><trkpt lat="37.11509823858962" lon="14.699029680573728"><ele>710.4285714285714</ele><time>2026-05-03T14:18:16.999Z</time></trkpt><trkpt lat="37.11517118445244" lon="14.69907454056489"><ele>709.1428571428571</ele><time>2026-05-03T14:18:17.999Z</time></trkpt><trkpt lat="37.11523832173609" lon="14.69910491924654"><ele>707.8571428571429</ele><time>2026-05-03T14:18:18.999Z</time></trkpt><trkpt lat="37.115303620372956" lon="14.699103158009287"><ele>706.5714285714286</ele><time>2026-05-03T14:18:19.999Z</time></trkpt><trkpt lat="37.11536483501661" lon="14.699073657185533"><ele>705.2857142857143</ele><time>2026-05-03T14:18:20.999Z</time></trkpt><trkpt lat="37.11542434650551" lon="14.69902106667391"><ele>704.0</ele><time>2026-05-03T14:18:21.999Z</time></trkpt><trkpt lat="37.1155331523301" lon="14.698954548149716"><ele>704.0</ele><time>2026-05-03T14:18:23.999Z</time></trkpt><trkpt lat="37.11559420747313" lon="14.69890901577822"><ele>704.0</ele><time>2026-05-03T14:18:24.999Z</time></trkpt><trkpt lat="37.115645401676126" lon="14.698851100430572"><ele>704.0</ele><time>2026-05-03T14:18:25.999Z</time></trkpt><trkpt lat="37.115699936043065" lon="14.698797816708145"><ele>704.0</ele><time>2026-05-03T14:18:26.999Z</time></trkpt><trkpt lat="37.115746580784155" lon="14.698690244961261"><ele>704.0</ele><time>2026-05-03T14:18:28.999Z</time></trkpt><trkpt lat="37.115757024118444" lon="14.69859724136509"><ele>704.0</ele><time>2026-05-03T14:18:29.999Z</time></trkpt><trkpt lat="37.11578564756798" lon="14.698506567664126"><ele>701.0</ele><time>2026-05-03T14:18:30.999Z</time></trkpt><trkpt lat="37.115865917915805" lon="14.698418859305225"><ele>698.0</ele><time>2026-05-03T14:18:32.999Z</time></trkpt><trkpt lat="37.1159984954131" lon="14.698464648415316"><ele>695.0</ele><time>2026-05-03T14:18:35.999Z</time></trkpt><trkpt lat="37.11605139638138" lon="14.698520717452316"><ele>692.0</ele><time>2026-05-03T14:18:36.999Z</time></trkpt><trkpt lat="37.11612885968766" lon="14.698535916788133"><ele>689.0</ele><time>2026-05-03T14:18:38.999Z</time></trkpt><trkpt lat="37.11619205076831" lon="14.698460474061605"><ele>689.0</ele><time>2026-05-03T14:18:41.999Z</time></trkpt><trkpt lat="37.11618757623799" lon="14.698369701160775"><ele>689.0</ele><time>2026-05-03T14:18:44.999Z</time></trkpt><trkpt lat="37.116224122481384" lon="14.698303731209432"><ele>689.0</ele><time>2026-05-03T14:18:46.999Z</time></trkpt><trkpt lat="37.116272455368645" lon="14.698225548707379"><ele>689.0</ele><time>2026-05-03T14:18:50.999Z</time></trkpt><trkpt lat="37.1163243194002" lon="14.698177053695897"><ele>689.0</ele><time>2026-05-03T14:18:53.999Z</time></trkpt><trkpt lat="37.11634773320239" lon="14.698079038831208"><ele>689.0</ele><time>2026-05-03T14:18:56.999Z</time></trkpt><trkpt lat="37.116363873659516" lon="14.697971683087822"><ele>689.0</ele><time>2026-05-03T14:19:00Z</time></trkpt><trkpt lat="37.11638848529549" lon="14.697728664080051"><ele>688.1666666666666</ele><time>2026-05-03T14:19:01Z</time></trkpt><trkpt lat="37.11639868411527" lon="14.69764937543054"><ele>687.3333333333333</ele><time>2026-05-03T14:19:02Z</time></trkpt><trkpt lat="37.11642606586118" lon="14.697494146645631"><ele>686.5</ele><time>2026-05-03T14:19:04Z</time></trkpt><trkpt lat="37.11645337240308" lon="14.697420205494064"><ele>685.6666666666666</ele><time>2026-05-03T14:19:05Z</time></trkpt><trkpt lat="37.11648439435133" lon="14.697344496844064"><ele>684.8333333333334</ele><time>2026-05-03T14:19:06Z</time></trkpt><trkpt lat="37.11651122916714" lon="14.697267735890948"><ele>684.0</ele><time>2026-05-03T14:19:07Z</time></trkpt><trkpt lat="37.11653819573847" lon="14.697136894929455"><ele>680.0</ele><time>2026-05-03T14:19:09Z</time></trkpt><trkpt lat="37.11657381840525" lon="14.69705976735649"><ele>676.0</ele><time>2026-05-03T14:19:23Z</time></trkpt><trkpt lat="37.11670472748514" lon="14.69705281083352"><ele>672.0</ele><time>2026-05-03T14:21:19Z</time></trkpt><trkpt lat="37.11682449248436" lon="14.697070128135996"><ele>668.0</ele><time>2026-05-03T14:21:21Z</time></trkpt><trkpt lat="37.116906377976946" lon="14.697086978544306"><ele>664.0</ele><time>2026-05-03T14:21:23Z</time></trkpt><trkpt lat="37.1169907540516" lon="14.697089588021687"><ele>664.0</ele><time>2026-05-03T14:21:26Z</time></trkpt><trkpt lat="37.1170834718419" lon="14.697082422667362"><ele>664.0</ele><time>2026-05-03T14:21:28Z</time></trkpt><trkpt lat="37.11718539779556" lon="14.697058652526781"><ele>664.0</ele><time>2026-05-03T14:21:31Z</time></trkpt><trkpt lat="37.1172518882632" lon="14.697070038486375"><ele>664.0</ele><time>2026-05-03T14:21:33Z</time></trkpt><trkpt lat="37.117327611840864" lon="14.697029267394134"><ele>664.0</ele><time>2026-05-03T14:21:36Z</time></trkpt><trkpt lat="37.11731799986322" lon="14.697110599866868"><ele>664.0</ele><time>2026-05-03T14:21:41Z</time></trkpt><trkpt lat="37.11739167316802" lon="14.697172425389907"><ele>663.8333333333334</ele><time>2026-05-03T14:26:10Z</time></trkpt><trkpt lat="37.1174137682863" lon="14.697068751363549"><ele>663.6666666666667</ele><time>2026-05-03T14:26:20Z</time></trkpt><trkpt lat="37.117430832535064" lon="14.696961757081"><ele>663.5</ele><time>2026-05-03T14:26:23Z</time></trkpt><trkpt lat="37.117507974627514" lon="14.696900211599766"><ele>663.3333333333334</ele><time>2026-05-03T14:26:26Z</time></trkpt><trkpt lat="37.11756491664382" lon="14.696827290114973"><ele>663.1666666666666</ele><time>2026-05-03T14:26:36.999Z</time></trkpt><trkpt lat="37.117567014234034" lon="14.696711370844081"><ele>663.0</ele><time>2026-05-03T14:26:55.999Z</time></trkpt><trkpt lat="37.11761968167785" lon="14.696622946280753"><ele>663.5</ele><time>2026-05-03T14:26:58.999Z</time></trkpt><trkpt lat="37.117644702787665" lon="14.696547028605927"><ele>664.0</ele><time>2026-05-03T14:27:01.999Z</time></trkpt><trkpt lat="37.11766597587845" lon="14.696448632417981"><ele>664.5</ele><time>2026-05-03T14:27:03.999Z</time></trkpt><trkpt lat="37.11770528131414" lon="14.696322865845662"><ele>665.0</ele><time>2026-05-03T14:27:05.999Z</time></trkpt><trkpt lat="37.117752277806005" lon="14.696217605610961"><ele>665.5</ele><time>2026-05-03T14:27:07.999Z</time></trkpt><trkpt lat="37.11778543326517" lon="14.696121776910374"><ele>666.0</ele><time>2026-05-03T14:27:10.999Z</time></trkpt><trkpt lat="37.117791815370886" lon="14.695934359790378"><ele>665.0</ele><time>2026-05-03T14:27:12.999Z</time></trkpt><trkpt lat="37.11780914913188" lon="14.695839083350544"><ele>664.0</ele><time>2026-05-03T14:27:13.999Z</time></trkpt><trkpt lat="37.11782643875115" lon="14.695737612984773"><ele>663.0</ele><time>2026-05-03T14:27:14.999Z</time></trkpt><trkpt lat="37.11784185443637" lon="14.695639532777939"><ele>662.0</ele><time>2026-05-03T14:27:15.999Z</time></trkpt><trkpt lat="37.11786153509383" lon="14.695549409742098"><ele>661.0</ele><time>2026-05-03T14:27:16.999Z</time></trkpt><trkpt lat="37.11791151138738" lon="14.695430463778557"><ele>660.0</ele><time>2026-05-03T14:27:18.999Z</time></trkpt><trkpt lat="37.117933030791896" lon="14.69535106294369"><ele>658.4</ele><time>2026-05-03T14:27:19.999Z</time></trkpt><trkpt lat="37.11795222326204" lon="14.69523903144508"><ele>656.8</ele><time>2026-05-03T14:27:20.999Z</time></trkpt><trkpt lat="37.11797489897371" lon="14.69515279132159"><ele>655.2</ele><time>2026-05-03T14:27:21.999Z</time></trkpt><trkpt lat="37.11797753304374" lon="14.695029374566822"><ele>653.6</ele><time>2026-05-03T14:27:24Z</time></trkpt><trkpt lat="37.11794108737639" lon="14.694898817085015"><ele>652.0</ele><time>2026-05-03T14:27:26Z</time></trkpt><trkpt lat="37.11790273500491" lon="14.694748552335538"><ele>652.0</ele><time>2026-05-03T14:27:28Z</time></trkpt><trkpt lat="37.11789980089397" lon="14.694665384643326"><ele>652.0</ele><time>2026-05-03T14:27:29Z</time></trkpt><trkpt lat="37.117892237123286" lon="14.694578462698558"><ele>652.0</ele><time>2026-05-03T14:27:30Z</time></trkpt><trkpt lat="37.1178848873342" lon="14.694492844545655"><ele>652.0</ele><time>2026-05-03T14:27:31Z</time></trkpt><trkpt lat="37.11788352812174" lon="14.694404728487662"><ele>652.0</ele><time>2026-05-03T14:27:32Z</time></trkpt><trkpt lat="37.11790944692557" lon="14.694324365948843"><ele>652.0</ele><time>2026-05-03T14:27:33Z</time></trkpt><trkpt lat="37.11792036548905" lon="14.69421395472916"><ele>652.0</ele><time>2026-05-03T14:27:35Z</time></trkpt><trkpt lat="37.11794393620878" lon="14.694115389309061"><ele>650.1666666666667</ele><time>2026-05-03T14:27:37Z</time></trkpt><trkpt lat="37.11792971680245" lon="14.69401132964025"><ele>648.3333333333334</ele><time>2026-05-03T14:27:39Z</time></trkpt><trkpt lat="37.11792324966613" lon="14.693915040530635"><ele>646.5</ele><time>2026-05-03T14:27:41Z</time></trkpt><trkpt lat="37.11794460047126" lon="14.693824935122699"><ele>644.6666666666666</ele><time>2026-05-03T14:27:43Z</time></trkpt><trkpt lat="37.117960819964296" lon="14.693702625043878"><ele>642.8333333333333</ele><time>2026-05-03T14:27:46Z</time></trkpt><trkpt lat="37.118007362671655" lon="14.69358481352617"><ele>641.0</ele><time>2026-05-03T14:27:48Z</time></trkpt><trkpt lat="37.11805743349778" lon="14.693446733841283"><ele>638.1999999999999</ele><time>2026-05-03T14:27:50Z</time></trkpt><trkpt lat="37.118086083523814" lon="14.693326497811352"><ele>635.4</ele><time>2026-05-03T14:27:52Z</time></trkpt><trkpt lat="37.11811044046675" lon="14.693192644885755"><ele>632.6</ele><time>2026-05-03T14:27:54Z</time></trkpt><trkpt lat="37.11814785706515" lon="14.693085477591273"><ele>629.8</ele><time>2026-05-03T14:27:56Z</time></trkpt><trkpt lat="37.11817662762998" lon="14.69299215642877"><ele>627.0</ele><time>2026-05-03T14:27:58Z</time></trkpt><trkpt lat="37.11819559812514" lon="14.69283582299734"><ele>625.8000000000001</ele><time>2026-05-03T14:28:00Z</time></trkpt><trkpt lat="37.11819693514183" lon="14.69275411723519"><ele>624.6</ele><time>2026-05-03T14:28:01Z</time></trkpt><trkpt lat="37.11823034089753" lon="14.692614676160666"><ele>623.4000000000001</ele><time>2026-05-03T14:28:03Z</time></trkpt><trkpt lat="37.1182795598552" lon="14.6924908463662"><ele>622.2</ele><time>2026-05-03T14:28:05Z</time></trkpt><trkpt lat="37.11833857773599" lon="14.692363176585358"><ele>621.0</ele><time>2026-05-03T14:28:07Z</time></trkpt><trkpt lat="37.11836036172539" lon="14.692251490890591"><ele>621.0</ele><time>2026-05-03T14:28:09Z</time></trkpt><trkpt lat="37.11835207732722" lon="14.692127091588878"><ele>621.0</ele><time>2026-05-03T14:28:11Z</time></trkpt><trkpt lat="37.11837526859006" lon="14.692025886759046"><ele>621.0</ele><time>2026-05-03T14:28:13Z</time></trkpt><trkpt lat="37.11840132967056" lon="14.691896200995464"><ele>621.0</ele><time>2026-05-03T14:28:15Z</time></trkpt><trkpt lat="37.118428380180255" lon="14.691748383675174"><ele>621.0</ele><time>2026-05-03T14:28:17Z</time></trkpt><trkpt lat="37.118428933519525" lon="14.69166188690524"><ele>618.8</ele><time>2026-05-03T14:28:18Z</time></trkpt><trkpt lat="37.118440477985075" lon="14.691542194191895"><ele>616.6</ele><time>2026-05-03T14:28:20Z</time></trkpt><trkpt lat="37.11845977870808" lon="14.691436878276741"><ele>614.4</ele><time>2026-05-03T14:28:22Z</time></trkpt><trkpt lat="37.11846392211427" lon="14.69131197580376"><ele>612.2</ele><time>2026-05-03T14:28:24Z</time></trkpt><trkpt lat="37.118492325373936" lon="14.691199808761308"><ele>610.0</ele><time>2026-05-03T14:28:26Z</time></trkpt><trkpt lat="37.11854650626914" lon="14.69111566775531"><ele>607.2</ele><time>2026-05-03T14:28:29Z</time></trkpt><trkpt lat="37.11859093376171" lon="14.6909815047241"><ele>604.4</ele><time>2026-05-03T14:28:31Z</time></trkpt><trkpt lat="37.11863965855424" lon="14.690853477331435"><ele>601.6</ele><time>2026-05-03T14:28:33Z</time></trkpt><trkpt lat="37.11869878467865" lon="14.690768043709152"><ele>598.8</ele><time>2026-05-03T14:28:35Z</time></trkpt><trkpt lat="37.1187646011114" lon="14.690684146297272"><ele>596.0</ele><time>2026-05-03T14:28:36.999Z</time></trkpt><trkpt lat="37.11882755429669" lon="14.690644298392552"><ele>596.0</ele><time>2026-05-03T14:28:38.999Z</time></trkpt><trkpt lat="37.118857714261594" lon="14.690566669094432"><ele>596.0</ele><time>2026-05-03T14:28:40.999Z</time></trkpt><trkpt lat="37.11888224419573" lon="14.690467511634298"><ele>596.0</ele><time>2026-05-03T14:28:42.999Z</time></trkpt><trkpt lat="37.11890716103914" lon="14.69039393795151"><ele>596.0</ele><time>2026-05-03T14:28:43.999Z</time></trkpt><trkpt lat="37.11894088439412" lon="14.690307630733908"><ele>596.0</ele><time>2026-05-03T14:28:44.999Z</time></trkpt><trkpt lat="37.1189804586444" lon="14.690210434975985"><ele>596.0</ele><time>2026-05-03T14:28:45.999Z</time></trkpt><trkpt lat="37.11902120252183" lon="14.690120248051382"><ele>593.6666666666666</ele><time>2026-05-03T14:28:46.999Z</time></trkpt><trkpt lat="37.119061712995475" lon="14.690042395617557"><ele>591.3333333333333</ele><time>2026-05-03T14:28:47.999Z</time></trkpt><trkpt lat="37.11910002732009" lon="14.689960166094336"><ele>589.0</ele><time>2026-05-03T14:28:48.999Z</time></trkpt><trkpt lat="37.11913719990653" lon="14.689892761725039"><ele>586.6666666666666</ele><time>2026-05-03T14:28:49.999Z</time></trkpt><trkpt lat="37.119175579897885" lon="14.689827915654663"><ele>584.3333333333334</ele><time>2026-05-03T14:28:50.999Z</time></trkpt><trkpt lat="37.11923304010583" lon="14.689734335653503"><ele>582.0</ele><time>2026-05-03T14:28:52.999Z</time></trkpt><trkpt lat="37.11929888020344" lon="14.68960951185069"><ele>582.0</ele><time>2026-05-03T14:28:54.999Z</time></trkpt><trkpt lat="37.119349431651756" lon="14.689534977909094"><ele>582.0</ele><time>2026-05-03T14:28:55.999Z</time></trkpt><trkpt lat="37.119408878116985" lon="14.68943428211498"><ele>582.0</ele><time>2026-05-03T14:28:57.999Z</time></trkpt><trkpt lat="37.11948509367012" lon="14.68940681882486"><ele>582.0</ele><time>2026-05-03T14:28:59.999Z</time></trkpt><trkpt lat="37.11954849813472" lon="14.689377612468933"><ele>582.0</ele><time>2026-05-03T14:29:01.999Z</time></trkpt><trkpt lat="37.11959170642856" lon="14.689317611985347"><ele>582.0</ele><time>2026-05-03T14:29:03.999Z</time></trkpt><trkpt lat="37.11964943948981" lon="14.689251007670594"><ele>581.8571428571429</ele><time>2026-05-03T14:29:09.999Z</time></trkpt><trkpt lat="37.11970070140377" lon="14.689203148540729"><ele>581.7142857142857</ele><time>2026-05-03T14:29:12.999Z</time></trkpt><trkpt lat="37.11975851842538" lon="14.689131670982857"><ele>581.5714285714286</ele><time>2026-05-03T14:29:15.999Z</time></trkpt><trkpt lat="37.119828886606484" lon="14.689127142951637"><ele>581.4285714285714</ele><time>2026-05-03T14:29:18.999Z</time></trkpt><trkpt lat="37.11990262730827" lon="14.689133320710155"><ele>581.2857142857142</ele><time>2026-05-03T14:29:21.999Z</time></trkpt><trkpt lat="37.119979672360195" lon="14.68911670685456"><ele>581.1428571428571</ele><time>2026-05-03T14:29:25.999Z</time></trkpt><trkpt lat="37.120051660918726" lon="14.68910386181342"><ele>581.0</ele><time>2026-05-03T14:29:28.999Z</time></trkpt><trkpt lat="37.12012029744226" lon="14.689065318167323"><ele>579.6666666666666</ele><time>2026-05-03T14:29:32Z</time></trkpt><trkpt lat="37.1201937514482" lon="14.689036516237259"><ele>578.3333333333333</ele><time>2026-05-03T14:29:36Z</time></trkpt><trkpt lat="37.12026162055868" lon="14.689020476196694"><ele>577.0</ele><time>2026-05-03T14:29:39Z</time></trkpt><trkpt lat="37.120337625511176" lon="14.689011607579278"><ele>575.6666666666666</ele><time>2026-05-03T14:29:42Z</time></trkpt><trkpt lat="37.12042391993482" lon="14.6890120931085"><ele>574.3333333333334</ele><time>2026-05-03T14:29:45Z</time></trkpt><trkpt lat="37.120518829145595" lon="14.688990158535232"><ele>573.0</ele><time>2026-05-03T14:29:47Z</time></trkpt><trkpt lat="37.120595508052425" lon="14.688981238165072"><ele>573.0</ele><time>2026-05-03T14:29:49Z</time></trkpt><trkpt lat="37.120716228542854" lon="14.688996507409682"><ele>573.0</ele><time>2026-05-03T14:29:51Z</time></trkpt><trkpt lat="37.12081849159235" lon="14.688984909404478"><ele>573.0</ele><time>2026-05-03T14:29:53Z</time></trkpt><trkpt lat="37.12088689692399" lon="14.68895732879188"><ele>573.0</ele><time>2026-05-03T14:29:55Z</time></trkpt><trkpt lat="37.12096682494352" lon="14.68895685082509"><ele>573.0</ele><time>2026-05-03T14:29:57Z</time></trkpt><trkpt lat="37.12104113300244" lon="14.688980153080694"><ele>568.0</ele><time>2026-05-03T14:29:59Z</time></trkpt><trkpt lat="37.1211155824758" lon="14.688997204636516"><ele>563.0</ele><time>2026-05-03T14:30:03Z</time></trkpt><trkpt lat="37.12113077978237" lon="14.689090613943947"><ele>558.0</ele><time>2026-05-03T14:36:20Z</time></trkpt><trkpt lat="37.12114824682142" lon="14.689167548147395"><ele>553.0</ele><time>2026-05-03T14:36:24Z</time></trkpt><trkpt lat="37.12115581216298" lon="14.689253583801626"><ele>548.0</ele><time>2026-05-03T14:36:29Z</time></trkpt><trkpt lat="37.12118223881377" lon="14.689347458731735"><ele>543.0</ele><time>2026-05-03T14:36:34Z</time></trkpt><trkpt lat="37.121189543245606" lon="14.689459712059348"><ele>542.0</ele><time>2026-05-03T14:36:37Z</time></trkpt><trkpt lat="37.12118794577647" lon="14.689556860816078"><ele>541.0</ele><time>2026-05-03T14:36:40Z</time></trkpt><trkpt lat="37.121169178722276" lon="14.689647878375688"><ele>540.0</ele><time>2026-05-03T14:36:43Z</time></trkpt><trkpt lat="37.12115200122882" lon="14.689817024481954"><ele>539.0</ele><time>2026-05-03T14:36:46Z</time></trkpt><trkpt lat="37.12115587055461" lon="14.689910808074078"><ele>538.0</ele><time>2026-05-03T14:36:48Z</time></trkpt><trkpt lat="37.12115305664813" lon="14.690004492890612"><ele>537.0</ele><time>2026-05-03T14:36:50Z</time></trkpt><trkpt lat="37.12117413978659" lon="14.690081078536913"><ele>537.0</ele><time>2026-05-03T14:36:52Z</time></trkpt><trkpt lat="37.12115474301895" lon="14.690173643860398"><ele>537.0</ele><time>2026-05-03T14:36:56Z</time></trkpt><trkpt lat="37.12114060108321" lon="14.690275352145427"><ele>537.0</ele><time>2026-05-03T14:36:58Z</time></trkpt><trkpt lat="37.12113913425389" lon="14.690398706427432"><ele>537.0</ele><time>2026-05-03T14:36:59.999Z</time></trkpt><trkpt lat="37.121143382609056" lon="14.690524074208398"><ele>537.0</ele><time>2026-05-03T14:37:01.999Z</time></trkpt><trkpt lat="37.12114998213169" lon="14.690639423008706"><ele>537.0</ele><time>2026-05-03T14:37:03.999Z</time></trkpt><trkpt lat="37.12119941472406" lon="14.690749851636584"><ele>534.5</ele><time>2026-05-03T14:37:05.999Z</time></trkpt><trkpt lat="37.12119244808804" lon="14.690858934119834"><ele>532.0</ele><time>2026-05-03T14:37:07.999Z</time></trkpt><trkpt lat="37.121181474210154" lon="14.690996073734881"><ele>529.5</ele><time>2026-05-03T14:37:09.999Z</time></trkpt><trkpt lat="37.121177968986" lon="14.69107512042451"><ele>527.0</ele><time>2026-05-03T14:37:10.999Z</time></trkpt><trkpt lat="37.121177090145984" lon="14.691201872598414"><ele>524.5</ele><time>2026-05-03T14:37:12.999Z</time></trkpt><trkpt lat="37.12117406008966" lon="14.691302160815928"><ele>522.0</ele><time>2026-05-03T14:37:14.999Z</time></trkpt><trkpt lat="37.12117285968621" lon="14.691382871504185"><ele>518.8000000000001</ele><time>2026-05-03T14:37:16.999Z</time></trkpt><trkpt lat="37.12116317641402" lon="14.691504537734753"><ele>515.6</ele><time>2026-05-03T14:37:18.999Z</time></trkpt><trkpt lat="37.121133207720554" lon="14.691592342368613"><ele>512.4000000000001</ele><time>2026-05-03T14:37:20.999Z</time></trkpt><trkpt lat="37.12113565373582" lon="14.691721469936668"><ele>509.20000000000005</ele><time>2026-05-03T14:37:22.999Z</time></trkpt><trkpt lat="37.121133578960766" lon="14.691849201051253"><ele>506.0</ele><time>2026-05-03T14:37:24.999Z</time></trkpt><trkpt lat="37.12113751791825" lon="14.691968136303572"><ele>505.4</ele><time>2026-05-03T14:37:26.999Z</time></trkpt><trkpt lat="37.12115797959583" lon="14.692084549312472"><ele>504.8</ele><time>2026-05-03T14:37:28.999Z</time></trkpt><trkpt lat="37.121192264265936" lon="14.692194917970811"><ele>504.19999999999993</ele><time>2026-05-03T14:37:30.999Z</time></trkpt><trkpt lat="37.121237668605865" lon="14.692299164553916"><ele>503.59999999999997</ele><time>2026-05-03T14:37:32.999Z</time></trkpt><trkpt lat="37.12126375155275" lon="14.692414098885301"><ele>503.0</ele><time>2026-05-03T14:37:35.999Z</time></trkpt><trkpt lat="37.121293344806894" lon="14.692540711965108"><ele>502.99999999999994</ele><time>2026-05-03T14:37:36.999Z</time></trkpt><trkpt lat="37.12131947763507" lon="14.692642993571807"><ele>503.0</ele><time>2026-05-03T14:37:38.999Z</time></trkpt><trkpt lat="37.121342783926316" lon="14.692736371310819"><ele>503.0</ele><time>2026-05-03T14:37:40.999Z</time></trkpt><trkpt lat="37.1213630689432" lon="14.692830491733005"><ele>503.0</ele><time>2026-05-03T14:37:45.999Z</time></trkpt><trkpt lat="37.1213571599964" lon="14.69291036666749"><ele>502.99999999999994</ele><time>2026-05-03T14:38:01Z</time></trkpt><trkpt lat="37.121312022431994" lon="14.692972144309833"><ele>503.0</ele><time>2026-05-03T14:38:05Z</time></trkpt><trkpt lat="37.1213513291091" lon="14.693056755938887"><ele>502.0</ele><time>2026-05-03T14:38:08Z</time></trkpt><trkpt lat="37.12142811511042" lon="14.693071143645412"><ele>501.00000000000006</ele><time>2026-05-03T14:38:11Z</time></trkpt><trkpt lat="37.12148993236075" lon="14.6930492330713"><ele>500.0</ele><time>2026-05-03T14:38:13Z</time></trkpt><trkpt lat="37.12156288046183" lon="14.693029919703056"><ele>499.0</ele><time>2026-05-03T14:38:15Z</time></trkpt><trkpt lat="37.12163506659453" lon="14.692978630542926"><ele>498.00000000000006</ele><time>2026-05-03T14:38:17Z</time></trkpt><trkpt lat="37.12169133179636" lon="14.692937519182662"><ele>497.0</ele><time>2026-05-03T14:38:19Z</time></trkpt><trkpt lat="37.12175483560089" lon="14.692951653178195"><ele>496.0</ele><time>2026-05-03T14:38:22Z</time></trkpt><trkpt lat="37.12182029892744" lon="14.693019480502114"><ele>489.6</ele><time>2026-05-03T14:38:25Z</time></trkpt><trkpt lat="37.12187660228138" lon="14.693118104074339"><ele>483.20000000000005</ele><time>2026-05-03T14:38:27Z</time></trkpt><trkpt lat="37.1219124530774" lon="14.693198227358947"><ele>476.79999999999995</ele><time>2026-05-03T14:38:28Z</time></trkpt><trkpt lat="37.121964151756295" lon="14.693290953964802"><ele>470.4</ele><time>2026-05-03T14:38:29Z</time></trkpt><trkpt lat="37.12202045384988" lon="14.693377184459834"><ele>464.0</ele><time>2026-05-03T14:38:30Z</time></trkpt><trkpt lat="37.12206573212742" lon="14.693490075805046"><ele>461.25</ele><time>2026-05-03T14:38:31Z</time></trkpt><trkpt lat="37.1220885244688" lon="14.693640514686223"><ele>458.5</ele><time>2026-05-03T14:38:32Z</time></trkpt><trkpt lat="37.12210549518689" lon="14.693814670325958"><ele>455.75</ele><time>2026-05-03T14:38:33Z</time></trkpt><trkpt lat="37.12213307209546" lon="14.693984711681038"><ele>453.0</ele><time>2026-05-03T14:38:34Z</time></trkpt><trkpt lat="37.12217287966558" lon="14.694159536965344"><ele>453.0</ele><time>2026-05-03T14:38:35Z</time></trkpt><trkpt lat="37.12222081663046" lon="14.694339508023031"><ele>453.0</ele><time>2026-05-03T14:38:36Z</time></trkpt><trkpt lat="37.12228493850848" lon="14.694547569731617"><ele>453.0</ele><time>2026-05-03T14:38:37Z</time></trkpt><trkpt lat="37.12234555872682" lon="14.694764394157602"><ele>449.0</ele><time>2026-05-03T14:38:38Z</time></trkpt><trkpt lat="37.122405021490295" lon="14.69496545455366"><ele>445.0</ele><time>2026-05-03T14:38:39Z</time></trkpt><trkpt lat="37.122470008105545" lon="14.695159567608128"><ele>441.0</ele><time>2026-05-03T14:38:40Z</time></trkpt><trkpt lat="37.12253459224288" lon="14.695330594220318"><ele>439.5</ele><time>2026-05-03T14:38:41Z</time></trkpt><trkpt lat="37.12260331538896" lon="14.69550406834589"><ele>438.0</ele><time>2026-05-03T14:38:42Z</time></trkpt><trkpt lat="37.12266299468041" lon="14.695670767664872"><ele>436.5</ele><time>2026-05-03T14:38:43Z</time></trkpt><trkpt lat="37.122711734519285" lon="14.695825806857492"><ele>435.0</ele><time>2026-05-03T14:38:44Z</time></trkpt><trkpt lat="37.12274902981252" lon="14.695981244690946"><ele>435.5</ele><time>2026-05-03T14:38:45Z</time></trkpt><trkpt lat="37.12278406666237" lon="14.696152055509863"><ele>436.0</ele><time>2026-05-03T14:38:46Z</time></trkpt><trkpt lat="37.12281311611783" lon="14.696315359601622"><ele>436.5</ele><time>2026-05-03T14:38:47Z</time></trkpt><trkpt lat="37.12284759245632" lon="14.696466232896165"><ele>437.0</ele><time>2026-05-03T14:38:48Z</time></trkpt><trkpt lat="37.122873298103684" lon="14.696600075292704"><ele>436.99999999999994</ele><time>2026-05-03T14:38:49Z</time></trkpt><trkpt lat="37.12289686509021" lon="14.696726226282113"><ele>437.0</ele><time>2026-05-03T14:38:50Z</time></trkpt><trkpt lat="37.122919169351725" lon="14.696836621562891"><ele>437.0</ele><time>2026-05-03T14:38:51Z</time></trkpt><trkpt lat="37.12295191925689" lon="14.696930043630312"><ele>437.0</ele><time>2026-05-03T14:38:52Z</time></trkpt><trkpt lat="37.122983430722826" lon="14.697021910642425"><ele>436.99999999999994</ele><time>2026-05-03T14:38:53Z</time></trkpt><trkpt lat="37.12300881603895" lon="14.697116009335803"><ele>437.0</ele><time>2026-05-03T14:38:54Z</time></trkpt><trkpt lat="37.123046126991724" lon="14.697218941575485"><ele>437.6</ele><time>2026-05-03T14:38:55Z</time></trkpt><trkpt lat="37.1230799307645" lon="14.697317894285163"><ele>438.20000000000005</ele><time>2026-05-03T14:38:56Z</time></trkpt><trkpt lat="37.123114281119186" lon="14.697422966290926"><ele>438.8</ele><time>2026-05-03T14:38:57Z</time></trkpt><trkpt lat="37.12314139606623" lon="14.6975279032452"><ele>439.4</ele><time>2026-05-03T14:38:58Z</time></trkpt><trkpt lat="37.12316656604021" lon="14.697638802813398"><ele>440.0</ele><time>2026-05-03T14:38:59Z</time></trkpt><trkpt lat="37.12318926199734" lon="14.69775456482468"><ele>440.2</ele><time>2026-05-03T14:39:00Z</time></trkpt><trkpt lat="37.12320498864575" lon="14.697871532416215"><ele>440.4</ele><time>2026-05-03T14:39:01Z</time></trkpt><trkpt lat="37.123213403402794" lon="14.697988311686727"><ele>440.6</ele><time>2026-05-03T14:39:02Z</time></trkpt><trkpt lat="37.1232163182924" lon="14.698104709084735"><ele>440.8</ele><time>2026-05-03T14:39:03Z</time></trkpt><trkpt lat="37.123214515294016" lon="14.698223495433643"><ele>441.0</ele><time>2026-05-03T14:39:04Z</time></trkpt><trkpt lat="37.123207395129775" lon="14.698339702207356"><ele>441.0</ele><time>2026-05-03T14:39:05Z</time></trkpt><trkpt lat="37.12320804159286" lon="14.698455265867848"><ele>441.0</ele><time>2026-05-03T14:39:06Z</time></trkpt><trkpt lat="37.12322889281278" lon="14.69856970863226"><ele>441.0</ele><time>2026-05-03T14:39:07Z</time></trkpt><trkpt lat="37.12326483119462" lon="14.69867021697551"><ele>441.0</ele><time>2026-05-03T14:39:08Z</time></trkpt><trkpt lat="37.12331086810464" lon="14.698751589865998"><ele>441.0</ele><time>2026-05-03T14:39:09Z</time></trkpt><trkpt lat="37.12336241568964" lon="14.69882733983759"><ele>441.0</ele><time>2026-05-03T14:39:10Z</time></trkpt><trkpt lat="37.123399373016326" lon="14.698915810751378"><ele>438.8</ele><time>2026-05-03T14:39:11Z</time></trkpt><trkpt lat="37.123406648885364" lon="14.699017834165168"><ele>436.6</ele><time>2026-05-03T14:39:11.999Z</time></trkpt><trkpt lat="37.123408974477286" lon="14.699141123319846"><ele>434.4</ele><time>2026-05-03T14:39:12.999Z</time></trkpt><trkpt lat="37.123419674151286" lon="14.699268226617827"><ele>432.2</ele><time>2026-05-03T14:39:13.999Z</time></trkpt><trkpt lat="37.12343386805298" lon="14.699402178353637"><ele>430.0</ele><time>2026-05-03T14:39:14.999Z</time></trkpt><trkpt lat="37.12344964769998" lon="14.6995374780282"><ele>429.8</ele><time>2026-05-03T14:39:15.999Z</time></trkpt><trkpt lat="37.123456975592866" lon="14.699657124646095"><ele>429.6</ele><time>2026-05-03T14:39:16.999Z</time></trkpt><trkpt lat="37.12346639652356" lon="14.699774842514694"><ele>429.4</ele><time>2026-05-03T14:39:17.999Z</time></trkpt><trkpt lat="37.12347451840409" lon="14.699886810573558"><ele>429.2</ele><time>2026-05-03T14:39:18.999Z</time></trkpt><trkpt lat="37.12346737333621" lon="14.69998372484708"><ele>429.0</ele><time>2026-05-03T14:39:19.999Z</time></trkpt><trkpt lat="37.1234411667782" lon="14.70009864232013"><ele>429.0</ele><time>2026-05-03T14:39:21.999Z</time></trkpt><trkpt lat="37.1234595662666" lon="14.700179041879307"><ele>429.0</ele><time>2026-05-03T14:39:23.999Z</time></trkpt><trkpt lat="37.12353834112963" lon="14.700286908669685"><ele>429.0</ele><time>2026-05-03T14:39:26.999Z</time></trkpt><trkpt lat="37.1236178309089" lon="14.700377352969474"><ele>429.0</ele><time>2026-05-03T14:39:28.999Z</time></trkpt><trkpt lat="37.12367085913432" lon="14.700433526373763"><ele>429.0</ele><time>2026-05-03T14:39:29.999Z</time></trkpt><trkpt lat="37.123741775413436" lon="14.700517221594165"><ele>426.6666666666667</ele><time>2026-05-03T14:39:30.999Z</time></trkpt><trkpt lat="37.12380415471741" lon="14.700594773880482"><ele>424.33333333333337</ele><time>2026-05-03T14:39:31.999Z</time></trkpt><trkpt lat="37.12386014091629" lon="14.700671816311866"><ele>422.0</ele><time>2026-05-03T14:39:32.999Z</time></trkpt><trkpt lat="37.123907924634345" lon="14.700749651088833"><ele>419.6666666666667</ele><time>2026-05-03T14:39:33.999Z</time></trkpt><trkpt lat="37.123934262694725" lon="14.700853505486945"><ele>417.33333333333337</ele><time>2026-05-03T14:39:34.999Z</time></trkpt><trkpt lat="37.123969709728584" lon="14.70094568892756"><ele>415.0</ele><time>2026-05-03T14:39:35.999Z</time></trkpt><trkpt lat="37.12403743394154" lon="14.701078534297922"><ele>415.00000000000006</ele><time>2026-05-03T14:39:37.999Z</time></trkpt><trkpt lat="37.12408158657099" lon="14.701145534454728"><ele>415.0</ele><time>2026-05-03T14:39:39.999Z</time></trkpt><trkpt lat="37.12413082316918" lon="14.701214407541407"><ele>415.0</ele><time>2026-05-03T14:40:00Z</time></trkpt><trkpt lat="37.12405437932705" lon="14.701230021639395"><ele>415.0</ele><time>2026-05-03T14:40:03Z</time></trkpt><trkpt lat="37.12398465213332" lon="14.701158781722853"><ele>415.00000000000006</ele><time>2026-05-03T14:40:08Z</time></trkpt><trkpt lat="37.12388262013658" lon="14.701085445013467"><ele>415.0</ele><time>2026-05-03T14:40:10Z</time></trkpt><trkpt lat="37.123823586504706" lon="14.701021640842946"><ele>412.83333333333337</ele><time>2026-05-03T14:40:11Z</time></trkpt><trkpt lat="37.12377319170172" lon="14.701117890912137"><ele>410.6666666666667</ele><time>2026-05-03T14:40:12Z</time></trkpt><trkpt lat="37.12369943293779" lon="14.701152001578864"><ele>408.5</ele><time>2026-05-03T14:40:13Z</time></trkpt><trkpt lat="37.12362625440978" lon="14.70120233014952"><ele>406.33333333333337</ele><time>2026-05-03T14:40:14Z</time></trkpt><trkpt lat="37.123562329106576" lon="14.701254342381615"><ele>404.1666666666667</ele><time>2026-05-03T14:40:15Z</time></trkpt><trkpt lat="37.123500387226436" lon="14.701283778905243"><ele>402.0</ele><time>2026-05-03T14:40:16Z</time></trkpt><trkpt lat="37.123411024485776" lon="14.701301352204625"><ele>402.0</ele><time>2026-05-03T14:40:18Z</time></trkpt><trkpt lat="37.12329711560926" lon="14.701362095928543"><ele>402.0</ele><time>2026-05-03T14:40:20Z</time></trkpt><trkpt lat="37.123191157775935" lon="14.701473283710977"><ele>402.0</ele><time>2026-05-03T14:40:22Z</time></trkpt><trkpt lat="37.1231274090811" lon="14.701561550345"><ele>402.0</ele><time>2026-05-03T14:40:23Z</time></trkpt><trkpt lat="37.12307285763878" lon="14.70165449378731"><ele>402.0</ele><time>2026-05-03T14:40:24Z</time></trkpt><trkpt lat="37.1230424841209" lon="14.70177124552978"><ele>404.20000000000005</ele><time>2026-05-03T14:40:25Z</time></trkpt><trkpt lat="37.12300437026699" lon="14.70188672080781"><ele>406.4</ele><time>2026-05-03T14:40:26Z</time></trkpt><trkpt lat="37.122970499392146" lon="14.702004062830602"><ele>408.6</ele><time>2026-05-03T14:40:27Z</time></trkpt><trkpt lat="37.12291158805657" lon="14.702123061566795"><ele>410.79999999999995</ele><time>2026-05-03T14:40:28Z</time></trkpt><trkpt lat="37.122845107707505" lon="14.702205830576926"><ele>413.0</ele><time>2026-05-03T14:40:29Z</time></trkpt><trkpt lat="37.12275833341898" lon="14.702279354720485"><ele>412.99999999999994</ele><time>2026-05-03T14:40:30Z</time></trkpt><trkpt lat="37.12269369970898" lon="14.702307365570546"><ele>413.0</ele><time>2026-05-03T14:40:31Z</time></trkpt><trkpt lat="37.122635471568515" lon="14.702341214395217"><ele>413.0</ele><time>2026-05-03T14:40:32Z</time></trkpt><trkpt lat="37.12258082728329" lon="14.7024575225555"><ele>413.0</ele><time>2026-05-03T14:40:34Z</time></trkpt><trkpt lat="37.122549529517755" lon="14.702552710485104"><ele>412.99999999999994</ele><time>2026-05-03T14:40:35Z</time></trkpt><trkpt lat="37.12250472553836" lon="14.702647763330818"><ele>413.0</ele><time>2026-05-03T14:40:36Z</time></trkpt><trkpt lat="37.122444739807705" lon="14.702728547414639"><ele>418.66666666666663</ele><time>2026-05-03T14:40:37Z</time></trkpt><trkpt lat="37.122387492519955" lon="14.702806822383629"><ele>424.3333333333333</ele><time>2026-05-03T14:40:38Z</time></trkpt><trkpt lat="37.12235104524058" lon="14.7029080185202"><ele>430.0</ele><time>2026-05-03T14:40:39Z</time></trkpt><trkpt lat="37.122321150843646" lon="14.703010929996255"><ele>435.66666666666663</ele><time>2026-05-03T14:40:40Z</time></trkpt><trkpt lat="37.12230799596353" lon="14.703110356002743"><ele>441.3333333333333</ele><time>2026-05-03T14:40:41Z</time></trkpt><trkpt lat="37.12231349759301" lon="14.703190223512753"><ele>447.0</ele><time>2026-05-03T14:40:42Z</time></trkpt><trkpt lat="37.12234727489912" lon="14.703267803868425"><ele>441.3333333333333</ele><time>2026-05-03T14:40:44Z</time></trkpt><trkpt lat="37.12243964374237" lon="14.703229238983214"><ele>435.66666666666663</ele><time>2026-05-03T14:40:46Z</time></trkpt><trkpt lat="37.12250590365363" lon="14.703167905141944"><ele>430.0</ele><time>2026-05-03T14:40:47Z</time></trkpt><trkpt lat="37.12256315885894" lon="14.703116397166381"><ele>424.3333333333333</ele><time>2026-05-03T14:40:48Z</time></trkpt><trkpt lat="37.12263622357917" lon="14.703072845776433"><ele>418.66666666666663</ele><time>2026-05-03T14:40:50Z</time></trkpt><trkpt lat="37.12269198918598" lon="14.703125220516748"><ele>413.0</ele><time>2026-05-03T14:40:51Z</time></trkpt><trkpt lat="37.12276795396095" lon="14.703267979744073"><ele>413.0</ele><time>2026-05-03T14:40:53Z</time></trkpt><trkpt lat="37.12282092789033" lon="14.703399122628332"><ele>413.0</ele><time>2026-05-03T14:40:54Z</time></trkpt><trkpt lat="37.12287803153916" lon="14.703561796774151"><ele>413.0</ele><time>2026-05-03T14:40:55Z</time></trkpt><trkpt lat="37.12293670138778" lon="14.7037186904521"><ele>413.0</ele><time>2026-05-03T14:40:56Z</time></trkpt><trkpt lat="37.12299698945994" lon="14.703876082282466"><ele>416.5</ele><time>2026-05-03T14:40:57Z</time></trkpt><trkpt lat="37.12305411135957" lon="14.70402768538296"><ele>420.0</ele><time>2026-05-03T14:40:58Z</time></trkpt><trkpt lat="37.12310970887405" lon="14.70416560400247"><ele>423.5</ele><time>2026-05-03T14:40:59Z</time></trkpt><trkpt lat="37.12316798815505" lon="14.70430268486272"><ele>427.0</ele><time>2026-05-03T14:41:00Z</time></trkpt><trkpt lat="37.12323905904271" lon="14.70443478688072"><ele>421.20000000000005</ele><time>2026-05-03T14:41:01Z</time></trkpt><trkpt lat="37.12330800086718" lon="14.704561405121432"><ele>415.40000000000003</ele><time>2026-05-03T14:41:02Z</time></trkpt><trkpt lat="37.12336285369087" lon="14.70467847789314"><ele>409.6</ele><time>2026-05-03T14:41:03Z</time></trkpt><trkpt lat="37.12340495709136" lon="14.704793990718601"><ele>403.79999999999995</ele><time>2026-05-03T14:41:04Z</time></trkpt><trkpt lat="37.12346704665976" lon="14.704892188131524"><ele>398.0</ele><time>2026-05-03T14:41:05Z</time></trkpt><trkpt lat="37.12354588574105" lon="14.704970577224007"><ele>398.0</ele><time>2026-05-03T14:41:06Z</time></trkpt><trkpt lat="37.12361868379453" lon="14.705038323319304"><ele>398.0</ele><time>2026-05-03T14:41:07Z</time></trkpt><trkpt lat="37.1236814762592" lon="14.705084230984987"><ele>398.0</ele><time>2026-05-03T14:41:08Z</time></trkpt><trkpt lat="37.12379141139908" lon="14.705148225646578"><ele>398.0</ele><time>2026-05-03T14:41:10Z</time></trkpt><trkpt lat="37.12386842731277" lon="14.705169203642225"><ele>398.0</ele><time>2026-05-03T14:41:11Z</time></trkpt><trkpt lat="37.123960423516486" lon="14.705169206610988"><ele>396.2</ele><time>2026-05-03T14:41:12Z</time></trkpt><trkpt lat="37.12406594687055" lon="14.7051879737216"><ele>394.4</ele><time>2026-05-03T14:41:13Z</time></trkpt><trkpt lat="37.124171904674604" lon="14.705191407770824"><ele>392.59999999999997</ele><time>2026-05-03T14:41:14Z</time></trkpt><trkpt lat="37.12427751195696" lon="14.705184957135838"><ele>390.79999999999995</ele><time>2026-05-03T14:41:15Z</time></trkpt><trkpt lat="37.1244035492331" lon="14.705174227295585"><ele>389.0</ele><time>2026-05-03T14:41:16Z</time></trkpt><trkpt lat="37.12453241905007" lon="14.705165078499562"><ele>389.0</ele><time>2026-05-03T14:41:17Z</time></trkpt><trkpt lat="37.12464284069584" lon="14.705167904375244"><ele>389.0</ele><time>2026-05-03T14:41:18Z</time></trkpt><trkpt lat="37.124726030581705" lon="14.705175612062959"><ele>389.0</ele><time>2026-05-03T14:41:19Z</time></trkpt><trkpt lat="37.12481933484991" lon="14.70518195668976"><ele>389.0</ele><time>2026-05-03T14:41:20Z</time></trkpt><trkpt lat="37.12494065525732" lon="14.705192358947796"><ele>389.0</ele><time>2026-05-03T14:41:20.999Z</time></trkpt><trkpt lat="37.12506663553472" lon="14.70520812874702"><ele>386.49999999999994</ele><time>2026-05-03T14:41:21.999Z</time></trkpt><trkpt lat="37.12517127065177" lon="14.705207700070808"><ele>384.0</ele><time>2026-05-03T14:41:22.999Z</time></trkpt><trkpt lat="37.125251902554325" lon="14.705197150029806"><ele>381.5</ele><time>2026-05-03T14:41:23.999Z</time></trkpt><trkpt lat="37.12532657305558" lon="14.705168887089394"><ele>379.0</ele><time>2026-05-03T14:41:24.999Z</time></trkpt><trkpt lat="37.12539421184207" lon="14.705126932497896"><ele>376.5</ele><time>2026-05-03T14:41:25.999Z</time></trkpt><trkpt lat="37.125481691476466" lon="14.705083835921345"><ele>374.0</ele><time>2026-05-03T14:41:27.999Z</time></trkpt><trkpt lat="37.12555462021688" lon="14.705095532834765"><ele>374.0</ele><time>2026-05-03T14:41:30.999Z</time></trkpt><trkpt lat="37.12568490493445" lon="14.705086963435694"><ele>374.0</ele><time>2026-05-03T14:41:32.999Z</time></trkpt><trkpt lat="37.125753986608956" lon="14.70507449540753"><ele>374.0</ele><time>2026-05-03T14:41:33.999Z</time></trkpt><trkpt lat="37.125828902033334" lon="14.70506325606108"><ele>374.0</ele><time>2026-05-03T14:41:34.999Z</time></trkpt><trkpt lat="37.12595417811254" lon="14.705048457422457"><ele>374.0</ele><time>2026-05-03T14:41:36.999Z</time></trkpt><trkpt lat="37.12609096213023" lon="14.705044271557442"><ele>371.6666666666667</ele><time>2026-05-03T14:41:38.999Z</time></trkpt><trkpt lat="37.12616218591362" lon="14.705032544277259"><ele>369.33333333333337</ele><time>2026-05-03T14:41:39.999Z</time></trkpt><trkpt lat="37.126235241898556" lon="14.705019892874546"><ele>367.0</ele><time>2026-05-03T14:41:40.999Z</time></trkpt><trkpt lat="37.126303605905726" lon="14.705015799119819"><ele>364.6666666666667</ele><time>2026-05-03T14:41:41.999Z</time></trkpt><trkpt lat="37.126368252823426" lon="14.705002847612011"><ele>362.3333333333333</ele><time>2026-05-03T14:41:42.999Z</time></trkpt><trkpt lat="37.12647506509224" lon="14.7049836917912"><ele>360.0</ele><time>2026-05-03T14:41:44.999Z</time></trkpt><trkpt lat="37.12653976050224" lon="14.704975848490966"><ele>358.1666666666667</ele><time>2026-05-03T14:41:45.999Z</time></trkpt><trkpt lat="37.1266586493954" lon="14.704971101527807"><ele>356.3333333333333</ele><time>2026-05-03T14:41:47.999Z</time></trkpt><trkpt lat="37.12675907850669" lon="14.704994316323358"><ele>354.5</ele><time>2026-05-03T14:41:51.999Z</time></trkpt><trkpt lat="37.12682666410168" lon="14.705006361525172"><ele>352.66666666666663</ele><time>2026-05-03T14:41:52.999Z</time></trkpt><trkpt lat="37.12689886873078" lon="14.70500182081406"><ele>350.8333333333333</ele><time>2026-05-03T14:41:53.999Z</time></trkpt><trkpt lat="37.12696442043216" lon="14.70497960182836"><ele>349.0</ele><time>2026-05-03T14:41:54.999Z</time></trkpt><trkpt lat="37.12703209624756" lon="14.704968451473258"><ele>349.0</ele><time>2026-05-03T14:41:55.999Z</time></trkpt><trkpt lat="37.12709983047218" lon="14.704964909113697"><ele>349.0</ele><time>2026-05-03T14:41:56.999Z</time></trkpt><trkpt lat="37.12722117631711" lon="14.704939252513872"><ele>349.0</ele><time>2026-05-03T14:41:58.999Z</time></trkpt><trkpt lat="37.1272867221496" lon="14.704924766005346"><ele>349.0</ele><time>2026-05-03T14:41:59.999Z</time></trkpt><trkpt lat="37.12735849285505" lon="14.70491468400943"><ele>349.0</ele><time>2026-05-03T14:42:00.999Z</time></trkpt><trkpt lat="37.12742300038877" lon="14.704912097597486"><ele>349.0</ele><time>2026-05-03T14:42:01.999Z</time></trkpt><trkpt lat="37.127477591603586" lon="14.704961196531594"><ele>346.4</ele><time>2026-05-03T14:42:06Z</time></trkpt><trkpt lat="37.12743142217928" lon="14.704839656843166"><ele>343.79999999999995</ele><time>2026-05-03T14:42:23Z</time></trkpt><trkpt lat="37.127454788401444" lon="14.704723677958235"><ele>341.20000000000005</ele><time>2026-05-03T14:42:24Z</time></trkpt><trkpt lat="37.12747388608447" lon="14.7045806849127"><ele>338.6</ele><time>2026-05-03T14:42:25Z</time></trkpt><trkpt lat="37.12748545706308" lon="14.704426734780247"><ele>336.0</ele><time>2026-05-03T14:42:26Z</time></trkpt><trkpt lat="37.12747495835952" lon="14.704309009456367"><ele>335.8</ele><time>2026-05-03T14:42:27Z</time></trkpt><trkpt lat="37.12745010057567" lon="14.704171126399626"><ele>335.6</ele><time>2026-05-03T14:42:28Z</time></trkpt><trkpt lat="37.12743073282964" lon="14.704015725045377"><ele>335.4</ele><time>2026-05-03T14:42:29Z</time></trkpt><trkpt lat="37.127428732052664" lon="14.703883640738006"><ele>335.2</ele><time>2026-05-03T14:42:30Z</time></trkpt><trkpt lat="37.12743834311006" lon="14.703792690086004"><ele>335.0</ele><time>2026-05-03T14:42:31Z</time></trkpt><trkpt lat="37.12743350343773" lon="14.703705458760966"><ele>335.0</ele><time>2026-05-03T14:42:32Z</time></trkpt><trkpt lat="37.127407064853784" lon="14.703599068999686"><ele>335.0</ele><time>2026-05-03T14:42:33Z</time></trkpt><trkpt lat="37.12738604574108" lon="14.703478720094399"><ele>335.0</ele><time>2026-05-03T14:42:34Z</time></trkpt><trkpt lat="37.1273710451126" lon="14.703352217851425"><ele>335.0</ele><time>2026-05-03T14:42:35Z</time></trkpt><trkpt lat="37.12736756693799" lon="14.703224212845402"><ele>335.0</ele><time>2026-05-03T14:42:36Z</time></trkpt><trkpt lat="37.12738307561213" lon="14.70310181771466"><ele>334.33333333333337</ele><time>2026-05-03T14:42:37Z</time></trkpt><trkpt lat="37.12739244178124" lon="14.702985438828522"><ele>333.6666666666667</ele><time>2026-05-03T14:42:38Z</time></trkpt><trkpt lat="37.127410138345674" lon="14.702872361040408"><ele>333.0</ele><time>2026-05-03T14:42:39Z</time></trkpt><trkpt lat="37.12742531564164" lon="14.702767246911407"><ele>332.3333333333333</ele><time>2026-05-03T14:42:40Z</time></trkpt><trkpt lat="37.12742616547539" lon="14.70265829164569"><ele>331.66666666666663</ele><time>2026-05-03T14:42:41Z</time></trkpt><trkpt lat="37.1274172506356" lon="14.702546079277097"><ele>331.0</ele><time>2026-05-03T14:42:42Z</time></trkpt><trkpt lat="37.127407249369874" lon="14.702437088227416"><ele>332.20000000000005</ele><time>2026-05-03T14:42:43Z</time></trkpt><trkpt lat="37.12738942032548" lon="14.702300281682573"><ele>333.40000000000003</ele><time>2026-05-03T14:42:44Z</time></trkpt><trkpt lat="37.12736877256322" lon="14.702168578903109"><ele>334.6</ele><time>2026-05-03T14:42:45Z</time></trkpt><trkpt lat="37.12734043940847" lon="14.70205628833613"><ele>335.8</ele><time>2026-05-03T14:42:46Z</time></trkpt><trkpt lat="37.12731016968508" lon="14.701953337352258"><ele>337.0</ele><time>2026-05-03T14:42:47Z</time></trkpt><trkpt lat="37.12729179928518" lon="14.701866871933282"><ele>337.0</ele><time>2026-05-03T14:42:48Z</time></trkpt><trkpt lat="37.127246847844454" lon="14.701727758481043"><ele>337.0</ele><time>2026-05-03T14:42:50Z</time></trkpt><trkpt lat="37.12720126827491" lon="14.701622088508689"><ele>337.0</ele><time>2026-05-03T14:42:52Z</time></trkpt><trkpt lat="37.12715854764514" lon="14.701535078078095"><ele>337.0</ele><time>2026-05-03T14:42:54Z</time></trkpt><trkpt lat="37.12710553434039" lon="14.701469199417568"><ele>337.0</ele><time>2026-05-03T14:42:56Z</time></trkpt><trkpt lat="37.127032079659934" lon="14.701374987923678"><ele>337.0</ele><time>2026-05-03T14:42:57.999Z</time></trkpt><trkpt lat="37.126966990713015" lon="14.701264131327523"><ele>337.0</ele><time>2026-05-03T14:42:59.999Z</time></trkpt><trkpt lat="37.12695651487411" lon="14.70113243811536"><ele>337.0</ele><time>2026-05-03T14:43:01.999Z</time></trkpt><trkpt lat="37.12698179049581" lon="14.701029844892176"><ele>337.0</ele><time>2026-05-03T14:43:03.999Z</time></trkpt><trkpt lat="37.12702465250001" lon="14.70097191681546"><ele>337.0</ele><time>2026-05-03T14:43:05.999Z</time></trkpt><trkpt lat="37.127075752904254" lon="14.700923421782898"><ele>337.0</ele><time>2026-05-03T14:43:08.999Z</time></trkpt><trkpt lat="37.12708042917834" lon="14.700837712994694"><ele>337.0</ele><time>2026-05-03T14:48:54Z</time></trkpt><trkpt lat="37.12702877875293" lon="14.700919404252053"><ele>337.0</ele><time>2026-05-03T14:56:44.999Z</time></trkpt><trkpt lat="37.12696069567226" lon="14.701041044281002"><ele>337.0</ele><time>2026-05-03T14:56:46.999Z</time></trkpt><trkpt lat="37.1269330512515" lon="14.701114096715498"><ele>337.0</ele><time>2026-05-03T14:56:48Z</time></trkpt><trkpt lat="37.1269126825648" lon="14.70119519372614"><ele>337.0</ele><time>2026-05-03T14:56:49Z</time></trkpt><trkpt lat="37.12686823739744" lon="14.701285976026213"><ele>337.0</ele><time>2026-05-03T14:56:50Z</time></trkpt><trkpt lat="37.12681805559792" lon="14.701348157562558"><ele>337.0</ele><time>2026-05-03T14:56:51Z</time></trkpt><trkpt lat="37.12674646878183" lon="14.70140065699242"><ele>337.0</ele><time>2026-05-03T14:56:52Z</time></trkpt><trkpt lat="37.126708254108706" lon="14.701465661570602"><ele>337.0</ele><time>2026-05-03T14:56:53Z</time></trkpt><trkpt lat="37.12668653781685" lon="14.70161552062557"><ele>337.0</ele><time>2026-05-03T14:56:55Z</time></trkpt><trkpt lat="37.12666626413873" lon="14.701710751803823"><ele>337.0</ele><time>2026-05-03T14:56:56Z</time></trkpt><trkpt lat="37.1266417798122" lon="14.701818822932122"><ele>337.0</ele><time>2026-05-03T14:56:57Z</time></trkpt><trkpt lat="37.12661527110589" lon="14.701933890066147"><ele>337.8</ele><time>2026-05-03T14:56:58Z</time></trkpt><trkpt lat="37.12658662120924" lon="14.702064339916799"><ele>338.6</ele><time>2026-05-03T14:56:59Z</time></trkpt><trkpt lat="37.126553502356174" lon="14.702191838982138"><ele>339.40000000000003</ele><time>2026-05-03T14:57:00Z</time></trkpt><trkpt lat="37.126523158726876" lon="14.702333085967073"><ele>340.20000000000005</ele><time>2026-05-03T14:57:01Z</time></trkpt><trkpt lat="37.126492509592154" lon="14.702467358707318"><ele>341.0</ele><time>2026-05-03T14:57:02Z</time></trkpt><trkpt lat="37.1264552540467" lon="14.702607115295265"><ele>343.5</ele><time>2026-05-03T14:57:03Z</time></trkpt><trkpt lat="37.12641916207109" lon="14.702745802999669"><ele>346.0</ele><time>2026-05-03T14:57:04Z</time></trkpt><trkpt lat="37.12636126156629" lon="14.702870156191183"><ele>348.5</ele><time>2026-05-03T14:57:05Z</time></trkpt><trkpt lat="37.126296448276015" lon="14.70299710372765"><ele>351.0</ele><time>2026-05-03T14:57:06Z</time></trkpt><trkpt lat="37.12625015135341" lon="14.703150261051867"><ele>351.0</ele><time>2026-05-03T14:57:07Z</time></trkpt><trkpt lat="37.12621130047141" lon="14.703305667883381"><ele>351.0</ele><time>2026-05-03T14:57:08Z</time></trkpt><trkpt lat="37.126155754471945" lon="14.703454280296665"><ele>351.0</ele><time>2026-05-03T14:57:09Z</time></trkpt><trkpt lat="37.12609484170577" lon="14.703604078816369"><ele>351.0</ele><time>2026-05-03T14:57:10Z</time></trkpt><trkpt lat="37.12603256665092" lon="14.703752914754332"><ele>352.5</ele><time>2026-05-03T14:57:11Z</time></trkpt><trkpt lat="37.12597897023029" lon="14.703892792488103"><ele>354.0</ele><time>2026-05-03T14:57:12Z</time></trkpt><trkpt lat="37.12592254992438" lon="14.704035337017029"><ele>355.5</ele><time>2026-05-03T14:57:13Z</time></trkpt><trkpt lat="37.12586318142144" lon="14.70416818255556"><ele>357.0</ele><time>2026-05-03T14:57:14Z</time></trkpt><trkpt lat="37.125793242421075" lon="14.704303781521332"><ele>361.25</ele><time>2026-05-03T14:57:15Z</time></trkpt><trkpt lat="37.1257247206587" lon="14.704457174544965"><ele>365.5</ele><time>2026-05-03T14:57:16Z</time></trkpt><trkpt lat="37.12566235081582" lon="14.704605412211338"><ele>369.75</ele><time>2026-05-03T14:57:17Z</time></trkpt><trkpt lat="37.125600796895604" lon="14.704748274330294"><ele>374.0</ele><time>2026-05-03T14:57:18Z</time></trkpt><trkpt lat="37.125542795460056" lon="14.704892924947327"><ele>374.0</ele><time>2026-05-03T14:57:19Z</time></trkpt><trkpt lat="37.12548844092664" lon="14.7050430708702"><ele>374.0</ele><time>2026-05-03T14:57:20Z</time></trkpt><trkpt lat="37.1254348302468" lon="14.70520095191386"><ele>374.0</ele><time>2026-05-03T14:57:21Z</time></trkpt><trkpt lat="37.125396393795576" lon="14.705350186803761"><ele>374.0</ele><time>2026-05-03T14:57:22Z</time></trkpt><trkpt lat="37.12536971232596" lon="14.705475460335558"><ele>373.6</ele><time>2026-05-03T14:57:23Z</time></trkpt><trkpt lat="37.12534852466632" lon="14.705577226532302"><ele>373.2</ele><time>2026-05-03T14:57:24Z</time></trkpt><trkpt lat="37.12532258506158" lon="14.705689398672645"><ele>372.8</ele><time>2026-05-03T14:57:25Z</time></trkpt><trkpt lat="37.1252926654075" lon="14.705801018286527"><ele>372.40000000000003</ele><time>2026-05-03T14:57:26Z</time></trkpt><trkpt lat="37.12524835859462" lon="14.70591507353003"><ele>372.0</ele><time>2026-05-03T14:57:27Z</time></trkpt><trkpt lat="37.1252042751988" lon="14.706004925739563"><ele>372.5</ele><time>2026-05-03T14:57:28Z</time></trkpt><trkpt lat="37.12516400796682" lon="14.70609436306855"><ele>373.0</ele><time>2026-05-03T14:57:29Z</time></trkpt><trkpt lat="37.12513943313128" lon="14.706170273424418"><ele>373.5</ele><time>2026-05-03T14:57:30Z</time></trkpt><trkpt lat="37.12516757597453" lon="14.706298959031754"><ele>374.0</ele><time>2026-05-03T14:57:32Z</time></trkpt><trkpt lat="37.125240073263" lon="14.706298492256478"><ele>374.5</ele><time>2026-05-03T14:57:34Z</time></trkpt><trkpt lat="37.12531590496472" lon="14.70632563065746"><ele>375.0</ele><time>2026-05-03T14:57:36Z</time></trkpt><trkpt lat="37.12539833970899" lon="14.706417213077215"><ele>375.0</ele><time>2026-05-03T14:57:39Z</time></trkpt><trkpt lat="37.12544125781381" lon="14.706487512886042"><ele>375.0</ele><time>2026-05-03T14:57:40Z</time></trkpt><trkpt lat="37.12548733395922" lon="14.706588062959149"><ele>375.0</ele><time>2026-05-03T14:57:41Z</time></trkpt><trkpt lat="37.125527475996485" lon="14.706687517266271"><ele>375.0</ele><time>2026-05-03T14:57:42Z</time></trkpt><trkpt lat="37.12557719079999" lon="14.706818572430565"><ele>375.0</ele><time>2026-05-03T14:57:43Z</time></trkpt><trkpt lat="37.12563175813545" lon="14.706931354378348"><ele>375.3333333333333</ele><time>2026-05-03T14:57:43.999Z</time></trkpt><trkpt lat="37.12565412273072" lon="14.707019806816119"><ele>375.6666666666667</ele><time>2026-05-03T14:57:44.999Z</time></trkpt><trkpt lat="37.125670170727005" lon="14.707114194946348"><ele>376.0</ele><time>2026-05-03T14:57:45.999Z</time></trkpt><trkpt lat="37.12568390779469" lon="14.707273871706985"><ele>376.33333333333337</ele><time>2026-05-03T14:57:47.999Z</time></trkpt><trkpt lat="37.1257218893919" lon="14.70739652294984"><ele>376.6666666666667</ele><time>2026-05-03T14:57:49.999Z</time></trkpt><trkpt lat="37.1257539789824" lon="14.707466338464315"><ele>377.0</ele><time>2026-05-03T14:57:52.999Z</time></trkpt><trkpt lat="37.12573769535542" lon="14.70756108970885"><ele>377.0</ele><time>2026-05-03T14:57:55.999Z</time></trkpt><trkpt lat="37.12570411643711" lon="14.707683204070829"><ele>377.0</ele><time>2026-05-03T14:57:56.999Z</time></trkpt><trkpt lat="37.12564980556831" lon="14.707751130998664"><ele>377.0</ele><time>2026-05-03T14:57:57.999Z</time></trkpt><trkpt lat="37.12557623733914" lon="14.707826810800658"><ele>377.0</ele><time>2026-05-03T14:57:58.999Z</time></trkpt><trkpt lat="37.12553661181471" lon="14.707956615395833"><ele>377.0</ele><time>2026-05-03T14:57:59.999Z</time></trkpt><trkpt lat="37.12549263523755" lon="14.708082803985672"><ele>374.40000000000003</ele><time>2026-05-03T14:58:00.999Z</time></trkpt><trkpt lat="37.12544068254444" lon="14.708215165535787"><ele>371.8</ele><time>2026-05-03T14:58:01.999Z</time></trkpt><trkpt lat="37.12539770868889" lon="14.708319153547698"><ele>369.2</ele><time>2026-05-03T14:58:02.999Z</time></trkpt><trkpt lat="37.12536383528359" lon="14.708399143329615"><ele>366.6</ele><time>2026-05-03T14:58:03.999Z</time></trkpt><trkpt lat="37.12531099917233" lon="14.708509600081547"><ele>364.0</ele><time>2026-05-03T14:58:04.999Z</time></trkpt><trkpt lat="37.12523228858" lon="14.708661494976441"><ele>366.5</ele><time>2026-05-03T14:58:05.999Z</time></trkpt><trkpt lat="37.125110352765134" lon="14.70878984726388"><ele>369.0</ele><time>2026-05-03T14:58:06.999Z</time></trkpt><trkpt lat="37.12500216286591" lon="14.70890393466223"><ele>371.5</ele><time>2026-05-03T14:58:07.999Z</time></trkpt><trkpt lat="37.124910333555896" lon="14.70901737916935"><ele>374.0</ele><time>2026-05-03T14:58:08.999Z</time></trkpt><trkpt lat="37.124824686105796" lon="14.709170500481841"><ele>374.0</ele><time>2026-05-03T14:58:09.999Z</time></trkpt><trkpt lat="37.12474048599239" lon="14.709310796435085"><ele>374.0</ele><time>2026-05-03T14:58:10.999Z</time></trkpt><trkpt lat="37.124632376040545" lon="14.709463823170646"><ele>374.0</ele><time>2026-05-03T14:58:11.999Z</time></trkpt><trkpt lat="37.12454753020264" lon="14.709588095927952"><ele>374.0</ele><time>2026-05-03T14:58:12.999Z</time></trkpt><trkpt lat="37.12447334638914" lon="14.70969406518485"><ele>369.6</ele><time>2026-05-03T14:58:13.999Z</time></trkpt><trkpt lat="37.124403811670184" lon="14.709817060187353"><ele>365.2</ele><time>2026-05-03T14:58:14.999Z</time></trkpt><trkpt lat="37.12433561870887" lon="14.709913781396581"><ele>360.8</ele><time>2026-05-03T14:58:15.999Z</time></trkpt><trkpt lat="37.12427439363986" lon="14.710009015055904"><ele>356.40000000000003</ele><time>2026-05-03T14:58:16.999Z</time></trkpt><trkpt lat="37.124195300070475" lon="14.71010572936376"><ele>352.0</ele><time>2026-05-03T14:58:18.999Z</time></trkpt><trkpt lat="37.12415400945659" lon="14.710168565154037"><ele>353.0</ele><time>2026-05-03T14:58:22.999Z</time></trkpt><trkpt lat="37.12414690844457" lon="14.710266580421138"><ele>354.0</ele><time>2026-05-03T14:59:57.999Z</time></trkpt><trkpt lat="37.12411515209053" lon="14.710364160432439"><ele>355.0</ele><time>2026-05-03T14:59:59.999Z</time></trkpt><trkpt lat="37.12406335211559" lon="14.71044193914788"><ele>356.0</ele><time>2026-05-03T15:00:01.999Z</time></trkpt><trkpt lat="37.12397170856685" lon="14.710543893308508"><ele>357.0</ele><time>2026-05-03T15:00:03.999Z</time></trkpt><trkpt lat="37.12390173362334" lon="14.710606825460355"><ele>357.0</ele><time>2026-05-03T15:00:04.999Z</time></trkpt><trkpt lat="37.12383486468551" lon="14.710678204266857"><ele>357.0</ele><time>2026-05-03T15:00:05.999Z</time></trkpt><trkpt lat="37.12376467283708" lon="14.710712600909659"><ele>357.0</ele><time>2026-05-03T15:00:06.999Z</time></trkpt><trkpt lat="37.123712896911144" lon="14.710784923201567"><ele>357.0</ele><time>2026-05-03T15:00:07.999Z</time></trkpt><trkpt lat="37.123638726612356" lon="14.710845779879618"><ele>357.0</ele><time>2026-05-03T15:00:08.999Z</time></trkpt><trkpt lat="37.12357249308876" lon="14.71091740395809"><ele>357.0</ele><time>2026-05-03T15:00:09.999Z</time></trkpt><trkpt lat="37.123503312194565" lon="14.710982458973337"><ele>357.0</ele><time>2026-05-03T15:00:10.999Z</time></trkpt><trkpt lat="37.12343788257445" lon="14.711043794951552"><ele>357.0</ele><time>2026-05-03T15:00:11.999Z</time></trkpt><trkpt lat="37.123360839966715" lon="14.711081560358634"><ele>357.0</ele><time>2026-05-03T15:00:12.999Z</time></trkpt><trkpt lat="37.123295587354015" lon="14.711136696714236"><ele>357.0</ele><time>2026-05-03T15:00:13.999Z</time></trkpt><trkpt lat="37.12324338395515" lon="14.711196619708819"><ele>357.0</ele><time>2026-05-03T15:00:14.999Z</time></trkpt><trkpt lat="37.1231991734303" lon="14.711309223464873"><ele>357.0</ele><time>2026-05-03T15:00:15.999Z</time></trkpt><trkpt lat="37.12314666728768" lon="14.71140445658342"><ele>360.8333333333333</ele><time>2026-05-03T15:00:16.999Z</time></trkpt><trkpt lat="37.123095630187166" lon="14.711471056764568"><ele>364.6666666666667</ele><time>2026-05-03T15:00:17.999Z</time></trkpt><trkpt lat="37.12303035568187" lon="14.711530099698606"><ele>368.5</ele><time>2026-05-03T15:00:18.999Z</time></trkpt><trkpt lat="37.122937884154055" lon="14.711536605941623"><ele>372.33333333333337</ele><time>2026-05-03T15:00:19.999Z</time></trkpt><trkpt lat="37.12285722791577" lon="14.711590787448435"><ele>376.1666666666667</ele><time>2026-05-03T15:00:20.999Z</time></trkpt><trkpt lat="37.122811500376216" lon="14.711658249884634"><ele>380.0</ele><time>2026-05-03T15:00:21.999Z</time></trkpt><trkpt lat="37.12277869115924" lon="14.711726240209389"><ele>380.0</ele><time>2026-05-03T15:00:22.999Z</time></trkpt><trkpt lat="37.12273941511948" lon="14.711808239096692"><ele>380.0</ele><time>2026-05-03T15:00:23.999Z</time></trkpt><trkpt lat="37.12270436616139" lon="14.711909110287639"><ele>380.0</ele><time>2026-05-03T15:00:24.999Z</time></trkpt><trkpt lat="37.1226859014815" lon="14.712027360920048"><ele>380.0</ele><time>2026-05-03T15:00:25.999Z</time></trkpt><trkpt lat="37.12264350845665" lon="14.712126898866584"><ele>380.0</ele><time>2026-05-03T15:00:26.999Z</time></trkpt><trkpt lat="37.12260412970567" lon="14.712220292002957"><ele>380.0</ele><time>2026-05-03T15:00:27.999Z</time></trkpt><trkpt lat="37.122557941287056" lon="14.712284514938357"><ele>379.2</ele><time>2026-05-03T15:00:28.999Z</time></trkpt><trkpt lat="37.12251654825023" lon="14.712384947033794"><ele>378.4</ele><time>2026-05-03T15:00:29.999Z</time></trkpt><trkpt lat="37.12244825668744" lon="14.712479147443476"><ele>377.6</ele><time>2026-05-03T15:00:30.999Z</time></trkpt><trkpt lat="37.12238882707247" lon="14.712567426560666"><ele>376.8</ele><time>2026-05-03T15:00:31.999Z</time></trkpt><trkpt lat="37.12233003634457" lon="14.712685573057124"><ele>376.0</ele><time>2026-05-03T15:00:32.999Z</time></trkpt><trkpt lat="37.122302183207104" lon="14.712790769002337"><ele>376.0</ele><time>2026-05-03T15:00:33.999Z</time></trkpt><trkpt lat="37.12224515963117" lon="14.712896974746268"><ele>376.0</ele><time>2026-05-03T15:00:34.999Z</time></trkpt><trkpt lat="37.12218560303682" lon="14.71297905638371"><ele>376.0</ele><time>2026-05-03T15:00:35.999Z</time></trkpt><trkpt lat="37.122113296500174" lon="14.713059460583636"><ele>376.0</ele><time>2026-05-03T15:00:36.999Z</time></trkpt><trkpt lat="37.12208333433701" lon="14.713146513840943"><ele>376.0</ele><time>2026-05-03T15:00:37.999Z</time></trkpt><trkpt lat="37.12207657196096" lon="14.713258144428364"><ele>376.0</ele><time>2026-05-03T15:00:38.999Z</time></trkpt><trkpt lat="37.12207883179525" lon="14.713385712160722"><ele>376.0</ele><time>2026-05-03T15:00:39.999Z</time></trkpt><trkpt lat="37.12207470617977" lon="14.713519707007872"><ele>376.0</ele><time>2026-05-03T15:00:40.999Z</time></trkpt><trkpt lat="37.12207218631004" lon="14.713654342210107"><ele>376.0</ele><time>2026-05-03T15:00:41.999Z</time></trkpt><trkpt lat="37.12205949406173" lon="14.713782520923573"><ele>376.0</ele><time>2026-05-03T15:00:42.999Z</time></trkpt><trkpt lat="37.12202471198038" lon="14.71391613060615"><ele>375.4</ele><time>2026-05-03T15:00:43.999Z</time></trkpt><trkpt lat="37.121993376344506" lon="14.71403257866725"><ele>374.8</ele><time>2026-05-03T15:00:44.999Z</time></trkpt><trkpt lat="37.121929038486094" lon="14.714139636918178"><ele>374.2</ele><time>2026-05-03T15:00:45.999Z</time></trkpt><trkpt lat="37.12184692969406" lon="14.714206093282938"><ele>373.59999999999997</ele><time>2026-05-03T15:00:46.999Z</time></trkpt><trkpt lat="37.12178509183098" lon="14.714304092420697"><ele>373.0</ele><time>2026-05-03T15:00:48.999Z</time></trkpt><trkpt lat="37.121773363707405" lon="14.714446089760107"><ele>373.0</ele><time>2026-05-03T15:00:50.999Z</time></trkpt><trkpt lat="37.12183228222428" lon="14.714546099583613"><ele>373.0</ele><time>2026-05-03T15:00:51.999Z</time></trkpt><trkpt lat="37.12185588860055" lon="14.71462963130135"><ele>373.0</ele><time>2026-05-03T15:00:52.999Z</time></trkpt><trkpt lat="37.12185187000969" lon="14.71476273681762"><ele>373.0</ele><time>2026-05-03T15:00:54.999Z</time></trkpt><trkpt lat="37.1218340528553" lon="14.714850077219575"><ele>373.0</ele><time>2026-05-03T15:00:55.999Z</time></trkpt><trkpt lat="37.12181055945665" lon="14.714936549039024"><ele>373.0</ele><time>2026-05-03T15:00:56.999Z</time></trkpt><trkpt lat="37.121773875169836" lon="14.715061124953854"><ele>373.0</ele><time>2026-05-03T15:00:57.999Z</time></trkpt><trkpt lat="37.12175006057262" lon="14.71519787791635"><ele>373.0</ele><time>2026-05-03T15:00:59Z</time></trkpt><trkpt lat="37.12173683471624" lon="14.715317108813933"><ele>373.0</ele><time>2026-05-03T15:01:00Z</time></trkpt><trkpt lat="37.12174461676858" lon="14.715446167464457"><ele>373.0</ele><time>2026-05-03T15:01:01Z</time></trkpt><trkpt lat="37.12174601580464" lon="14.715572275167489"><ele>373.0</ele><time>2026-05-03T15:01:02Z</time></trkpt><trkpt lat="37.121756279222886" lon="14.715670778748613"><ele>372.4</ele><time>2026-05-03T15:01:03Z</time></trkpt><trkpt lat="37.12176473778761" lon="14.715771377809002"><ele>371.79999999999995</ele><time>2026-05-03T15:01:04Z</time></trkpt><trkpt lat="37.12177535414771" lon="14.715887834790928"><ele>371.2</ele><time>2026-05-03T15:01:05Z</time></trkpt><trkpt lat="37.12176488269317" lon="14.715995431028809"><ele>370.6</ele><time>2026-05-03T15:01:06Z</time></trkpt><trkpt lat="37.12176805128525" lon="14.71611312814803"><ele>370.0</ele><time>2026-05-03T15:01:07Z</time></trkpt><trkpt lat="37.12176977907714" lon="14.716236341801242"><ele>371.2</ele><time>2026-05-03T15:01:08Z</time></trkpt><trkpt lat="37.12177000170988" lon="14.716374957300301"><ele>372.4</ele><time>2026-05-03T15:01:09Z</time></trkpt><trkpt lat="37.12178389681891" lon="14.716509353238072"><ele>373.6</ele><time>2026-05-03T15:01:10Z</time></trkpt><trkpt lat="37.12176658544854" lon="14.716648927071299"><ele>374.8</ele><time>2026-05-03T15:01:11Z</time></trkpt><trkpt lat="37.121761503880904" lon="14.716785195386946"><ele>376.0</ele><time>2026-05-03T15:01:12Z</time></trkpt><trkpt lat="37.12175314742099" lon="14.716908703552457"><ele>377.25</ele><time>2026-05-03T15:01:13Z</time></trkpt><trkpt lat="37.12174231814824" lon="14.717049541170647"><ele>378.5</ele><time>2026-05-03T15:01:14Z</time></trkpt><trkpt lat="37.12173943127433" lon="14.717193745888867"><ele>379.75</ele><time>2026-05-03T15:01:15Z</time></trkpt><trkpt lat="37.12174333538692" lon="14.717333572530922"><ele>381.0</ele><time>2026-05-03T15:01:16Z</time></trkpt><trkpt lat="37.12174850065907" lon="14.717472485732095"><ele>381.0</ele><time>2026-05-03T15:01:17Z</time></trkpt><trkpt lat="37.121754245383784" lon="14.71761043858766"><ele>381.0</ele><time>2026-05-03T15:01:18Z</time></trkpt><trkpt lat="37.12176054346851" lon="14.717743092039719"><ele>381.0</ele><time>2026-05-03T15:01:19Z</time></trkpt><trkpt lat="37.1217663779791" lon="14.717872931610096"><ele>381.0</ele><time>2026-05-03T15:01:20Z</time></trkpt><trkpt lat="37.1217706407237" lon="14.717985105050268"><ele>381.0</ele><time>2026-05-03T15:01:21Z</time></trkpt><trkpt lat="37.12177043129273" lon="14.718086638965048"><ele>380.8333333333333</ele><time>2026-05-03T15:01:22Z</time></trkpt><trkpt lat="37.12176582369915" lon="14.71817379317611"><ele>380.6666666666667</ele><time>2026-05-03T15:01:23Z</time></trkpt><trkpt lat="37.121754277884286" lon="14.718268458289042"><ele>380.5</ele><time>2026-05-03T15:01:24Z</time></trkpt><trkpt lat="37.12174106716621" lon="14.718366180489882"><ele>380.33333333333337</ele><time>2026-05-03T15:01:25Z</time></trkpt><trkpt lat="37.121723991995445" lon="14.718470061706087"><ele>380.1666666666667</ele><time>2026-05-03T15:01:26Z</time></trkpt><trkpt lat="37.12170672306356" lon="14.718569193417897"><ele>380.0</ele><time>2026-05-03T15:01:27Z</time></trkpt><trkpt lat="37.121688010579405" lon="14.718676611719944"><ele>377.6</ele><time>2026-05-03T15:01:28Z</time></trkpt><trkpt lat="37.121666754961346" lon="14.718798629003915"><ele>375.2</ele><time>2026-05-03T15:01:29Z</time></trkpt><trkpt lat="37.121647112715195" lon="14.718923238759217"><ele>372.79999999999995</ele><time>2026-05-03T15:01:30Z</time></trkpt><trkpt lat="37.121630006349385" lon="14.719051245765213"><ele>370.4</ele><time>2026-05-03T15:01:31Z</time></trkpt><trkpt lat="37.12161466686142" lon="14.71917369627516"><ele>368.0</ele><time>2026-05-03T15:01:32Z</time></trkpt><trkpt lat="37.12159843335398" lon="14.719276593772832"><ele>368.0</ele><time>2026-05-03T15:01:33Z</time></trkpt><trkpt lat="37.12158222820318" lon="14.719365854202765"><ele>368.0</ele><time>2026-05-03T15:01:34Z</time></trkpt><trkpt lat="37.121558275777986" lon="14.719450416173379"><ele>368.0</ele><time>2026-05-03T15:01:35Z</time></trkpt><trkpt lat="37.12144897667393" lon="14.719506701179533"><ele>368.0</ele><time>2026-05-03T15:01:37Z</time></trkpt><trkpt lat="37.121361788439856" lon="14.71953165698077"><ele>368.0</ele><time>2026-05-03T15:01:38Z</time></trkpt><trkpt lat="37.12126350825155" lon="14.7195074461244"><ele>370.79999999999995</ele><time>2026-05-03T15:01:39Z</time></trkpt><trkpt lat="37.12115553953136" lon="14.719508116693577"><ele>373.6</ele><time>2026-05-03T15:01:40Z</time></trkpt><trkpt lat="37.12106426166183" lon="14.719492602209568"><ele>376.4</ele><time>2026-05-03T15:01:41Z</time></trkpt><trkpt lat="37.12099302410059" lon="14.719513352808532"><ele>379.20000000000005</ele><time>2026-05-03T15:01:42Z</time></trkpt><trkpt lat="37.12090120596527" lon="14.719585204740683"><ele>382.0</ele><time>2026-05-03T15:01:44Z</time></trkpt><trkpt lat="37.12092554769622" lon="14.71968727642502"><ele>382.0</ele><time>2026-05-03T15:01:45Z</time></trkpt><trkpt lat="37.12095983992353" lon="14.719783660751343"><ele>382.0</ele><time>2026-05-03T15:01:46Z</time></trkpt><trkpt lat="37.12103013505522" lon="14.71988694183883"><ele>382.0</ele><time>2026-05-03T15:01:47Z</time></trkpt><trkpt lat="37.121113476860394" lon="14.719979345766191"><ele>382.0</ele><time>2026-05-03T15:01:48Z</time></trkpt><trkpt lat="37.12116234928376" lon="14.720046092476633"><ele>382.0</ele><time>2026-05-03T15:01:49Z</time></trkpt><trkpt lat="37.1212113933093" lon="14.720102648295116"><ele>382.0</ele><time>2026-05-03T15:01:50Z</time></trkpt><trkpt lat="37.1212191891675" lon="14.720259672773699"><ele>378.40000000000003</ele><time>2026-05-03T15:01:52Z</time></trkpt><trkpt lat="37.121223031477165" lon="14.720368132807145"><ele>374.8</ele><time>2026-05-03T15:01:53Z</time></trkpt><trkpt lat="37.12117665955719" lon="14.720441397694993"><ele>371.2</ele><time>2026-05-03T15:01:54Z</time></trkpt><trkpt lat="37.12111877604215" lon="14.72053525289449"><ele>367.6</ele><time>2026-05-03T15:01:55Z</time></trkpt><trkpt lat="37.12104225167044" lon="14.720604924481906"><ele>364.0</ele><time>2026-05-03T15:01:56Z</time></trkpt><trkpt lat="37.12094574810072" lon="14.720700249930669"><ele>364.0</ele><time>2026-05-03T15:01:57Z</time></trkpt><trkpt lat="37.12083255092686" lon="14.720819175605577"><ele>364.0</ele><time>2026-05-03T15:01:57.999Z</time></trkpt><trkpt lat="37.12071604733055" lon="14.72091300488028"><ele>364.0</ele><time>2026-05-03T15:01:58.999Z</time></trkpt><trkpt lat="37.12061067511721" lon="14.721003422769677"><ele>364.0</ele><time>2026-05-03T15:01:59.999Z</time></trkpt><trkpt lat="37.12053237832049" lon="14.721091570576958"><ele>366.79999999999995</ele><time>2026-05-03T15:02:00.999Z</time></trkpt><trkpt lat="37.120460753004934" lon="14.721163390782591"><ele>369.59999999999997</ele><time>2026-05-03T15:02:01.999Z</time></trkpt><trkpt lat="37.12037675335701" lon="14.721246050585332"><ele>372.4</ele><time>2026-05-03T15:02:02.999Z</time></trkpt><trkpt lat="37.12031351896734" lon="14.721356434779885"><ele>375.2</ele><time>2026-05-03T15:02:03.999Z</time></trkpt><trkpt lat="37.12023660335838" lon="14.72143363398288"><ele>378.0</ele><time>2026-05-03T15:02:04.999Z</time></trkpt><trkpt lat="37.120167462500156" lon="14.721523137165173"><ele>378.0</ele><time>2026-05-03T15:02:05.999Z</time></trkpt><trkpt lat="37.1200840945169" lon="14.72163088146428"><ele>378.0</ele><time>2026-05-03T15:02:06.999Z</time></trkpt><trkpt lat="37.1200155742738" lon="14.721743429134888"><ele>378.0</ele><time>2026-05-03T15:02:07.999Z</time></trkpt><trkpt lat="37.11992930648756" lon="14.721862736107003"><ele>378.0</ele><time>2026-05-03T15:02:08.999Z</time></trkpt><trkpt lat="37.119849106082995" lon="14.721971436300672"><ele>380.25</ele><time>2026-05-03T15:02:09.999Z</time></trkpt><trkpt lat="37.119769708025835" lon="14.722083288231431"><ele>382.5</ele><time>2026-05-03T15:02:10.999Z</time></trkpt><trkpt lat="37.11969178807624" lon="14.722198024261388"><ele>384.75</ele><time>2026-05-03T15:02:11.999Z</time></trkpt><trkpt lat="37.1195996712542" lon="14.722319031997623"><ele>387.0</ele><time>2026-05-03T15:02:12.999Z</time></trkpt><trkpt lat="37.11950643594057" lon="14.722458932626452"><ele>387.0</ele><time>2026-05-03T15:02:13.999Z</time></trkpt><trkpt lat="37.11941737739102" lon="14.722592565763083"><ele>387.0</ele><time>2026-05-03T15:02:14.999Z</time></trkpt><trkpt lat="37.119332559416605" lon="14.72272197213346"><ele>387.0</ele><time>2026-05-03T15:02:15.999Z</time></trkpt><trkpt lat="37.11925080855814" lon="14.722854325273104"><ele>387.0</ele><time>2026-05-03T15:02:16.999Z</time></trkpt><trkpt lat="37.11916900576691" lon="14.72298510449239"><ele>388.20000000000005</ele><time>2026-05-03T15:02:17.999Z</time></trkpt><trkpt lat="37.11907989309805" lon="14.723109404186454"><ele>389.4</ele><time>2026-05-03T15:02:18.999Z</time></trkpt><trkpt lat="37.119004299112326" lon="14.723201586665159"><ele>390.6</ele><time>2026-05-03T15:02:19.999Z</time></trkpt><trkpt lat="37.11894271584564" lon="14.723252373408666"><ele>391.79999999999995</ele><time>2026-05-03T15:02:20.999Z</time></trkpt><trkpt lat="37.118878707679535" lon="14.723278799648229"><ele>393.0</ele><time>2026-05-03T15:02:22.999Z</time></trkpt><trkpt lat="37.1187575634822" lon="14.723402015224652"><ele>393.0</ele><time>2026-05-03T15:06:14.999Z</time></trkpt><trkpt lat="37.1187465597822" lon="14.723563461109244"><ele>393.0</ele><time>2026-05-03T15:06:16.999Z</time></trkpt><trkpt lat="37.118723255955786" lon="14.723675021888218"><ele>393.0</ele><time>2026-05-03T15:06:17.999Z</time></trkpt><trkpt lat="37.11867708616269" lon="14.72376269993231"><ele>393.0</ele><time>2026-05-03T15:06:18.999Z</time></trkpt><trkpt lat="37.11861971965899" lon="14.72387638004527"><ele>393.0</ele><time>2026-05-03T15:06:19.999Z</time></trkpt><trkpt lat="37.118574954398994" lon="14.72399400670485"><ele>389.59999999999997</ele><time>2026-05-03T15:06:20.999Z</time></trkpt><trkpt lat="37.11852495604731" lon="14.724114706999561"><ele>386.2</ele><time>2026-05-03T15:06:21.999Z</time></trkpt><trkpt lat="37.118483949952704" lon="14.72424146755816"><ele>382.8</ele><time>2026-05-03T15:06:22.999Z</time></trkpt><trkpt lat="37.118452586561475" lon="14.724372690368607"><ele>379.4</ele><time>2026-05-03T15:06:23.999Z</time></trkpt><trkpt lat="37.11843657228299" lon="14.724498213051719"><ele>376.0</ele><time>2026-05-03T15:06:24.999Z</time></trkpt><trkpt lat="37.11840781903759" lon="14.724638022682097"><ele>373.5</ele><time>2026-05-03T15:06:25.999Z</time></trkpt><trkpt lat="37.11835567453359" lon="14.724742930789711"><ele>371.0</ele><time>2026-05-03T15:06:26.999Z</time></trkpt><trkpt lat="37.1183132223734" lon="14.724847551555436"><ele>368.5</ele><time>2026-05-03T15:06:27.999Z</time></trkpt><trkpt lat="37.118287454900816" lon="14.724948061269473"><ele>366.0</ele><time>2026-05-03T15:06:28.999Z</time></trkpt><trkpt lat="37.11824156683062" lon="14.725025476429721"><ele>363.5</ele><time>2026-05-03T15:06:29.999Z</time></trkpt><trkpt lat="37.11820840523327" lon="14.72511691642993"><ele>361.0</ele><time>2026-05-03T15:06:30.999Z</time></trkpt><trkpt lat="37.11816901874918" lon="14.725225521035565"><ele>365.25</ele><time>2026-05-03T15:06:31.999Z</time></trkpt><trkpt lat="37.1181213195475" lon="14.725354846292715"><ele>369.5</ele><time>2026-05-03T15:06:32.999Z</time></trkpt><trkpt lat="37.11808457199194" lon="14.72548151982973"><ele>373.75</ele><time>2026-05-03T15:06:33.999Z</time></trkpt><trkpt lat="37.11801187364438" lon="14.725591409457971"><ele>378.0</ele><time>2026-05-03T15:06:34.999Z</time></trkpt><trkpt lat="37.117937435747756" lon="14.72572598685151"><ele>378.0</ele><time>2026-05-03T15:06:35.999Z</time></trkpt><trkpt lat="37.11788541034212" lon="14.725857988246586"><ele>378.0</ele><time>2026-05-03T15:06:36.999Z</time></trkpt><trkpt lat="37.11781871109285" lon="14.725986153238408"><ele>378.0</ele><time>2026-05-03T15:06:37.999Z</time></trkpt><trkpt lat="37.117746511053305" lon="14.726117932952727"><ele>378.0</ele><time>2026-05-03T15:06:38.999Z</time></trkpt><trkpt lat="37.11766502844865" lon="14.726236762297335"><ele>380.75</ele><time>2026-05-03T15:06:39.999Z</time></trkpt><trkpt lat="37.11759248205789" lon="14.726363788739034"><ele>383.5</ele><time>2026-05-03T15:06:40.999Z</time></trkpt><trkpt lat="37.11751253162155" lon="14.726486210623376"><ele>386.25</ele><time>2026-05-03T15:06:41.999Z</time></trkpt><trkpt lat="37.11743967509116" lon="14.726612746380447"><ele>389.0</ele><time>2026-05-03T15:06:42.999Z</time></trkpt><trkpt lat="37.11734861081365" lon="14.72672840351226"><ele>389.0</ele><time>2026-05-03T15:06:43.999Z</time></trkpt><trkpt lat="37.11725433486339" lon="14.726840896123521"><ele>389.0</ele><time>2026-05-03T15:06:44.999Z</time></trkpt><trkpt lat="37.11714903546981" lon="14.726967874351546"><ele>389.0</ele><time>2026-05-03T15:06:45.999Z</time></trkpt><trkpt lat="37.11703375571452" lon="14.727030854517833"><ele>389.0</ele><time>2026-05-03T15:06:46.999Z</time></trkpt><trkpt lat="37.11693659700344" lon="14.727053777567168"><ele>386.75</ele><time>2026-05-03T15:06:47.999Z</time></trkpt><trkpt lat="37.11682261955635" lon="14.727089032816615"><ele>384.5</ele><time>2026-05-03T15:06:48.999Z</time></trkpt><trkpt lat="37.11672959281491" lon="14.727139631163501"><ele>382.25</ele><time>2026-05-03T15:06:49.999Z</time></trkpt><trkpt lat="37.11662225962284" lon="14.727174609327681"><ele>380.0</ele><time>2026-05-03T15:06:50.999Z</time></trkpt><trkpt lat="37.11649785350909" lon="14.727203795958708"><ele>380.0</ele><time>2026-05-03T15:06:51.999Z</time></trkpt><trkpt lat="37.11637828757239" lon="14.727255195536703"><ele>380.0</ele><time>2026-05-03T15:06:52.999Z</time></trkpt><trkpt lat="37.11624629416675" lon="14.72731443906653"><ele>380.0</ele><time>2026-05-03T15:06:53.999Z</time></trkpt><trkpt lat="37.116122076909534" lon="14.727386471222356"><ele>380.0</ele><time>2026-05-03T15:06:54.999Z</time></trkpt><trkpt lat="37.1160024231965" lon="14.72744005172143"><ele>380.0</ele><time>2026-05-03T15:06:55.999Z</time></trkpt><trkpt lat="37.115864582517254" lon="14.727480094611924"><ele>380.0</ele><time>2026-05-03T15:06:56.999Z</time></trkpt><trkpt lat="37.115731600552365" lon="14.72756443245708"><ele>380.0</ele><time>2026-05-03T15:06:57.999Z</time></trkpt><trkpt lat="37.1156243480437" lon="14.727612094570947"><ele>380.0</ele><time>2026-05-03T15:06:58.999Z</time></trkpt><trkpt lat="37.1154969210195" lon="14.727625679112359"><ele>378.4</ele><time>2026-05-03T15:06:59.999Z</time></trkpt><trkpt lat="37.115413701524815" lon="14.72764086397354"><ele>376.8</ele><time>2026-05-03T15:07:00.999Z</time></trkpt><trkpt lat="37.1152932940765" lon="14.727651864419784"><ele>375.20000000000005</ele><time>2026-05-03T15:07:01.999Z</time></trkpt><trkpt lat="37.115167400719166" lon="14.727676500664804"><ele>373.6</ele><time>2026-05-03T15:07:02.999Z</time></trkpt><trkpt lat="37.11506288096108" lon="14.727736454961141"><ele>372.0</ele><time>2026-05-03T15:07:03.999Z</time></trkpt><trkpt lat="37.11500058320539" lon="14.727807779305328"><ele>372.0</ele><time>2026-05-03T15:07:04.999Z</time></trkpt><trkpt lat="37.11492865028919" lon="14.727851569611401"><ele>372.0</ele><time>2026-05-03T15:07:05.999Z</time></trkpt><trkpt lat="37.1148508154164" lon="14.72791233723751"><ele>372.0</ele><time>2026-05-03T15:07:06.999Z</time></trkpt><trkpt lat="37.11476697505512" lon="14.727976324577297"><ele>372.0</ele><time>2026-05-03T15:07:07.999Z</time></trkpt><trkpt lat="37.11469205299158" lon="14.728047278180608"><ele>372.0</ele><time>2026-05-03T15:07:08.999Z</time></trkpt><trkpt lat="37.114622266894116" lon="14.72813821690156"><ele>376.20000000000005</ele><time>2026-05-03T15:07:09.999Z</time></trkpt><trkpt lat="37.114530669327706" lon="14.728176481590456"><ele>380.4</ele><time>2026-05-03T15:07:10.999Z</time></trkpt><trkpt lat="37.114444476306694" lon="14.728212425971178"><ele>384.6</ele><time>2026-05-03T15:07:11.999Z</time></trkpt><trkpt lat="37.11435698358316" lon="14.728227223066554"><ele>388.79999999999995</ele><time>2026-05-03T15:07:12.999Z</time></trkpt><trkpt lat="37.114261262840095" lon="14.72821094136471"><ele>393.0</ele><time>2026-05-03T15:07:13.999Z</time></trkpt><trkpt lat="37.11413089136689" lon="14.728205585160609"><ele>392.79999999999995</ele><time>2026-05-03T15:07:14.999Z</time></trkpt><trkpt lat="37.11401544201885" lon="14.728197083438129"><ele>392.6</ele><time>2026-05-03T15:07:15.999Z</time></trkpt><trkpt lat="37.11390217373354" lon="14.728170720246657"><ele>392.4</ele><time>2026-05-03T15:07:17Z</time></trkpt><trkpt lat="37.11379351730483" lon="14.72813730530119"><ele>392.20000000000005</ele><time>2026-05-03T15:07:18Z</time></trkpt><trkpt lat="37.11371388189198" lon="14.728092215902633"><ele>392.0</ele><time>2026-05-03T15:07:19Z</time></trkpt><trkpt lat="37.113659751128914" lon="14.728038143333151"><ele>392.0</ele><time>2026-05-03T15:07:20Z</time></trkpt><trkpt lat="37.11358179893681" lon="14.727958996431772"><ele>392.0</ele><time>2026-05-03T15:07:21Z</time></trkpt><trkpt lat="37.113482751281666" lon="14.72785436886594"><ele>392.0</ele><time>2026-05-03T15:07:22Z</time></trkpt><trkpt lat="37.113382885414055" lon="14.727741747581609"><ele>392.0</ele><time>2026-05-03T15:07:23Z</time></trkpt><trkpt lat="37.113264257518026" lon="14.72761673290986"><ele>394.0</ele><time>2026-05-03T15:07:24Z</time></trkpt><trkpt lat="37.113147343074715" lon="14.727534193210355"><ele>396.0</ele><time>2026-05-03T15:07:25Z</time></trkpt><trkpt lat="37.11305123819098" lon="14.727444509394633"><ele>398.0</ele><time>2026-05-03T15:07:26Z</time></trkpt><trkpt lat="37.112968806754424" lon="14.727354108179846"><ele>400.0</ele><time>2026-05-03T15:07:27Z</time></trkpt><trkpt lat="37.112880079833715" lon="14.727337399433631"><ele>400.0</ele><time>2026-05-03T15:07:28Z</time></trkpt><trkpt lat="37.11278090127309" lon="14.727419534572194"><ele>400.0</ele><time>2026-05-03T15:07:30Z</time></trkpt><trkpt lat="37.11273192774857" lon="14.727482871027819"><ele>400.0</ele><time>2026-05-03T15:07:31Z</time></trkpt><trkpt lat="37.11269849886603" lon="14.72764773895153"><ele>400.0</ele><time>2026-05-03T15:07:33Z</time></trkpt><trkpt lat="37.11259083920114" lon="14.727772434938943"><ele>400.0</ele><time>2026-05-03T15:07:35Z</time></trkpt><trkpt lat="37.112513415006966" lon="14.727769706170745"><ele>400.0</ele><time>2026-05-03T15:07:36Z</time></trkpt><trkpt lat="37.11244730057905" lon="14.727703190485196"><ele>400.0</ele><time>2026-05-03T15:07:37Z</time></trkpt><trkpt lat="37.112368978623365" lon="14.727634708595708"><ele>400.0</ele><time>2026-05-03T15:07:39Z</time></trkpt><trkpt lat="37.112280573812605" lon="14.727578718234767"><ele>400.0</ele><time>2026-05-03T15:07:40Z</time></trkpt><trkpt lat="37.1122067839716" lon="14.727495015100628"><ele>399.75</ele><time>2026-05-03T15:07:41Z</time></trkpt><trkpt lat="37.11212867671152" lon="14.727429713326856"><ele>399.5</ele><time>2026-05-03T15:07:42Z</time></trkpt><trkpt lat="37.11202835467574" lon="14.72734920800953"><ele>399.25</ele><time>2026-05-03T15:07:43Z</time></trkpt><trkpt lat="37.11190017712485" lon="14.727263473213588"><ele>399.0</ele><time>2026-05-03T15:07:44Z</time></trkpt><trkpt lat="37.111758167829656" lon="14.72718707259575"><ele>399.0</ele><time>2026-05-03T15:07:45Z</time></trkpt><trkpt lat="37.11161197100895" lon="14.727134197130878"><ele>399.0</ele><time>2026-05-03T15:07:46Z</time></trkpt><trkpt lat="37.11147765233955" lon="14.7270748996393"><ele>399.0</ele><time>2026-05-03T15:07:47Z</time></trkpt><trkpt lat="37.111351308349825" lon="14.7270263228318"><ele>399.0</ele><time>2026-05-03T15:07:48Z</time></trkpt><trkpt lat="37.1112278906981" lon="14.726990470723676"><ele>399.0</ele><time>2026-05-03T15:07:49Z</time></trkpt><trkpt lat="37.11111788216782" lon="14.726951491103032"><ele>399.0</ele><time>2026-05-03T15:07:50Z</time></trkpt><trkpt lat="37.11100396333451" lon="14.726904095166947"><ele>399.0</ele><time>2026-05-03T15:07:51Z</time></trkpt><trkpt lat="37.11087133517011" lon="14.726859810290454"><ele>399.0</ele><time>2026-05-03T15:07:52Z</time></trkpt><trkpt lat="37.11074538154177" lon="14.726793532072913"><ele>402.0</ele><time>2026-05-03T15:07:53Z</time></trkpt><trkpt lat="37.110618326571036" lon="14.726761713495655"><ele>405.0</ele><time>2026-05-03T15:07:54Z</time></trkpt><trkpt lat="37.1105028638904" lon="14.726720048583205"><ele>408.0</ele><time>2026-05-03T15:07:55Z</time></trkpt><trkpt lat="37.110390030323416" lon="14.726677055065547"><ele>411.0</ele><time>2026-05-03T15:07:56Z</time></trkpt><trkpt lat="37.110254551840086" lon="14.726678229096223"><ele>411.0</ele><time>2026-05-03T15:07:57Z</time></trkpt><trkpt lat="37.1101141913224" lon="14.726667003296946"><ele>411.0</ele><time>2026-05-03T15:07:58Z</time></trkpt><trkpt lat="37.10997581762636" lon="14.72664626190515"><ele>411.0</ele><time>2026-05-03T15:07:59Z</time></trkpt><trkpt lat="37.10983797133358" lon="14.726586081789863"><ele>411.0</ele><time>2026-05-03T15:08:00Z</time></trkpt><trkpt lat="37.10969027120427" lon="14.726561511421762"><ele>409.6</ele><time>2026-05-03T15:08:01Z</time></trkpt><trkpt lat="37.10958618838133" lon="14.726584624504675"><ele>408.20000000000005</ele><time>2026-05-03T15:08:02Z</time></trkpt><trkpt lat="37.10949868070138" lon="14.726565389175164"><ele>406.79999999999995</ele><time>2026-05-03T15:08:03Z</time></trkpt><trkpt lat="37.10943264803257" lon="14.726532920355872"><ele>405.4</ele><time>2026-05-03T15:08:04Z</time></trkpt><trkpt lat="37.10935771747511" lon="14.726465073716724"><ele>404.0</ele><time>2026-05-03T15:08:05Z</time></trkpt><trkpt lat="37.109269728519976" lon="14.726411481662714"><ele>403.99999999999994</ele><time>2026-05-03T15:08:06Z</time></trkpt><trkpt lat="37.109158657285406" lon="14.72638687597079"><ele>404.0</ele><time>2026-05-03T15:08:07Z</time></trkpt><trkpt lat="37.10907185249627" lon="14.7263614983137"><ele>404.0</ele><time>2026-05-03T15:08:08Z</time></trkpt><trkpt lat="37.10900659662065" lon="14.726308896334888"><ele>404.0</ele><time>2026-05-03T15:08:09Z</time></trkpt><trkpt lat="37.10895824426825" lon="14.726255429768475"><ele>403.99999999999994</ele><time>2026-05-03T15:08:10Z</time></trkpt><trkpt lat="37.108917900508764" lon="14.726189248938702"><ele>404.0</ele><time>2026-05-03T15:08:12Z</time></trkpt><trkpt lat="37.10890748311453" lon="14.726107480074445"><ele>404.4</ele><time>2026-05-03T15:08:37.999Z</time></trkpt><trkpt lat="37.10887293070625" lon="14.726032676575693"><ele>404.79999999999995</ele><time>2026-05-03T15:08:39.999Z</time></trkpt><trkpt lat="37.108849195633404" lon="14.725903535485218"><ele>405.20000000000005</ele><time>2026-05-03T15:08:41.999Z</time></trkpt><trkpt lat="37.108764313013154" lon="14.725793795146132"><ele>405.6</ele><time>2026-05-03T15:08:43.999Z</time></trkpt><trkpt lat="37.108708836492184" lon="14.72571997655175"><ele>406.0</ele><time>2026-05-03T15:08:44.999Z</time></trkpt><trkpt lat="37.10864551650819" lon="14.725652524137349"><ele>406.0</ele><time>2026-05-03T15:08:45.999Z</time></trkpt><trkpt lat="37.108585149556134" lon="14.725594584376267"><ele>406.0</ele><time>2026-05-03T15:08:46.999Z</time></trkpt><trkpt lat="37.10839601809805" lon="14.725711571090848"><ele>406.0</ele><time>2026-05-03T15:08:47.999Z</time></trkpt><trkpt lat="37.10830407125178" lon="14.725682809681928"><ele>406.0</ele><time>2026-05-03T15:08:48.999Z</time></trkpt><trkpt lat="37.10820233603298" lon="14.725664514993564"><ele>406.20000000000005</ele><time>2026-05-03T15:08:49.999Z</time></trkpt><trkpt lat="37.10811937486485" lon="14.725701126210962"><ele>406.40000000000003</ele><time>2026-05-03T15:08:50.999Z</time></trkpt><trkpt lat="37.10802908860031" lon="14.725748842437765"><ele>406.6</ele><time>2026-05-03T15:08:51.999Z</time></trkpt><trkpt lat="37.10793058478597" lon="14.72577510864184"><ele>406.8</ele><time>2026-05-03T15:08:52.999Z</time></trkpt><trkpt lat="37.107829767399956" lon="14.725768634408954"><ele>407.0</ele><time>2026-05-03T15:08:53.999Z</time></trkpt><trkpt lat="37.10772840982795" lon="14.725745019898733"><ele>407.0</ele><time>2026-05-03T15:08:54.999Z</time></trkpt><trkpt lat="37.107628110222244" lon="14.725724176516854"><ele>407.0</ele><time>2026-05-03T15:08:55.999Z</time></trkpt><trkpt lat="37.10753682904922" lon="14.72569199081296"><ele>407.0</ele><time>2026-05-03T15:08:56.999Z</time></trkpt><trkpt lat="37.107456588183425" lon="14.725647531909182"><ele>407.0</ele><time>2026-05-03T15:08:57.999Z</time></trkpt><trkpt lat="37.10737029239956" lon="14.725609980650512"><ele>407.0</ele><time>2026-05-03T15:08:58.999Z</time></trkpt><trkpt lat="37.107263253349885" lon="14.725574590268932"><ele>406.8</ele><time>2026-05-03T15:08:59.999Z</time></trkpt><trkpt lat="37.10715948142242" lon="14.7255331814489"><ele>406.6</ele><time>2026-05-03T15:09:00.999Z</time></trkpt><trkpt lat="37.107043861930045" lon="14.725501416357794"><ele>406.40000000000003</ele><time>2026-05-03T15:09:01.999Z</time></trkpt><trkpt lat="37.10693393436154" lon="14.7254852555556"><ele>406.20000000000005</ele><time>2026-05-03T15:09:02.999Z</time></trkpt><trkpt lat="37.10684272937425" lon="14.725485317011064"><ele>406.0</ele><time>2026-05-03T15:09:03.999Z</time></trkpt><trkpt lat="37.10674520206385" lon="14.725511783336428"><ele>406.0</ele><time>2026-05-03T15:09:04.999Z</time></trkpt><trkpt lat="37.106654498912306" lon="14.725493100054182"><ele>406.0</ele><time>2026-05-03T15:09:05.999Z</time></trkpt><trkpt lat="37.10656936629971" lon="14.725441133523201"><ele>406.0</ele><time>2026-05-03T15:09:06.999Z</time></trkpt><trkpt lat="37.10649137527632" lon="14.725354808703502"><ele>406.0</ele><time>2026-05-03T15:09:07.999Z</time></trkpt><trkpt lat="37.106415199592945" lon="14.725262491498855"><ele>406.0</ele><time>2026-05-03T15:09:08.999Z</time></trkpt><trkpt lat="37.106334832530955" lon="14.725192030166117"><ele>411.4</ele><time>2026-05-03T15:09:09.999Z</time></trkpt><trkpt lat="37.10624350153325" lon="14.725156079386512"><ele>416.8</ele><time>2026-05-03T15:09:10.999Z</time></trkpt><trkpt lat="37.1061443428862" lon="14.725158846582984"><ele>422.19999999999993</ele><time>2026-05-03T15:09:11.999Z</time></trkpt><trkpt lat="37.106037325636606" lon="14.725170945245933"><ele>427.59999999999997</ele><time>2026-05-03T15:09:12.999Z</time></trkpt><trkpt lat="37.1059312030638" lon="14.725177753619958"><ele>433.0</ele><time>2026-05-03T15:09:13.999Z</time></trkpt><trkpt lat="37.10581688089042" lon="14.725182140678355"><ele>431.4</ele><time>2026-05-03T15:09:14.999Z</time></trkpt><trkpt lat="37.1057132611384" lon="14.725167389889624"><ele>429.79999999999995</ele><time>2026-05-03T15:09:15.999Z</time></trkpt><trkpt lat="37.10560623703605" lon="14.72514921397184"><ele>428.2</ele><time>2026-05-03T15:09:16.999Z</time></trkpt><trkpt lat="37.10549907281527" lon="14.725132091215105"><ele>426.6</ele><time>2026-05-03T15:09:17.999Z</time></trkpt><trkpt lat="37.10539264815709" lon="14.725088131137571"><ele>425.0</ele><time>2026-05-03T15:09:18.999Z</time></trkpt><trkpt lat="37.105294946242054" lon="14.725052560083695"><ele>425.0</ele><time>2026-05-03T15:09:19.999Z</time></trkpt><trkpt lat="37.10519184378882" lon="14.725020414447515"><ele>425.0</ele><time>2026-05-03T15:09:20.999Z</time></trkpt><trkpt lat="37.10509457096333" lon="14.72499549802521"><ele>425.0</ele><time>2026-05-03T15:09:21.999Z</time></trkpt><trkpt lat="37.104991915920436" lon="14.724967801342737"><ele>425.0</ele><time>2026-05-03T15:09:23Z</time></trkpt><trkpt lat="37.10489368173683" lon="14.724908242324398"><ele>425.0</ele><time>2026-05-03T15:09:24Z</time></trkpt><trkpt lat="37.104786653489306" lon="14.724873151296434"><ele>421.5</ele><time>2026-05-03T15:09:25Z</time></trkpt><trkpt lat="37.10468551955613" lon="14.724868442686509"><ele>418.0</ele><time>2026-05-03T15:09:26Z</time></trkpt><trkpt lat="37.104574253207076" lon="14.724860533507352"><ele>414.5</ele><time>2026-05-03T15:09:27Z</time></trkpt><trkpt lat="37.10446035073073" lon="14.7248626396742"><ele>411.0</ele><time>2026-05-03T15:09:28Z</time></trkpt><trkpt lat="37.10433115488396" lon="14.724865815771429"><ele>411.0</ele><time>2026-05-03T15:09:29Z</time></trkpt><trkpt lat="37.104208821997645" lon="14.724847645443585"><ele>411.0</ele><time>2026-05-03T15:09:30Z</time></trkpt><trkpt lat="37.10409085987633" lon="14.724797933901117"><ele>411.0</ele><time>2026-05-03T15:09:31Z</time></trkpt><trkpt lat="37.10396530986056" lon="14.72475559419794"><ele>411.0</ele><time>2026-05-03T15:09:32Z</time></trkpt><trkpt lat="37.10384428898759" lon="14.724720854925405"><ele>409.5</ele><time>2026-05-03T15:09:33Z</time></trkpt><trkpt lat="37.103706857651076" lon="14.724711736621314"><ele>408.0</ele><time>2026-05-03T15:09:34Z</time></trkpt><trkpt lat="37.10356871832674" lon="14.724711567383299"><ele>406.5</ele><time>2026-05-03T15:09:35Z</time></trkpt><trkpt lat="37.10343841072561" lon="14.724704800551438"><ele>405.0</ele><time>2026-05-03T15:09:36Z</time></trkpt><trkpt lat="37.1033214129971" lon="14.724689372316305"><ele>404.75</ele><time>2026-05-03T15:09:37Z</time></trkpt><trkpt lat="37.10321465923585" lon="14.72464902638632"><ele>404.5</ele><time>2026-05-03T15:09:38Z</time></trkpt><trkpt lat="37.10311014402742" lon="14.724591620665004"><ele>404.25</ele><time>2026-05-03T15:09:39Z</time></trkpt><trkpt lat="37.10300855793827" lon="14.724524260074615"><ele>404.0</ele><time>2026-05-03T15:09:40Z</time></trkpt><trkpt lat="37.10291653209501" lon="14.724437094958077"><ele>404.0</ele><time>2026-05-03T15:09:41Z</time></trkpt><trkpt lat="37.10280583839076" lon="14.724406318376792"><ele>404.0</ele><time>2026-05-03T15:09:42Z</time></trkpt><trkpt lat="37.102703514178465" lon="14.72435531394467"><ele>404.0</ele><time>2026-05-03T15:09:43Z</time></trkpt><trkpt lat="37.102593998056086" lon="14.724353764516941"><ele>404.0</ele><time>2026-05-03T15:09:44Z</time></trkpt><trkpt lat="37.10247399730962" lon="14.724349529362732"><ele>411.5</ele><time>2026-05-03T15:09:45Z</time></trkpt><trkpt lat="37.10234434996378" lon="14.724356169126368"><ele>419.0</ele><time>2026-05-03T15:09:46Z</time></trkpt><trkpt lat="37.10222158964106" lon="14.724353393862481"><ele>426.5</ele><time>2026-05-03T15:09:47Z</time></trkpt><trkpt lat="37.10210536009754" lon="14.724350885752704"><ele>434.0</ele><time>2026-05-03T15:09:48Z</time></trkpt><trkpt lat="37.101985786180926" lon="14.724361248954756"><ele>431.6</ele><time>2026-05-03T15:09:49Z</time></trkpt><trkpt lat="37.10186612012784" lon="14.724397236296458"><ele>429.2</ele><time>2026-05-03T15:09:50Z</time></trkpt><trkpt lat="37.10178130135228" lon="14.724433656050495"><ele>426.8</ele><time>2026-05-03T15:09:51Z</time></trkpt><trkpt lat="37.101708825255784" lon="14.724480175802643"><ele>424.40000000000003</ele><time>2026-05-03T15:09:52Z</time></trkpt><trkpt lat="37.10164032297862" lon="14.724564357741233"><ele>422.0</ele><time>2026-05-03T15:09:53Z</time></trkpt><trkpt lat="37.1015627499494" lon="14.724661862623739"><ele>422.0</ele><time>2026-05-03T15:09:54Z</time></trkpt><trkpt lat="37.10146493608417" lon="14.724748957061875"><ele>422.0</ele><time>2026-05-03T15:09:55Z</time></trkpt><trkpt lat="37.10134910119793" lon="14.724836476040474"><ele>422.0</ele><time>2026-05-03T15:09:56Z</time></trkpt><trkpt lat="37.10123482815317" lon="14.72490246979131"><ele>422.0</ele><time>2026-05-03T15:09:57Z</time></trkpt><trkpt lat="37.10114371837965" lon="14.724945706134056"><ele>421.99999999999994</ele><time>2026-05-03T15:09:58Z</time></trkpt><trkpt lat="37.10107854338948" lon="14.724984070180113"><ele>422.0</ele><time>2026-05-03T15:09:59Z</time></trkpt><trkpt lat="37.10095837574262" lon="14.725043292015155"><ele>422.0</ele><time>2026-05-03T15:10:01Z</time></trkpt><trkpt lat="37.1008908526102" lon="14.725069016251425"><ele>422.0</ele><time>2026-05-03T15:10:02Z</time></trkpt><trkpt lat="37.10081849359193" lon="14.725065434090896"><ele>421.99999999999994</ele><time>2026-05-03T15:10:03Z</time></trkpt><trkpt lat="37.1007417238165" lon="14.725084079413866"><ele>422.0</ele><time>2026-05-03T15:10:04Z</time></trkpt><trkpt lat="37.100673589100424" lon="14.725132504914596"><ele>423.6</ele><time>2026-05-03T15:10:05Z</time></trkpt><trkpt lat="37.10059159495239" lon="14.725164387447338"><ele>425.20000000000005</ele><time>2026-05-03T15:10:06Z</time></trkpt><trkpt lat="37.10051910335309" lon="14.725236578311865"><ele>426.8</ele><time>2026-05-03T15:10:07Z</time></trkpt><trkpt lat="37.10045622388057" lon="14.725332707052134"><ele>428.4</ele><time>2026-05-03T15:10:08Z</time></trkpt><trkpt lat="37.10041314945858" lon="14.725448097442175"><ele>430.0</ele><time>2026-05-03T15:10:09Z</time></trkpt><trkpt lat="37.10039338140476" lon="14.72557783388323"><ele>427.33333333333337</ele><time>2026-05-03T15:10:10Z</time></trkpt><trkpt lat="37.10036954708738" lon="14.72568798902534"><ele>424.6666666666667</ele><time>2026-05-03T15:10:11Z</time></trkpt><trkpt lat="37.100331886642785" lon="14.725779243661378"><ele>422.0</ele><time>2026-05-03T15:10:12Z</time></trkpt><trkpt lat="37.10030468406513" lon="14.725869271352964"><ele>419.33333333333337</ele><time>2026-05-03T15:10:13Z</time></trkpt><trkpt lat="37.100274049268144" lon="14.725945027934756"><ele>416.6666666666667</ele><time>2026-05-03T15:10:14Z</time></trkpt><trkpt lat="37.10024280661273" lon="14.726035441856151"><ele>414.0</ele><time>2026-05-03T15:10:15Z</time></trkpt><trkpt lat="37.100176910627276" lon="14.726090596855913"><ele>413.4</ele><time>2026-05-03T15:10:16Z</time></trkpt><trkpt lat="37.100052460741786" lon="14.726115183266847"><ele>412.79999999999995</ele><time>2026-05-03T15:10:18Z</time></trkpt><trkpt lat="37.09996686716918" lon="14.726100195439743"><ele>412.20000000000005</ele><time>2026-05-03T15:10:19Z</time></trkpt><trkpt lat="37.09986754837372" lon="14.726083188179414"><ele>411.6</ele><time>2026-05-03T15:10:19.999Z</time></trkpt><trkpt lat="37.0997811681859" lon="14.726063811829365"><ele>411.0</ele><time>2026-05-03T15:10:20.999Z</time></trkpt><trkpt lat="37.09970865614256" lon="14.726029630257818"><ele>412.0</ele><time>2026-05-03T15:10:21.999Z</time></trkpt><trkpt lat="37.09965838496473" lon="14.725899582385999"><ele>413.0</ele><time>2026-05-03T15:10:23.999Z</time></trkpt><trkpt lat="37.099629190462146" lon="14.725816755095686"><ele>414.0</ele><time>2026-05-03T15:10:24.999Z</time></trkpt><trkpt lat="37.0995926144743" lon="14.72574277718562"><ele>415.0</ele><time>2026-05-03T15:10:25.999Z</time></trkpt><trkpt lat="37.09953268028754" lon="14.725694847164636"><ele>416.0</ele><time>2026-05-03T15:10:26.999Z</time></trkpt><trkpt lat="37.09944665625393" lon="14.725734973401948"><ele>417.0</ele><time>2026-05-03T15:10:27.999Z</time></trkpt><trkpt lat="37.099393314017846" lon="14.725815881292098"><ele>417.0</ele><time>2026-05-03T15:10:28.999Z</time></trkpt><trkpt lat="37.09928939127507" lon="14.725854371329463"><ele>417.0</ele><time>2026-05-03T15:10:30.999Z</time></trkpt><trkpt lat="37.09920810686103" lon="14.72586949380413"><ele>417.0</ele><time>2026-05-03T15:10:31.999Z</time></trkpt><trkpt lat="37.09909777540332" lon="14.725857090475383"><ele>417.0</ele><time>2026-05-03T15:10:32.999Z</time></trkpt><trkpt lat="37.09899762262672" lon="14.725849888691116"><ele>417.0</ele><time>2026-05-03T15:10:33.999Z</time></trkpt><trkpt lat="37.09889708375989" lon="14.725824161688642"><ele>418.75</ele><time>2026-05-03T15:10:34.999Z</time></trkpt><trkpt lat="37.09879036760666" lon="14.725809354184937"><ele>420.5</ele><time>2026-05-03T15:10:35.999Z</time></trkpt><trkpt lat="37.09868288516281" lon="14.725815681318908"><ele>422.25</ele><time>2026-05-03T15:10:36.999Z</time></trkpt><trkpt lat="37.09856875863269" lon="14.725815327693217"><ele>424.0</ele><time>2026-05-03T15:10:37.999Z</time></trkpt><trkpt lat="37.098438215293115" lon="14.725850349722796"><ele>424.0</ele><time>2026-05-03T15:10:38.999Z</time></trkpt><trkpt lat="37.09830466654334" lon="14.725878677241075"><ele>424.0</ele><time>2026-05-03T15:10:39.999Z</time></trkpt><trkpt lat="37.0981736984102" lon="14.725894532535115"><ele>424.0</ele><time>2026-05-03T15:10:40.999Z</time></trkpt><trkpt lat="37.098038044861276" lon="14.725916406603181"><ele>424.0</ele><time>2026-05-03T15:10:41.999Z</time></trkpt><trkpt lat="37.097893369214866" lon="14.725953839300729"><ele>423.5</ele><time>2026-05-03T15:10:42.999Z</time></trkpt><trkpt lat="37.09774779663575" lon="14.725995741807736"><ele>423.0</ele><time>2026-05-03T15:10:43.999Z</time></trkpt><trkpt lat="37.09761128098205" lon="14.726034571663453"><ele>422.5</ele><time>2026-05-03T15:10:44.999Z</time></trkpt><trkpt lat="37.09749102667186" lon="14.726072526392388"><ele>422.0</ele><time>2026-05-03T15:10:45.999Z</time></trkpt><trkpt lat="37.09737611333526" lon="14.726154669898866"><ele>422.0</ele><time>2026-05-03T15:10:46.999Z</time></trkpt><trkpt lat="37.09725257974785" lon="14.726248970911222"><ele>422.0</ele><time>2026-05-03T15:10:47.999Z</time></trkpt><trkpt lat="37.09713011900134" lon="14.726350455694767"><ele>422.0</ele><time>2026-05-03T15:10:48.999Z</time></trkpt><trkpt lat="37.097001413563405" lon="14.726442826690535"><ele>422.0</ele><time>2026-05-03T15:10:49.999Z</time></trkpt><trkpt lat="37.096897635783634" lon="14.726549626140974"><ele>422.0</ele><time>2026-05-03T15:10:50.999Z</time></trkpt><trkpt lat="37.09679977794823" lon="14.726647350035817"><ele>422.0</ele><time>2026-05-03T15:10:51.999Z</time></trkpt><trkpt lat="37.09670114184718" lon="14.726708271418774"><ele>422.0</ele><time>2026-05-03T15:10:52.999Z</time></trkpt><trkpt lat="37.096596632161095" lon="14.726747112304036"><ele>422.0</ele><time>2026-05-03T15:10:53.999Z</time></trkpt><trkpt lat="37.0964849554515" lon="14.726770562829289"><ele>422.8</ele><time>2026-05-03T15:10:54.999Z</time></trkpt><trkpt lat="37.09638449953729" lon="14.726775700901216"><ele>423.6</ele><time>2026-05-03T15:10:55.999Z</time></trkpt><trkpt lat="37.096300253904005" lon="14.726799103082387"><ele>424.40000000000003</ele><time>2026-05-03T15:10:56.999Z</time></trkpt><trkpt lat="37.0962389967031" lon="14.726879265757496"><ele>425.20000000000005</ele><time>2026-05-03T15:10:57.999Z</time></trkpt><trkpt lat="37.09616642854811" lon="14.726951387503178"><ele>426.0</ele><time>2026-05-03T15:10:58.999Z</time></trkpt><trkpt lat="37.09608341467932" lon="14.72704934225896"><ele>426.0</ele><time>2026-05-03T15:10:59.999Z</time></trkpt><trkpt lat="37.095993720892125" lon="14.727151306766805"><ele>426.0</ele><time>2026-05-03T15:11:00.999Z</time></trkpt><trkpt lat="37.09590381384243" lon="14.72725737537827"><ele>426.0</ele><time>2026-05-03T15:11:01.999Z</time></trkpt><trkpt lat="37.095829481198955" lon="14.727375827699566"><ele>426.0</ele><time>2026-05-03T15:11:02.999Z</time></trkpt><trkpt lat="37.0957721855234" lon="14.727497884812932"><ele>435.25</ele><time>2026-05-03T15:11:03.999Z</time></trkpt><trkpt lat="37.09571317238744" lon="14.727636361730172"><ele>444.5</ele><time>2026-05-03T15:11:04.999Z</time></trkpt><trkpt lat="37.0956498540862" lon="14.727761415835287"><ele>453.75</ele><time>2026-05-03T15:11:05.999Z</time></trkpt><trkpt lat="37.09559208374757" lon="14.727898545005417"><ele>463.0</ele><time>2026-05-03T15:11:06.999Z</time></trkpt><trkpt lat="37.09556189835286" lon="14.728067270179498"><ele>463.0</ele><time>2026-05-03T15:11:07.999Z</time></trkpt><trkpt lat="37.09554324624241" lon="14.728253275327232"><ele>463.0</ele><time>2026-05-03T15:11:08.999Z</time></trkpt><trkpt lat="37.09552097578929" lon="14.728423412464126"><ele>463.0</ele><time>2026-05-03T15:11:09.999Z</time></trkpt><trkpt lat="37.095508386810174" lon="14.728585446770824"><ele>463.0</ele><time>2026-05-03T15:11:10.999Z</time></trkpt><trkpt lat="37.09550067652815" lon="14.728729875725854"><ele>460.25</ele><time>2026-05-03T15:11:11.999Z</time></trkpt><trkpt lat="37.095497772267535" lon="14.728887187940401"><ele>457.5</ele><time>2026-05-03T15:11:12.999Z</time></trkpt><trkpt lat="37.09551370519045" lon="14.729041057495316"><ele>454.75</ele><time>2026-05-03T15:11:13.999Z</time></trkpt><trkpt lat="37.0954935324374" lon="14.729196026533366"><ele>452.0</ele><time>2026-05-03T15:11:14.999Z</time></trkpt><trkpt lat="37.09548481145825" lon="14.729334910171827"><ele>450.49999999999994</ele><time>2026-05-03T15:11:15.999Z</time></trkpt><trkpt lat="37.095474840795106" lon="14.729455636416388"><ele>449.0</ele><time>2026-05-03T15:11:16.999Z</time></trkpt><trkpt lat="37.095475516725706" lon="14.729558587862732"><ele>447.5</ele><time>2026-05-03T15:11:17.999Z</time></trkpt><trkpt lat="37.09546253349448" lon="14.729652131712779"><ele>446.0</ele><time>2026-05-03T15:11:18.999Z</time></trkpt><trkpt lat="37.095422578545545" lon="14.72973361863"><ele>444.49999999999994</ele><time>2026-05-03T15:11:19.999Z</time></trkpt><trkpt lat="37.09538647042776" lon="14.729822263085461"><ele>443.0</ele><time>2026-05-03T15:11:20.999Z</time></trkpt><trkpt lat="37.09537705459278" lon="14.729929697649087"><ele>443.0</ele><time>2026-05-03T15:11:21.999Z</time></trkpt><trkpt lat="37.095346399418254" lon="14.730029979909474"><ele>442.99999999999994</ele><time>2026-05-03T15:11:22.999Z</time></trkpt><trkpt lat="37.095355262311536" lon="14.730144564488876"><ele>442.99999999999994</ele><time>2026-05-03T15:11:23.999Z</time></trkpt><trkpt lat="37.09542368056124" lon="14.730273464504094"><ele>443.0</ele><time>2026-05-03T15:11:24.999Z</time></trkpt><trkpt lat="37.095470677296156" lon="14.730424696132005"><ele>443.0</ele><time>2026-05-03T15:11:25.999Z</time></trkpt><trkpt lat="37.09551059161419" lon="14.73057602579331"><ele>446.4</ele><time>2026-05-03T15:11:26.999Z</time></trkpt><trkpt lat="37.09554696726147" lon="14.730730383985312"><ele>449.79999999999995</ele><time>2026-05-03T15:11:27.999Z</time></trkpt><trkpt lat="37.09557977462195" lon="14.730862809956577"><ele>453.2</ele><time>2026-05-03T15:11:29Z</time></trkpt><trkpt lat="37.09561874484311" lon="14.73097096231073"><ele>456.6</ele><time>2026-05-03T15:11:30Z</time></trkpt><trkpt lat="37.09563599992793" lon="14.73105410468194"><ele>460.0</ele><time>2026-05-03T15:11:31Z</time></trkpt><trkpt lat="37.09565338875967" lon="14.731133160271629"><ele>463.4</ele><time>2026-05-03T15:11:32Z</time></trkpt><trkpt lat="37.09568575563728" lon="14.731220026791478"><ele>466.8</ele><time>2026-05-03T15:11:33Z</time></trkpt><trkpt lat="37.09570436031488" lon="14.731335798131354"><ele>470.20000000000005</ele><time>2026-05-03T15:11:34Z</time></trkpt><trkpt lat="37.09574909286477" lon="14.731474960626407"><ele>473.6</ele><time>2026-05-03T15:11:35Z</time></trkpt><trkpt lat="37.09580068174333" lon="14.731621860522168"><ele>477.0</ele><time>2026-05-03T15:11:36Z</time></trkpt><trkpt lat="37.09585306392688" lon="14.731771019255882"><ele>467.75</ele><time>2026-05-03T15:11:37Z</time></trkpt><trkpt lat="37.09591107592943" lon="14.731918833581561"><ele>458.5</ele><time>2026-05-03T15:11:38Z</time></trkpt><trkpt lat="37.09598732891383" lon="14.73204016331355"><ele>449.25</ele><time>2026-05-03T15:11:39Z</time></trkpt><trkpt lat="37.09605577743138" lon="14.732166620395274"><ele>440.0</ele><time>2026-05-03T15:11:40Z</time></trkpt><trkpt lat="37.09613075041516" lon="14.732296308062462"><ele>440.0</ele><time>2026-05-03T15:11:41Z</time></trkpt><trkpt lat="37.096193426851855" lon="14.73242082922619"><ele>440.0</ele><time>2026-05-03T15:11:42Z</time></trkpt><trkpt lat="37.09622959821692" lon="14.732538857961652"><ele>440.0</ele><time>2026-05-03T15:11:43Z</time></trkpt><trkpt lat="37.09625408709226" lon="14.732633839048777"><ele>440.0</ele><time>2026-05-03T15:11:44Z</time></trkpt><trkpt lat="37.0962722199295" lon="14.732748887891807"><ele>440.0</ele><time>2026-05-03T15:11:45Z</time></trkpt><trkpt lat="37.09629650521262" lon="14.73288892223916"><ele>443.75</ele><time>2026-05-03T15:11:46Z</time></trkpt><trkpt lat="37.096327028377175" lon="14.733023298897315"><ele>447.5</ele><time>2026-05-03T15:11:47Z</time></trkpt><trkpt lat="37.09633847273903" lon="14.733147602105861"><ele>451.25</ele><time>2026-05-03T15:11:48Z</time></trkpt><trkpt lat="37.09639366622743" lon="14.733282301954722"><ele>455.0</ele><time>2026-05-03T15:11:49Z</time></trkpt><trkpt lat="37.09646430295406" lon="14.733412791946494"><ele>455.0</ele><time>2026-05-03T15:11:50Z</time></trkpt><trkpt lat="37.09652996797335" lon="14.73355083441557"><ele>455.0</ele><time>2026-05-03T15:11:51Z</time></trkpt><trkpt lat="37.09659027299987" lon="14.733674378331678"><ele>455.0</ele><time>2026-05-03T15:11:52Z</time></trkpt><trkpt lat="37.096655916943575" lon="14.733792491533713"><ele>455.0</ele><time>2026-05-03T15:11:53Z</time></trkpt><trkpt lat="37.096743313454816" lon="14.73391958048974"><ele>454.5</ele><time>2026-05-03T15:11:54Z</time></trkpt><trkpt lat="37.09682560635017" lon="14.734045823186658"><ele>454.0</ele><time>2026-05-03T15:11:55Z</time></trkpt><trkpt lat="37.09691350762012" lon="14.73417047528611"><ele>453.5</ele><time>2026-05-03T15:11:56Z</time></trkpt><trkpt lat="37.09701288910347" lon="14.73430200808108"><ele>453.0</ele><time>2026-05-03T15:11:57Z</time></trkpt><trkpt lat="37.09711862978735" lon="14.734428193833564"><ele>453.0</ele><time>2026-05-03T15:11:58Z</time></trkpt><trkpt lat="37.097208586001074" lon="14.734548675061468"><ele>453.0</ele><time>2026-05-03T15:11:59Z</time></trkpt><trkpt lat="37.09729379103308" lon="14.73465788898986"><ele>453.0</ele><time>2026-05-03T15:12:00Z</time></trkpt><trkpt lat="37.09736634813589" lon="14.734795846160655"><ele>453.0</ele><time>2026-05-03T15:12:01Z</time></trkpt><trkpt lat="37.09742816881412" lon="14.734930419274678"><ele>450.75</ele><time>2026-05-03T15:12:02Z</time></trkpt><trkpt lat="37.09748762422236" lon="14.73506590982789"><ele>448.5</ele><time>2026-05-03T15:12:03Z</time></trkpt><trkpt lat="37.097560755664944" lon="14.735206754600087"><ele>446.25</ele><time>2026-05-03T15:12:04Z</time></trkpt><trkpt lat="37.0976409601986" lon="14.735344450242499"><ele>444.0</ele><time>2026-05-03T15:12:05Z</time></trkpt><trkpt lat="37.09770464470184" lon="14.735527688424995"><ele>444.0</ele><time>2026-05-03T15:12:06Z</time></trkpt><trkpt lat="37.09777441168292" lon="14.735666840587434"><ele>444.0</ele><time>2026-05-03T15:12:07Z</time></trkpt><trkpt lat="37.09784468615074" lon="14.735793517975145"><ele>444.0</ele><time>2026-05-03T15:12:08Z</time></trkpt><trkpt lat="37.09791106276649" lon="14.735930053861303"><ele>444.0</ele><time>2026-05-03T15:12:09Z</time></trkpt><trkpt lat="37.097974439574415" lon="14.73606207752194"><ele>449.25</ele><time>2026-05-03T15:12:10Z</time></trkpt><trkpt lat="37.098020966996806" lon="14.736209488915142"><ele>454.5</ele><time>2026-05-03T15:12:11Z</time></trkpt><trkpt lat="37.098083186794995" lon="14.736357237191376"><ele>459.75</ele><time>2026-05-03T15:12:12Z</time></trkpt><trkpt lat="37.09815785082872" lon="14.736512585153879"><ele>465.0</ele><time>2026-05-03T15:12:13Z</time></trkpt><trkpt lat="37.09823164598543" lon="14.73665334273876"><ele>462.5</ele><time>2026-05-03T15:12:14Z</time></trkpt><trkpt lat="37.09828836755768" lon="14.736790884616367"><ele>460.0</ele><time>2026-05-03T15:12:15Z</time></trkpt><trkpt lat="37.098338349090675" lon="14.736930679202656"><ele>457.5</ele><time>2026-05-03T15:12:16Z</time></trkpt><trkpt lat="37.0983862418019" lon="14.737084503529443"><ele>455.0</ele><time>2026-05-03T15:12:17Z</time></trkpt><trkpt lat="37.09843424043314" lon="14.737243547735115"><ele>455.0</ele><time>2026-05-03T15:12:18Z</time></trkpt><trkpt lat="37.09848172086005" lon="14.737400748053425"><ele>455.0</ele><time>2026-05-03T15:12:19Z</time></trkpt><trkpt lat="37.09851861156285" lon="14.737562134243412"><ele>455.0</ele><time>2026-05-03T15:12:20Z</time></trkpt><trkpt lat="37.098533052793826" lon="14.737735501751702"><ele>455.0</ele><time>2026-05-03T15:12:21Z</time></trkpt><trkpt lat="37.09856820970823" lon="14.737905730332326"><ele>455.5</ele><time>2026-05-03T15:12:22Z</time></trkpt><trkpt lat="37.098591077489914" lon="14.738066907724624"><ele>456.0</ele><time>2026-05-03T15:12:22.999Z</time></trkpt><trkpt lat="37.09861035657823" lon="14.7382338122476"><ele>456.5</ele><time>2026-05-03T15:12:23.999Z</time></trkpt><trkpt lat="37.098625768442325" lon="14.738394535661937"><ele>457.0</ele><time>2026-05-03T15:12:24.999Z</time></trkpt><trkpt lat="37.098639306864904" lon="14.738553777518137"><ele>459.5</ele><time>2026-05-03T15:12:25.999Z</time></trkpt><trkpt lat="37.09866025251885" lon="14.738703753794749"><ele>462.0</ele><time>2026-05-03T15:12:26.999Z</time></trkpt><trkpt lat="37.09869008041342" lon="14.738848042023097"><ele>464.5</ele><time>2026-05-03T15:12:27.999Z</time></trkpt><trkpt lat="37.09872758223619" lon="14.738983034377984"><ele>467.0</ele><time>2026-05-03T15:12:28.999Z</time></trkpt><trkpt lat="37.09873859758835" lon="14.739120218534627"><ele>467.0</ele><time>2026-05-03T15:12:29.999Z</time></trkpt><trkpt lat="37.09873400154982" lon="14.73926266931249"><ele>467.0</ele><time>2026-05-03T15:12:30.999Z</time></trkpt><trkpt lat="37.09871698125511" lon="14.739407741752505"><ele>467.0</ele><time>2026-05-03T15:12:31.999Z</time></trkpt><trkpt lat="37.0986919684871" lon="14.73956864866826"><ele>467.0</ele><time>2026-05-03T15:12:32.999Z</time></trkpt><trkpt lat="37.09868355260395" lon="14.739737915718154"><ele>469.5</ele><time>2026-05-03T15:12:33.999Z</time></trkpt><trkpt lat="37.09869041563031" lon="14.739914513168019"><ele>472.0</ele><time>2026-05-03T15:12:34.999Z</time></trkpt><trkpt lat="37.098690943138486" lon="14.740071978598701"><ele>474.5</ele><time>2026-05-03T15:12:35.999Z</time></trkpt><trkpt lat="37.09869252403177" lon="14.74021003599716"><ele>477.0</ele><time>2026-05-03T15:12:36.999Z</time></trkpt><trkpt lat="37.09870403190154" lon="14.740328842674307"><ele>478.6</ele><time>2026-05-03T15:12:37.999Z</time></trkpt><trkpt lat="37.09874256320423" lon="14.740432966744711"><ele>480.20000000000005</ele><time>2026-05-03T15:12:38.999Z</time></trkpt><trkpt lat="37.09879941908445" lon="14.74053656194003"><ele>481.8</ele><time>2026-05-03T15:12:39.999Z</time></trkpt><trkpt lat="37.098849103800724" lon="14.740648742252164"><ele>483.4</ele><time>2026-05-03T15:12:40.999Z</time></trkpt><trkpt lat="37.098895323046214" lon="14.740753963754411"><ele>485.0</ele><time>2026-05-03T15:12:41.999Z</time></trkpt><trkpt lat="37.09895496051497" lon="14.740871537329822"><ele>485.0</ele><time>2026-05-03T15:12:42.999Z</time></trkpt><trkpt lat="37.09902310606331" lon="14.741000425582031"><ele>485.0</ele><time>2026-05-03T15:12:43.999Z</time></trkpt><trkpt lat="37.09910250271895" lon="14.741104179222672"><ele>485.0</ele><time>2026-05-03T15:12:44.999Z</time></trkpt><trkpt lat="37.09917987961683" lon="14.741223426318687"><ele>485.0</ele><time>2026-05-03T15:12:45.999Z</time></trkpt><trkpt lat="37.09925201459356" lon="14.741354185361956"><ele>479.75</ele><time>2026-05-03T15:12:46.999Z</time></trkpt><trkpt lat="37.099329863976614" lon="14.741473278793713"><ele>474.5</ele><time>2026-05-03T15:12:47.999Z</time></trkpt><trkpt lat="37.099431157945475" lon="14.741592036190218"><ele>469.25</ele><time>2026-05-03T15:12:48.999Z</time></trkpt><trkpt lat="37.09951833948904" lon="14.741720680752298"><ele>464.0</ele><time>2026-05-03T15:12:49.999Z</time></trkpt><trkpt lat="37.09960912534304" lon="14.741857688052525"><ele>474.0</ele><time>2026-05-03T15:12:50.999Z</time></trkpt><trkpt lat="37.09969557871036" lon="14.742007962908447"><ele>484.0</ele><time>2026-05-03T15:12:51.999Z</time></trkpt><trkpt lat="37.09977684409929" lon="14.74216885157186"><ele>494.0</ele><time>2026-05-03T15:12:52.999Z</time></trkpt><trkpt lat="37.09985779076069" lon="14.742336574573983"><ele>482.25</ele><time>2026-05-03T15:12:53.999Z</time></trkpt><trkpt lat="37.099933663479106" lon="14.742482410965412"><ele>470.5</ele><time>2026-05-03T15:12:54.999Z</time></trkpt><trkpt lat="37.09998494531356" lon="14.742621920170254"><ele>458.75</ele><time>2026-05-03T15:12:55.999Z</time></trkpt><trkpt lat="37.10002601460315" lon="14.742783132701886"><ele>447.0</ele><time>2026-05-03T15:12:56.999Z</time></trkpt><trkpt lat="37.10005468334263" lon="14.742952656044839"><ele>447.0</ele><time>2026-05-03T15:12:57.999Z</time></trkpt><trkpt lat="37.100063477511846" lon="14.743131782194348"><ele>447.0</ele><time>2026-05-03T15:12:58.999Z</time></trkpt><trkpt lat="37.10005987190759" lon="14.743319383875765"><ele>447.0</ele><time>2026-05-03T15:12:59.999Z</time></trkpt><trkpt lat="37.100054901468404" lon="14.743508312303817"><ele>447.0</ele><time>2026-05-03T15:13:00.999Z</time></trkpt><trkpt lat="37.10003881317811" lon="14.74369898675536"><ele>447.5</ele><time>2026-05-03T15:13:01.999Z</time></trkpt><trkpt lat="37.100018989749714" lon="14.743878447509225"><ele>448.0</ele><time>2026-05-03T15:13:02.999Z</time></trkpt><trkpt lat="37.09999302505567" lon="14.744055548656913"><ele>448.5</ele><time>2026-05-03T15:13:03.999Z</time></trkpt><trkpt lat="37.09996110086495" lon="14.74423200098767"><ele>449.0</ele><time>2026-05-03T15:13:04.999Z</time></trkpt><trkpt lat="37.09991297845711" lon="14.74441458613248"><ele>464.3333333333333</ele><time>2026-05-03T15:13:05.999Z</time></trkpt><trkpt lat="37.09985532767699" lon="14.74459286291045"><ele>479.66666666666663</ele><time>2026-05-03T15:13:06.999Z</time></trkpt><trkpt lat="37.099803653314495" lon="14.74477356331702"><ele>495.0</ele><time>2026-05-03T15:13:07.999Z</time></trkpt><trkpt lat="37.0997554287147" lon="14.744964557859078"><ele>495.0</ele><time>2026-05-03T15:13:08.999Z</time></trkpt><trkpt lat="37.09971169382532" lon="14.745162295374408"><ele>495.0</ele><time>2026-05-03T15:13:09.999Z</time></trkpt><trkpt lat="37.09966672892201" lon="14.745358307601693"><ele>495.0</ele><time>2026-05-03T15:13:10.999Z</time></trkpt><trkpt lat="37.09962614835791" lon="14.74554427087853"><ele>494.0</ele><time>2026-05-03T15:13:11.999Z</time></trkpt><trkpt lat="37.09958227002027" lon="14.74572008396846"><ele>493.0</ele><time>2026-05-03T15:13:12.999Z</time></trkpt><trkpt lat="37.09953442790425" lon="14.74589711533147"><ele>492.0</ele><time>2026-05-03T15:13:13.999Z</time></trkpt><trkpt lat="37.099492566032126" lon="14.746078553929562"><ele>491.0</ele><time>2026-05-03T15:13:14.999Z</time></trkpt><trkpt lat="37.09946236788884" lon="14.746259265252265"><ele>488.0</ele><time>2026-05-03T15:13:15.999Z</time></trkpt><trkpt lat="37.09945131131752" lon="14.74645252987561"><ele>485.0</ele><time>2026-05-03T15:13:16.999Z</time></trkpt><trkpt lat="37.099474233837974" lon="14.746651530102575"><ele>482.0</ele><time>2026-05-03T15:13:17.999Z</time></trkpt><trkpt lat="37.099515981645844" lon="14.74684489251528"><ele>479.66666666666663</ele><time>2026-05-03T15:13:18.999Z</time></trkpt><trkpt lat="37.09956965099997" lon="14.747031204529552"><ele>477.33333333333337</ele><time>2026-05-03T15:13:19.999Z</time></trkpt><trkpt lat="37.09961750351485" lon="14.747216340150189"><ele>475.0</ele><time>2026-05-03T15:13:20.999Z</time></trkpt><trkpt lat="37.09967208313295" lon="14.747404071346617"><ele>475.0</ele><time>2026-05-03T15:13:21.999Z</time></trkpt><trkpt lat="37.09973846248581" lon="14.747578602757196"><ele>475.0</ele><time>2026-05-03T15:13:22.999Z</time></trkpt><trkpt lat="37.09980659357965" lon="14.74775992525861"><ele>475.0</ele><time>2026-05-03T15:13:23.999Z</time></trkpt><trkpt lat="37.09987451941726" lon="14.747947338778935"><ele>469.33333333333337</ele><time>2026-05-03T15:13:24.999Z</time></trkpt><trkpt lat="37.09995048921592" lon="14.748144004327658"><ele>463.66666666666663</ele><time>2026-05-03T15:13:25.999Z</time></trkpt><trkpt lat="37.10002294137631" lon="14.748333694083813"><ele>458.0</ele><time>2026-05-03T15:13:26.999Z</time></trkpt><trkpt lat="37.1000873821792" lon="14.748524989234236"><ele>459.25</ele><time>2026-05-03T15:13:27.999Z</time></trkpt><trkpt lat="37.100144039805095" lon="14.748691707698327"><ele>460.5</ele><time>2026-05-03T15:13:28.999Z</time></trkpt><trkpt lat="37.10017867906325" lon="14.748849248355459"><ele>461.75</ele><time>2026-05-03T15:13:29.999Z</time></trkpt><trkpt lat="37.10017847308505" lon="14.748995363713705"><ele>463.0</ele><time>2026-05-03T15:13:30.999Z</time></trkpt><trkpt lat="37.10016037363853" lon="14.749157081737627"><ele>463.0</ele><time>2026-05-03T15:13:31.999Z</time></trkpt><trkpt lat="37.10011808716525" lon="14.749319305313609"><ele>463.0</ele><time>2026-05-03T15:13:32.999Z</time></trkpt><trkpt lat="37.100058199708535" lon="14.749487816113229"><ele>463.0</ele><time>2026-05-03T15:13:33.999Z</time></trkpt><trkpt lat="37.09998457982679" lon="14.74967091530698"><ele>463.0</ele><time>2026-05-03T15:13:35Z</time></trkpt><trkpt lat="37.09990079108026" lon="14.749863222841293"><ele>462.6666666666667</ele><time>2026-05-03T15:13:36Z</time></trkpt><trkpt lat="37.099808439661004" lon="14.75005376041487"><ele>462.33333333333337</ele><time>2026-05-03T15:13:37Z</time></trkpt><trkpt lat="37.099710784848135" lon="14.75024717999989"><ele>462.0</ele><time>2026-05-03T15:13:38Z</time></trkpt><trkpt lat="37.09960933000156" lon="14.750447391093576"><ele>462.0</ele><time>2026-05-03T15:13:39Z</time></trkpt><trkpt lat="37.09951460197038" lon="14.750658196969658"><ele>462.0</ele><time>2026-05-03T15:13:40Z</time></trkpt><trkpt lat="37.099418316873816" lon="14.75086686355762"><ele>462.0</ele><time>2026-05-03T15:13:41Z</time></trkpt><trkpt lat="37.09935909036586" lon="14.751098021772876"><ele>464.0</ele><time>2026-05-03T15:13:42Z</time></trkpt><trkpt lat="37.099336991168755" lon="14.751319968922608"><ele>466.0</ele><time>2026-05-03T15:13:43Z</time></trkpt><trkpt lat="37.09931194443565" lon="14.751507602099945"><ele>468.0</ele><time>2026-05-03T15:13:44Z</time></trkpt><trkpt lat="37.09929384673449" lon="14.751649717871203"><ele>470.0</ele><time>2026-05-03T15:13:45Z</time></trkpt><trkpt lat="37.09927418087633" lon="14.751747697909261"><ele>470.0</ele><time>2026-05-03T15:13:46Z</time></trkpt><trkpt lat="37.09924215713235" lon="14.751837197594275"><ele>470.0</ele><time>2026-05-03T15:13:48Z</time></trkpt><trkpt lat="37.09923589752679" lon="14.751950252872584"><ele>470.0</ele><time>2026-05-03T15:13:59Z</time></trkpt><trkpt lat="37.09915924343367" lon="14.752028454475603"><ele>470.0</ele><time>2026-05-03T15:14:00Z</time></trkpt><trkpt lat="37.09912885172942" lon="14.75213509253063"><ele>470.0</ele><time>2026-05-03T15:14:01Z</time></trkpt><trkpt lat="37.09908486614156" lon="14.752257970842363"><ele>469.5</ele><time>2026-05-03T15:14:02Z</time></trkpt><trkpt lat="37.09902812849096" lon="14.752386811859616"><ele>469.0</ele><time>2026-05-03T15:14:03Z</time></trkpt><trkpt lat="37.098956801433665" lon="14.752511270271597"><ele>468.5</ele><time>2026-05-03T15:14:04Z</time></trkpt><trkpt lat="37.0988828033944" lon="14.752643053775127"><ele>468.0</ele><time>2026-05-03T15:14:05Z</time></trkpt><trkpt lat="37.09879216449613" lon="14.752769061351447"><ele>468.0</ele><time>2026-05-03T15:14:06Z</time></trkpt><trkpt lat="37.09874422726891" lon="14.752901529955592"><ele>467.99999999999994</ele><time>2026-05-03T15:14:07Z</time></trkpt><trkpt lat="37.098664040680795" lon="14.752994339840383"><ele>467.99999999999994</ele><time>2026-05-03T15:14:08Z</time></trkpt><trkpt lat="37.09863822079565" lon="14.753117027829921"><ele>468.0</ele><time>2026-05-03T15:14:09Z</time></trkpt><trkpt lat="37.09860352448851" lon="14.753220657390537"><ele>468.0</ele><time>2026-05-03T15:14:10Z</time></trkpt><trkpt lat="37.098553636378064" lon="14.753320169983434"><ele>468.0</ele><time>2026-05-03T15:14:11Z</time></trkpt><trkpt lat="37.09849414489306" lon="14.753413207388366"><ele>467.99999999999994</ele><time>2026-05-03T15:14:12Z</time></trkpt><trkpt lat="37.09841150572435" lon="14.753486419952782"><ele>467.99999999999994</ele><time>2026-05-03T15:14:13Z</time></trkpt><trkpt lat="37.098332053692964" lon="14.753558925135312"><ele>468.0</ele><time>2026-05-03T15:14:14Z</time></trkpt><trkpt lat="37.09825451949272" lon="14.753637456129672"><ele>468.0</ele><time>2026-05-03T15:14:15Z</time></trkpt><trkpt lat="37.09817098883699" lon="14.753723281488558"><ele>468.75</ele><time>2026-05-03T15:14:16Z</time></trkpt><trkpt lat="37.09807681139962" lon="14.753756581096143"><ele>469.5</ele><time>2026-05-03T15:14:17Z</time></trkpt><trkpt lat="37.097977117108684" lon="14.753808760274552"><ele>470.25</ele><time>2026-05-03T15:14:18Z</time></trkpt><trkpt lat="37.09786413169317" lon="14.753883929150591"><ele>471.0</ele><time>2026-05-03T15:14:19Z</time></trkpt><trkpt lat="37.09773298420051" lon="14.75392176378249"><ele>471.0</ele><time>2026-05-03T15:14:20Z</time></trkpt><trkpt lat="37.0976031526185" lon="14.753976385800708"><ele>471.0</ele><time>2026-05-03T15:14:21Z</time></trkpt><trkpt lat="37.09748655513155" lon="14.754026677363841"><ele>471.0</ele><time>2026-05-03T15:14:22Z</time></trkpt><trkpt lat="37.097381240977725" lon="14.754090266473513"><ele>471.0</ele><time>2026-05-03T15:14:23Z</time></trkpt><trkpt lat="37.09728180466946" lon="14.75415660217503"><ele>470.75</ele><time>2026-05-03T15:14:24Z</time></trkpt><trkpt lat="37.09716915267356" lon="14.754236379120146"><ele>470.5</ele><time>2026-05-03T15:14:24.999Z</time></trkpt><trkpt lat="37.09704446479817" lon="14.754324827688013"><ele>470.25</ele><time>2026-05-03T15:14:25.999Z</time></trkpt><trkpt lat="37.09691429630148" lon="14.754409917314458"><ele>470.0</ele><time>2026-05-03T15:14:26.999Z</time></trkpt><trkpt lat="37.09680756239877" lon="14.75449691676413"><ele>469.99999999999994</ele><time>2026-05-03T15:14:27.999Z</time></trkpt><trkpt lat="37.09672655470302" lon="14.754564809888937"><ele>470.0</ele><time>2026-05-03T15:14:28.999Z</time></trkpt><trkpt lat="37.09667649356084" lon="14.754634132354415"><ele>470.0</ele><time>2026-05-03T15:14:29.999Z</time></trkpt><trkpt lat="37.096640124976304" lon="14.754713612680549"><ele>470.0</ele><time>2026-05-03T15:14:30.999Z</time></trkpt><trkpt lat="37.09661128027503" lon="14.754804007030542"><ele>469.99999999999994</ele><time>2026-05-03T15:14:31.999Z</time></trkpt><trkpt lat="37.09658357803861" lon="14.75488317651576"><ele>470.0</ele><time>2026-05-03T15:14:33.999Z</time></trkpt><trkpt lat="37.096530699189344" lon="14.754976780494934"><ele>470.3333333333333</ele><time>2026-05-03T15:14:35.999Z</time></trkpt><trkpt lat="37.09648092078539" lon="14.75503826695514"><ele>470.66666666666663</ele><time>2026-05-03T15:14:36.999Z</time></trkpt><trkpt lat="37.09641353460353" lon="14.755078758867256"><ele>471.0</ele><time>2026-05-03T15:14:37.999Z</time></trkpt><trkpt lat="37.09631149537231" lon="14.755104667550315"><ele>471.33333333333337</ele><time>2026-05-03T15:14:38.999Z</time></trkpt><trkpt lat="37.09622782718911" lon="14.755118223430578"><ele>471.6666666666667</ele><time>2026-05-03T15:14:39.999Z</time></trkpt><trkpt lat="37.09615875892317" lon="14.755151790146686"><ele>472.0</ele><time>2026-05-03T15:14:40.999Z</time></trkpt><trkpt lat="37.0960995724512" lon="14.755208796985672"><ele>472.0</ele><time>2026-05-03T15:14:41.999Z</time></trkpt><trkpt lat="37.096071903941564" lon="14.755305801098183"><ele>472.00000000000006</ele><time>2026-05-03T15:14:42.999Z</time></trkpt><trkpt lat="37.09602386267652" lon="14.75540281178738"><ele>472.00000000000006</ele><time>2026-05-03T15:14:43.999Z</time></trkpt><trkpt lat="37.09597488375373" lon="14.755523016920563"><ele>472.0</ele><time>2026-05-03T15:14:44.999Z</time></trkpt><trkpt lat="37.095918972980265" lon="14.755652986480525"><ele>472.0</ele><time>2026-05-03T15:14:45.999Z</time></trkpt><trkpt lat="37.095864519675814" lon="14.75577042343607"><ele>472.0</ele><time>2026-05-03T15:14:46.999Z</time></trkpt><trkpt lat="37.095800638677154" lon="14.755889956904188"><ele>472.00000000000006</ele><time>2026-05-03T15:14:47.999Z</time></trkpt><trkpt lat="37.09573523833326" lon="14.756001980488854"><ele>472.00000000000006</ele><time>2026-05-03T15:14:48.999Z</time></trkpt><trkpt lat="37.095672705037884" lon="14.756113020876786"><ele>472.0</ele><time>2026-05-03T15:14:49.999Z</time></trkpt><trkpt lat="37.095627166515214" lon="14.756228053811801"><ele>472.0</ele><time>2026-05-03T15:14:50.999Z</time></trkpt><trkpt lat="37.09555370316436" lon="14.756327624672224"><ele>473.75</ele><time>2026-05-03T15:14:51.999Z</time></trkpt><trkpt lat="37.095464678621525" lon="14.756421237942362"><ele>475.5</ele><time>2026-05-03T15:14:52.999Z</time></trkpt><trkpt lat="37.09534949463003" lon="14.756476808089884"><ele>477.25</ele><time>2026-05-03T15:14:53.999Z</time></trkpt><trkpt lat="37.09523413835916" lon="14.756545293052213"><ele>479.0</ele><time>2026-05-03T15:14:54.999Z</time></trkpt><trkpt lat="37.095126732300734" lon="14.7566135719543"><ele>479.0</ele><time>2026-05-03T15:14:55.999Z</time></trkpt><trkpt lat="37.0950394407682" lon="14.756663765643244"><ele>479.0</ele><time>2026-05-03T15:14:56.999Z</time></trkpt><trkpt lat="37.09496354170747" lon="14.756679459310412"><ele>479.0</ele><time>2026-05-03T15:14:57.999Z</time></trkpt><trkpt lat="37.09487700296756" lon="14.756650462794022"><ele>479.0</ele><time>2026-05-03T15:14:58.999Z</time></trkpt><trkpt lat="37.09478580516637" lon="14.756644230126863"><ele>479.0</ele><time>2026-05-03T15:14:59.999Z</time></trkpt><trkpt lat="37.09468378419329" lon="14.756637257799863"><ele>481.2</ele><time>2026-05-03T15:15:00.999Z</time></trkpt><trkpt lat="37.09458395292161" lon="14.75663043508898"><ele>483.4</ele><time>2026-05-03T15:15:01.999Z</time></trkpt><trkpt lat="37.094472456500036" lon="14.75663780749622"><ele>485.6</ele><time>2026-05-03T15:15:02.999Z</time></trkpt><trkpt lat="37.094363422603735" lon="14.756618571319446"><ele>487.8</ele><time>2026-05-03T15:15:03.999Z</time></trkpt><trkpt lat="37.09424945247629" lon="14.756616605323249"><ele>490.0</ele><time>2026-05-03T15:15:04.999Z</time></trkpt><trkpt lat="37.09412721778113" lon="14.756606613602166"><ele>491.0</ele><time>2026-05-03T15:15:05.999Z</time></trkpt><trkpt lat="37.09400111936792" lon="14.756603594175985"><ele>492.0</ele><time>2026-05-03T15:15:06.999Z</time></trkpt><trkpt lat="37.09388429596889" lon="14.756607687069517"><ele>493.0</ele><time>2026-05-03T15:15:07.999Z</time></trkpt><trkpt lat="37.09376360511247" lon="14.756621231905932"><ele>494.0</ele><time>2026-05-03T15:15:08.999Z</time></trkpt><trkpt lat="37.09364764934251" lon="14.756629963074488"><ele>494.0</ele><time>2026-05-03T15:15:09.999Z</time></trkpt><trkpt lat="37.09353670158064" lon="14.756634739328794"><ele>494.0</ele><time>2026-05-03T15:15:10.999Z</time></trkpt><trkpt lat="37.09343257750138" lon="14.756650581107102"><ele>494.0</ele><time>2026-05-03T15:15:11.999Z</time></trkpt><trkpt lat="37.093319767466575" lon="14.75664037464546"><ele>494.0</ele><time>2026-05-03T15:15:12.999Z</time></trkpt><trkpt lat="37.09322209082137" lon="14.756653568480294"><ele>494.0</ele><time>2026-05-03T15:15:13.999Z</time></trkpt><trkpt lat="37.09313153264342" lon="14.756688761854392"><ele>494.6</ele><time>2026-05-03T15:15:14.999Z</time></trkpt><trkpt lat="37.09304141811267" lon="14.756710423979515"><ele>495.2</ele><time>2026-05-03T15:15:15.999Z</time></trkpt><trkpt lat="37.09292514186248" lon="14.756729782542156"><ele>495.80000000000007</ele><time>2026-05-03T15:15:16.999Z</time></trkpt><trkpt lat="37.09281149863521" lon="14.756702191917643"><ele>496.40000000000003</ele><time>2026-05-03T15:15:17.999Z</time></trkpt><trkpt lat="37.092709309468084" lon="14.756718502603025"><ele>497.0</ele><time>2026-05-03T15:15:18.999Z</time></trkpt><trkpt lat="37.09261370462342" lon="14.75671273949507"><ele>497.0</ele><time>2026-05-03T15:15:19.999Z</time></trkpt><trkpt lat="37.09254499303003" lon="14.756730372226638"><ele>497.00000000000006</ele><time>2026-05-03T15:15:20.999Z</time></trkpt><trkpt lat="37.09246641640356" lon="14.756751737290347"><ele>497.00000000000006</ele><time>2026-05-03T15:15:21.999Z</time></trkpt><trkpt lat="37.0923616284941" lon="14.75677624677802"><ele>497.0</ele><time>2026-05-03T15:15:22.999Z</time></trkpt><trkpt lat="37.09225249470244" lon="14.75678645843639"><ele>497.0</ele><time>2026-05-03T15:15:23.999Z</time></trkpt><trkpt lat="37.09212946646411" lon="14.756784990561941"><ele>498.40000000000003</ele><time>2026-05-03T15:15:24.999Z</time></trkpt><trkpt lat="37.09201804895064" lon="14.756781029314684"><ele>499.80000000000007</ele><time>2026-05-03T15:15:25.999Z</time></trkpt><trkpt lat="37.091917227853216" lon="14.756770202198064"><ele>501.2</ele><time>2026-05-03T15:15:26.999Z</time></trkpt><trkpt lat="37.09181996934885" lon="14.756762937275973"><ele>502.6</ele><time>2026-05-03T15:15:27.999Z</time></trkpt><trkpt lat="37.09172375129102" lon="14.756759644826003"><ele>504.0</ele><time>2026-05-03T15:15:28.999Z</time></trkpt><trkpt lat="37.091614175174456" lon="14.75675737089034"><ele>503.5</ele><time>2026-05-03T15:15:29.999Z</time></trkpt><trkpt lat="37.09152784876994" lon="14.756731262455785"><ele>503.0</ele><time>2026-05-03T15:15:30.999Z</time></trkpt><trkpt lat="37.091441378629014" lon="14.756717061860167"><ele>502.5</ele><time>2026-05-03T15:15:31.999Z</time></trkpt><trkpt lat="37.09135609361852" lon="14.756699996855831"><ele>502.0</ele><time>2026-05-03T15:15:32.999Z</time></trkpt><trkpt lat="37.09126851717693" lon="14.756680437570521"><ele>501.5</ele><time>2026-05-03T15:15:33.999Z</time></trkpt><trkpt lat="37.09117514376341" lon="14.756667039860718"><ele>501.0</ele><time>2026-05-03T15:15:34.999Z</time></trkpt><trkpt lat="37.0910987661808" lon="14.756614289435152"><ele>501.0</ele><time>2026-05-03T15:15:35.999Z</time></trkpt><trkpt lat="37.091034354447075" lon="14.756612522372334"><ele>501.0</ele><time>2026-05-03T15:15:36.999Z</time></trkpt><trkpt lat="37.09092470938996" lon="14.756586891930707"><ele>501.0</ele><time>2026-05-03T15:15:38.999Z</time></trkpt><trkpt lat="37.09086120842844" lon="14.756626174933746"><ele>501.0</ele><time>2026-05-03T15:15:39.999Z</time></trkpt><trkpt lat="37.09080360421578" lon="14.756691046303366"><ele>501.0</ele><time>2026-05-03T15:15:41Z</time></trkpt><trkpt lat="37.09075836435612" lon="14.756764274181132"><ele>501.0</ele><time>2026-05-03T15:15:42Z</time></trkpt><trkpt lat="37.0907429724102" lon="14.756875598374187"><ele>502.8333333333333</ele><time>2026-05-03T15:15:43Z</time></trkpt><trkpt lat="37.09071503042426" lon="14.756952592915413"><ele>504.66666666666663</ele><time>2026-05-03T15:15:44Z</time></trkpt><trkpt lat="37.09064847771056" lon="14.756971970493927"><ele>506.5</ele><time>2026-05-03T15:15:46Z</time></trkpt><trkpt lat="37.0906126080506" lon="14.756830192897523"><ele>508.3333333333333</ele><time>2026-05-03T15:15:48Z</time></trkpt><trkpt lat="37.090556632055225" lon="14.756751740659716"><ele>510.16666666666663</ele><time>2026-05-03T15:15:49Z</time></trkpt><trkpt lat="37.090509107327804" lon="14.756663633324557"><ele>512.0</ele><time>2026-05-03T15:15:50Z</time></trkpt><trkpt lat="37.09043566480479" lon="14.756595381303473"><ele>512.0</ele><time>2026-05-03T15:15:51Z</time></trkpt><trkpt lat="37.09034370962923" lon="14.756542028942718"><ele>512.0</ele><time>2026-05-03T15:15:52Z</time></trkpt><trkpt lat="37.090255434728185" lon="14.756517148319915"><ele>512.0</ele><time>2026-05-03T15:15:53Z</time></trkpt><trkpt lat="37.09017043327825" lon="14.756516213514937"><ele>512.0</ele><time>2026-05-03T15:15:54Z</time></trkpt><trkpt lat="37.09007101009635" lon="14.75652746819319"><ele>512.0</ele><time>2026-05-03T15:15:55Z</time></trkpt><trkpt lat="37.089972140684594" lon="14.756546558063166"><ele>509.0</ele><time>2026-05-03T15:15:56Z</time></trkpt><trkpt lat="37.08987125110043" lon="14.75657808215952"><ele>506.00000000000006</ele><time>2026-05-03T15:15:57Z</time></trkpt><trkpt lat="37.089792524202174" lon="14.756606900349935"><ele>503.00000000000006</ele><time>2026-05-03T15:15:58Z</time></trkpt><trkpt lat="37.0897162291524" lon="14.756651374714913"><ele>500.0</ele><time>2026-05-03T15:15:59Z</time></trkpt><trkpt lat="37.08962792761755" lon="14.756705772750793"><ele>497.0</ele><time>2026-05-03T15:16:00Z</time></trkpt><trkpt lat="37.08954953697315" lon="14.756770306685997"><ele>497.0</ele><time>2026-05-03T15:16:01Z</time></trkpt><trkpt lat="37.089468756580274" lon="14.756855096866975"><ele>497.0</ele><time>2026-05-03T15:16:02Z</time></trkpt><trkpt lat="37.08937317816063" lon="14.756975256090081"><ele>497.0</ele><time>2026-05-03T15:16:03Z</time></trkpt><trkpt lat="37.089270384730085" lon="14.757096150740013"><ele>497.0</ele><time>2026-05-03T15:16:04Z</time></trkpt><trkpt lat="37.08915139531544" lon="14.757177021904107"><ele>502.5</ele><time>2026-05-03T15:16:05Z</time></trkpt><trkpt lat="37.08903281789414" lon="14.757280038909958"><ele>508.0</ele><time>2026-05-03T15:16:06Z</time></trkpt><trkpt lat="37.08889774971098" lon="14.757339867872263"><ele>513.5</ele><time>2026-05-03T15:16:07Z</time></trkpt><trkpt lat="37.08878090967822" lon="14.757401607250959"><ele>519.0</ele><time>2026-05-03T15:16:08Z</time></trkpt><trkpt lat="37.08867899704107" lon="14.757456483125386"><ele>519.0</ele><time>2026-05-03T15:16:09Z</time></trkpt><trkpt lat="37.08858735408207" lon="14.7575191821015"><ele>519.0</ele><time>2026-05-03T15:16:10Z</time></trkpt><trkpt lat="37.08847487201525" lon="14.757551356154845"><ele>519.0</ele><time>2026-05-03T15:16:11Z</time></trkpt><trkpt lat="37.08833334736867" lon="14.757561963012968"><ele>519.0</ele><time>2026-05-03T15:16:12Z</time></trkpt><trkpt lat="37.08815472974469" lon="14.757537056237473"><ele>521.3333333333334</ele><time>2026-05-03T15:16:13Z</time></trkpt><trkpt lat="37.08797938830854" lon="14.757468927126155"><ele>523.6666666666667</ele><time>2026-05-03T15:16:14Z</time></trkpt><trkpt lat="37.08781611727759" lon="14.75738648828982"><ele>526.0</ele><time>2026-05-03T15:16:15Z</time></trkpt><trkpt lat="37.087677499695786" lon="14.757326185940547"><ele>526.0</ele><time>2026-05-03T15:16:16Z</time></trkpt><trkpt lat="37.08754347967376" lon="14.757298022732586"><ele>526.0</ele><time>2026-05-03T15:16:17Z</time></trkpt><trkpt lat="37.08739436953605" lon="14.757279347212924"><ele>526.0</ele><time>2026-05-03T15:16:18Z</time></trkpt><trkpt lat="37.08723813183831" lon="14.75726080350188"><ele>526.0</ele><time>2026-05-03T15:16:19Z</time></trkpt><trkpt lat="37.08707132310227" lon="14.757360430529724"><ele>525.3333333333334</ele><time>2026-05-03T15:16:20Z</time></trkpt><trkpt lat="37.08691875045931" lon="14.757371650820964"><ele>524.6666666666666</ele><time>2026-05-03T15:16:21Z</time></trkpt><trkpt lat="37.086762486563536" lon="14.757347063086296"><ele>524.0</ele><time>2026-05-03T15:16:22Z</time></trkpt><trkpt lat="37.086599658884644" lon="14.75729043742204"><ele>526.3333333333333</ele><time>2026-05-03T15:16:23Z</time></trkpt><trkpt lat="37.08643649298407" lon="14.757219694415364"><ele>528.6666666666666</ele><time>2026-05-03T15:16:24Z</time></trkpt><trkpt lat="37.08627309171423" lon="14.757151396575795"><ele>531.0</ele><time>2026-05-03T15:16:25Z</time></trkpt><trkpt lat="37.08612417304435" lon="14.757095573974148"><ele>531.0</ele><time>2026-05-03T15:16:26Z</time></trkpt><trkpt lat="37.08598272914245" lon="14.757063381207145"><ele>531.0</ele><time>2026-05-03T15:16:27Z</time></trkpt><trkpt lat="37.08583746804096" lon="14.757062806363388"><ele>531.0</ele><time>2026-05-03T15:16:27.999Z</time></trkpt><trkpt lat="37.08567858304285" lon="14.757121253884998"><ele>525.3333333333334</ele><time>2026-05-03T15:16:28.999Z</time></trkpt><trkpt lat="37.085518749683345" lon="14.757204599452999"><ele>519.6666666666667</ele><time>2026-05-03T15:16:29.999Z</time></trkpt><trkpt lat="37.08536294635182" lon="14.757315103058971"><ele>514.0</ele><time>2026-05-03T15:16:30.999Z</time></trkpt><trkpt lat="37.08521435120102" lon="14.757445229569257"><ele>514.0</ele><time>2026-05-03T15:16:31.999Z</time></trkpt><trkpt lat="37.085074149900805" lon="14.75760116617916"><ele>514.0</ele><time>2026-05-03T15:16:32.999Z</time></trkpt><trkpt lat="37.08493254549902" lon="14.7577728367209"><ele>514.0</ele><time>2026-05-03T15:16:33.999Z</time></trkpt><trkpt lat="37.08478969553092" lon="14.757955542619342"><ele>516.6666666666667</ele><time>2026-05-03T15:16:34.999Z</time></trkpt><trkpt lat="37.08466973495109" lon="14.758147881536399"><ele>519.3333333333334</ele><time>2026-05-03T15:16:35.999Z</time></trkpt><trkpt lat="37.08457050753313" lon="14.758345390765728"><ele>522.0</ele><time>2026-05-03T15:16:36.999Z</time></trkpt><trkpt lat="37.0844685709672" lon="14.758563603295032"><ele>525.6666666666666</ele><time>2026-05-03T15:16:37.999Z</time></trkpt><trkpt lat="37.084365809599774" lon="14.758783651243814"><ele>529.3333333333333</ele><time>2026-05-03T15:16:38.999Z</time></trkpt><trkpt lat="37.08426181539464" lon="14.758987571047623"><ele>533.0</ele><time>2026-05-03T15:16:39.999Z</time></trkpt><trkpt lat="37.08415286927675" lon="14.759166174671726"><ele>532.6666666666666</ele><time>2026-05-03T15:16:40.999Z</time></trkpt><trkpt lat="37.084021405657225" lon="14.759324293555657"><ele>532.3333333333334</ele><time>2026-05-03T15:16:41.999Z</time></trkpt><trkpt lat="37.08390392134831" lon="14.759487895898856"><ele>532.0</ele><time>2026-05-03T15:16:42.999Z</time></trkpt><trkpt lat="37.08379271665199" lon="14.759645226138224"><ele>532.0</ele><time>2026-05-03T15:16:43.999Z</time></trkpt><trkpt lat="37.083703588614846" lon="14.75979475324944"><ele>532.0</ele><time>2026-05-03T15:16:44.999Z</time></trkpt><trkpt lat="37.08361561529851" lon="14.75992295035105"><ele>532.0</ele><time>2026-05-03T15:16:45.999Z</time></trkpt><trkpt lat="37.083548932985536" lon="14.760065147094743"><ele>532.0</ele><time>2026-05-03T15:16:46.999Z</time></trkpt><trkpt lat="37.083490694312836" lon="14.76023424451568"><ele>534.6666666666667</ele><time>2026-05-03T15:16:47.999Z</time></trkpt><trkpt lat="37.08344040125547" lon="14.760415750059156"><ele>537.3333333333334</ele><time>2026-05-03T15:16:48.999Z</time></trkpt><trkpt lat="37.08340342732851" lon="14.760609986778023"><ele>540.0</ele><time>2026-05-03T15:16:49.999Z</time></trkpt><trkpt lat="37.08338450405496" lon="14.760813005617859"><ele>540.0</ele><time>2026-05-03T15:16:50.999Z</time></trkpt><trkpt lat="37.0833678644482" lon="14.761021369453363"><ele>540.0</ele><time>2026-05-03T15:16:51.999Z</time></trkpt><trkpt lat="37.08332657341364" lon="14.761232754222195"><ele>540.0</ele><time>2026-05-03T15:16:52.999Z</time></trkpt><trkpt lat="37.08329999714535" lon="14.76144447953713"><ele>542.6666666666666</ele><time>2026-05-03T15:16:53.999Z</time></trkpt><trkpt lat="37.083272965965534" lon="14.761659828901623"><ele>545.3333333333333</ele><time>2026-05-03T15:16:54.999Z</time></trkpt><trkpt lat="37.08325953594348" lon="14.761884135967986"><ele>548.0</ele><time>2026-05-03T15:16:55.999Z</time></trkpt><trkpt lat="37.08323062805115" lon="14.762101564983258"><ele>555.0</ele><time>2026-05-03T15:16:56.999Z</time></trkpt><trkpt lat="37.0832042798798" lon="14.762303809525733"><ele>562.0</ele><time>2026-05-03T15:16:57.999Z</time></trkpt><trkpt lat="37.08318084658421" lon="14.762482706461723"><ele>569.0</ele><time>2026-05-03T15:16:58.999Z</time></trkpt><trkpt lat="37.08315781280663" lon="14.76266405621162"><ele>567.75</ele><time>2026-05-03T15:16:59.999Z</time></trkpt><trkpt lat="37.083132566929976" lon="14.762843067023322"><ele>566.5</ele><time>2026-05-03T15:17:00.999Z</time></trkpt><trkpt lat="37.083108738979" lon="14.763021465895038"><ele>565.25</ele><time>2026-05-03T15:17:01.999Z</time></trkpt><trkpt lat="37.08308515684385" lon="14.76320214653858"><ele>564.0</ele><time>2026-05-03T15:17:02.999Z</time></trkpt><trkpt lat="37.083062070995965" lon="14.763384650547335"><ele>563.0</ele><time>2026-05-03T15:17:03.999Z</time></trkpt><trkpt lat="37.083037705603424" lon="14.76356896304962"><ele>562.0</ele><time>2026-05-03T15:17:04.999Z</time></trkpt><trkpt lat="37.08301285361217" lon="14.763757190803412"><ele>561.0</ele><time>2026-05-03T15:17:05.999Z</time></trkpt><trkpt lat="37.08298773103842" lon="14.76394008233496"><ele>560.0</ele><time>2026-05-03T15:17:06.999Z</time></trkpt><trkpt lat="37.082951071239385" lon="14.76411969396369"><ele>560.0</ele><time>2026-05-03T15:17:07.999Z</time></trkpt><trkpt lat="37.08289738220007" lon="14.764294415298101"><ele>560.0</ele><time>2026-05-03T15:17:08.999Z</time></trkpt><trkpt lat="37.08282845641277" lon="14.764459668563932"><ele>560.0</ele><time>2026-05-03T15:17:09.999Z</time></trkpt><trkpt lat="37.08275483557898" lon="14.764624565739313"><ele>560.0</ele><time>2026-05-03T15:17:10.999Z</time></trkpt><trkpt lat="37.08267757862019" lon="14.764789143719975"><ele>559.75</ele><time>2026-05-03T15:17:11.999Z</time></trkpt><trkpt lat="37.08260024206519" lon="14.764951164448593"><ele>559.5</ele><time>2026-05-03T15:17:12.999Z</time></trkpt><trkpt lat="37.08252837347051" lon="14.765109422140128"><ele>559.25</ele><time>2026-05-03T15:17:13.999Z</time></trkpt><trkpt lat="37.08245601899496" lon="14.765260980099926"><ele>559.0</ele><time>2026-05-03T15:17:14.999Z</time></trkpt><trkpt lat="37.08237774621035" lon="14.765410621736915"><ele>561.5</ele><time>2026-05-03T15:17:15.999Z</time></trkpt><trkpt lat="37.0822840778531" lon="14.76554785303184"><ele>564.0</ele><time>2026-05-03T15:17:16.999Z</time></trkpt><trkpt lat="37.08217636215676" lon="14.765670927474469"><ele>566.5</ele><time>2026-05-03T15:17:17.999Z</time></trkpt><trkpt lat="37.08205599364329" lon="14.765778279035706"><ele>569.0</ele><time>2026-05-03T15:17:18.999Z</time></trkpt><trkpt lat="37.08193023334771" lon="14.765881113949037"><ele>569.0</ele><time>2026-05-03T15:17:19.999Z</time></trkpt><trkpt lat="37.081804877769294" lon="14.765985123917336"><ele>569.0</ele><time>2026-05-03T15:17:20.999Z</time></trkpt><trkpt lat="37.081679836621426" lon="14.766092025879264"><ele>569.0</ele><time>2026-05-03T15:17:21.999Z</time></trkpt><trkpt lat="37.08155868822916" lon="14.76619617390453"><ele>569.0</ele><time>2026-05-03T15:17:22.999Z</time></trkpt><trkpt lat="37.08144205905793" lon="14.766297851062783"><ele>571.25</ele><time>2026-05-03T15:17:23.999Z</time></trkpt><trkpt lat="37.08133029770582" lon="14.766394369702404"><ele>573.5</ele><time>2026-05-03T15:17:24.999Z</time></trkpt><trkpt lat="37.08122144389012" lon="14.766491050765335"><ele>575.75</ele><time>2026-05-03T15:17:25.999Z</time></trkpt><trkpt lat="37.08111805912659" lon="14.766597557201717"><ele>578.0</ele><time>2026-05-03T15:17:26.999Z</time></trkpt><trkpt lat="37.081025870783755" lon="14.766721993115665"><ele>581.0</ele><time>2026-05-03T15:17:27.999Z</time></trkpt><trkpt lat="37.08094076354562" lon="14.766865107359994"><ele>584.0</ele><time>2026-05-03T15:17:28.999Z</time></trkpt><trkpt lat="37.08085974955497" lon="14.767014988731484"><ele>587.0</ele><time>2026-05-03T15:17:29.999Z</time></trkpt><trkpt lat="37.08077569257691" lon="14.767162649747164"><ele>590.0</ele><time>2026-05-03T15:17:30.999Z</time></trkpt><trkpt lat="37.08069589642972" lon="14.767310698254038"><ele>590.5</ele><time>2026-05-03T15:17:31.999Z</time></trkpt><trkpt lat="37.08062003408116" lon="14.767454798487218"><ele>591.0</ele><time>2026-05-03T15:17:32.999Z</time></trkpt><trkpt lat="37.080544912793194" lon="14.767591880535102"><ele>591.5</ele><time>2026-05-03T15:17:33.999Z</time></trkpt><trkpt lat="37.08047209472238" lon="14.767714823349154"><ele>592.0</ele><time>2026-05-03T15:17:34.999Z</time></trkpt><trkpt lat="37.080396652804204" lon="14.767816089149752"><ele>592.0</ele><time>2026-05-03T15:17:35.999Z</time></trkpt><trkpt lat="37.080299960589684" lon="14.767890529476848"><ele>592.0</ele><time>2026-05-03T15:17:36.999Z</time></trkpt><trkpt lat="37.08018709787842" lon="14.767949336942884"><ele>592.0</ele><time>2026-05-03T15:17:37.999Z</time></trkpt><trkpt lat="37.08005963477321" lon="14.767969304765298"><ele>592.0</ele><time>2026-05-03T15:17:38.999Z</time></trkpt><trkpt lat="37.07992535100209" lon="14.767979549625206"><ele>594.25</ele><time>2026-05-03T15:17:39.999Z</time></trkpt><trkpt lat="37.079781604248915" lon="14.76798481198493"><ele>596.5</ele><time>2026-05-03T15:17:40.999Z</time></trkpt><trkpt lat="37.07963770284975" lon="14.767996586726575"><ele>598.75</ele><time>2026-05-03T15:17:41.999Z</time></trkpt><trkpt lat="37.07949862722919" lon="14.768020625312984"><ele>601.0</ele><time>2026-05-03T15:17:42.999Z</time></trkpt><trkpt lat="37.07936523737597" lon="14.768052926599667"><ele>601.0</ele><time>2026-05-03T15:17:43.999Z</time></trkpt><trkpt lat="37.07923451489396" lon="14.76809722647561"><ele>601.0</ele><time>2026-05-03T15:17:44.999Z</time></trkpt><trkpt lat="37.07911494401021" lon="14.768148791881693"><ele>601.0</ele><time>2026-05-03T15:17:45.999Z</time></trkpt><trkpt lat="37.07900084824387" lon="14.76819114248696"><ele>601.0</ele><time>2026-05-03T15:17:47Z</time></trkpt><trkpt lat="37.07888942563345" lon="14.76823393447822"><ele>602.4</ele><time>2026-05-03T15:17:48Z</time></trkpt><trkpt lat="37.078781772779486" lon="14.768276331495064"><ele>603.8</ele><time>2026-05-03T15:17:49Z</time></trkpt><trkpt lat="37.07867579079244" lon="14.768321654612729"><ele>605.1999999999999</ele><time>2026-05-03T15:17:50Z</time></trkpt><trkpt lat="37.07857317531929" lon="14.768352698552599"><ele>606.6</ele><time>2026-05-03T15:17:51Z</time></trkpt><trkpt lat="37.078474249318965" lon="14.76838174089707"><ele>608.0</ele><time>2026-05-03T15:17:52Z</time></trkpt><trkpt lat="37.07839323287034" lon="14.768413148341542"><ele>608.0</ele><time>2026-05-03T15:17:53Z</time></trkpt><trkpt lat="37.07833026453207" lon="14.768463720852768"><ele>608.0</ele><time>2026-05-03T15:17:54Z</time></trkpt><trkpt lat="37.07824817781635" lon="14.768486377210204"><ele>608.0</ele><time>2026-05-03T15:17:55Z</time></trkpt><trkpt lat="37.07814748224742" lon="14.768557926496271"><ele>608.0</ele><time>2026-05-03T15:17:57Z</time></trkpt><trkpt lat="37.078237347573825" lon="14.768897447184768"><ele>608.5</ele><time>2026-05-03T15:17:59Z</time></trkpt><trkpt lat="37.07833092382895" lon="14.76897439265256"><ele>609.0</ele><time>2026-05-03T15:18:00Z</time></trkpt><trkpt lat="37.07842474154039" lon="14.769066141558573"><ele>609.5</ele><time>2026-05-03T15:18:01Z</time></trkpt><trkpt lat="37.07854863772386" lon="14.769109117377031"><ele>610.0</ele><time>2026-05-03T15:18:02Z</time></trkpt><trkpt lat="37.07867882134529" lon="14.769121327279677"><ele>610.0</ele><time>2026-05-03T15:18:03Z</time></trkpt><trkpt lat="37.0788054311042" lon="14.769077480565683"><ele>610.0</ele><time>2026-05-03T15:18:04Z</time></trkpt><trkpt lat="37.078926821502115" lon="14.769045390298551"><ele>610.0</ele><time>2026-05-03T15:18:05Z</time></trkpt><trkpt lat="37.079036509160844" lon="14.769029650051262"><ele>610.0</ele><time>2026-05-03T15:18:06Z</time></trkpt><trkpt lat="37.07915072141604" lon="14.76902003919138"><ele>611.5</ele><time>2026-05-03T15:18:07Z</time></trkpt><trkpt lat="37.07925913953835" lon="14.769085995648267"><ele>613.0</ele><time>2026-05-03T15:18:08Z</time></trkpt><trkpt lat="37.07936776029421" lon="14.769158855100589"><ele>614.5</ele><time>2026-05-03T15:18:09Z</time></trkpt><trkpt lat="37.07946388387229" lon="14.769269423736683"><ele>616.0</ele><time>2026-05-03T15:18:10Z</time></trkpt><trkpt lat="37.07956316062384" lon="14.769401798227506"><ele>620.6666666666667</ele><time>2026-05-03T15:18:11Z</time></trkpt><trkpt lat="37.079665695382374" lon="14.76954766733005"><ele>625.3333333333334</ele><time>2026-05-03T15:18:12Z</time></trkpt><trkpt lat="37.07978159241422" lon="14.769708691727809"><ele>630.0</ele><time>2026-05-03T15:18:13Z</time></trkpt><trkpt lat="37.0798959143336" lon="14.769862192734168"><ele>632.3333333333334</ele><time>2026-05-03T15:18:14Z</time></trkpt><trkpt lat="37.08000092286082" lon="14.77000123070152"><ele>634.6666666666667</ele><time>2026-05-03T15:18:15Z</time></trkpt><trkpt lat="37.08012158169479" lon="14.770126338044669"><ele>637.0</ele><time>2026-05-03T15:18:16Z</time></trkpt><trkpt lat="37.08027033364745" lon="14.770232629021367"><ele>637.0</ele><time>2026-05-03T15:18:17Z</time></trkpt><trkpt lat="37.08045956574567" lon="14.770319098535609"><ele>637.0</ele><time>2026-05-03T15:18:18Z</time></trkpt><trkpt lat="37.08066854201735" lon="14.770402642666076"><ele>637.0</ele><time>2026-05-03T15:18:19Z</time></trkpt><trkpt lat="37.080881439250845" lon="14.770486510773749"><ele>635.3333333333334</ele><time>2026-05-03T15:18:20Z</time></trkpt><trkpt lat="37.081086939315725" lon="14.77056838523937"><ele>633.6666666666666</ele><time>2026-05-03T15:18:21Z</time></trkpt><trkpt lat="37.08127908969823" lon="14.77064721923408"><ele>632.0</ele><time>2026-05-03T15:18:22Z</time></trkpt><trkpt lat="37.08146977341715" lon="14.770725209150783"><ele>631.6666666666666</ele><time>2026-05-03T15:18:23Z</time></trkpt><trkpt lat="37.081652193964196" lon="14.770800880416086"><ele>631.3333333333334</ele><time>2026-05-03T15:18:24Z</time></trkpt><trkpt lat="37.081837354276715" lon="14.770877571524165"><ele>631.0</ele><time>2026-05-03T15:18:25Z</time></trkpt><trkpt lat="37.081975597287546" lon="14.770941448847879"><ele>631.0</ele><time>2026-05-03T15:18:26Z</time></trkpt><trkpt lat="37.08211168986116" lon="14.771014887197959"><ele>631.0</ele><time>2026-05-03T15:18:27Z</time></trkpt><trkpt lat="37.0822449157046" lon="14.771093595140867"><ele>631.0</ele><time>2026-05-03T15:18:28Z</time></trkpt><trkpt lat="37.08237514077165" lon="14.771174844253965"><ele>631.0</ele><time>2026-05-03T15:18:29Z</time></trkpt><trkpt lat="37.08251249526387" lon="14.771258471774537"><ele>637.6666666666667</ele><time>2026-05-03T15:18:30Z</time></trkpt><trkpt lat="37.0826433908638" lon="14.771337442156488"><ele>644.3333333333334</ele><time>2026-05-03T15:18:30.999Z</time></trkpt><trkpt lat="37.08278814524434" lon="14.771424806554325"><ele>651.0</ele><time>2026-05-03T15:18:31.999Z</time></trkpt><trkpt lat="37.08294199183673" lon="14.771517784616318"><ele>651.0</ele><time>2026-05-03T15:18:32.999Z</time></trkpt><trkpt lat="37.08309434424403" lon="14.771609859657044"><ele>651.0</ele><time>2026-05-03T15:18:33.999Z</time></trkpt><trkpt lat="37.08326194281047" lon="14.771671254384572"><ele>651.0</ele><time>2026-05-03T15:18:34.999Z</time></trkpt><trkpt lat="37.083413618944846" lon="14.771714258640914"><ele>648.75</ele><time>2026-05-03T15:18:35.999Z</time></trkpt><trkpt lat="37.08354810938258" lon="14.771749501320645"><ele>646.5</ele><time>2026-05-03T15:18:36.999Z</time></trkpt><trkpt lat="37.083680868310616" lon="14.771759928709702"><ele>644.25</ele><time>2026-05-03T15:18:37.999Z</time></trkpt><trkpt lat="37.08380509336701" lon="14.771829470004919"><ele>642.0</ele><time>2026-05-03T15:18:38.999Z</time></trkpt><trkpt lat="37.083920744723684" lon="14.771931768000815"><ele>642.0</ele><time>2026-05-03T15:18:39.999Z</time></trkpt><trkpt lat="37.08402342659666" lon="14.772068381857672"><ele>642.0</ele><time>2026-05-03T15:18:40.999Z</time></trkpt><trkpt lat="37.08409194844962" lon="14.772256155578209"><ele>642.0</ele><time>2026-05-03T15:18:41.999Z</time></trkpt><trkpt lat="37.0841877625414" lon="14.772418398333713"><ele>642.0</ele><time>2026-05-03T15:18:42.999Z</time></trkpt><trkpt lat="37.08428162302779" lon="14.772573467685618"><ele>642.0</ele><time>2026-05-03T15:18:43.999Z</time></trkpt><trkpt lat="37.0843945447407" lon="14.772710592896738"><ele>642.0</ele><time>2026-05-03T15:18:44.999Z</time></trkpt><trkpt lat="37.08452447787671" lon="14.772812264001649"><ele>643.5</ele><time>2026-05-03T15:18:45.999Z</time></trkpt><trkpt lat="37.084648270253346" lon="14.772909427131207"><ele>645.0</ele><time>2026-05-03T15:18:46.999Z</time></trkpt><trkpt lat="37.08476812753373" lon="14.772998917014803"><ele>646.5</ele><time>2026-05-03T15:18:47.999Z</time></trkpt><trkpt lat="37.08488978754672" lon="14.773080400126306"><ele>648.0</ele><time>2026-05-03T15:18:48.999Z</time></trkpt><trkpt lat="37.085017405465294" lon="14.773128087641526"><ele>648.0</ele><time>2026-05-03T15:18:49.999Z</time></trkpt><trkpt lat="37.085163095417236" lon="14.773110677728244"><ele>648.0</ele><time>2026-05-03T15:18:50.999Z</time></trkpt><trkpt lat="37.08532103631234" lon="14.773045211257173"><ele>648.0</ele><time>2026-05-03T15:18:51.999Z</time></trkpt><trkpt lat="37.0854903927743" lon="14.772978166721698"><ele>648.0</ele><time>2026-05-03T15:18:52.999Z</time></trkpt><trkpt lat="37.08566895798417" lon="14.772891857371443"><ele>648.0</ele><time>2026-05-03T15:18:53.999Z</time></trkpt><trkpt lat="37.08584024255558" lon="14.772815978212666"><ele>648.0</ele><time>2026-05-03T15:18:54.999Z</time></trkpt><trkpt lat="37.08597883217657" lon="14.772753562849466"><ele>647.25</ele><time>2026-05-03T15:18:55.999Z</time></trkpt><trkpt lat="37.08608496145421" lon="14.772664005806558"><ele>646.5</ele><time>2026-05-03T15:18:56.999Z</time></trkpt><trkpt lat="37.086169560212085" lon="14.772530313751279"><ele>645.75</ele><time>2026-05-03T15:18:57.999Z</time></trkpt><trkpt lat="37.08622428290747" lon="14.772406851743568"><ele>645.0</ele><time>2026-05-03T15:18:58.999Z</time></trkpt><trkpt lat="37.0862860055904" lon="14.772315734817575"><ele>645.0</ele><time>2026-05-03T15:18:59.999Z</time></trkpt><trkpt lat="37.08636252382831" lon="14.772263896270537"><ele>645.0</ele><time>2026-05-03T15:19:00.999Z</time></trkpt><trkpt lat="37.08646466383794" lon="14.772260754218252"><ele>645.0</ele><time>2026-05-03T15:19:01.999Z</time></trkpt><trkpt lat="37.086544096726364" lon="14.772277848597248"><ele>645.0</ele><time>2026-05-03T15:19:02.999Z</time></trkpt><trkpt lat="37.08653222804027" lon="14.772491860094513"><ele>645.0</ele><time>2026-05-03T15:19:05.999Z</time></trkpt><trkpt lat="37.086497443501564" lon="14.77268512451563"><ele>646.5</ele><time>2026-05-03T15:19:06.999Z</time></trkpt><trkpt lat="37.08643281597986" lon="14.772892147301786"><ele>648.0</ele><time>2026-05-03T15:19:07.999Z</time></trkpt><trkpt lat="37.08641476863811" lon="14.773050579093365"><ele>649.5</ele><time>2026-05-03T15:19:08.999Z</time></trkpt><trkpt lat="37.08637239689729" lon="14.77321084897194"><ele>651.0</ele><time>2026-05-03T15:19:09.999Z</time></trkpt><trkpt lat="37.08632281235777" lon="14.773373459618734"><ele>651.0</ele><time>2026-05-03T15:19:10.999Z</time></trkpt><trkpt lat="37.086278471602476" lon="14.77352098254628"><ele>651.0</ele><time>2026-05-03T15:19:11.999Z</time></trkpt><trkpt lat="37.0862469499622" lon="14.773646172709725"><ele>651.0</ele><time>2026-05-03T15:19:12.999Z</time></trkpt><trkpt lat="37.086222230658855" lon="14.773750054728806"><ele>651.0</ele><time>2026-05-03T15:19:13.999Z</time></trkpt><trkpt lat="37.08619566825899" lon="14.773852455689223"><ele>651.0</ele><time>2026-05-03T15:19:14.999Z</time></trkpt><trkpt lat="37.08616609427994" lon="14.773953053846068"><ele>661.0</ele><time>2026-05-03T15:19:15.999Z</time></trkpt><trkpt lat="37.08612886208745" lon="14.774043104328165"><ele>661.0</ele><time>2026-05-03T15:19:16.999Z</time></trkpt><trkpt lat="37.08608792077514" lon="14.77410871359984"><ele>661.0</ele><time>2026-05-03T15:19:17.999Z</time></trkpt><trkpt lat="37.086023411576235" lon="14.774215525808508"><ele>661.0</ele><time>2026-05-03T15:19:19.999Z</time></trkpt></trkseg></trk></gpx>